<?xml version="1.0" encoding="UTF-8" standalone="no" ?>
<gpx xmlns="http://www.topografix.com/GPX/1/1" xmlns:xsi="http://www.w3.org/2001/XMLSchema-instance" xsi:schemaLocation="http://www.topografix.com/GPX/1/1 http://www.topografix.com/GPX/1/1/gpx.xsd" version="1.1" creator="VisuGPX - https://www.visugpx.com">
  <metadata>
    <name>Paris VEZELAY</name>
    <desc><![CDATA[5h:14m:21s | 18.0 km]]></desc>
  </metadata>
  <trk>
    <name><![CDATA[etape 4 2014-03-02 08:35:47]]></name>
    <desc><![CDATA[5h:14m:21s | 18.0 km]]></desc>
    <extensions>
      <line xmlns="http://www.topografix.com/GPX/gpx_style/0/2">
        <color>0000FF</color>
        <width>4</width>
      </line>
    </extensions>
    <trkseg>
      <trkpt lat="48.40539" lon="2.72125">
        <ele>109.5</ele>
        <time>2014-03-02T07:35:50Z</time>
      </trkpt>
      <trkpt lat="48.4055" lon="2.72155">
        <ele>91.66</ele>
        <time>2014-03-02T07:36:45Z</time>
      </trkpt>
      <trkpt lat="48.40542" lon="2.72122">
        <ele>92.42</ele>
        <time>2014-03-02T07:37:37Z</time>
      </trkpt>
      <trkpt lat="48.40529" lon="2.72095">
        <ele>98.46</ele>
        <time>2014-03-02T07:38:24Z</time>
      </trkpt>
      <trkpt lat="48.40532" lon="2.7206">
        <ele>102.87</ele>
        <time>2014-03-02T07:41:11Z</time>
      </trkpt>
      <trkpt lat="48.40533" lon="2.72026">
        <ele>106.42</ele>
        <time>2014-03-02T07:41:37Z</time>
      </trkpt>
      <trkpt lat="48.40534" lon="2.71992">
        <ele>105.47</ele>
        <time>2014-03-02T07:42:06Z</time>
      </trkpt>
      <trkpt lat="48.4053" lon="2.71957">
        <ele>108.32</ele>
        <time>2014-03-02T07:42:22Z</time>
      </trkpt>
      <trkpt lat="48.40508" lon="2.7197">
        <ele>102.8</ele>
        <time>2014-03-02T07:42:46Z</time>
      </trkpt>
      <trkpt lat="48.40488" lon="2.71949">
        <ele>107.28</ele>
        <time>2014-03-02T07:42:57Z</time>
      </trkpt>
      <trkpt lat="48.40486" lon="2.71982">
        <ele>111.25</ele>
        <time>2014-03-02T07:43:32Z</time>
      </trkpt>
      <trkpt lat="48.40466" lon="2.71998">
        <ele>113.5</ele>
        <time>2014-03-02T07:44:04Z</time>
      </trkpt>
      <trkpt lat="48.40446" lon="2.72017">
        <ele>113.85</ele>
        <time>2014-03-02T07:44:30Z</time>
      </trkpt>
      <trkpt lat="48.40447" lon="2.72052">
        <ele>114.51</ele>
        <time>2014-03-02T07:44:48Z</time>
      </trkpt>
      <trkpt lat="48.40446" lon="2.72086">
        <ele>114.99</ele>
        <time>2014-03-02T07:45:27Z</time>
      </trkpt>
      <trkpt lat="48.40441" lon="2.72119">
        <ele>118.73</ele>
        <time>2014-03-02T07:45:38Z</time>
      </trkpt>
      <trkpt lat="48.40443" lon="2.72155">
        <ele>122.77</ele>
        <time>2014-03-02T07:45:54Z</time>
      </trkpt>
      <trkpt lat="48.40441" lon="2.7219">
        <ele>124.85</ele>
        <time>2014-03-02T07:46:17Z</time>
      </trkpt>
      <trkpt lat="48.40442" lon="2.72225">
        <ele>126.87</ele>
        <time>2014-03-02T07:46:36Z</time>
      </trkpt>
      <trkpt lat="48.40444" lon="2.72259">
        <ele>125.57</ele>
        <time>2014-03-02T07:47:00Z</time>
      </trkpt>
      <trkpt lat="48.4045" lon="2.72293">
        <ele>126.13</ele>
        <time>2014-03-02T07:47:21Z</time>
      </trkpt>
      <trkpt lat="48.40451" lon="2.72329">
        <ele>124.62</ele>
        <time>2014-03-02T07:47:42Z</time>
      </trkpt>
      <trkpt lat="48.40452" lon="2.72364">
        <ele>124.81</ele>
        <time>2014-03-02T07:48:04Z</time>
      </trkpt>
      <trkpt lat="48.40454" lon="2.72399">
        <ele>124.61</ele>
        <time>2014-03-02T07:48:23Z</time>
      </trkpt>
      <trkpt lat="48.40458" lon="2.72434">
        <ele>123.09</ele>
        <time>2014-03-02T07:48:53Z</time>
      </trkpt>
      <trkpt lat="48.40462" lon="2.72468">
        <ele>122.38</ele>
        <time>2014-03-02T07:49:11Z</time>
      </trkpt>
      <trkpt lat="48.40456" lon="2.72502">
        <ele>125.76</ele>
        <time>2014-03-02T07:49:30Z</time>
      </trkpt>
      <trkpt lat="48.4046" lon="2.72536">
        <ele>125.9</ele>
        <time>2014-03-02T07:49:47Z</time>
      </trkpt>
      <trkpt lat="48.40465" lon="2.72571">
        <ele>126.03</ele>
        <time>2014-03-02T07:50:10Z</time>
      </trkpt>
      <trkpt lat="48.40467" lon="2.72606">
        <ele>126.76</ele>
        <time>2014-03-02T07:50:27Z</time>
      </trkpt>
      <trkpt lat="48.40471" lon="2.72639">
        <ele>127.41</ele>
        <time>2014-03-02T07:50:46Z</time>
      </trkpt>
      <trkpt lat="48.40479" lon="2.72672">
        <ele>125.6</ele>
        <time>2014-03-02T07:51:08Z</time>
      </trkpt>
      <trkpt lat="48.40482" lon="2.72706">
        <ele>127.37</ele>
        <time>2014-03-02T07:51:28Z</time>
      </trkpt>
      <trkpt lat="48.4049" lon="2.72738">
        <ele>125.38</ele>
        <time>2014-03-02T07:51:46Z</time>
      </trkpt>
      <trkpt lat="48.40471" lon="2.72761">
        <ele>125.01</ele>
        <time>2014-03-02T07:52:06Z</time>
      </trkpt>
      <trkpt lat="48.4045" lon="2.72775">
        <ele>126.98</ele>
        <time>2014-03-02T07:52:23Z</time>
      </trkpt>
      <trkpt lat="48.40432" lon="2.72797">
        <ele>128.24</ele>
        <time>2014-03-02T07:52:36Z</time>
      </trkpt>
      <trkpt lat="48.40411" lon="2.72812">
        <ele>131.27</ele>
        <time>2014-03-02T07:52:57Z</time>
      </trkpt>
      <trkpt lat="48.4039" lon="2.72826">
        <ele>131.96</ele>
        <time>2014-03-02T07:53:14Z</time>
      </trkpt>
      <trkpt lat="48.40369" lon="2.7284">
        <ele>132.3</ele>
        <time>2014-03-02T07:53:32Z</time>
      </trkpt>
      <trkpt lat="48.40371" lon="2.72875">
        <ele>131.61</ele>
        <time>2014-03-02T07:54:10Z</time>
      </trkpt>
      <trkpt lat="48.40377" lon="2.72908">
        <ele>130.58</ele>
        <time>2014-03-02T07:54:33Z</time>
      </trkpt>
      <trkpt lat="48.4036" lon="2.72929">
        <ele>129.13</ele>
        <time>2014-03-02T07:55:16Z</time>
      </trkpt>
      <trkpt lat="48.40341" lon="2.72948">
        <ele>129.68</ele>
        <time>2014-03-02T07:55:44Z</time>
      </trkpt>
      <trkpt lat="48.40323" lon="2.7297">
        <ele>128.36</ele>
        <time>2014-03-02T07:56:09Z</time>
      </trkpt>
      <trkpt lat="48.40303" lon="2.72989">
        <ele>128.08</ele>
        <time>2014-03-02T07:56:29Z</time>
      </trkpt>
      <trkpt lat="48.40283" lon="2.73008">
        <ele>128.51</ele>
        <time>2014-03-02T07:56:53Z</time>
      </trkpt>
      <trkpt lat="48.40265" lon="2.73028">
        <ele>129.49</ele>
        <time>2014-03-02T07:57:07Z</time>
      </trkpt>
      <trkpt lat="48.40246" lon="2.73049">
        <ele>130.67</ele>
        <time>2014-03-02T07:57:33Z</time>
      </trkpt>
      <trkpt lat="48.40225" lon="2.73066">
        <ele>130.9</ele>
        <time>2014-03-02T07:57:50Z</time>
      </trkpt>
      <trkpt lat="48.40206" lon="2.73085">
        <ele>130.31</ele>
        <time>2014-03-02T07:58:11Z</time>
      </trkpt>
      <trkpt lat="48.40188" lon="2.73108">
        <ele>129.01</ele>
        <time>2014-03-02T07:58:30Z</time>
      </trkpt>
      <trkpt lat="48.4017" lon="2.7313">
        <ele>128.82</ele>
        <time>2014-03-02T07:58:52Z</time>
      </trkpt>
      <trkpt lat="48.4015" lon="2.7315">
        <ele>128.12</ele>
        <time>2014-03-02T07:59:12Z</time>
      </trkpt>
      <trkpt lat="48.40133" lon="2.73175">
        <ele>127.88</ele>
        <time>2014-03-02T07:59:32Z</time>
      </trkpt>
      <trkpt lat="48.40116" lon="2.73197">
        <ele>126.91</ele>
        <time>2014-03-02T07:59:51Z</time>
      </trkpt>
      <trkpt lat="48.401" lon="2.7322">
        <ele>127.42</ele>
        <time>2014-03-02T08:00:10Z</time>
      </trkpt>
      <trkpt lat="48.4008" lon="2.73239">
        <ele>128.57</ele>
        <time>2014-03-02T08:00:30Z</time>
      </trkpt>
      <trkpt lat="48.40063" lon="2.73266">
        <ele>129.59</ele>
        <time>2014-03-02T08:00:50Z</time>
      </trkpt>
      <trkpt lat="48.40048" lon="2.73292">
        <ele>129.75</ele>
        <time>2014-03-02T08:01:08Z</time>
      </trkpt>
      <trkpt lat="48.40032" lon="2.73317">
        <ele>131.71</ele>
        <time>2014-03-02T08:01:27Z</time>
      </trkpt>
      <trkpt lat="48.40016" lon="2.73341">
        <ele>131.85</ele>
        <time>2014-03-02T08:01:48Z</time>
      </trkpt>
      <trkpt lat="48.4" lon="2.73367">
        <ele>132.67</ele>
        <time>2014-03-02T08:02:08Z</time>
      </trkpt>
      <trkpt lat="48.39984" lon="2.73394">
        <ele>133.55</ele>
        <time>2014-03-02T08:02:28Z</time>
      </trkpt>
      <trkpt lat="48.39969" lon="2.73419">
        <ele>132.23</ele>
        <time>2014-03-02T08:02:44Z</time>
      </trkpt>
      <trkpt lat="48.39952" lon="2.73444">
        <ele>132.13</ele>
        <time>2014-03-02T08:03:00Z</time>
      </trkpt>
      <trkpt lat="48.39937" lon="2.73468">
        <ele>132.14</ele>
        <time>2014-03-02T08:03:23Z</time>
      </trkpt>
      <trkpt lat="48.39922" lon="2.73494">
        <ele>131.12</ele>
        <time>2014-03-02T08:03:43Z</time>
      </trkpt>
      <trkpt lat="48.39908" lon="2.73522">
        <ele>129.64</ele>
        <time>2014-03-02T08:04:04Z</time>
      </trkpt>
      <trkpt lat="48.39892" lon="2.73546">
        <ele>129.58</ele>
        <time>2014-03-02T08:04:25Z</time>
      </trkpt>
      <trkpt lat="48.3988" lon="2.73575">
        <ele>129.96</ele>
        <time>2014-03-02T08:04:44Z</time>
      </trkpt>
      <trkpt lat="48.39865" lon="2.73603">
        <ele>130.76</ele>
        <time>2014-03-02T08:05:01Z</time>
      </trkpt>
      <trkpt lat="48.39853" lon="2.73631">
        <ele>130.44</ele>
        <time>2014-03-02T08:05:22Z</time>
      </trkpt>
      <trkpt lat="48.39841" lon="2.73661">
        <ele>131.15</ele>
        <time>2014-03-02T08:05:43Z</time>
      </trkpt>
      <trkpt lat="48.39827" lon="2.73689">
        <ele>130.46</ele>
        <time>2014-03-02T08:06:01Z</time>
      </trkpt>
      <trkpt lat="48.39813" lon="2.73717">
        <ele>130.25</ele>
        <time>2014-03-02T08:06:21Z</time>
      </trkpt>
      <trkpt lat="48.39799" lon="2.73745">
        <ele>128.99</ele>
        <time>2014-03-02T08:06:40Z</time>
      </trkpt>
      <trkpt lat="48.39787" lon="2.73776">
        <ele>129.05</ele>
        <time>2014-03-02T08:06:58Z</time>
      </trkpt>
      <trkpt lat="48.39777" lon="2.73805">
        <ele>127.66</ele>
        <time>2014-03-02T08:07:16Z</time>
      </trkpt>
      <trkpt lat="48.39765" lon="2.73836">
        <ele>128.69</ele>
        <time>2014-03-02T08:07:33Z</time>
      </trkpt>
      <trkpt lat="48.39755" lon="2.73868">
        <ele>129.21</ele>
        <time>2014-03-02T08:07:52Z</time>
      </trkpt>
      <trkpt lat="48.39745" lon="2.739">
        <ele>129.37</ele>
        <time>2014-03-02T08:08:11Z</time>
      </trkpt>
      <trkpt lat="48.39734" lon="2.73931">
        <ele>129.04</ele>
        <time>2014-03-02T08:08:31Z</time>
      </trkpt>
      <trkpt lat="48.39724" lon="2.73961">
        <ele>128.88</ele>
        <time>2014-03-02T08:08:49Z</time>
      </trkpt>
      <trkpt lat="48.39715" lon="2.73993">
        <ele>128.44</ele>
        <time>2014-03-02T08:09:12Z</time>
      </trkpt>
      <trkpt lat="48.39705" lon="2.74024">
        <ele>129.06</ele>
        <time>2014-03-02T08:09:27Z</time>
      </trkpt>
      <trkpt lat="48.39696" lon="2.74057">
        <ele>128.83</ele>
        <time>2014-03-02T08:09:45Z</time>
      </trkpt>
      <trkpt lat="48.39688" lon="2.74089">
        <ele>128.29</ele>
        <time>2014-03-02T08:10:02Z</time>
      </trkpt>
      <trkpt lat="48.3968" lon="2.74122">
        <ele>127.12</ele>
        <time>2014-03-02T08:10:23Z</time>
      </trkpt>
      <trkpt lat="48.39673" lon="2.74156">
        <ele>126.81</ele>
        <time>2014-03-02T08:10:44Z</time>
      </trkpt>
      <trkpt lat="48.39666" lon="2.7419">
        <ele>126.22</ele>
        <time>2014-03-02T08:11:08Z</time>
      </trkpt>
      <trkpt lat="48.39658" lon="2.74222">
        <ele>125.33</ele>
        <time>2014-03-02T08:11:22Z</time>
      </trkpt>
      <trkpt lat="48.3965" lon="2.74254">
        <ele>126.65</ele>
        <time>2014-03-02T08:11:40Z</time>
      </trkpt>
      <trkpt lat="48.39645" lon="2.74288">
        <ele>125.86</ele>
        <time>2014-03-02T08:11:58Z</time>
      </trkpt>
      <trkpt lat="48.39638" lon="2.74322">
        <ele>125.01</ele>
        <time>2014-03-02T08:12:18Z</time>
      </trkpt>
      <trkpt lat="48.39633" lon="2.74356">
        <ele>123.97</ele>
        <time>2014-03-02T08:12:39Z</time>
      </trkpt>
      <trkpt lat="48.39628" lon="2.74391">
        <ele>122.24</ele>
        <time>2014-03-02T08:12:59Z</time>
      </trkpt>
      <trkpt lat="48.39621" lon="2.74425">
        <ele>122.81</ele>
        <time>2014-03-02T08:13:18Z</time>
      </trkpt>
      <trkpt lat="48.39615" lon="2.74459">
        <ele>123.39</ele>
        <time>2014-03-02T08:13:35Z</time>
      </trkpt>
      <trkpt lat="48.39612" lon="2.74495">
        <ele>122.85</ele>
        <time>2014-03-02T08:13:55Z</time>
      </trkpt>
      <trkpt lat="48.39607" lon="2.74528">
        <ele>123.1</ele>
        <time>2014-03-02T08:14:10Z</time>
      </trkpt>
      <trkpt lat="48.39606" lon="2.74564">
        <ele>124.1</ele>
        <time>2014-03-02T08:14:35Z</time>
      </trkpt>
      <trkpt lat="48.39602" lon="2.74598">
        <ele>124.93</ele>
        <time>2014-03-02T08:14:53Z</time>
      </trkpt>
      <trkpt lat="48.39599" lon="2.74633">
        <ele>124.28</ele>
        <time>2014-03-02T08:15:13Z</time>
      </trkpt>
      <trkpt lat="48.39598" lon="2.74667">
        <ele>122.53</ele>
        <time>2014-03-02T08:15:30Z</time>
      </trkpt>
      <trkpt lat="48.39593" lon="2.74701">
        <ele>123.02</ele>
        <time>2014-03-02T08:15:49Z</time>
      </trkpt>
      <trkpt lat="48.3959" lon="2.74735">
        <ele>123.88</ele>
        <time>2014-03-02T08:16:06Z</time>
      </trkpt>
      <trkpt lat="48.39585" lon="2.74769">
        <ele>124.13</ele>
        <time>2014-03-02T08:16:25Z</time>
      </trkpt>
      <trkpt lat="48.39585" lon="2.74804">
        <ele>123.81</ele>
        <time>2014-03-02T08:16:45Z</time>
      </trkpt>
      <trkpt lat="48.39582" lon="2.74838">
        <ele>123.44</ele>
        <time>2014-03-02T08:17:04Z</time>
      </trkpt>
      <trkpt lat="48.39582" lon="2.74872">
        <ele>123.7</ele>
        <time>2014-03-02T08:17:25Z</time>
      </trkpt>
      <trkpt lat="48.39578" lon="2.74906">
        <ele>123.17</ele>
        <time>2014-03-02T08:17:44Z</time>
      </trkpt>
      <trkpt lat="48.39574" lon="2.74941">
        <ele>124.3</ele>
        <time>2014-03-02T08:18:00Z</time>
      </trkpt>
      <trkpt lat="48.39574" lon="2.74976">
        <ele>123.52</ele>
        <time>2014-03-02T08:19:32Z</time>
      </trkpt>
      <trkpt lat="48.39567" lon="2.75008">
        <ele>123.39</ele>
        <time>2014-03-02T08:19:52Z</time>
      </trkpt>
      <trkpt lat="48.39564" lon="2.75042">
        <ele>123.02</ele>
        <time>2014-03-02T08:20:07Z</time>
      </trkpt>
      <trkpt lat="48.39561" lon="2.75075">
        <ele>127</ele>
        <time>2014-03-02T08:23:00Z</time>
      </trkpt>
      <trkpt lat="48.39557" lon="2.7511">
        <ele>127.7</ele>
        <time>2014-03-02T08:23:32Z</time>
      </trkpt>
      <trkpt lat="48.39553" lon="2.75143">
        <ele>125.95</ele>
        <time>2014-03-02T08:23:57Z</time>
      </trkpt>
      <trkpt lat="48.39548" lon="2.75177">
        <ele>125.77</ele>
        <time>2014-03-02T08:24:17Z</time>
      </trkpt>
      <trkpt lat="48.39548" lon="2.75211">
        <ele>125.93</ele>
        <time>2014-03-02T08:24:38Z</time>
      </trkpt>
      <trkpt lat="48.39548" lon="2.75246">
        <ele>125.32</ele>
        <time>2014-03-02T08:24:56Z</time>
      </trkpt>
      <trkpt lat="48.39545" lon="2.7528">
        <ele>126.17</ele>
        <time>2014-03-02T08:25:14Z</time>
      </trkpt>
      <trkpt lat="48.39546" lon="2.75316">
        <ele>126</ele>
        <time>2014-03-02T08:25:32Z</time>
      </trkpt>
      <trkpt lat="48.39546" lon="2.7535">
        <ele>125.86</ele>
        <time>2014-03-02T08:25:51Z</time>
      </trkpt>
      <trkpt lat="48.39551" lon="2.75382">
        <ele>125.66</ele>
        <time>2014-03-02T08:26:11Z</time>
      </trkpt>
      <trkpt lat="48.3955" lon="2.75417">
        <ele>126.56</ele>
        <time>2014-03-02T08:26:28Z</time>
      </trkpt>
      <trkpt lat="48.39549" lon="2.75451">
        <ele>127.67</ele>
        <time>2014-03-02T08:26:44Z</time>
      </trkpt>
      <trkpt lat="48.3954" lon="2.75483">
        <ele>127.5</ele>
        <time>2014-03-02T08:27:02Z</time>
      </trkpt>
      <trkpt lat="48.39541" lon="2.75518">
        <ele>127.51</ele>
        <time>2014-03-02T08:27:18Z</time>
      </trkpt>
      <trkpt lat="48.39539" lon="2.75553">
        <ele>127.25</ele>
        <time>2014-03-02T08:27:36Z</time>
      </trkpt>
      <trkpt lat="48.39538" lon="2.75587">
        <ele>129.16</ele>
        <time>2014-03-02T08:27:57Z</time>
      </trkpt>
      <trkpt lat="48.39538" lon="2.75622">
        <ele>129.3</ele>
        <time>2014-03-02T08:28:16Z</time>
      </trkpt>
      <trkpt lat="48.39534" lon="2.75656">
        <ele>129.2</ele>
        <time>2014-03-02T08:28:35Z</time>
      </trkpt>
      <trkpt lat="48.39533" lon="2.75693">
        <ele>128.84</ele>
        <time>2014-03-02T08:28:54Z</time>
      </trkpt>
      <trkpt lat="48.39529" lon="2.75727">
        <ele>129.3</ele>
        <time>2014-03-02T08:29:16Z</time>
      </trkpt>
      <trkpt lat="48.39523" lon="2.75762">
        <ele>128.48</ele>
        <time>2014-03-02T08:29:33Z</time>
      </trkpt>
      <trkpt lat="48.3952" lon="2.75795">
        <ele>129.3</ele>
        <time>2014-03-02T08:29:49Z</time>
      </trkpt>
      <trkpt lat="48.39516" lon="2.7583">
        <ele>129.13</ele>
        <time>2014-03-02T08:30:09Z</time>
      </trkpt>
      <trkpt lat="48.39515" lon="2.75864">
        <ele>129.94</ele>
        <time>2014-03-02T08:30:25Z</time>
      </trkpt>
      <trkpt lat="48.3951" lon="2.75899">
        <ele>130.98</ele>
        <time>2014-03-02T08:30:44Z</time>
      </trkpt>
      <trkpt lat="48.39499" lon="2.75931">
        <ele>131.11</ele>
        <time>2014-03-02T08:31:02Z</time>
      </trkpt>
      <trkpt lat="48.39488" lon="2.75962">
        <ele>131.53</ele>
        <time>2014-03-02T08:31:20Z</time>
      </trkpt>
      <trkpt lat="48.39485" lon="2.75999">
        <ele>131.61</ele>
        <time>2014-03-02T08:31:38Z</time>
      </trkpt>
      <trkpt lat="48.39486" lon="2.76035">
        <ele>131.3</ele>
        <time>2014-03-02T08:31:52Z</time>
      </trkpt>
      <trkpt lat="48.39474" lon="2.76064">
        <ele>129.59</ele>
        <time>2014-03-02T08:32:29Z</time>
      </trkpt>
      <trkpt lat="48.39473" lon="2.76098">
        <ele>130.55</ele>
        <time>2014-03-02T08:32:55Z</time>
      </trkpt>
      <trkpt lat="48.39467" lon="2.76131">
        <ele>130.58</ele>
        <time>2014-03-02T08:33:22Z</time>
      </trkpt>
      <trkpt lat="48.3947" lon="2.76165">
        <ele>130.71</ele>
        <time>2014-03-02T08:33:43Z</time>
      </trkpt>
      <trkpt lat="48.39472" lon="2.76199">
        <ele>131.07</ele>
        <time>2014-03-02T08:33:59Z</time>
      </trkpt>
      <trkpt lat="48.39466" lon="2.76235">
        <ele>131.17</ele>
        <time>2014-03-02T08:34:19Z</time>
      </trkpt>
      <trkpt lat="48.39463" lon="2.76269">
        <ele>132.13</ele>
        <time>2014-03-02T08:34:39Z</time>
      </trkpt>
      <trkpt lat="48.39467" lon="2.76304">
        <ele>132.78</ele>
        <time>2014-03-02T08:35:04Z</time>
      </trkpt>
      <trkpt lat="48.39466" lon="2.76338">
        <ele>130.48</ele>
        <time>2014-03-02T08:35:18Z</time>
      </trkpt>
      <trkpt lat="48.39469" lon="2.76374">
        <ele>130.84</ele>
        <time>2014-03-02T08:35:37Z</time>
      </trkpt>
      <trkpt lat="48.3947" lon="2.76408">
        <ele>130.53</ele>
        <time>2014-03-02T08:35:51Z</time>
      </trkpt>
      <trkpt lat="48.39463" lon="2.76441">
        <ele>129.57</ele>
        <time>2014-03-02T08:36:16Z</time>
      </trkpt>
      <trkpt lat="48.39454" lon="2.76472">
        <ele>129.52</ele>
        <time>2014-03-02T08:36:35Z</time>
      </trkpt>
      <trkpt lat="48.39449" lon="2.76505">
        <ele>131.09</ele>
        <time>2014-03-02T08:37:04Z</time>
      </trkpt>
      <trkpt lat="48.39444" lon="2.7654">
        <ele>132.01</ele>
        <time>2014-03-02T08:37:20Z</time>
      </trkpt>
      <trkpt lat="48.39434" lon="2.76573">
        <ele>132.69</ele>
        <time>2014-03-02T08:37:36Z</time>
      </trkpt>
      <trkpt lat="48.39433" lon="2.76608">
        <ele>132.49</ele>
        <time>2014-03-02T08:37:55Z</time>
      </trkpt>
      <trkpt lat="48.39433" lon="2.76643">
        <ele>132.63</ele>
        <time>2014-03-02T08:38:17Z</time>
      </trkpt>
      <trkpt lat="48.39431" lon="2.76678">
        <ele>131.08</ele>
        <time>2014-03-02T08:38:37Z</time>
      </trkpt>
      <trkpt lat="48.39434" lon="2.76712">
        <ele>133.46</ele>
        <time>2014-03-02T08:38:59Z</time>
      </trkpt>
      <trkpt lat="48.39429" lon="2.76747">
        <ele>132.18</ele>
        <time>2014-03-02T08:39:18Z</time>
      </trkpt>
      <trkpt lat="48.3942" lon="2.76779">
        <ele>132.12</ele>
        <time>2014-03-02T08:39:34Z</time>
      </trkpt>
      <trkpt lat="48.39413" lon="2.76812">
        <ele>133</ele>
        <time>2014-03-02T08:39:51Z</time>
      </trkpt>
      <trkpt lat="48.39413" lon="2.76846">
        <ele>134.23</ele>
        <time>2014-03-02T08:40:25Z</time>
      </trkpt>
      <trkpt lat="48.39416" lon="2.76879">
        <ele>142.13</ele>
        <time>2014-03-02T08:42:43Z</time>
      </trkpt>
      <trkpt lat="48.39419" lon="2.76916">
        <ele>143.04</ele>
        <time>2014-03-02T08:43:08Z</time>
      </trkpt>
      <trkpt lat="48.39417" lon="2.76951">
        <ele>143.08</ele>
        <time>2014-03-02T08:43:29Z</time>
      </trkpt>
      <trkpt lat="48.39418" lon="2.76985">
        <ele>142.87</ele>
        <time>2014-03-02T08:43:48Z</time>
      </trkpt>
      <trkpt lat="48.39415" lon="2.77019">
        <ele>144.67</ele>
        <time>2014-03-02T08:44:09Z</time>
      </trkpt>
      <trkpt lat="48.39407" lon="2.77052">
        <ele>146.09</ele>
        <time>2014-03-02T08:44:29Z</time>
      </trkpt>
      <trkpt lat="48.39407" lon="2.77086">
        <ele>145.4</ele>
        <time>2014-03-02T08:44:47Z</time>
      </trkpt>
      <trkpt lat="48.39406" lon="2.7712">
        <ele>145.14</ele>
        <time>2014-03-02T08:45:11Z</time>
      </trkpt>
      <trkpt lat="48.394" lon="2.77153">
        <ele>144.27</ele>
        <time>2014-03-02T08:45:31Z</time>
      </trkpt>
      <trkpt lat="48.39396" lon="2.77188">
        <ele>143.45</ele>
        <time>2014-03-02T08:45:52Z</time>
      </trkpt>
      <trkpt lat="48.39395" lon="2.77221">
        <ele>143.9</ele>
        <time>2014-03-02T08:46:16Z</time>
      </trkpt>
      <trkpt lat="48.39397" lon="2.77257">
        <ele>144.9</ele>
        <time>2014-03-02T08:46:45Z</time>
      </trkpt>
      <trkpt lat="48.39393" lon="2.77291">
        <ele>144.72</ele>
        <time>2014-03-02T08:47:11Z</time>
      </trkpt>
      <trkpt lat="48.39391" lon="2.77327">
        <ele>145.49</ele>
        <time>2014-03-02T08:47:28Z</time>
      </trkpt>
      <trkpt lat="48.39396" lon="2.7736">
        <ele>146.4</ele>
        <time>2014-03-02T08:47:53Z</time>
      </trkpt>
      <trkpt lat="48.39388" lon="2.77393">
        <ele>147.53</ele>
        <time>2014-03-02T08:48:11Z</time>
      </trkpt>
      <trkpt lat="48.39383" lon="2.77428">
        <ele>147.25</ele>
        <time>2014-03-02T08:48:28Z</time>
      </trkpt>
      <trkpt lat="48.39374" lon="2.77461">
        <ele>146.23</ele>
        <time>2014-03-02T08:49:05Z</time>
      </trkpt>
      <trkpt lat="48.39371" lon="2.77495">
        <ele>147.09</ele>
        <time>2014-03-02T08:49:23Z</time>
      </trkpt>
      <trkpt lat="48.39373" lon="2.77531">
        <ele>147.14</ele>
        <time>2014-03-02T08:49:39Z</time>
      </trkpt>
      <trkpt lat="48.39371" lon="2.77565">
        <ele>147.42</ele>
        <time>2014-03-02T08:49:58Z</time>
      </trkpt>
      <trkpt lat="48.39366" lon="2.77599">
        <ele>146.58</ele>
        <time>2014-03-02T08:50:14Z</time>
      </trkpt>
      <trkpt lat="48.39366" lon="2.77633">
        <ele>147.2</ele>
        <time>2014-03-02T08:50:34Z</time>
      </trkpt>
      <trkpt lat="48.39363" lon="2.77668">
        <ele>147.98</ele>
        <time>2014-03-02T08:50:51Z</time>
      </trkpt>
      <trkpt lat="48.39356" lon="2.77701">
        <ele>147.41</ele>
        <time>2014-03-02T08:51:08Z</time>
      </trkpt>
      <trkpt lat="48.39344" lon="2.7773">
        <ele>148.17</ele>
        <time>2014-03-02T08:51:31Z</time>
      </trkpt>
      <trkpt lat="48.39336" lon="2.77762">
        <ele>147.52</ele>
        <time>2014-03-02T08:51:53Z</time>
      </trkpt>
      <trkpt lat="48.39332" lon="2.77796">
        <ele>146.49</ele>
        <time>2014-03-02T08:52:14Z</time>
      </trkpt>
      <trkpt lat="48.39325" lon="2.77828">
        <ele>146.42</ele>
        <time>2014-03-02T08:52:33Z</time>
      </trkpt>
      <trkpt lat="48.39321" lon="2.77863">
        <ele>147.02</ele>
        <time>2014-03-02T08:52:55Z</time>
      </trkpt>
      <trkpt lat="48.39319" lon="2.77897">
        <ele>147.67</ele>
        <time>2014-03-02T08:53:13Z</time>
      </trkpt>
      <trkpt lat="48.39321" lon="2.77931">
        <ele>147.83</ele>
        <time>2014-03-02T08:53:34Z</time>
      </trkpt>
      <trkpt lat="48.39318" lon="2.77966">
        <ele>144.39</ele>
        <time>2014-03-02T08:53:50Z</time>
      </trkpt>
      <trkpt lat="48.3931" lon="2.77999">
        <ele>143.78</ele>
        <time>2014-03-02T08:54:10Z</time>
      </trkpt>
      <trkpt lat="48.39301" lon="2.7803">
        <ele>141.76</ele>
        <time>2014-03-02T08:54:31Z</time>
      </trkpt>
      <trkpt lat="48.39293" lon="2.78063">
        <ele>143.53</ele>
        <time>2014-03-02T08:54:56Z</time>
      </trkpt>
      <trkpt lat="48.39285" lon="2.78096">
        <ele>143.13</ele>
        <time>2014-03-02T08:55:14Z</time>
      </trkpt>
      <trkpt lat="48.39275" lon="2.78128">
        <ele>143.2</ele>
        <time>2014-03-02T08:55:34Z</time>
      </trkpt>
      <trkpt lat="48.39275" lon="2.78162">
        <ele>143.93</ele>
        <time>2014-03-02T08:55:55Z</time>
      </trkpt>
      <trkpt lat="48.39264" lon="2.78192">
        <ele>143.77</ele>
        <time>2014-03-02T08:56:10Z</time>
      </trkpt>
      <trkpt lat="48.39252" lon="2.78223">
        <ele>143.14</ele>
        <time>2014-03-02T08:56:29Z</time>
      </trkpt>
      <trkpt lat="48.39245" lon="2.78256">
        <ele>143.71</ele>
        <time>2014-03-02T08:56:50Z</time>
      </trkpt>
      <trkpt lat="48.39236" lon="2.78288">
        <ele>143.34</ele>
        <time>2014-03-02T08:57:13Z</time>
      </trkpt>
      <trkpt lat="48.39224" lon="2.78318">
        <ele>142.14</ele>
        <time>2014-03-02T08:57:37Z</time>
      </trkpt>
      <trkpt lat="48.39209" lon="2.78344">
        <ele>142.08</ele>
        <time>2014-03-02T08:57:56Z</time>
      </trkpt>
      <trkpt lat="48.39197" lon="2.78374">
        <ele>141.07</ele>
        <time>2014-03-02T08:58:17Z</time>
      </trkpt>
      <trkpt lat="48.39188" lon="2.78406">
        <ele>140.84</ele>
        <time>2014-03-02T08:58:32Z</time>
      </trkpt>
      <trkpt lat="48.39176" lon="2.78436">
        <ele>142</ele>
        <time>2014-03-02T08:58:58Z</time>
      </trkpt>
      <trkpt lat="48.39164" lon="2.78467">
        <ele>142.23</ele>
        <time>2014-03-02T08:59:16Z</time>
      </trkpt>
      <trkpt lat="48.39148" lon="2.78491">
        <ele>142.24</ele>
        <time>2014-03-02T08:59:31Z</time>
      </trkpt>
      <trkpt lat="48.3913" lon="2.78514">
        <ele>143.11</ele>
        <time>2014-03-02T08:59:58Z</time>
      </trkpt>
      <trkpt lat="48.39118" lon="2.78543">
        <ele>142.92</ele>
        <time>2014-03-02T09:00:18Z</time>
      </trkpt>
      <trkpt lat="48.39101" lon="2.78568">
        <ele>142.68</ele>
        <time>2014-03-02T09:00:37Z</time>
      </trkpt>
      <trkpt lat="48.39084" lon="2.78592">
        <ele>143.86</ele>
        <time>2014-03-02T09:00:58Z</time>
      </trkpt>
      <trkpt lat="48.39068" lon="2.78617">
        <ele>143.91</ele>
        <time>2014-03-02T09:01:18Z</time>
      </trkpt>
      <trkpt lat="48.39049" lon="2.78636">
        <ele>142.83</ele>
        <time>2014-03-02T09:01:39Z</time>
      </trkpt>
      <trkpt lat="48.39033" lon="2.7866">
        <ele>142.81</ele>
        <time>2014-03-02T09:01:57Z</time>
      </trkpt>
      <trkpt lat="48.39011" lon="2.78666">
        <ele>142.9</ele>
        <time>2014-03-02T09:02:14Z</time>
      </trkpt>
      <trkpt lat="48.39005" lon="2.787">
        <ele>143.76</ele>
        <time>2014-03-02T09:02:42Z</time>
      </trkpt>
      <trkpt lat="48.38987" lon="2.78721">
        <ele>143.43</ele>
        <time>2014-03-02T09:03:01Z</time>
      </trkpt>
      <trkpt lat="48.38969" lon="2.7874">
        <ele>142.34</ele>
        <time>2014-03-02T09:03:21Z</time>
      </trkpt>
      <trkpt lat="48.38949" lon="2.7876">
        <ele>142.16</ele>
        <time>2014-03-02T09:03:45Z</time>
      </trkpt>
      <trkpt lat="48.38927" lon="2.78776">
        <ele>141.82</ele>
        <time>2014-03-02T09:04:03Z</time>
      </trkpt>
      <trkpt lat="48.38906" lon="2.78792">
        <ele>140.09</ele>
        <time>2014-03-02T09:04:20Z</time>
      </trkpt>
      <trkpt lat="48.38885" lon="2.78805">
        <ele>139.92</ele>
        <time>2014-03-02T09:04:42Z</time>
      </trkpt>
      <trkpt lat="48.38863" lon="2.7882">
        <ele>140.52</ele>
        <time>2014-03-02T09:05:02Z</time>
      </trkpt>
      <trkpt lat="48.38842" lon="2.78836">
        <ele>139.56</ele>
        <time>2014-03-02T09:05:18Z</time>
      </trkpt>
      <trkpt lat="48.38822" lon="2.78855">
        <ele>138.14</ele>
        <time>2014-03-02T09:05:32Z</time>
      </trkpt>
      <trkpt lat="48.38802" lon="2.7887">
        <ele>138.51</ele>
        <time>2014-03-02T09:05:49Z</time>
      </trkpt>
      <trkpt lat="48.38779" lon="2.78874">
        <ele>137.37</ele>
        <time>2014-03-02T09:06:09Z</time>
      </trkpt>
      <trkpt lat="48.38757" lon="2.78885">
        <ele>136.48</ele>
        <time>2014-03-02T09:06:33Z</time>
      </trkpt>
      <trkpt lat="48.38737" lon="2.789">
        <ele>136.83</ele>
        <time>2014-03-02T09:06:50Z</time>
      </trkpt>
      <trkpt lat="48.38716" lon="2.78913">
        <ele>137.37</ele>
        <time>2014-03-02T09:07:08Z</time>
      </trkpt>
      <trkpt lat="48.38692" lon="2.78924">
        <ele>137.44</ele>
        <time>2014-03-02T09:07:27Z</time>
      </trkpt>
      <trkpt lat="48.38672" lon="2.78939">
        <ele>134.63</ele>
        <time>2014-03-02T09:07:44Z</time>
      </trkpt>
      <trkpt lat="48.38653" lon="2.78959">
        <ele>133.23</ele>
        <time>2014-03-02T09:10:05Z</time>
      </trkpt>
      <trkpt lat="48.38673" lon="2.78972">
        <ele>133.33</ele>
        <time>2014-03-02T09:11:25Z</time>
      </trkpt>
      <trkpt lat="48.38684" lon="2.79002">
        <ele>130.48</ele>
        <time>2014-03-02T09:11:51Z</time>
      </trkpt>
      <trkpt lat="48.38688" lon="2.79035">
        <ele>129.49</ele>
        <time>2014-03-02T09:12:19Z</time>
      </trkpt>
      <trkpt lat="48.38696" lon="2.7907">
        <ele>125.54</ele>
        <time>2014-03-02T09:12:43Z</time>
      </trkpt>
      <trkpt lat="48.38716" lon="2.79086">
        <ele>121.26</ele>
        <time>2014-03-02T09:13:25Z</time>
      </trkpt>
      <trkpt lat="48.38733" lon="2.79111">
        <ele>119.27</ele>
        <time>2014-03-02T09:13:50Z</time>
      </trkpt>
      <trkpt lat="48.38742" lon="2.79143">
        <ele>113.73</ele>
        <time>2014-03-02T09:14:10Z</time>
      </trkpt>
      <trkpt lat="48.38741" lon="2.79177">
        <ele>111.62</ele>
        <time>2014-03-02T09:14:57Z</time>
      </trkpt>
      <trkpt lat="48.38736" lon="2.7921">
        <ele>109.54</ele>
        <time>2014-03-02T09:15:38Z</time>
      </trkpt>
      <trkpt lat="48.38724" lon="2.79238">
        <ele>108.97</ele>
        <time>2014-03-02T09:16:01Z</time>
      </trkpt>
      <trkpt lat="48.38709" lon="2.79265">
        <ele>108.72</ele>
        <time>2014-03-02T09:16:15Z</time>
      </trkpt>
      <trkpt lat="48.38706" lon="2.79299">
        <ele>108.8</ele>
        <time>2014-03-02T09:16:31Z</time>
      </trkpt>
      <trkpt lat="48.38723" lon="2.79322">
        <ele>108.21</ele>
        <time>2014-03-02T09:16:59Z</time>
      </trkpt>
      <trkpt lat="48.38738" lon="2.7935">
        <ele>107.68</ele>
        <time>2014-03-02T09:17:22Z</time>
      </trkpt>
      <trkpt lat="48.3874" lon="2.79383">
        <ele>105.95</ele>
        <time>2014-03-02T09:17:39Z</time>
      </trkpt>
      <trkpt lat="48.38739" lon="2.79417">
        <ele>105.9</ele>
        <time>2014-03-02T09:17:56Z</time>
      </trkpt>
      <trkpt lat="48.38741" lon="2.79452">
        <ele>106.44</ele>
        <time>2014-03-02T09:18:18Z</time>
      </trkpt>
      <trkpt lat="48.38742" lon="2.79487">
        <ele>105.3</ele>
        <time>2014-03-02T09:18:37Z</time>
      </trkpt>
      <trkpt lat="48.3875" lon="2.7952">
        <ele>105.61</ele>
        <time>2014-03-02T09:19:00Z</time>
      </trkpt>
      <trkpt lat="48.38751" lon="2.79554">
        <ele>105.08</ele>
        <time>2014-03-02T09:19:15Z</time>
      </trkpt>
      <trkpt lat="48.38746" lon="2.79589">
        <ele>104.98</ele>
        <time>2014-03-02T09:19:32Z</time>
      </trkpt>
      <trkpt lat="48.38746" lon="2.79624">
        <ele>104.83</ele>
        <time>2014-03-02T09:19:57Z</time>
      </trkpt>
      <trkpt lat="48.38752" lon="2.79657">
        <ele>102.49</ele>
        <time>2014-03-02T09:20:21Z</time>
      </trkpt>
      <trkpt lat="48.38751" lon="2.79692">
        <ele>102.18</ele>
        <time>2014-03-02T09:20:40Z</time>
      </trkpt>
      <trkpt lat="48.38753" lon="2.79727">
        <ele>101.49</ele>
        <time>2014-03-02T09:20:58Z</time>
      </trkpt>
      <trkpt lat="48.38753" lon="2.79762">
        <ele>102.18</ele>
        <time>2014-03-02T09:21:17Z</time>
      </trkpt>
      <trkpt lat="48.38755" lon="2.79796">
        <ele>103.77</ele>
        <time>2014-03-02T09:21:41Z</time>
      </trkpt>
      <trkpt lat="48.38752" lon="2.79831">
        <ele>103.9</ele>
        <time>2014-03-02T09:22:01Z</time>
      </trkpt>
      <trkpt lat="48.38755" lon="2.79866">
        <ele>106.1</ele>
        <time>2014-03-02T09:22:25Z</time>
      </trkpt>
      <trkpt lat="48.38754" lon="2.79899">
        <ele>107.47</ele>
        <time>2014-03-02T09:22:53Z</time>
      </trkpt>
      <trkpt lat="48.38748" lon="2.79933">
        <ele>107.35</ele>
        <time>2014-03-02T09:23:10Z</time>
      </trkpt>
      <trkpt lat="48.38747" lon="2.79969">
        <ele>105.78</ele>
        <time>2014-03-02T09:23:30Z</time>
      </trkpt>
      <trkpt lat="48.38742" lon="2.80003">
        <ele>105.57</ele>
        <time>2014-03-02T09:23:49Z</time>
      </trkpt>
      <trkpt lat="48.38738" lon="2.80037">
        <ele>104.07</ele>
        <time>2014-03-02T09:24:05Z</time>
      </trkpt>
      <trkpt lat="48.38735" lon="2.80072">
        <ele>106.59</ele>
        <time>2014-03-02T09:24:29Z</time>
      </trkpt>
      <trkpt lat="48.38729" lon="2.80105">
        <ele>106.12</ele>
        <time>2014-03-02T09:24:49Z</time>
      </trkpt>
      <trkpt lat="48.38719" lon="2.80135">
        <ele>105.53</ele>
        <time>2014-03-02T09:25:09Z</time>
      </trkpt>
      <trkpt lat="48.38701" lon="2.80158">
        <ele>105.31</ele>
        <time>2014-03-02T09:25:45Z</time>
      </trkpt>
      <trkpt lat="48.38684" lon="2.80181">
        <ele>105.69</ele>
        <time>2014-03-02T09:26:07Z</time>
      </trkpt>
      <trkpt lat="48.38662" lon="2.80198">
        <ele>106.83</ele>
        <time>2014-03-02T09:26:28Z</time>
      </trkpt>
      <trkpt lat="48.38639" lon="2.80213">
        <ele>106.02</ele>
        <time>2014-03-02T09:26:48Z</time>
      </trkpt>
      <trkpt lat="48.38621" lon="2.80236">
        <ele>107.8</ele>
        <time>2014-03-02T09:27:08Z</time>
      </trkpt>
      <trkpt lat="48.386" lon="2.80248">
        <ele>106.14</ele>
        <time>2014-03-02T09:27:31Z</time>
      </trkpt>
      <trkpt lat="48.38581" lon="2.80269">
        <ele>106.12</ele>
        <time>2014-03-02T09:27:50Z</time>
      </trkpt>
      <trkpt lat="48.38569" lon="2.80299">
        <ele>106.99</ele>
        <time>2014-03-02T09:28:14Z</time>
      </trkpt>
      <trkpt lat="48.38554" lon="2.80325">
        <ele>107.09</ele>
        <time>2014-03-02T09:28:35Z</time>
      </trkpt>
      <trkpt lat="48.38541" lon="2.80353">
        <ele>108.69</ele>
        <time>2014-03-02T09:29:38Z</time>
      </trkpt>
      <trkpt lat="48.38528" lon="2.80382">
        <ele>108.92</ele>
        <time>2014-03-02T09:30:11Z</time>
      </trkpt>
      <trkpt lat="48.38528" lon="2.80416">
        <ele>117.9</ele>
        <time>2014-03-02T09:31:10Z</time>
      </trkpt>
      <trkpt lat="48.38513" lon="2.80442">
        <ele>115.35</ele>
        <time>2014-03-02T09:31:45Z</time>
      </trkpt>
      <trkpt lat="48.38498" lon="2.80469">
        <ele>111.3</ele>
        <time>2014-03-02T09:32:14Z</time>
      </trkpt>
      <trkpt lat="48.38483" lon="2.80495">
        <ele>106.38</ele>
        <time>2014-03-02T09:36:53Z</time>
      </trkpt>
      <trkpt lat="48.38469" lon="2.80523">
        <ele>105.98</ele>
        <time>2014-03-02T09:37:16Z</time>
      </trkpt>
      <trkpt lat="48.38451" lon="2.80544">
        <ele>107.5</ele>
        <time>2014-03-02T09:37:34Z</time>
      </trkpt>
      <trkpt lat="48.38431" lon="2.80525">
        <ele>106.13</ele>
        <time>2014-03-02T09:37:53Z</time>
      </trkpt>
      <trkpt lat="48.38411" lon="2.80508">
        <ele>105.48</ele>
        <time>2014-03-02T09:38:12Z</time>
      </trkpt>
      <trkpt lat="48.38394" lon="2.80532">
        <ele>105.57</ele>
        <time>2014-03-02T09:38:30Z</time>
      </trkpt>
      <trkpt lat="48.38404" lon="2.80563">
        <ele>106.17</ele>
        <time>2014-03-02T09:38:49Z</time>
      </trkpt>
      <trkpt lat="48.38404" lon="2.80597">
        <ele>105.81</ele>
        <time>2014-03-02T09:39:18Z</time>
      </trkpt>
      <trkpt lat="48.38387" lon="2.80621">
        <ele>105.69</ele>
        <time>2014-03-02T09:39:35Z</time>
      </trkpt>
      <trkpt lat="48.38371" lon="2.80648">
        <ele>105.04</ele>
        <time>2014-03-02T09:39:52Z</time>
      </trkpt>
      <trkpt lat="48.38354" lon="2.8067">
        <ele>104.9</ele>
        <time>2014-03-02T09:40:11Z</time>
      </trkpt>
      <trkpt lat="48.38337" lon="2.80693">
        <ele>104.8</ele>
        <time>2014-03-02T09:40:36Z</time>
      </trkpt>
      <trkpt lat="48.38325" lon="2.80723">
        <ele>106.07</ele>
        <time>2014-03-02T09:40:54Z</time>
      </trkpt>
      <trkpt lat="48.38307" lon="2.80743">
        <ele>107.63</ele>
        <time>2014-03-02T09:41:31Z</time>
      </trkpt>
      <trkpt lat="48.38295" lon="2.80772">
        <ele>108.42</ele>
        <time>2014-03-02T09:42:00Z</time>
      </trkpt>
      <trkpt lat="48.38276" lon="2.80794">
        <ele>106.56</ele>
        <time>2014-03-02T09:42:20Z</time>
      </trkpt>
      <trkpt lat="48.3826" lon="2.80818">
        <ele>107.12</ele>
        <time>2014-03-02T09:42:42Z</time>
      </trkpt>
      <trkpt lat="48.38241" lon="2.80839">
        <ele>108.56</ele>
        <time>2014-03-02T09:43:02Z</time>
      </trkpt>
      <trkpt lat="48.38222" lon="2.8086">
        <ele>108.1</ele>
        <time>2014-03-02T09:43:20Z</time>
      </trkpt>
      <trkpt lat="48.38206" lon="2.80887">
        <ele>109.5</ele>
        <time>2014-03-02T09:43:40Z</time>
      </trkpt>
      <trkpt lat="48.3819" lon="2.80911">
        <ele>109.17</ele>
        <time>2014-03-02T09:43:59Z</time>
      </trkpt>
      <trkpt lat="48.38172" lon="2.80936">
        <ele>109.1</ele>
        <time>2014-03-02T09:44:19Z</time>
      </trkpt>
      <trkpt lat="48.38157" lon="2.80961">
        <ele>109.18</ele>
        <time>2014-03-02T09:44:36Z</time>
      </trkpt>
      <trkpt lat="48.38144" lon="2.8099">
        <ele>109.28</ele>
        <time>2014-03-02T09:44:54Z</time>
      </trkpt>
      <trkpt lat="48.38129" lon="2.81016">
        <ele>108.95</ele>
        <time>2014-03-02T09:45:13Z</time>
      </trkpt>
      <trkpt lat="48.38113" lon="2.81042">
        <ele>108.98</ele>
        <time>2014-03-02T09:45:36Z</time>
      </trkpt>
      <trkpt lat="48.38101" lon="2.81072">
        <ele>108.73</ele>
        <time>2014-03-02T09:45:55Z</time>
      </trkpt>
      <trkpt lat="48.38087" lon="2.81101">
        <ele>108.45</ele>
        <time>2014-03-02T09:46:18Z</time>
      </trkpt>
      <trkpt lat="48.38077" lon="2.81132">
        <ele>108.4</ele>
        <time>2014-03-02T09:46:34Z</time>
      </trkpt>
      <trkpt lat="48.38054" lon="2.8114">
        <ele>108.14</ele>
        <time>2014-03-02T09:46:46Z</time>
      </trkpt>
      <trkpt lat="48.38049" lon="2.81174">
        <ele>108.24</ele>
        <time>2014-03-02T09:47:08Z</time>
      </trkpt>
      <trkpt lat="48.38047" lon="2.81208">
        <ele>109.7</ele>
        <time>2014-03-02T09:47:29Z</time>
      </trkpt>
      <trkpt lat="48.38037" lon="2.81239">
        <ele>108.79</ele>
        <time>2014-03-02T09:47:47Z</time>
      </trkpt>
      <trkpt lat="48.38022" lon="2.81265">
        <ele>107.67</ele>
        <time>2014-03-02T09:48:07Z</time>
      </trkpt>
      <trkpt lat="48.38024" lon="2.813">
        <ele>106.3</ele>
        <time>2014-03-02T09:48:27Z</time>
      </trkpt>
      <trkpt lat="48.38025" lon="2.81336">
        <ele>106.24</ele>
        <time>2014-03-02T09:48:43Z</time>
      </trkpt>
      <trkpt lat="48.3801" lon="2.81363">
        <ele>106.48</ele>
        <time>2014-03-02T09:48:58Z</time>
      </trkpt>
      <trkpt lat="48.3799" lon="2.81377">
        <ele>106.35</ele>
        <time>2014-03-02T09:49:14Z</time>
      </trkpt>
      <trkpt lat="48.37974" lon="2.81402">
        <ele>106.14</ele>
        <time>2014-03-02T09:49:33Z</time>
      </trkpt>
      <trkpt lat="48.3796" lon="2.81428">
        <ele>104.7</ele>
        <time>2014-03-02T09:49:49Z</time>
      </trkpt>
      <trkpt lat="48.37949" lon="2.81459">
        <ele>103.63</ele>
        <time>2014-03-02T09:50:14Z</time>
      </trkpt>
      <trkpt lat="48.37934" lon="2.81485">
        <ele>104.1</ele>
        <time>2014-03-02T09:50:34Z</time>
      </trkpt>
      <trkpt lat="48.37924" lon="2.81517">
        <ele>103.89</ele>
        <time>2014-03-02T09:50:54Z</time>
      </trkpt>
      <trkpt lat="48.37907" lon="2.8154">
        <ele>104.22</ele>
        <time>2014-03-02T09:51:09Z</time>
      </trkpt>
      <trkpt lat="48.3789" lon="2.81564">
        <ele>103.15</ele>
        <time>2014-03-02T09:51:28Z</time>
      </trkpt>
      <trkpt lat="48.37879" lon="2.81594">
        <ele>102.95</ele>
        <time>2014-03-02T09:51:47Z</time>
      </trkpt>
      <trkpt lat="48.37869" lon="2.81626">
        <ele>101.52</ele>
        <time>2014-03-02T09:52:06Z</time>
      </trkpt>
      <trkpt lat="48.37865" lon="2.81661">
        <ele>100.77</ele>
        <time>2014-03-02T09:52:44Z</time>
      </trkpt>
      <trkpt lat="48.37853" lon="2.81691">
        <ele>99.76</ele>
        <time>2014-03-02T09:53:01Z</time>
      </trkpt>
      <trkpt lat="48.37837" lon="2.81716">
        <ele>100.49</ele>
        <time>2014-03-02T09:53:20Z</time>
      </trkpt>
      <trkpt lat="48.37821" lon="2.8174">
        <ele>101.57</ele>
        <time>2014-03-02T09:53:41Z</time>
      </trkpt>
      <trkpt lat="48.37803" lon="2.81762">
        <ele>101.78</ele>
        <time>2014-03-02T09:53:55Z</time>
      </trkpt>
      <trkpt lat="48.37785" lon="2.81783">
        <ele>101.77</ele>
        <time>2014-03-02T09:54:12Z</time>
      </trkpt>
      <trkpt lat="48.37766" lon="2.81802">
        <ele>102.42</ele>
        <time>2014-03-02T09:54:28Z</time>
      </trkpt>
      <trkpt lat="48.37745" lon="2.81819">
        <ele>102.81</ele>
        <time>2014-03-02T09:54:48Z</time>
      </trkpt>
      <trkpt lat="48.37723" lon="2.81831">
        <ele>104.27</ele>
        <time>2014-03-02T09:55:04Z</time>
      </trkpt>
      <trkpt lat="48.37707" lon="2.81854">
        <ele>107.37</ele>
        <time>2014-03-02T09:55:26Z</time>
      </trkpt>
      <trkpt lat="48.37685" lon="2.81864">
        <ele>110.52</ele>
        <time>2014-03-02T09:55:40Z</time>
      </trkpt>
      <trkpt lat="48.37663" lon="2.81871">
        <ele>115.88</ele>
        <time>2014-03-02T09:55:51Z</time>
      </trkpt>
      <trkpt lat="48.37642" lon="2.81887">
        <ele>121.97</ele>
        <time>2014-03-02T09:56:04Z</time>
      </trkpt>
      <trkpt lat="48.37622" lon="2.81908">
        <ele>127.45</ele>
        <time>2014-03-02T09:56:29Z</time>
      </trkpt>
      <trkpt lat="48.37598" lon="2.81907">
        <ele>131.55</ele>
        <time>2014-03-02T09:56:44Z</time>
      </trkpt>
      <trkpt lat="48.37575" lon="2.81902">
        <ele>132.93</ele>
        <time>2014-03-02T09:56:59Z</time>
      </trkpt>
      <trkpt lat="48.37552" lon="2.81901">
        <ele>134.15</ele>
        <time>2014-03-02T09:57:20Z</time>
      </trkpt>
      <trkpt lat="48.37531" lon="2.81885">
        <ele>132.6</ele>
        <time>2014-03-02T09:57:42Z</time>
      </trkpt>
      <trkpt lat="48.37509" lon="2.81888">
        <ele>134.46</ele>
        <time>2014-03-02T09:58:00Z</time>
      </trkpt>
      <trkpt lat="48.37484" lon="2.81882">
        <ele>134.01</ele>
        <time>2014-03-02T09:58:11Z</time>
      </trkpt>
      <trkpt lat="48.37462" lon="2.81872">
        <ele>126.15</ele>
        <time>2014-03-02T09:58:38Z</time>
      </trkpt>
      <trkpt lat="48.37438" lon="2.81885">
        <ele>120.21</ele>
        <time>2014-03-02T09:59:13Z</time>
      </trkpt>
      <trkpt lat="48.37414" lon="2.81895">
        <ele>120.38</ele>
        <time>2014-03-02T09:59:25Z</time>
      </trkpt>
      <trkpt lat="48.37392" lon="2.81907">
        <ele>121.27</ele>
        <time>2014-03-02T09:59:43Z</time>
      </trkpt>
      <trkpt lat="48.3737" lon="2.81906">
        <ele>122.95</ele>
        <time>2014-03-02T10:00:05Z</time>
      </trkpt>
      <trkpt lat="48.37348" lon="2.81917">
        <ele>124.05</ele>
        <time>2014-03-02T10:00:20Z</time>
      </trkpt>
      <trkpt lat="48.37326" lon="2.81924">
        <ele>123.97</ele>
        <time>2014-03-02T10:00:37Z</time>
      </trkpt>
      <trkpt lat="48.37303" lon="2.81918">
        <ele>122.51</ele>
        <time>2014-03-02T10:01:02Z</time>
      </trkpt>
      <trkpt lat="48.37284" lon="2.81898">
        <ele>122.27</ele>
        <time>2014-03-02T10:01:21Z</time>
      </trkpt>
      <trkpt lat="48.37274" lon="2.81865">
        <ele>121.73</ele>
        <time>2014-03-02T10:01:39Z</time>
      </trkpt>
      <trkpt lat="48.37255" lon="2.81826">
        <ele>120.62</ele>
        <time>2014-03-02T10:02:09Z</time>
      </trkpt>
      <trkpt lat="48.37265" lon="2.81872">
        <ele>120.45</ele>
        <time>2014-03-02T10:03:08Z</time>
      </trkpt>
      <trkpt lat="48.37267" lon="2.81906">
        <ele>98.82</ele>
        <time>2014-03-02T10:03:36Z</time>
      </trkpt>
      <trkpt lat="48.37261" lon="2.81939">
        <ele>107.28</ele>
        <time>2014-03-02T10:03:58Z</time>
      </trkpt>
      <trkpt lat="48.37255" lon="2.81972">
        <ele>113.74</ele>
        <time>2014-03-02T10:06:46Z</time>
      </trkpt>
      <trkpt lat="48.37254" lon="2.82006">
        <ele>112.1</ele>
        <time>2014-03-02T10:07:07Z</time>
      </trkpt>
      <trkpt lat="48.37249" lon="2.8204">
        <ele>110.87</ele>
        <time>2014-03-02T10:07:29Z</time>
      </trkpt>
      <trkpt lat="48.37253" lon="2.82074">
        <ele>108.8</ele>
        <time>2014-03-02T10:07:47Z</time>
      </trkpt>
      <trkpt lat="48.37238" lon="2.821">
        <ele>108.46</ele>
        <time>2014-03-02T10:08:16Z</time>
      </trkpt>
      <trkpt lat="48.37219" lon="2.82121">
        <ele>108.19</ele>
        <time>2014-03-02T10:08:30Z</time>
      </trkpt>
      <trkpt lat="48.37209" lon="2.82153">
        <ele>109.82</ele>
        <time>2014-03-02T10:09:03Z</time>
      </trkpt>
      <trkpt lat="48.37201" lon="2.82185">
        <ele>107.85</ele>
        <time>2014-03-02T10:09:30Z</time>
      </trkpt>
      <trkpt lat="48.37189" lon="2.82215">
        <ele>106.89</ele>
        <time>2014-03-02T10:09:51Z</time>
      </trkpt>
      <trkpt lat="48.37192" lon="2.82249">
        <ele>107.15</ele>
        <time>2014-03-02T10:10:14Z</time>
      </trkpt>
      <trkpt lat="48.37181" lon="2.82278">
        <ele>106.01</ele>
        <time>2014-03-02T10:10:31Z</time>
      </trkpt>
      <trkpt lat="48.37172" lon="2.82311">
        <ele>105.95</ele>
        <time>2014-03-02T10:10:51Z</time>
      </trkpt>
      <trkpt lat="48.37167" lon="2.82345">
        <ele>105.87</ele>
        <time>2014-03-02T10:11:11Z</time>
      </trkpt>
      <trkpt lat="48.37155" lon="2.82375">
        <ele>106.35</ele>
        <time>2014-03-02T10:11:30Z</time>
      </trkpt>
      <trkpt lat="48.3715" lon="2.82409">
        <ele>107.37</ele>
        <time>2014-03-02T10:11:49Z</time>
      </trkpt>
      <trkpt lat="48.37139" lon="2.8244">
        <ele>105.7</ele>
        <time>2014-03-02T10:12:09Z</time>
      </trkpt>
      <trkpt lat="48.37127" lon="2.82469">
        <ele>106</ele>
        <time>2014-03-02T10:12:28Z</time>
      </trkpt>
      <trkpt lat="48.37125" lon="2.82503">
        <ele>106.45</ele>
        <time>2014-03-02T10:12:47Z</time>
      </trkpt>
      <trkpt lat="48.37117" lon="2.82537">
        <ele>106.23</ele>
        <time>2014-03-02T10:13:06Z</time>
      </trkpt>
      <trkpt lat="48.37098" lon="2.82553">
        <ele>105.76</ele>
        <time>2014-03-02T10:13:25Z</time>
      </trkpt>
      <trkpt lat="48.37097" lon="2.82587">
        <ele>106.18</ele>
        <time>2014-03-02T10:13:44Z</time>
      </trkpt>
      <trkpt lat="48.3709" lon="2.8262">
        <ele>109.27</ele>
        <time>2014-03-02T10:15:07Z</time>
      </trkpt>
      <trkpt lat="48.37086" lon="2.82654">
        <ele>111.11</ele>
        <time>2014-03-02T10:15:44Z</time>
      </trkpt>
      <trkpt lat="48.37081" lon="2.8269">
        <ele>111.42</ele>
        <time>2014-03-02T10:16:08Z</time>
      </trkpt>
      <trkpt lat="48.37073" lon="2.82722">
        <ele>109.98</ele>
        <time>2014-03-02T10:16:26Z</time>
      </trkpt>
      <trkpt lat="48.37066" lon="2.82755">
        <ele>110.3</ele>
        <time>2014-03-02T10:16:43Z</time>
      </trkpt>
      <trkpt lat="48.37061" lon="2.82788">
        <ele>110.25</ele>
        <time>2014-03-02T10:17:02Z</time>
      </trkpt>
      <trkpt lat="48.37048" lon="2.82816">
        <ele>110.5</ele>
        <time>2014-03-02T10:17:19Z</time>
      </trkpt>
      <trkpt lat="48.37038" lon="2.82848">
        <ele>111.1</ele>
        <time>2014-03-02T10:17:39Z</time>
      </trkpt>
      <trkpt lat="48.37032" lon="2.82883">
        <ele>110.51</ele>
        <time>2014-03-02T10:17:57Z</time>
      </trkpt>
      <trkpt lat="48.37025" lon="2.82916">
        <ele>111.66</ele>
        <time>2014-03-02T10:18:17Z</time>
      </trkpt>
      <trkpt lat="48.37019" lon="2.82949">
        <ele>113</ele>
        <time>2014-03-02T10:18:35Z</time>
      </trkpt>
      <trkpt lat="48.37007" lon="2.82978">
        <ele>113.72</ele>
        <time>2014-03-02T10:18:54Z</time>
      </trkpt>
      <trkpt lat="48.37001" lon="2.8301">
        <ele>114.4</ele>
        <time>2014-03-02T10:19:12Z</time>
      </trkpt>
      <trkpt lat="48.36989" lon="2.8304">
        <ele>114.28</ele>
        <time>2014-03-02T10:19:31Z</time>
      </trkpt>
      <trkpt lat="48.36973" lon="2.83065">
        <ele>115.58</ele>
        <time>2014-03-02T10:20:01Z</time>
      </trkpt>
      <trkpt lat="48.36961" lon="2.83095">
        <ele>114.9</ele>
        <time>2014-03-02T10:20:20Z</time>
      </trkpt>
      <trkpt lat="48.36938" lon="2.83107">
        <ele>116.12</ele>
        <time>2014-03-02T10:20:35Z</time>
      </trkpt>
      <trkpt lat="48.36915" lon="2.83112">
        <ele>116.77</ele>
        <time>2014-03-02T10:20:54Z</time>
      </trkpt>
      <trkpt lat="48.36891" lon="2.83119">
        <ele>118.37</ele>
        <time>2014-03-02T10:21:12Z</time>
      </trkpt>
      <trkpt lat="48.36869" lon="2.83129">
        <ele>120.21</ele>
        <time>2014-03-02T10:21:28Z</time>
      </trkpt>
      <trkpt lat="48.36846" lon="2.83134">
        <ele>120.27</ele>
        <time>2014-03-02T10:21:47Z</time>
      </trkpt>
      <trkpt lat="48.36824" lon="2.83138">
        <ele>121.18</ele>
        <time>2014-03-02T10:22:06Z</time>
      </trkpt>
      <trkpt lat="48.36801" lon="2.8314">
        <ele>122.88</ele>
        <time>2014-03-02T10:22:22Z</time>
      </trkpt>
      <trkpt lat="48.36778" lon="2.83138">
        <ele>123.39</ele>
        <time>2014-03-02T10:22:40Z</time>
      </trkpt>
      <trkpt lat="48.36755" lon="2.83135">
        <ele>125.87</ele>
        <time>2014-03-02T10:23:01Z</time>
      </trkpt>
      <trkpt lat="48.36732" lon="2.83142">
        <ele>125.98</ele>
        <time>2014-03-02T10:23:21Z</time>
      </trkpt>
      <trkpt lat="48.36711" lon="2.83156">
        <ele>126.2</ele>
        <time>2014-03-02T10:23:42Z</time>
      </trkpt>
      <trkpt lat="48.36691" lon="2.83172">
        <ele>127.12</ele>
        <time>2014-03-02T10:24:01Z</time>
      </trkpt>
      <trkpt lat="48.36668" lon="2.83174">
        <ele>123.14</ele>
        <time>2014-03-02T10:24:33Z</time>
      </trkpt>
      <trkpt lat="48.3665" lon="2.83196">
        <ele>123</ele>
        <time>2014-03-02T10:24:45Z</time>
      </trkpt>
      <trkpt lat="48.36633" lon="2.8322">
        <ele>118.21</ele>
        <time>2014-03-02T10:25:01Z</time>
      </trkpt>
      <trkpt lat="48.36615" lon="2.8324">
        <ele>116.75</ele>
        <time>2014-03-02T10:25:18Z</time>
      </trkpt>
      <trkpt lat="48.36598" lon="2.83264">
        <ele>118.68</ele>
        <time>2014-03-02T10:25:36Z</time>
      </trkpt>
      <trkpt lat="48.36579" lon="2.83282">
        <ele>115.36</ele>
        <time>2014-03-02T10:28:23Z</time>
      </trkpt>
      <trkpt lat="48.3657" lon="2.8325">
        <ele>117.83</ele>
        <time>2014-03-02T10:30:34Z</time>
      </trkpt>
      <trkpt lat="48.36581" lon="2.83281">
        <ele>118.1</ele>
        <time>2014-03-02T10:31:37Z</time>
      </trkpt>
      <trkpt lat="48.36561" lon="2.83298">
        <ele>117.86</ele>
        <time>2014-03-02T10:32:27Z</time>
      </trkpt>
      <trkpt lat="48.36546" lon="2.83322">
        <ele>118.97</ele>
        <time>2014-03-02T10:32:56Z</time>
      </trkpt>
      <trkpt lat="48.36527" lon="2.83343">
        <ele>121.24</ele>
        <time>2014-03-02T10:33:13Z</time>
      </trkpt>
      <trkpt lat="48.3651" lon="2.83366">
        <ele>121.57</ele>
        <time>2014-03-02T10:33:35Z</time>
      </trkpt>
      <trkpt lat="48.36497" lon="2.83394">
        <ele>119.58</ele>
        <time>2014-03-02T10:34:01Z</time>
      </trkpt>
      <trkpt lat="48.36485" lon="2.83424">
        <ele>118.97</ele>
        <time>2014-03-02T10:34:23Z</time>
      </trkpt>
      <trkpt lat="48.36467" lon="2.83446">
        <ele>119.68</ele>
        <time>2014-03-02T10:34:45Z</time>
      </trkpt>
      <trkpt lat="48.36452" lon="2.83471">
        <ele>118.1</ele>
        <time>2014-03-02T10:35:07Z</time>
      </trkpt>
      <trkpt lat="48.36437" lon="2.83499">
        <ele>120.04</ele>
        <time>2014-03-02T10:35:19Z</time>
      </trkpt>
      <trkpt lat="48.36429" lon="2.83531">
        <ele>119.8</ele>
        <time>2014-03-02T10:35:35Z</time>
      </trkpt>
      <trkpt lat="48.3642" lon="2.83563">
        <ele>119.3</ele>
        <time>2014-03-02T10:35:52Z</time>
      </trkpt>
      <trkpt lat="48.36409" lon="2.83594">
        <ele>119.87</ele>
        <time>2014-03-02T10:36:10Z</time>
      </trkpt>
      <trkpt lat="48.36403" lon="2.83628">
        <ele>119.23</ele>
        <time>2014-03-02T10:36:31Z</time>
      </trkpt>
      <trkpt lat="48.36398" lon="2.83661">
        <ele>118.73</ele>
        <time>2014-03-02T10:36:50Z</time>
      </trkpt>
      <trkpt lat="48.36392" lon="2.83694">
        <ele>117.01</ele>
        <time>2014-03-02T10:37:07Z</time>
      </trkpt>
      <trkpt lat="48.36397" lon="2.83728">
        <ele>116.88</ele>
        <time>2014-03-02T10:37:31Z</time>
      </trkpt>
      <trkpt lat="48.36417" lon="2.83745">
        <ele>117.47</ele>
        <time>2014-03-02T10:37:52Z</time>
      </trkpt>
      <trkpt lat="48.36439" lon="2.83754">
        <ele>120.26</ele>
        <time>2014-03-02T10:38:10Z</time>
      </trkpt>
      <trkpt lat="48.36458" lon="2.83771">
        <ele>122.67</ele>
        <time>2014-03-02T10:38:36Z</time>
      </trkpt>
      <trkpt lat="48.36477" lon="2.8379">
        <ele>124.12</ele>
        <time>2014-03-02T10:38:54Z</time>
      </trkpt>
      <trkpt lat="48.36471" lon="2.83824">
        <ele>124.46</ele>
        <time>2014-03-02T10:39:19Z</time>
      </trkpt>
      <trkpt lat="48.36465" lon="2.83857">
        <ele>125.89</ele>
        <time>2014-03-02T10:39:41Z</time>
      </trkpt>
      <trkpt lat="48.36451" lon="2.83883">
        <ele>128.79</ele>
        <time>2014-03-02T10:40:02Z</time>
      </trkpt>
      <trkpt lat="48.36435" lon="2.83911">
        <ele>129.8</ele>
        <time>2014-03-02T10:40:27Z</time>
      </trkpt>
      <trkpt lat="48.36423" lon="2.83941">
        <ele>130.6</ele>
        <time>2014-03-02T10:40:48Z</time>
      </trkpt>
      <trkpt lat="48.36408" lon="2.83969">
        <ele>131.8</ele>
        <time>2014-03-02T10:41:06Z</time>
      </trkpt>
      <trkpt lat="48.36393" lon="2.83996">
        <ele>134.3</ele>
        <time>2014-03-02T10:41:26Z</time>
      </trkpt>
      <trkpt lat="48.3638" lon="2.84024">
        <ele>136.86</ele>
        <time>2014-03-02T10:41:42Z</time>
      </trkpt>
      <trkpt lat="48.36366" lon="2.84052">
        <ele>136.61</ele>
        <time>2014-03-02T10:42:03Z</time>
      </trkpt>
      <trkpt lat="48.36351" lon="2.84079">
        <ele>137.2</ele>
        <time>2014-03-02T10:42:21Z</time>
      </trkpt>
      <trkpt lat="48.36337" lon="2.84108">
        <ele>137.78</ele>
        <time>2014-03-02T10:42:40Z</time>
      </trkpt>
      <trkpt lat="48.36324" lon="2.84135">
        <ele>137.09</ele>
        <time>2014-03-02T10:43:01Z</time>
      </trkpt>
      <trkpt lat="48.36301" lon="2.84138">
        <ele>140.97</ele>
        <time>2014-03-02T10:43:44Z</time>
      </trkpt>
      <trkpt lat="48.3628" lon="2.84124">
        <ele>143.48</ele>
        <time>2014-03-02T10:44:09Z</time>
      </trkpt>
      <trkpt lat="48.36261" lon="2.84143">
        <ele>138.76</ele>
        <time>2014-03-02T10:44:43Z</time>
      </trkpt>
      <trkpt lat="48.36241" lon="2.84161">
        <ele>139.68</ele>
        <time>2014-03-02T10:45:02Z</time>
      </trkpt>
      <trkpt lat="48.36227" lon="2.84188">
        <ele>137.83</ele>
        <time>2014-03-02T10:45:31Z</time>
      </trkpt>
      <trkpt lat="48.36216" lon="2.84218">
        <ele>135.53</ele>
        <time>2014-03-02T10:45:54Z</time>
      </trkpt>
      <trkpt lat="48.36203" lon="2.84247">
        <ele>133.56</ele>
        <time>2014-03-02T10:46:12Z</time>
      </trkpt>
      <trkpt lat="48.36193" lon="2.84279">
        <ele>131.39</ele>
        <time>2014-03-02T10:46:29Z</time>
      </trkpt>
      <trkpt lat="48.3618" lon="2.84307">
        <ele>130.98</ele>
        <time>2014-03-02T10:46:45Z</time>
      </trkpt>
      <trkpt lat="48.36163" lon="2.84331">
        <ele>128.79</ele>
        <time>2014-03-02T10:47:08Z</time>
      </trkpt>
      <trkpt lat="48.36148" lon="2.84359">
        <ele>129.7</ele>
        <time>2014-03-02T10:47:30Z</time>
      </trkpt>
      <trkpt lat="48.36129" lon="2.84379">
        <ele>135.07</ele>
        <time>2014-03-02T10:47:50Z</time>
      </trkpt>
      <trkpt lat="48.36107" lon="2.8439">
        <ele>144.63</ele>
        <time>2014-03-02T10:48:08Z</time>
      </trkpt>
      <trkpt lat="48.36084" lon="2.84385">
        <ele>149.09</ele>
        <time>2014-03-02T10:48:27Z</time>
      </trkpt>
      <trkpt lat="48.36061" lon="2.84385">
        <ele>151.29</ele>
        <time>2014-03-02T10:48:43Z</time>
      </trkpt>
      <trkpt lat="48.36039" lon="2.84392">
        <ele>151.67</ele>
        <time>2014-03-02T10:49:00Z</time>
      </trkpt>
      <trkpt lat="48.36016" lon="2.84393">
        <ele>151.8</ele>
        <time>2014-03-02T10:49:21Z</time>
      </trkpt>
      <trkpt lat="48.35994" lon="2.844">
        <ele>151.61</ele>
        <time>2014-03-02T10:49:40Z</time>
      </trkpt>
      <trkpt lat="48.35971" lon="2.84405">
        <ele>152.69</ele>
        <time>2014-03-02T10:51:57Z</time>
      </trkpt>
      <trkpt lat="48.3595" lon="2.84418">
        <ele>151</ele>
        <time>2014-03-02T10:52:16Z</time>
      </trkpt>
      <trkpt lat="48.35927" lon="2.8442">
        <ele>150.09</ele>
        <time>2014-03-02T10:52:39Z</time>
      </trkpt>
      <trkpt lat="48.35904" lon="2.84421">
        <ele>153.09</ele>
        <time>2014-03-02T10:52:58Z</time>
      </trkpt>
      <trkpt lat="48.3588" lon="2.8442">
        <ele>155.36</ele>
        <time>2014-03-02T10:53:16Z</time>
      </trkpt>
      <trkpt lat="48.35857" lon="2.84425">
        <ele>155.48</ele>
        <time>2014-03-02T10:53:36Z</time>
      </trkpt>
      <trkpt lat="48.35833" lon="2.84423">
        <ele>152.29</ele>
        <time>2014-03-02T10:53:56Z</time>
      </trkpt>
      <trkpt lat="48.35811" lon="2.84435">
        <ele>148.86</ele>
        <time>2014-03-02T10:54:27Z</time>
      </trkpt>
      <trkpt lat="48.35793" lon="2.84456">
        <ele>153.41</ele>
        <time>2014-03-02T10:54:43Z</time>
      </trkpt>
      <trkpt lat="48.35772" lon="2.84477">
        <ele>152.44</ele>
        <time>2014-03-02T10:54:58Z</time>
      </trkpt>
      <trkpt lat="48.35751" lon="2.84488">
        <ele>149.02</ele>
        <time>2014-03-02T10:55:21Z</time>
      </trkpt>
      <trkpt lat="48.35729" lon="2.845">
        <ele>147.92</ele>
        <time>2014-03-02T10:55:41Z</time>
      </trkpt>
      <trkpt lat="48.35707" lon="2.84506">
        <ele>146.9</ele>
        <time>2014-03-02T10:56:01Z</time>
      </trkpt>
      <trkpt lat="48.35684" lon="2.84517">
        <ele>146.75</ele>
        <time>2014-03-02T10:56:20Z</time>
      </trkpt>
      <trkpt lat="48.35662" lon="2.84525">
        <ele>146.82</ele>
        <time>2014-03-02T10:56:41Z</time>
      </trkpt>
      <trkpt lat="48.35639" lon="2.84536">
        <ele>146.37</ele>
        <time>2014-03-02T10:57:04Z</time>
      </trkpt>
      <trkpt lat="48.35616" lon="2.84548">
        <ele>147.1</ele>
        <time>2014-03-02T10:57:21Z</time>
      </trkpt>
      <trkpt lat="48.35592" lon="2.84558">
        <ele>150.1</ele>
        <time>2014-03-02T10:57:43Z</time>
      </trkpt>
      <trkpt lat="48.3557" lon="2.84564">
        <ele>147.74</ele>
        <time>2014-03-02T10:58:01Z</time>
      </trkpt>
      <trkpt lat="48.35547" lon="2.84571">
        <ele>146.49</ele>
        <time>2014-03-02T10:58:18Z</time>
      </trkpt>
      <trkpt lat="48.35525" lon="2.84575">
        <ele>141.76</ele>
        <time>2014-03-02T10:59:19Z</time>
      </trkpt>
      <trkpt lat="48.35502" lon="2.84582">
        <ele>141.5</ele>
        <time>2014-03-02T10:59:39Z</time>
      </trkpt>
      <trkpt lat="48.35479" lon="2.84588">
        <ele>140.96</ele>
        <time>2014-03-02T11:00:00Z</time>
      </trkpt>
      <trkpt lat="48.35458" lon="2.84605">
        <ele>140.73</ele>
        <time>2014-03-02T11:00:14Z</time>
      </trkpt>
      <trkpt lat="48.35436" lon="2.84609">
        <ele>143.15</ele>
        <time>2014-03-02T11:00:36Z</time>
      </trkpt>
      <trkpt lat="48.35414" lon="2.84616">
        <ele>144.1</ele>
        <time>2014-03-02T11:00:54Z</time>
      </trkpt>
      <trkpt lat="48.35391" lon="2.84622">
        <ele>144.97</ele>
        <time>2014-03-02T11:01:18Z</time>
      </trkpt>
      <trkpt lat="48.35369" lon="2.84632">
        <ele>145.84</ele>
        <time>2014-03-02T11:01:34Z</time>
      </trkpt>
      <trkpt lat="48.35347" lon="2.84645">
        <ele>148.58</ele>
        <time>2014-03-02T11:01:54Z</time>
      </trkpt>
      <trkpt lat="48.35324" lon="2.84654">
        <ele>151.17</ele>
        <time>2014-03-02T11:02:12Z</time>
      </trkpt>
      <trkpt lat="48.35303" lon="2.84669">
        <ele>152.06</ele>
        <time>2014-03-02T11:02:29Z</time>
      </trkpt>
      <trkpt lat="48.35282" lon="2.84684">
        <ele>154.62</ele>
        <time>2014-03-02T11:02:46Z</time>
      </trkpt>
      <trkpt lat="48.3526" lon="2.84692">
        <ele>155.08</ele>
        <time>2014-03-02T11:03:05Z</time>
      </trkpt>
      <trkpt lat="48.35239" lon="2.84706">
        <ele>154.19</ele>
        <time>2014-03-02T11:03:28Z</time>
      </trkpt>
      <trkpt lat="48.35219" lon="2.84722">
        <ele>157.66</ele>
        <time>2014-03-02T11:03:57Z</time>
      </trkpt>
      <trkpt lat="48.35202" lon="2.84746">
        <ele>167.25</ele>
        <time>2014-03-02T11:04:17Z</time>
      </trkpt>
      <trkpt lat="48.35179" lon="2.84753">
        <ele>171.35</ele>
        <time>2014-03-02T11:04:35Z</time>
      </trkpt>
      <trkpt lat="48.35174" lon="2.84718">
        <ele>136.55</ele>
        <time>2014-03-02T11:05:25Z</time>
      </trkpt>
      <trkpt lat="48.35151" lon="2.84732">
        <ele>135.4</ele>
        <time>2014-03-02T11:05:47Z</time>
      </trkpt>
      <trkpt lat="48.35134" lon="2.84754">
        <ele>144.14</ele>
        <time>2014-03-02T11:06:06Z</time>
      </trkpt>
      <trkpt lat="48.35115" lon="2.84773">
        <ele>144.92</ele>
        <time>2014-03-02T11:06:20Z</time>
      </trkpt>
      <trkpt lat="48.35096" lon="2.84791">
        <ele>146.39</ele>
        <time>2014-03-02T11:06:33Z</time>
      </trkpt>
      <trkpt lat="48.35079" lon="2.84816">
        <ele>148.86</ele>
        <time>2014-03-02T11:06:50Z</time>
      </trkpt>
      <trkpt lat="48.35063" lon="2.8484">
        <ele>151.38</ele>
        <time>2014-03-02T11:07:08Z</time>
      </trkpt>
      <trkpt lat="48.35046" lon="2.84864">
        <ele>152.94</ele>
        <time>2014-03-02T11:07:24Z</time>
      </trkpt>
      <trkpt lat="48.35031" lon="2.8489">
        <ele>156.23</ele>
        <time>2014-03-02T11:07:46Z</time>
      </trkpt>
      <trkpt lat="48.35013" lon="2.84911">
        <ele>154.25</ele>
        <time>2014-03-02T11:08:04Z</time>
      </trkpt>
      <trkpt lat="48.34994" lon="2.84933">
        <ele>153.4</ele>
        <time>2014-03-02T11:08:20Z</time>
      </trkpt>
      <trkpt lat="48.34979" lon="2.84959">
        <ele>153.5</ele>
        <time>2014-03-02T11:08:39Z</time>
      </trkpt>
      <trkpt lat="48.34957" lon="2.8495">
        <ele>158.79</ele>
        <time>2014-03-02T11:09:01Z</time>
      </trkpt>
      <trkpt lat="48.34936" lon="2.84966">
        <ele>157.59</ele>
        <time>2014-03-02T11:10:02Z</time>
      </trkpt>
      <trkpt lat="48.34941" lon="2.84933">
        <ele>137.1</ele>
        <time>2014-03-02T11:22:24Z</time>
      </trkpt>
      <trkpt lat="48.34931" lon="2.84963">
        <ele>141.55</ele>
        <time>2014-03-02T11:32:03Z</time>
      </trkpt>
      <trkpt lat="48.3495" lon="2.8494">
        <ele>123.22</ele>
        <time>2014-03-02T11:36:34Z</time>
      </trkpt>
      <trkpt lat="48.34938" lon="2.84969">
        <ele>135.56</ele>
        <time>2014-03-02T11:51:56Z</time>
      </trkpt>
      <trkpt lat="48.34943" lon="2.85002">
        <ele>134.48</ele>
        <time>2014-03-02T11:53:08Z</time>
      </trkpt>
      <trkpt lat="48.34923" lon="2.85021">
        <ele>132.43</ele>
        <time>2014-03-02T11:53:35Z</time>
      </trkpt>
      <trkpt lat="48.34904" lon="2.85041">
        <ele>132.57</ele>
        <time>2014-03-02T11:53:58Z</time>
      </trkpt>
      <trkpt lat="48.34886" lon="2.85065">
        <ele>131.37</ele>
        <time>2014-03-02T11:54:20Z</time>
      </trkpt>
      <trkpt lat="48.34878" lon="2.85097">
        <ele>130.01</ele>
        <time>2014-03-02T11:54:41Z</time>
      </trkpt>
      <trkpt lat="48.34888" lon="2.85128">
        <ele>130.4</ele>
        <time>2014-03-02T11:55:03Z</time>
      </trkpt>
      <trkpt lat="48.34901" lon="2.85158">
        <ele>129.26</ele>
        <time>2014-03-02T11:55:23Z</time>
      </trkpt>
      <trkpt lat="48.34916" lon="2.85184">
        <ele>129.12</ele>
        <time>2014-03-02T11:55:43Z</time>
      </trkpt>
      <trkpt lat="48.34929" lon="2.85211">
        <ele>128.61</ele>
        <time>2014-03-02T11:56:04Z</time>
      </trkpt>
      <trkpt lat="48.34934" lon="2.85245">
        <ele>128.14</ele>
        <time>2014-03-02T11:56:25Z</time>
      </trkpt>
      <trkpt lat="48.3494" lon="2.8528">
        <ele>128.95</ele>
        <time>2014-03-02T11:56:46Z</time>
      </trkpt>
      <trkpt lat="48.34942" lon="2.85313">
        <ele>128.97</ele>
        <time>2014-03-02T11:57:08Z</time>
      </trkpt>
      <trkpt lat="48.34948" lon="2.85347">
        <ele>129.57</ele>
        <time>2014-03-02T11:57:27Z</time>
      </trkpt>
      <trkpt lat="48.34951" lon="2.85382">
        <ele>128.85</ele>
        <time>2014-03-02T11:57:49Z</time>
      </trkpt>
      <trkpt lat="48.34956" lon="2.85415">
        <ele>129.17</ele>
        <time>2014-03-02T11:58:06Z</time>
      </trkpt>
      <trkpt lat="48.34963" lon="2.85448">
        <ele>130.11</ele>
        <time>2014-03-02T11:58:26Z</time>
      </trkpt>
      <trkpt lat="48.34967" lon="2.85481">
        <ele>132.16</ele>
        <time>2014-03-02T11:58:48Z</time>
      </trkpt>
      <trkpt lat="48.34972" lon="2.85515">
        <ele>131.28</ele>
        <time>2014-03-02T11:59:21Z</time>
      </trkpt>
      <trkpt lat="48.34978" lon="2.85548">
        <ele>132.31</ele>
        <time>2014-03-02T11:59:43Z</time>
      </trkpt>
      <trkpt lat="48.34983" lon="2.85582">
        <ele>133.29</ele>
        <time>2014-03-02T12:00:04Z</time>
      </trkpt>
      <trkpt lat="48.34989" lon="2.85615">
        <ele>133.22</ele>
        <time>2014-03-02T12:00:27Z</time>
      </trkpt>
      <trkpt lat="48.35012" lon="2.85618">
        <ele>130.01</ele>
        <time>2014-03-02T12:01:02Z</time>
      </trkpt>
      <trkpt lat="48.35035" lon="2.85619">
        <ele>130.37</ele>
        <time>2014-03-02T12:01:24Z</time>
      </trkpt>
      <trkpt lat="48.35057" lon="2.85625">
        <ele>129.74</ele>
        <time>2014-03-02T12:02:00Z</time>
      </trkpt>
      <trkpt lat="48.3506" lon="2.8566">
        <ele>128.5</ele>
        <time>2014-03-02T12:02:28Z</time>
      </trkpt>
      <trkpt lat="48.3506" lon="2.85695">
        <ele>129.72</ele>
        <time>2014-03-02T12:02:47Z</time>
      </trkpt>
      <trkpt lat="48.3506" lon="2.8573">
        <ele>131.48</ele>
        <time>2014-03-02T12:03:04Z</time>
      </trkpt>
      <trkpt lat="48.35064" lon="2.85764">
        <ele>132.67</ele>
        <time>2014-03-02T12:03:25Z</time>
      </trkpt>
      <trkpt lat="48.35067" lon="2.85798">
        <ele>133.88</ele>
        <time>2014-03-02T12:03:44Z</time>
      </trkpt>
      <trkpt lat="48.35064" lon="2.85833">
        <ele>134.27</ele>
        <time>2014-03-02T12:04:01Z</time>
      </trkpt>
      <trkpt lat="48.35064" lon="2.85868">
        <ele>134.49</ele>
        <time>2014-03-02T12:04:24Z</time>
      </trkpt>
      <trkpt lat="48.35063" lon="2.85902">
        <ele>134.8</ele>
        <time>2014-03-02T12:04:44Z</time>
      </trkpt>
      <trkpt lat="48.35061" lon="2.85937">
        <ele>134.31</ele>
        <time>2014-03-02T12:05:05Z</time>
      </trkpt>
      <trkpt lat="48.35061" lon="2.85971">
        <ele>134.82</ele>
        <time>2014-03-02T12:05:23Z</time>
      </trkpt>
      <trkpt lat="48.35057" lon="2.86005">
        <ele>134.32</ele>
        <time>2014-03-02T12:05:43Z</time>
      </trkpt>
      <trkpt lat="48.35054" lon="2.86039">
        <ele>135.49</ele>
        <time>2014-03-02T12:06:06Z</time>
      </trkpt>
      <trkpt lat="48.35053" lon="2.86074">
        <ele>137.67</ele>
        <time>2014-03-02T12:06:24Z</time>
      </trkpt>
      <trkpt lat="48.35048" lon="2.86109">
        <ele>138.39</ele>
        <time>2014-03-02T12:06:47Z</time>
      </trkpt>
      <trkpt lat="48.35045" lon="2.86143">
        <ele>139.51</ele>
        <time>2014-03-02T12:07:06Z</time>
      </trkpt>
      <trkpt lat="48.35045" lon="2.86177">
        <ele>140.07</ele>
        <time>2014-03-02T12:07:29Z</time>
      </trkpt>
      <trkpt lat="48.35043" lon="2.86211">
        <ele>141.2</ele>
        <time>2014-03-02T12:07:49Z</time>
      </trkpt>
      <trkpt lat="48.35042" lon="2.86245">
        <ele>142.47</ele>
        <time>2014-03-02T12:08:11Z</time>
      </trkpt>
      <trkpt lat="48.35042" lon="2.86282">
        <ele>142.38</ele>
        <time>2014-03-02T12:08:34Z</time>
      </trkpt>
      <trkpt lat="48.35045" lon="2.86315">
        <ele>143.87</ele>
        <time>2014-03-02T12:08:52Z</time>
      </trkpt>
      <trkpt lat="48.35053" lon="2.86348">
        <ele>152.47</ele>
        <time>2014-03-02T12:09:13Z</time>
      </trkpt>
      <trkpt lat="48.3506" lon="2.86381">
        <ele>166.65</ele>
        <time>2014-03-02T12:09:30Z</time>
      </trkpt>
      <trkpt lat="48.35064" lon="2.86415">
        <ele>174.8</ele>
        <time>2014-03-02T12:09:47Z</time>
      </trkpt>
      <trkpt lat="48.35072" lon="2.86449">
        <ele>179.17</ele>
        <time>2014-03-02T12:10:05Z</time>
      </trkpt>
      <trkpt lat="48.35079" lon="2.86482">
        <ele>183.27</ele>
        <time>2014-03-02T12:10:29Z</time>
      </trkpt>
      <trkpt lat="48.35078" lon="2.86517">
        <ele>164.08</ele>
        <time>2014-03-02T12:10:53Z</time>
      </trkpt>
      <trkpt lat="48.35081" lon="2.86552">
        <ele>156.66</ele>
        <time>2014-03-02T12:11:14Z</time>
      </trkpt>
      <trkpt lat="48.35086" lon="2.86586">
        <ele>153.15</ele>
        <time>2014-03-02T12:11:34Z</time>
      </trkpt>
      <trkpt lat="48.35087" lon="2.8662">
        <ele>149.84</ele>
        <time>2014-03-02T12:11:54Z</time>
      </trkpt>
      <trkpt lat="48.3509" lon="2.86655">
        <ele>148.51</ele>
        <time>2014-03-02T12:12:14Z</time>
      </trkpt>
      <trkpt lat="48.3509" lon="2.8669">
        <ele>146.62</ele>
        <time>2014-03-02T12:12:36Z</time>
      </trkpt>
      <trkpt lat="48.3509" lon="2.86724">
        <ele>146.72</ele>
        <time>2014-03-02T12:12:55Z</time>
      </trkpt>
      <trkpt lat="48.35088" lon="2.86758">
        <ele>146.03</ele>
        <time>2014-03-02T12:13:12Z</time>
      </trkpt>
      <trkpt lat="48.35088" lon="2.86793">
        <ele>145.21</ele>
        <time>2014-03-02T12:13:35Z</time>
      </trkpt>
      <trkpt lat="48.35088" lon="2.86828">
        <ele>145.69</ele>
        <time>2014-03-02T12:13:55Z</time>
      </trkpt>
      <trkpt lat="48.35089" lon="2.86863">
        <ele>145.77</ele>
        <time>2014-03-02T12:14:17Z</time>
      </trkpt>
      <trkpt lat="48.35086" lon="2.86896">
        <ele>145.9</ele>
        <time>2014-03-02T12:14:37Z</time>
      </trkpt>
      <trkpt lat="48.35088" lon="2.86931">
        <ele>145.41</ele>
        <time>2014-03-02T12:14:57Z</time>
      </trkpt>
      <trkpt lat="48.35086" lon="2.86966">
        <ele>145.27</ele>
        <time>2014-03-02T12:15:17Z</time>
      </trkpt>
      <trkpt lat="48.35087" lon="2.86999">
        <ele>146.6</ele>
        <time>2014-03-02T12:15:36Z</time>
      </trkpt>
      <trkpt lat="48.35088" lon="2.87034">
        <ele>147.77</ele>
        <time>2014-03-02T12:15:57Z</time>
      </trkpt>
      <trkpt lat="48.3509" lon="2.87069">
        <ele>148.96</ele>
        <time>2014-03-02T12:16:16Z</time>
      </trkpt>
      <trkpt lat="48.35096" lon="2.87103">
        <ele>150.02</ele>
        <time>2014-03-02T12:16:36Z</time>
      </trkpt>
      <trkpt lat="48.351" lon="2.87137">
        <ele>150</ele>
        <time>2014-03-02T12:16:56Z</time>
      </trkpt>
      <trkpt lat="48.35102" lon="2.87172">
        <ele>150.29</ele>
        <time>2014-03-02T12:17:16Z</time>
      </trkpt>
      <trkpt lat="48.35105" lon="2.87206">
        <ele>150.17</ele>
        <time>2014-03-02T12:17:38Z</time>
      </trkpt>
      <trkpt lat="48.35107" lon="2.87241">
        <ele>150.7</ele>
        <time>2014-03-02T12:17:57Z</time>
      </trkpt>
      <trkpt lat="48.35111" lon="2.87275">
        <ele>150.9</ele>
        <time>2014-03-02T12:18:16Z</time>
      </trkpt>
      <trkpt lat="48.35113" lon="2.8731">
        <ele>150.9</ele>
        <time>2014-03-02T12:18:36Z</time>
      </trkpt>
      <trkpt lat="48.35114" lon="2.87344">
        <ele>150.92</ele>
        <time>2014-03-02T12:18:54Z</time>
      </trkpt>
      <trkpt lat="48.35109" lon="2.87379">
        <ele>150.52</ele>
        <time>2014-03-02T12:19:12Z</time>
      </trkpt>
      <trkpt lat="48.35103" lon="2.87412">
        <ele>148.61</ele>
        <time>2014-03-02T12:19:35Z</time>
      </trkpt>
      <trkpt lat="48.35093" lon="2.87443">
        <ele>147.9</ele>
        <time>2014-03-02T12:19:53Z</time>
      </trkpt>
      <trkpt lat="48.35086" lon="2.87476">
        <ele>146.51</ele>
        <time>2014-03-02T12:20:13Z</time>
      </trkpt>
      <trkpt lat="48.35079" lon="2.87509">
        <ele>146.8</ele>
        <time>2014-03-02T12:20:33Z</time>
      </trkpt>
      <trkpt lat="48.35072" lon="2.87542">
        <ele>146.7</ele>
        <time>2014-03-02T12:20:52Z</time>
      </trkpt>
      <trkpt lat="48.35067" lon="2.87575">
        <ele>146.86</ele>
        <time>2014-03-02T12:21:12Z</time>
      </trkpt>
      <trkpt lat="48.3506" lon="2.87608">
        <ele>147.8</ele>
        <time>2014-03-02T12:21:30Z</time>
      </trkpt>
      <trkpt lat="48.35055" lon="2.87641">
        <ele>148.7</ele>
        <time>2014-03-02T12:21:49Z</time>
      </trkpt>
      <trkpt lat="48.35049" lon="2.87674">
        <ele>149.47</ele>
        <time>2014-03-02T12:22:09Z</time>
      </trkpt>
      <trkpt lat="48.35038" lon="2.87705">
        <ele>150.98</ele>
        <time>2014-03-02T12:22:32Z</time>
      </trkpt>
      <trkpt lat="48.35021" lon="2.87728">
        <ele>151.3</ele>
        <time>2014-03-02T12:22:48Z</time>
      </trkpt>
      <trkpt lat="48.35003" lon="2.87751">
        <ele>151.13</ele>
        <time>2014-03-02T12:23:19Z</time>
      </trkpt>
      <trkpt lat="48.34985" lon="2.87774">
        <ele>151.55</ele>
        <time>2014-03-02T12:23:38Z</time>
      </trkpt>
      <trkpt lat="48.34967" lon="2.87794">
        <ele>152.27</ele>
        <time>2014-03-02T12:24:00Z</time>
      </trkpt>
      <trkpt lat="48.34949" lon="2.87815">
        <ele>153.36</ele>
        <time>2014-03-02T12:24:18Z</time>
      </trkpt>
      <trkpt lat="48.34929" lon="2.87835">
        <ele>154.76</ele>
        <time>2014-03-02T12:24:36Z</time>
      </trkpt>
      <trkpt lat="48.3491" lon="2.87854">
        <ele>157.35</ele>
        <time>2014-03-02T12:24:56Z</time>
      </trkpt>
      <trkpt lat="48.34892" lon="2.87875">
        <ele>158.08</ele>
        <time>2014-03-02T12:26:00Z</time>
      </trkpt>
      <trkpt lat="48.34876" lon="2.87897">
        <ele>155.54</ele>
        <time>2014-03-02T12:26:15Z</time>
      </trkpt>
      <trkpt lat="48.34861" lon="2.87924">
        <ele>155.56</ele>
        <time>2014-03-02T12:26:33Z</time>
      </trkpt>
      <trkpt lat="48.34847" lon="2.87951">
        <ele>154.41</ele>
        <time>2014-03-02T12:26:51Z</time>
      </trkpt>
      <trkpt lat="48.34833" lon="2.87981">
        <ele>154.01</ele>
        <time>2014-03-02T12:27:08Z</time>
      </trkpt>
      <trkpt lat="48.3482" lon="2.88011">
        <ele>153.88</ele>
        <time>2014-03-02T12:27:26Z</time>
      </trkpt>
      <trkpt lat="48.34809" lon="2.88042">
        <ele>154.37</ele>
        <time>2014-03-02T12:27:46Z</time>
      </trkpt>
      <trkpt lat="48.34799" lon="2.88073">
        <ele>155.64</ele>
        <time>2014-03-02T12:28:02Z</time>
      </trkpt>
      <trkpt lat="48.3479" lon="2.88105">
        <ele>156.69</ele>
        <time>2014-03-02T12:28:19Z</time>
      </trkpt>
      <trkpt lat="48.34784" lon="2.88139">
        <ele>156.37</ele>
        <time>2014-03-02T12:28:39Z</time>
      </trkpt>
      <trkpt lat="48.34777" lon="2.88172">
        <ele>156.56</ele>
        <time>2014-03-02T12:28:57Z</time>
      </trkpt>
      <trkpt lat="48.3477" lon="2.88206">
        <ele>157.55</ele>
        <time>2014-03-02T12:29:18Z</time>
      </trkpt>
      <trkpt lat="48.34763" lon="2.88238">
        <ele>157.93</ele>
        <time>2014-03-02T12:29:39Z</time>
      </trkpt>
      <trkpt lat="48.34756" lon="2.88271">
        <ele>158.22</ele>
        <time>2014-03-02T12:29:57Z</time>
      </trkpt>
      <trkpt lat="48.34752" lon="2.88305">
        <ele>158.33</ele>
        <time>2014-03-02T12:30:18Z</time>
      </trkpt>
      <trkpt lat="48.34741" lon="2.88336">
        <ele>157.91</ele>
        <time>2014-03-02T12:30:38Z</time>
      </trkpt>
      <trkpt lat="48.34728" lon="2.88364">
        <ele>157.93</ele>
        <time>2014-03-02T12:30:55Z</time>
      </trkpt>
      <trkpt lat="48.34714" lon="2.88392">
        <ele>157.33</ele>
        <time>2014-03-02T12:31:11Z</time>
      </trkpt>
      <trkpt lat="48.347" lon="2.88421">
        <ele>156.37</ele>
        <time>2014-03-02T12:31:30Z</time>
      </trkpt>
      <trkpt lat="48.34688" lon="2.88451">
        <ele>156.5</ele>
        <time>2014-03-02T12:31:53Z</time>
      </trkpt>
      <trkpt lat="48.34676" lon="2.8848">
        <ele>155.43</ele>
        <time>2014-03-02T12:32:12Z</time>
      </trkpt>
      <trkpt lat="48.34663" lon="2.88508">
        <ele>155.22</ele>
        <time>2014-03-02T12:32:30Z</time>
      </trkpt>
      <trkpt lat="48.3465" lon="2.88538">
        <ele>154.86</ele>
        <time>2014-03-02T12:32:51Z</time>
      </trkpt>
      <trkpt lat="48.34638" lon="2.88566">
        <ele>156.33</ele>
        <time>2014-03-02T12:33:40Z</time>
      </trkpt>
      <trkpt lat="48.34623" lon="2.88594">
        <ele>159.47</ele>
        <time>2014-03-02T12:35:10Z</time>
      </trkpt>
      <trkpt lat="48.34609" lon="2.88621">
        <ele>157.32</ele>
        <time>2014-03-02T12:35:30Z</time>
      </trkpt>
      <trkpt lat="48.34593" lon="2.88646">
        <ele>157.99</ele>
        <time>2014-03-02T12:35:49Z</time>
      </trkpt>
      <trkpt lat="48.34574" lon="2.88671">
        <ele>158.98</ele>
        <time>2014-03-02T12:36:09Z</time>
      </trkpt>
      <trkpt lat="48.34558" lon="2.88696">
        <ele>159.33</ele>
        <time>2014-03-02T12:36:25Z</time>
      </trkpt>
      <trkpt lat="48.34538" lon="2.88712">
        <ele>158.01</ele>
        <time>2014-03-02T12:36:46Z</time>
      </trkpt>
      <trkpt lat="48.3452" lon="2.88733">
        <ele>158.14</ele>
        <time>2014-03-02T12:37:23Z</time>
      </trkpt>
      <trkpt lat="48.34501" lon="2.88754">
        <ele>158.26</ele>
        <time>2014-03-02T12:37:39Z</time>
      </trkpt>
      <trkpt lat="48.34486" lon="2.88779">
        <ele>159.34</ele>
        <time>2014-03-02T12:37:59Z</time>
      </trkpt>
      <trkpt lat="48.3447" lon="2.88805">
        <ele>159.61</ele>
        <time>2014-03-02T12:38:21Z</time>
      </trkpt>
      <trkpt lat="48.34454" lon="2.88831">
        <ele>160.16</ele>
        <time>2014-03-02T12:38:41Z</time>
      </trkpt>
      <trkpt lat="48.34438" lon="2.88858">
        <ele>160.51</ele>
        <time>2014-03-02T12:39:01Z</time>
      </trkpt>
      <trkpt lat="48.34425" lon="2.88887">
        <ele>160.87</ele>
        <time>2014-03-02T12:39:22Z</time>
      </trkpt>
      <trkpt lat="48.3441" lon="2.88913">
        <ele>161.61</ele>
        <time>2014-03-02T12:39:41Z</time>
      </trkpt>
      <trkpt lat="48.34394" lon="2.88939">
        <ele>163.12</ele>
        <time>2014-03-02T12:39:53Z</time>
      </trkpt>
      <trkpt lat="48.34374" lon="2.88957">
        <ele>162.68</ele>
        <time>2014-03-02T12:40:25Z</time>
      </trkpt>
      <trkpt lat="48.34352" lon="2.88963">
        <ele>162.19</ele>
        <time>2014-03-02T12:40:41Z</time>
      </trkpt>
      <trkpt lat="48.34329" lon="2.8896">
        <ele>163.02</ele>
        <time>2014-03-02T12:41:01Z</time>
      </trkpt>
      <trkpt lat="48.34306" lon="2.88955">
        <ele>165.36</ele>
        <time>2014-03-02T12:41:22Z</time>
      </trkpt>
      <trkpt lat="48.34283" lon="2.88962">
        <ele>166.18</ele>
        <time>2014-03-02T12:41:42Z</time>
      </trkpt>
      <trkpt lat="48.34266" lon="2.88987">
        <ele>165.68</ele>
        <time>2014-03-02T12:42:07Z</time>
      </trkpt>
      <trkpt lat="48.34262" lon="2.89021">
        <ele>165.87</ele>
        <time>2014-03-02T12:42:26Z</time>
      </trkpt>
      <trkpt lat="48.34266" lon="2.89055">
        <ele>168.12</ele>
        <time>2014-03-02T12:42:44Z</time>
      </trkpt>
      <trkpt lat="48.3428" lon="2.89085">
        <ele>168.73</ele>
        <time>2014-03-02T12:43:01Z</time>
      </trkpt>
      <trkpt lat="48.34279" lon="2.89119">
        <ele>170.53</ele>
        <time>2014-03-02T12:43:17Z</time>
      </trkpt>
      <trkpt lat="48.34278" lon="2.89154">
        <ele>170.18</ele>
        <time>2014-03-02T12:43:37Z</time>
      </trkpt>
      <trkpt lat="48.34283" lon="2.89188">
        <ele>170.53</ele>
        <time>2014-03-02T12:43:58Z</time>
      </trkpt>
      <trkpt lat="48.34284" lon="2.89222">
        <ele>170.21</ele>
        <time>2014-03-02T12:44:17Z</time>
      </trkpt>
      <trkpt lat="48.34269" lon="2.8925">
        <ele>169.34</ele>
        <time>2014-03-02T12:44:31Z</time>
      </trkpt>
      <trkpt lat="48.34253" lon="2.89273">
        <ele>166.81</ele>
        <time>2014-03-02T12:44:49Z</time>
      </trkpt>
      <trkpt lat="48.34247" lon="2.89307">
        <ele>166.33</ele>
        <time>2014-03-02T12:45:15Z</time>
      </trkpt>
      <trkpt lat="48.34261" lon="2.89336">
        <ele>165.83</ele>
        <time>2014-03-02T12:45:35Z</time>
      </trkpt>
      <trkpt lat="48.34271" lon="2.89367">
        <ele>164.37</ele>
        <time>2014-03-02T12:45:54Z</time>
      </trkpt>
      <trkpt lat="48.34282" lon="2.89397">
        <ele>163.8</ele>
        <time>2014-03-02T12:46:14Z</time>
      </trkpt>
      <trkpt lat="48.34296" lon="2.89423">
        <ele>160.51</ele>
        <time>2014-03-02T12:46:34Z</time>
      </trkpt>
      <trkpt lat="48.34306" lon="2.89454">
        <ele>161.57</ele>
        <time>2014-03-02T12:46:50Z</time>
      </trkpt>
      <trkpt lat="48.34317" lon="2.89484">
        <ele>162</ele>
        <time>2014-03-02T12:47:05Z</time>
      </trkpt>
      <trkpt lat="48.34305" lon="2.89514">
        <ele>163.21</ele>
        <time>2014-03-02T12:47:30Z</time>
      </trkpt>
      <trkpt lat="48.34289" lon="2.89537">
        <ele>164.64</ele>
        <time>2014-03-02T12:47:46Z</time>
      </trkpt>
      <trkpt lat="48.34272" lon="2.89561">
        <ele>165.83</ele>
        <time>2014-03-02T12:48:17Z</time>
      </trkpt>
      <trkpt lat="48.34266" lon="2.89594">
        <ele>167.59</ele>
        <time>2014-03-02T12:48:44Z</time>
      </trkpt>
      <trkpt lat="48.34278" lon="2.89623">
        <ele>171.53</ele>
        <time>2014-03-02T12:50:02Z</time>
      </trkpt>
      <trkpt lat="48.3428" lon="2.8963">
        <ele>172.2</ele>
        <time>2014-03-02T12:50:11Z</time>
      </trkpt>
    </trkseg>
  </trk>
  <trk>
    <name><![CDATA[05 VSJ => Champigny]]></name>
    <extensions>
      <line xmlns="http://www.topografix.com/GPX/gpx_style/0/2">
        <color>00FF00</color>
        <width>4</width>
      </line>
    </extensions>
    <trkseg>
      <trkpt lat="48.34251" lon="2.89597">
        <ele>98</ele>
      </trkpt>
      <trkpt lat="48.34226" lon="2.89642">
        <ele>99</ele>
      </trkpt>
      <trkpt lat="48.34215" lon="2.89667">
        <ele>97</ele>
      </trkpt>
      <trkpt lat="48.34215" lon="2.89705">
        <ele>97</ele>
      </trkpt>
      <trkpt lat="48.3422" lon="2.89754">
        <ele>93</ele>
      </trkpt>
      <trkpt lat="48.34213" lon="2.89778">
        <ele>93</ele>
      </trkpt>
      <trkpt lat="48.34185" lon="2.89816">
        <ele>93</ele>
      </trkpt>
      <trkpt lat="48.34142" lon="2.89856">
        <ele>96</ele>
      </trkpt>
      <trkpt lat="48.34133" lon="2.89875">
        <ele>97</ele>
      </trkpt>
      <trkpt lat="48.34124" lon="2.89983">
        <ele>96</ele>
      </trkpt>
      <trkpt lat="48.34116" lon="2.90054">
        <ele>94</ele>
      </trkpt>
      <trkpt lat="48.34098" lon="2.9009">
        <ele>94</ele>
      </trkpt>
      <trkpt lat="48.34084" lon="2.90124">
        <ele>94</ele>
      </trkpt>
      <trkpt lat="48.34077" lon="2.90171">
        <ele>97</ele>
      </trkpt>
      <trkpt lat="48.34067" lon="2.90219">
        <ele>97</ele>
      </trkpt>
      <trkpt lat="48.34065" lon="2.9027">
        <ele>97</ele>
      </trkpt>
      <trkpt lat="48.34058" lon="2.90322">
        <ele>97</ele>
      </trkpt>
      <trkpt lat="48.33832" lon="2.90382">
        <ele>101</ele>
      </trkpt>
      <trkpt lat="48.33815" lon="2.90513">
        <ele>98</ele>
      </trkpt>
      <trkpt lat="48.33692" lon="2.90987">
        <ele>105</ele>
      </trkpt>
      <trkpt lat="48.33688" lon="2.91449">
        <ele>105</ele>
      </trkpt>
      <trkpt lat="48.33673" lon="2.91519">
        <ele>103</ele>
      </trkpt>
      <trkpt lat="48.33674" lon="2.91533">
        <ele>102</ele>
      </trkpt>
      <trkpt lat="48.33685" lon="2.91562">
        <ele>101</ele>
      </trkpt>
      <trkpt lat="48.33689" lon="2.91635">
        <ele>97</ele>
      </trkpt>
      <trkpt lat="48.33683" lon="2.9171">
        <ele>94</ele>
      </trkpt>
      <trkpt lat="48.33677" lon="2.91745">
        <ele>95</ele>
      </trkpt>
      <trkpt lat="48.33651" lon="2.9179">
        <ele>96</ele>
      </trkpt>
      <trkpt lat="48.33612" lon="2.91858">
        <ele>98</ele>
      </trkpt>
      <trkpt lat="48.33603" lon="2.91922">
        <ele>101</ele>
      </trkpt>
      <trkpt lat="48.33603" lon="2.92015">
        <ele>99</ele>
      </trkpt>
      <trkpt lat="48.33588" lon="2.92037">
        <ele>99</ele>
      </trkpt>
      <trkpt lat="48.3356" lon="2.92086">
        <ele>106</ele>
      </trkpt>
      <trkpt lat="48.33559" lon="2.92215">
        <ele>105</ele>
      </trkpt>
      <trkpt lat="48.33549" lon="2.92257">
        <ele>101</ele>
      </trkpt>
      <trkpt lat="48.33551" lon="2.92288">
        <ele>100</ele>
      </trkpt>
      <trkpt lat="48.33544" lon="2.92338">
        <ele>96</ele>
      </trkpt>
      <trkpt lat="48.33524" lon="2.92409">
        <ele>95</ele>
      </trkpt>
      <trkpt lat="48.33516" lon="2.92508">
        <ele>89</ele>
      </trkpt>
      <trkpt lat="48.33479" lon="2.92614">
        <ele>84</ele>
      </trkpt>
      <trkpt lat="48.33459" lon="2.92674">
        <ele>83</ele>
      </trkpt>
      <trkpt lat="48.33454" lon="2.92765">
        <ele>85</ele>
      </trkpt>
      <trkpt lat="48.33477" lon="2.9283">
        <ele>85</ele>
      </trkpt>
      <trkpt lat="48.33489" lon="2.9286">
        <ele>87</ele>
      </trkpt>
      <trkpt lat="48.33556" lon="2.92887">
        <ele>82</ele>
      </trkpt>
      <trkpt lat="48.33544" lon="2.9296">
        <ele>82</ele>
      </trkpt>
      <trkpt lat="48.33536" lon="2.92984">
        <ele>82</ele>
      </trkpt>
      <trkpt lat="48.33543" lon="2.93034">
        <ele>81</ele>
      </trkpt>
      <trkpt lat="48.33566" lon="2.93139">
        <ele>82</ele>
      </trkpt>
      <trkpt lat="48.33595" lon="2.93261">
        <ele>86</ele>
      </trkpt>
      <trkpt lat="48.33603" lon="2.93298">
        <ele>88</ele>
      </trkpt>
      <trkpt lat="48.33592" lon="2.93324">
        <ele>88</ele>
      </trkpt>
      <trkpt lat="48.33559" lon="2.93391">
        <ele>92</ele>
      </trkpt>
      <trkpt lat="48.33505" lon="2.93472">
        <ele>95</ele>
      </trkpt>
      <trkpt lat="48.3348" lon="2.93496">
        <ele>100</ele>
      </trkpt>
      <trkpt lat="48.33494" lon="2.93588">
        <ele>99</ele>
      </trkpt>
      <trkpt lat="48.33491" lon="2.93619">
        <ele>100</ele>
      </trkpt>
      <trkpt lat="48.33427" lon="2.93804">
        <ele>96</ele>
      </trkpt>
      <trkpt lat="48.33421" lon="2.93831">
        <ele>97</ele>
      </trkpt>
      <trkpt lat="48.33426" lon="2.93891">
        <ele>95</ele>
      </trkpt>
      <trkpt lat="48.33399" lon="2.94037">
        <ele>96</ele>
      </trkpt>
      <trkpt lat="48.33373" lon="2.94077">
        <ele>97</ele>
      </trkpt>
      <trkpt lat="48.33349" lon="2.9423">
        <ele>98</ele>
      </trkpt>
      <trkpt lat="48.33352" lon="2.94323">
        <ele>101</ele>
      </trkpt>
      <trkpt lat="48.33357" lon="2.94449">
        <ele>102</ele>
      </trkpt>
      <trkpt lat="48.33367" lon="2.94587">
        <ele>101</ele>
      </trkpt>
      <trkpt lat="48.33388" lon="2.94691">
        <ele>99</ele>
      </trkpt>
      <trkpt lat="48.33397" lon="2.94729">
        <ele>98</ele>
      </trkpt>
      <trkpt lat="48.33408" lon="2.94909">
        <ele>97</ele>
      </trkpt>
      <trkpt lat="48.33456" lon="2.9516">
        <ele>97</ele>
      </trkpt>
      <trkpt lat="48.33499" lon="2.95341">
        <ele>97</ele>
      </trkpt>
      <trkpt lat="48.33504" lon="2.95375">
        <ele>93</ele>
      </trkpt>
      <trkpt lat="48.33432" lon="2.9557">
        <ele>99</ele>
      </trkpt>
      <trkpt lat="48.33412" lon="2.95811">
        <ele>102</ele>
      </trkpt>
      <trkpt lat="48.33429" lon="2.95926">
        <ele>98</ele>
      </trkpt>
      <trkpt lat="48.33459" lon="2.95994">
        <ele>97</ele>
      </trkpt>
      <trkpt lat="48.33481" lon="2.96059">
        <ele>98</ele>
      </trkpt>
      <trkpt lat="48.33504" lon="2.96188">
        <ele>95</ele>
      </trkpt>
      <trkpt lat="48.33537" lon="2.96347">
        <ele>97</ele>
      </trkpt>
      <trkpt lat="48.33551" lon="2.96416">
        <ele>96</ele>
      </trkpt>
      <trkpt lat="48.33603" lon="2.96472">
        <ele>94</ele>
      </trkpt>
      <trkpt lat="48.33648" lon="2.96545">
        <ele>95</ele>
      </trkpt>
      <trkpt lat="48.3367" lon="2.96733">
        <ele>95</ele>
      </trkpt>
      <trkpt lat="48.33755" lon="2.97059">
        <ele>100</ele>
      </trkpt>
      <trkpt lat="48.33793" lon="2.9717">
        <ele>99</ele>
      </trkpt>
      <trkpt lat="48.3381" lon="2.97185">
        <ele>99</ele>
      </trkpt>
      <trkpt lat="48.33801" lon="2.97207">
        <ele>99</ele>
      </trkpt>
      <trkpt lat="48.3382" lon="2.97292">
        <ele>97</ele>
      </trkpt>
      <trkpt lat="48.33827" lon="2.97392">
        <ele>96</ele>
      </trkpt>
      <trkpt lat="48.33822" lon="2.97442">
        <ele>96</ele>
      </trkpt>
      <trkpt lat="48.33827" lon="2.97502">
        <ele>96</ele>
      </trkpt>
      <trkpt lat="48.33793" lon="2.97654">
        <ele>98</ele>
      </trkpt>
      <trkpt lat="48.33779" lon="2.97695">
        <ele>100</ele>
      </trkpt>
      <trkpt lat="48.33707" lon="2.98007">
        <ele>104</ele>
      </trkpt>
      <trkpt lat="48.33628" lon="2.98364">
        <ele>97</ele>
      </trkpt>
      <trkpt lat="48.33635" lon="2.98492">
        <ele>97</ele>
      </trkpt>
      <trkpt lat="48.33637" lon="2.98552">
        <ele>97</ele>
      </trkpt>
      <trkpt lat="48.33631" lon="2.98609">
        <ele>97</ele>
      </trkpt>
      <trkpt lat="48.33618" lon="2.98664">
        <ele>97</ele>
      </trkpt>
      <trkpt lat="48.33437" lon="2.98973">
        <ele>93</ele>
      </trkpt>
      <trkpt lat="48.33128" lon="2.995">
        <ele>93</ele>
      </trkpt>
      <trkpt lat="48.33098" lon="2.99601">
        <ele>95</ele>
      </trkpt>
      <trkpt lat="48.33077" lon="2.997">
        <ele>98</ele>
      </trkpt>
      <trkpt lat="48.33079" lon="2.99778">
        <ele>97</ele>
      </trkpt>
      <trkpt lat="48.33079" lon="2.99834">
        <ele>96</ele>
      </trkpt>
      <trkpt lat="48.33082" lon="2.99956">
        <ele>103</ele>
      </trkpt>
      <trkpt lat="48.33106" lon="2.99973">
        <ele>99</ele>
      </trkpt>
      <trkpt lat="48.3313" lon="3.00009">
        <ele>101</ele>
      </trkpt>
      <trkpt lat="48.33159" lon="3.00027">
        <ele>100</ele>
      </trkpt>
      <trkpt lat="48.33208" lon="3.00048">
        <ele>96</ele>
      </trkpt>
      <trkpt lat="48.33254" lon="3.00065">
        <ele>94</ele>
      </trkpt>
      <trkpt lat="48.33275" lon="3.00087">
        <ele>96</ele>
      </trkpt>
      <trkpt lat="48.33327" lon="3.00184">
        <ele>98</ele>
      </trkpt>
      <trkpt lat="48.3334" lon="3.00222">
        <ele>98</ele>
      </trkpt>
      <trkpt lat="48.33345" lon="3.00461">
        <ele>110</ele>
      </trkpt>
      <trkpt lat="48.33364" lon="3.00797">
        <ele>111</ele>
      </trkpt>
      <trkpt lat="48.33387" lon="3.01267">
        <ele>106</ele>
      </trkpt>
      <trkpt lat="48.33399" lon="3.01523">
        <ele>105</ele>
      </trkpt>
      <trkpt lat="48.33428" lon="3.02175">
        <ele>100</ele>
      </trkpt>
      <trkpt lat="48.33432" lon="3.0221">
        <ele>99</ele>
      </trkpt>
      <trkpt lat="48.33437" lon="3.02257">
        <ele>97</ele>
      </trkpt>
      <trkpt lat="48.33434" lon="3.02304">
        <ele>97</ele>
      </trkpt>
      <trkpt lat="48.33466" lon="3.02446">
        <ele>97</ele>
      </trkpt>
      <trkpt lat="48.33472" lon="3.02489">
        <ele>98</ele>
      </trkpt>
      <trkpt lat="48.33422" lon="3.02727">
        <ele>95</ele>
      </trkpt>
      <trkpt lat="48.3341" lon="3.02776">
        <ele>96</ele>
      </trkpt>
      <trkpt lat="48.33399" lon="3.0286">
        <ele>95</ele>
      </trkpt>
      <trkpt lat="48.33359" lon="3.02964">
        <ele>95</ele>
      </trkpt>
      <trkpt lat="48.33313" lon="3.02999">
        <ele>95</ele>
      </trkpt>
      <trkpt lat="48.33268" lon="3.03019">
        <ele>95</ele>
      </trkpt>
      <trkpt lat="48.33239" lon="3.03026">
        <ele>98</ele>
      </trkpt>
      <trkpt lat="48.33201" lon="3.03075">
        <ele>100</ele>
      </trkpt>
      <trkpt lat="48.33182" lon="3.03107">
        <ele>100</ele>
      </trkpt>
      <trkpt lat="48.32913" lon="3.03468">
        <ele>101</ele>
      </trkpt>
      <trkpt lat="48.32805" lon="3.0362">
        <ele>93</ele>
      </trkpt>
      <trkpt lat="48.32763" lon="3.0367">
        <ele>89</ele>
      </trkpt>
      <trkpt lat="48.3273" lon="3.03711">
        <ele>86</ele>
      </trkpt>
      <trkpt lat="48.32442" lon="3.0414">
        <ele>94</ele>
      </trkpt>
      <trkpt lat="48.32429" lon="3.04158">
        <ele>95</ele>
      </trkpt>
      <trkpt lat="48.32412" lon="3.04355">
        <ele>93</ele>
      </trkpt>
      <trkpt lat="48.32368" lon="3.05036">
        <ele>76</ele>
      </trkpt>
      <trkpt lat="48.32359" lon="3.0514">
        <ele>80</ele>
      </trkpt>
      <trkpt lat="48.32363" lon="3.05183">
        <ele>86</ele>
      </trkpt>
      <trkpt lat="48.32359" lon="3.05231">
        <ele>89</ele>
      </trkpt>
      <trkpt lat="48.32348" lon="3.0527">
        <ele>93</ele>
      </trkpt>
      <trkpt lat="48.32342" lon="3.05321">
        <ele>96</ele>
      </trkpt>
      <trkpt lat="48.32296" lon="3.05358">
        <ele>96</ele>
      </trkpt>
      <trkpt lat="48.32276" lon="3.05382">
        <ele>96</ele>
      </trkpt>
      <trkpt lat="48.3226" lon="3.05425">
        <ele>98</ele>
      </trkpt>
      <trkpt lat="48.32237" lon="3.05475">
        <ele>100</ele>
      </trkpt>
      <trkpt lat="48.32223" lon="3.05549">
        <ele>99</ele>
      </trkpt>
      <trkpt lat="48.3221" lon="3.05624">
        <ele>97</ele>
      </trkpt>
      <trkpt lat="48.32203" lon="3.05671">
        <ele>96</ele>
      </trkpt>
      <trkpt lat="48.32122" lon="3.05861">
        <ele>97</ele>
      </trkpt>
      <trkpt lat="48.32092" lon="3.05881">
        <ele>98</ele>
      </trkpt>
      <trkpt lat="48.32056" lon="3.06019">
        <ele>97</ele>
      </trkpt>
      <trkpt lat="48.32046" lon="3.0604">
        <ele>97</ele>
      </trkpt>
      <trkpt lat="48.31966" lon="3.06069">
        <ele>99</ele>
      </trkpt>
      <trkpt lat="48.31896" lon="3.06098">
        <ele>98</ele>
      </trkpt>
      <trkpt lat="48.31857" lon="3.06128">
        <ele>98</ele>
      </trkpt>
      <trkpt lat="48.31735" lon="3.06258">
        <ele>100</ele>
      </trkpt>
      <trkpt lat="48.31728" lon="3.06277">
        <ele>100</ele>
      </trkpt>
      <trkpt lat="48.31722" lon="3.06346">
        <ele>99</ele>
      </trkpt>
      <trkpt lat="48.31659" lon="3.06569">
        <ele>98</ele>
      </trkpt>
      <trkpt lat="48.3162" lon="3.06596">
        <ele>97</ele>
      </trkpt>
      <trkpt lat="48.3152" lon="3.06665">
        <ele>99</ele>
      </trkpt>
      <trkpt lat="48.31487" lon="3.06719">
        <ele>100</ele>
      </trkpt>
      <trkpt lat="48.31473" lon="3.06751">
        <ele>101</ele>
      </trkpt>
      <trkpt lat="48.31473" lon="3.06765">
        <ele>101</ele>
      </trkpt>
      <trkpt lat="48.31494" lon="3.06805">
        <ele>100</ele>
      </trkpt>
      <trkpt lat="48.31497" lon="3.06922">
        <ele>98</ele>
      </trkpt>
      <trkpt lat="48.3147" lon="3.07014">
        <ele>97</ele>
      </trkpt>
      <trkpt lat="48.31401" lon="3.07174">
        <ele>99</ele>
      </trkpt>
      <trkpt lat="48.31392" lon="3.07205">
        <ele>100</ele>
      </trkpt>
      <trkpt lat="48.31375" lon="3.0735">
        <ele>100</ele>
      </trkpt>
      <trkpt lat="48.3136" lon="3.07474">
        <ele>99</ele>
      </trkpt>
      <trkpt lat="48.31341" lon="3.07546">
        <ele>99</ele>
      </trkpt>
      <trkpt lat="48.31334" lon="3.07572">
        <ele>100</ele>
      </trkpt>
      <trkpt lat="48.31314" lon="3.07695">
        <ele>104</ele>
      </trkpt>
      <trkpt lat="48.31322" lon="3.07733">
        <ele>105</ele>
      </trkpt>
      <trkpt lat="48.31306" lon="3.07831">
        <ele>105</ele>
      </trkpt>
      <trkpt lat="48.31316" lon="3.07848">
        <ele>104</ele>
      </trkpt>
      <trkpt lat="48.3134" lon="3.07866">
        <ele>103</ele>
      </trkpt>
      <trkpt lat="48.31392" lon="3.07913">
        <ele>101</ele>
      </trkpt>
      <trkpt lat="48.31425" lon="3.07936">
        <ele>98</ele>
      </trkpt>
      <trkpt lat="48.31421" lon="3.07958">
        <ele>98</ele>
      </trkpt>
      <trkpt lat="48.31413" lon="3.0803">
        <ele>99</ele>
      </trkpt>
      <trkpt lat="48.31396" lon="3.08059">
        <ele>99</ele>
      </trkpt>
      <trkpt lat="48.31389" lon="3.08103">
        <ele>100</ele>
      </trkpt>
      <trkpt lat="48.31384" lon="3.08149">
        <ele>101</ele>
      </trkpt>
      <trkpt lat="48.31388" lon="3.08188">
        <ele>103</ele>
      </trkpt>
      <trkpt lat="48.31385" lon="3.0826">
        <ele>104</ele>
      </trkpt>
      <trkpt lat="48.31305" lon="3.08762">
        <ele>110</ele>
      </trkpt>
      <trkpt lat="48.31266" lon="3.09112">
        <ele>107</ele>
      </trkpt>
      <trkpt lat="48.31209" lon="3.09542">
        <ele>106</ele>
      </trkpt>
      <trkpt lat="48.31214" lon="3.09606">
        <ele>108</ele>
      </trkpt>
      <trkpt lat="48.31121" lon="3.10325">
        <ele>101</ele>
      </trkpt>
      <trkpt lat="48.31103" lon="3.10331">
        <ele>101</ele>
      </trkpt>
      <trkpt lat="48.31122" lon="3.10468">
        <ele>104</ele>
      </trkpt>
      <trkpt lat="48.31146" lon="3.10661">
        <ele>105</ele>
      </trkpt>
      <trkpt lat="48.3118" lon="3.10899">
        <ele>99</ele>
      </trkpt>
      <trkpt lat="48.31204" lon="3.11071">
        <ele>99</ele>
      </trkpt>
      <trkpt lat="48.31199" lon="3.11154">
        <ele>99</ele>
      </trkpt>
      <trkpt lat="48.31166" lon="3.11285">
        <ele>101</ele>
      </trkpt>
      <trkpt lat="48.31113" lon="3.11449">
        <ele>99</ele>
      </trkpt>
      <trkpt lat="48.31111" lon="3.11485">
        <ele>99</ele>
      </trkpt>
      <trkpt lat="48.31117" lon="3.11623">
        <ele>104</ele>
      </trkpt>
      <trkpt lat="48.31148" lon="3.12271">
        <ele>128</ele>
      </trkpt>
      <trkpt lat="48.31223" lon="3.12241">
        <ele>127</ele>
      </trkpt>
      <trkpt lat="48.31251" lon="3.12237">
        <ele>128</ele>
      </trkpt>
      <trkpt lat="48.31286" lon="3.12232">
        <ele>127</ele>
      </trkpt>
      <trkpt lat="48.31433" lon="3.1227">
        <ele>120</ele>
      </trkpt>
      <trkpt lat="48.31622" lon="3.12333">
        <ele>106</ele>
      </trkpt>
      <trkpt lat="48.31645" lon="3.12385">
        <ele>103</ele>
      </trkpt>
      <trkpt lat="48.31651" lon="3.12427">
        <ele>101</ele>
      </trkpt>
      <trkpt lat="48.31665" lon="3.12476">
        <ele>102</ele>
      </trkpt>
      <trkpt lat="48.31699" lon="3.1254">
        <ele>98</ele>
      </trkpt>
      <trkpt lat="48.31687" lon="3.12644">
        <ele>98</ele>
      </trkpt>
      <trkpt lat="48.31701" lon="3.12675">
        <ele>96</ele>
      </trkpt>
      <trkpt lat="48.317" lon="3.1272">
        <ele>96</ele>
      </trkpt>
      <trkpt lat="48.31806" lon="3.12844">
        <ele>83</ele>
      </trkpt>
    </trkseg>
  </trk>
  <trk>
    <name><![CDATA[6 Champigny Sens]]></name>
    <extensions>
      <line xmlns="http://www.topografix.com/GPX/gpx_style/0/2">
        <color>FF0000</color>
        <width>4</width>
      </line>
    </extensions>
    <trkseg>
      <trkpt lat="48.31992" lon="3.12518">
        <ele>75</ele>
        <time>2013-08-03T06:29:54Z</time>
      </trkpt>
      <trkpt lat="48.31986" lon="3.12561">
        <ele>75</ele>
        <time>2013-08-03T06:35:07Z</time>
      </trkpt>
      <trkpt lat="48.31983" lon="3.12564">
        <ele>75</ele>
        <time>2013-08-03T06:48:23Z</time>
      </trkpt>
      <trkpt lat="48.31986" lon="3.12572">
        <ele>75</ele>
        <time>2013-08-03T06:48:55Z</time>
      </trkpt>
      <trkpt lat="48.31989" lon="3.12577">
        <ele>74</ele>
        <time>2013-08-03T06:48:58Z</time>
      </trkpt>
      <trkpt lat="48.31992" lon="3.12583">
        <ele>74</ele>
        <time>2013-08-03T06:49:03Z</time>
      </trkpt>
      <trkpt lat="48.31997" lon="3.12586">
        <ele>73</ele>
        <time>2013-08-03T06:49:07Z</time>
      </trkpt>
      <trkpt lat="48.32" lon="3.12593">
        <ele>73</ele>
        <time>2013-08-03T06:49:14Z</time>
      </trkpt>
      <trkpt lat="48.32003" lon="3.12598">
        <ele>72</ele>
        <time>2013-08-03T06:49:18Z</time>
      </trkpt>
      <trkpt lat="48.32007" lon="3.12603">
        <ele>72</ele>
        <time>2013-08-03T06:49:22Z</time>
      </trkpt>
      <trkpt lat="48.32012" lon="3.12607">
        <ele>72</ele>
        <time>2013-08-03T06:49:26Z</time>
      </trkpt>
      <trkpt lat="48.32016" lon="3.12611">
        <ele>72</ele>
        <time>2013-08-03T06:49:30Z</time>
      </trkpt>
      <trkpt lat="48.3202" lon="3.12616">
        <ele>72</ele>
        <time>2013-08-03T06:49:35Z</time>
      </trkpt>
      <trkpt lat="48.32024" lon="3.1262">
        <ele>72</ele>
        <time>2013-08-03T06:49:40Z</time>
      </trkpt>
      <trkpt lat="48.32026" lon="3.12626">
        <ele>72</ele>
        <time>2013-08-03T06:49:44Z</time>
      </trkpt>
      <trkpt lat="48.32029" lon="3.12632">
        <ele>72</ele>
        <time>2013-08-03T06:49:49Z</time>
      </trkpt>
      <trkpt lat="48.32033" lon="3.12636">
        <ele>72</ele>
        <time>2013-08-03T06:49:54Z</time>
      </trkpt>
      <trkpt lat="48.32037" lon="3.12641">
        <ele>72</ele>
        <time>2013-08-03T06:49:59Z</time>
      </trkpt>
      <trkpt lat="48.32041" lon="3.12645">
        <ele>71</ele>
        <time>2013-08-03T06:50:04Z</time>
      </trkpt>
      <trkpt lat="48.32045" lon="3.12649">
        <ele>71</ele>
        <time>2013-08-03T06:50:08Z</time>
      </trkpt>
      <trkpt lat="48.32048" lon="3.12655">
        <ele>71</ele>
        <time>2013-08-03T06:50:13Z</time>
      </trkpt>
      <trkpt lat="48.32046" lon="3.12662">
        <ele>71</ele>
        <time>2013-08-03T06:50:17Z</time>
      </trkpt>
      <trkpt lat="48.32041" lon="3.12667">
        <ele>71</ele>
        <time>2013-08-03T06:50:21Z</time>
      </trkpt>
      <trkpt lat="48.32038" lon="3.12673">
        <ele>71</ele>
        <time>2013-08-03T06:50:24Z</time>
      </trkpt>
      <trkpt lat="48.32035" lon="3.1268">
        <ele>71</ele>
        <time>2013-08-03T06:50:27Z</time>
      </trkpt>
      <trkpt lat="48.32034" lon="3.12687">
        <ele>71</ele>
        <time>2013-08-03T06:50:31Z</time>
      </trkpt>
      <trkpt lat="48.3203" lon="3.12692">
        <ele>71</ele>
        <time>2013-08-03T06:50:35Z</time>
      </trkpt>
      <trkpt lat="48.32026" lon="3.12698">
        <ele>71</ele>
        <time>2013-08-03T06:50:40Z</time>
      </trkpt>
      <trkpt lat="48.32022" lon="3.12702">
        <ele>71</ele>
        <time>2013-08-03T06:50:44Z</time>
      </trkpt>
      <trkpt lat="48.32018" lon="3.12709">
        <ele>71</ele>
        <time>2013-08-03T06:50:48Z</time>
      </trkpt>
      <trkpt lat="48.32016" lon="3.12717">
        <ele>71</ele>
        <time>2013-08-03T06:50:52Z</time>
      </trkpt>
      <trkpt lat="48.32015" lon="3.12725">
        <ele>71</ele>
        <time>2013-08-03T06:50:56Z</time>
      </trkpt>
      <trkpt lat="48.32014" lon="3.12732">
        <ele>71</ele>
        <time>2013-08-03T06:51:00Z</time>
      </trkpt>
      <trkpt lat="48.32013" lon="3.12739">
        <ele>71</ele>
        <time>2013-08-03T06:51:04Z</time>
      </trkpt>
      <trkpt lat="48.32011" lon="3.12745">
        <ele>71</ele>
        <time>2013-08-03T06:51:08Z</time>
      </trkpt>
      <trkpt lat="48.32009" lon="3.12753">
        <ele>71</ele>
        <time>2013-08-03T06:51:13Z</time>
      </trkpt>
      <trkpt lat="48.32006" lon="3.1276">
        <ele>71</ele>
        <time>2013-08-03T06:51:18Z</time>
      </trkpt>
      <trkpt lat="48.32001" lon="3.12764">
        <ele>71</ele>
        <time>2013-08-03T06:51:22Z</time>
      </trkpt>
      <trkpt lat="48.31997" lon="3.12767">
        <ele>73</ele>
        <time>2013-08-03T06:51:26Z</time>
      </trkpt>
      <trkpt lat="48.31993" lon="3.12771">
        <ele>73</ele>
        <time>2013-08-03T06:51:30Z</time>
      </trkpt>
      <trkpt lat="48.31991" lon="3.12778">
        <ele>73</ele>
        <time>2013-08-03T06:51:33Z</time>
      </trkpt>
      <trkpt lat="48.31988" lon="3.12784">
        <ele>73</ele>
        <time>2013-08-03T06:51:36Z</time>
      </trkpt>
      <trkpt lat="48.31985" lon="3.1279">
        <ele>73</ele>
        <time>2013-08-03T06:51:39Z</time>
      </trkpt>
      <trkpt lat="48.31984" lon="3.12797">
        <ele>73</ele>
        <time>2013-08-03T06:51:44Z</time>
      </trkpt>
      <trkpt lat="48.31981" lon="3.12802">
        <ele>73</ele>
        <time>2013-08-03T06:51:50Z</time>
      </trkpt>
      <trkpt lat="48.31976" lon="3.12807">
        <ele>73</ele>
        <time>2013-08-03T06:51:55Z</time>
      </trkpt>
      <trkpt lat="48.31974" lon="3.12813">
        <ele>73</ele>
        <time>2013-08-03T06:52:01Z</time>
      </trkpt>
      <trkpt lat="48.3197" lon="3.1281">
        <ele>73</ele>
        <time>2013-08-03T06:52:12Z</time>
      </trkpt>
      <trkpt lat="48.31965" lon="3.12807">
        <ele>74</ele>
        <time>2013-08-03T06:52:16Z</time>
      </trkpt>
      <trkpt lat="48.31963" lon="3.12801">
        <ele>74</ele>
        <time>2013-08-03T06:52:21Z</time>
      </trkpt>
      <trkpt lat="48.31959" lon="3.12798">
        <ele>74</ele>
        <time>2013-08-03T06:52:25Z</time>
      </trkpt>
      <trkpt lat="48.31954" lon="3.12799">
        <ele>74</ele>
        <time>2013-08-03T06:52:28Z</time>
      </trkpt>
      <trkpt lat="48.31949" lon="3.12798">
        <ele>74</ele>
        <time>2013-08-03T06:52:33Z</time>
      </trkpt>
      <trkpt lat="48.31944" lon="3.12796">
        <ele>74</ele>
        <time>2013-08-03T06:52:36Z</time>
      </trkpt>
      <trkpt lat="48.3194" lon="3.12796">
        <ele>74</ele>
        <time>2013-08-03T06:52:40Z</time>
      </trkpt>
      <trkpt lat="48.31936" lon="3.12791">
        <ele>74</ele>
        <time>2013-08-03T06:53:19Z</time>
      </trkpt>
      <trkpt lat="48.31932" lon="3.12787">
        <ele>74</ele>
        <time>2013-08-03T06:53:22Z</time>
      </trkpt>
      <trkpt lat="48.31928" lon="3.12783">
        <ele>74</ele>
        <time>2013-08-03T06:53:25Z</time>
      </trkpt>
      <trkpt lat="48.31926" lon="3.12777">
        <ele>75</ele>
        <time>2013-08-03T06:53:31Z</time>
      </trkpt>
      <trkpt lat="48.31921" lon="3.12779">
        <ele>75</ele>
        <time>2013-08-03T06:53:36Z</time>
      </trkpt>
      <trkpt lat="48.31917" lon="3.12784">
        <ele>75</ele>
        <time>2013-08-03T06:53:40Z</time>
      </trkpt>
      <trkpt lat="48.31913" lon="3.1279">
        <ele>77</ele>
        <time>2013-08-03T06:53:45Z</time>
      </trkpt>
      <trkpt lat="48.31909" lon="3.12796">
        <ele>77</ele>
        <time>2013-08-03T06:53:50Z</time>
      </trkpt>
      <trkpt lat="48.31906" lon="3.12802">
        <ele>77</ele>
        <time>2013-08-03T06:53:55Z</time>
      </trkpt>
      <trkpt lat="48.31902" lon="3.12806">
        <ele>77</ele>
        <time>2013-08-03T06:53:59Z</time>
      </trkpt>
      <trkpt lat="48.31899" lon="3.12812">
        <ele>77</ele>
        <time>2013-08-03T06:54:05Z</time>
      </trkpt>
      <trkpt lat="48.31899" lon="3.12821">
        <ele>77</ele>
        <time>2013-08-03T06:54:10Z</time>
      </trkpt>
      <trkpt lat="48.31899" lon="3.12827">
        <ele>77</ele>
        <time>2013-08-03T06:54:14Z</time>
      </trkpt>
      <trkpt lat="48.31895" lon="3.12834">
        <ele>77</ele>
        <time>2013-08-03T06:54:18Z</time>
      </trkpt>
      <trkpt lat="48.31892" lon="3.1284">
        <ele>77</ele>
        <time>2013-08-03T06:54:21Z</time>
      </trkpt>
      <trkpt lat="48.31888" lon="3.12846">
        <ele>77</ele>
        <time>2013-08-03T06:54:25Z</time>
      </trkpt>
      <trkpt lat="48.31885" lon="3.1285">
        <ele>77</ele>
        <time>2013-08-03T06:54:29Z</time>
      </trkpt>
      <trkpt lat="48.31888" lon="3.12856">
        <ele>77</ele>
        <time>2013-08-03T06:54:34Z</time>
      </trkpt>
      <trkpt lat="48.31893" lon="3.12861">
        <ele>77</ele>
        <time>2013-08-03T06:54:38Z</time>
      </trkpt>
      <trkpt lat="48.31895" lon="3.12867">
        <ele>77</ele>
        <time>2013-08-03T06:54:42Z</time>
      </trkpt>
      <trkpt lat="48.31895" lon="3.12875">
        <ele>77</ele>
        <time>2013-08-03T06:54:47Z</time>
      </trkpt>
      <trkpt lat="48.31893" lon="3.12882">
        <ele>77</ele>
        <time>2013-08-03T06:54:51Z</time>
      </trkpt>
      <trkpt lat="48.31889" lon="3.12888">
        <ele>78</ele>
        <time>2013-08-03T06:54:56Z</time>
      </trkpt>
      <trkpt lat="48.31886" lon="3.12893">
        <ele>78</ele>
        <time>2013-08-03T06:55:01Z</time>
      </trkpt>
      <trkpt lat="48.31882" lon="3.12899">
        <ele>78</ele>
        <time>2013-08-03T06:55:07Z</time>
      </trkpt>
      <trkpt lat="48.31878" lon="3.12903">
        <ele>78</ele>
        <time>2013-08-03T06:55:11Z</time>
      </trkpt>
      <trkpt lat="48.31874" lon="3.12907">
        <ele>78</ele>
        <time>2013-08-03T06:55:14Z</time>
      </trkpt>
      <trkpt lat="48.3187" lon="3.12911">
        <ele>78</ele>
        <time>2013-08-03T06:55:17Z</time>
      </trkpt>
      <trkpt lat="48.31866" lon="3.12917">
        <ele>78</ele>
        <time>2013-08-03T06:55:21Z</time>
      </trkpt>
      <trkpt lat="48.31863" lon="3.12922">
        <ele>78</ele>
        <time>2013-08-03T06:55:27Z</time>
      </trkpt>
      <trkpt lat="48.31858" lon="3.1292">
        <ele>78</ele>
        <time>2013-08-03T06:55:32Z</time>
      </trkpt>
      <trkpt lat="48.31853" lon="3.12922">
        <ele>79</ele>
        <time>2013-08-03T06:55:39Z</time>
      </trkpt>
      <trkpt lat="48.31849" lon="3.12926">
        <ele>79</ele>
        <time>2013-08-03T06:55:44Z</time>
      </trkpt>
      <trkpt lat="48.31845" lon="3.1293">
        <ele>79</ele>
        <time>2013-08-03T06:55:49Z</time>
      </trkpt>
      <trkpt lat="48.3184" lon="3.12933">
        <ele>79</ele>
        <time>2013-08-03T06:55:54Z</time>
      </trkpt>
      <trkpt lat="48.31834" lon="3.12936">
        <ele>79</ele>
        <time>2013-08-03T06:55:58Z</time>
      </trkpt>
      <trkpt lat="48.3183" lon="3.1294">
        <ele>81</ele>
        <time>2013-08-03T06:56:03Z</time>
      </trkpt>
      <trkpt lat="48.31826" lon="3.12947">
        <ele>81</ele>
        <time>2013-08-03T06:56:08Z</time>
      </trkpt>
      <trkpt lat="48.31822" lon="3.1295">
        <ele>82</ele>
        <time>2013-08-03T06:56:13Z</time>
      </trkpt>
      <trkpt lat="48.31818" lon="3.12954">
        <ele>82</ele>
        <time>2013-08-03T06:56:17Z</time>
      </trkpt>
      <trkpt lat="48.31813" lon="3.12957">
        <ele>82</ele>
        <time>2013-08-03T06:56:22Z</time>
      </trkpt>
      <trkpt lat="48.31809" lon="3.12962">
        <ele>82</ele>
        <time>2013-08-03T06:56:28Z</time>
      </trkpt>
      <trkpt lat="48.31806" lon="3.12967">
        <ele>82</ele>
        <time>2013-08-03T06:56:36Z</time>
      </trkpt>
      <trkpt lat="48.31804" lon="3.12973">
        <ele>82</ele>
        <time>2013-08-03T06:56:43Z</time>
      </trkpt>
      <trkpt lat="48.318" lon="3.12976">
        <ele>82</ele>
        <time>2013-08-03T06:56:53Z</time>
      </trkpt>
      <trkpt lat="48.31797" lon="3.12981">
        <ele>82</ele>
        <time>2013-08-03T06:57:03Z</time>
      </trkpt>
      <trkpt lat="48.31798" lon="3.12988">
        <ele>82</ele>
        <time>2013-08-03T06:57:08Z</time>
      </trkpt>
      <trkpt lat="48.31797" lon="3.12996">
        <ele>82</ele>
        <time>2013-08-03T06:57:13Z</time>
      </trkpt>
      <trkpt lat="48.31794" lon="3.13005">
        <ele>83</ele>
        <time>2013-08-03T06:57:26Z</time>
      </trkpt>
      <trkpt lat="48.31794" lon="3.13013">
        <ele>83</ele>
        <time>2013-08-03T06:57:35Z</time>
      </trkpt>
      <trkpt lat="48.31794" lon="3.1302">
        <ele>83</ele>
        <time>2013-08-03T06:57:45Z</time>
      </trkpt>
      <trkpt lat="48.31791" lon="3.13026">
        <ele>83</ele>
        <time>2013-08-03T06:57:51Z</time>
      </trkpt>
      <trkpt lat="48.31788" lon="3.13032">
        <ele>83</ele>
        <time>2013-08-03T06:57:56Z</time>
      </trkpt>
      <trkpt lat="48.31785" lon="3.13038">
        <ele>83</ele>
        <time>2013-08-03T06:58:01Z</time>
      </trkpt>
      <trkpt lat="48.31788" lon="3.13044">
        <ele>83</ele>
        <time>2013-08-03T06:58:05Z</time>
      </trkpt>
      <trkpt lat="48.3179" lon="3.13051">
        <ele>83</ele>
        <time>2013-08-03T06:58:09Z</time>
      </trkpt>
      <trkpt lat="48.31789" lon="3.13058">
        <ele>83</ele>
        <time>2013-08-03T06:58:13Z</time>
      </trkpt>
      <trkpt lat="48.31789" lon="3.13066">
        <ele>83</ele>
        <time>2013-08-03T06:58:18Z</time>
      </trkpt>
      <trkpt lat="48.3179" lon="3.13073">
        <ele>83</ele>
        <time>2013-08-03T06:58:22Z</time>
      </trkpt>
      <trkpt lat="48.3179" lon="3.1308">
        <ele>83</ele>
        <time>2013-08-03T06:58:28Z</time>
      </trkpt>
      <trkpt lat="48.31788" lon="3.13087">
        <ele>83</ele>
        <time>2013-08-03T06:58:33Z</time>
      </trkpt>
      <trkpt lat="48.31781" lon="3.13097">
        <ele>83</ele>
        <time>2013-08-03T06:58:46Z</time>
      </trkpt>
      <trkpt lat="48.31772" lon="3.13106">
        <ele>83</ele>
        <time>2013-08-03T06:58:59Z</time>
      </trkpt>
      <trkpt lat="48.31767" lon="3.13118">
        <ele>83</ele>
        <time>2013-08-03T06:59:07Z</time>
      </trkpt>
      <trkpt lat="48.31762" lon="3.1313">
        <ele>82</ele>
        <time>2013-08-03T06:59:13Z</time>
      </trkpt>
      <trkpt lat="48.3176" lon="3.13136">
        <ele>82</ele>
        <time>2013-08-03T06:59:17Z</time>
      </trkpt>
      <trkpt lat="48.3176" lon="3.13144">
        <ele>82</ele>
        <time>2013-08-03T06:59:21Z</time>
      </trkpt>
      <trkpt lat="48.31756" lon="3.13148">
        <ele>82</ele>
        <time>2013-08-03T06:59:27Z</time>
      </trkpt>
      <trkpt lat="48.31754" lon="3.13155">
        <ele>81</ele>
        <time>2013-08-03T06:59:32Z</time>
      </trkpt>
      <trkpt lat="48.3175" lon="3.13162">
        <ele>81</ele>
        <time>2013-08-03T06:59:37Z</time>
      </trkpt>
      <trkpt lat="48.31747" lon="3.13168">
        <ele>81</ele>
        <time>2013-08-03T06:59:42Z</time>
      </trkpt>
      <trkpt lat="48.31744" lon="3.13175">
        <ele>80</ele>
        <time>2013-08-03T06:59:47Z</time>
      </trkpt>
      <trkpt lat="48.3174" lon="3.13179">
        <ele>80</ele>
        <time>2013-08-03T06:59:50Z</time>
      </trkpt>
      <trkpt lat="48.31734" lon="3.13182">
        <ele>80</ele>
        <time>2013-08-03T06:59:54Z</time>
      </trkpt>
      <trkpt lat="48.3173" lon="3.13187">
        <ele>80</ele>
        <time>2013-08-03T06:59:58Z</time>
      </trkpt>
      <trkpt lat="48.31727" lon="3.13192">
        <ele>80</ele>
        <time>2013-08-03T07:00:02Z</time>
      </trkpt>
      <trkpt lat="48.31726" lon="3.13201">
        <ele>80</ele>
        <time>2013-08-03T07:00:07Z</time>
      </trkpt>
      <trkpt lat="48.3173" lon="3.13206">
        <ele>80</ele>
        <time>2013-08-03T07:00:10Z</time>
      </trkpt>
      <trkpt lat="48.31732" lon="3.13214">
        <ele>79</ele>
        <time>2013-08-03T07:00:14Z</time>
      </trkpt>
      <trkpt lat="48.31732" lon="3.13223">
        <ele>79</ele>
        <time>2013-08-03T07:00:19Z</time>
      </trkpt>
      <trkpt lat="48.31732" lon="3.1323">
        <ele>79</ele>
        <time>2013-08-03T07:00:22Z</time>
      </trkpt>
      <trkpt lat="48.31727" lon="3.1324">
        <ele>79</ele>
        <time>2013-08-03T07:00:29Z</time>
      </trkpt>
      <trkpt lat="48.31724" lon="3.13246">
        <ele>79</ele>
        <time>2013-08-03T07:00:33Z</time>
      </trkpt>
      <trkpt lat="48.3172" lon="3.1325">
        <ele>79</ele>
        <time>2013-08-03T07:00:37Z</time>
      </trkpt>
      <trkpt lat="48.31721" lon="3.13257">
        <ele>79</ele>
        <time>2013-08-03T07:00:43Z</time>
      </trkpt>
      <trkpt lat="48.31722" lon="3.13264">
        <ele>80</ele>
        <time>2013-08-03T07:00:50Z</time>
      </trkpt>
      <trkpt lat="48.31724" lon="3.13271">
        <ele>80</ele>
        <time>2013-08-03T07:00:54Z</time>
      </trkpt>
      <trkpt lat="48.31724" lon="3.13279">
        <ele>80</ele>
        <time>2013-08-03T07:00:57Z</time>
      </trkpt>
      <trkpt lat="48.31724" lon="3.13286">
        <ele>80</ele>
        <time>2013-08-03T07:01:00Z</time>
      </trkpt>
      <trkpt lat="48.31726" lon="3.13293">
        <ele>80</ele>
        <time>2013-08-03T07:01:03Z</time>
      </trkpt>
      <trkpt lat="48.31726" lon="3.13301">
        <ele>80</ele>
        <time>2013-08-03T07:01:08Z</time>
      </trkpt>
      <trkpt lat="48.31725" lon="3.13309">
        <ele>80</ele>
        <time>2013-08-03T07:01:13Z</time>
      </trkpt>
      <trkpt lat="48.31723" lon="3.13315">
        <ele>80</ele>
        <time>2013-08-03T07:01:17Z</time>
      </trkpt>
      <trkpt lat="48.31721" lon="3.13322">
        <ele>80</ele>
        <time>2013-08-03T07:01:21Z</time>
      </trkpt>
      <trkpt lat="48.31721" lon="3.13331">
        <ele>80</ele>
        <time>2013-08-03T07:01:27Z</time>
      </trkpt>
      <trkpt lat="48.31721" lon="3.13338">
        <ele>82</ele>
        <time>2013-08-03T07:01:31Z</time>
      </trkpt>
      <trkpt lat="48.31721" lon="3.13346">
        <ele>82</ele>
        <time>2013-08-03T07:01:36Z</time>
      </trkpt>
      <trkpt lat="48.31719" lon="3.13354">
        <ele>82</ele>
        <time>2013-08-03T07:01:41Z</time>
      </trkpt>
      <trkpt lat="48.31719" lon="3.1336">
        <ele>82</ele>
        <time>2013-08-03T07:01:45Z</time>
      </trkpt>
      <trkpt lat="48.31719" lon="3.13369">
        <ele>83</ele>
        <time>2013-08-03T07:01:50Z</time>
      </trkpt>
      <trkpt lat="48.31717" lon="3.13377">
        <ele>83</ele>
        <time>2013-08-03T07:01:54Z</time>
      </trkpt>
      <trkpt lat="48.31716" lon="3.13384">
        <ele>83</ele>
        <time>2013-08-03T07:01:58Z</time>
      </trkpt>
      <trkpt lat="48.31715" lon="3.13392">
        <ele>83</ele>
        <time>2013-08-03T07:02:04Z</time>
      </trkpt>
      <trkpt lat="48.31713" lon="3.134">
        <ele>83</ele>
        <time>2013-08-03T07:02:09Z</time>
      </trkpt>
      <trkpt lat="48.31711" lon="3.13406">
        <ele>83</ele>
        <time>2013-08-03T07:02:14Z</time>
      </trkpt>
      <trkpt lat="48.3171" lon="3.13413">
        <ele>83</ele>
        <time>2013-08-03T07:02:20Z</time>
      </trkpt>
      <trkpt lat="48.31709" lon="3.1342">
        <ele>84</ele>
        <time>2013-08-03T07:02:25Z</time>
      </trkpt>
      <trkpt lat="48.31706" lon="3.13425">
        <ele>84</ele>
        <time>2013-08-03T07:02:29Z</time>
      </trkpt>
      <trkpt lat="48.31702" lon="3.13431">
        <ele>84</ele>
        <time>2013-08-03T07:02:34Z</time>
      </trkpt>
      <trkpt lat="48.31701" lon="3.13438">
        <ele>84</ele>
        <time>2013-08-03T07:02:38Z</time>
      </trkpt>
      <trkpt lat="48.31701" lon="3.13445">
        <ele>84</ele>
        <time>2013-08-03T07:02:44Z</time>
      </trkpt>
      <trkpt lat="48.317" lon="3.13452">
        <ele>84</ele>
        <time>2013-08-03T07:02:48Z</time>
      </trkpt>
      <trkpt lat="48.31684" lon="3.13501">
        <ele>82</ele>
        <time>2013-08-03T07:03:22Z</time>
      </trkpt>
      <trkpt lat="48.31683" lon="3.13509">
        <ele>82</ele>
        <time>2013-08-03T07:03:27Z</time>
      </trkpt>
      <trkpt lat="48.3168" lon="3.13518">
        <ele>82</ele>
        <time>2013-08-03T07:03:33Z</time>
      </trkpt>
      <trkpt lat="48.31676" lon="3.13526">
        <ele>82</ele>
        <time>2013-08-03T07:03:38Z</time>
      </trkpt>
      <trkpt lat="48.31675" lon="3.13535">
        <ele>81</ele>
        <time>2013-08-03T07:03:51Z</time>
      </trkpt>
      <trkpt lat="48.31672" lon="3.13542">
        <ele>81</ele>
        <time>2013-08-03T07:03:54Z</time>
      </trkpt>
      <trkpt lat="48.3167" lon="3.13548">
        <ele>81</ele>
        <time>2013-08-03T07:03:58Z</time>
      </trkpt>
      <trkpt lat="48.31668" lon="3.13556">
        <ele>81</ele>
        <time>2013-08-03T07:04:03Z</time>
      </trkpt>
      <trkpt lat="48.31667" lon="3.13563">
        <ele>81</ele>
        <time>2013-08-03T07:04:06Z</time>
      </trkpt>
      <trkpt lat="48.31665" lon="3.1357">
        <ele>83</ele>
        <time>2013-08-03T07:04:10Z</time>
      </trkpt>
      <trkpt lat="48.31663" lon="3.13587">
        <ele>81</ele>
        <time>2013-08-03T07:04:21Z</time>
      </trkpt>
      <trkpt lat="48.3166" lon="3.13601">
        <ele>82</ele>
        <time>2013-08-03T07:04:28Z</time>
      </trkpt>
      <trkpt lat="48.31656" lon="3.13612">
        <ele>82</ele>
        <time>2013-08-03T07:04:41Z</time>
      </trkpt>
      <trkpt lat="48.31654" lon="3.13618">
        <ele>82</ele>
        <time>2013-08-03T07:04:45Z</time>
      </trkpt>
      <trkpt lat="48.31652" lon="3.13625">
        <ele>82</ele>
        <time>2013-08-03T07:04:48Z</time>
      </trkpt>
      <trkpt lat="48.31651" lon="3.13632">
        <ele>81</ele>
        <time>2013-08-03T07:04:52Z</time>
      </trkpt>
      <trkpt lat="48.31651" lon="3.1364">
        <ele>81</ele>
        <time>2013-08-03T07:04:55Z</time>
      </trkpt>
      <trkpt lat="48.31652" lon="3.13651">
        <ele>81</ele>
        <time>2013-08-03T07:04:59Z</time>
      </trkpt>
      <trkpt lat="48.31652" lon="3.13658">
        <ele>81</ele>
        <time>2013-08-03T07:05:02Z</time>
      </trkpt>
      <trkpt lat="48.31648" lon="3.13665">
        <ele>81</ele>
        <time>2013-08-03T07:05:15Z</time>
      </trkpt>
      <trkpt lat="48.31646" lon="3.13671">
        <ele>79</ele>
        <time>2013-08-03T07:05:20Z</time>
      </trkpt>
      <trkpt lat="48.31644" lon="3.13678">
        <ele>79</ele>
        <time>2013-08-03T07:05:28Z</time>
      </trkpt>
      <trkpt lat="48.31642" lon="3.13688">
        <ele>79</ele>
        <time>2013-08-03T07:05:32Z</time>
      </trkpt>
      <trkpt lat="48.3164" lon="3.13696">
        <ele>79</ele>
        <time>2013-08-03T07:05:35Z</time>
      </trkpt>
      <trkpt lat="48.31638" lon="3.13704">
        <ele>79</ele>
        <time>2013-08-03T07:05:38Z</time>
      </trkpt>
      <trkpt lat="48.31636" lon="3.13711">
        <ele>78</ele>
        <time>2013-08-03T07:05:41Z</time>
      </trkpt>
      <trkpt lat="48.31633" lon="3.13717">
        <ele>78</ele>
        <time>2013-08-03T07:05:44Z</time>
      </trkpt>
      <trkpt lat="48.31631" lon="3.13724">
        <ele>78</ele>
        <time>2013-08-03T07:05:49Z</time>
      </trkpt>
      <trkpt lat="48.31632" lon="3.13731">
        <ele>78</ele>
        <time>2013-08-03T07:05:54Z</time>
      </trkpt>
      <trkpt lat="48.31631" lon="3.13739">
        <ele>78</ele>
        <time>2013-08-03T07:05:58Z</time>
      </trkpt>
      <trkpt lat="48.31629" lon="3.13746">
        <ele>78</ele>
        <time>2013-08-03T07:06:02Z</time>
      </trkpt>
      <trkpt lat="48.31626" lon="3.13751">
        <ele>75</ele>
        <time>2013-08-03T07:06:07Z</time>
      </trkpt>
      <trkpt lat="48.31622" lon="3.13765">
        <ele>75</ele>
        <time>2013-08-03T07:06:16Z</time>
      </trkpt>
      <trkpt lat="48.31618" lon="3.1377">
        <ele>75</ele>
        <time>2013-08-03T07:06:21Z</time>
      </trkpt>
      <trkpt lat="48.31615" lon="3.13775">
        <ele>75</ele>
        <time>2013-08-03T07:06:25Z</time>
      </trkpt>
      <trkpt lat="48.31613" lon="3.13782">
        <ele>75</ele>
        <time>2013-08-03T07:06:29Z</time>
      </trkpt>
      <trkpt lat="48.31611" lon="3.13789">
        <ele>75</ele>
        <time>2013-08-03T07:06:33Z</time>
      </trkpt>
      <trkpt lat="48.3161" lon="3.13797">
        <ele>75</ele>
        <time>2013-08-03T07:06:38Z</time>
      </trkpt>
      <trkpt lat="48.31608" lon="3.13803">
        <ele>75</ele>
        <time>2013-08-03T07:06:44Z</time>
      </trkpt>
      <trkpt lat="48.31605" lon="3.13809">
        <ele>74</ele>
        <time>2013-08-03T07:06:48Z</time>
      </trkpt>
      <trkpt lat="48.31601" lon="3.13812">
        <ele>74</ele>
        <time>2013-08-03T07:06:54Z</time>
      </trkpt>
      <trkpt lat="48.31595" lon="3.13816">
        <ele>74</ele>
        <time>2013-08-03T07:06:58Z</time>
      </trkpt>
      <trkpt lat="48.31591" lon="3.13818">
        <ele>74</ele>
        <time>2013-08-03T07:07:01Z</time>
      </trkpt>
      <trkpt lat="48.31586" lon="3.13819">
        <ele>74</ele>
        <time>2013-08-03T07:07:05Z</time>
      </trkpt>
      <trkpt lat="48.31582" lon="3.13817">
        <ele>76</ele>
        <time>2013-08-03T07:07:13Z</time>
      </trkpt>
      <trkpt lat="48.31578" lon="3.13822">
        <ele>76</ele>
        <time>2013-08-03T07:07:17Z</time>
      </trkpt>
      <trkpt lat="48.31576" lon="3.13828">
        <ele>76</ele>
        <time>2013-08-03T07:07:20Z</time>
      </trkpt>
      <trkpt lat="48.31575" lon="3.13836">
        <ele>75</ele>
        <time>2013-08-03T07:07:23Z</time>
      </trkpt>
      <trkpt lat="48.31573" lon="3.13843">
        <ele>75</ele>
        <time>2013-08-03T07:07:28Z</time>
      </trkpt>
      <trkpt lat="48.31567" lon="3.13853">
        <ele>76</ele>
        <time>2013-08-03T07:07:37Z</time>
      </trkpt>
      <trkpt lat="48.31563" lon="3.13858">
        <ele>76</ele>
        <time>2013-08-03T07:07:40Z</time>
      </trkpt>
      <trkpt lat="48.3156" lon="3.13863">
        <ele>76</ele>
        <time>2013-08-03T07:07:45Z</time>
      </trkpt>
      <trkpt lat="48.31554" lon="3.13874">
        <ele>76</ele>
        <time>2013-08-03T07:08:10Z</time>
      </trkpt>
      <trkpt lat="48.31551" lon="3.13881">
        <ele>76</ele>
        <time>2013-08-03T07:08:15Z</time>
      </trkpt>
      <trkpt lat="48.31547" lon="3.13889">
        <ele>76</ele>
        <time>2013-08-03T07:08:18Z</time>
      </trkpt>
      <trkpt lat="48.31543" lon="3.13893">
        <ele>76</ele>
        <time>2013-08-03T07:08:22Z</time>
      </trkpt>
      <trkpt lat="48.3154" lon="3.13901">
        <ele>76</ele>
        <time>2013-08-03T07:08:30Z</time>
      </trkpt>
      <trkpt lat="48.31536" lon="3.13908">
        <ele>76</ele>
        <time>2013-08-03T07:08:33Z</time>
      </trkpt>
      <trkpt lat="48.31532" lon="3.13913">
        <ele>76</ele>
        <time>2013-08-03T07:08:35Z</time>
      </trkpt>
      <trkpt lat="48.31528" lon="3.13919">
        <ele>75</ele>
        <time>2013-08-03T07:08:38Z</time>
      </trkpt>
      <trkpt lat="48.31524" lon="3.13927">
        <ele>75</ele>
        <time>2013-08-03T07:08:42Z</time>
      </trkpt>
      <trkpt lat="48.31521" lon="3.13936">
        <ele>75</ele>
        <time>2013-08-03T07:08:51Z</time>
      </trkpt>
      <trkpt lat="48.31517" lon="3.13943">
        <ele>75</ele>
        <time>2013-08-03T07:08:55Z</time>
      </trkpt>
      <trkpt lat="48.31513" lon="3.13949">
        <ele>74</ele>
        <time>2013-08-03T07:08:59Z</time>
      </trkpt>
      <trkpt lat="48.31511" lon="3.13956">
        <ele>74</ele>
        <time>2013-08-03T07:09:04Z</time>
      </trkpt>
      <trkpt lat="48.31507" lon="3.1396">
        <ele>74</ele>
        <time>2013-08-03T07:09:07Z</time>
      </trkpt>
      <trkpt lat="48.31502" lon="3.13964">
        <ele>74</ele>
        <time>2013-08-03T07:09:10Z</time>
      </trkpt>
      <trkpt lat="48.31499" lon="3.13969">
        <ele>76</ele>
        <time>2013-08-03T07:09:13Z</time>
      </trkpt>
      <trkpt lat="48.31496" lon="3.13974">
        <ele>75</ele>
        <time>2013-08-03T07:09:19Z</time>
      </trkpt>
      <trkpt lat="48.31494" lon="3.13981">
        <ele>75</ele>
        <time>2013-08-03T07:09:23Z</time>
      </trkpt>
      <trkpt lat="48.31492" lon="3.13988">
        <ele>75</ele>
        <time>2013-08-03T07:09:27Z</time>
      </trkpt>
      <trkpt lat="48.31489" lon="3.13995">
        <ele>74</ele>
        <time>2013-08-03T07:09:31Z</time>
      </trkpt>
      <trkpt lat="48.31487" lon="3.14001">
        <ele>73</ele>
        <time>2013-08-03T07:09:36Z</time>
      </trkpt>
      <trkpt lat="48.31484" lon="3.14005">
        <ele>73</ele>
        <time>2013-08-03T07:09:41Z</time>
      </trkpt>
      <trkpt lat="48.31479" lon="3.1401">
        <ele>73</ele>
        <time>2013-08-03T07:09:46Z</time>
      </trkpt>
      <trkpt lat="48.31475" lon="3.14015">
        <ele>73</ele>
        <time>2013-08-03T07:09:50Z</time>
      </trkpt>
      <trkpt lat="48.31474" lon="3.14022">
        <ele>73</ele>
        <time>2013-08-03T07:09:57Z</time>
      </trkpt>
      <trkpt lat="48.31472" lon="3.1403">
        <ele>73</ele>
        <time>2013-08-03T07:10:31Z</time>
      </trkpt>
      <trkpt lat="48.31468" lon="3.14035">
        <ele>73</ele>
        <time>2013-08-03T07:10:34Z</time>
      </trkpt>
      <trkpt lat="48.31464" lon="3.1404">
        <ele>73</ele>
        <time>2013-08-03T07:10:37Z</time>
      </trkpt>
      <trkpt lat="48.31462" lon="3.14046">
        <ele>73</ele>
        <time>2013-08-03T07:10:40Z</time>
      </trkpt>
      <trkpt lat="48.3146" lon="3.14054">
        <ele>73</ele>
        <time>2013-08-03T07:10:43Z</time>
      </trkpt>
      <trkpt lat="48.31458" lon="3.14061">
        <ele>73</ele>
        <time>2013-08-03T07:10:48Z</time>
      </trkpt>
      <trkpt lat="48.31455" lon="3.14066">
        <ele>73</ele>
        <time>2013-08-03T07:10:52Z</time>
      </trkpt>
      <trkpt lat="48.3145" lon="3.14071">
        <ele>73</ele>
        <time>2013-08-03T07:10:57Z</time>
      </trkpt>
      <trkpt lat="48.31447" lon="3.14076">
        <ele>72</ele>
        <time>2013-08-03T07:11:01Z</time>
      </trkpt>
      <trkpt lat="48.31443" lon="3.1408">
        <ele>72</ele>
        <time>2013-08-03T07:11:05Z</time>
      </trkpt>
      <trkpt lat="48.31438" lon="3.14082">
        <ele>72</ele>
        <time>2013-08-03T07:11:08Z</time>
      </trkpt>
      <trkpt lat="48.31434" lon="3.14086">
        <ele>71</ele>
        <time>2013-08-03T07:11:12Z</time>
      </trkpt>
      <trkpt lat="48.3143" lon="3.14091">
        <ele>71</ele>
        <time>2013-08-03T07:11:16Z</time>
      </trkpt>
      <trkpt lat="48.31426" lon="3.14095">
        <ele>71</ele>
        <time>2013-08-03T07:11:21Z</time>
      </trkpt>
      <trkpt lat="48.31421" lon="3.141">
        <ele>71</ele>
        <time>2013-08-03T07:11:26Z</time>
      </trkpt>
      <trkpt lat="48.31417" lon="3.14106">
        <ele>71</ele>
        <time>2013-08-03T07:11:31Z</time>
      </trkpt>
      <trkpt lat="48.31413" lon="3.1411">
        <ele>71</ele>
        <time>2013-08-03T07:11:36Z</time>
      </trkpt>
      <trkpt lat="48.31409" lon="3.14114">
        <ele>71</ele>
        <time>2013-08-03T07:11:40Z</time>
      </trkpt>
      <trkpt lat="48.31408" lon="3.14121">
        <ele>71</ele>
        <time>2013-08-03T07:11:46Z</time>
      </trkpt>
      <trkpt lat="48.31403" lon="3.14126">
        <ele>71</ele>
        <time>2013-08-03T07:11:50Z</time>
      </trkpt>
      <trkpt lat="48.31399" lon="3.1413">
        <ele>71</ele>
        <time>2013-08-03T07:11:53Z</time>
      </trkpt>
      <trkpt lat="48.31396" lon="3.14135">
        <ele>71</ele>
        <time>2013-08-03T07:11:56Z</time>
      </trkpt>
      <trkpt lat="48.31393" lon="3.14141">
        <ele>70</ele>
        <time>2013-08-03T07:12:01Z</time>
      </trkpt>
      <trkpt lat="48.31392" lon="3.14149">
        <ele>70</ele>
        <time>2013-08-03T07:12:05Z</time>
      </trkpt>
      <trkpt lat="48.31389" lon="3.14155">
        <ele>70</ele>
        <time>2013-08-03T07:12:10Z</time>
      </trkpt>
      <trkpt lat="48.31369" lon="3.142">
        <ele>71</ele>
        <time>2013-08-03T07:12:47Z</time>
      </trkpt>
      <trkpt lat="48.31366" lon="3.14207">
        <ele>71</ele>
        <time>2013-08-03T07:12:51Z</time>
      </trkpt>
      <trkpt lat="48.31364" lon="3.14213">
        <ele>72</ele>
        <time>2013-08-03T07:12:54Z</time>
      </trkpt>
      <trkpt lat="48.31363" lon="3.1422">
        <ele>72</ele>
        <time>2013-08-03T07:12:56Z</time>
      </trkpt>
      <trkpt lat="48.31359" lon="3.14226">
        <ele>72</ele>
        <time>2013-08-03T07:13:01Z</time>
      </trkpt>
      <trkpt lat="48.31357" lon="3.14228">
        <ele>72</ele>
        <time>2013-08-03T07:13:07Z</time>
      </trkpt>
      <trkpt lat="48.31356" lon="3.14236">
        <ele>72</ele>
        <time>2013-08-03T07:13:13Z</time>
      </trkpt>
      <trkpt lat="48.31356" lon="3.14243">
        <ele>72</ele>
        <time>2013-08-03T07:13:16Z</time>
      </trkpt>
      <trkpt lat="48.31354" lon="3.1425">
        <ele>72</ele>
        <time>2013-08-03T07:13:19Z</time>
      </trkpt>
      <trkpt lat="48.31352" lon="3.14258">
        <ele>74</ele>
        <time>2013-08-03T07:13:22Z</time>
      </trkpt>
      <trkpt lat="48.31349" lon="3.14264">
        <ele>75</ele>
        <time>2013-08-03T07:13:25Z</time>
      </trkpt>
      <trkpt lat="48.31347" lon="3.1427">
        <ele>75</ele>
        <time>2013-08-03T07:13:29Z</time>
      </trkpt>
      <trkpt lat="48.31346" lon="3.14278">
        <ele>75</ele>
        <time>2013-08-03T07:13:36Z</time>
      </trkpt>
      <trkpt lat="48.31344" lon="3.14285">
        <ele>75</ele>
        <time>2013-08-03T07:13:40Z</time>
      </trkpt>
      <trkpt lat="48.3134" lon="3.1429">
        <ele>75</ele>
        <time>2013-08-03T07:13:47Z</time>
      </trkpt>
      <trkpt lat="48.31337" lon="3.14297">
        <ele>76</ele>
        <time>2013-08-03T07:13:52Z</time>
      </trkpt>
      <trkpt lat="48.31335" lon="3.14303">
        <ele>76</ele>
        <time>2013-08-03T07:13:56Z</time>
      </trkpt>
      <trkpt lat="48.31332" lon="3.1431">
        <ele>79</ele>
        <time>2013-08-03T07:14:00Z</time>
      </trkpt>
      <trkpt lat="48.3133" lon="3.14317">
        <ele>79</ele>
        <time>2013-08-03T07:14:05Z</time>
      </trkpt>
      <trkpt lat="48.31329" lon="3.14324">
        <ele>79</ele>
        <time>2013-08-03T07:14:09Z</time>
      </trkpt>
      <trkpt lat="48.31327" lon="3.14334">
        <ele>80</ele>
        <time>2013-08-03T07:14:31Z</time>
      </trkpt>
      <trkpt lat="48.31324" lon="3.14341">
        <ele>81</ele>
        <time>2013-08-03T07:14:35Z</time>
      </trkpt>
      <trkpt lat="48.31322" lon="3.14348">
        <ele>82</ele>
        <time>2013-08-03T07:14:38Z</time>
      </trkpt>
      <trkpt lat="48.3132" lon="3.14354">
        <ele>83</ele>
        <time>2013-08-03T07:14:41Z</time>
      </trkpt>
      <trkpt lat="48.31318" lon="3.1436">
        <ele>83</ele>
        <time>2013-08-03T07:14:44Z</time>
      </trkpt>
      <trkpt lat="48.31314" lon="3.14367">
        <ele>84</ele>
        <time>2013-08-03T07:14:48Z</time>
      </trkpt>
      <trkpt lat="48.31312" lon="3.14373">
        <ele>84</ele>
        <time>2013-08-03T07:14:51Z</time>
      </trkpt>
      <trkpt lat="48.3131" lon="3.1438">
        <ele>85</ele>
        <time>2013-08-03T07:14:55Z</time>
      </trkpt>
      <trkpt lat="48.31308" lon="3.14387">
        <ele>85</ele>
        <time>2013-08-03T07:14:58Z</time>
      </trkpt>
      <trkpt lat="48.31306" lon="3.14394">
        <ele>85</ele>
        <time>2013-08-03T07:15:02Z</time>
      </trkpt>
      <trkpt lat="48.31305" lon="3.14398">
        <ele>85</ele>
        <time>2013-08-03T07:15:09Z</time>
      </trkpt>
      <trkpt lat="48.31305" lon="3.14406">
        <ele>86</ele>
        <time>2013-08-03T07:15:21Z</time>
      </trkpt>
      <trkpt lat="48.31306" lon="3.14413">
        <ele>86</ele>
        <time>2013-08-03T07:15:24Z</time>
      </trkpt>
      <trkpt lat="48.31304" lon="3.14421">
        <ele>88</ele>
        <time>2013-08-03T07:15:28Z</time>
      </trkpt>
      <trkpt lat="48.31301" lon="3.14426">
        <ele>88</ele>
        <time>2013-08-03T07:15:31Z</time>
      </trkpt>
      <trkpt lat="48.31298" lon="3.1443">
        <ele>89</ele>
        <time>2013-08-03T07:15:33Z</time>
      </trkpt>
      <trkpt lat="48.31294" lon="3.14436">
        <ele>89</ele>
        <time>2013-08-03T07:15:36Z</time>
      </trkpt>
      <trkpt lat="48.31291" lon="3.14442">
        <ele>89</ele>
        <time>2013-08-03T07:15:39Z</time>
      </trkpt>
      <trkpt lat="48.31286" lon="3.14447">
        <ele>89</ele>
        <time>2013-08-03T07:15:42Z</time>
      </trkpt>
      <trkpt lat="48.31283" lon="3.14451">
        <ele>89</ele>
        <time>2013-08-03T07:15:47Z</time>
      </trkpt>
      <trkpt lat="48.31282" lon="3.14459">
        <ele>90</ele>
        <time>2013-08-03T07:15:53Z</time>
      </trkpt>
      <trkpt lat="48.31281" lon="3.14466">
        <ele>90</ele>
        <time>2013-08-03T07:15:57Z</time>
      </trkpt>
      <trkpt lat="48.31281" lon="3.14473">
        <ele>90</ele>
        <time>2013-08-03T07:16:06Z</time>
      </trkpt>
      <trkpt lat="48.31283" lon="3.14477">
        <ele>90</ele>
        <time>2013-08-03T07:16:39Z</time>
      </trkpt>
      <trkpt lat="48.31284" lon="3.14484">
        <ele>90</ele>
        <time>2013-08-03T07:16:42Z</time>
      </trkpt>
      <trkpt lat="48.31285" lon="3.14491">
        <ele>90</ele>
        <time>2013-08-03T07:16:46Z</time>
      </trkpt>
      <trkpt lat="48.31286" lon="3.14498">
        <ele>90</ele>
        <time>2013-08-03T07:16:49Z</time>
      </trkpt>
      <trkpt lat="48.31285" lon="3.14506">
        <ele>90</ele>
        <time>2013-08-03T07:16:56Z</time>
      </trkpt>
      <trkpt lat="48.31285" lon="3.14514">
        <ele>89</ele>
        <time>2013-08-03T07:17:00Z</time>
      </trkpt>
      <trkpt lat="48.31283" lon="3.14521">
        <ele>89</ele>
        <time>2013-08-03T07:17:03Z</time>
      </trkpt>
      <trkpt lat="48.31283" lon="3.14528">
        <ele>89</ele>
        <time>2013-08-03T07:17:06Z</time>
      </trkpt>
      <trkpt lat="48.31282" lon="3.14536">
        <ele>89</ele>
        <time>2013-08-03T07:17:10Z</time>
      </trkpt>
      <trkpt lat="48.3128" lon="3.14543">
        <ele>89</ele>
        <time>2013-08-03T07:17:15Z</time>
      </trkpt>
      <trkpt lat="48.31279" lon="3.14549">
        <ele>89</ele>
        <time>2013-08-03T07:17:21Z</time>
      </trkpt>
      <trkpt lat="48.31276" lon="3.14555">
        <ele>89</ele>
        <time>2013-08-03T07:17:25Z</time>
      </trkpt>
      <trkpt lat="48.31272" lon="3.14559">
        <ele>89</ele>
        <time>2013-08-03T07:17:29Z</time>
      </trkpt>
      <trkpt lat="48.31246" lon="3.14596">
        <ele>89</ele>
        <time>2013-08-03T07:18:03Z</time>
      </trkpt>
      <trkpt lat="48.31243" lon="3.14602">
        <ele>89</ele>
        <time>2013-08-03T07:18:08Z</time>
      </trkpt>
      <trkpt lat="48.31241" lon="3.14607">
        <ele>88</ele>
        <time>2013-08-03T07:18:12Z</time>
      </trkpt>
      <trkpt lat="48.31239" lon="3.14614">
        <ele>88</ele>
        <time>2013-08-03T07:18:17Z</time>
      </trkpt>
      <trkpt lat="48.31237" lon="3.14621">
        <ele>88</ele>
        <time>2013-08-03T07:18:25Z</time>
      </trkpt>
      <trkpt lat="48.31237" lon="3.14629">
        <ele>87</ele>
        <time>2013-08-03T07:18:29Z</time>
      </trkpt>
      <trkpt lat="48.31236" lon="3.14636">
        <ele>87</ele>
        <time>2013-08-03T07:18:33Z</time>
      </trkpt>
      <trkpt lat="48.31234" lon="3.14643">
        <ele>87</ele>
        <time>2013-08-03T07:18:38Z</time>
      </trkpt>
      <trkpt lat="48.31232" lon="3.14651">
        <ele>86</ele>
        <time>2013-08-03T07:18:43Z</time>
      </trkpt>
      <trkpt lat="48.31229" lon="3.14658">
        <ele>86</ele>
        <time>2013-08-03T07:18:48Z</time>
      </trkpt>
      <trkpt lat="48.31226" lon="3.14665">
        <ele>86</ele>
        <time>2013-08-03T07:18:52Z</time>
      </trkpt>
      <trkpt lat="48.31223" lon="3.14671">
        <ele>83</ele>
        <time>2013-08-03T07:18:56Z</time>
      </trkpt>
      <trkpt lat="48.31222" lon="3.14678">
        <ele>83</ele>
        <time>2013-08-03T07:19:02Z</time>
      </trkpt>
      <trkpt lat="48.31219" lon="3.14684">
        <ele>83</ele>
        <time>2013-08-03T07:19:06Z</time>
      </trkpt>
      <trkpt lat="48.31217" lon="3.1469">
        <ele>83</ele>
        <time>2013-08-03T07:19:10Z</time>
      </trkpt>
      <trkpt lat="48.31216" lon="3.14698">
        <ele>83</ele>
        <time>2013-08-03T07:19:15Z</time>
      </trkpt>
      <trkpt lat="48.31211" lon="3.14707">
        <ele>82</ele>
        <time>2013-08-03T07:19:23Z</time>
      </trkpt>
      <trkpt lat="48.31207" lon="3.14717">
        <ele>82</ele>
        <time>2013-08-03T07:19:32Z</time>
      </trkpt>
      <trkpt lat="48.31207" lon="3.14725">
        <ele>82</ele>
        <time>2013-08-03T07:19:46Z</time>
      </trkpt>
      <trkpt lat="48.31208" lon="3.14732">
        <ele>82</ele>
        <time>2013-08-03T07:19:49Z</time>
      </trkpt>
      <trkpt lat="48.31206" lon="3.14741">
        <ele>82</ele>
        <time>2013-08-03T07:19:53Z</time>
      </trkpt>
      <trkpt lat="48.31203" lon="3.14748">
        <ele>82</ele>
        <time>2013-08-03T07:19:56Z</time>
      </trkpt>
      <trkpt lat="48.312" lon="3.14755">
        <ele>80</ele>
        <time>2013-08-03T07:19:59Z</time>
      </trkpt>
      <trkpt lat="48.31197" lon="3.14761">
        <ele>80</ele>
        <time>2013-08-03T07:20:02Z</time>
      </trkpt>
      <trkpt lat="48.31193" lon="3.14768">
        <ele>80</ele>
        <time>2013-08-03T07:20:06Z</time>
      </trkpt>
      <trkpt lat="48.31189" lon="3.14773">
        <ele>80</ele>
        <time>2013-08-03T07:20:09Z</time>
      </trkpt>
      <trkpt lat="48.31184" lon="3.14777">
        <ele>80</ele>
        <time>2013-08-03T07:20:13Z</time>
      </trkpt>
      <trkpt lat="48.3118" lon="3.14782">
        <ele>80</ele>
        <time>2013-08-03T07:20:18Z</time>
      </trkpt>
      <trkpt lat="48.31177" lon="3.14788">
        <ele>80</ele>
        <time>2013-08-03T07:20:23Z</time>
      </trkpt>
      <trkpt lat="48.31174" lon="3.14793">
        <ele>80</ele>
        <time>2013-08-03T07:20:29Z</time>
      </trkpt>
      <trkpt lat="48.3117" lon="3.14798">
        <ele>80</ele>
        <time>2013-08-03T07:20:34Z</time>
      </trkpt>
      <trkpt lat="48.31167" lon="3.14805">
        <ele>80</ele>
        <time>2013-08-03T07:20:38Z</time>
      </trkpt>
      <trkpt lat="48.31163" lon="3.1481">
        <ele>81</ele>
        <time>2013-08-03T07:20:43Z</time>
      </trkpt>
      <trkpt lat="48.31159" lon="3.14815">
        <ele>81</ele>
        <time>2013-08-03T07:20:47Z</time>
      </trkpt>
      <trkpt lat="48.31156" lon="3.14821">
        <ele>81</ele>
        <time>2013-08-03T07:20:50Z</time>
      </trkpt>
      <trkpt lat="48.31154" lon="3.14824">
        <ele>81</ele>
        <time>2013-08-03T07:20:57Z</time>
      </trkpt>
      <trkpt lat="48.31153" lon="3.14831">
        <ele>81</ele>
        <time>2013-08-03T07:21:07Z</time>
      </trkpt>
      <trkpt lat="48.31149" lon="3.14835">
        <ele>80</ele>
        <time>2013-08-03T07:21:10Z</time>
      </trkpt>
      <trkpt lat="48.31147" lon="3.14841">
        <ele>80</ele>
        <time>2013-08-03T07:21:12Z</time>
      </trkpt>
      <trkpt lat="48.31145" lon="3.14848">
        <ele>80</ele>
        <time>2013-08-03T07:21:15Z</time>
      </trkpt>
      <trkpt lat="48.31142" lon="3.14856">
        <ele>80</ele>
        <time>2013-08-03T07:21:18Z</time>
      </trkpt>
      <trkpt lat="48.31141" lon="3.14863">
        <ele>79</ele>
        <time>2013-08-03T07:21:21Z</time>
      </trkpt>
      <trkpt lat="48.31139" lon="3.14872">
        <ele>79</ele>
        <time>2013-08-03T07:21:33Z</time>
      </trkpt>
      <trkpt lat="48.31137" lon="3.14886">
        <ele>79</ele>
        <time>2013-08-03T07:21:40Z</time>
      </trkpt>
      <trkpt lat="48.31134" lon="3.14892">
        <ele>79</ele>
        <time>2013-08-03T07:21:47Z</time>
      </trkpt>
      <trkpt lat="48.31131" lon="3.14899">
        <ele>79</ele>
        <time>2013-08-03T07:21:51Z</time>
      </trkpt>
      <trkpt lat="48.31127" lon="3.14905">
        <ele>79</ele>
        <time>2013-08-03T07:21:54Z</time>
      </trkpt>
      <trkpt lat="48.31123" lon="3.14912">
        <ele>79</ele>
        <time>2013-08-03T07:21:57Z</time>
      </trkpt>
      <trkpt lat="48.3112" lon="3.14918">
        <ele>76</ele>
        <time>2013-08-03T07:21:59Z</time>
      </trkpt>
      <trkpt lat="48.31118" lon="3.14925">
        <ele>76</ele>
        <time>2013-08-03T07:22:03Z</time>
      </trkpt>
      <trkpt lat="48.31116" lon="3.1493">
        <ele>76</ele>
        <time>2013-08-03T07:22:13Z</time>
      </trkpt>
      <trkpt lat="48.31112" lon="3.14937">
        <ele>76</ele>
        <time>2013-08-03T07:22:23Z</time>
      </trkpt>
      <trkpt lat="48.31111" lon="3.14944">
        <ele>76</ele>
        <time>2013-08-03T07:22:26Z</time>
      </trkpt>
      <trkpt lat="48.31108" lon="3.14951">
        <ele>76</ele>
        <time>2013-08-03T07:22:29Z</time>
      </trkpt>
      <trkpt lat="48.31105" lon="3.14956">
        <ele>76</ele>
        <time>2013-08-03T07:22:31Z</time>
      </trkpt>
      <trkpt lat="48.311" lon="3.14963">
        <ele>75</ele>
        <time>2013-08-03T07:22:34Z</time>
      </trkpt>
      <trkpt lat="48.31096" lon="3.14969">
        <ele>75</ele>
        <time>2013-08-03T07:22:37Z</time>
      </trkpt>
      <trkpt lat="48.31094" lon="3.14973">
        <ele>75</ele>
        <time>2013-08-03T07:22:47Z</time>
      </trkpt>
      <trkpt lat="48.31092" lon="3.1498">
        <ele>75</ele>
        <time>2013-08-03T07:22:58Z</time>
      </trkpt>
      <trkpt lat="48.31087" lon="3.14985">
        <ele>75</ele>
        <time>2013-08-03T07:23:01Z</time>
      </trkpt>
      <trkpt lat="48.31081" lon="3.14992">
        <ele>74</ele>
        <time>2013-08-03T07:23:04Z</time>
      </trkpt>
      <trkpt lat="48.31077" lon="3.14999">
        <ele>74</ele>
        <time>2013-08-03T07:23:07Z</time>
      </trkpt>
      <trkpt lat="48.31074" lon="3.15005">
        <ele>73</ele>
        <time>2013-08-03T07:23:10Z</time>
      </trkpt>
      <trkpt lat="48.31071" lon="3.15011">
        <ele>72</ele>
        <time>2013-08-03T07:23:13Z</time>
      </trkpt>
      <trkpt lat="48.31068" lon="3.15016">
        <ele>72</ele>
        <time>2013-08-03T07:23:17Z</time>
      </trkpt>
      <trkpt lat="48.31064" lon="3.15021">
        <ele>71</ele>
        <time>2013-08-03T07:23:21Z</time>
      </trkpt>
      <trkpt lat="48.3106" lon="3.15027">
        <ele>71</ele>
        <time>2013-08-03T07:23:25Z</time>
      </trkpt>
      <trkpt lat="48.31057" lon="3.15033">
        <ele>71</ele>
        <time>2013-08-03T07:23:29Z</time>
      </trkpt>
      <trkpt lat="48.31053" lon="3.15038">
        <ele>70</ele>
        <time>2013-08-03T07:23:33Z</time>
      </trkpt>
      <trkpt lat="48.3105" lon="3.15043">
        <ele>70</ele>
        <time>2013-08-03T07:23:36Z</time>
      </trkpt>
      <trkpt lat="48.31046" lon="3.15048">
        <ele>70</ele>
        <time>2013-08-03T07:23:41Z</time>
      </trkpt>
      <trkpt lat="48.31041" lon="3.1505">
        <ele>70</ele>
        <time>2013-08-03T07:23:45Z</time>
      </trkpt>
      <trkpt lat="48.31037" lon="3.15052">
        <ele>70</ele>
        <time>2013-08-03T07:23:49Z</time>
      </trkpt>
      <trkpt lat="48.31032" lon="3.15055">
        <ele>70</ele>
        <time>2013-08-03T07:23:54Z</time>
      </trkpt>
      <trkpt lat="48.31028" lon="3.15057">
        <ele>70</ele>
        <time>2013-08-03T07:23:59Z</time>
      </trkpt>
      <trkpt lat="48.31023" lon="3.1506">
        <ele>70</ele>
        <time>2013-08-03T07:24:04Z</time>
      </trkpt>
      <trkpt lat="48.31018" lon="3.15064">
        <ele>69</ele>
        <time>2013-08-03T07:24:09Z</time>
      </trkpt>
      <trkpt lat="48.31015" lon="3.1507">
        <ele>69</ele>
        <time>2013-08-03T07:24:14Z</time>
      </trkpt>
      <trkpt lat="48.31011" lon="3.15075">
        <ele>69</ele>
        <time>2013-08-03T07:24:20Z</time>
      </trkpt>
      <trkpt lat="48.31007" lon="3.15078">
        <ele>69</ele>
        <time>2013-08-03T07:24:25Z</time>
      </trkpt>
      <trkpt lat="48.31004" lon="3.15083">
        <ele>68</ele>
        <time>2013-08-03T07:24:28Z</time>
      </trkpt>
      <trkpt lat="48.30999" lon="3.15087">
        <ele>68</ele>
        <time>2013-08-03T07:24:31Z</time>
      </trkpt>
      <trkpt lat="48.30995" lon="3.1509">
        <ele>68</ele>
        <time>2013-08-03T07:24:34Z</time>
      </trkpt>
      <trkpt lat="48.30991" lon="3.15095">
        <ele>69</ele>
        <time>2013-08-03T07:24:38Z</time>
      </trkpt>
      <trkpt lat="48.30987" lon="3.151">
        <ele>69</ele>
        <time>2013-08-03T07:24:46Z</time>
      </trkpt>
      <trkpt lat="48.30982" lon="3.15105">
        <ele>69</ele>
        <time>2013-08-03T07:24:50Z</time>
      </trkpt>
      <trkpt lat="48.30977" lon="3.15109">
        <ele>69</ele>
        <time>2013-08-03T07:24:53Z</time>
      </trkpt>
      <trkpt lat="48.30973" lon="3.15113">
        <ele>69</ele>
        <time>2013-08-03T07:24:57Z</time>
      </trkpt>
      <trkpt lat="48.30969" lon="3.15119">
        <ele>69</ele>
        <time>2013-08-03T07:25:02Z</time>
      </trkpt>
      <trkpt lat="48.30965" lon="3.15126">
        <ele>69</ele>
        <time>2013-08-03T07:25:06Z</time>
      </trkpt>
      <trkpt lat="48.30963" lon="3.15132">
        <ele>69</ele>
        <time>2013-08-03T07:25:09Z</time>
      </trkpt>
      <trkpt lat="48.30961" lon="3.15139">
        <ele>70</ele>
        <time>2013-08-03T07:25:13Z</time>
      </trkpt>
      <trkpt lat="48.3096" lon="3.15146">
        <ele>70</ele>
        <time>2013-08-03T07:25:17Z</time>
      </trkpt>
      <trkpt lat="48.30961" lon="3.15153">
        <ele>70</ele>
        <time>2013-08-03T07:25:21Z</time>
      </trkpt>
      <trkpt lat="48.3096" lon="3.15161">
        <ele>70</ele>
        <time>2013-08-03T07:25:26Z</time>
      </trkpt>
      <trkpt lat="48.30959" lon="3.15167">
        <ele>71</ele>
        <time>2013-08-03T07:25:29Z</time>
      </trkpt>
      <trkpt lat="48.30959" lon="3.15175">
        <ele>71</ele>
        <time>2013-08-03T07:25:33Z</time>
      </trkpt>
      <trkpt lat="48.30962" lon="3.15181">
        <ele>71</ele>
        <time>2013-08-03T07:25:37Z</time>
      </trkpt>
      <trkpt lat="48.30965" lon="3.15187">
        <ele>72</ele>
        <time>2013-08-03T07:25:43Z</time>
      </trkpt>
      <trkpt lat="48.30968" lon="3.15193">
        <ele>72</ele>
        <time>2013-08-03T07:25:47Z</time>
      </trkpt>
      <trkpt lat="48.3097" lon="3.15199">
        <ele>72</ele>
        <time>2013-08-03T07:25:51Z</time>
      </trkpt>
      <trkpt lat="48.30974" lon="3.15205">
        <ele>72</ele>
        <time>2013-08-03T07:25:56Z</time>
      </trkpt>
      <trkpt lat="48.30979" lon="3.15206">
        <ele>72</ele>
        <time>2013-08-03T07:25:59Z</time>
      </trkpt>
      <trkpt lat="48.30984" lon="3.15208">
        <ele>72</ele>
        <time>2013-08-03T07:26:02Z</time>
      </trkpt>
      <trkpt lat="48.30989" lon="3.1521">
        <ele>72</ele>
        <time>2013-08-03T07:26:06Z</time>
      </trkpt>
      <trkpt lat="48.30993" lon="3.15214">
        <ele>72</ele>
        <time>2013-08-03T07:26:12Z</time>
      </trkpt>
      <trkpt lat="48.30997" lon="3.15217">
        <ele>72</ele>
        <time>2013-08-03T07:26:17Z</time>
      </trkpt>
      <trkpt lat="48.31002" lon="3.15217">
        <ele>69</ele>
        <time>2013-08-03T07:26:21Z</time>
      </trkpt>
      <trkpt lat="48.31006" lon="3.15219">
        <ele>69</ele>
        <time>2013-08-03T07:26:26Z</time>
      </trkpt>
      <trkpt lat="48.31011" lon="3.15223">
        <ele>69</ele>
        <time>2013-08-03T07:26:31Z</time>
      </trkpt>
      <trkpt lat="48.31015" lon="3.15228">
        <ele>69</ele>
        <time>2013-08-03T07:26:36Z</time>
      </trkpt>
      <trkpt lat="48.3102" lon="3.15232">
        <ele>69</ele>
        <time>2013-08-03T07:26:40Z</time>
      </trkpt>
      <trkpt lat="48.31023" lon="3.15234">
        <ele>69</ele>
        <time>2013-08-03T07:26:48Z</time>
      </trkpt>
      <trkpt lat="48.31028" lon="3.15235">
        <ele>68</ele>
        <time>2013-08-03T07:26:53Z</time>
      </trkpt>
      <trkpt lat="48.31033" lon="3.15235">
        <ele>68</ele>
        <time>2013-08-03T07:26:58Z</time>
      </trkpt>
      <trkpt lat="48.31039" lon="3.15237">
        <ele>68</ele>
        <time>2013-08-03T07:27:02Z</time>
      </trkpt>
      <trkpt lat="48.31043" lon="3.15241">
        <ele>67</ele>
        <time>2013-08-03T07:27:05Z</time>
      </trkpt>
      <trkpt lat="48.31048" lon="3.15243">
        <ele>67</ele>
        <time>2013-08-03T07:27:09Z</time>
      </trkpt>
      <trkpt lat="48.31053" lon="3.15244">
        <ele>67</ele>
        <time>2013-08-03T07:27:12Z</time>
      </trkpt>
      <trkpt lat="48.31058" lon="3.15245">
        <ele>66</ele>
        <time>2013-08-03T07:27:17Z</time>
      </trkpt>
      <trkpt lat="48.31063" lon="3.15244">
        <ele>66</ele>
        <time>2013-08-03T07:27:22Z</time>
      </trkpt>
      <trkpt lat="48.31068" lon="3.15246">
        <ele>66</ele>
        <time>2013-08-03T07:27:27Z</time>
      </trkpt>
      <trkpt lat="48.31072" lon="3.15251">
        <ele>65</ele>
        <time>2013-08-03T07:27:31Z</time>
      </trkpt>
      <trkpt lat="48.31077" lon="3.15254">
        <ele>65</ele>
        <time>2013-08-03T07:27:35Z</time>
      </trkpt>
      <trkpt lat="48.31081" lon="3.15256">
        <ele>65</ele>
        <time>2013-08-03T07:27:39Z</time>
      </trkpt>
      <trkpt lat="48.31086" lon="3.15259">
        <ele>64</ele>
        <time>2013-08-03T07:27:45Z</time>
      </trkpt>
      <trkpt lat="48.31091" lon="3.15261">
        <ele>63</ele>
        <time>2013-08-03T07:27:51Z</time>
      </trkpt>
      <trkpt lat="48.31095" lon="3.15264">
        <ele>63</ele>
        <time>2013-08-03T07:27:56Z</time>
      </trkpt>
      <trkpt lat="48.311" lon="3.15267">
        <ele>63</ele>
        <time>2013-08-03T07:27:59Z</time>
      </trkpt>
      <trkpt lat="48.31104" lon="3.15271">
        <ele>63</ele>
        <time>2013-08-03T07:28:02Z</time>
      </trkpt>
      <trkpt lat="48.31109" lon="3.15274">
        <ele>63</ele>
        <time>2013-08-03T07:28:06Z</time>
      </trkpt>
      <trkpt lat="48.31113" lon="3.15279">
        <ele>63</ele>
        <time>2013-08-03T07:28:12Z</time>
      </trkpt>
      <trkpt lat="48.31116" lon="3.15285">
        <ele>63</ele>
        <time>2013-08-03T07:28:17Z</time>
      </trkpt>
      <trkpt lat="48.3112" lon="3.1529">
        <ele>63</ele>
        <time>2013-08-03T07:28:22Z</time>
      </trkpt>
      <trkpt lat="48.31124" lon="3.15294">
        <ele>63</ele>
        <time>2013-08-03T07:28:26Z</time>
      </trkpt>
      <trkpt lat="48.31128" lon="3.15299">
        <ele>63</ele>
        <time>2013-08-03T07:28:31Z</time>
      </trkpt>
      <trkpt lat="48.31132" lon="3.15302">
        <ele>63</ele>
        <time>2013-08-03T07:28:35Z</time>
      </trkpt>
      <trkpt lat="48.31135" lon="3.15306">
        <ele>63</ele>
        <time>2013-08-03T07:28:38Z</time>
      </trkpt>
      <trkpt lat="48.3114" lon="3.15312">
        <ele>63</ele>
        <time>2013-08-03T07:28:42Z</time>
      </trkpt>
      <trkpt lat="48.31143" lon="3.15317">
        <ele>63</ele>
        <time>2013-08-03T07:28:46Z</time>
      </trkpt>
      <trkpt lat="48.31147" lon="3.15322">
        <ele>62</ele>
        <time>2013-08-03T07:28:50Z</time>
      </trkpt>
      <trkpt lat="48.3115" lon="3.15326">
        <ele>62</ele>
        <time>2013-08-03T07:28:54Z</time>
      </trkpt>
      <trkpt lat="48.31154" lon="3.1533">
        <ele>62</ele>
        <time>2013-08-03T07:28:59Z</time>
      </trkpt>
      <trkpt lat="48.31158" lon="3.15335">
        <ele>62</ele>
        <time>2013-08-03T07:29:04Z</time>
      </trkpt>
      <trkpt lat="48.31162" lon="3.15339">
        <ele>62</ele>
        <time>2013-08-03T07:29:10Z</time>
      </trkpt>
      <trkpt lat="48.31167" lon="3.15344">
        <ele>62</ele>
        <time>2013-08-03T07:29:14Z</time>
      </trkpt>
      <trkpt lat="48.31172" lon="3.15348">
        <ele>62</ele>
        <time>2013-08-03T07:29:19Z</time>
      </trkpt>
      <trkpt lat="48.31176" lon="3.15351">
        <ele>61</ele>
        <time>2013-08-03T07:29:23Z</time>
      </trkpt>
      <trkpt lat="48.31179" lon="3.15355">
        <ele>61</ele>
        <time>2013-08-03T07:29:27Z</time>
      </trkpt>
      <trkpt lat="48.31183" lon="3.15359">
        <ele>61</ele>
        <time>2013-08-03T07:29:31Z</time>
      </trkpt>
      <trkpt lat="48.31188" lon="3.15364">
        <ele>61</ele>
        <time>2013-08-03T07:29:36Z</time>
      </trkpt>
      <trkpt lat="48.31192" lon="3.15369">
        <ele>61</ele>
        <time>2013-08-03T07:29:41Z</time>
      </trkpt>
      <trkpt lat="48.31193" lon="3.15376">
        <ele>61</ele>
        <time>2013-08-03T07:29:46Z</time>
      </trkpt>
      <trkpt lat="48.31192" lon="3.15383">
        <ele>61</ele>
        <time>2013-08-03T07:29:51Z</time>
      </trkpt>
      <trkpt lat="48.31189" lon="3.15389">
        <ele>61</ele>
        <time>2013-08-03T07:29:55Z</time>
      </trkpt>
      <trkpt lat="48.31187" lon="3.15395">
        <ele>61</ele>
        <time>2013-08-03T07:29:59Z</time>
      </trkpt>
      <trkpt lat="48.31185" lon="3.15402">
        <ele>61</ele>
        <time>2013-08-03T07:30:04Z</time>
      </trkpt>
      <trkpt lat="48.31187" lon="3.15408">
        <ele>61</ele>
        <time>2013-08-03T07:30:08Z</time>
      </trkpt>
      <trkpt lat="48.31183" lon="3.15411">
        <ele>61</ele>
        <time>2013-08-03T07:30:15Z</time>
      </trkpt>
      <trkpt lat="48.31177" lon="3.15412">
        <ele>60</ele>
        <time>2013-08-03T07:30:19Z</time>
      </trkpt>
      <trkpt lat="48.31173" lon="3.15414">
        <ele>60</ele>
        <time>2013-08-03T07:30:23Z</time>
      </trkpt>
      <trkpt lat="48.31168" lon="3.15418">
        <ele>60</ele>
        <time>2013-08-03T07:30:27Z</time>
      </trkpt>
      <trkpt lat="48.31164" lon="3.15423">
        <ele>60</ele>
        <time>2013-08-03T07:30:32Z</time>
      </trkpt>
      <trkpt lat="48.3116" lon="3.15428">
        <ele>60</ele>
        <time>2013-08-03T07:30:38Z</time>
      </trkpt>
      <trkpt lat="48.31156" lon="3.1543">
        <ele>60</ele>
        <time>2013-08-03T07:30:42Z</time>
      </trkpt>
      <trkpt lat="48.31151" lon="3.15433">
        <ele>60</ele>
        <time>2013-08-03T07:30:47Z</time>
      </trkpt>
      <trkpt lat="48.31146" lon="3.15437">
        <ele>60</ele>
        <time>2013-08-03T07:30:51Z</time>
      </trkpt>
      <trkpt lat="48.31146" lon="3.15444">
        <ele>60</ele>
        <time>2013-08-03T07:30:55Z</time>
      </trkpt>
      <trkpt lat="48.31143" lon="3.1545">
        <ele>60</ele>
        <time>2013-08-03T07:31:02Z</time>
      </trkpt>
      <trkpt lat="48.31137" lon="3.15451">
        <ele>60</ele>
        <time>2013-08-03T07:31:05Z</time>
      </trkpt>
      <trkpt lat="48.31131" lon="3.15451">
        <ele>60</ele>
        <time>2013-08-03T07:31:08Z</time>
      </trkpt>
      <trkpt lat="48.31126" lon="3.15453">
        <ele>60</ele>
        <time>2013-08-03T07:31:12Z</time>
      </trkpt>
      <trkpt lat="48.31121" lon="3.15452">
        <ele>60</ele>
        <time>2013-08-03T07:31:16Z</time>
      </trkpt>
      <trkpt lat="48.31116" lon="3.15451">
        <ele>60</ele>
        <time>2013-08-03T07:31:20Z</time>
      </trkpt>
      <trkpt lat="48.31111" lon="3.15451">
        <ele>59</ele>
        <time>2013-08-03T07:31:24Z</time>
      </trkpt>
      <trkpt lat="48.31105" lon="3.15451">
        <ele>59</ele>
        <time>2013-08-03T07:31:29Z</time>
      </trkpt>
      <trkpt lat="48.311" lon="3.1545">
        <ele>59</ele>
        <time>2013-08-03T07:31:33Z</time>
      </trkpt>
      <trkpt lat="48.31095" lon="3.15449">
        <ele>59</ele>
        <time>2013-08-03T07:31:38Z</time>
      </trkpt>
      <trkpt lat="48.3109" lon="3.1545">
        <ele>59</ele>
        <time>2013-08-03T07:31:43Z</time>
      </trkpt>
      <trkpt lat="48.31085" lon="3.1545">
        <ele>59</ele>
        <time>2013-08-03T07:31:50Z</time>
      </trkpt>
      <trkpt lat="48.31081" lon="3.15451">
        <ele>61</ele>
        <time>2013-08-03T07:32:05Z</time>
      </trkpt>
      <trkpt lat="48.31077" lon="3.15454">
        <ele>61</ele>
        <time>2013-08-03T07:32:59Z</time>
      </trkpt>
      <trkpt lat="48.31074" lon="3.1546">
        <ele>60</ele>
        <time>2013-08-03T07:33:04Z</time>
      </trkpt>
      <trkpt lat="48.31072" lon="3.15468">
        <ele>60</ele>
        <time>2013-08-03T07:33:13Z</time>
      </trkpt>
      <trkpt lat="48.31069" lon="3.15473">
        <ele>60</ele>
        <time>2013-08-03T07:33:17Z</time>
      </trkpt>
      <trkpt lat="48.31065" lon="3.1548">
        <ele>60</ele>
        <time>2013-08-03T07:33:21Z</time>
      </trkpt>
      <trkpt lat="48.31062" lon="3.15486">
        <ele>60</ele>
        <time>2013-08-03T07:33:25Z</time>
      </trkpt>
      <trkpt lat="48.31061" lon="3.15494">
        <ele>60</ele>
        <time>2013-08-03T07:33:28Z</time>
      </trkpt>
      <trkpt lat="48.31058" lon="3.15501">
        <ele>59</ele>
        <time>2013-08-03T07:33:42Z</time>
      </trkpt>
      <trkpt lat="48.31053" lon="3.15506">
        <ele>59</ele>
        <time>2013-08-03T07:33:46Z</time>
      </trkpt>
      <trkpt lat="48.31049" lon="3.15516">
        <ele>59</ele>
        <time>2013-08-03T07:33:54Z</time>
      </trkpt>
      <trkpt lat="48.31046" lon="3.15523">
        <ele>59</ele>
        <time>2013-08-03T07:33:58Z</time>
      </trkpt>
      <trkpt lat="48.31043" lon="3.15529">
        <ele>59</ele>
        <time>2013-08-03T07:34:00Z</time>
      </trkpt>
      <trkpt lat="48.31039" lon="3.15535">
        <ele>59</ele>
        <time>2013-08-03T07:34:03Z</time>
      </trkpt>
      <trkpt lat="48.31036" lon="3.15541">
        <ele>59</ele>
        <time>2013-08-03T07:34:06Z</time>
      </trkpt>
      <trkpt lat="48.31034" lon="3.15548">
        <ele>58</ele>
        <time>2013-08-03T07:34:09Z</time>
      </trkpt>
      <trkpt lat="48.31033" lon="3.15555">
        <ele>58</ele>
        <time>2013-08-03T07:34:12Z</time>
      </trkpt>
      <trkpt lat="48.31031" lon="3.15561">
        <ele>58</ele>
        <time>2013-08-03T07:34:16Z</time>
      </trkpt>
      <trkpt lat="48.31029" lon="3.15565">
        <ele>58</ele>
        <time>2013-08-03T07:34:22Z</time>
      </trkpt>
      <trkpt lat="48.31027" lon="3.1557">
        <ele>58</ele>
        <time>2013-08-03T07:34:33Z</time>
      </trkpt>
      <trkpt lat="48.31024" lon="3.15576">
        <ele>58</ele>
        <time>2013-08-03T07:34:37Z</time>
      </trkpt>
      <trkpt lat="48.31022" lon="3.15583">
        <ele>58</ele>
        <time>2013-08-03T07:34:43Z</time>
      </trkpt>
      <trkpt lat="48.31019" lon="3.15588">
        <ele>57</ele>
        <time>2013-08-03T07:34:50Z</time>
      </trkpt>
      <trkpt lat="48.31015" lon="3.15595">
        <ele>57</ele>
        <time>2013-08-03T07:34:54Z</time>
      </trkpt>
      <trkpt lat="48.31013" lon="3.15602">
        <ele>57</ele>
        <time>2013-08-03T07:34:58Z</time>
      </trkpt>
      <trkpt lat="48.31009" lon="3.15606">
        <ele>57</ele>
        <time>2013-08-03T07:35:02Z</time>
      </trkpt>
      <trkpt lat="48.31007" lon="3.15613">
        <ele>57</ele>
        <time>2013-08-03T07:35:08Z</time>
      </trkpt>
      <trkpt lat="48.31003" lon="3.15618">
        <ele>57</ele>
        <time>2013-08-03T07:35:12Z</time>
      </trkpt>
      <trkpt lat="48.31" lon="3.15622">
        <ele>59</ele>
        <time>2013-08-03T07:35:15Z</time>
      </trkpt>
      <trkpt lat="48.30997" lon="3.15628">
        <ele>59</ele>
        <time>2013-08-03T07:35:19Z</time>
      </trkpt>
      <trkpt lat="48.30994" lon="3.15634">
        <ele>59</ele>
        <time>2013-08-03T07:35:23Z</time>
      </trkpt>
      <trkpt lat="48.30992" lon="3.1564">
        <ele>59</ele>
        <time>2013-08-03T07:35:31Z</time>
      </trkpt>
      <trkpt lat="48.30988" lon="3.15644">
        <ele>59</ele>
        <time>2013-08-03T07:35:35Z</time>
      </trkpt>
      <trkpt lat="48.30985" lon="3.15649">
        <ele>59</ele>
        <time>2013-08-03T07:35:38Z</time>
      </trkpt>
      <trkpt lat="48.30982" lon="3.15655">
        <ele>59</ele>
        <time>2013-08-03T07:35:41Z</time>
      </trkpt>
      <trkpt lat="48.3098" lon="3.15662">
        <ele>59</ele>
        <time>2013-08-03T07:35:46Z</time>
      </trkpt>
      <trkpt lat="48.30977" lon="3.15668">
        <ele>58</ele>
        <time>2013-08-03T07:35:51Z</time>
      </trkpt>
      <trkpt lat="48.30974" lon="3.15674">
        <ele>58</ele>
        <time>2013-08-03T07:35:55Z</time>
      </trkpt>
      <trkpt lat="48.3097" lon="3.15679">
        <ele>58</ele>
        <time>2013-08-03T07:35:59Z</time>
      </trkpt>
      <trkpt lat="48.30966" lon="3.15683">
        <ele>58</ele>
        <time>2013-08-03T07:36:03Z</time>
      </trkpt>
      <trkpt lat="48.30963" lon="3.1569">
        <ele>58</ele>
        <time>2013-08-03T07:36:07Z</time>
      </trkpt>
      <trkpt lat="48.3096" lon="3.15697">
        <ele>58</ele>
        <time>2013-08-03T07:36:11Z</time>
      </trkpt>
      <trkpt lat="48.30958" lon="3.15703">
        <ele>58</ele>
        <time>2013-08-03T07:36:15Z</time>
      </trkpt>
      <trkpt lat="48.30954" lon="3.15709">
        <ele>58</ele>
        <time>2013-08-03T07:36:19Z</time>
      </trkpt>
      <trkpt lat="48.30951" lon="3.15715">
        <ele>58</ele>
        <time>2013-08-03T07:36:23Z</time>
      </trkpt>
      <trkpt lat="48.30948" lon="3.15719">
        <ele>58</ele>
        <time>2013-08-03T07:36:27Z</time>
      </trkpt>
      <trkpt lat="48.30943" lon="3.15724">
        <ele>58</ele>
        <time>2013-08-03T07:36:32Z</time>
      </trkpt>
      <trkpt lat="48.30941" lon="3.1573">
        <ele>58</ele>
        <time>2013-08-03T07:36:39Z</time>
      </trkpt>
      <trkpt lat="48.30938" lon="3.15735">
        <ele>58</ele>
        <time>2013-08-03T07:36:49Z</time>
      </trkpt>
      <trkpt lat="48.30936" lon="3.15736">
        <ele>58</ele>
        <time>2013-08-03T07:40:34Z</time>
      </trkpt>
      <trkpt lat="48.30929" lon="3.15742">
        <ele>57</ele>
        <time>2013-08-03T07:43:12Z</time>
      </trkpt>
      <trkpt lat="48.30925" lon="3.15747">
        <ele>57</ele>
        <time>2013-08-03T07:43:15Z</time>
      </trkpt>
      <trkpt lat="48.30921" lon="3.1575">
        <ele>57</ele>
        <time>2013-08-03T07:43:18Z</time>
      </trkpt>
      <trkpt lat="48.30916" lon="3.15755">
        <ele>58</ele>
        <time>2013-08-03T07:43:22Z</time>
      </trkpt>
      <trkpt lat="48.30912" lon="3.1576">
        <ele>58</ele>
        <time>2013-08-03T07:43:26Z</time>
      </trkpt>
      <trkpt lat="48.30907" lon="3.15764">
        <ele>58</ele>
        <time>2013-08-03T07:43:30Z</time>
      </trkpt>
      <trkpt lat="48.30903" lon="3.15769">
        <ele>59</ele>
        <time>2013-08-03T07:43:34Z</time>
      </trkpt>
      <trkpt lat="48.309" lon="3.15773">
        <ele>59</ele>
        <time>2013-08-03T07:43:38Z</time>
      </trkpt>
      <trkpt lat="48.30896" lon="3.15777">
        <ele>59</ele>
        <time>2013-08-03T07:43:42Z</time>
      </trkpt>
      <trkpt lat="48.30892" lon="3.15781">
        <ele>59</ele>
        <time>2013-08-03T07:43:46Z</time>
      </trkpt>
      <trkpt lat="48.30887" lon="3.15785">
        <ele>59</ele>
        <time>2013-08-03T07:43:50Z</time>
      </trkpt>
      <trkpt lat="48.30883" lon="3.1579">
        <ele>60</ele>
        <time>2013-08-03T07:43:54Z</time>
      </trkpt>
      <trkpt lat="48.30879" lon="3.15794">
        <ele>60</ele>
        <time>2013-08-03T07:43:58Z</time>
      </trkpt>
      <trkpt lat="48.30875" lon="3.15798">
        <ele>60</ele>
        <time>2013-08-03T07:44:02Z</time>
      </trkpt>
      <trkpt lat="48.3087" lon="3.15802">
        <ele>60</ele>
        <time>2013-08-03T07:44:07Z</time>
      </trkpt>
      <trkpt lat="48.30866" lon="3.15807">
        <ele>60</ele>
        <time>2013-08-03T07:44:12Z</time>
      </trkpt>
      <trkpt lat="48.30862" lon="3.15812">
        <ele>60</ele>
        <time>2013-08-03T07:44:16Z</time>
      </trkpt>
      <trkpt lat="48.30858" lon="3.15816">
        <ele>60</ele>
        <time>2013-08-03T07:44:19Z</time>
      </trkpt>
      <trkpt lat="48.30854" lon="3.15821">
        <ele>60</ele>
        <time>2013-08-03T07:44:22Z</time>
      </trkpt>
      <trkpt lat="48.30851" lon="3.15826">
        <ele>60</ele>
        <time>2013-08-03T07:44:26Z</time>
      </trkpt>
      <trkpt lat="48.30847" lon="3.1583">
        <ele>60</ele>
        <time>2013-08-03T07:44:30Z</time>
      </trkpt>
      <trkpt lat="48.30844" lon="3.15835">
        <ele>60</ele>
        <time>2013-08-03T07:44:36Z</time>
      </trkpt>
      <trkpt lat="48.3084" lon="3.1584">
        <ele>60</ele>
        <time>2013-08-03T07:44:40Z</time>
      </trkpt>
      <trkpt lat="48.30836" lon="3.15845">
        <ele>60</ele>
        <time>2013-08-03T07:44:45Z</time>
      </trkpt>
      <trkpt lat="48.30832" lon="3.1585">
        <ele>62</ele>
        <time>2013-08-03T07:44:49Z</time>
      </trkpt>
      <trkpt lat="48.30828" lon="3.15855">
        <ele>62</ele>
        <time>2013-08-03T07:44:53Z</time>
      </trkpt>
      <trkpt lat="48.30824" lon="3.15859">
        <ele>63</ele>
        <time>2013-08-03T07:44:58Z</time>
      </trkpt>
      <trkpt lat="48.3082" lon="3.15865">
        <ele>63</ele>
        <time>2013-08-03T07:45:03Z</time>
      </trkpt>
      <trkpt lat="48.30816" lon="3.1587">
        <ele>63</ele>
        <time>2013-08-03T07:45:08Z</time>
      </trkpt>
      <trkpt lat="48.30813" lon="3.15875">
        <ele>63</ele>
        <time>2013-08-03T07:45:12Z</time>
      </trkpt>
      <trkpt lat="48.3081" lon="3.15881">
        <ele>63</ele>
        <time>2013-08-03T07:45:16Z</time>
      </trkpt>
      <trkpt lat="48.30808" lon="3.15888">
        <ele>63</ele>
        <time>2013-08-03T07:45:21Z</time>
      </trkpt>
      <trkpt lat="48.30805" lon="3.15893">
        <ele>63</ele>
        <time>2013-08-03T07:45:25Z</time>
      </trkpt>
      <trkpt lat="48.30802" lon="3.15899">
        <ele>63</ele>
        <time>2013-08-03T07:45:29Z</time>
      </trkpt>
      <trkpt lat="48.30799" lon="3.15905">
        <ele>63</ele>
        <time>2013-08-03T07:45:34Z</time>
      </trkpt>
      <trkpt lat="48.30797" lon="3.1591">
        <ele>63</ele>
        <time>2013-08-03T07:45:42Z</time>
      </trkpt>
      <trkpt lat="48.30795" lon="3.15917">
        <ele>62</ele>
        <time>2013-08-03T07:45:47Z</time>
      </trkpt>
      <trkpt lat="48.30791" lon="3.15922">
        <ele>62</ele>
        <time>2013-08-03T07:45:50Z</time>
      </trkpt>
      <trkpt lat="48.30788" lon="3.15928">
        <ele>62</ele>
        <time>2013-08-03T07:45:54Z</time>
      </trkpt>
      <trkpt lat="48.30785" lon="3.15935">
        <ele>62</ele>
        <time>2013-08-03T07:45:58Z</time>
      </trkpt>
      <trkpt lat="48.30784" lon="3.15939">
        <ele>62</ele>
        <time>2013-08-03T07:46:04Z</time>
      </trkpt>
      <trkpt lat="48.30782" lon="3.15944">
        <ele>62</ele>
        <time>2013-08-03T07:46:09Z</time>
      </trkpt>
      <trkpt lat="48.30778" lon="3.15952">
        <ele>62</ele>
        <time>2013-08-03T07:46:13Z</time>
      </trkpt>
      <trkpt lat="48.30776" lon="3.1596">
        <ele>62</ele>
        <time>2013-08-03T07:46:16Z</time>
      </trkpt>
      <trkpt lat="48.30773" lon="3.15967">
        <ele>62</ele>
        <time>2013-08-03T07:46:20Z</time>
      </trkpt>
      <trkpt lat="48.30772" lon="3.15974">
        <ele>62</ele>
        <time>2013-08-03T07:46:24Z</time>
      </trkpt>
      <trkpt lat="48.30769" lon="3.1598">
        <ele>62</ele>
        <time>2013-08-03T07:46:30Z</time>
      </trkpt>
      <trkpt lat="48.30767" lon="3.15988">
        <ele>62</ele>
        <time>2013-08-03T07:46:35Z</time>
      </trkpt>
      <trkpt lat="48.30764" lon="3.15995">
        <ele>62</ele>
        <time>2013-08-03T07:46:39Z</time>
      </trkpt>
      <trkpt lat="48.30761" lon="3.16002">
        <ele>62</ele>
        <time>2013-08-03T07:46:43Z</time>
      </trkpt>
      <trkpt lat="48.30758" lon="3.16007">
        <ele>62</ele>
        <time>2013-08-03T07:46:46Z</time>
      </trkpt>
      <trkpt lat="48.30757" lon="3.16015">
        <ele>61</ele>
        <time>2013-08-03T07:46:51Z</time>
      </trkpt>
      <trkpt lat="48.30756" lon="3.16023">
        <ele>61</ele>
        <time>2013-08-03T07:46:56Z</time>
      </trkpt>
      <trkpt lat="48.30754" lon="3.1603">
        <ele>61</ele>
        <time>2013-08-03T07:47:00Z</time>
      </trkpt>
      <trkpt lat="48.30753" lon="3.16037">
        <ele>61</ele>
        <time>2013-08-03T07:47:03Z</time>
      </trkpt>
      <trkpt lat="48.30751" lon="3.16044">
        <ele>60</ele>
        <time>2013-08-03T07:47:07Z</time>
      </trkpt>
      <trkpt lat="48.30747" lon="3.16049">
        <ele>64</ele>
        <time>2013-08-03T07:47:10Z</time>
      </trkpt>
      <trkpt lat="48.30743" lon="3.16054">
        <ele>64</ele>
        <time>2013-08-03T07:47:13Z</time>
      </trkpt>
      <trkpt lat="48.3074" lon="3.1606">
        <ele>64</ele>
        <time>2013-08-03T07:47:17Z</time>
      </trkpt>
      <trkpt lat="48.30738" lon="3.16067">
        <ele>63</ele>
        <time>2013-08-03T07:47:23Z</time>
      </trkpt>
      <trkpt lat="48.30736" lon="3.16074">
        <ele>63</ele>
        <time>2013-08-03T07:47:27Z</time>
      </trkpt>
      <trkpt lat="48.30733" lon="3.16081">
        <ele>63</ele>
        <time>2013-08-03T07:47:31Z</time>
      </trkpt>
      <trkpt lat="48.30731" lon="3.16088">
        <ele>62</ele>
        <time>2013-08-03T07:47:35Z</time>
      </trkpt>
      <trkpt lat="48.30728" lon="3.16094">
        <ele>62</ele>
        <time>2013-08-03T07:47:39Z</time>
      </trkpt>
      <trkpt lat="48.30726" lon="3.16099">
        <ele>62</ele>
        <time>2013-08-03T07:47:48Z</time>
      </trkpt>
      <trkpt lat="48.30723" lon="3.16105">
        <ele>63</ele>
        <time>2013-08-03T07:47:52Z</time>
      </trkpt>
      <trkpt lat="48.30721" lon="3.16108">
        <ele>63</ele>
        <time>2013-08-03T07:48:00Z</time>
      </trkpt>
      <trkpt lat="48.30717" lon="3.16115">
        <ele>63</ele>
        <time>2013-08-03T07:48:05Z</time>
      </trkpt>
      <trkpt lat="48.30714" lon="3.16121">
        <ele>63</ele>
        <time>2013-08-03T07:48:09Z</time>
      </trkpt>
      <trkpt lat="48.3071" lon="3.16126">
        <ele>63</ele>
        <time>2013-08-03T07:48:13Z</time>
      </trkpt>
      <trkpt lat="48.30707" lon="3.16132">
        <ele>63</ele>
        <time>2013-08-03T07:48:16Z</time>
      </trkpt>
      <trkpt lat="48.30703" lon="3.16136">
        <ele>63</ele>
        <time>2013-08-03T07:48:20Z</time>
      </trkpt>
      <trkpt lat="48.30698" lon="3.16141">
        <ele>63</ele>
        <time>2013-08-03T07:48:25Z</time>
      </trkpt>
      <trkpt lat="48.30695" lon="3.16145">
        <ele>63</ele>
        <time>2013-08-03T07:48:29Z</time>
      </trkpt>
      <trkpt lat="48.30691" lon="3.16149">
        <ele>63</ele>
        <time>2013-08-03T07:48:33Z</time>
      </trkpt>
      <trkpt lat="48.30687" lon="3.16154">
        <ele>63</ele>
        <time>2013-08-03T07:48:37Z</time>
      </trkpt>
      <trkpt lat="48.30684" lon="3.16158">
        <ele>63</ele>
        <time>2013-08-03T07:48:41Z</time>
      </trkpt>
      <trkpt lat="48.3068" lon="3.16162">
        <ele>64</ele>
        <time>2013-08-03T07:48:45Z</time>
      </trkpt>
      <trkpt lat="48.30676" lon="3.16167">
        <ele>63</ele>
        <time>2013-08-03T07:48:49Z</time>
      </trkpt>
      <trkpt lat="48.30673" lon="3.16171">
        <ele>63</ele>
        <time>2013-08-03T07:48:53Z</time>
      </trkpt>
      <trkpt lat="48.3067" lon="3.16177">
        <ele>63</ele>
        <time>2013-08-03T07:48:58Z</time>
      </trkpt>
      <trkpt lat="48.30665" lon="3.16181">
        <ele>65</ele>
        <time>2013-08-03T07:49:03Z</time>
      </trkpt>
      <trkpt lat="48.3066" lon="3.16184">
        <ele>65</ele>
        <time>2013-08-03T07:49:07Z</time>
      </trkpt>
      <trkpt lat="48.30656" lon="3.16189">
        <ele>65</ele>
        <time>2013-08-03T07:49:12Z</time>
      </trkpt>
      <trkpt lat="48.30652" lon="3.16194">
        <ele>65</ele>
        <time>2013-08-03T07:49:17Z</time>
      </trkpt>
      <trkpt lat="48.30648" lon="3.16198">
        <ele>65</ele>
        <time>2013-08-03T07:49:21Z</time>
      </trkpt>
      <trkpt lat="48.30642" lon="3.16205">
        <ele>65</ele>
        <time>2013-08-03T07:49:38Z</time>
      </trkpt>
      <trkpt lat="48.3064" lon="3.16211">
        <ele>65</ele>
        <time>2013-08-03T07:49:42Z</time>
      </trkpt>
      <trkpt lat="48.30636" lon="3.16216">
        <ele>65</ele>
        <time>2013-08-03T07:49:46Z</time>
      </trkpt>
      <trkpt lat="48.30632" lon="3.1622">
        <ele>66</ele>
        <time>2013-08-03T07:49:57Z</time>
      </trkpt>
      <trkpt lat="48.30627" lon="3.16224">
        <ele>66</ele>
        <time>2013-08-03T07:50:03Z</time>
      </trkpt>
      <trkpt lat="48.30623" lon="3.16229">
        <ele>66</ele>
        <time>2013-08-03T07:50:08Z</time>
      </trkpt>
      <trkpt lat="48.30619" lon="3.16233">
        <ele>66</ele>
        <time>2013-08-03T07:50:13Z</time>
      </trkpt>
      <trkpt lat="48.30615" lon="3.16236">
        <ele>66</ele>
        <time>2013-08-03T07:50:18Z</time>
      </trkpt>
      <trkpt lat="48.30611" lon="3.16242">
        <ele>67</ele>
        <time>2013-08-03T07:50:23Z</time>
      </trkpt>
      <trkpt lat="48.30607" lon="3.16246">
        <ele>67</ele>
        <time>2013-08-03T07:50:33Z</time>
      </trkpt>
      <trkpt lat="48.30603" lon="3.16249">
        <ele>67</ele>
        <time>2013-08-03T07:50:57Z</time>
      </trkpt>
      <trkpt lat="48.306" lon="3.16252">
        <ele>66</ele>
        <time>2013-08-03T07:51:07Z</time>
      </trkpt>
      <trkpt lat="48.30596" lon="3.16256">
        <ele>67</ele>
        <time>2013-08-03T07:51:11Z</time>
      </trkpt>
      <trkpt lat="48.30592" lon="3.16262">
        <ele>67</ele>
        <time>2013-08-03T07:51:15Z</time>
      </trkpt>
      <trkpt lat="48.30589" lon="3.16267">
        <ele>66</ele>
        <time>2013-08-03T07:51:20Z</time>
      </trkpt>
      <trkpt lat="48.30585" lon="3.16272">
        <ele>66</ele>
        <time>2013-08-03T07:51:24Z</time>
      </trkpt>
      <trkpt lat="48.30583" lon="3.16278">
        <ele>70</ele>
        <time>2013-08-03T07:51:29Z</time>
      </trkpt>
      <trkpt lat="48.30579" lon="3.16284">
        <ele>70</ele>
        <time>2013-08-03T07:51:35Z</time>
      </trkpt>
      <trkpt lat="48.30577" lon="3.1629">
        <ele>70</ele>
        <time>2013-08-03T07:51:38Z</time>
      </trkpt>
      <trkpt lat="48.30575" lon="3.16298">
        <ele>70</ele>
        <time>2013-08-03T07:51:42Z</time>
      </trkpt>
      <trkpt lat="48.30575" lon="3.16306">
        <ele>69</ele>
        <time>2013-08-03T07:51:46Z</time>
      </trkpt>
      <trkpt lat="48.30573" lon="3.16314">
        <ele>69</ele>
        <time>2013-08-03T07:51:52Z</time>
      </trkpt>
      <trkpt lat="48.3057" lon="3.1632">
        <ele>69</ele>
        <time>2013-08-03T07:51:56Z</time>
      </trkpt>
      <trkpt lat="48.30568" lon="3.16327">
        <ele>69</ele>
        <time>2013-08-03T07:52:00Z</time>
      </trkpt>
      <trkpt lat="48.30567" lon="3.16332">
        <ele>69</ele>
        <time>2013-08-03T07:52:09Z</time>
      </trkpt>
      <trkpt lat="48.30564" lon="3.16338">
        <ele>67</ele>
        <time>2013-08-03T07:52:18Z</time>
      </trkpt>
      <trkpt lat="48.30561" lon="3.16345">
        <ele>67</ele>
        <time>2013-08-03T07:52:23Z</time>
      </trkpt>
      <trkpt lat="48.30559" lon="3.16351">
        <ele>68</ele>
        <time>2013-08-03T07:52:29Z</time>
      </trkpt>
      <trkpt lat="48.30557" lon="3.16357">
        <ele>68</ele>
        <time>2013-08-03T07:52:34Z</time>
      </trkpt>
      <trkpt lat="48.30553" lon="3.16367">
        <ele>68</ele>
        <time>2013-08-03T07:52:52Z</time>
      </trkpt>
      <trkpt lat="48.30551" lon="3.16373">
        <ele>68</ele>
        <time>2013-08-03T07:52:56Z</time>
      </trkpt>
      <trkpt lat="48.30549" lon="3.16379">
        <ele>68</ele>
        <time>2013-08-03T07:53:01Z</time>
      </trkpt>
      <trkpt lat="48.30547" lon="3.16387">
        <ele>67</ele>
        <time>2013-08-03T07:53:45Z</time>
      </trkpt>
      <trkpt lat="48.30544" lon="3.16393">
        <ele>67</ele>
        <time>2013-08-03T07:53:48Z</time>
      </trkpt>
      <trkpt lat="48.30543" lon="3.164">
        <ele>67</ele>
        <time>2013-08-03T07:53:51Z</time>
      </trkpt>
      <trkpt lat="48.30541" lon="3.16407">
        <ele>67</ele>
        <time>2013-08-03T07:53:54Z</time>
      </trkpt>
      <trkpt lat="48.30539" lon="3.16415">
        <ele>67</ele>
        <time>2013-08-03T07:53:58Z</time>
      </trkpt>
      <trkpt lat="48.30536" lon="3.1642">
        <ele>65</ele>
        <time>2013-08-03T07:54:02Z</time>
      </trkpt>
      <trkpt lat="48.30535" lon="3.16427">
        <ele>65</ele>
        <time>2013-08-03T07:54:07Z</time>
      </trkpt>
      <trkpt lat="48.30534" lon="3.16434">
        <ele>65</ele>
        <time>2013-08-03T07:54:12Z</time>
      </trkpt>
      <trkpt lat="48.3053" lon="3.16439">
        <ele>66</ele>
        <time>2013-08-03T07:54:17Z</time>
      </trkpt>
      <trkpt lat="48.30528" lon="3.16445">
        <ele>65</ele>
        <time>2013-08-03T07:54:21Z</time>
      </trkpt>
      <trkpt lat="48.30524" lon="3.16451">
        <ele>66</ele>
        <time>2013-08-03T07:54:25Z</time>
      </trkpt>
      <trkpt lat="48.30522" lon="3.16457">
        <ele>65</ele>
        <time>2013-08-03T07:54:29Z</time>
      </trkpt>
      <trkpt lat="48.30519" lon="3.16464">
        <ele>65</ele>
        <time>2013-08-03T07:54:33Z</time>
      </trkpt>
      <trkpt lat="48.30517" lon="3.16472">
        <ele>65</ele>
        <time>2013-08-03T07:54:37Z</time>
      </trkpt>
      <trkpt lat="48.30512" lon="3.16479">
        <ele>66</ele>
        <time>2013-08-03T07:54:40Z</time>
      </trkpt>
      <trkpt lat="48.30509" lon="3.16484">
        <ele>66</ele>
        <time>2013-08-03T07:54:42Z</time>
      </trkpt>
      <trkpt lat="48.30506" lon="3.1649">
        <ele>66</ele>
        <time>2013-08-03T07:54:47Z</time>
      </trkpt>
      <trkpt lat="48.3051" lon="3.16495">
        <ele>66</ele>
        <time>2013-08-03T07:54:57Z</time>
      </trkpt>
      <trkpt lat="48.30506" lon="3.16501">
        <ele>66</ele>
        <time>2013-08-03T07:55:03Z</time>
      </trkpt>
      <trkpt lat="48.30503" lon="3.16508">
        <ele>65</ele>
        <time>2013-08-03T07:55:05Z</time>
      </trkpt>
      <trkpt lat="48.30501" lon="3.16516">
        <ele>65</ele>
        <time>2013-08-03T07:55:08Z</time>
      </trkpt>
      <trkpt lat="48.30502" lon="3.16524">
        <ele>64</ele>
        <time>2013-08-03T07:55:12Z</time>
      </trkpt>
      <trkpt lat="48.30501" lon="3.1653">
        <ele>63</ele>
        <time>2013-08-03T07:55:16Z</time>
      </trkpt>
      <trkpt lat="48.30499" lon="3.16538">
        <ele>67</ele>
        <time>2013-08-03T07:55:19Z</time>
      </trkpt>
      <trkpt lat="48.30496" lon="3.16545">
        <ele>67</ele>
        <time>2013-08-03T07:55:22Z</time>
      </trkpt>
      <trkpt lat="48.30493" lon="3.16552">
        <ele>66</ele>
        <time>2013-08-03T07:55:25Z</time>
      </trkpt>
      <trkpt lat="48.30492" lon="3.16562">
        <ele>66</ele>
        <time>2013-08-03T07:55:28Z</time>
      </trkpt>
      <trkpt lat="48.30492" lon="3.16568">
        <ele>65</ele>
        <time>2013-08-03T07:55:32Z</time>
      </trkpt>
      <trkpt lat="48.30492" lon="3.16576">
        <ele>64</ele>
        <time>2013-08-03T07:55:37Z</time>
      </trkpt>
      <trkpt lat="48.30494" lon="3.16583">
        <ele>63</ele>
        <time>2013-08-03T07:55:42Z</time>
      </trkpt>
      <trkpt lat="48.30495" lon="3.1659">
        <ele>63</ele>
        <time>2013-08-03T07:55:47Z</time>
      </trkpt>
      <trkpt lat="48.30493" lon="3.16598">
        <ele>64</ele>
        <time>2013-08-03T07:55:55Z</time>
      </trkpt>
      <trkpt lat="48.30491" lon="3.16605">
        <ele>65</ele>
        <time>2013-08-03T07:56:08Z</time>
      </trkpt>
      <trkpt lat="48.3049" lon="3.16614">
        <ele>65</ele>
        <time>2013-08-03T07:56:11Z</time>
      </trkpt>
      <trkpt lat="48.30487" lon="3.16625">
        <ele>65</ele>
        <time>2013-08-03T07:56:18Z</time>
      </trkpt>
      <trkpt lat="48.30485" lon="3.16635">
        <ele>65</ele>
        <time>2013-08-03T07:56:23Z</time>
      </trkpt>
      <trkpt lat="48.30483" lon="3.16641">
        <ele>65</ele>
        <time>2013-08-03T07:56:32Z</time>
      </trkpt>
      <trkpt lat="48.3048" lon="3.16646">
        <ele>66</ele>
        <time>2013-08-03T07:56:36Z</time>
      </trkpt>
      <trkpt lat="48.30477" lon="3.16653">
        <ele>66</ele>
        <time>2013-08-03T07:56:39Z</time>
      </trkpt>
      <trkpt lat="48.30475" lon="3.16659">
        <ele>66</ele>
        <time>2013-08-03T07:56:41Z</time>
      </trkpt>
      <trkpt lat="48.30473" lon="3.16666">
        <ele>66</ele>
        <time>2013-08-03T07:56:44Z</time>
      </trkpt>
      <trkpt lat="48.30472" lon="3.16674">
        <ele>66</ele>
        <time>2013-08-03T07:56:48Z</time>
      </trkpt>
      <trkpt lat="48.3047" lon="3.16682">
        <ele>66</ele>
        <time>2013-08-03T07:56:52Z</time>
      </trkpt>
      <trkpt lat="48.30467" lon="3.16688">
        <ele>66</ele>
        <time>2013-08-03T07:56:55Z</time>
      </trkpt>
      <trkpt lat="48.30463" lon="3.16694">
        <ele>66</ele>
        <time>2013-08-03T07:56:59Z</time>
      </trkpt>
      <trkpt lat="48.3046" lon="3.16699">
        <ele>66</ele>
        <time>2013-08-03T07:57:05Z</time>
      </trkpt>
      <trkpt lat="48.30458" lon="3.16706">
        <ele>66</ele>
        <time>2013-08-03T07:57:10Z</time>
      </trkpt>
      <trkpt lat="48.30456" lon="3.16713">
        <ele>66</ele>
        <time>2013-08-03T07:57:14Z</time>
      </trkpt>
      <trkpt lat="48.30453" lon="3.16719">
        <ele>66</ele>
        <time>2013-08-03T07:57:18Z</time>
      </trkpt>
      <trkpt lat="48.3045" lon="3.16726">
        <ele>67</ele>
        <time>2013-08-03T07:57:22Z</time>
      </trkpt>
      <trkpt lat="48.30448" lon="3.16733">
        <ele>67</ele>
        <time>2013-08-03T07:57:26Z</time>
      </trkpt>
      <trkpt lat="48.30446" lon="3.16739">
        <ele>67</ele>
        <time>2013-08-03T07:57:30Z</time>
      </trkpt>
      <trkpt lat="48.30443" lon="3.16747">
        <ele>67</ele>
        <time>2013-08-03T07:57:34Z</time>
      </trkpt>
      <trkpt lat="48.30441" lon="3.16753">
        <ele>67</ele>
        <time>2013-08-03T07:57:37Z</time>
      </trkpt>
      <trkpt lat="48.30439" lon="3.16759">
        <ele>67</ele>
        <time>2013-08-03T07:57:41Z</time>
      </trkpt>
      <trkpt lat="48.30435" lon="3.16765">
        <ele>67</ele>
        <time>2013-08-03T07:57:45Z</time>
      </trkpt>
      <trkpt lat="48.30432" lon="3.1677">
        <ele>67</ele>
        <time>2013-08-03T07:57:49Z</time>
      </trkpt>
      <trkpt lat="48.30429" lon="3.16776">
        <ele>67</ele>
        <time>2013-08-03T07:57:57Z</time>
      </trkpt>
      <trkpt lat="48.30427" lon="3.16783">
        <ele>67</ele>
        <time>2013-08-03T07:58:01Z</time>
      </trkpt>
      <trkpt lat="48.30424" lon="3.16789">
        <ele>67</ele>
        <time>2013-08-03T07:58:05Z</time>
      </trkpt>
      <trkpt lat="48.30423" lon="3.16798">
        <ele>67</ele>
        <time>2013-08-03T07:58:09Z</time>
      </trkpt>
      <trkpt lat="48.30421" lon="3.16806">
        <ele>67</ele>
        <time>2013-08-03T07:58:13Z</time>
      </trkpt>
      <trkpt lat="48.30419" lon="3.16812">
        <ele>67</ele>
        <time>2013-08-03T07:58:17Z</time>
      </trkpt>
      <trkpt lat="48.30416" lon="3.16819">
        <ele>71</ele>
        <time>2013-08-03T07:58:23Z</time>
      </trkpt>
      <trkpt lat="48.30413" lon="3.16824">
        <ele>70</ele>
        <time>2013-08-03T07:58:27Z</time>
      </trkpt>
      <trkpt lat="48.3041" lon="3.16832">
        <ele>70</ele>
        <time>2013-08-03T07:58:32Z</time>
      </trkpt>
      <trkpt lat="48.30408" lon="3.16839">
        <ele>71</ele>
        <time>2013-08-03T07:58:36Z</time>
      </trkpt>
      <trkpt lat="48.30406" lon="3.16847">
        <ele>71</ele>
        <time>2013-08-03T07:58:40Z</time>
      </trkpt>
      <trkpt lat="48.30404" lon="3.16854">
        <ele>72</ele>
        <time>2013-08-03T07:58:43Z</time>
      </trkpt>
      <trkpt lat="48.30402" lon="3.16861">
        <ele>72</ele>
        <time>2013-08-03T07:58:47Z</time>
      </trkpt>
      <trkpt lat="48.30399" lon="3.16867">
        <ele>73</ele>
        <time>2013-08-03T07:58:51Z</time>
      </trkpt>
      <trkpt lat="48.30396" lon="3.16873">
        <ele>73</ele>
        <time>2013-08-03T07:58:56Z</time>
      </trkpt>
      <trkpt lat="48.30398" lon="3.16881">
        <ele>73</ele>
        <time>2013-08-03T07:59:02Z</time>
      </trkpt>
      <trkpt lat="48.30396" lon="3.16888">
        <ele>73</ele>
        <time>2013-08-03T07:59:11Z</time>
      </trkpt>
      <trkpt lat="48.30393" lon="3.16894">
        <ele>73</ele>
        <time>2013-08-03T07:59:16Z</time>
      </trkpt>
      <trkpt lat="48.30388" lon="3.16905">
        <ele>73</ele>
        <time>2013-08-03T07:59:24Z</time>
      </trkpt>
      <trkpt lat="48.30386" lon="3.16913">
        <ele>73</ele>
        <time>2013-08-03T07:59:29Z</time>
      </trkpt>
      <trkpt lat="48.30385" lon="3.1692">
        <ele>73</ele>
        <time>2013-08-03T07:59:33Z</time>
      </trkpt>
      <trkpt lat="48.30384" lon="3.16927">
        <ele>73</ele>
        <time>2013-08-03T07:59:37Z</time>
      </trkpt>
      <trkpt lat="48.30382" lon="3.16934">
        <ele>73</ele>
        <time>2013-08-03T07:59:41Z</time>
      </trkpt>
      <trkpt lat="48.30381" lon="3.16941">
        <ele>73</ele>
        <time>2013-08-03T07:59:45Z</time>
      </trkpt>
      <trkpt lat="48.30379" lon="3.16948">
        <ele>73</ele>
        <time>2013-08-03T07:59:49Z</time>
      </trkpt>
      <trkpt lat="48.30378" lon="3.16955">
        <ele>73</ele>
        <time>2013-08-03T07:59:53Z</time>
      </trkpt>
      <trkpt lat="48.30376" lon="3.16963">
        <ele>73</ele>
        <time>2013-08-03T07:59:58Z</time>
      </trkpt>
      <trkpt lat="48.30375" lon="3.16971">
        <ele>73</ele>
        <time>2013-08-03T08:00:02Z</time>
      </trkpt>
      <trkpt lat="48.30373" lon="3.16978">
        <ele>73</ele>
        <time>2013-08-03T08:00:06Z</time>
      </trkpt>
      <trkpt lat="48.30371" lon="3.16984">
        <ele>73</ele>
        <time>2013-08-03T08:00:10Z</time>
      </trkpt>
      <trkpt lat="48.30369" lon="3.16992">
        <ele>73</ele>
        <time>2013-08-03T08:00:15Z</time>
      </trkpt>
      <trkpt lat="48.30367" lon="3.16999">
        <ele>73</ele>
        <time>2013-08-03T08:00:19Z</time>
      </trkpt>
      <trkpt lat="48.30364" lon="3.17005">
        <ele>72</ele>
        <time>2013-08-03T08:00:24Z</time>
      </trkpt>
      <trkpt lat="48.30361" lon="3.17011">
        <ele>72</ele>
        <time>2013-08-03T08:00:30Z</time>
      </trkpt>
      <trkpt lat="48.30359" lon="3.17017">
        <ele>72</ele>
        <time>2013-08-03T08:00:34Z</time>
      </trkpt>
      <trkpt lat="48.30356" lon="3.17023">
        <ele>72</ele>
        <time>2013-08-03T08:00:37Z</time>
      </trkpt>
      <trkpt lat="48.30354" lon="3.17029">
        <ele>72</ele>
        <time>2013-08-03T08:00:40Z</time>
      </trkpt>
      <trkpt lat="48.30351" lon="3.17036">
        <ele>72</ele>
        <time>2013-08-03T08:00:44Z</time>
      </trkpt>
      <trkpt lat="48.30349" lon="3.17043">
        <ele>72</ele>
        <time>2013-08-03T08:00:49Z</time>
      </trkpt>
      <trkpt lat="48.30347" lon="3.1705">
        <ele>72</ele>
        <time>2013-08-03T08:00:53Z</time>
      </trkpt>
      <trkpt lat="48.30345" lon="3.17057">
        <ele>72</ele>
        <time>2013-08-03T08:00:57Z</time>
      </trkpt>
      <trkpt lat="48.30343" lon="3.17064">
        <ele>72</ele>
        <time>2013-08-03T08:01:03Z</time>
      </trkpt>
      <trkpt lat="48.30342" lon="3.17071">
        <ele>72</ele>
        <time>2013-08-03T08:01:09Z</time>
      </trkpt>
      <trkpt lat="48.30339" lon="3.17077">
        <ele>72</ele>
        <time>2013-08-03T08:01:13Z</time>
      </trkpt>
      <trkpt lat="48.30338" lon="3.17085">
        <ele>72</ele>
        <time>2013-08-03T08:01:18Z</time>
      </trkpt>
      <trkpt lat="48.30337" lon="3.17093">
        <ele>72</ele>
        <time>2013-08-03T08:01:24Z</time>
      </trkpt>
      <trkpt lat="48.30339" lon="3.171">
        <ele>71</ele>
        <time>2013-08-03T08:01:30Z</time>
      </trkpt>
      <trkpt lat="48.30337" lon="3.17107">
        <ele>71</ele>
        <time>2013-08-03T08:01:34Z</time>
      </trkpt>
      <trkpt lat="48.30336" lon="3.17111">
        <ele>71</ele>
        <time>2013-08-03T08:01:42Z</time>
      </trkpt>
      <trkpt lat="48.30334" lon="3.17118">
        <ele>70</ele>
        <time>2013-08-03T08:01:52Z</time>
      </trkpt>
      <trkpt lat="48.30333" lon="3.17126">
        <ele>76</ele>
        <time>2013-08-03T08:01:56Z</time>
      </trkpt>
      <trkpt lat="48.30331" lon="3.17134">
        <ele>76</ele>
        <time>2013-08-03T08:01:59Z</time>
      </trkpt>
      <trkpt lat="48.30329" lon="3.1714">
        <ele>75</ele>
        <time>2013-08-03T08:02:03Z</time>
      </trkpt>
      <trkpt lat="48.30329" lon="3.17147">
        <ele>75</ele>
        <time>2013-08-03T08:02:06Z</time>
      </trkpt>
      <trkpt lat="48.30328" lon="3.17155">
        <ele>75</ele>
        <time>2013-08-03T08:02:09Z</time>
      </trkpt>
      <trkpt lat="48.30325" lon="3.1716">
        <ele>75</ele>
        <time>2013-08-03T08:02:12Z</time>
      </trkpt>
      <trkpt lat="48.30323" lon="3.17167">
        <ele>75</ele>
        <time>2013-08-03T08:02:16Z</time>
      </trkpt>
      <trkpt lat="48.30324" lon="3.17175">
        <ele>75</ele>
        <time>2013-08-03T08:02:20Z</time>
      </trkpt>
      <trkpt lat="48.30324" lon="3.17183">
        <ele>75</ele>
        <time>2013-08-03T08:02:24Z</time>
      </trkpt>
      <trkpt lat="48.30323" lon="3.17191">
        <ele>76</ele>
        <time>2013-08-03T08:02:27Z</time>
      </trkpt>
      <trkpt lat="48.30321" lon="3.17197">
        <ele>76</ele>
        <time>2013-08-03T08:02:30Z</time>
      </trkpt>
      <trkpt lat="48.30318" lon="3.17203">
        <ele>76</ele>
        <time>2013-08-03T08:02:34Z</time>
      </trkpt>
      <trkpt lat="48.30316" lon="3.17211">
        <ele>76</ele>
        <time>2013-08-03T08:02:39Z</time>
      </trkpt>
      <trkpt lat="48.30315" lon="3.17218">
        <ele>76</ele>
        <time>2013-08-03T08:02:44Z</time>
      </trkpt>
      <trkpt lat="48.30316" lon="3.17225">
        <ele>76</ele>
        <time>2013-08-03T08:02:50Z</time>
      </trkpt>
      <trkpt lat="48.30315" lon="3.17232">
        <ele>76</ele>
        <time>2013-08-03T08:02:54Z</time>
      </trkpt>
      <trkpt lat="48.30315" lon="3.17239">
        <ele>76</ele>
        <time>2013-08-03T08:02:58Z</time>
      </trkpt>
      <trkpt lat="48.30315" lon="3.17246">
        <ele>75</ele>
        <time>2013-08-03T08:03:02Z</time>
      </trkpt>
      <trkpt lat="48.30315" lon="3.17253">
        <ele>75</ele>
        <time>2013-08-03T08:03:05Z</time>
      </trkpt>
      <trkpt lat="48.30314" lon="3.17261">
        <ele>75</ele>
        <time>2013-08-03T08:03:08Z</time>
      </trkpt>
      <trkpt lat="48.30313" lon="3.17268">
        <ele>75</ele>
        <time>2013-08-03T08:03:12Z</time>
      </trkpt>
      <trkpt lat="48.30311" lon="3.17277">
        <ele>76</ele>
        <time>2013-08-03T08:03:17Z</time>
      </trkpt>
      <trkpt lat="48.3031" lon="3.17284">
        <ele>76</ele>
        <time>2013-08-03T08:03:21Z</time>
      </trkpt>
      <trkpt lat="48.30307" lon="3.17293">
        <ele>76</ele>
        <time>2013-08-03T08:03:25Z</time>
      </trkpt>
      <trkpt lat="48.30306" lon="3.173">
        <ele>76</ele>
        <time>2013-08-03T08:03:29Z</time>
      </trkpt>
      <trkpt lat="48.30304" lon="3.17304">
        <ele>76</ele>
        <time>2013-08-03T08:03:35Z</time>
      </trkpt>
      <trkpt lat="48.30302" lon="3.1731">
        <ele>75</ele>
        <time>2013-08-03T08:03:46Z</time>
      </trkpt>
      <trkpt lat="48.30301" lon="3.17317">
        <ele>75</ele>
        <time>2013-08-03T08:03:53Z</time>
      </trkpt>
      <trkpt lat="48.30299" lon="3.17324">
        <ele>75</ele>
        <time>2013-08-03T08:03:56Z</time>
      </trkpt>
      <trkpt lat="48.30297" lon="3.17331">
        <ele>76</ele>
        <time>2013-08-03T08:03:59Z</time>
      </trkpt>
      <trkpt lat="48.30295" lon="3.17339">
        <ele>74</ele>
        <time>2013-08-03T08:04:02Z</time>
      </trkpt>
      <trkpt lat="48.30292" lon="3.17347">
        <ele>74</ele>
        <time>2013-08-03T08:04:05Z</time>
      </trkpt>
      <trkpt lat="48.3029" lon="3.17353">
        <ele>74</ele>
        <time>2013-08-03T08:04:08Z</time>
      </trkpt>
      <trkpt lat="48.30288" lon="3.17361">
        <ele>74</ele>
        <time>2013-08-03T08:04:12Z</time>
      </trkpt>
      <trkpt lat="48.30285" lon="3.17369">
        <ele>74</ele>
        <time>2013-08-03T08:04:16Z</time>
      </trkpt>
      <trkpt lat="48.30283" lon="3.17376">
        <ele>74</ele>
        <time>2013-08-03T08:04:20Z</time>
      </trkpt>
      <trkpt lat="48.3028" lon="3.17382">
        <ele>74</ele>
        <time>2013-08-03T08:04:24Z</time>
      </trkpt>
      <trkpt lat="48.30278" lon="3.17389">
        <ele>74</ele>
        <time>2013-08-03T08:04:29Z</time>
      </trkpt>
      <trkpt lat="48.30275" lon="3.17397">
        <ele>74</ele>
        <time>2013-08-03T08:04:34Z</time>
      </trkpt>
      <trkpt lat="48.30271" lon="3.17402">
        <ele>75</ele>
        <time>2013-08-03T08:04:43Z</time>
      </trkpt>
      <trkpt lat="48.30268" lon="3.1741">
        <ele>75</ele>
        <time>2013-08-03T08:04:53Z</time>
      </trkpt>
      <trkpt lat="48.30265" lon="3.17418">
        <ele>74</ele>
        <time>2013-08-03T08:04:58Z</time>
      </trkpt>
      <trkpt lat="48.30262" lon="3.17424">
        <ele>74</ele>
        <time>2013-08-03T08:05:02Z</time>
      </trkpt>
      <trkpt lat="48.3026" lon="3.17431">
        <ele>74</ele>
        <time>2013-08-03T08:05:06Z</time>
      </trkpt>
      <trkpt lat="48.30258" lon="3.17438">
        <ele>73</ele>
        <time>2013-08-03T08:05:11Z</time>
      </trkpt>
      <trkpt lat="48.30257" lon="3.17447">
        <ele>73</ele>
        <time>2013-08-03T08:05:16Z</time>
      </trkpt>
      <trkpt lat="48.30255" lon="3.17455">
        <ele>73</ele>
        <time>2013-08-03T08:05:21Z</time>
      </trkpt>
      <trkpt lat="48.30252" lon="3.17462">
        <ele>73</ele>
        <time>2013-08-03T08:05:26Z</time>
      </trkpt>
      <trkpt lat="48.3025" lon="3.17466">
        <ele>73</ele>
        <time>2013-08-03T08:05:40Z</time>
      </trkpt>
      <trkpt lat="48.30251" lon="3.17473">
        <ele>73</ele>
        <time>2013-08-03T08:05:50Z</time>
      </trkpt>
      <trkpt lat="48.3025" lon="3.1748">
        <ele>77</ele>
        <time>2013-08-03T08:05:54Z</time>
      </trkpt>
      <trkpt lat="48.30247" lon="3.17487">
        <ele>77</ele>
        <time>2013-08-03T08:05:58Z</time>
      </trkpt>
      <trkpt lat="48.30247" lon="3.17495">
        <ele>76</ele>
        <time>2013-08-03T08:06:03Z</time>
      </trkpt>
      <trkpt lat="48.30247" lon="3.17503">
        <ele>76</ele>
        <time>2013-08-03T08:06:07Z</time>
      </trkpt>
      <trkpt lat="48.30248" lon="3.17511">
        <ele>76</ele>
        <time>2013-08-03T08:06:11Z</time>
      </trkpt>
      <trkpt lat="48.30249" lon="3.17517">
        <ele>77</ele>
        <time>2013-08-03T08:06:17Z</time>
      </trkpt>
      <trkpt lat="48.3025" lon="3.17524">
        <ele>71</ele>
        <time>2013-08-03T08:06:21Z</time>
      </trkpt>
      <trkpt lat="48.30248" lon="3.17532">
        <ele>77</ele>
        <time>2013-08-03T08:06:25Z</time>
      </trkpt>
      <trkpt lat="48.30245" lon="3.17538">
        <ele>77</ele>
        <time>2013-08-03T08:06:30Z</time>
      </trkpt>
      <trkpt lat="48.30241" lon="3.17543">
        <ele>77</ele>
        <time>2013-08-03T08:06:35Z</time>
      </trkpt>
      <trkpt lat="48.30236" lon="3.17549">
        <ele>77</ele>
        <time>2013-08-03T08:06:39Z</time>
      </trkpt>
      <trkpt lat="48.30232" lon="3.17552">
        <ele>77</ele>
        <time>2013-08-03T08:06:43Z</time>
      </trkpt>
      <trkpt lat="48.30228" lon="3.17553">
        <ele>77</ele>
        <time>2013-08-03T08:06:47Z</time>
      </trkpt>
      <trkpt lat="48.30223" lon="3.17555">
        <ele>78</ele>
        <time>2013-08-03T08:06:52Z</time>
      </trkpt>
      <trkpt lat="48.30218" lon="3.17558">
        <ele>78</ele>
        <time>2013-08-03T08:06:57Z</time>
      </trkpt>
      <trkpt lat="48.30213" lon="3.17561">
        <ele>78</ele>
        <time>2013-08-03T08:07:01Z</time>
      </trkpt>
      <trkpt lat="48.3021" lon="3.17566">
        <ele>79</ele>
        <time>2013-08-03T08:07:07Z</time>
      </trkpt>
      <trkpt lat="48.30204" lon="3.17567">
        <ele>79</ele>
        <time>2013-08-03T08:07:39Z</time>
      </trkpt>
      <trkpt lat="48.30199" lon="3.17569">
        <ele>80</ele>
        <time>2013-08-03T08:07:43Z</time>
      </trkpt>
      <trkpt lat="48.30194" lon="3.17572">
        <ele>80</ele>
        <time>2013-08-03T08:07:48Z</time>
      </trkpt>
      <trkpt lat="48.30188" lon="3.17575">
        <ele>81</ele>
        <time>2013-08-03T08:07:52Z</time>
      </trkpt>
      <trkpt lat="48.30184" lon="3.17578">
        <ele>82</ele>
        <time>2013-08-03T08:07:54Z</time>
      </trkpt>
      <trkpt lat="48.30183" lon="3.17584">
        <ele>81</ele>
        <time>2013-08-03T08:08:01Z</time>
      </trkpt>
      <trkpt lat="48.30179" lon="3.17589">
        <ele>81</ele>
        <time>2013-08-03T08:08:05Z</time>
      </trkpt>
      <trkpt lat="48.30175" lon="3.17592">
        <ele>82</ele>
        <time>2013-08-03T08:08:09Z</time>
      </trkpt>
      <trkpt lat="48.3017" lon="3.17592">
        <ele>82</ele>
        <time>2013-08-03T08:08:16Z</time>
      </trkpt>
      <trkpt lat="48.30166" lon="3.17594">
        <ele>85</ele>
        <time>2013-08-03T08:08:20Z</time>
      </trkpt>
      <trkpt lat="48.30161" lon="3.17594">
        <ele>85</ele>
        <time>2013-08-03T08:08:28Z</time>
      </trkpt>
      <trkpt lat="48.30156" lon="3.17593">
        <ele>85</ele>
        <time>2013-08-03T08:08:33Z</time>
      </trkpt>
      <trkpt lat="48.30152" lon="3.17595">
        <ele>86</ele>
        <time>2013-08-03T08:08:37Z</time>
      </trkpt>
      <trkpt lat="48.30147" lon="3.17598">
        <ele>86</ele>
        <time>2013-08-03T08:08:41Z</time>
      </trkpt>
      <trkpt lat="48.30143" lon="3.17602">
        <ele>86</ele>
        <time>2013-08-03T08:08:45Z</time>
      </trkpt>
      <trkpt lat="48.30139" lon="3.17609">
        <ele>86</ele>
        <time>2013-08-03T08:08:50Z</time>
      </trkpt>
      <trkpt lat="48.30137" lon="3.17615">
        <ele>86</ele>
        <time>2013-08-03T08:08:53Z</time>
      </trkpt>
      <trkpt lat="48.30134" lon="3.17622">
        <ele>86</ele>
        <time>2013-08-03T08:08:57Z</time>
      </trkpt>
      <trkpt lat="48.30132" lon="3.17628">
        <ele>86</ele>
        <time>2013-08-03T08:09:02Z</time>
      </trkpt>
      <trkpt lat="48.30128" lon="3.17633">
        <ele>86</ele>
        <time>2013-08-03T08:09:06Z</time>
      </trkpt>
      <trkpt lat="48.30124" lon="3.17639">
        <ele>86</ele>
        <time>2013-08-03T08:09:10Z</time>
      </trkpt>
      <trkpt lat="48.30122" lon="3.17647">
        <ele>86</ele>
        <time>2013-08-03T08:09:13Z</time>
      </trkpt>
      <trkpt lat="48.3012" lon="3.17654">
        <ele>86</ele>
        <time>2013-08-03T08:09:16Z</time>
      </trkpt>
      <trkpt lat="48.30119" lon="3.17661">
        <ele>86</ele>
        <time>2013-08-03T08:09:19Z</time>
      </trkpt>
      <trkpt lat="48.30116" lon="3.17668">
        <ele>84</ele>
        <time>2013-08-03T08:09:23Z</time>
      </trkpt>
      <trkpt lat="48.30112" lon="3.17674">
        <ele>84</ele>
        <time>2013-08-03T08:09:27Z</time>
      </trkpt>
      <trkpt lat="48.30108" lon="3.17679">
        <ele>84</ele>
        <time>2013-08-03T08:09:30Z</time>
      </trkpt>
      <trkpt lat="48.30107" lon="3.17687">
        <ele>84</ele>
        <time>2013-08-03T08:09:36Z</time>
      </trkpt>
      <trkpt lat="48.30102" lon="3.17688">
        <ele>84</ele>
        <time>2013-08-03T08:09:44Z</time>
      </trkpt>
      <trkpt lat="48.30099" lon="3.17694">
        <ele>84</ele>
        <time>2013-08-03T08:09:48Z</time>
      </trkpt>
      <trkpt lat="48.30095" lon="3.17701">
        <ele>84</ele>
        <time>2013-08-03T08:09:51Z</time>
      </trkpt>
      <trkpt lat="48.30093" lon="3.17707">
        <ele>83</ele>
        <time>2013-08-03T08:09:54Z</time>
      </trkpt>
      <trkpt lat="48.3009" lon="3.1772">
        <ele>83</ele>
        <time>2013-08-03T08:10:01Z</time>
      </trkpt>
      <trkpt lat="48.30087" lon="3.17726">
        <ele>83</ele>
        <time>2013-08-03T08:10:04Z</time>
      </trkpt>
      <trkpt lat="48.30083" lon="3.17732">
        <ele>86</ele>
        <time>2013-08-03T08:10:08Z</time>
      </trkpt>
      <trkpt lat="48.30081" lon="3.17739">
        <ele>85</ele>
        <time>2013-08-03T08:10:12Z</time>
      </trkpt>
      <trkpt lat="48.30079" lon="3.17746">
        <ele>85</ele>
        <time>2013-08-03T08:10:17Z</time>
      </trkpt>
      <trkpt lat="48.30076" lon="3.17754">
        <ele>84</ele>
        <time>2013-08-03T08:10:21Z</time>
      </trkpt>
      <trkpt lat="48.30074" lon="3.17761">
        <ele>83</ele>
        <time>2013-08-03T08:10:25Z</time>
      </trkpt>
      <trkpt lat="48.30071" lon="3.17766">
        <ele>83</ele>
        <time>2013-08-03T08:10:28Z</time>
      </trkpt>
      <trkpt lat="48.30067" lon="3.1777">
        <ele>83</ele>
        <time>2013-08-03T08:10:30Z</time>
      </trkpt>
      <trkpt lat="48.30063" lon="3.17777">
        <ele>83</ele>
        <time>2013-08-03T08:10:33Z</time>
      </trkpt>
      <trkpt lat="48.30061" lon="3.17784">
        <ele>83</ele>
        <time>2013-08-03T08:10:37Z</time>
      </trkpt>
      <trkpt lat="48.30059" lon="3.17793">
        <ele>82</ele>
        <time>2013-08-03T08:10:50Z</time>
      </trkpt>
      <trkpt lat="48.30055" lon="3.17799">
        <ele>82</ele>
        <time>2013-08-03T08:10:55Z</time>
      </trkpt>
      <trkpt lat="48.30049" lon="3.178">
        <ele>82</ele>
        <time>2013-08-03T08:11:03Z</time>
      </trkpt>
      <trkpt lat="48.30045" lon="3.17803">
        <ele>82</ele>
        <time>2013-08-03T08:11:07Z</time>
      </trkpt>
      <trkpt lat="48.30042" lon="3.17809">
        <ele>82</ele>
        <time>2013-08-03T08:11:12Z</time>
      </trkpt>
      <trkpt lat="48.30039" lon="3.17815">
        <ele>82</ele>
        <time>2013-08-03T08:11:17Z</time>
      </trkpt>
      <trkpt lat="48.30035" lon="3.1782">
        <ele>82</ele>
        <time>2013-08-03T08:11:21Z</time>
      </trkpt>
      <trkpt lat="48.30031" lon="3.17825">
        <ele>82</ele>
        <time>2013-08-03T08:11:26Z</time>
      </trkpt>
      <trkpt lat="48.30027" lon="3.17831">
        <ele>81</ele>
        <time>2013-08-03T08:11:31Z</time>
      </trkpt>
      <trkpt lat="48.30022" lon="3.17836">
        <ele>79</ele>
        <time>2013-08-03T08:11:36Z</time>
      </trkpt>
      <trkpt lat="48.30019" lon="3.1784">
        <ele>79</ele>
        <time>2013-08-03T08:11:40Z</time>
      </trkpt>
      <trkpt lat="48.30015" lon="3.17846">
        <ele>79</ele>
        <time>2013-08-03T08:11:44Z</time>
      </trkpt>
      <trkpt lat="48.30012" lon="3.17853">
        <ele>79</ele>
        <time>2013-08-03T08:11:48Z</time>
      </trkpt>
      <trkpt lat="48.30008" lon="3.17857">
        <ele>79</ele>
        <time>2013-08-03T08:11:52Z</time>
      </trkpt>
      <trkpt lat="48.30004" lon="3.17864">
        <ele>78</ele>
        <time>2013-08-03T08:11:57Z</time>
      </trkpt>
      <trkpt lat="48.3" lon="3.17871">
        <ele>78</ele>
        <time>2013-08-03T08:12:03Z</time>
      </trkpt>
      <trkpt lat="48.29996" lon="3.17876">
        <ele>76</ele>
        <time>2013-08-03T08:12:08Z</time>
      </trkpt>
      <trkpt lat="48.29992" lon="3.17882">
        <ele>75</ele>
        <time>2013-08-03T08:12:12Z</time>
      </trkpt>
      <trkpt lat="48.29987" lon="3.17887">
        <ele>75</ele>
        <time>2013-08-03T08:12:20Z</time>
      </trkpt>
      <trkpt lat="48.29983" lon="3.17892">
        <ele>75</ele>
        <time>2013-08-03T08:12:25Z</time>
      </trkpt>
      <trkpt lat="48.29979" lon="3.17898">
        <ele>75</ele>
        <time>2013-08-03T08:12:30Z</time>
      </trkpt>
      <trkpt lat="48.29976" lon="3.17904">
        <ele>75</ele>
        <time>2013-08-03T08:12:37Z</time>
      </trkpt>
      <trkpt lat="48.29972" lon="3.17908">
        <ele>74</ele>
        <time>2013-08-03T08:12:42Z</time>
      </trkpt>
      <trkpt lat="48.29969" lon="3.17914">
        <ele>74</ele>
        <time>2013-08-03T08:12:47Z</time>
      </trkpt>
      <trkpt lat="48.29965" lon="3.17917">
        <ele>72</ele>
        <time>2013-08-03T08:12:52Z</time>
      </trkpt>
      <trkpt lat="48.2996" lon="3.17924">
        <ele>71</ele>
        <time>2013-08-03T08:13:03Z</time>
      </trkpt>
      <trkpt lat="48.29957" lon="3.1793">
        <ele>71</ele>
        <time>2013-08-03T08:13:08Z</time>
      </trkpt>
      <trkpt lat="48.29954" lon="3.17935">
        <ele>71</ele>
        <time>2013-08-03T08:13:14Z</time>
      </trkpt>
      <trkpt lat="48.29951" lon="3.17942">
        <ele>71</ele>
        <time>2013-08-03T08:13:18Z</time>
      </trkpt>
      <trkpt lat="48.29948" lon="3.17947">
        <ele>71</ele>
        <time>2013-08-03T08:13:22Z</time>
      </trkpt>
      <trkpt lat="48.29944" lon="3.17951">
        <ele>70</ele>
        <time>2013-08-03T08:13:28Z</time>
      </trkpt>
      <trkpt lat="48.29941" lon="3.17957">
        <ele>70</ele>
        <time>2013-08-03T08:13:34Z</time>
      </trkpt>
      <trkpt lat="48.29938" lon="3.17963">
        <ele>70</ele>
        <time>2013-08-03T08:13:39Z</time>
      </trkpt>
      <trkpt lat="48.29935" lon="3.17969">
        <ele>70</ele>
        <time>2013-08-03T08:13:43Z</time>
      </trkpt>
      <trkpt lat="48.29932" lon="3.17975">
        <ele>70</ele>
        <time>2013-08-03T08:13:47Z</time>
      </trkpt>
      <trkpt lat="48.29929" lon="3.17981">
        <ele>70</ele>
        <time>2013-08-03T08:13:52Z</time>
      </trkpt>
      <trkpt lat="48.29925" lon="3.17986">
        <ele>69</ele>
        <time>2013-08-03T08:14:00Z</time>
      </trkpt>
      <trkpt lat="48.29922" lon="3.17992">
        <ele>69</ele>
        <time>2013-08-03T08:14:05Z</time>
      </trkpt>
      <trkpt lat="48.29919" lon="3.17998">
        <ele>68</ele>
        <time>2013-08-03T08:14:11Z</time>
      </trkpt>
      <trkpt lat="48.29915" lon="3.18002">
        <ele>68</ele>
        <time>2013-08-03T08:14:19Z</time>
      </trkpt>
      <trkpt lat="48.29912" lon="3.18008">
        <ele>67</ele>
        <time>2013-08-03T08:14:24Z</time>
      </trkpt>
      <trkpt lat="48.29908" lon="3.18016">
        <ele>67</ele>
        <time>2013-08-03T08:14:27Z</time>
      </trkpt>
      <trkpt lat="48.29905" lon="3.18022">
        <ele>67</ele>
        <time>2013-08-03T08:14:30Z</time>
      </trkpt>
      <trkpt lat="48.29902" lon="3.18028">
        <ele>67</ele>
        <time>2013-08-03T08:14:34Z</time>
      </trkpt>
      <trkpt lat="48.29898" lon="3.18034">
        <ele>67</ele>
        <time>2013-08-03T08:14:38Z</time>
      </trkpt>
      <trkpt lat="48.29894" lon="3.1804">
        <ele>67</ele>
        <time>2013-08-03T08:14:42Z</time>
      </trkpt>
      <trkpt lat="48.29892" lon="3.18046">
        <ele>67</ele>
        <time>2013-08-03T08:14:53Z</time>
      </trkpt>
      <trkpt lat="48.29892" lon="3.18056">
        <ele>67</ele>
        <time>2013-08-03T08:15:09Z</time>
      </trkpt>
      <trkpt lat="48.29889" lon="3.18063">
        <ele>67</ele>
        <time>2013-08-03T08:15:12Z</time>
      </trkpt>
      <trkpt lat="48.29885" lon="3.18069">
        <ele>66</ele>
        <time>2013-08-03T08:15:16Z</time>
      </trkpt>
      <trkpt lat="48.29882" lon="3.18076">
        <ele>66</ele>
        <time>2013-08-03T08:15:21Z</time>
      </trkpt>
      <trkpt lat="48.29878" lon="3.1808">
        <ele>66</ele>
        <time>2013-08-03T08:15:24Z</time>
      </trkpt>
      <trkpt lat="48.29875" lon="3.18086">
        <ele>66</ele>
        <time>2013-08-03T08:15:28Z</time>
      </trkpt>
      <trkpt lat="48.29872" lon="3.18092">
        <ele>66</ele>
        <time>2013-08-03T08:15:31Z</time>
      </trkpt>
      <trkpt lat="48.29868" lon="3.18097">
        <ele>66</ele>
        <time>2013-08-03T08:15:35Z</time>
      </trkpt>
      <trkpt lat="48.29865" lon="3.18103">
        <ele>66</ele>
        <time>2013-08-03T08:15:42Z</time>
      </trkpt>
      <trkpt lat="48.29862" lon="3.1811">
        <ele>66</ele>
        <time>2013-08-03T08:15:47Z</time>
      </trkpt>
      <trkpt lat="48.2986" lon="3.18117">
        <ele>66</ele>
        <time>2013-08-03T08:15:54Z</time>
      </trkpt>
      <trkpt lat="48.29857" lon="3.18123">
        <ele>66</ele>
        <time>2013-08-03T08:16:07Z</time>
      </trkpt>
      <trkpt lat="48.29855" lon="3.1813">
        <ele>66</ele>
        <time>2013-08-03T08:16:12Z</time>
      </trkpt>
      <trkpt lat="48.29854" lon="3.18136">
        <ele>66</ele>
        <time>2013-08-03T08:16:17Z</time>
      </trkpt>
      <trkpt lat="48.29852" lon="3.18144">
        <ele>66</ele>
        <time>2013-08-03T08:16:22Z</time>
      </trkpt>
      <trkpt lat="48.2985" lon="3.18151">
        <ele>66</ele>
        <time>2013-08-03T08:16:27Z</time>
      </trkpt>
      <trkpt lat="48.29849" lon="3.18158">
        <ele>66</ele>
        <time>2013-08-03T08:16:32Z</time>
      </trkpt>
      <trkpt lat="48.29847" lon="3.18165">
        <ele>66</ele>
        <time>2013-08-03T08:16:37Z</time>
      </trkpt>
      <trkpt lat="48.29846" lon="3.18172">
        <ele>67</ele>
        <time>2013-08-03T08:16:43Z</time>
      </trkpt>
      <trkpt lat="48.29843" lon="3.18178">
        <ele>67</ele>
        <time>2013-08-03T08:16:49Z</time>
      </trkpt>
      <trkpt lat="48.29843" lon="3.18183">
        <ele>66</ele>
        <time>2013-08-03T08:16:57Z</time>
      </trkpt>
      <trkpt lat="48.29843" lon="3.1819">
        <ele>66</ele>
        <time>2013-08-03T08:17:04Z</time>
      </trkpt>
      <trkpt lat="48.29842" lon="3.18198">
        <ele>66</ele>
        <time>2013-08-03T08:17:09Z</time>
      </trkpt>
      <trkpt lat="48.29842" lon="3.18205">
        <ele>66</ele>
        <time>2013-08-03T08:17:13Z</time>
      </trkpt>
      <trkpt lat="48.29841" lon="3.18213">
        <ele>67</ele>
        <time>2013-08-03T08:17:18Z</time>
      </trkpt>
      <trkpt lat="48.29841" lon="3.1822">
        <ele>67</ele>
        <time>2013-08-03T08:17:22Z</time>
      </trkpt>
      <trkpt lat="48.29843" lon="3.18227">
        <ele>67</ele>
        <time>2013-08-03T08:17:26Z</time>
      </trkpt>
      <trkpt lat="48.29845" lon="3.18233">
        <ele>67</ele>
        <time>2013-08-03T08:17:30Z</time>
      </trkpt>
      <trkpt lat="48.29848" lon="3.1824">
        <ele>67</ele>
        <time>2013-08-03T08:17:34Z</time>
      </trkpt>
      <trkpt lat="48.29849" lon="3.18247">
        <ele>67</ele>
        <time>2013-08-03T08:17:39Z</time>
      </trkpt>
      <trkpt lat="48.29851" lon="3.18253">
        <ele>67</ele>
        <time>2013-08-03T08:17:43Z</time>
      </trkpt>
      <trkpt lat="48.29851" lon="3.18257">
        <ele>67</ele>
        <time>2013-08-03T08:17:49Z</time>
      </trkpt>
      <trkpt lat="48.29846" lon="3.1826">
        <ele>67</ele>
        <time>2013-08-03T08:18:14Z</time>
      </trkpt>
      <trkpt lat="48.2984" lon="3.18266">
        <ele>67</ele>
        <time>2013-08-03T08:18:17Z</time>
      </trkpt>
      <trkpt lat="48.29836" lon="3.1827">
        <ele>67</ele>
        <time>2013-08-03T08:18:19Z</time>
      </trkpt>
      <trkpt lat="48.29832" lon="3.18275">
        <ele>71</ele>
        <time>2013-08-03T08:18:22Z</time>
      </trkpt>
      <trkpt lat="48.29828" lon="3.18278">
        <ele>71</ele>
        <time>2013-08-03T08:18:26Z</time>
      </trkpt>
      <trkpt lat="48.29824" lon="3.18282">
        <ele>71</ele>
        <time>2013-08-03T08:18:30Z</time>
      </trkpt>
      <trkpt lat="48.29819" lon="3.18282">
        <ele>71</ele>
        <time>2013-08-03T08:18:36Z</time>
      </trkpt>
      <trkpt lat="48.29814" lon="3.18285">
        <ele>71</ele>
        <time>2013-08-03T08:18:40Z</time>
      </trkpt>
      <trkpt lat="48.29809" lon="3.18286">
        <ele>72</ele>
        <time>2013-08-03T08:18:44Z</time>
      </trkpt>
      <trkpt lat="48.29804" lon="3.1829">
        <ele>72</ele>
        <time>2013-08-03T08:18:48Z</time>
      </trkpt>
      <trkpt lat="48.298" lon="3.18295">
        <ele>72</ele>
        <time>2013-08-03T08:18:53Z</time>
      </trkpt>
      <trkpt lat="48.29796" lon="3.18299">
        <ele>72</ele>
        <time>2013-08-03T08:18:57Z</time>
      </trkpt>
      <trkpt lat="48.29793" lon="3.18305">
        <ele>72</ele>
        <time>2013-08-03T08:19:01Z</time>
      </trkpt>
      <trkpt lat="48.2979" lon="3.18311">
        <ele>72</ele>
        <time>2013-08-03T08:19:06Z</time>
      </trkpt>
      <trkpt lat="48.29787" lon="3.18316">
        <ele>73</ele>
        <time>2013-08-03T08:19:10Z</time>
      </trkpt>
      <trkpt lat="48.29784" lon="3.18322">
        <ele>73</ele>
        <time>2013-08-03T08:19:15Z</time>
      </trkpt>
      <trkpt lat="48.2978" lon="3.18328">
        <ele>73</ele>
        <time>2013-08-03T08:19:21Z</time>
      </trkpt>
      <trkpt lat="48.29777" lon="3.18334">
        <ele>75</ele>
        <time>2013-08-03T08:19:25Z</time>
      </trkpt>
      <trkpt lat="48.29775" lon="3.1834">
        <ele>75</ele>
        <time>2013-08-03T08:19:29Z</time>
      </trkpt>
      <trkpt lat="48.29773" lon="3.18346">
        <ele>75</ele>
        <time>2013-08-03T08:19:33Z</time>
      </trkpt>
      <trkpt lat="48.29768" lon="3.18351">
        <ele>75</ele>
        <time>2013-08-03T08:19:38Z</time>
      </trkpt>
      <trkpt lat="48.29765" lon="3.18356">
        <ele>75</ele>
        <time>2013-08-03T08:19:42Z</time>
      </trkpt>
      <trkpt lat="48.29761" lon="3.18359">
        <ele>75</ele>
        <time>2013-08-03T08:19:49Z</time>
      </trkpt>
      <trkpt lat="48.29757" lon="3.18364">
        <ele>75</ele>
        <time>2013-08-03T08:19:53Z</time>
      </trkpt>
      <trkpt lat="48.29752" lon="3.18368">
        <ele>75</ele>
        <time>2013-08-03T08:19:58Z</time>
      </trkpt>
      <trkpt lat="48.29747" lon="3.18373">
        <ele>81</ele>
        <time>2013-08-03T08:20:03Z</time>
      </trkpt>
      <trkpt lat="48.29744" lon="3.18379">
        <ele>81</ele>
        <time>2013-08-03T08:20:07Z</time>
      </trkpt>
      <trkpt lat="48.2974" lon="3.18384">
        <ele>81</ele>
        <time>2013-08-03T08:20:12Z</time>
      </trkpt>
      <trkpt lat="48.29734" lon="3.18388">
        <ele>81</ele>
        <time>2013-08-03T08:20:28Z</time>
      </trkpt>
      <trkpt lat="48.29729" lon="3.18392">
        <ele>81</ele>
        <time>2013-08-03T08:20:36Z</time>
      </trkpt>
      <trkpt lat="48.29725" lon="3.18395">
        <ele>82</ele>
        <time>2013-08-03T08:20:39Z</time>
      </trkpt>
      <trkpt lat="48.29721" lon="3.184">
        <ele>82</ele>
        <time>2013-08-03T08:20:42Z</time>
      </trkpt>
      <trkpt lat="48.29716" lon="3.18406">
        <ele>82</ele>
        <time>2013-08-03T08:20:45Z</time>
      </trkpt>
      <trkpt lat="48.29712" lon="3.18413">
        <ele>82</ele>
        <time>2013-08-03T08:20:48Z</time>
      </trkpt>
      <trkpt lat="48.29709" lon="3.18418">
        <ele>84</ele>
        <time>2013-08-03T08:20:52Z</time>
      </trkpt>
      <trkpt lat="48.29704" lon="3.18423">
        <ele>84</ele>
        <time>2013-08-03T08:20:56Z</time>
      </trkpt>
      <trkpt lat="48.297" lon="3.18428">
        <ele>84</ele>
        <time>2013-08-03T08:21:00Z</time>
      </trkpt>
      <trkpt lat="48.29697" lon="3.18434">
        <ele>84</ele>
        <time>2013-08-03T08:21:05Z</time>
      </trkpt>
      <trkpt lat="48.29695" lon="3.18444">
        <ele>85</ele>
        <time>2013-08-03T08:21:30Z</time>
      </trkpt>
      <trkpt lat="48.2969" lon="3.18451">
        <ele>85</ele>
        <time>2013-08-03T08:21:33Z</time>
      </trkpt>
      <trkpt lat="48.29687" lon="3.18456">
        <ele>85</ele>
        <time>2013-08-03T08:21:35Z</time>
      </trkpt>
      <trkpt lat="48.29683" lon="3.18462">
        <ele>85</ele>
        <time>2013-08-03T08:21:38Z</time>
      </trkpt>
      <trkpt lat="48.29679" lon="3.18468">
        <ele>85</ele>
        <time>2013-08-03T08:21:42Z</time>
      </trkpt>
      <trkpt lat="48.29675" lon="3.18472">
        <ele>85</ele>
        <time>2013-08-03T08:21:45Z</time>
      </trkpt>
      <trkpt lat="48.2967" lon="3.18477">
        <ele>86</ele>
        <time>2013-08-03T08:21:48Z</time>
      </trkpt>
      <trkpt lat="48.29668" lon="3.18483">
        <ele>86</ele>
        <time>2013-08-03T08:21:52Z</time>
      </trkpt>
      <trkpt lat="48.29664" lon="3.18488">
        <ele>89</ele>
        <time>2013-08-03T08:21:57Z</time>
      </trkpt>
      <trkpt lat="48.2966" lon="3.18493">
        <ele>89</ele>
        <time>2013-08-03T08:22:06Z</time>
      </trkpt>
      <trkpt lat="48.29655" lon="3.18499">
        <ele>89</ele>
        <time>2013-08-03T08:22:12Z</time>
      </trkpt>
      <trkpt lat="48.29651" lon="3.18505">
        <ele>90</ele>
        <time>2013-08-03T08:22:14Z</time>
      </trkpt>
      <trkpt lat="48.29648" lon="3.1851">
        <ele>90</ele>
        <time>2013-08-03T08:22:16Z</time>
      </trkpt>
      <trkpt lat="48.29644" lon="3.18514">
        <ele>90</ele>
        <time>2013-08-03T08:22:21Z</time>
      </trkpt>
      <trkpt lat="48.2964" lon="3.1852">
        <ele>91</ele>
        <time>2013-08-03T08:22:24Z</time>
      </trkpt>
      <trkpt lat="48.29635" lon="3.18526">
        <ele>91</ele>
        <time>2013-08-03T08:22:27Z</time>
      </trkpt>
      <trkpt lat="48.29631" lon="3.18531">
        <ele>91</ele>
        <time>2013-08-03T08:22:34Z</time>
      </trkpt>
      <trkpt lat="48.29627" lon="3.18536">
        <ele>91</ele>
        <time>2013-08-03T08:22:37Z</time>
      </trkpt>
      <trkpt lat="48.29623" lon="3.1854">
        <ele>92</ele>
        <time>2013-08-03T08:22:41Z</time>
      </trkpt>
      <trkpt lat="48.29624" lon="3.18543">
        <ele>92</ele>
        <time>2013-08-03T08:22:48Z</time>
      </trkpt>
      <trkpt lat="48.2962" lon="3.18546">
        <ele>92</ele>
        <time>2013-08-03T08:22:51Z</time>
      </trkpt>
      <trkpt lat="48.29616" lon="3.18551">
        <ele>92</ele>
        <time>2013-08-03T08:22:57Z</time>
      </trkpt>
      <trkpt lat="48.29615" lon="3.18559">
        <ele>92</ele>
        <time>2013-08-03T08:23:01Z</time>
      </trkpt>
      <trkpt lat="48.29611" lon="3.18564">
        <ele>92</ele>
        <time>2013-08-03T08:23:04Z</time>
      </trkpt>
      <trkpt lat="48.29608" lon="3.1857">
        <ele>93</ele>
        <time>2013-08-03T08:23:13Z</time>
      </trkpt>
      <trkpt lat="48.29605" lon="3.18576">
        <ele>93</ele>
        <time>2013-08-03T08:23:19Z</time>
      </trkpt>
      <trkpt lat="48.29601" lon="3.18582">
        <ele>94</ele>
        <time>2013-08-03T08:23:24Z</time>
      </trkpt>
      <trkpt lat="48.29598" lon="3.18589">
        <ele>94</ele>
        <time>2013-08-03T08:23:28Z</time>
      </trkpt>
      <trkpt lat="48.29596" lon="3.18596">
        <ele>93</ele>
        <time>2013-08-03T08:23:34Z</time>
      </trkpt>
      <trkpt lat="48.29593" lon="3.18602">
        <ele>93</ele>
        <time>2013-08-03T08:23:39Z</time>
      </trkpt>
      <trkpt lat="48.2959" lon="3.18609">
        <ele>93</ele>
        <time>2013-08-03T08:23:43Z</time>
      </trkpt>
      <trkpt lat="48.29588" lon="3.18616">
        <ele>93</ele>
        <time>2013-08-03T08:23:48Z</time>
      </trkpt>
      <trkpt lat="48.29584" lon="3.18621">
        <ele>92</ele>
        <time>2013-08-03T08:23:52Z</time>
      </trkpt>
      <trkpt lat="48.29581" lon="3.18627">
        <ele>97</ele>
        <time>2013-08-03T08:23:56Z</time>
      </trkpt>
      <trkpt lat="48.29579" lon="3.18633">
        <ele>97</ele>
        <time>2013-08-03T08:24:03Z</time>
      </trkpt>
      <trkpt lat="48.29576" lon="3.18639">
        <ele>96</ele>
        <time>2013-08-03T08:24:08Z</time>
      </trkpt>
      <trkpt lat="48.29572" lon="3.18644">
        <ele>96</ele>
        <time>2013-08-03T08:24:11Z</time>
      </trkpt>
      <trkpt lat="48.2957" lon="3.1865">
        <ele>96</ele>
        <time>2013-08-03T08:24:14Z</time>
      </trkpt>
      <trkpt lat="48.29568" lon="3.18657">
        <ele>96</ele>
        <time>2013-08-03T08:24:19Z</time>
      </trkpt>
      <trkpt lat="48.29566" lon="3.18665">
        <ele>96</ele>
        <time>2013-08-03T08:24:25Z</time>
      </trkpt>
      <trkpt lat="48.29562" lon="3.18669">
        <ele>95</ele>
        <time>2013-08-03T08:24:29Z</time>
      </trkpt>
      <trkpt lat="48.29559" lon="3.18675">
        <ele>95</ele>
        <time>2013-08-03T08:24:33Z</time>
      </trkpt>
      <trkpt lat="48.29558" lon="3.18682">
        <ele>96</ele>
        <time>2013-08-03T08:24:37Z</time>
      </trkpt>
      <trkpt lat="48.29555" lon="3.18689">
        <ele>96</ele>
        <time>2013-08-03T08:24:41Z</time>
      </trkpt>
      <trkpt lat="48.29553" lon="3.18695">
        <ele>96</ele>
        <time>2013-08-03T08:24:44Z</time>
      </trkpt>
      <trkpt lat="48.29551" lon="3.18702">
        <ele>96</ele>
        <time>2013-08-03T08:24:49Z</time>
      </trkpt>
      <trkpt lat="48.29548" lon="3.18708">
        <ele>96</ele>
        <time>2013-08-03T08:24:56Z</time>
      </trkpt>
      <trkpt lat="48.29545" lon="3.18714">
        <ele>96</ele>
        <time>2013-08-03T08:24:59Z</time>
      </trkpt>
      <trkpt lat="48.29542" lon="3.18719">
        <ele>96</ele>
        <time>2013-08-03T08:25:02Z</time>
      </trkpt>
      <trkpt lat="48.29538" lon="3.18725">
        <ele>97</ele>
        <time>2013-08-03T08:25:05Z</time>
      </trkpt>
      <trkpt lat="48.29535" lon="3.18731">
        <ele>97</ele>
        <time>2013-08-03T08:25:08Z</time>
      </trkpt>
      <trkpt lat="48.29532" lon="3.18738">
        <ele>97</ele>
        <time>2013-08-03T08:25:14Z</time>
      </trkpt>
      <trkpt lat="48.29528" lon="3.18742">
        <ele>97</ele>
        <time>2013-08-03T08:25:17Z</time>
      </trkpt>
      <trkpt lat="48.29524" lon="3.18747">
        <ele>98</ele>
        <time>2013-08-03T08:25:19Z</time>
      </trkpt>
      <trkpt lat="48.2952" lon="3.18752">
        <ele>97</ele>
        <time>2013-08-03T08:25:21Z</time>
      </trkpt>
      <trkpt lat="48.29516" lon="3.18757">
        <ele>98</ele>
        <time>2013-08-03T08:25:23Z</time>
      </trkpt>
      <trkpt lat="48.29512" lon="3.18763">
        <ele>98</ele>
        <time>2013-08-03T08:25:27Z</time>
      </trkpt>
      <trkpt lat="48.29508" lon="3.18767">
        <ele>98</ele>
        <time>2013-08-03T08:25:32Z</time>
      </trkpt>
      <trkpt lat="48.29503" lon="3.18772">
        <ele>98</ele>
        <time>2013-08-03T08:25:35Z</time>
      </trkpt>
      <trkpt lat="48.29499" lon="3.18777">
        <ele>101</ele>
        <time>2013-08-03T08:25:38Z</time>
      </trkpt>
      <trkpt lat="48.29496" lon="3.18784">
        <ele>101</ele>
        <time>2013-08-03T08:25:46Z</time>
      </trkpt>
      <trkpt lat="48.29492" lon="3.18791">
        <ele>101</ele>
        <time>2013-08-03T08:25:49Z</time>
      </trkpt>
      <trkpt lat="48.29488" lon="3.18795">
        <ele>102</ele>
        <time>2013-08-03T08:25:52Z</time>
      </trkpt>
      <trkpt lat="48.29489" lon="3.18802">
        <ele>101</ele>
        <time>2013-08-03T08:26:01Z</time>
      </trkpt>
      <trkpt lat="48.29484" lon="3.18805">
        <ele>101</ele>
        <time>2013-08-03T08:26:05Z</time>
      </trkpt>
      <trkpt lat="48.2948" lon="3.18809">
        <ele>101</ele>
        <time>2013-08-03T08:26:07Z</time>
      </trkpt>
      <trkpt lat="48.29476" lon="3.18814">
        <ele>101</ele>
        <time>2013-08-03T08:26:16Z</time>
      </trkpt>
      <trkpt lat="48.29469" lon="3.18823">
        <ele>102</ele>
        <time>2013-08-03T08:26:19Z</time>
      </trkpt>
      <trkpt lat="48.29465" lon="3.18829">
        <ele>102</ele>
        <time>2013-08-03T08:26:21Z</time>
      </trkpt>
      <trkpt lat="48.29461" lon="3.18836">
        <ele>99</ele>
        <time>2013-08-03T08:26:24Z</time>
      </trkpt>
      <trkpt lat="48.29458" lon="3.18841">
        <ele>99</ele>
        <time>2013-08-03T08:26:27Z</time>
      </trkpt>
      <trkpt lat="48.29454" lon="3.18846">
        <ele>99</ele>
        <time>2013-08-03T08:26:30Z</time>
      </trkpt>
      <trkpt lat="48.2945" lon="3.1885">
        <ele>99</ele>
        <time>2013-08-03T08:26:36Z</time>
      </trkpt>
      <trkpt lat="48.29445" lon="3.18854">
        <ele>100</ele>
        <time>2013-08-03T08:26:39Z</time>
      </trkpt>
      <trkpt lat="48.2944" lon="3.18859">
        <ele>100</ele>
        <time>2013-08-03T08:26:42Z</time>
      </trkpt>
      <trkpt lat="48.29442" lon="3.18865">
        <ele>99</ele>
        <time>2013-08-03T08:26:52Z</time>
      </trkpt>
      <trkpt lat="48.29438" lon="3.18869">
        <ele>99</ele>
        <time>2013-08-03T08:26:57Z</time>
      </trkpt>
      <trkpt lat="48.29432" lon="3.18871">
        <ele>99</ele>
        <time>2013-08-03T08:27:00Z</time>
      </trkpt>
      <trkpt lat="48.29428" lon="3.18878">
        <ele>99</ele>
        <time>2013-08-03T08:27:11Z</time>
      </trkpt>
      <trkpt lat="48.2942" lon="3.18887">
        <ele>98</ele>
        <time>2013-08-03T08:27:17Z</time>
      </trkpt>
      <trkpt lat="48.29416" lon="3.1889">
        <ele>100</ele>
        <time>2013-08-03T08:27:31Z</time>
      </trkpt>
      <trkpt lat="48.2941" lon="3.18903">
        <ele>99</ele>
        <time>2013-08-03T08:27:36Z</time>
      </trkpt>
      <trkpt lat="48.29411" lon="3.18909">
        <ele>98</ele>
        <time>2013-08-03T08:27:44Z</time>
      </trkpt>
      <trkpt lat="48.29408" lon="3.18917">
        <ele>96</ele>
        <time>2013-08-03T08:27:52Z</time>
      </trkpt>
      <trkpt lat="48.29404" lon="3.18922">
        <ele>96</ele>
        <time>2013-08-03T08:27:54Z</time>
      </trkpt>
      <trkpt lat="48.294" lon="3.18929">
        <ele>96</ele>
        <time>2013-08-03T08:27:57Z</time>
      </trkpt>
      <trkpt lat="48.29398" lon="3.18937">
        <ele>95</ele>
        <time>2013-08-03T08:28:17Z</time>
      </trkpt>
      <trkpt lat="48.29397" lon="3.18946">
        <ele>95</ele>
        <time>2013-08-03T08:28:20Z</time>
      </trkpt>
      <trkpt lat="48.29395" lon="3.18953">
        <ele>95</ele>
        <time>2013-08-03T08:28:26Z</time>
      </trkpt>
      <trkpt lat="48.29392" lon="3.18961">
        <ele>94</ele>
        <time>2013-08-03T08:28:30Z</time>
      </trkpt>
      <trkpt lat="48.29389" lon="3.18966">
        <ele>94</ele>
        <time>2013-08-03T08:28:33Z</time>
      </trkpt>
      <trkpt lat="48.29389" lon="3.18973">
        <ele>94</ele>
        <time>2013-08-03T08:28:39Z</time>
      </trkpt>
      <trkpt lat="48.29386" lon="3.18978">
        <ele>94</ele>
        <time>2013-08-03T08:28:44Z</time>
      </trkpt>
      <trkpt lat="48.29383" lon="3.18985">
        <ele>94</ele>
        <time>2013-08-03T08:28:47Z</time>
      </trkpt>
      <trkpt lat="48.2938" lon="3.18992">
        <ele>93</ele>
        <time>2013-08-03T08:28:51Z</time>
      </trkpt>
      <trkpt lat="48.29379" lon="3.19">
        <ele>93</ele>
        <time>2013-08-03T08:29:01Z</time>
      </trkpt>
      <trkpt lat="48.29376" lon="3.19005">
        <ele>90</ele>
        <time>2013-08-03T08:29:03Z</time>
      </trkpt>
      <trkpt lat="48.29372" lon="3.19013">
        <ele>89</ele>
        <time>2013-08-03T08:29:06Z</time>
      </trkpt>
      <trkpt lat="48.29369" lon="3.19021">
        <ele>89</ele>
        <time>2013-08-03T08:29:09Z</time>
      </trkpt>
      <trkpt lat="48.29371" lon="3.19024">
        <ele>89</ele>
        <time>2013-08-03T08:29:21Z</time>
      </trkpt>
      <trkpt lat="48.29368" lon="3.19031">
        <ele>89</ele>
        <time>2013-08-03T08:29:24Z</time>
      </trkpt>
      <trkpt lat="48.29365" lon="3.19037">
        <ele>89</ele>
        <time>2013-08-03T08:29:26Z</time>
      </trkpt>
      <trkpt lat="48.29362" lon="3.19045">
        <ele>88</ele>
        <time>2013-08-03T08:29:29Z</time>
      </trkpt>
      <trkpt lat="48.2936" lon="3.19051">
        <ele>88</ele>
        <time>2013-08-03T08:29:32Z</time>
      </trkpt>
      <trkpt lat="48.2936" lon="3.19058">
        <ele>88</ele>
        <time>2013-08-03T08:29:40Z</time>
      </trkpt>
      <trkpt lat="48.29356" lon="3.19066">
        <ele>87</ele>
        <time>2013-08-03T08:29:44Z</time>
      </trkpt>
      <trkpt lat="48.29352" lon="3.19073">
        <ele>87</ele>
        <time>2013-08-03T08:29:47Z</time>
      </trkpt>
      <trkpt lat="48.2935" lon="3.19079">
        <ele>86</ele>
        <time>2013-08-03T08:29:51Z</time>
      </trkpt>
      <trkpt lat="48.29348" lon="3.19083">
        <ele>86</ele>
        <time>2013-08-03T08:30:01Z</time>
      </trkpt>
      <trkpt lat="48.29345" lon="3.19092">
        <ele>83</ele>
        <time>2013-08-03T08:30:06Z</time>
      </trkpt>
      <trkpt lat="48.29342" lon="3.19098">
        <ele>83</ele>
        <time>2013-08-03T08:30:10Z</time>
      </trkpt>
      <trkpt lat="48.29339" lon="3.19106">
        <ele>82</ele>
        <time>2013-08-03T08:30:16Z</time>
      </trkpt>
      <trkpt lat="48.29335" lon="3.19112">
        <ele>82</ele>
        <time>2013-08-03T08:30:20Z</time>
      </trkpt>
      <trkpt lat="48.29334" lon="3.19119">
        <ele>82</ele>
        <time>2013-08-03T08:30:23Z</time>
      </trkpt>
      <trkpt lat="48.29331" lon="3.19125">
        <ele>79</ele>
        <time>2013-08-03T08:30:28Z</time>
      </trkpt>
      <trkpt lat="48.29329" lon="3.19132">
        <ele>79</ele>
        <time>2013-08-03T08:30:33Z</time>
      </trkpt>
      <trkpt lat="48.29325" lon="3.19139">
        <ele>78</ele>
        <time>2013-08-03T08:30:38Z</time>
      </trkpt>
      <trkpt lat="48.29323" lon="3.19146">
        <ele>78</ele>
        <time>2013-08-03T08:30:43Z</time>
      </trkpt>
      <trkpt lat="48.2932" lon="3.19152">
        <ele>78</ele>
        <time>2013-08-03T08:30:48Z</time>
      </trkpt>
      <trkpt lat="48.29317" lon="3.19158">
        <ele>78</ele>
        <time>2013-08-03T08:30:54Z</time>
      </trkpt>
      <trkpt lat="48.29314" lon="3.19164">
        <ele>77</ele>
        <time>2013-08-03T08:31:00Z</time>
      </trkpt>
      <trkpt lat="48.29311" lon="3.1917">
        <ele>75</ele>
        <time>2013-08-03T08:31:06Z</time>
      </trkpt>
      <trkpt lat="48.29309" lon="3.19175">
        <ele>75</ele>
        <time>2013-08-03T08:31:11Z</time>
      </trkpt>
      <trkpt lat="48.29306" lon="3.19182">
        <ele>74</ele>
        <time>2013-08-03T08:31:19Z</time>
      </trkpt>
      <trkpt lat="48.29303" lon="3.19188">
        <ele>74</ele>
        <time>2013-08-03T08:31:24Z</time>
      </trkpt>
      <trkpt lat="48.293" lon="3.19195">
        <ele>74</ele>
        <time>2013-08-03T08:31:29Z</time>
      </trkpt>
      <trkpt lat="48.29298" lon="3.19197">
        <ele>74</ele>
        <time>2013-08-03T08:31:35Z</time>
      </trkpt>
      <trkpt lat="48.29295" lon="3.19203">
        <ele>74</ele>
        <time>2013-08-03T08:31:39Z</time>
      </trkpt>
      <trkpt lat="48.29292" lon="3.19209">
        <ele>74</ele>
        <time>2013-08-03T08:31:43Z</time>
      </trkpt>
      <trkpt lat="48.29289" lon="3.19215">
        <ele>74</ele>
        <time>2013-08-03T08:31:48Z</time>
      </trkpt>
      <trkpt lat="48.29286" lon="3.19222">
        <ele>74</ele>
        <time>2013-08-03T08:31:53Z</time>
      </trkpt>
      <trkpt lat="48.29284" lon="3.19228">
        <ele>73</ele>
        <time>2013-08-03T08:31:58Z</time>
      </trkpt>
      <trkpt lat="48.29281" lon="3.19234">
        <ele>73</ele>
        <time>2013-08-03T08:32:02Z</time>
      </trkpt>
      <trkpt lat="48.29278" lon="3.19239">
        <ele>73</ele>
        <time>2013-08-03T08:32:08Z</time>
      </trkpt>
      <trkpt lat="48.29275" lon="3.19247">
        <ele>73</ele>
        <time>2013-08-03T08:32:27Z</time>
      </trkpt>
      <trkpt lat="48.29272" lon="3.19254">
        <ele>72</ele>
        <time>2013-08-03T08:32:36Z</time>
      </trkpt>
      <trkpt lat="48.29268" lon="3.19265">
        <ele>73</ele>
        <time>2013-08-03T08:32:44Z</time>
      </trkpt>
      <trkpt lat="48.29264" lon="3.19271">
        <ele>73</ele>
        <time>2013-08-03T08:32:50Z</time>
      </trkpt>
      <trkpt lat="48.29262" lon="3.19277">
        <ele>73</ele>
        <time>2013-08-03T08:32:53Z</time>
      </trkpt>
      <trkpt lat="48.29258" lon="3.19283">
        <ele>73</ele>
        <time>2013-08-03T08:32:57Z</time>
      </trkpt>
      <trkpt lat="48.29255" lon="3.19288">
        <ele>73</ele>
        <time>2013-08-03T08:33:03Z</time>
      </trkpt>
      <trkpt lat="48.29251" lon="3.19294">
        <ele>73</ele>
        <time>2013-08-03T08:33:10Z</time>
      </trkpt>
      <trkpt lat="48.29248" lon="3.193">
        <ele>77</ele>
        <time>2013-08-03T08:33:14Z</time>
      </trkpt>
      <trkpt lat="48.29246" lon="3.19306">
        <ele>77</ele>
        <time>2013-08-03T08:33:19Z</time>
      </trkpt>
      <trkpt lat="48.29244" lon="3.19313">
        <ele>77</ele>
        <time>2013-08-03T08:33:24Z</time>
      </trkpt>
      <trkpt lat="48.29244" lon="3.19321">
        <ele>77</ele>
        <time>2013-08-03T08:33:29Z</time>
      </trkpt>
      <trkpt lat="48.29241" lon="3.19327">
        <ele>77</ele>
        <time>2013-08-03T08:33:32Z</time>
      </trkpt>
      <trkpt lat="48.2924" lon="3.19334">
        <ele>78</ele>
        <time>2013-08-03T08:33:37Z</time>
      </trkpt>
      <trkpt lat="48.2924" lon="3.19337">
        <ele>78</ele>
        <time>2013-08-03T08:33:42Z</time>
      </trkpt>
      <trkpt lat="48.2924" lon="3.19345">
        <ele>79</ele>
        <time>2013-08-03T08:33:48Z</time>
      </trkpt>
      <trkpt lat="48.29241" lon="3.19352">
        <ele>80</ele>
        <time>2013-08-03T08:33:53Z</time>
      </trkpt>
      <trkpt lat="48.29242" lon="3.19359">
        <ele>80</ele>
        <time>2013-08-03T08:34:00Z</time>
      </trkpt>
      <trkpt lat="48.29244" lon="3.19367">
        <ele>80</ele>
        <time>2013-08-03T08:34:18Z</time>
      </trkpt>
      <trkpt lat="48.29244" lon="3.19376">
        <ele>81</ele>
        <time>2013-08-03T08:34:25Z</time>
      </trkpt>
      <trkpt lat="48.29245" lon="3.19384">
        <ele>81</ele>
        <time>2013-08-03T08:34:30Z</time>
      </trkpt>
      <trkpt lat="48.29247" lon="3.19392">
        <ele>80</ele>
        <time>2013-08-03T08:34:36Z</time>
      </trkpt>
      <trkpt lat="48.29247" lon="3.19401">
        <ele>80</ele>
        <time>2013-08-03T08:34:40Z</time>
      </trkpt>
      <trkpt lat="48.29246" lon="3.19404">
        <ele>80</ele>
        <time>2013-08-03T08:34:46Z</time>
      </trkpt>
      <trkpt lat="48.29245" lon="3.19412">
        <ele>79</ele>
        <time>2013-08-03T08:34:49Z</time>
      </trkpt>
      <trkpt lat="48.29245" lon="3.19419">
        <ele>80</ele>
        <time>2013-08-03T08:34:52Z</time>
      </trkpt>
      <trkpt lat="48.29244" lon="3.19426">
        <ele>81</ele>
        <time>2013-08-03T08:34:56Z</time>
      </trkpt>
      <trkpt lat="48.29244" lon="3.19433">
        <ele>82</ele>
        <time>2013-08-03T08:35:00Z</time>
      </trkpt>
      <trkpt lat="48.29243" lon="3.19441">
        <ele>83</ele>
        <time>2013-08-03T08:35:03Z</time>
      </trkpt>
      <trkpt lat="48.2924" lon="3.19447">
        <ele>84</ele>
        <time>2013-08-03T08:35:07Z</time>
      </trkpt>
      <trkpt lat="48.29239" lon="3.19454">
        <ele>84</ele>
        <time>2013-08-03T08:35:10Z</time>
      </trkpt>
      <trkpt lat="48.29243" lon="3.19457">
        <ele>84</ele>
        <time>2013-08-03T08:35:15Z</time>
      </trkpt>
      <trkpt lat="48.29243" lon="3.19465">
        <ele>85</ele>
        <time>2013-08-03T08:35:37Z</time>
      </trkpt>
      <trkpt lat="48.29244" lon="3.19473">
        <ele>85</ele>
        <time>2013-08-03T08:35:44Z</time>
      </trkpt>
      <trkpt lat="48.29246" lon="3.19482">
        <ele>85</ele>
        <time>2013-08-03T08:35:47Z</time>
      </trkpt>
      <trkpt lat="48.29246" lon="3.19489">
        <ele>84</ele>
        <time>2013-08-03T08:35:50Z</time>
      </trkpt>
      <trkpt lat="48.29245" lon="3.19497">
        <ele>84</ele>
        <time>2013-08-03T08:35:54Z</time>
      </trkpt>
      <trkpt lat="48.29244" lon="3.19504">
        <ele>84</ele>
        <time>2013-08-03T08:36:00Z</time>
      </trkpt>
      <trkpt lat="48.29243" lon="3.19512">
        <ele>84</ele>
        <time>2013-08-03T08:36:04Z</time>
      </trkpt>
      <trkpt lat="48.29241" lon="3.1952">
        <ele>85</ele>
        <time>2013-08-03T08:36:09Z</time>
      </trkpt>
      <trkpt lat="48.29239" lon="3.19526">
        <ele>85</ele>
        <time>2013-08-03T08:36:13Z</time>
      </trkpt>
      <trkpt lat="48.29236" lon="3.19531">
        <ele>85</ele>
        <time>2013-08-03T08:36:20Z</time>
      </trkpt>
      <trkpt lat="48.29232" lon="3.19536">
        <ele>85</ele>
        <time>2013-08-03T08:36:24Z</time>
      </trkpt>
      <trkpt lat="48.29227" lon="3.1954">
        <ele>85</ele>
        <time>2013-08-03T08:36:28Z</time>
      </trkpt>
      <trkpt lat="48.29221" lon="3.19543">
        <ele>86</ele>
        <time>2013-08-03T08:36:36Z</time>
      </trkpt>
      <trkpt lat="48.29217" lon="3.19547">
        <ele>86</ele>
        <time>2013-08-03T08:36:40Z</time>
      </trkpt>
      <trkpt lat="48.29212" lon="3.19553">
        <ele>86</ele>
        <time>2013-08-03T08:36:44Z</time>
      </trkpt>
      <trkpt lat="48.29208" lon="3.19558">
        <ele>86</ele>
        <time>2013-08-03T08:36:47Z</time>
      </trkpt>
      <trkpt lat="48.29204" lon="3.19562">
        <ele>87</ele>
        <time>2013-08-03T08:36:50Z</time>
      </trkpt>
      <trkpt lat="48.292" lon="3.19568">
        <ele>87</ele>
        <time>2013-08-03T08:36:54Z</time>
      </trkpt>
      <trkpt lat="48.29197" lon="3.19573">
        <ele>88</ele>
        <time>2013-08-03T08:36:58Z</time>
      </trkpt>
      <trkpt lat="48.29194" lon="3.19574">
        <ele>88</ele>
        <time>2013-08-03T08:37:05Z</time>
      </trkpt>
      <trkpt lat="48.2919" lon="3.19578">
        <ele>89</ele>
        <time>2013-08-03T08:37:10Z</time>
      </trkpt>
      <trkpt lat="48.29186" lon="3.19581">
        <ele>89</ele>
        <time>2013-08-03T08:37:15Z</time>
      </trkpt>
      <trkpt lat="48.29182" lon="3.19585">
        <ele>87</ele>
        <time>2013-08-03T08:37:19Z</time>
      </trkpt>
      <trkpt lat="48.29178" lon="3.1959">
        <ele>88</ele>
        <time>2013-08-03T08:37:26Z</time>
      </trkpt>
      <trkpt lat="48.29175" lon="3.19596">
        <ele>87</ele>
        <time>2013-08-03T08:37:32Z</time>
      </trkpt>
      <trkpt lat="48.29172" lon="3.19599">
        <ele>87</ele>
        <time>2013-08-03T08:37:40Z</time>
      </trkpt>
      <trkpt lat="48.29168" lon="3.19603">
        <ele>86</ele>
        <time>2013-08-03T08:37:49Z</time>
      </trkpt>
      <trkpt lat="48.29163" lon="3.19607">
        <ele>93</ele>
        <time>2013-08-03T08:37:53Z</time>
      </trkpt>
      <trkpt lat="48.29158" lon="3.19609">
        <ele>93</ele>
        <time>2013-08-03T08:37:57Z</time>
      </trkpt>
      <trkpt lat="48.29155" lon="3.19614">
        <ele>93</ele>
        <time>2013-08-03T08:38:01Z</time>
      </trkpt>
      <trkpt lat="48.29151" lon="3.1962">
        <ele>93</ele>
        <time>2013-08-03T08:38:05Z</time>
      </trkpt>
      <trkpt lat="48.29146" lon="3.19623">
        <ele>93</ele>
        <time>2013-08-03T08:38:09Z</time>
      </trkpt>
      <trkpt lat="48.29145" lon="3.1963">
        <ele>92</ele>
        <time>2013-08-03T08:38:13Z</time>
      </trkpt>
      <trkpt lat="48.29142" lon="3.19636">
        <ele>92</ele>
        <time>2013-08-03T08:38:18Z</time>
      </trkpt>
      <trkpt lat="48.2914" lon="3.19643">
        <ele>92</ele>
        <time>2013-08-03T08:38:22Z</time>
      </trkpt>
      <trkpt lat="48.29137" lon="3.19649">
        <ele>92</ele>
        <time>2013-08-03T08:38:26Z</time>
      </trkpt>
      <trkpt lat="48.29134" lon="3.19656">
        <ele>92</ele>
        <time>2013-08-03T08:38:30Z</time>
      </trkpt>
      <trkpt lat="48.2913" lon="3.19661">
        <ele>92</ele>
        <time>2013-08-03T08:38:35Z</time>
      </trkpt>
      <trkpt lat="48.29126" lon="3.19668">
        <ele>87</ele>
        <time>2013-08-03T08:38:39Z</time>
      </trkpt>
      <trkpt lat="48.29123" lon="3.19674">
        <ele>87</ele>
        <time>2013-08-03T08:38:44Z</time>
      </trkpt>
      <trkpt lat="48.29121" lon="3.19681">
        <ele>87</ele>
        <time>2013-08-03T08:38:49Z</time>
      </trkpt>
      <trkpt lat="48.29118" lon="3.19687">
        <ele>87</ele>
        <time>2013-08-03T08:38:54Z</time>
      </trkpt>
      <trkpt lat="48.29114" lon="3.19693">
        <ele>87</ele>
        <time>2013-08-03T08:38:59Z</time>
      </trkpt>
      <trkpt lat="48.29112" lon="3.19697">
        <ele>87</ele>
        <time>2013-08-03T08:39:06Z</time>
      </trkpt>
      <trkpt lat="48.29108" lon="3.19702">
        <ele>87</ele>
        <time>2013-08-03T08:39:21Z</time>
      </trkpt>
      <trkpt lat="48.29105" lon="3.19707">
        <ele>87</ele>
        <time>2013-08-03T08:39:25Z</time>
      </trkpt>
      <trkpt lat="48.29102" lon="3.19713">
        <ele>87</ele>
        <time>2013-08-03T08:39:29Z</time>
      </trkpt>
      <trkpt lat="48.29099" lon="3.19721">
        <ele>86</ele>
        <time>2013-08-03T08:39:33Z</time>
      </trkpt>
      <trkpt lat="48.29096" lon="3.19728">
        <ele>86</ele>
        <time>2013-08-03T08:39:37Z</time>
      </trkpt>
      <trkpt lat="48.29093" lon="3.19735">
        <ele>87</ele>
        <time>2013-08-03T08:39:41Z</time>
      </trkpt>
      <trkpt lat="48.2909" lon="3.19742">
        <ele>87</ele>
        <time>2013-08-03T08:39:44Z</time>
      </trkpt>
      <trkpt lat="48.29087" lon="3.19748">
        <ele>88</ele>
        <time>2013-08-03T08:39:47Z</time>
      </trkpt>
      <trkpt lat="48.29085" lon="3.19752">
        <ele>87</ele>
        <time>2013-08-03T08:39:54Z</time>
      </trkpt>
      <trkpt lat="48.29082" lon="3.19757">
        <ele>88</ele>
        <time>2013-08-03T08:39:58Z</time>
      </trkpt>
      <trkpt lat="48.29079" lon="3.19763">
        <ele>88</ele>
        <time>2013-08-03T08:40:02Z</time>
      </trkpt>
      <trkpt lat="48.29075" lon="3.1977">
        <ele>87</ele>
        <time>2013-08-03T08:40:06Z</time>
      </trkpt>
      <trkpt lat="48.29074" lon="3.19772">
        <ele>87</ele>
        <time>2013-08-03T08:40:12Z</time>
      </trkpt>
      <trkpt lat="48.29071" lon="3.19778">
        <ele>87</ele>
        <time>2013-08-03T08:40:15Z</time>
      </trkpt>
      <trkpt lat="48.29067" lon="3.19783">
        <ele>87</ele>
        <time>2013-08-03T08:40:19Z</time>
      </trkpt>
      <trkpt lat="48.29063" lon="3.19789">
        <ele>86</ele>
        <time>2013-08-03T08:40:23Z</time>
      </trkpt>
      <trkpt lat="48.2906" lon="3.19795">
        <ele>86</ele>
        <time>2013-08-03T08:40:27Z</time>
      </trkpt>
      <trkpt lat="48.29056" lon="3.19801">
        <ele>86</ele>
        <time>2013-08-03T08:40:31Z</time>
      </trkpt>
      <trkpt lat="48.29053" lon="3.19806">
        <ele>86</ele>
        <time>2013-08-03T08:40:34Z</time>
      </trkpt>
      <trkpt lat="48.29049" lon="3.19811">
        <ele>85</ele>
        <time>2013-08-03T08:40:38Z</time>
      </trkpt>
      <trkpt lat="48.29045" lon="3.19816">
        <ele>85</ele>
        <time>2013-08-03T08:40:41Z</time>
      </trkpt>
      <trkpt lat="48.29041" lon="3.19822">
        <ele>85</ele>
        <time>2013-08-03T08:40:45Z</time>
      </trkpt>
      <trkpt lat="48.29037" lon="3.19827">
        <ele>86</ele>
        <time>2013-08-03T08:40:49Z</time>
      </trkpt>
      <trkpt lat="48.29033" lon="3.19832">
        <ele>86</ele>
        <time>2013-08-03T08:40:53Z</time>
      </trkpt>
      <trkpt lat="48.29029" lon="3.19837">
        <ele>80</ele>
        <time>2013-08-03T08:40:57Z</time>
      </trkpt>
      <trkpt lat="48.29026" lon="3.19842">
        <ele>80</ele>
        <time>2013-08-03T08:41:02Z</time>
      </trkpt>
      <trkpt lat="48.29022" lon="3.19848">
        <ele>80</ele>
        <time>2013-08-03T08:41:08Z</time>
      </trkpt>
      <trkpt lat="48.2902" lon="3.19854">
        <ele>80</ele>
        <time>2013-08-03T08:41:12Z</time>
      </trkpt>
      <trkpt lat="48.29018" lon="3.19861">
        <ele>80</ele>
        <time>2013-08-03T08:41:21Z</time>
      </trkpt>
      <trkpt lat="48.29018" lon="3.19869">
        <ele>79</ele>
        <time>2013-08-03T08:41:42Z</time>
      </trkpt>
      <trkpt lat="48.29016" lon="3.19875">
        <ele>79</ele>
        <time>2013-08-03T08:41:46Z</time>
      </trkpt>
      <trkpt lat="48.29015" lon="3.19883">
        <ele>78</ele>
        <time>2013-08-03T08:41:51Z</time>
      </trkpt>
      <trkpt lat="48.29013" lon="3.19889">
        <ele>78</ele>
        <time>2013-08-03T08:42:03Z</time>
      </trkpt>
      <trkpt lat="48.29012" lon="3.19893">
        <ele>78</ele>
        <time>2013-08-03T08:42:14Z</time>
      </trkpt>
      <trkpt lat="48.29011" lon="3.19903">
        <ele>78</ele>
        <time>2013-08-03T08:42:26Z</time>
      </trkpt>
      <trkpt lat="48.29008" lon="3.19911">
        <ele>78</ele>
        <time>2013-08-03T08:42:30Z</time>
      </trkpt>
      <trkpt lat="48.29005" lon="3.19918">
        <ele>77</ele>
        <time>2013-08-03T08:42:34Z</time>
      </trkpt>
      <trkpt lat="48.29002" lon="3.19925">
        <ele>76</ele>
        <time>2013-08-03T08:42:37Z</time>
      </trkpt>
      <trkpt lat="48.29002" lon="3.19933">
        <ele>75</ele>
        <time>2013-08-03T08:42:42Z</time>
      </trkpt>
      <trkpt lat="48.29002" lon="3.1994">
        <ele>74</ele>
        <time>2013-08-03T08:42:48Z</time>
      </trkpt>
      <trkpt lat="48.28999" lon="3.19948">
        <ele>82</ele>
        <time>2013-08-03T08:42:52Z</time>
      </trkpt>
      <trkpt lat="48.28997" lon="3.19954">
        <ele>82</ele>
        <time>2013-08-03T08:42:56Z</time>
      </trkpt>
      <trkpt lat="48.28993" lon="3.19959">
        <ele>82</ele>
        <time>2013-08-03T08:43:00Z</time>
      </trkpt>
      <trkpt lat="48.28993" lon="3.19966">
        <ele>81</ele>
        <time>2013-08-03T08:43:09Z</time>
      </trkpt>
      <trkpt lat="48.28989" lon="3.19974">
        <ele>81</ele>
        <time>2013-08-03T08:43:14Z</time>
      </trkpt>
      <trkpt lat="48.28986" lon="3.1998">
        <ele>80</ele>
        <time>2013-08-03T08:43:18Z</time>
      </trkpt>
      <trkpt lat="48.28983" lon="3.19986">
        <ele>80</ele>
        <time>2013-08-03T08:43:22Z</time>
      </trkpt>
      <trkpt lat="48.2898" lon="3.19992">
        <ele>80</ele>
        <time>2013-08-03T08:43:29Z</time>
      </trkpt>
      <trkpt lat="48.28978" lon="3.19998">
        <ele>80</ele>
        <time>2013-08-03T08:43:32Z</time>
      </trkpt>
      <trkpt lat="48.28976" lon="3.20006">
        <ele>77</ele>
        <time>2013-08-03T08:43:35Z</time>
      </trkpt>
      <trkpt lat="48.28974" lon="3.20014">
        <ele>78</ele>
        <time>2013-08-03T08:43:39Z</time>
      </trkpt>
      <trkpt lat="48.28971" lon="3.20019">
        <ele>78</ele>
        <time>2013-08-03T08:43:43Z</time>
      </trkpt>
      <trkpt lat="48.28967" lon="3.20024">
        <ele>78</ele>
        <time>2013-08-03T08:43:47Z</time>
      </trkpt>
      <trkpt lat="48.28964" lon="3.2003">
        <ele>79</ele>
        <time>2013-08-03T08:43:52Z</time>
      </trkpt>
      <trkpt lat="48.28962" lon="3.20036">
        <ele>79</ele>
        <time>2013-08-03T08:43:55Z</time>
      </trkpt>
      <trkpt lat="48.28959" lon="3.20042">
        <ele>79</ele>
        <time>2013-08-03T08:43:58Z</time>
      </trkpt>
      <trkpt lat="48.28957" lon="3.20044">
        <ele>79</ele>
        <time>2013-08-03T08:44:04Z</time>
      </trkpt>
      <trkpt lat="48.28953" lon="3.2005">
        <ele>79</ele>
        <time>2013-08-03T08:44:11Z</time>
      </trkpt>
      <trkpt lat="48.2895" lon="3.2006">
        <ele>79</ele>
        <time>2013-08-03T08:44:19Z</time>
      </trkpt>
      <trkpt lat="48.28948" lon="3.20066">
        <ele>79</ele>
        <time>2013-08-03T08:44:23Z</time>
      </trkpt>
      <trkpt lat="48.28945" lon="3.20071">
        <ele>79</ele>
        <time>2013-08-03T08:44:27Z</time>
      </trkpt>
      <trkpt lat="48.28941" lon="3.20076">
        <ele>79</ele>
        <time>2013-08-03T08:44:31Z</time>
      </trkpt>
      <trkpt lat="48.28936" lon="3.20081">
        <ele>80</ele>
        <time>2013-08-03T08:44:35Z</time>
      </trkpt>
      <trkpt lat="48.28932" lon="3.20084">
        <ele>77</ele>
        <time>2013-08-03T08:44:39Z</time>
      </trkpt>
      <trkpt lat="48.28927" lon="3.20091">
        <ele>78</ele>
        <time>2013-08-03T08:44:51Z</time>
      </trkpt>
      <trkpt lat="48.28923" lon="3.20093">
        <ele>78</ele>
        <time>2013-08-03T08:44:55Z</time>
      </trkpt>
      <trkpt lat="48.28918" lon="3.20094">
        <ele>78</ele>
        <time>2013-08-03T08:45:00Z</time>
      </trkpt>
      <trkpt lat="48.28913" lon="3.20095">
        <ele>81</ele>
        <time>2013-08-03T08:45:06Z</time>
      </trkpt>
      <trkpt lat="48.28908" lon="3.20095">
        <ele>81</ele>
        <time>2013-08-03T08:45:11Z</time>
      </trkpt>
      <trkpt lat="48.28903" lon="3.20095">
        <ele>81</ele>
        <time>2013-08-03T08:45:17Z</time>
      </trkpt>
      <trkpt lat="48.28898" lon="3.20096">
        <ele>81</ele>
        <time>2013-08-03T08:45:21Z</time>
      </trkpt>
      <trkpt lat="48.28894" lon="3.20099">
        <ele>81</ele>
        <time>2013-08-03T08:45:24Z</time>
      </trkpt>
      <trkpt lat="48.28889" lon="3.201">
        <ele>81</ele>
        <time>2013-08-03T08:45:30Z</time>
      </trkpt>
      <trkpt lat="48.28884" lon="3.201">
        <ele>81</ele>
        <time>2013-08-03T08:45:36Z</time>
      </trkpt>
      <trkpt lat="48.28879" lon="3.20102">
        <ele>81</ele>
        <time>2013-08-03T08:45:41Z</time>
      </trkpt>
      <trkpt lat="48.28874" lon="3.20103">
        <ele>82</ele>
        <time>2013-08-03T08:45:47Z</time>
      </trkpt>
      <trkpt lat="48.2887" lon="3.20101">
        <ele>82</ele>
        <time>2013-08-03T08:45:52Z</time>
      </trkpt>
      <trkpt lat="48.28865" lon="3.201">
        <ele>82</ele>
        <time>2013-08-03T08:45:58Z</time>
      </trkpt>
      <trkpt lat="48.28861" lon="3.20098">
        <ele>82</ele>
        <time>2013-08-03T08:46:02Z</time>
      </trkpt>
      <trkpt lat="48.28853" lon="3.20094">
        <ele>83</ele>
        <time>2013-08-03T08:46:14Z</time>
      </trkpt>
      <trkpt lat="48.2885" lon="3.20088">
        <ele>84</ele>
        <time>2013-08-03T08:46:31Z</time>
      </trkpt>
      <trkpt lat="48.28846" lon="3.20088">
        <ele>84</ele>
        <time>2013-08-03T08:47:11Z</time>
      </trkpt>
      <trkpt lat="48.28841" lon="3.20089">
        <ele>85</ele>
        <time>2013-08-03T08:47:16Z</time>
      </trkpt>
      <trkpt lat="48.28837" lon="3.20088">
        <ele>86</ele>
        <time>2013-08-03T08:47:49Z</time>
      </trkpt>
      <trkpt lat="48.28833" lon="3.20087">
        <ele>86</ele>
        <time>2013-08-03T08:47:54Z</time>
      </trkpt>
      <trkpt lat="48.28828" lon="3.20089">
        <ele>86</ele>
        <time>2013-08-03T08:48:01Z</time>
      </trkpt>
      <trkpt lat="48.28823" lon="3.20091">
        <ele>85</ele>
        <time>2013-08-03T08:48:06Z</time>
      </trkpt>
      <trkpt lat="48.28818" lon="3.20092">
        <ele>85</ele>
        <time>2013-08-03T08:48:10Z</time>
      </trkpt>
      <trkpt lat="48.28813" lon="3.20092">
        <ele>85</ele>
        <time>2013-08-03T08:48:14Z</time>
      </trkpt>
      <trkpt lat="48.28808" lon="3.20094">
        <ele>85</ele>
        <time>2013-08-03T08:48:20Z</time>
      </trkpt>
      <trkpt lat="48.28803" lon="3.20095">
        <ele>84</ele>
        <time>2013-08-03T08:48:25Z</time>
      </trkpt>
      <trkpt lat="48.28798" lon="3.20097">
        <ele>84</ele>
        <time>2013-08-03T08:48:29Z</time>
      </trkpt>
      <trkpt lat="48.28794" lon="3.201">
        <ele>84</ele>
        <time>2013-08-03T08:48:35Z</time>
      </trkpt>
      <trkpt lat="48.2877" lon="3.20112">
        <ele>84</ele>
        <time>2013-08-03T08:49:06Z</time>
      </trkpt>
      <trkpt lat="48.28765" lon="3.20114">
        <ele>84</ele>
        <time>2013-08-03T08:49:14Z</time>
      </trkpt>
      <trkpt lat="48.2876" lon="3.20116">
        <ele>84</ele>
        <time>2013-08-03T08:49:21Z</time>
      </trkpt>
      <trkpt lat="48.28755" lon="3.2012">
        <ele>83</ele>
        <time>2013-08-03T08:49:26Z</time>
      </trkpt>
      <trkpt lat="48.2875" lon="3.20121">
        <ele>83</ele>
        <time>2013-08-03T08:49:32Z</time>
      </trkpt>
      <trkpt lat="48.28745" lon="3.20122">
        <ele>80</ele>
        <time>2013-08-03T08:49:38Z</time>
      </trkpt>
      <trkpt lat="48.28741" lon="3.20121">
        <ele>80</ele>
        <time>2013-08-03T08:49:43Z</time>
      </trkpt>
      <trkpt lat="48.28738" lon="3.20118">
        <ele>80</ele>
        <time>2013-08-03T08:49:50Z</time>
      </trkpt>
      <trkpt lat="48.28738" lon="3.20112">
        <ele>81</ele>
        <time>2013-08-03T08:49:59Z</time>
      </trkpt>
      <trkpt lat="48.28734" lon="3.20109">
        <ele>81</ele>
        <time>2013-08-03T08:50:07Z</time>
      </trkpt>
      <trkpt lat="48.28729" lon="3.20108">
        <ele>80</ele>
        <time>2013-08-03T08:50:12Z</time>
      </trkpt>
      <trkpt lat="48.28724" lon="3.20106">
        <ele>80</ele>
        <time>2013-08-03T08:50:17Z</time>
      </trkpt>
      <trkpt lat="48.2872" lon="3.20107">
        <ele>80</ele>
        <time>2013-08-03T08:50:22Z</time>
      </trkpt>
      <trkpt lat="48.28712" lon="3.20106">
        <ele>79</ele>
        <time>2013-08-03T08:50:35Z</time>
      </trkpt>
      <trkpt lat="48.28707" lon="3.20106">
        <ele>79</ele>
        <time>2013-08-03T08:50:40Z</time>
      </trkpt>
      <trkpt lat="48.28703" lon="3.2011">
        <ele>78</ele>
        <time>2013-08-03T08:50:49Z</time>
      </trkpt>
      <trkpt lat="48.28699" lon="3.20113">
        <ele>78</ele>
        <time>2013-08-03T08:50:56Z</time>
      </trkpt>
      <trkpt lat="48.28694" lon="3.20118">
        <ele>78</ele>
        <time>2013-08-03T08:51:05Z</time>
      </trkpt>
      <trkpt lat="48.28691" lon="3.20118">
        <ele>78</ele>
        <time>2013-08-03T08:51:29Z</time>
      </trkpt>
      <trkpt lat="48.28694" lon="3.20125">
        <ele>77</ele>
        <time>2013-08-03T08:52:49Z</time>
      </trkpt>
      <trkpt lat="48.28704" lon="3.2016">
        <ele>77</ele>
        <time>2013-08-03T08:53:16Z</time>
      </trkpt>
      <trkpt lat="48.28709" lon="3.20162">
        <ele>77</ele>
        <time>2013-08-03T08:53:20Z</time>
      </trkpt>
      <trkpt lat="48.28714" lon="3.20165">
        <ele>77</ele>
        <time>2013-08-03T08:53:24Z</time>
      </trkpt>
      <trkpt lat="48.28718" lon="3.20169">
        <ele>74</ele>
        <time>2013-08-03T08:53:28Z</time>
      </trkpt>
      <trkpt lat="48.28722" lon="3.20173">
        <ele>75</ele>
        <time>2013-08-03T08:53:32Z</time>
      </trkpt>
      <trkpt lat="48.28727" lon="3.20179">
        <ele>75</ele>
        <time>2013-08-03T08:53:36Z</time>
      </trkpt>
      <trkpt lat="48.28729" lon="3.20185">
        <ele>75</ele>
        <time>2013-08-03T08:53:41Z</time>
      </trkpt>
      <trkpt lat="48.28729" lon="3.20193">
        <ele>75</ele>
        <time>2013-08-03T08:53:46Z</time>
      </trkpt>
      <trkpt lat="48.28731" lon="3.20201">
        <ele>74</ele>
        <time>2013-08-03T08:53:50Z</time>
      </trkpt>
      <trkpt lat="48.28733" lon="3.20207">
        <ele>74</ele>
        <time>2013-08-03T08:53:53Z</time>
      </trkpt>
      <trkpt lat="48.28737" lon="3.20213">
        <ele>74</ele>
        <time>2013-08-03T08:53:56Z</time>
      </trkpt>
      <trkpt lat="48.28739" lon="3.20218">
        <ele>74</ele>
        <time>2013-08-03T08:53:59Z</time>
      </trkpt>
      <trkpt lat="48.28741" lon="3.20225">
        <ele>74</ele>
        <time>2013-08-03T08:54:03Z</time>
      </trkpt>
      <trkpt lat="48.28742" lon="3.20233">
        <ele>74</ele>
        <time>2013-08-03T08:54:07Z</time>
      </trkpt>
      <trkpt lat="48.28743" lon="3.20236">
        <ele>74</ele>
        <time>2013-08-03T08:54:13Z</time>
      </trkpt>
      <trkpt lat="48.28745" lon="3.20244">
        <ele>74</ele>
        <time>2013-08-03T08:54:19Z</time>
      </trkpt>
      <trkpt lat="48.28746" lon="3.20251">
        <ele>74</ele>
        <time>2013-08-03T08:54:23Z</time>
      </trkpt>
      <trkpt lat="48.28746" lon="3.20258">
        <ele>73</ele>
        <time>2013-08-03T08:54:28Z</time>
      </trkpt>
      <trkpt lat="48.28747" lon="3.20266">
        <ele>72</ele>
        <time>2013-08-03T08:54:33Z</time>
      </trkpt>
      <trkpt lat="48.28747" lon="3.20273">
        <ele>72</ele>
        <time>2013-08-03T08:54:38Z</time>
      </trkpt>
      <trkpt lat="48.28747" lon="3.20281">
        <ele>71</ele>
        <time>2013-08-03T08:54:43Z</time>
      </trkpt>
      <trkpt lat="48.2875" lon="3.20287">
        <ele>71</ele>
        <time>2013-08-03T08:54:47Z</time>
      </trkpt>
      <trkpt lat="48.2875" lon="3.20294">
        <ele>73</ele>
        <time>2013-08-03T08:54:52Z</time>
      </trkpt>
      <trkpt lat="48.28749" lon="3.20302">
        <ele>70</ele>
        <time>2013-08-03T08:54:58Z</time>
      </trkpt>
      <trkpt lat="48.28749" lon="3.2031">
        <ele>70</ele>
        <time>2013-08-03T08:55:03Z</time>
      </trkpt>
      <trkpt lat="48.2875" lon="3.20318">
        <ele>70</ele>
        <time>2013-08-03T08:55:07Z</time>
      </trkpt>
      <trkpt lat="48.28751" lon="3.20326">
        <ele>71</ele>
        <time>2013-08-03T08:55:11Z</time>
      </trkpt>
      <trkpt lat="48.28753" lon="3.20332">
        <ele>70</ele>
        <time>2013-08-03T08:55:15Z</time>
      </trkpt>
      <trkpt lat="48.28754" lon="3.2034">
        <ele>70</ele>
        <time>2013-08-03T08:55:23Z</time>
      </trkpt>
      <trkpt lat="48.28754" lon="3.20349">
        <ele>69</ele>
        <time>2013-08-03T08:55:27Z</time>
      </trkpt>
      <trkpt lat="48.28756" lon="3.20356">
        <ele>69</ele>
        <time>2013-08-03T08:55:31Z</time>
      </trkpt>
      <trkpt lat="48.28757" lon="3.20365">
        <ele>69</ele>
        <time>2013-08-03T08:55:36Z</time>
      </trkpt>
      <trkpt lat="48.28755" lon="3.20372">
        <ele>69</ele>
        <time>2013-08-03T08:55:40Z</time>
      </trkpt>
      <trkpt lat="48.28751" lon="3.20376">
        <ele>69</ele>
        <time>2013-08-03T08:55:43Z</time>
      </trkpt>
      <trkpt lat="48.28746" lon="3.20378">
        <ele>68</ele>
        <time>2013-08-03T08:55:47Z</time>
      </trkpt>
      <trkpt lat="48.28744" lon="3.20384">
        <ele>68</ele>
        <time>2013-08-03T08:55:54Z</time>
      </trkpt>
      <trkpt lat="48.28744" lon="3.20392">
        <ele>68</ele>
        <time>2013-08-03T08:55:57Z</time>
      </trkpt>
      <trkpt lat="48.28756" lon="3.20483">
        <ele>65</ele>
        <time>2013-08-03T09:04:42Z</time>
      </trkpt>
      <trkpt lat="48.28758" lon="3.20492">
        <ele>65</ele>
        <time>2013-08-03T09:04:48Z</time>
      </trkpt>
      <trkpt lat="48.28608" lon="3.20199">
        <ele>69</ele>
        <time>2013-08-03T09:30:11Z</time>
      </trkpt>
      <trkpt lat="48.28601" lon="3.20186">
        <ele>69</ele>
        <time>2013-08-03T09:30:40Z</time>
      </trkpt>
      <trkpt lat="48.28598" lon="3.20179">
        <ele>69</ele>
        <time>2013-08-03T09:30:42Z</time>
      </trkpt>
      <trkpt lat="48.28596" lon="3.20173">
        <ele>69</ele>
        <time>2013-08-03T09:30:44Z</time>
      </trkpt>
      <trkpt lat="48.28592" lon="3.20168">
        <ele>69</ele>
        <time>2013-08-03T09:30:48Z</time>
      </trkpt>
      <trkpt lat="48.28591" lon="3.2016">
        <ele>70</ele>
        <time>2013-08-03T09:30:56Z</time>
      </trkpt>
      <trkpt lat="48.28589" lon="3.20154">
        <ele>70</ele>
        <time>2013-08-03T09:31:00Z</time>
      </trkpt>
      <trkpt lat="48.28586" lon="3.20148">
        <ele>70</ele>
        <time>2013-08-03T09:31:05Z</time>
      </trkpt>
      <trkpt lat="48.2858" lon="3.20149">
        <ele>71</ele>
        <time>2013-08-03T09:31:31Z</time>
      </trkpt>
      <trkpt lat="48.28576" lon="3.20152">
        <ele>71</ele>
        <time>2013-08-03T09:31:34Z</time>
      </trkpt>
      <trkpt lat="48.28571" lon="3.20156">
        <ele>71</ele>
        <time>2013-08-03T09:31:38Z</time>
      </trkpt>
      <trkpt lat="48.28567" lon="3.2016">
        <ele>71</ele>
        <time>2013-08-03T09:31:43Z</time>
      </trkpt>
      <trkpt lat="48.28563" lon="3.20164">
        <ele>71</ele>
        <time>2013-08-03T09:31:49Z</time>
      </trkpt>
      <trkpt lat="48.2856" lon="3.2017">
        <ele>70</ele>
        <time>2013-08-03T09:31:56Z</time>
      </trkpt>
      <trkpt lat="48.28555" lon="3.20173">
        <ele>71</ele>
        <time>2013-08-03T09:32:01Z</time>
      </trkpt>
      <trkpt lat="48.28549" lon="3.20173">
        <ele>71</ele>
        <time>2013-08-03T09:32:04Z</time>
      </trkpt>
      <trkpt lat="48.28544" lon="3.20172">
        <ele>71</ele>
        <time>2013-08-03T09:32:07Z</time>
      </trkpt>
      <trkpt lat="48.28538" lon="3.20171">
        <ele>71</ele>
        <time>2013-08-03T09:32:11Z</time>
      </trkpt>
      <trkpt lat="48.28534" lon="3.2017">
        <ele>72</ele>
        <time>2013-08-03T09:32:14Z</time>
      </trkpt>
      <trkpt lat="48.28529" lon="3.2017">
        <ele>72</ele>
        <time>2013-08-03T09:32:18Z</time>
      </trkpt>
      <trkpt lat="48.28524" lon="3.20171">
        <ele>72</ele>
        <time>2013-08-03T09:32:23Z</time>
      </trkpt>
      <trkpt lat="48.28519" lon="3.20174">
        <ele>72</ele>
        <time>2013-08-03T09:32:29Z</time>
      </trkpt>
      <trkpt lat="48.28519" lon="3.20182">
        <ele>72</ele>
        <time>2013-08-03T09:32:34Z</time>
      </trkpt>
      <trkpt lat="48.28515" lon="3.20187">
        <ele>72</ele>
        <time>2013-08-03T09:32:37Z</time>
      </trkpt>
      <trkpt lat="48.28511" lon="3.2019">
        <ele>72</ele>
        <time>2013-08-03T09:32:40Z</time>
      </trkpt>
      <trkpt lat="48.28507" lon="3.20196">
        <ele>72</ele>
        <time>2013-08-03T09:32:45Z</time>
      </trkpt>
      <trkpt lat="48.28503" lon="3.20201">
        <ele>72</ele>
        <time>2013-08-03T09:32:49Z</time>
      </trkpt>
      <trkpt lat="48.28499" lon="3.20199">
        <ele>75</ele>
        <time>2013-08-03T09:32:52Z</time>
      </trkpt>
      <trkpt lat="48.28493" lon="3.20199">
        <ele>75</ele>
        <time>2013-08-03T09:32:55Z</time>
      </trkpt>
      <trkpt lat="48.28488" lon="3.20197">
        <ele>75</ele>
        <time>2013-08-03T09:32:58Z</time>
      </trkpt>
      <trkpt lat="48.28482" lon="3.20198">
        <ele>75</ele>
        <time>2013-08-03T09:33:02Z</time>
      </trkpt>
      <trkpt lat="48.28478" lon="3.20201">
        <ele>75</ele>
        <time>2013-08-03T09:33:06Z</time>
      </trkpt>
      <trkpt lat="48.28473" lon="3.20202">
        <ele>75</ele>
        <time>2013-08-03T09:33:12Z</time>
      </trkpt>
      <trkpt lat="48.28469" lon="3.20206">
        <ele>75</ele>
        <time>2013-08-03T09:33:18Z</time>
      </trkpt>
      <trkpt lat="48.28466" lon="3.20212">
        <ele>75</ele>
        <time>2013-08-03T09:33:22Z</time>
      </trkpt>
      <trkpt lat="48.2846" lon="3.20214">
        <ele>75</ele>
        <time>2013-08-03T09:33:26Z</time>
      </trkpt>
      <trkpt lat="48.28454" lon="3.20214">
        <ele>76</ele>
        <time>2013-08-03T09:33:29Z</time>
      </trkpt>
      <trkpt lat="48.2845" lon="3.20219">
        <ele>76</ele>
        <time>2013-08-03T09:33:34Z</time>
      </trkpt>
      <trkpt lat="48.28447" lon="3.20225">
        <ele>76</ele>
        <time>2013-08-03T09:33:40Z</time>
      </trkpt>
      <trkpt lat="48.28443" lon="3.20229">
        <ele>76</ele>
        <time>2013-08-03T09:33:46Z</time>
      </trkpt>
      <trkpt lat="48.28439" lon="3.20234">
        <ele>76</ele>
        <time>2013-08-03T09:33:51Z</time>
      </trkpt>
      <trkpt lat="48.28434" lon="3.20236">
        <ele>76</ele>
        <time>2013-08-03T09:33:57Z</time>
      </trkpt>
      <trkpt lat="48.2843" lon="3.20239">
        <ele>76</ele>
        <time>2013-08-03T09:34:01Z</time>
      </trkpt>
      <trkpt lat="48.28425" lon="3.20241">
        <ele>76</ele>
        <time>2013-08-03T09:34:04Z</time>
      </trkpt>
      <trkpt lat="48.2842" lon="3.20244">
        <ele>77</ele>
        <time>2013-08-03T09:34:08Z</time>
      </trkpt>
      <trkpt lat="48.28417" lon="3.2025">
        <ele>77</ele>
        <time>2013-08-03T09:34:13Z</time>
      </trkpt>
      <trkpt lat="48.28412" lon="3.20254">
        <ele>77</ele>
        <time>2013-08-03T09:34:17Z</time>
      </trkpt>
      <trkpt lat="48.28408" lon="3.20257">
        <ele>77</ele>
        <time>2013-08-03T09:34:22Z</time>
      </trkpt>
      <trkpt lat="48.28403" lon="3.20262">
        <ele>77</ele>
        <time>2013-08-03T09:34:27Z</time>
      </trkpt>
      <trkpt lat="48.28399" lon="3.20266">
        <ele>77</ele>
        <time>2013-08-03T09:34:32Z</time>
      </trkpt>
      <trkpt lat="48.28394" lon="3.20271">
        <ele>77</ele>
        <time>2013-08-03T09:34:37Z</time>
      </trkpt>
      <trkpt lat="48.2839" lon="3.20275">
        <ele>77</ele>
        <time>2013-08-03T09:34:42Z</time>
      </trkpt>
      <trkpt lat="48.28387" lon="3.20281">
        <ele>77</ele>
        <time>2013-08-03T09:34:48Z</time>
      </trkpt>
      <trkpt lat="48.28383" lon="3.20286">
        <ele>77</ele>
        <time>2013-08-03T09:34:53Z</time>
      </trkpt>
      <trkpt lat="48.28381" lon="3.20293">
        <ele>77</ele>
        <time>2013-08-03T09:34:57Z</time>
      </trkpt>
      <trkpt lat="48.28375" lon="3.203">
        <ele>77</ele>
        <time>2013-08-03T09:35:09Z</time>
      </trkpt>
      <trkpt lat="48.28369" lon="3.20304">
        <ele>77</ele>
        <time>2013-08-03T09:35:12Z</time>
      </trkpt>
      <trkpt lat="48.28365" lon="3.20309">
        <ele>77</ele>
        <time>2013-08-03T09:35:15Z</time>
      </trkpt>
      <trkpt lat="48.28361" lon="3.20313">
        <ele>77</ele>
        <time>2013-08-03T09:35:18Z</time>
      </trkpt>
      <trkpt lat="48.28357" lon="3.20318">
        <ele>77</ele>
        <time>2013-08-03T09:35:22Z</time>
      </trkpt>
      <trkpt lat="48.28352" lon="3.20321">
        <ele>78</ele>
        <time>2013-08-03T09:35:25Z</time>
      </trkpt>
      <trkpt lat="48.28348" lon="3.20324">
        <ele>78</ele>
        <time>2013-08-03T09:35:28Z</time>
      </trkpt>
      <trkpt lat="48.28344" lon="3.20329">
        <ele>78</ele>
        <time>2013-08-03T09:35:32Z</time>
      </trkpt>
      <trkpt lat="48.2834" lon="3.20333">
        <ele>78</ele>
        <time>2013-08-03T09:35:35Z</time>
      </trkpt>
      <trkpt lat="48.28335" lon="3.20337">
        <ele>78</ele>
        <time>2013-08-03T09:35:38Z</time>
      </trkpt>
      <trkpt lat="48.28337" lon="3.20339">
        <ele>77</ele>
        <time>2013-08-03T09:36:03Z</time>
      </trkpt>
      <trkpt lat="48.28333" lon="3.20343">
        <ele>79</ele>
        <time>2013-08-03T09:36:13Z</time>
      </trkpt>
      <trkpt lat="48.28328" lon="3.20347">
        <ele>79</ele>
        <time>2013-08-03T09:36:18Z</time>
      </trkpt>
      <trkpt lat="48.28324" lon="3.2035">
        <ele>79</ele>
        <time>2013-08-03T09:36:22Z</time>
      </trkpt>
      <trkpt lat="48.28317" lon="3.20355">
        <ele>79</ele>
        <time>2013-08-03T09:36:32Z</time>
      </trkpt>
      <trkpt lat="48.28311" lon="3.20359">
        <ele>79</ele>
        <time>2013-08-03T09:36:38Z</time>
      </trkpt>
      <trkpt lat="48.28306" lon="3.20362">
        <ele>79</ele>
        <time>2013-08-03T09:36:41Z</time>
      </trkpt>
      <trkpt lat="48.283" lon="3.20366">
        <ele>80</ele>
        <time>2013-08-03T09:36:44Z</time>
      </trkpt>
      <trkpt lat="48.28294" lon="3.2037">
        <ele>80</ele>
        <time>2013-08-03T09:36:46Z</time>
      </trkpt>
      <trkpt lat="48.2829" lon="3.20374">
        <ele>80</ele>
        <time>2013-08-03T09:36:48Z</time>
      </trkpt>
      <trkpt lat="48.28286" lon="3.20378">
        <ele>80</ele>
        <time>2013-08-03T09:36:51Z</time>
      </trkpt>
      <trkpt lat="48.28284" lon="3.20387">
        <ele>80</ele>
        <time>2013-08-03T09:36:56Z</time>
      </trkpt>
      <trkpt lat="48.28281" lon="3.20394">
        <ele>80</ele>
        <time>2013-08-03T09:37:00Z</time>
      </trkpt>
      <trkpt lat="48.28279" lon="3.20401">
        <ele>80</ele>
        <time>2013-08-03T09:37:03Z</time>
      </trkpt>
      <trkpt lat="48.28277" lon="3.20407">
        <ele>80</ele>
        <time>2013-08-03T09:37:12Z</time>
      </trkpt>
      <trkpt lat="48.28273" lon="3.20408">
        <ele>80</ele>
        <time>2013-08-03T09:37:17Z</time>
      </trkpt>
      <trkpt lat="48.28269" lon="3.20413">
        <ele>80</ele>
        <time>2013-08-03T09:37:21Z</time>
      </trkpt>
      <trkpt lat="48.28265" lon="3.20417">
        <ele>80</ele>
        <time>2013-08-03T09:37:27Z</time>
      </trkpt>
      <trkpt lat="48.2826" lon="3.20422">
        <ele>80</ele>
        <time>2013-08-03T09:37:31Z</time>
      </trkpt>
      <trkpt lat="48.28257" lon="3.20427">
        <ele>79</ele>
        <time>2013-08-03T09:37:34Z</time>
      </trkpt>
      <trkpt lat="48.28253" lon="3.20432">
        <ele>79</ele>
        <time>2013-08-03T09:37:38Z</time>
      </trkpt>
      <trkpt lat="48.28249" lon="3.20438">
        <ele>82</ele>
        <time>2013-08-03T09:37:43Z</time>
      </trkpt>
      <trkpt lat="48.28245" lon="3.20442">
        <ele>82</ele>
        <time>2013-08-03T09:37:46Z</time>
      </trkpt>
      <trkpt lat="48.28242" lon="3.20448">
        <ele>82</ele>
        <time>2013-08-03T09:37:51Z</time>
      </trkpt>
      <trkpt lat="48.28239" lon="3.20453">
        <ele>81</ele>
        <time>2013-08-03T09:37:55Z</time>
      </trkpt>
      <trkpt lat="48.28234" lon="3.20457">
        <ele>81</ele>
        <time>2013-08-03T09:38:12Z</time>
      </trkpt>
      <trkpt lat="48.28229" lon="3.20462">
        <ele>81</ele>
        <time>2013-08-03T09:38:18Z</time>
      </trkpt>
      <trkpt lat="48.28225" lon="3.20467">
        <ele>81</ele>
        <time>2013-08-03T09:38:22Z</time>
      </trkpt>
      <trkpt lat="48.28222" lon="3.20473">
        <ele>81</ele>
        <time>2013-08-03T09:38:28Z</time>
      </trkpt>
      <trkpt lat="48.28222" lon="3.20483">
        <ele>81</ele>
        <time>2013-08-03T09:38:46Z</time>
      </trkpt>
      <trkpt lat="48.28216" lon="3.20485">
        <ele>81</ele>
        <time>2013-08-03T09:40:34Z</time>
      </trkpt>
      <trkpt lat="48.28214" lon="3.20492">
        <ele>81</ele>
        <time>2013-08-03T09:42:29Z</time>
      </trkpt>
      <trkpt lat="48.28209" lon="3.20493">
        <ele>82</ele>
        <time>2013-08-03T09:42:33Z</time>
      </trkpt>
      <trkpt lat="48.28205" lon="3.20497">
        <ele>82</ele>
        <time>2013-08-03T09:42:39Z</time>
      </trkpt>
      <trkpt lat="48.282" lon="3.20502">
        <ele>80</ele>
        <time>2013-08-03T09:42:45Z</time>
      </trkpt>
      <trkpt lat="48.28197" lon="3.20506">
        <ele>81</ele>
        <time>2013-08-03T09:42:49Z</time>
      </trkpt>
      <trkpt lat="48.28193" lon="3.2051">
        <ele>81</ele>
        <time>2013-08-03T09:42:55Z</time>
      </trkpt>
      <trkpt lat="48.2819" lon="3.20517">
        <ele>81</ele>
        <time>2013-08-03T09:43:00Z</time>
      </trkpt>
      <trkpt lat="48.28187" lon="3.20524">
        <ele>81</ele>
        <time>2013-08-03T09:43:03Z</time>
      </trkpt>
      <trkpt lat="48.28185" lon="3.20529">
        <ele>80</ele>
        <time>2013-08-03T09:43:06Z</time>
      </trkpt>
      <trkpt lat="48.28181" lon="3.20535">
        <ele>80</ele>
        <time>2013-08-03T09:43:09Z</time>
      </trkpt>
      <trkpt lat="48.28178" lon="3.20541">
        <ele>80</ele>
        <time>2013-08-03T09:43:13Z</time>
      </trkpt>
      <trkpt lat="48.28174" lon="3.20545">
        <ele>80</ele>
        <time>2013-08-03T09:43:19Z</time>
      </trkpt>
      <trkpt lat="48.28171" lon="3.20551">
        <ele>80</ele>
        <time>2013-08-03T09:43:23Z</time>
      </trkpt>
      <trkpt lat="48.28169" lon="3.20558">
        <ele>79</ele>
        <time>2013-08-03T09:43:28Z</time>
      </trkpt>
      <trkpt lat="48.28167" lon="3.20565">
        <ele>83</ele>
        <time>2013-08-03T09:43:33Z</time>
      </trkpt>
      <trkpt lat="48.28163" lon="3.2057">
        <ele>82</ele>
        <time>2013-08-03T09:43:38Z</time>
      </trkpt>
      <trkpt lat="48.28159" lon="3.20575">
        <ele>81</ele>
        <time>2013-08-03T09:43:42Z</time>
      </trkpt>
      <trkpt lat="48.28157" lon="3.20581">
        <ele>81</ele>
        <time>2013-08-03T09:43:45Z</time>
      </trkpt>
      <trkpt lat="48.28153" lon="3.20585">
        <ele>80</ele>
        <time>2013-08-03T09:43:48Z</time>
      </trkpt>
      <trkpt lat="48.28151" lon="3.20592">
        <ele>80</ele>
        <time>2013-08-03T09:43:52Z</time>
      </trkpt>
      <trkpt lat="48.28149" lon="3.20598">
        <ele>81</ele>
        <time>2013-08-03T09:43:57Z</time>
      </trkpt>
      <trkpt lat="48.28144" lon="3.20602">
        <ele>81</ele>
        <time>2013-08-03T09:44:02Z</time>
      </trkpt>
      <trkpt lat="48.2814" lon="3.20607">
        <ele>81</ele>
        <time>2013-08-03T09:44:05Z</time>
      </trkpt>
      <trkpt lat="48.28137" lon="3.20613">
        <ele>82</ele>
        <time>2013-08-03T09:44:08Z</time>
      </trkpt>
      <trkpt lat="48.28133" lon="3.2062">
        <ele>82</ele>
        <time>2013-08-03T09:44:12Z</time>
      </trkpt>
      <trkpt lat="48.28129" lon="3.20628">
        <ele>82</ele>
        <time>2013-08-03T09:44:15Z</time>
      </trkpt>
      <trkpt lat="48.28125" lon="3.20633">
        <ele>82</ele>
        <time>2013-08-03T09:44:18Z</time>
      </trkpt>
      <trkpt lat="48.28122" lon="3.20638">
        <ele>82</ele>
        <time>2013-08-03T09:44:27Z</time>
      </trkpt>
      <trkpt lat="48.2812" lon="3.20644">
        <ele>82</ele>
        <time>2013-08-03T09:44:29Z</time>
      </trkpt>
      <trkpt lat="48.28116" lon="3.20645">
        <ele>83</ele>
        <time>2013-08-03T09:44:34Z</time>
      </trkpt>
      <trkpt lat="48.28111" lon="3.20649">
        <ele>83</ele>
        <time>2013-08-03T09:44:38Z</time>
      </trkpt>
      <trkpt lat="48.28107" lon="3.20655">
        <ele>83</ele>
        <time>2013-08-03T09:44:42Z</time>
      </trkpt>
      <trkpt lat="48.28105" lon="3.20661">
        <ele>84</ele>
        <time>2013-08-03T09:44:45Z</time>
      </trkpt>
      <trkpt lat="48.28101" lon="3.20667">
        <ele>84</ele>
        <time>2013-08-03T09:44:49Z</time>
      </trkpt>
      <trkpt lat="48.28097" lon="3.20671">
        <ele>83</ele>
        <time>2013-08-03T09:44:53Z</time>
      </trkpt>
      <trkpt lat="48.28094" lon="3.20676">
        <ele>83</ele>
        <time>2013-08-03T09:44:57Z</time>
      </trkpt>
      <trkpt lat="48.28089" lon="3.20682">
        <ele>83</ele>
        <time>2013-08-03T09:45:02Z</time>
      </trkpt>
      <trkpt lat="48.28085" lon="3.20684">
        <ele>83</ele>
        <time>2013-08-03T09:45:07Z</time>
      </trkpt>
      <trkpt lat="48.28081" lon="3.20688">
        <ele>85</ele>
        <time>2013-08-03T09:45:14Z</time>
      </trkpt>
      <trkpt lat="48.28077" lon="3.20694">
        <ele>85</ele>
        <time>2013-08-03T09:45:18Z</time>
      </trkpt>
      <trkpt lat="48.28073" lon="3.207">
        <ele>84</ele>
        <time>2013-08-03T09:45:21Z</time>
      </trkpt>
      <trkpt lat="48.28069" lon="3.20704">
        <ele>84</ele>
        <time>2013-08-03T09:45:25Z</time>
      </trkpt>
      <trkpt lat="48.28065" lon="3.20705">
        <ele>84</ele>
        <time>2013-08-03T09:45:29Z</time>
      </trkpt>
      <trkpt lat="48.2806" lon="3.20708">
        <ele>84</ele>
        <time>2013-08-03T09:45:34Z</time>
      </trkpt>
      <trkpt lat="48.28055" lon="3.20712">
        <ele>84</ele>
        <time>2013-08-03T09:45:38Z</time>
      </trkpt>
      <trkpt lat="48.2805" lon="3.20716">
        <ele>84</ele>
        <time>2013-08-03T09:45:42Z</time>
      </trkpt>
      <trkpt lat="48.28046" lon="3.20719">
        <ele>84</ele>
        <time>2013-08-03T09:45:46Z</time>
      </trkpt>
      <trkpt lat="48.28042" lon="3.20725">
        <ele>84</ele>
        <time>2013-08-03T09:45:53Z</time>
      </trkpt>
      <trkpt lat="48.28038" lon="3.2073">
        <ele>84</ele>
        <time>2013-08-03T09:45:58Z</time>
      </trkpt>
      <trkpt lat="48.28034" lon="3.20734">
        <ele>84</ele>
        <time>2013-08-03T09:46:02Z</time>
      </trkpt>
      <trkpt lat="48.28031" lon="3.20739">
        <ele>84</ele>
        <time>2013-08-03T09:46:06Z</time>
      </trkpt>
      <trkpt lat="48.28028" lon="3.20746">
        <ele>84</ele>
        <time>2013-08-03T09:46:10Z</time>
      </trkpt>
      <trkpt lat="48.28023" lon="3.20751">
        <ele>81</ele>
        <time>2013-08-03T09:46:14Z</time>
      </trkpt>
      <trkpt lat="48.28019" lon="3.20755">
        <ele>82</ele>
        <time>2013-08-03T09:46:17Z</time>
      </trkpt>
      <trkpt lat="48.28015" lon="3.20758">
        <ele>82</ele>
        <time>2013-08-03T09:46:20Z</time>
      </trkpt>
      <trkpt lat="48.28011" lon="3.20761">
        <ele>82</ele>
        <time>2013-08-03T09:46:23Z</time>
      </trkpt>
      <trkpt lat="48.28007" lon="3.20765">
        <ele>82</ele>
        <time>2013-08-03T09:46:26Z</time>
      </trkpt>
      <trkpt lat="48.28003" lon="3.20769">
        <ele>82</ele>
        <time>2013-08-03T09:46:30Z</time>
      </trkpt>
      <trkpt lat="48.27998" lon="3.20768">
        <ele>84</ele>
        <time>2013-08-03T09:46:34Z</time>
      </trkpt>
      <trkpt lat="48.27995" lon="3.20774">
        <ele>85</ele>
        <time>2013-08-03T09:46:38Z</time>
      </trkpt>
      <trkpt lat="48.27992" lon="3.20779">
        <ele>85</ele>
        <time>2013-08-03T09:46:41Z</time>
      </trkpt>
      <trkpt lat="48.27987" lon="3.20781">
        <ele>85</ele>
        <time>2013-08-03T09:46:45Z</time>
      </trkpt>
      <trkpt lat="48.27983" lon="3.20786">
        <ele>85</ele>
        <time>2013-08-03T09:46:49Z</time>
      </trkpt>
      <trkpt lat="48.27979" lon="3.20793">
        <ele>85</ele>
        <time>2013-08-03T09:46:53Z</time>
      </trkpt>
      <trkpt lat="48.27976" lon="3.20798">
        <ele>85</ele>
        <time>2013-08-03T09:46:57Z</time>
      </trkpt>
      <trkpt lat="48.27972" lon="3.20805">
        <ele>84</ele>
        <time>2013-08-03T09:47:01Z</time>
      </trkpt>
      <trkpt lat="48.27968" lon="3.20811">
        <ele>84</ele>
        <time>2013-08-03T09:47:05Z</time>
      </trkpt>
      <trkpt lat="48.27963" lon="3.20815">
        <ele>85</ele>
        <time>2013-08-03T09:47:09Z</time>
      </trkpt>
      <trkpt lat="48.27961" lon="3.20821">
        <ele>85</ele>
        <time>2013-08-03T09:47:12Z</time>
      </trkpt>
      <trkpt lat="48.27956" lon="3.20825">
        <ele>85</ele>
        <time>2013-08-03T09:47:17Z</time>
      </trkpt>
      <trkpt lat="48.27952" lon="3.20828">
        <ele>85</ele>
        <time>2013-08-03T09:47:21Z</time>
      </trkpt>
      <trkpt lat="48.27947" lon="3.20831">
        <ele>85</ele>
        <time>2013-08-03T09:47:25Z</time>
      </trkpt>
      <trkpt lat="48.27943" lon="3.20834">
        <ele>84</ele>
        <time>2013-08-03T09:47:29Z</time>
      </trkpt>
      <trkpt lat="48.27939" lon="3.2084">
        <ele>84</ele>
        <time>2013-08-03T09:47:33Z</time>
      </trkpt>
      <trkpt lat="48.27934" lon="3.20843">
        <ele>84</ele>
        <time>2013-08-03T09:47:37Z</time>
      </trkpt>
      <trkpt lat="48.2793" lon="3.20846">
        <ele>84</ele>
        <time>2013-08-03T09:47:41Z</time>
      </trkpt>
      <trkpt lat="48.27926" lon="3.2085">
        <ele>84</ele>
        <time>2013-08-03T09:47:45Z</time>
      </trkpt>
      <trkpt lat="48.27922" lon="3.20855">
        <ele>84</ele>
        <time>2013-08-03T09:47:49Z</time>
      </trkpt>
      <trkpt lat="48.27918" lon="3.2086">
        <ele>84</ele>
        <time>2013-08-03T09:47:53Z</time>
      </trkpt>
      <trkpt lat="48.27915" lon="3.20865">
        <ele>89</ele>
        <time>2013-08-03T09:47:58Z</time>
      </trkpt>
      <trkpt lat="48.27911" lon="3.2087">
        <ele>89</ele>
        <time>2013-08-03T09:48:03Z</time>
      </trkpt>
      <trkpt lat="48.27907" lon="3.20874">
        <ele>89</ele>
        <time>2013-08-03T09:48:07Z</time>
      </trkpt>
      <trkpt lat="48.27902" lon="3.20879">
        <ele>89</ele>
        <time>2013-08-03T09:48:12Z</time>
      </trkpt>
      <trkpt lat="48.27899" lon="3.20886">
        <ele>89</ele>
        <time>2013-08-03T09:48:16Z</time>
      </trkpt>
      <trkpt lat="48.27896" lon="3.20892">
        <ele>89</ele>
        <time>2013-08-03T09:48:20Z</time>
      </trkpt>
      <trkpt lat="48.27891" lon="3.20895">
        <ele>89</ele>
        <time>2013-08-03T09:48:24Z</time>
      </trkpt>
      <trkpt lat="48.27887" lon="3.209">
        <ele>90</ele>
        <time>2013-08-03T09:48:28Z</time>
      </trkpt>
      <trkpt lat="48.27882" lon="3.20902">
        <ele>90</ele>
        <time>2013-08-03T09:48:33Z</time>
      </trkpt>
      <trkpt lat="48.27878" lon="3.20906">
        <ele>90</ele>
        <time>2013-08-03T09:48:37Z</time>
      </trkpt>
      <trkpt lat="48.27874" lon="3.20911">
        <ele>90</ele>
        <time>2013-08-03T09:48:41Z</time>
      </trkpt>
      <trkpt lat="48.27871" lon="3.20916">
        <ele>91</ele>
        <time>2013-08-03T09:48:45Z</time>
      </trkpt>
      <trkpt lat="48.27867" lon="3.2092">
        <ele>92</ele>
        <time>2013-08-03T09:48:48Z</time>
      </trkpt>
      <trkpt lat="48.27863" lon="3.20926">
        <ele>92</ele>
        <time>2013-08-03T09:48:52Z</time>
      </trkpt>
      <trkpt lat="48.27858" lon="3.2093">
        <ele>92</ele>
        <time>2013-08-03T09:48:56Z</time>
      </trkpt>
      <trkpt lat="48.27854" lon="3.20933">
        <ele>93</ele>
        <time>2013-08-03T09:49:00Z</time>
      </trkpt>
      <trkpt lat="48.2785" lon="3.20938">
        <ele>93</ele>
        <time>2013-08-03T09:49:04Z</time>
      </trkpt>
      <trkpt lat="48.27845" lon="3.20941">
        <ele>93</ele>
        <time>2013-08-03T09:49:08Z</time>
      </trkpt>
      <trkpt lat="48.27841" lon="3.20945">
        <ele>93</ele>
        <time>2013-08-03T09:49:12Z</time>
      </trkpt>
      <trkpt lat="48.27838" lon="3.2095">
        <ele>93</ele>
        <time>2013-08-03T09:49:15Z</time>
      </trkpt>
      <trkpt lat="48.27835" lon="3.20956">
        <ele>93</ele>
        <time>2013-08-03T09:49:18Z</time>
      </trkpt>
      <trkpt lat="48.27833" lon="3.20963">
        <ele>99</ele>
        <time>2013-08-03T09:49:21Z</time>
      </trkpt>
      <trkpt lat="48.2783" lon="3.20968">
        <ele>99</ele>
        <time>2013-08-03T09:49:25Z</time>
      </trkpt>
      <trkpt lat="48.27826" lon="3.20974">
        <ele>99</ele>
        <time>2013-08-03T09:49:30Z</time>
      </trkpt>
      <trkpt lat="48.27823" lon="3.2098">
        <ele>99</ele>
        <time>2013-08-03T09:49:34Z</time>
      </trkpt>
      <trkpt lat="48.27819" lon="3.20983">
        <ele>99</ele>
        <time>2013-08-03T09:49:38Z</time>
      </trkpt>
      <trkpt lat="48.27815" lon="3.20988">
        <ele>99</ele>
        <time>2013-08-03T09:49:42Z</time>
      </trkpt>
      <trkpt lat="48.27811" lon="3.20992">
        <ele>99</ele>
        <time>2013-08-03T09:49:46Z</time>
      </trkpt>
      <trkpt lat="48.27807" lon="3.20996">
        <ele>99</ele>
        <time>2013-08-03T09:49:50Z</time>
      </trkpt>
      <trkpt lat="48.27803" lon="3.21">
        <ele>100</ele>
        <time>2013-08-03T09:49:54Z</time>
      </trkpt>
      <trkpt lat="48.27799" lon="3.21004">
        <ele>100</ele>
        <time>2013-08-03T09:49:58Z</time>
      </trkpt>
      <trkpt lat="48.27797" lon="3.2101">
        <ele>100</ele>
        <time>2013-08-03T09:50:02Z</time>
      </trkpt>
      <trkpt lat="48.27794" lon="3.21017">
        <ele>100</ele>
        <time>2013-08-03T09:50:06Z</time>
      </trkpt>
      <trkpt lat="48.27791" lon="3.21022">
        <ele>100</ele>
        <time>2013-08-03T09:50:10Z</time>
      </trkpt>
      <trkpt lat="48.27788" lon="3.21028">
        <ele>100</ele>
        <time>2013-08-03T09:50:14Z</time>
      </trkpt>
      <trkpt lat="48.27786" lon="3.21034">
        <ele>100</ele>
        <time>2013-08-03T09:50:18Z</time>
      </trkpt>
      <trkpt lat="48.27783" lon="3.21041">
        <ele>101</ele>
        <time>2013-08-03T09:50:23Z</time>
      </trkpt>
      <trkpt lat="48.2778" lon="3.21046">
        <ele>101</ele>
        <time>2013-08-03T09:50:27Z</time>
      </trkpt>
      <trkpt lat="48.27776" lon="3.21053">
        <ele>101</ele>
        <time>2013-08-03T09:50:31Z</time>
      </trkpt>
      <trkpt lat="48.27774" lon="3.21059">
        <ele>101</ele>
        <time>2013-08-03T09:50:34Z</time>
      </trkpt>
      <trkpt lat="48.27771" lon="3.21065">
        <ele>101</ele>
        <time>2013-08-03T09:50:38Z</time>
      </trkpt>
      <trkpt lat="48.27767" lon="3.21069">
        <ele>102</ele>
        <time>2013-08-03T09:50:42Z</time>
      </trkpt>
      <trkpt lat="48.27763" lon="3.21074">
        <ele>102</ele>
        <time>2013-08-03T09:50:46Z</time>
      </trkpt>
      <trkpt lat="48.27758" lon="3.21079">
        <ele>103</ele>
        <time>2013-08-03T09:50:50Z</time>
      </trkpt>
      <trkpt lat="48.27754" lon="3.21085">
        <ele>103</ele>
        <time>2013-08-03T09:50:54Z</time>
      </trkpt>
      <trkpt lat="48.27751" lon="3.21091">
        <ele>102</ele>
        <time>2013-08-03T09:50:58Z</time>
      </trkpt>
      <trkpt lat="48.27746" lon="3.21097">
        <ele>104</ele>
        <time>2013-08-03T09:51:02Z</time>
      </trkpt>
      <trkpt lat="48.27742" lon="3.21103">
        <ele>104</ele>
        <time>2013-08-03T09:51:06Z</time>
      </trkpt>
      <trkpt lat="48.27739" lon="3.21109">
        <ele>104</ele>
        <time>2013-08-03T09:51:10Z</time>
      </trkpt>
      <trkpt lat="48.27735" lon="3.21114">
        <ele>104</ele>
        <time>2013-08-03T09:51:14Z</time>
      </trkpt>
      <trkpt lat="48.2773" lon="3.21117">
        <ele>104</ele>
        <time>2013-08-03T09:51:18Z</time>
      </trkpt>
      <trkpt lat="48.27726" lon="3.21122">
        <ele>104</ele>
        <time>2013-08-03T09:51:22Z</time>
      </trkpt>
      <trkpt lat="48.27722" lon="3.21124">
        <ele>104</ele>
        <time>2013-08-03T09:51:25Z</time>
      </trkpt>
      <trkpt lat="48.27717" lon="3.21126">
        <ele>104</ele>
        <time>2013-08-03T09:51:28Z</time>
      </trkpt>
      <trkpt lat="48.27713" lon="3.2113">
        <ele>104</ele>
        <time>2013-08-03T09:51:32Z</time>
      </trkpt>
      <trkpt lat="48.27707" lon="3.21132">
        <ele>104</ele>
        <time>2013-08-03T09:51:36Z</time>
      </trkpt>
      <trkpt lat="48.27703" lon="3.21135">
        <ele>104</ele>
        <time>2013-08-03T09:51:40Z</time>
      </trkpt>
      <trkpt lat="48.27698" lon="3.2114">
        <ele>104</ele>
        <time>2013-08-03T09:51:44Z</time>
      </trkpt>
      <trkpt lat="48.27693" lon="3.21145">
        <ele>104</ele>
        <time>2013-08-03T09:51:48Z</time>
      </trkpt>
      <trkpt lat="48.2769" lon="3.2115">
        <ele>103</ele>
        <time>2013-08-03T09:51:52Z</time>
      </trkpt>
      <trkpt lat="48.27687" lon="3.2115">
        <ele>103</ele>
        <time>2013-08-03T09:52:11Z</time>
      </trkpt>
      <trkpt lat="48.2768" lon="3.21147">
        <ele>103</ele>
        <time>2013-08-03T09:52:23Z</time>
      </trkpt>
      <trkpt lat="48.27677" lon="3.21153">
        <ele>103</ele>
        <time>2013-08-03T09:52:27Z</time>
      </trkpt>
      <trkpt lat="48.27674" lon="3.2116">
        <ele>103</ele>
        <time>2013-08-03T09:52:31Z</time>
      </trkpt>
      <trkpt lat="48.2767" lon="3.21165">
        <ele>102</ele>
        <time>2013-08-03T09:52:35Z</time>
      </trkpt>
      <trkpt lat="48.27666" lon="3.2117">
        <ele>102</ele>
        <time>2013-08-03T09:52:39Z</time>
      </trkpt>
      <trkpt lat="48.27662" lon="3.21174">
        <ele>102</ele>
        <time>2013-08-03T09:52:42Z</time>
      </trkpt>
      <trkpt lat="48.27658" lon="3.21177">
        <ele>101</ele>
        <time>2013-08-03T09:52:46Z</time>
      </trkpt>
      <trkpt lat="48.27653" lon="3.2118">
        <ele>101</ele>
        <time>2013-08-03T09:52:51Z</time>
      </trkpt>
      <trkpt lat="48.27647" lon="3.21181">
        <ele>101</ele>
        <time>2013-08-03T09:52:56Z</time>
      </trkpt>
      <trkpt lat="48.27643" lon="3.21179">
        <ele>101</ele>
        <time>2013-08-03T09:53:01Z</time>
      </trkpt>
      <trkpt lat="48.27639" lon="3.21183">
        <ele>101</ele>
        <time>2013-08-03T09:53:05Z</time>
      </trkpt>
      <trkpt lat="48.27635" lon="3.21188">
        <ele>101</ele>
        <time>2013-08-03T09:53:09Z</time>
      </trkpt>
      <trkpt lat="48.27631" lon="3.21193">
        <ele>101</ele>
        <time>2013-08-03T09:53:13Z</time>
      </trkpt>
      <trkpt lat="48.27626" lon="3.21195">
        <ele>101</ele>
        <time>2013-08-03T09:53:17Z</time>
      </trkpt>
      <trkpt lat="48.27622" lon="3.21201">
        <ele>101</ele>
        <time>2013-08-03T09:53:21Z</time>
      </trkpt>
      <trkpt lat="48.27617" lon="3.21206">
        <ele>101</ele>
        <time>2013-08-03T09:53:25Z</time>
      </trkpt>
      <trkpt lat="48.27613" lon="3.21211">
        <ele>100</ele>
        <time>2013-08-03T09:53:29Z</time>
      </trkpt>
      <trkpt lat="48.2761" lon="3.21214">
        <ele>100</ele>
        <time>2013-08-03T09:53:37Z</time>
      </trkpt>
      <trkpt lat="48.27605" lon="3.21216">
        <ele>100</ele>
        <time>2013-08-03T09:53:54Z</time>
      </trkpt>
      <trkpt lat="48.27601" lon="3.2122">
        <ele>100</ele>
        <time>2013-08-03T09:53:59Z</time>
      </trkpt>
      <trkpt lat="48.27598" lon="3.21225">
        <ele>100</ele>
        <time>2013-08-03T09:54:09Z</time>
      </trkpt>
      <trkpt lat="48.27595" lon="3.21226">
        <ele>100</ele>
        <time>2013-08-03T09:54:16Z</time>
      </trkpt>
      <trkpt lat="48.27591" lon="3.21228">
        <ele>100</ele>
        <time>2013-08-03T09:54:34Z</time>
      </trkpt>
      <trkpt lat="48.27587" lon="3.21232">
        <ele>99</ele>
        <time>2013-08-03T09:54:38Z</time>
      </trkpt>
      <trkpt lat="48.27583" lon="3.21238">
        <ele>98</ele>
        <time>2013-08-03T09:54:42Z</time>
      </trkpt>
      <trkpt lat="48.27584" lon="3.21245">
        <ele>98</ele>
        <time>2013-08-03T09:54:49Z</time>
      </trkpt>
      <trkpt lat="48.27585" lon="3.21253">
        <ele>98</ele>
        <time>2013-08-03T09:54:55Z</time>
      </trkpt>
      <trkpt lat="48.27581" lon="3.2126">
        <ele>97</ele>
        <time>2013-08-03T09:54:58Z</time>
      </trkpt>
      <trkpt lat="48.27578" lon="3.21265">
        <ele>96</ele>
        <time>2013-08-03T09:55:00Z</time>
      </trkpt>
      <trkpt lat="48.27573" lon="3.21272">
        <ele>96</ele>
        <time>2013-08-03T09:55:03Z</time>
      </trkpt>
      <trkpt lat="48.27569" lon="3.21278">
        <ele>96</ele>
        <time>2013-08-03T09:55:05Z</time>
      </trkpt>
      <trkpt lat="48.27565" lon="3.21283">
        <ele>95</ele>
        <time>2013-08-03T09:55:07Z</time>
      </trkpt>
      <trkpt lat="48.27561" lon="3.21288">
        <ele>95</ele>
        <time>2013-08-03T09:55:10Z</time>
      </trkpt>
      <trkpt lat="48.27557" lon="3.21291">
        <ele>95</ele>
        <time>2013-08-03T09:55:14Z</time>
      </trkpt>
      <trkpt lat="48.27552" lon="3.21297">
        <ele>95</ele>
        <time>2013-08-03T09:55:18Z</time>
      </trkpt>
      <trkpt lat="48.27549" lon="3.21303">
        <ele>95</ele>
        <time>2013-08-03T09:55:21Z</time>
      </trkpt>
      <trkpt lat="48.27545" lon="3.21308">
        <ele>94</ele>
        <time>2013-08-03T09:55:24Z</time>
      </trkpt>
      <trkpt lat="48.27542" lon="3.21314">
        <ele>94</ele>
        <time>2013-08-03T09:55:28Z</time>
      </trkpt>
      <trkpt lat="48.27539" lon="3.2132">
        <ele>94</ele>
        <time>2013-08-03T09:55:33Z</time>
      </trkpt>
      <trkpt lat="48.27535" lon="3.21324">
        <ele>94</ele>
        <time>2013-08-03T09:55:38Z</time>
      </trkpt>
      <trkpt lat="48.27531" lon="3.21329">
        <ele>94</ele>
        <time>2013-08-03T09:55:42Z</time>
      </trkpt>
      <trkpt lat="48.27527" lon="3.21335">
        <ele>92</ele>
        <time>2013-08-03T09:55:46Z</time>
      </trkpt>
      <trkpt lat="48.27523" lon="3.21341">
        <ele>92</ele>
        <time>2013-08-03T09:55:50Z</time>
      </trkpt>
      <trkpt lat="48.2752" lon="3.21347">
        <ele>92</ele>
        <time>2013-08-03T09:55:54Z</time>
      </trkpt>
      <trkpt lat="48.27518" lon="3.21351">
        <ele>92</ele>
        <time>2013-08-03T09:56:00Z</time>
      </trkpt>
      <trkpt lat="48.27519" lon="3.21354">
        <ele>92</ele>
        <time>2013-08-03T09:56:28Z</time>
      </trkpt>
      <trkpt lat="48.27516" lon="3.21359">
        <ele>92</ele>
        <time>2013-08-03T09:56:33Z</time>
      </trkpt>
      <trkpt lat="48.27513" lon="3.21365">
        <ele>91</ele>
        <time>2013-08-03T09:56:36Z</time>
      </trkpt>
      <trkpt lat="48.2751" lon="3.21371">
        <ele>91</ele>
        <time>2013-08-03T09:56:39Z</time>
      </trkpt>
      <trkpt lat="48.27507" lon="3.21376">
        <ele>91</ele>
        <time>2013-08-03T09:56:42Z</time>
      </trkpt>
      <trkpt lat="48.27504" lon="3.21383">
        <ele>91</ele>
        <time>2013-08-03T09:56:47Z</time>
      </trkpt>
      <trkpt lat="48.27502" lon="3.2139">
        <ele>91</ele>
        <time>2013-08-03T09:56:52Z</time>
      </trkpt>
      <trkpt lat="48.27498" lon="3.21393">
        <ele>88</ele>
        <time>2013-08-03T09:56:57Z</time>
      </trkpt>
      <trkpt lat="48.27494" lon="3.21397">
        <ele>88</ele>
        <time>2013-08-03T09:57:02Z</time>
      </trkpt>
      <trkpt lat="48.2749" lon="3.21398">
        <ele>88</ele>
        <time>2013-08-03T09:57:10Z</time>
      </trkpt>
      <trkpt lat="48.27487" lon="3.21403">
        <ele>88</ele>
        <time>2013-08-03T09:57:30Z</time>
      </trkpt>
      <trkpt lat="48.27484" lon="3.21408">
        <ele>88</ele>
        <time>2013-08-03T09:57:32Z</time>
      </trkpt>
      <trkpt lat="48.2748" lon="3.21414">
        <ele>88</ele>
        <time>2013-08-03T09:57:35Z</time>
      </trkpt>
      <trkpt lat="48.27484" lon="3.21418">
        <ele>87</ele>
        <time>2013-08-03T09:57:43Z</time>
      </trkpt>
      <trkpt lat="48.27481" lon="3.21426">
        <ele>87</ele>
        <time>2013-08-03T09:57:54Z</time>
      </trkpt>
      <trkpt lat="48.27477" lon="3.21431">
        <ele>86</ele>
        <time>2013-08-03T09:57:57Z</time>
      </trkpt>
      <trkpt lat="48.27474" lon="3.21435">
        <ele>86</ele>
        <time>2013-08-03T09:57:59Z</time>
      </trkpt>
      <trkpt lat="48.27469" lon="3.2144">
        <ele>86</ele>
        <time>2013-08-03T09:58:01Z</time>
      </trkpt>
      <trkpt lat="48.27466" lon="3.21445">
        <ele>85</ele>
        <time>2013-08-03T09:58:03Z</time>
      </trkpt>
      <trkpt lat="48.27462" lon="3.21452">
        <ele>85</ele>
        <time>2013-08-03T09:58:06Z</time>
      </trkpt>
      <trkpt lat="48.27459" lon="3.21456">
        <ele>85</ele>
        <time>2013-08-03T09:58:08Z</time>
      </trkpt>
      <trkpt lat="48.27456" lon="3.21462">
        <ele>85</ele>
        <time>2013-08-03T09:58:10Z</time>
      </trkpt>
      <trkpt lat="48.27453" lon="3.21468">
        <ele>85</ele>
        <time>2013-08-03T09:58:13Z</time>
      </trkpt>
      <trkpt lat="48.27451" lon="3.21474">
        <ele>85</ele>
        <time>2013-08-03T09:58:16Z</time>
      </trkpt>
      <trkpt lat="48.27448" lon="3.21481">
        <ele>84</ele>
        <time>2013-08-03T09:58:20Z</time>
      </trkpt>
      <trkpt lat="48.27445" lon="3.21487">
        <ele>84</ele>
        <time>2013-08-03T09:58:23Z</time>
      </trkpt>
      <trkpt lat="48.27441" lon="3.21493">
        <ele>84</ele>
        <time>2013-08-03T09:58:27Z</time>
      </trkpt>
      <trkpt lat="48.27437" lon="3.21498">
        <ele>84</ele>
        <time>2013-08-03T09:58:31Z</time>
      </trkpt>
      <trkpt lat="48.27433" lon="3.21503">
        <ele>83</ele>
        <time>2013-08-03T09:58:36Z</time>
      </trkpt>
      <trkpt lat="48.27428" lon="3.2151">
        <ele>83</ele>
        <time>2013-08-03T09:58:40Z</time>
      </trkpt>
      <trkpt lat="48.27425" lon="3.21515">
        <ele>83</ele>
        <time>2013-08-03T09:58:43Z</time>
      </trkpt>
      <trkpt lat="48.27422" lon="3.21522">
        <ele>83</ele>
        <time>2013-08-03T09:58:47Z</time>
      </trkpt>
      <trkpt lat="48.27418" lon="3.21529">
        <ele>83</ele>
        <time>2013-08-03T09:58:51Z</time>
      </trkpt>
      <trkpt lat="48.27415" lon="3.21534">
        <ele>80</ele>
        <time>2013-08-03T09:58:54Z</time>
      </trkpt>
      <trkpt lat="48.27413" lon="3.21541">
        <ele>79</ele>
        <time>2013-08-03T09:58:59Z</time>
      </trkpt>
      <trkpt lat="48.2741" lon="3.21547">
        <ele>79</ele>
        <time>2013-08-03T09:59:04Z</time>
      </trkpt>
      <trkpt lat="48.27407" lon="3.21553">
        <ele>79</ele>
        <time>2013-08-03T09:59:09Z</time>
      </trkpt>
      <trkpt lat="48.27403" lon="3.21559">
        <ele>79</ele>
        <time>2013-08-03T09:59:13Z</time>
      </trkpt>
      <trkpt lat="48.274" lon="3.21566">
        <ele>79</ele>
        <time>2013-08-03T09:59:17Z</time>
      </trkpt>
      <trkpt lat="48.27396" lon="3.21571">
        <ele>79</ele>
        <time>2013-08-03T09:59:24Z</time>
      </trkpt>
      <trkpt lat="48.27392" lon="3.21574">
        <ele>79</ele>
        <time>2013-08-03T09:59:27Z</time>
      </trkpt>
      <trkpt lat="48.27385" lon="3.21577">
        <ele>79</ele>
        <time>2013-08-03T09:59:30Z</time>
      </trkpt>
      <trkpt lat="48.2738" lon="3.21581">
        <ele>78</ele>
        <time>2013-08-03T09:59:32Z</time>
      </trkpt>
      <trkpt lat="48.27376" lon="3.21585">
        <ele>79</ele>
        <time>2013-08-03T09:59:34Z</time>
      </trkpt>
      <trkpt lat="48.27373" lon="3.2159">
        <ele>78</ele>
        <time>2013-08-03T09:59:36Z</time>
      </trkpt>
      <trkpt lat="48.27369" lon="3.21596">
        <ele>78</ele>
        <time>2013-08-03T09:59:38Z</time>
      </trkpt>
      <trkpt lat="48.27366" lon="3.21601">
        <ele>78</ele>
        <time>2013-08-03T09:59:40Z</time>
      </trkpt>
      <trkpt lat="48.27364" lon="3.21608">
        <ele>78</ele>
        <time>2013-08-03T09:59:45Z</time>
      </trkpt>
      <trkpt lat="48.27369" lon="3.21607">
        <ele>78</ele>
        <time>2013-08-03T09:59:47Z</time>
      </trkpt>
      <trkpt lat="48.27374" lon="3.21609">
        <ele>79</ele>
        <time>2013-08-03T09:59:51Z</time>
      </trkpt>
      <trkpt lat="48.27376" lon="3.21615">
        <ele>79</ele>
        <time>2013-08-03T09:59:58Z</time>
      </trkpt>
      <trkpt lat="48.27371" lon="3.2162">
        <ele>79</ele>
        <time>2013-08-03T10:00:02Z</time>
      </trkpt>
      <trkpt lat="48.27366" lon="3.21623">
        <ele>78</ele>
        <time>2013-08-03T10:00:04Z</time>
      </trkpt>
      <trkpt lat="48.27361" lon="3.21628">
        <ele>78</ele>
        <time>2013-08-03T10:00:06Z</time>
      </trkpt>
      <trkpt lat="48.27355" lon="3.21633">
        <ele>78</ele>
        <time>2013-08-03T10:00:08Z</time>
      </trkpt>
      <trkpt lat="48.2735" lon="3.21638">
        <ele>78</ele>
        <time>2013-08-03T10:00:10Z</time>
      </trkpt>
      <trkpt lat="48.27346" lon="3.21642">
        <ele>78</ele>
        <time>2013-08-03T10:00:12Z</time>
      </trkpt>
      <trkpt lat="48.27341" lon="3.21647">
        <ele>78</ele>
        <time>2013-08-03T10:00:15Z</time>
      </trkpt>
      <trkpt lat="48.27346" lon="3.21649">
        <ele>78</ele>
        <time>2013-08-03T10:00:21Z</time>
      </trkpt>
      <trkpt lat="48.27351" lon="3.21652">
        <ele>78</ele>
        <time>2013-08-03T10:00:26Z</time>
      </trkpt>
      <trkpt lat="48.2735" lon="3.2166">
        <ele>78</ele>
        <time>2013-08-03T10:00:34Z</time>
      </trkpt>
      <trkpt lat="48.27346" lon="3.21665">
        <ele>78</ele>
        <time>2013-08-03T10:00:37Z</time>
      </trkpt>
      <trkpt lat="48.2734" lon="3.2167">
        <ele>78</ele>
        <time>2013-08-03T10:00:40Z</time>
      </trkpt>
      <trkpt lat="48.27335" lon="3.21674">
        <ele>78</ele>
        <time>2013-08-03T10:00:42Z</time>
      </trkpt>
      <trkpt lat="48.2733" lon="3.2168">
        <ele>76</ele>
        <time>2013-08-03T10:00:44Z</time>
      </trkpt>
      <trkpt lat="48.27325" lon="3.21685">
        <ele>75</ele>
        <time>2013-08-03T10:00:46Z</time>
      </trkpt>
      <trkpt lat="48.27319" lon="3.21691">
        <ele>75</ele>
        <time>2013-08-03T10:00:48Z</time>
      </trkpt>
      <trkpt lat="48.27315" lon="3.21697">
        <ele>74</ele>
        <time>2013-08-03T10:00:50Z</time>
      </trkpt>
      <trkpt lat="48.2731" lon="3.21702">
        <ele>74</ele>
        <time>2013-08-03T10:00:52Z</time>
      </trkpt>
      <trkpt lat="48.27307" lon="3.21706">
        <ele>74</ele>
        <time>2013-08-03T10:00:54Z</time>
      </trkpt>
      <trkpt lat="48.27303" lon="3.21711">
        <ele>74</ele>
        <time>2013-08-03T10:00:56Z</time>
      </trkpt>
      <trkpt lat="48.27299" lon="3.21716">
        <ele>74</ele>
        <time>2013-08-03T10:00:58Z</time>
      </trkpt>
      <trkpt lat="48.27295" lon="3.2172">
        <ele>73</ele>
        <time>2013-08-03T10:01:00Z</time>
      </trkpt>
      <trkpt lat="48.2729" lon="3.21724">
        <ele>73</ele>
        <time>2013-08-03T10:01:03Z</time>
      </trkpt>
      <trkpt lat="48.27287" lon="3.21729">
        <ele>73</ele>
        <time>2013-08-03T10:01:05Z</time>
      </trkpt>
      <trkpt lat="48.27283" lon="3.21734">
        <ele>73</ele>
        <time>2013-08-03T10:01:07Z</time>
      </trkpt>
      <trkpt lat="48.27279" lon="3.21738">
        <ele>72</ele>
        <time>2013-08-03T10:01:09Z</time>
      </trkpt>
      <trkpt lat="48.27273" lon="3.21741">
        <ele>72</ele>
        <time>2013-08-03T10:01:12Z</time>
      </trkpt>
      <trkpt lat="48.27267" lon="3.21747">
        <ele>71</ele>
        <time>2013-08-03T10:01:15Z</time>
      </trkpt>
      <trkpt lat="48.2726" lon="3.21755">
        <ele>71</ele>
        <time>2013-08-03T10:01:19Z</time>
      </trkpt>
      <trkpt lat="48.27253" lon="3.21765">
        <ele>71</ele>
        <time>2013-08-03T10:01:25Z</time>
      </trkpt>
      <trkpt lat="48.27249" lon="3.21776">
        <ele>69</ele>
        <time>2013-08-03T10:01:37Z</time>
      </trkpt>
      <trkpt lat="48.27246" lon="3.21782">
        <ele>69</ele>
        <time>2013-08-03T10:01:43Z</time>
      </trkpt>
      <trkpt lat="48.27249" lon="3.21796">
        <ele>69</ele>
        <time>2013-08-03T10:01:52Z</time>
      </trkpt>
      <trkpt lat="48.2725" lon="3.21802">
        <ele>69</ele>
        <time>2013-08-03T10:01:56Z</time>
      </trkpt>
      <trkpt lat="48.27249" lon="3.2181">
        <ele>69</ele>
        <time>2013-08-03T10:02:00Z</time>
      </trkpt>
      <trkpt lat="48.27253" lon="3.21812">
        <ele>72</ele>
        <time>2013-08-03T10:02:10Z</time>
      </trkpt>
      <trkpt lat="48.27251" lon="3.21819">
        <ele>72</ele>
        <time>2013-08-03T10:02:19Z</time>
      </trkpt>
      <trkpt lat="48.27248" lon="3.21825">
        <ele>69</ele>
        <time>2013-08-03T10:02:26Z</time>
      </trkpt>
      <trkpt lat="48.27244" lon="3.21831">
        <ele>70</ele>
        <time>2013-08-03T10:02:30Z</time>
      </trkpt>
      <trkpt lat="48.2724" lon="3.21835">
        <ele>69</ele>
        <time>2013-08-03T10:02:34Z</time>
      </trkpt>
      <trkpt lat="48.27237" lon="3.2184">
        <ele>69</ele>
        <time>2013-08-03T10:02:38Z</time>
      </trkpt>
      <trkpt lat="48.27235" lon="3.21847">
        <ele>69</ele>
        <time>2013-08-03T10:02:45Z</time>
      </trkpt>
      <trkpt lat="48.27232" lon="3.21853">
        <ele>69</ele>
        <time>2013-08-03T10:02:49Z</time>
      </trkpt>
      <trkpt lat="48.27229" lon="3.2186">
        <ele>69</ele>
        <time>2013-08-03T10:02:53Z</time>
      </trkpt>
      <trkpt lat="48.27226" lon="3.21866">
        <ele>69</ele>
        <time>2013-08-03T10:02:58Z</time>
      </trkpt>
      <trkpt lat="48.27223" lon="3.21872">
        <ele>69</ele>
        <time>2013-08-03T10:03:02Z</time>
      </trkpt>
      <trkpt lat="48.27219" lon="3.21878">
        <ele>69</ele>
        <time>2013-08-03T10:03:07Z</time>
      </trkpt>
      <trkpt lat="48.27218" lon="3.21886">
        <ele>69</ele>
        <time>2013-08-03T10:03:12Z</time>
      </trkpt>
      <trkpt lat="48.27214" lon="3.21891">
        <ele>69</ele>
        <time>2013-08-03T10:03:17Z</time>
      </trkpt>
      <trkpt lat="48.2721" lon="3.21896">
        <ele>68</ele>
        <time>2013-08-03T10:03:20Z</time>
      </trkpt>
      <trkpt lat="48.27206" lon="3.21901">
        <ele>68</ele>
        <time>2013-08-03T10:03:24Z</time>
      </trkpt>
      <trkpt lat="48.27203" lon="3.21907">
        <ele>68</ele>
        <time>2013-08-03T10:03:28Z</time>
      </trkpt>
      <trkpt lat="48.27202" lon="3.21917">
        <ele>69</ele>
        <time>2013-08-03T10:03:38Z</time>
      </trkpt>
      <trkpt lat="48.27204" lon="3.21924">
        <ele>69</ele>
        <time>2013-08-03T10:03:42Z</time>
      </trkpt>
      <trkpt lat="48.27205" lon="3.21931">
        <ele>69</ele>
        <time>2013-08-03T10:03:46Z</time>
      </trkpt>
      <trkpt lat="48.27205" lon="3.21939">
        <ele>69</ele>
        <time>2013-08-03T10:03:50Z</time>
      </trkpt>
      <trkpt lat="48.27204" lon="3.21949">
        <ele>70</ele>
        <time>2013-08-03T10:03:54Z</time>
      </trkpt>
      <trkpt lat="48.27203" lon="3.21957">
        <ele>70</ele>
        <time>2013-08-03T10:03:58Z</time>
      </trkpt>
      <trkpt lat="48.27203" lon="3.21965">
        <ele>70</ele>
        <time>2013-08-03T10:04:03Z</time>
      </trkpt>
      <trkpt lat="48.27201" lon="3.21971">
        <ele>70</ele>
        <time>2013-08-03T10:04:06Z</time>
      </trkpt>
      <trkpt lat="48.27199" lon="3.21979">
        <ele>69</ele>
        <time>2013-08-03T10:04:10Z</time>
      </trkpt>
      <trkpt lat="48.27198" lon="3.21986">
        <ele>69</ele>
        <time>2013-08-03T10:04:13Z</time>
      </trkpt>
      <trkpt lat="48.27198" lon="3.21994">
        <ele>69</ele>
        <time>2013-08-03T10:04:17Z</time>
      </trkpt>
      <trkpt lat="48.27199" lon="3.22002">
        <ele>70</ele>
        <time>2013-08-03T10:04:21Z</time>
      </trkpt>
      <trkpt lat="48.272" lon="3.22011">
        <ele>70</ele>
        <time>2013-08-03T10:04:25Z</time>
      </trkpt>
      <trkpt lat="48.27201" lon="3.22018">
        <ele>70</ele>
        <time>2013-08-03T10:04:28Z</time>
      </trkpt>
      <trkpt lat="48.272" lon="3.22024">
        <ele>70</ele>
        <time>2013-08-03T10:04:37Z</time>
      </trkpt>
      <trkpt lat="48.27199" lon="3.22029">
        <ele>70</ele>
        <time>2013-08-03T10:04:50Z</time>
      </trkpt>
      <trkpt lat="48.27199" lon="3.22037">
        <ele>70</ele>
        <time>2013-08-03T10:04:53Z</time>
      </trkpt>
      <trkpt lat="48.27198" lon="3.22044">
        <ele>70</ele>
        <time>2013-08-03T10:04:56Z</time>
      </trkpt>
      <trkpt lat="48.27197" lon="3.22052">
        <ele>70</ele>
        <time>2013-08-03T10:05:01Z</time>
      </trkpt>
      <trkpt lat="48.27194" lon="3.22058">
        <ele>70</ele>
        <time>2013-08-03T10:05:05Z</time>
      </trkpt>
      <trkpt lat="48.27194" lon="3.22066">
        <ele>70</ele>
        <time>2013-08-03T10:05:09Z</time>
      </trkpt>
      <trkpt lat="48.27195" lon="3.22072">
        <ele>70</ele>
        <time>2013-08-03T10:05:14Z</time>
      </trkpt>
      <trkpt lat="48.27193" lon="3.22079">
        <ele>69</ele>
        <time>2013-08-03T10:05:18Z</time>
      </trkpt>
      <trkpt lat="48.27191" lon="3.22087">
        <ele>67</ele>
        <time>2013-08-03T10:05:22Z</time>
      </trkpt>
      <trkpt lat="48.27192" lon="3.22094">
        <ele>67</ele>
        <time>2013-08-03T10:05:26Z</time>
      </trkpt>
      <trkpt lat="48.27191" lon="3.22103">
        <ele>67</ele>
        <time>2013-08-03T10:05:30Z</time>
      </trkpt>
      <trkpt lat="48.27191" lon="3.2211">
        <ele>67</ele>
        <time>2013-08-03T10:05:34Z</time>
      </trkpt>
      <trkpt lat="48.27191" lon="3.22117">
        <ele>67</ele>
        <time>2013-08-03T10:05:37Z</time>
      </trkpt>
      <trkpt lat="48.27192" lon="3.22126">
        <ele>66</ele>
        <time>2013-08-03T10:05:41Z</time>
      </trkpt>
      <trkpt lat="48.27195" lon="3.22133">
        <ele>66</ele>
        <time>2013-08-03T10:05:45Z</time>
      </trkpt>
      <trkpt lat="48.27197" lon="3.2214">
        <ele>66</ele>
        <time>2013-08-03T10:05:53Z</time>
      </trkpt>
      <trkpt lat="48.27195" lon="3.22148">
        <ele>66</ele>
        <time>2013-08-03T10:05:58Z</time>
      </trkpt>
      <trkpt lat="48.27191" lon="3.22153">
        <ele>65</ele>
        <time>2013-08-03T10:06:05Z</time>
      </trkpt>
      <trkpt lat="48.27185" lon="3.22156">
        <ele>65</ele>
        <time>2013-08-03T10:06:11Z</time>
      </trkpt>
      <trkpt lat="48.2718" lon="3.22159">
        <ele>64</ele>
        <time>2013-08-03T10:06:13Z</time>
      </trkpt>
      <trkpt lat="48.27175" lon="3.22161">
        <ele>64</ele>
        <time>2013-08-03T10:06:15Z</time>
      </trkpt>
      <trkpt lat="48.27177" lon="3.22169">
        <ele>62</ele>
        <time>2013-08-03T10:06:21Z</time>
      </trkpt>
      <trkpt lat="48.27172" lon="3.22174">
        <ele>62</ele>
        <time>2013-08-03T10:06:25Z</time>
      </trkpt>
      <trkpt lat="48.27167" lon="3.22176">
        <ele>62</ele>
        <time>2013-08-03T10:06:28Z</time>
      </trkpt>
      <trkpt lat="48.27163" lon="3.22181">
        <ele>63</ele>
        <time>2013-08-03T10:06:33Z</time>
      </trkpt>
      <trkpt lat="48.2716" lon="3.22185">
        <ele>63</ele>
        <time>2013-08-03T10:06:36Z</time>
      </trkpt>
      <trkpt lat="48.27156" lon="3.22191">
        <ele>63</ele>
        <time>2013-08-03T10:06:40Z</time>
      </trkpt>
      <trkpt lat="48.27152" lon="3.22194">
        <ele>63</ele>
        <time>2013-08-03T10:06:45Z</time>
      </trkpt>
      <trkpt lat="48.27148" lon="3.222">
        <ele>63</ele>
        <time>2013-08-03T10:06:53Z</time>
      </trkpt>
      <trkpt lat="48.27145" lon="3.22206">
        <ele>63</ele>
        <time>2013-08-03T10:06:57Z</time>
      </trkpt>
      <trkpt lat="48.2714" lon="3.22209">
        <ele>63</ele>
        <time>2013-08-03T10:07:00Z</time>
      </trkpt>
      <trkpt lat="48.27138" lon="3.22216">
        <ele>63</ele>
        <time>2013-08-03T10:07:03Z</time>
      </trkpt>
      <trkpt lat="48.27133" lon="3.2222">
        <ele>63</ele>
        <time>2013-08-03T10:07:08Z</time>
      </trkpt>
      <trkpt lat="48.27128" lon="3.22223">
        <ele>63</ele>
        <time>2013-08-03T10:07:12Z</time>
      </trkpt>
      <trkpt lat="48.27123" lon="3.22224">
        <ele>63</ele>
        <time>2013-08-03T10:07:15Z</time>
      </trkpt>
      <trkpt lat="48.27119" lon="3.22227">
        <ele>63</ele>
        <time>2013-08-03T10:07:18Z</time>
      </trkpt>
      <trkpt lat="48.27114" lon="3.22229">
        <ele>63</ele>
        <time>2013-08-03T10:07:22Z</time>
      </trkpt>
      <trkpt lat="48.2711" lon="3.22234">
        <ele>63</ele>
        <time>2013-08-03T10:07:27Z</time>
      </trkpt>
      <trkpt lat="48.27112" lon="3.22235">
        <ele>63</ele>
        <time>2013-08-03T10:07:45Z</time>
      </trkpt>
      <trkpt lat="48.27108" lon="3.2224">
        <ele>63</ele>
        <time>2013-08-03T10:07:58Z</time>
      </trkpt>
      <trkpt lat="48.27104" lon="3.22246">
        <ele>63</ele>
        <time>2013-08-03T10:08:01Z</time>
      </trkpt>
      <trkpt lat="48.271" lon="3.2225">
        <ele>63</ele>
        <time>2013-08-03T10:08:04Z</time>
      </trkpt>
      <trkpt lat="48.27096" lon="3.22254">
        <ele>63</ele>
        <time>2013-08-03T10:08:09Z</time>
      </trkpt>
      <trkpt lat="48.27094" lon="3.22256">
        <ele>63</ele>
        <time>2013-08-03T10:08:14Z</time>
      </trkpt>
      <trkpt lat="48.27088" lon="3.22259">
        <ele>63</ele>
        <time>2013-08-03T10:08:19Z</time>
      </trkpt>
      <trkpt lat="48.27083" lon="3.2226">
        <ele>63</ele>
        <time>2013-08-03T10:08:21Z</time>
      </trkpt>
      <trkpt lat="48.27079" lon="3.22263">
        <ele>64</ele>
        <time>2013-08-03T10:08:24Z</time>
      </trkpt>
      <trkpt lat="48.27076" lon="3.22269">
        <ele>64</ele>
        <time>2013-08-03T10:08:33Z</time>
      </trkpt>
      <trkpt lat="48.27074" lon="3.22272">
        <ele>64</ele>
        <time>2013-08-03T10:08:55Z</time>
      </trkpt>
      <trkpt lat="48.2707" lon="3.22275">
        <ele>64</ele>
        <time>2013-08-03T10:09:07Z</time>
      </trkpt>
      <trkpt lat="48.27066" lon="3.22279">
        <ele>64</ele>
        <time>2013-08-03T10:09:10Z</time>
      </trkpt>
      <trkpt lat="48.27062" lon="3.22284">
        <ele>64</ele>
        <time>2013-08-03T10:09:13Z</time>
      </trkpt>
      <trkpt lat="48.27057" lon="3.22287">
        <ele>64</ele>
        <time>2013-08-03T10:09:16Z</time>
      </trkpt>
      <trkpt lat="48.27052" lon="3.2229">
        <ele>64</ele>
        <time>2013-08-03T10:09:21Z</time>
      </trkpt>
      <trkpt lat="48.27049" lon="3.22294">
        <ele>64</ele>
        <time>2013-08-03T10:09:24Z</time>
      </trkpt>
      <trkpt lat="48.27044" lon="3.22298">
        <ele>64</ele>
        <time>2013-08-03T10:09:27Z</time>
      </trkpt>
      <trkpt lat="48.27041" lon="3.223">
        <ele>64</ele>
        <time>2013-08-03T10:09:35Z</time>
      </trkpt>
      <trkpt lat="48.27037" lon="3.22306">
        <ele>64</ele>
        <time>2013-08-03T10:10:08Z</time>
      </trkpt>
      <trkpt lat="48.27032" lon="3.22311">
        <ele>64</ele>
        <time>2013-08-03T10:10:12Z</time>
      </trkpt>
      <trkpt lat="48.27029" lon="3.22316">
        <ele>65</ele>
        <time>2013-08-03T10:10:16Z</time>
      </trkpt>
      <trkpt lat="48.27025" lon="3.2232">
        <ele>65</ele>
        <time>2013-08-03T10:10:20Z</time>
      </trkpt>
      <trkpt lat="48.27023" lon="3.22323">
        <ele>65</ele>
        <time>2013-08-03T10:10:26Z</time>
      </trkpt>
      <trkpt lat="48.27019" lon="3.22326">
        <ele>65</ele>
        <time>2013-08-03T10:10:31Z</time>
      </trkpt>
      <trkpt lat="48.27014" lon="3.22329">
        <ele>65</ele>
        <time>2013-08-03T10:10:35Z</time>
      </trkpt>
      <trkpt lat="48.27009" lon="3.22327">
        <ele>65</ele>
        <time>2013-08-03T10:10:37Z</time>
      </trkpt>
      <trkpt lat="48.27004" lon="3.22326">
        <ele>65</ele>
        <time>2013-08-03T10:10:41Z</time>
      </trkpt>
      <trkpt lat="48.27" lon="3.22321">
        <ele>68</ele>
        <time>2013-08-03T10:10:44Z</time>
      </trkpt>
      <trkpt lat="48.26996" lon="3.22316">
        <ele>68</ele>
        <time>2013-08-03T10:10:46Z</time>
      </trkpt>
      <trkpt lat="48.26993" lon="3.2231">
        <ele>69</ele>
        <time>2013-08-03T10:10:48Z</time>
      </trkpt>
      <trkpt lat="48.2699" lon="3.22304">
        <ele>70</ele>
        <time>2013-08-03T10:10:50Z</time>
      </trkpt>
      <trkpt lat="48.26987" lon="3.223">
        <ele>70</ele>
        <time>2013-08-03T10:11:00Z</time>
      </trkpt>
      <trkpt lat="48.26984" lon="3.22299">
        <ele>70</ele>
        <time>2013-08-03T10:11:30Z</time>
      </trkpt>
      <trkpt lat="48.26981" lon="3.22291">
        <ele>71</ele>
        <time>2013-08-03T10:11:35Z</time>
      </trkpt>
      <trkpt lat="48.2698" lon="3.22284">
        <ele>71</ele>
        <time>2013-08-03T10:11:37Z</time>
      </trkpt>
      <trkpt lat="48.26978" lon="3.22277">
        <ele>71</ele>
        <time>2013-08-03T10:11:39Z</time>
      </trkpt>
      <trkpt lat="48.26977" lon="3.2227">
        <ele>71</ele>
        <time>2013-08-03T10:11:41Z</time>
      </trkpt>
      <trkpt lat="48.26973" lon="3.22267">
        <ele>71</ele>
        <time>2013-08-03T10:11:45Z</time>
      </trkpt>
      <trkpt lat="48.26968" lon="3.22265">
        <ele>72</ele>
        <time>2013-08-03T10:11:50Z</time>
      </trkpt>
      <trkpt lat="48.26965" lon="3.22256">
        <ele>72</ele>
        <time>2013-08-03T10:12:01Z</time>
      </trkpt>
      <trkpt lat="48.26962" lon="3.2225">
        <ele>72</ele>
        <time>2013-08-03T10:12:04Z</time>
      </trkpt>
      <trkpt lat="48.26959" lon="3.22243">
        <ele>74</ele>
        <time>2013-08-03T10:12:06Z</time>
      </trkpt>
      <trkpt lat="48.26957" lon="3.22236">
        <ele>74</ele>
        <time>2013-08-03T10:12:08Z</time>
      </trkpt>
      <trkpt lat="48.26954" lon="3.22232">
        <ele>74</ele>
        <time>2013-08-03T10:12:13Z</time>
      </trkpt>
      <trkpt lat="48.2695" lon="3.22225">
        <ele>74</ele>
        <time>2013-08-03T10:12:19Z</time>
      </trkpt>
      <trkpt lat="48.26948" lon="3.22218">
        <ele>74</ele>
        <time>2013-08-03T10:12:21Z</time>
      </trkpt>
      <trkpt lat="48.26945" lon="3.2221">
        <ele>75</ele>
        <time>2013-08-03T10:12:24Z</time>
      </trkpt>
      <trkpt lat="48.26941" lon="3.22206">
        <ele>75</ele>
        <time>2013-08-03T10:12:30Z</time>
      </trkpt>
      <trkpt lat="48.26938" lon="3.22197">
        <ele>75</ele>
        <time>2013-08-03T10:12:33Z</time>
      </trkpt>
      <trkpt lat="48.26934" lon="3.22194">
        <ele>75</ele>
        <time>2013-08-03T10:12:36Z</time>
      </trkpt>
      <trkpt lat="48.26929" lon="3.2219">
        <ele>75</ele>
        <time>2013-08-03T10:12:39Z</time>
      </trkpt>
      <trkpt lat="48.26924" lon="3.22191">
        <ele>76</ele>
        <time>2013-08-03T10:12:42Z</time>
      </trkpt>
      <trkpt lat="48.26922" lon="3.22197">
        <ele>76</ele>
        <time>2013-08-03T10:12:47Z</time>
      </trkpt>
      <trkpt lat="48.26918" lon="3.22205">
        <ele>76</ele>
        <time>2013-08-03T10:12:55Z</time>
      </trkpt>
      <trkpt lat="48.26916" lon="3.22211">
        <ele>81</ele>
        <time>2013-08-03T10:12:58Z</time>
      </trkpt>
      <trkpt lat="48.26915" lon="3.22218">
        <ele>81</ele>
        <time>2013-08-03T10:13:01Z</time>
      </trkpt>
      <trkpt lat="48.26912" lon="3.22225">
        <ele>81</ele>
        <time>2013-08-03T10:13:04Z</time>
      </trkpt>
      <trkpt lat="48.26907" lon="3.22229">
        <ele>81</ele>
        <time>2013-08-03T10:13:08Z</time>
      </trkpt>
      <trkpt lat="48.26904" lon="3.22229">
        <ele>81</ele>
        <time>2013-08-03T10:13:17Z</time>
      </trkpt>
      <trkpt lat="48.26901" lon="3.22235">
        <ele>81</ele>
        <time>2013-08-03T10:13:23Z</time>
      </trkpt>
      <trkpt lat="48.269" lon="3.22242">
        <ele>81</ele>
        <time>2013-08-03T10:13:27Z</time>
      </trkpt>
      <trkpt lat="48.26897" lon="3.2225">
        <ele>81</ele>
        <time>2013-08-03T10:13:31Z</time>
      </trkpt>
      <trkpt lat="48.26893" lon="3.22254">
        <ele>81</ele>
        <time>2013-08-03T10:13:37Z</time>
      </trkpt>
      <trkpt lat="48.2689" lon="3.22261">
        <ele>81</ele>
        <time>2013-08-03T10:13:42Z</time>
      </trkpt>
      <trkpt lat="48.26886" lon="3.22266">
        <ele>82</ele>
        <time>2013-08-03T10:13:46Z</time>
      </trkpt>
      <trkpt lat="48.26882" lon="3.22271">
        <ele>82</ele>
        <time>2013-08-03T10:13:50Z</time>
      </trkpt>
      <trkpt lat="48.26879" lon="3.22278">
        <ele>82</ele>
        <time>2013-08-03T10:13:54Z</time>
      </trkpt>
      <trkpt lat="48.26876" lon="3.22285">
        <ele>82</ele>
        <time>2013-08-03T10:13:59Z</time>
      </trkpt>
      <trkpt lat="48.26874" lon="3.22292">
        <ele>82</ele>
        <time>2013-08-03T10:14:03Z</time>
      </trkpt>
      <trkpt lat="48.26872" lon="3.22299">
        <ele>82</ele>
        <time>2013-08-03T10:14:07Z</time>
      </trkpt>
      <trkpt lat="48.26869" lon="3.22306">
        <ele>82</ele>
        <time>2013-08-03T10:14:11Z</time>
      </trkpt>
      <trkpt lat="48.26867" lon="3.22314">
        <ele>82</ele>
        <time>2013-08-03T10:14:15Z</time>
      </trkpt>
      <trkpt lat="48.26865" lon="3.22321">
        <ele>82</ele>
        <time>2013-08-03T10:14:20Z</time>
      </trkpt>
      <trkpt lat="48.26861" lon="3.22325">
        <ele>83</ele>
        <time>2013-08-03T10:14:25Z</time>
      </trkpt>
      <trkpt lat="48.26857" lon="3.22332">
        <ele>83</ele>
        <time>2013-08-03T10:14:30Z</time>
      </trkpt>
      <trkpt lat="48.26853" lon="3.22338">
        <ele>82</ele>
        <time>2013-08-03T10:14:34Z</time>
      </trkpt>
      <trkpt lat="48.2685" lon="3.22345">
        <ele>82</ele>
        <time>2013-08-03T10:14:38Z</time>
      </trkpt>
      <trkpt lat="48.26847" lon="3.2235">
        <ele>82</ele>
        <time>2013-08-03T10:14:41Z</time>
      </trkpt>
      <trkpt lat="48.26842" lon="3.22356">
        <ele>82</ele>
        <time>2013-08-03T10:14:45Z</time>
      </trkpt>
      <trkpt lat="48.2684" lon="3.22362">
        <ele>82</ele>
        <time>2013-08-03T10:14:49Z</time>
      </trkpt>
      <trkpt lat="48.26834" lon="3.22366">
        <ele>82</ele>
        <time>2013-08-03T10:14:52Z</time>
      </trkpt>
      <trkpt lat="48.26828" lon="3.22369">
        <ele>90</ele>
        <time>2013-08-03T10:14:54Z</time>
      </trkpt>
      <trkpt lat="48.26824" lon="3.22374">
        <ele>90</ele>
        <time>2013-08-03T10:14:58Z</time>
      </trkpt>
      <trkpt lat="48.26823" lon="3.22381">
        <ele>90</ele>
        <time>2013-08-03T10:15:02Z</time>
      </trkpt>
      <trkpt lat="48.26821" lon="3.22389">
        <ele>90</ele>
        <time>2013-08-03T10:15:07Z</time>
      </trkpt>
      <trkpt lat="48.2682" lon="3.22397">
        <ele>89</ele>
        <time>2013-08-03T10:15:12Z</time>
      </trkpt>
      <trkpt lat="48.26818" lon="3.22403">
        <ele>89</ele>
        <time>2013-08-03T10:15:17Z</time>
      </trkpt>
      <trkpt lat="48.26815" lon="3.22409">
        <ele>89</ele>
        <time>2013-08-03T10:15:21Z</time>
      </trkpt>
      <trkpt lat="48.26812" lon="3.22415">
        <ele>90</ele>
        <time>2013-08-03T10:15:25Z</time>
      </trkpt>
      <trkpt lat="48.2681" lon="3.22423">
        <ele>89</ele>
        <time>2013-08-03T10:15:30Z</time>
      </trkpt>
      <trkpt lat="48.26807" lon="3.2243">
        <ele>89</ele>
        <time>2013-08-03T10:15:34Z</time>
      </trkpt>
      <trkpt lat="48.26805" lon="3.22436">
        <ele>89</ele>
        <time>2013-08-03T10:15:38Z</time>
      </trkpt>
      <trkpt lat="48.26803" lon="3.22443">
        <ele>90</ele>
        <time>2013-08-03T10:15:42Z</time>
      </trkpt>
      <trkpt lat="48.268" lon="3.22449">
        <ele>90</ele>
        <time>2013-08-03T10:15:46Z</time>
      </trkpt>
      <trkpt lat="48.26797" lon="3.22456">
        <ele>90</ele>
        <time>2013-08-03T10:15:50Z</time>
      </trkpt>
      <trkpt lat="48.26795" lon="3.22462">
        <ele>90</ele>
        <time>2013-08-03T10:15:54Z</time>
      </trkpt>
      <trkpt lat="48.26794" lon="3.22471">
        <ele>90</ele>
        <time>2013-08-03T10:15:58Z</time>
      </trkpt>
      <trkpt lat="48.26794" lon="3.2248">
        <ele>90</ele>
        <time>2013-08-03T10:16:01Z</time>
      </trkpt>
      <trkpt lat="48.2679" lon="3.22486">
        <ele>90</ele>
        <time>2013-08-03T10:16:05Z</time>
      </trkpt>
      <trkpt lat="48.26785" lon="3.22486">
        <ele>91</ele>
        <time>2013-08-03T10:16:17Z</time>
      </trkpt>
      <trkpt lat="48.26781" lon="3.2249">
        <ele>92</ele>
        <time>2013-08-03T10:16:20Z</time>
      </trkpt>
      <trkpt lat="48.26776" lon="3.22494">
        <ele>93</ele>
        <time>2013-08-03T10:16:23Z</time>
      </trkpt>
      <trkpt lat="48.26771" lon="3.22499">
        <ele>94</ele>
        <time>2013-08-03T10:16:27Z</time>
      </trkpt>
      <trkpt lat="48.2677" lon="3.22506">
        <ele>90</ele>
        <time>2013-08-03T10:16:31Z</time>
      </trkpt>
      <trkpt lat="48.26766" lon="3.2251">
        <ele>91</ele>
        <time>2013-08-03T10:16:35Z</time>
      </trkpt>
      <trkpt lat="48.26762" lon="3.22515">
        <ele>91</ele>
        <time>2013-08-03T10:16:38Z</time>
      </trkpt>
      <trkpt lat="48.26759" lon="3.22519">
        <ele>90</ele>
        <time>2013-08-03T10:16:41Z</time>
      </trkpt>
      <trkpt lat="48.26755" lon="3.22523">
        <ele>90</ele>
        <time>2013-08-03T10:16:45Z</time>
      </trkpt>
      <trkpt lat="48.2675" lon="3.22529">
        <ele>89</ele>
        <time>2013-08-03T10:17:04Z</time>
      </trkpt>
      <trkpt lat="48.26745" lon="3.22532">
        <ele>100</ele>
        <time>2013-08-03T10:17:08Z</time>
      </trkpt>
      <trkpt lat="48.26742" lon="3.22538">
        <ele>99</ele>
        <time>2013-08-03T10:17:13Z</time>
      </trkpt>
      <trkpt lat="48.26738" lon="3.22542">
        <ele>99</ele>
        <time>2013-08-03T10:17:17Z</time>
      </trkpt>
      <trkpt lat="48.26734" lon="3.22549">
        <ele>99</ele>
        <time>2013-08-03T10:17:32Z</time>
      </trkpt>
      <trkpt lat="48.26729" lon="3.22552">
        <ele>99</ele>
        <time>2013-08-03T10:17:34Z</time>
      </trkpt>
      <trkpt lat="48.26724" lon="3.22555">
        <ele>99</ele>
        <time>2013-08-03T10:17:38Z</time>
      </trkpt>
      <trkpt lat="48.26719" lon="3.22558">
        <ele>99</ele>
        <time>2013-08-03T10:17:43Z</time>
      </trkpt>
      <trkpt lat="48.26715" lon="3.22562">
        <ele>99</ele>
        <time>2013-08-03T10:17:51Z</time>
      </trkpt>
      <trkpt lat="48.26711" lon="3.22567">
        <ele>99</ele>
        <time>2013-08-03T10:17:55Z</time>
      </trkpt>
      <trkpt lat="48.26707" lon="3.22572">
        <ele>100</ele>
        <time>2013-08-03T10:17:59Z</time>
      </trkpt>
      <trkpt lat="48.26702" lon="3.22575">
        <ele>100</ele>
        <time>2013-08-03T10:18:03Z</time>
      </trkpt>
      <trkpt lat="48.26697" lon="3.22576">
        <ele>101</ele>
        <time>2013-08-03T10:18:11Z</time>
      </trkpt>
      <trkpt lat="48.26693" lon="3.22578">
        <ele>101</ele>
        <time>2013-08-03T10:18:18Z</time>
      </trkpt>
      <trkpt lat="48.26688" lon="3.22581">
        <ele>101</ele>
        <time>2013-08-03T10:18:23Z</time>
      </trkpt>
      <trkpt lat="48.26683" lon="3.22581">
        <ele>102</ele>
        <time>2013-08-03T10:18:28Z</time>
      </trkpt>
      <trkpt lat="48.26678" lon="3.22582">
        <ele>102</ele>
        <time>2013-08-03T10:18:33Z</time>
      </trkpt>
      <trkpt lat="48.26672" lon="3.22586">
        <ele>99</ele>
        <time>2013-08-03T10:18:40Z</time>
      </trkpt>
      <trkpt lat="48.26667" lon="3.22587">
        <ele>101</ele>
        <time>2013-08-03T10:18:44Z</time>
      </trkpt>
      <trkpt lat="48.26662" lon="3.22589">
        <ele>101</ele>
        <time>2013-08-03T10:18:48Z</time>
      </trkpt>
      <trkpt lat="48.26657" lon="3.2259">
        <ele>100</ele>
        <time>2013-08-03T10:18:52Z</time>
      </trkpt>
      <trkpt lat="48.26652" lon="3.22593">
        <ele>99</ele>
        <time>2013-08-03T10:18:56Z</time>
      </trkpt>
      <trkpt lat="48.26647" lon="3.22596">
        <ele>98</ele>
        <time>2013-08-03T10:19:01Z</time>
      </trkpt>
      <trkpt lat="48.26643" lon="3.22597">
        <ele>98</ele>
        <time>2013-08-03T10:19:07Z</time>
      </trkpt>
      <trkpt lat="48.26638" lon="3.22601">
        <ele>97</ele>
        <time>2013-08-03T10:19:12Z</time>
      </trkpt>
      <trkpt lat="48.26633" lon="3.22605">
        <ele>97</ele>
        <time>2013-08-03T10:19:17Z</time>
      </trkpt>
      <trkpt lat="48.26629" lon="3.22608">
        <ele>97</ele>
        <time>2013-08-03T10:19:21Z</time>
      </trkpt>
      <trkpt lat="48.26625" lon="3.22613">
        <ele>96</ele>
        <time>2013-08-03T10:19:26Z</time>
      </trkpt>
      <trkpt lat="48.26621" lon="3.22618">
        <ele>96</ele>
        <time>2013-08-03T10:19:30Z</time>
      </trkpt>
      <trkpt lat="48.26617" lon="3.22622">
        <ele>96</ele>
        <time>2013-08-03T10:19:34Z</time>
      </trkpt>
      <trkpt lat="48.26612" lon="3.22626">
        <ele>95</ele>
        <time>2013-08-03T10:19:38Z</time>
      </trkpt>
      <trkpt lat="48.26608" lon="3.2263">
        <ele>95</ele>
        <time>2013-08-03T10:19:42Z</time>
      </trkpt>
      <trkpt lat="48.26604" lon="3.22634">
        <ele>95</ele>
        <time>2013-08-03T10:19:46Z</time>
      </trkpt>
      <trkpt lat="48.26601" lon="3.2264">
        <ele>94</ele>
        <time>2013-08-03T10:19:51Z</time>
      </trkpt>
      <trkpt lat="48.26597" lon="3.22644">
        <ele>94</ele>
        <time>2013-08-03T10:19:57Z</time>
      </trkpt>
      <trkpt lat="48.26593" lon="3.22649">
        <ele>93</ele>
        <time>2013-08-03T10:20:00Z</time>
      </trkpt>
      <trkpt lat="48.26588" lon="3.22654">
        <ele>92</ele>
        <time>2013-08-03T10:20:04Z</time>
      </trkpt>
      <trkpt lat="48.26584" lon="3.22658">
        <ele>91</ele>
        <time>2013-08-03T10:20:07Z</time>
      </trkpt>
      <trkpt lat="48.26581" lon="3.22664">
        <ele>91</ele>
        <time>2013-08-03T10:20:11Z</time>
      </trkpt>
      <trkpt lat="48.26577" lon="3.2267">
        <ele>89</ele>
        <time>2013-08-03T10:20:17Z</time>
      </trkpt>
      <trkpt lat="48.26572" lon="3.22674">
        <ele>88</ele>
        <time>2013-08-03T10:20:21Z</time>
      </trkpt>
      <trkpt lat="48.26569" lon="3.22679">
        <ele>88</ele>
        <time>2013-08-03T10:20:27Z</time>
      </trkpt>
      <trkpt lat="48.26568" lon="3.22686">
        <ele>87</ele>
        <time>2013-08-03T10:20:32Z</time>
      </trkpt>
      <trkpt lat="48.26564" lon="3.22692">
        <ele>87</ele>
        <time>2013-08-03T10:20:39Z</time>
      </trkpt>
      <trkpt lat="48.2656" lon="3.22696">
        <ele>87</ele>
        <time>2013-08-03T10:20:44Z</time>
      </trkpt>
      <trkpt lat="48.26555" lon="3.22699">
        <ele>87</ele>
        <time>2013-08-03T10:20:49Z</time>
      </trkpt>
      <trkpt lat="48.2655" lon="3.22701">
        <ele>87</ele>
        <time>2013-08-03T10:20:52Z</time>
      </trkpt>
      <trkpt lat="48.26545" lon="3.22705">
        <ele>87</ele>
        <time>2013-08-03T10:20:55Z</time>
      </trkpt>
      <trkpt lat="48.26541" lon="3.22708">
        <ele>87</ele>
        <time>2013-08-03T10:20:58Z</time>
      </trkpt>
      <trkpt lat="48.26536" lon="3.22711">
        <ele>87</ele>
        <time>2013-08-03T10:21:02Z</time>
      </trkpt>
      <trkpt lat="48.26531" lon="3.22712">
        <ele>87</ele>
        <time>2013-08-03T10:21:07Z</time>
      </trkpt>
      <trkpt lat="48.2653" lon="3.22717">
        <ele>87</ele>
        <time>2013-08-03T10:21:14Z</time>
      </trkpt>
      <trkpt lat="48.26529" lon="3.22724">
        <ele>86</ele>
        <time>2013-08-03T10:21:26Z</time>
      </trkpt>
      <trkpt lat="48.26524" lon="3.22727">
        <ele>86</ele>
        <time>2013-08-03T10:21:32Z</time>
      </trkpt>
      <trkpt lat="48.2652" lon="3.22732">
        <ele>86</ele>
        <time>2013-08-03T10:21:36Z</time>
      </trkpt>
      <trkpt lat="48.26516" lon="3.22738">
        <ele>86</ele>
        <time>2013-08-03T10:21:40Z</time>
      </trkpt>
      <trkpt lat="48.26512" lon="3.22742">
        <ele>87</ele>
        <time>2013-08-03T10:21:45Z</time>
      </trkpt>
      <trkpt lat="48.26508" lon="3.22747">
        <ele>87</ele>
        <time>2013-08-03T10:21:52Z</time>
      </trkpt>
      <trkpt lat="48.26503" lon="3.22754">
        <ele>85</ele>
        <time>2013-08-03T10:22:11Z</time>
      </trkpt>
      <trkpt lat="48.26498" lon="3.22758">
        <ele>86</ele>
        <time>2013-08-03T10:22:16Z</time>
      </trkpt>
      <trkpt lat="48.26493" lon="3.22761">
        <ele>86</ele>
        <time>2013-08-03T10:22:23Z</time>
      </trkpt>
      <trkpt lat="48.26489" lon="3.22766">
        <ele>86</ele>
        <time>2013-08-03T10:22:27Z</time>
      </trkpt>
      <trkpt lat="48.26485" lon="3.22771">
        <ele>86</ele>
        <time>2013-08-03T10:22:31Z</time>
      </trkpt>
      <trkpt lat="48.26482" lon="3.22777">
        <ele>86</ele>
        <time>2013-08-03T10:22:37Z</time>
      </trkpt>
      <trkpt lat="48.26478" lon="3.22782">
        <ele>85</ele>
        <time>2013-08-03T10:22:42Z</time>
      </trkpt>
      <trkpt lat="48.26474" lon="3.22785">
        <ele>85</ele>
        <time>2013-08-03T10:22:46Z</time>
      </trkpt>
      <trkpt lat="48.26469" lon="3.22788">
        <ele>85</ele>
        <time>2013-08-03T10:22:50Z</time>
      </trkpt>
      <trkpt lat="48.26465" lon="3.22793">
        <ele>85</ele>
        <time>2013-08-03T10:22:54Z</time>
      </trkpt>
      <trkpt lat="48.2646" lon="3.22796">
        <ele>85</ele>
        <time>2013-08-03T10:22:59Z</time>
      </trkpt>
      <trkpt lat="48.26456" lon="3.228">
        <ele>85</ele>
        <time>2013-08-03T10:23:04Z</time>
      </trkpt>
      <trkpt lat="48.26452" lon="3.22803">
        <ele>85</ele>
        <time>2013-08-03T10:23:09Z</time>
      </trkpt>
      <trkpt lat="48.26447" lon="3.22808">
        <ele>85</ele>
        <time>2013-08-03T10:23:13Z</time>
      </trkpt>
      <trkpt lat="48.26443" lon="3.22812">
        <ele>85</ele>
        <time>2013-08-03T10:23:17Z</time>
      </trkpt>
      <trkpt lat="48.26439" lon="3.22817">
        <ele>85</ele>
        <time>2013-08-03T10:23:22Z</time>
      </trkpt>
      <trkpt lat="48.26435" lon="3.22822">
        <ele>86</ele>
        <time>2013-08-03T10:23:28Z</time>
      </trkpt>
      <trkpt lat="48.26431" lon="3.22827">
        <ele>86</ele>
        <time>2013-08-03T10:23:32Z</time>
      </trkpt>
      <trkpt lat="48.26427" lon="3.22833">
        <ele>86</ele>
        <time>2013-08-03T10:23:37Z</time>
      </trkpt>
      <trkpt lat="48.26425" lon="3.2284">
        <ele>83</ele>
        <time>2013-08-03T10:23:43Z</time>
      </trkpt>
      <trkpt lat="48.2642" lon="3.22844">
        <ele>83</ele>
        <time>2013-08-03T10:23:47Z</time>
      </trkpt>
      <trkpt lat="48.26417" lon="3.2285">
        <ele>84</ele>
        <time>2013-08-03T10:23:52Z</time>
      </trkpt>
      <trkpt lat="48.26413" lon="3.22856">
        <ele>84</ele>
        <time>2013-08-03T10:23:57Z</time>
      </trkpt>
      <trkpt lat="48.26409" lon="3.22861">
        <ele>84</ele>
        <time>2013-08-03T10:24:00Z</time>
      </trkpt>
      <trkpt lat="48.26405" lon="3.22866">
        <ele>83</ele>
        <time>2013-08-03T10:24:03Z</time>
      </trkpt>
      <trkpt lat="48.26402" lon="3.22871">
        <ele>83</ele>
        <time>2013-08-03T10:24:06Z</time>
      </trkpt>
      <trkpt lat="48.26398" lon="3.22875">
        <ele>83</ele>
        <time>2013-08-03T10:24:09Z</time>
      </trkpt>
      <trkpt lat="48.26394" lon="3.22882">
        <ele>83</ele>
        <time>2013-08-03T10:24:13Z</time>
      </trkpt>
      <trkpt lat="48.2639" lon="3.22888">
        <ele>82</ele>
        <time>2013-08-03T10:24:19Z</time>
      </trkpt>
      <trkpt lat="48.26387" lon="3.22894">
        <ele>82</ele>
        <time>2013-08-03T10:24:23Z</time>
      </trkpt>
      <trkpt lat="48.26383" lon="3.22899">
        <ele>82</ele>
        <time>2013-08-03T10:24:28Z</time>
      </trkpt>
      <trkpt lat="48.26379" lon="3.22903">
        <ele>82</ele>
        <time>2013-08-03T10:24:33Z</time>
      </trkpt>
      <trkpt lat="48.26375" lon="3.22906">
        <ele>82</ele>
        <time>2013-08-03T10:24:39Z</time>
      </trkpt>
      <trkpt lat="48.26369" lon="3.22908">
        <ele>82</ele>
        <time>2013-08-03T10:24:43Z</time>
      </trkpt>
      <trkpt lat="48.26366" lon="3.22914">
        <ele>82</ele>
        <time>2013-08-03T10:24:45Z</time>
      </trkpt>
      <trkpt lat="48.26362" lon="3.22919">
        <ele>77</ele>
        <time>2013-08-03T10:24:49Z</time>
      </trkpt>
      <trkpt lat="48.26358" lon="3.22922">
        <ele>77</ele>
        <time>2013-08-03T10:24:53Z</time>
      </trkpt>
      <trkpt lat="48.26353" lon="3.22923">
        <ele>78</ele>
        <time>2013-08-03T10:24:59Z</time>
      </trkpt>
      <trkpt lat="48.26348" lon="3.22926">
        <ele>78</ele>
        <time>2013-08-03T10:25:02Z</time>
      </trkpt>
      <trkpt lat="48.26344" lon="3.2293">
        <ele>78</ele>
        <time>2013-08-03T10:25:05Z</time>
      </trkpt>
      <trkpt lat="48.2634" lon="3.22934">
        <ele>78</ele>
        <time>2013-08-03T10:25:11Z</time>
      </trkpt>
      <trkpt lat="48.26335" lon="3.22939">
        <ele>77</ele>
        <time>2013-08-03T10:25:16Z</time>
      </trkpt>
      <trkpt lat="48.26331" lon="3.22942">
        <ele>77</ele>
        <time>2013-08-03T10:25:20Z</time>
      </trkpt>
      <trkpt lat="48.26327" lon="3.22942">
        <ele>76</ele>
        <time>2013-08-03T10:25:28Z</time>
      </trkpt>
      <trkpt lat="48.26322" lon="3.22946">
        <ele>76</ele>
        <time>2013-08-03T10:25:33Z</time>
      </trkpt>
      <trkpt lat="48.26318" lon="3.22949">
        <ele>75</ele>
        <time>2013-08-03T10:25:37Z</time>
      </trkpt>
      <trkpt lat="48.26313" lon="3.22951">
        <ele>75</ele>
        <time>2013-08-03T10:25:42Z</time>
      </trkpt>
      <trkpt lat="48.26309" lon="3.22956">
        <ele>74</ele>
        <time>2013-08-03T10:25:46Z</time>
      </trkpt>
      <trkpt lat="48.26305" lon="3.22961">
        <ele>74</ele>
        <time>2013-08-03T10:25:49Z</time>
      </trkpt>
      <trkpt lat="48.26301" lon="3.22966">
        <ele>74</ele>
        <time>2013-08-03T10:26:03Z</time>
      </trkpt>
      <trkpt lat="48.26296" lon="3.22969">
        <ele>73</ele>
        <time>2013-08-03T10:26:07Z</time>
      </trkpt>
      <trkpt lat="48.26291" lon="3.2297">
        <ele>73</ele>
        <time>2013-08-03T10:26:12Z</time>
      </trkpt>
      <trkpt lat="48.26286" lon="3.22972">
        <ele>73</ele>
        <time>2013-08-03T10:26:17Z</time>
      </trkpt>
      <trkpt lat="48.26282" lon="3.22974">
        <ele>73</ele>
        <time>2013-08-03T10:26:27Z</time>
      </trkpt>
      <trkpt lat="48.26278" lon="3.2298">
        <ele>72</ele>
        <time>2013-08-03T10:26:38Z</time>
      </trkpt>
      <trkpt lat="48.26272" lon="3.22984">
        <ele>72</ele>
        <time>2013-08-03T10:26:42Z</time>
      </trkpt>
      <trkpt lat="48.26266" lon="3.22985">
        <ele>72</ele>
        <time>2013-08-03T10:26:45Z</time>
      </trkpt>
      <trkpt lat="48.26261" lon="3.22983">
        <ele>72</ele>
        <time>2013-08-03T10:26:48Z</time>
      </trkpt>
      <trkpt lat="48.26257" lon="3.22982">
        <ele>71</ele>
        <time>2013-08-03T10:26:53Z</time>
      </trkpt>
      <trkpt lat="48.26252" lon="3.22985">
        <ele>71</ele>
        <time>2013-08-03T10:26:57Z</time>
      </trkpt>
      <trkpt lat="48.26248" lon="3.22989">
        <ele>70</ele>
        <time>2013-08-03T10:27:01Z</time>
      </trkpt>
      <trkpt lat="48.26243" lon="3.22987">
        <ele>70</ele>
        <time>2013-08-03T10:27:07Z</time>
      </trkpt>
      <trkpt lat="48.26239" lon="3.22989">
        <ele>70</ele>
        <time>2013-08-03T10:27:13Z</time>
      </trkpt>
      <trkpt lat="48.26234" lon="3.22992">
        <ele>70</ele>
        <time>2013-08-03T10:27:18Z</time>
      </trkpt>
      <trkpt lat="48.2623" lon="3.22997">
        <ele>70</ele>
        <time>2013-08-03T10:27:23Z</time>
      </trkpt>
      <trkpt lat="48.26225" lon="3.23">
        <ele>69</ele>
        <time>2013-08-03T10:27:28Z</time>
      </trkpt>
      <trkpt lat="48.2622" lon="3.23">
        <ele>71</ele>
        <time>2013-08-03T10:27:34Z</time>
      </trkpt>
      <trkpt lat="48.26216" lon="3.23003">
        <ele>69</ele>
        <time>2013-08-03T10:27:38Z</time>
      </trkpt>
      <trkpt lat="48.26212" lon="3.23007">
        <ele>69</ele>
        <time>2013-08-03T10:27:42Z</time>
      </trkpt>
      <trkpt lat="48.26207" lon="3.2301">
        <ele>69</ele>
        <time>2013-08-03T10:27:47Z</time>
      </trkpt>
      <trkpt lat="48.26203" lon="3.23019">
        <ele>69</ele>
        <time>2013-08-03T10:28:05Z</time>
      </trkpt>
      <trkpt lat="48.26199" lon="3.23027">
        <ele>69</ele>
        <time>2013-08-03T10:28:09Z</time>
      </trkpt>
      <trkpt lat="48.26195" lon="3.23034">
        <ele>68</ele>
        <time>2013-08-03T10:28:23Z</time>
      </trkpt>
      <trkpt lat="48.26191" lon="3.23041">
        <ele>68</ele>
        <time>2013-08-03T10:28:29Z</time>
      </trkpt>
      <trkpt lat="48.26186" lon="3.23045">
        <ele>68</ele>
        <time>2013-08-03T10:28:32Z</time>
      </trkpt>
      <trkpt lat="48.26182" lon="3.23049">
        <ele>68</ele>
        <time>2013-08-03T10:28:35Z</time>
      </trkpt>
      <trkpt lat="48.26178" lon="3.23054">
        <ele>68</ele>
        <time>2013-08-03T10:28:39Z</time>
      </trkpt>
      <trkpt lat="48.26174" lon="3.23058">
        <ele>68</ele>
        <time>2013-08-03T10:28:46Z</time>
      </trkpt>
      <trkpt lat="48.2617" lon="3.23063">
        <ele>68</ele>
        <time>2013-08-03T10:28:50Z</time>
      </trkpt>
      <trkpt lat="48.26167" lon="3.23068">
        <ele>71</ele>
        <time>2013-08-03T10:28:54Z</time>
      </trkpt>
      <trkpt lat="48.26163" lon="3.23072">
        <ele>70</ele>
        <time>2013-08-03T10:28:57Z</time>
      </trkpt>
      <trkpt lat="48.26159" lon="3.23076">
        <ele>70</ele>
        <time>2013-08-03T10:29:01Z</time>
      </trkpt>
      <trkpt lat="48.26153" lon="3.2308">
        <ele>71</ele>
        <time>2013-08-03T10:29:05Z</time>
      </trkpt>
      <trkpt lat="48.26148" lon="3.23082">
        <ele>71</ele>
        <time>2013-08-03T10:29:08Z</time>
      </trkpt>
      <trkpt lat="48.26143" lon="3.23085">
        <ele>69</ele>
        <time>2013-08-03T10:29:12Z</time>
      </trkpt>
      <trkpt lat="48.26139" lon="3.23088">
        <ele>69</ele>
        <time>2013-08-03T10:29:16Z</time>
      </trkpt>
      <trkpt lat="48.26135" lon="3.23091">
        <ele>70</ele>
        <time>2013-08-03T10:29:21Z</time>
      </trkpt>
      <trkpt lat="48.26131" lon="3.23095">
        <ele>70</ele>
        <time>2013-08-03T10:29:25Z</time>
      </trkpt>
      <trkpt lat="48.26126" lon="3.23097">
        <ele>70</ele>
        <time>2013-08-03T10:29:29Z</time>
      </trkpt>
      <trkpt lat="48.26122" lon="3.23101">
        <ele>70</ele>
        <time>2013-08-03T10:29:33Z</time>
      </trkpt>
      <trkpt lat="48.26117" lon="3.23105">
        <ele>70</ele>
        <time>2013-08-03T10:29:37Z</time>
      </trkpt>
      <trkpt lat="48.26113" lon="3.23109">
        <ele>71</ele>
        <time>2013-08-03T10:29:41Z</time>
      </trkpt>
      <trkpt lat="48.26108" lon="3.23113">
        <ele>71</ele>
        <time>2013-08-03T10:29:45Z</time>
      </trkpt>
      <trkpt lat="48.26103" lon="3.23117">
        <ele>71</ele>
        <time>2013-08-03T10:29:49Z</time>
      </trkpt>
      <trkpt lat="48.26099" lon="3.23121">
        <ele>70</ele>
        <time>2013-08-03T10:29:53Z</time>
      </trkpt>
      <trkpt lat="48.26094" lon="3.23125">
        <ele>70</ele>
        <time>2013-08-03T10:29:57Z</time>
      </trkpt>
      <trkpt lat="48.2609" lon="3.2313">
        <ele>70</ele>
        <time>2013-08-03T10:30:01Z</time>
      </trkpt>
      <trkpt lat="48.26086" lon="3.23133">
        <ele>70</ele>
        <time>2013-08-03T10:30:05Z</time>
      </trkpt>
      <trkpt lat="48.26081" lon="3.23135">
        <ele>74</ele>
        <time>2013-08-03T10:30:09Z</time>
      </trkpt>
      <trkpt lat="48.26077" lon="3.23139">
        <ele>73</ele>
        <time>2013-08-03T10:30:13Z</time>
      </trkpt>
      <trkpt lat="48.26072" lon="3.23143">
        <ele>73</ele>
        <time>2013-08-03T10:30:17Z</time>
      </trkpt>
      <trkpt lat="48.26068" lon="3.23146">
        <ele>73</ele>
        <time>2013-08-03T10:30:21Z</time>
      </trkpt>
      <trkpt lat="48.26063" lon="3.23149">
        <ele>73</ele>
        <time>2013-08-03T10:30:25Z</time>
      </trkpt>
      <trkpt lat="48.26058" lon="3.23153">
        <ele>73</ele>
        <time>2013-08-03T10:30:29Z</time>
      </trkpt>
      <trkpt lat="48.26054" lon="3.23157">
        <ele>73</ele>
        <time>2013-08-03T10:30:33Z</time>
      </trkpt>
      <trkpt lat="48.2605" lon="3.23161">
        <ele>74</ele>
        <time>2013-08-03T10:30:37Z</time>
      </trkpt>
      <trkpt lat="48.26046" lon="3.23166">
        <ele>74</ele>
        <time>2013-08-03T10:30:41Z</time>
      </trkpt>
      <trkpt lat="48.26041" lon="3.23168">
        <ele>69</ele>
        <time>2013-08-03T10:30:45Z</time>
      </trkpt>
      <trkpt lat="48.26036" lon="3.23171">
        <ele>69</ele>
        <time>2013-08-03T10:30:50Z</time>
      </trkpt>
      <trkpt lat="48.26032" lon="3.23173">
        <ele>69</ele>
        <time>2013-08-03T10:30:54Z</time>
      </trkpt>
      <trkpt lat="48.26027" lon="3.23174">
        <ele>69</ele>
        <time>2013-08-03T10:30:58Z</time>
      </trkpt>
      <trkpt lat="48.26023" lon="3.23178">
        <ele>70</ele>
        <time>2013-08-03T10:31:02Z</time>
      </trkpt>
      <trkpt lat="48.26018" lon="3.23181">
        <ele>70</ele>
        <time>2013-08-03T10:31:06Z</time>
      </trkpt>
      <trkpt lat="48.26014" lon="3.2318">
        <ele>70</ele>
        <time>2013-08-03T10:31:10Z</time>
      </trkpt>
      <trkpt lat="48.26009" lon="3.23177">
        <ele>71</ele>
        <time>2013-08-03T10:31:14Z</time>
      </trkpt>
      <trkpt lat="48.26004" lon="3.23176">
        <ele>72</ele>
        <time>2013-08-03T10:31:19Z</time>
      </trkpt>
      <trkpt lat="48.25998" lon="3.23172">
        <ele>74</ele>
        <time>2013-08-03T10:31:43Z</time>
      </trkpt>
      <trkpt lat="48.25994" lon="3.2317">
        <ele>74</ele>
        <time>2013-08-03T10:31:47Z</time>
      </trkpt>
      <trkpt lat="48.25989" lon="3.23168">
        <ele>73</ele>
        <time>2013-08-03T10:31:51Z</time>
      </trkpt>
      <trkpt lat="48.25984" lon="3.23166">
        <ele>77</ele>
        <time>2013-08-03T10:31:55Z</time>
      </trkpt>
      <trkpt lat="48.25979" lon="3.23165">
        <ele>78</ele>
        <time>2013-08-03T10:31:59Z</time>
      </trkpt>
      <trkpt lat="48.25974" lon="3.23164">
        <ele>78</ele>
        <time>2013-08-03T10:32:03Z</time>
      </trkpt>
      <trkpt lat="48.25969" lon="3.23164">
        <ele>79</ele>
        <time>2013-08-03T10:32:07Z</time>
      </trkpt>
      <trkpt lat="48.25963" lon="3.23164">
        <ele>79</ele>
        <time>2013-08-03T10:32:12Z</time>
      </trkpt>
      <trkpt lat="48.25959" lon="3.23166">
        <ele>79</ele>
        <time>2013-08-03T10:32:16Z</time>
      </trkpt>
      <trkpt lat="48.25954" lon="3.23167">
        <ele>74</ele>
        <time>2013-08-03T10:32:21Z</time>
      </trkpt>
      <trkpt lat="48.25949" lon="3.23168">
        <ele>74</ele>
        <time>2013-08-03T10:32:25Z</time>
      </trkpt>
      <trkpt lat="48.25944" lon="3.2317">
        <ele>75</ele>
        <time>2013-08-03T10:32:29Z</time>
      </trkpt>
      <trkpt lat="48.25939" lon="3.23171">
        <ele>75</ele>
        <time>2013-08-03T10:32:34Z</time>
      </trkpt>
      <trkpt lat="48.25935" lon="3.23172">
        <ele>76</ele>
        <time>2013-08-03T10:32:39Z</time>
      </trkpt>
      <trkpt lat="48.25929" lon="3.23174">
        <ele>76</ele>
        <time>2013-08-03T10:32:44Z</time>
      </trkpt>
      <trkpt lat="48.25924" lon="3.23175">
        <ele>77</ele>
        <time>2013-08-03T10:32:49Z</time>
      </trkpt>
      <trkpt lat="48.2592" lon="3.23178">
        <ele>76</ele>
        <time>2013-08-03T10:32:53Z</time>
      </trkpt>
      <trkpt lat="48.25915" lon="3.23181">
        <ele>79</ele>
        <time>2013-08-03T10:32:58Z</time>
      </trkpt>
      <trkpt lat="48.2591" lon="3.23183">
        <ele>79</ele>
        <time>2013-08-03T10:33:03Z</time>
      </trkpt>
      <trkpt lat="48.25906" lon="3.23185">
        <ele>79</ele>
        <time>2013-08-03T10:33:08Z</time>
      </trkpt>
      <trkpt lat="48.25901" lon="3.23188">
        <ele>79</ele>
        <time>2013-08-03T10:33:12Z</time>
      </trkpt>
      <trkpt lat="48.25897" lon="3.23191">
        <ele>79</ele>
        <time>2013-08-03T10:33:18Z</time>
      </trkpt>
      <trkpt lat="48.25891" lon="3.23192">
        <ele>80</ele>
        <time>2013-08-03T10:33:23Z</time>
      </trkpt>
      <trkpt lat="48.25887" lon="3.23192">
        <ele>80</ele>
        <time>2013-08-03T10:33:28Z</time>
      </trkpt>
      <trkpt lat="48.2588" lon="3.23195">
        <ele>80</ele>
        <time>2013-08-03T10:33:43Z</time>
      </trkpt>
      <trkpt lat="48.25875" lon="3.23195">
        <ele>80</ele>
        <time>2013-08-03T10:33:48Z</time>
      </trkpt>
      <trkpt lat="48.25871" lon="3.23198">
        <ele>81</ele>
        <time>2013-08-03T10:33:53Z</time>
      </trkpt>
      <trkpt lat="48.25867" lon="3.23202">
        <ele>81</ele>
        <time>2013-08-03T10:33:56Z</time>
      </trkpt>
      <trkpt lat="48.25862" lon="3.23205">
        <ele>81</ele>
        <time>2013-08-03T10:33:58Z</time>
      </trkpt>
      <trkpt lat="48.25857" lon="3.23211">
        <ele>81</ele>
        <time>2013-08-03T10:34:01Z</time>
      </trkpt>
      <trkpt lat="48.25852" lon="3.23212">
        <ele>81</ele>
        <time>2013-08-03T10:34:08Z</time>
      </trkpt>
      <trkpt lat="48.25847" lon="3.23212">
        <ele>81</ele>
        <time>2013-08-03T10:34:14Z</time>
      </trkpt>
      <trkpt lat="48.25842" lon="3.23213">
        <ele>81</ele>
        <time>2013-08-03T10:34:18Z</time>
      </trkpt>
      <trkpt lat="48.25837" lon="3.23214">
        <ele>81</ele>
        <time>2013-08-03T10:34:21Z</time>
      </trkpt>
      <trkpt lat="48.25832" lon="3.23212">
        <ele>87</ele>
        <time>2013-08-03T10:34:24Z</time>
      </trkpt>
      <trkpt lat="48.25829" lon="3.23218">
        <ele>86</ele>
        <time>2013-08-03T10:34:34Z</time>
      </trkpt>
      <trkpt lat="48.25824" lon="3.2322">
        <ele>87</ele>
        <time>2013-08-03T10:34:37Z</time>
      </trkpt>
      <trkpt lat="48.25819" lon="3.23221">
        <ele>87</ele>
        <time>2013-08-03T10:34:41Z</time>
      </trkpt>
      <trkpt lat="48.25814" lon="3.23222">
        <ele>87</ele>
        <time>2013-08-03T10:34:44Z</time>
      </trkpt>
      <trkpt lat="48.25808" lon="3.23224">
        <ele>87</ele>
        <time>2013-08-03T10:34:48Z</time>
      </trkpt>
      <trkpt lat="48.25803" lon="3.23225">
        <ele>87</ele>
        <time>2013-08-03T10:34:50Z</time>
      </trkpt>
      <trkpt lat="48.25798" lon="3.23227">
        <ele>87</ele>
        <time>2013-08-03T10:34:52Z</time>
      </trkpt>
      <trkpt lat="48.25795" lon="3.23231">
        <ele>88</ele>
        <time>2013-08-03T10:34:57Z</time>
      </trkpt>
      <trkpt lat="48.25792" lon="3.23236">
        <ele>88</ele>
        <time>2013-08-03T10:35:03Z</time>
      </trkpt>
      <trkpt lat="48.25787" lon="3.23238">
        <ele>88</ele>
        <time>2013-08-03T10:35:07Z</time>
      </trkpt>
      <trkpt lat="48.25783" lon="3.23241">
        <ele>88</ele>
        <time>2013-08-03T10:35:11Z</time>
      </trkpt>
      <trkpt lat="48.25776" lon="3.23244">
        <ele>88</ele>
        <time>2013-08-03T10:35:14Z</time>
      </trkpt>
      <trkpt lat="48.25772" lon="3.23246">
        <ele>89</ele>
        <time>2013-08-03T10:35:16Z</time>
      </trkpt>
      <trkpt lat="48.25766" lon="3.23248">
        <ele>89</ele>
        <time>2013-08-03T10:35:19Z</time>
      </trkpt>
      <trkpt lat="48.25762" lon="3.23251">
        <ele>87</ele>
        <time>2013-08-03T10:35:23Z</time>
      </trkpt>
      <trkpt lat="48.25758" lon="3.23255">
        <ele>87</ele>
        <time>2013-08-03T10:35:29Z</time>
      </trkpt>
      <trkpt lat="48.25753" lon="3.23256">
        <ele>88</ele>
        <time>2013-08-03T10:35:32Z</time>
      </trkpt>
      <trkpt lat="48.25749" lon="3.23259">
        <ele>90</ele>
        <time>2013-08-03T10:35:36Z</time>
      </trkpt>
      <trkpt lat="48.25745" lon="3.23264">
        <ele>89</ele>
        <time>2013-08-03T10:35:43Z</time>
      </trkpt>
      <trkpt lat="48.2574" lon="3.23266">
        <ele>89</ele>
        <time>2013-08-03T10:35:47Z</time>
      </trkpt>
      <trkpt lat="48.25735" lon="3.23266">
        <ele>89</ele>
        <time>2013-08-03T10:35:49Z</time>
      </trkpt>
      <trkpt lat="48.25731" lon="3.23268">
        <ele>89</ele>
        <time>2013-08-03T10:35:52Z</time>
      </trkpt>
      <trkpt lat="48.25724" lon="3.23274">
        <ele>89</ele>
        <time>2013-08-03T10:36:06Z</time>
      </trkpt>
      <trkpt lat="48.2572" lon="3.23278">
        <ele>89</ele>
        <time>2013-08-03T10:36:09Z</time>
      </trkpt>
      <trkpt lat="48.25716" lon="3.23282">
        <ele>89</ele>
        <time>2013-08-03T10:36:15Z</time>
      </trkpt>
      <trkpt lat="48.25711" lon="3.23287">
        <ele>89</ele>
        <time>2013-08-03T10:36:18Z</time>
      </trkpt>
      <trkpt lat="48.25709" lon="3.2329">
        <ele>90</ele>
        <time>2013-08-03T10:36:25Z</time>
      </trkpt>
      <trkpt lat="48.25704" lon="3.2329">
        <ele>90</ele>
        <time>2013-08-03T10:36:33Z</time>
      </trkpt>
      <trkpt lat="48.25699" lon="3.23291">
        <ele>90</ele>
        <time>2013-08-03T10:36:36Z</time>
      </trkpt>
      <trkpt lat="48.25693" lon="3.23295">
        <ele>90</ele>
        <time>2013-08-03T10:36:39Z</time>
      </trkpt>
      <trkpt lat="48.25689" lon="3.23296">
        <ele>90</ele>
        <time>2013-08-03T10:36:44Z</time>
      </trkpt>
      <trkpt lat="48.25684" lon="3.23297">
        <ele>91</ele>
        <time>2013-08-03T10:36:49Z</time>
      </trkpt>
      <trkpt lat="48.25678" lon="3.23298">
        <ele>91</ele>
        <time>2013-08-03T10:36:54Z</time>
      </trkpt>
      <trkpt lat="48.25673" lon="3.23301">
        <ele>91</ele>
        <time>2013-08-03T10:36:58Z</time>
      </trkpt>
      <trkpt lat="48.25668" lon="3.23305">
        <ele>91</ele>
        <time>2013-08-03T10:37:02Z</time>
      </trkpt>
      <trkpt lat="48.25663" lon="3.23308">
        <ele>93</ele>
        <time>2013-08-03T10:37:07Z</time>
      </trkpt>
      <trkpt lat="48.25659" lon="3.23309">
        <ele>93</ele>
        <time>2013-08-03T10:37:16Z</time>
      </trkpt>
      <trkpt lat="48.25655" lon="3.23313">
        <ele>93</ele>
        <time>2013-08-03T10:37:34Z</time>
      </trkpt>
      <trkpt lat="48.25651" lon="3.23316">
        <ele>93</ele>
        <time>2013-08-03T10:37:37Z</time>
      </trkpt>
      <trkpt lat="48.25645" lon="3.23315">
        <ele>93</ele>
        <time>2013-08-03T10:37:41Z</time>
      </trkpt>
      <trkpt lat="48.25641" lon="3.23316">
        <ele>93</ele>
        <time>2013-08-03T10:37:49Z</time>
      </trkpt>
      <trkpt lat="48.25636" lon="3.23318">
        <ele>93</ele>
        <time>2013-08-03T10:37:55Z</time>
      </trkpt>
      <trkpt lat="48.2563" lon="3.23318">
        <ele>93</ele>
        <time>2013-08-03T10:38:00Z</time>
      </trkpt>
      <trkpt lat="48.25624" lon="3.23317">
        <ele>93</ele>
        <time>2013-08-03T10:38:03Z</time>
      </trkpt>
      <trkpt lat="48.25619" lon="3.23318">
        <ele>93</ele>
        <time>2013-08-03T10:38:07Z</time>
      </trkpt>
      <trkpt lat="48.25613" lon="3.23319">
        <ele>93</ele>
        <time>2013-08-03T10:38:17Z</time>
      </trkpt>
      <trkpt lat="48.25608" lon="3.23317">
        <ele>93</ele>
        <time>2013-08-03T10:38:19Z</time>
      </trkpt>
      <trkpt lat="48.25603" lon="3.23316">
        <ele>93</ele>
        <time>2013-08-03T10:38:21Z</time>
      </trkpt>
      <trkpt lat="48.25599" lon="3.23317">
        <ele>93</ele>
        <time>2013-08-03T10:38:25Z</time>
      </trkpt>
      <trkpt lat="48.25595" lon="3.2332">
        <ele>92</ele>
        <time>2013-08-03T10:38:29Z</time>
      </trkpt>
      <trkpt lat="48.25588" lon="3.23321">
        <ele>92</ele>
        <time>2013-08-03T10:38:32Z</time>
      </trkpt>
      <trkpt lat="48.25583" lon="3.23321">
        <ele>91</ele>
        <time>2013-08-03T10:38:35Z</time>
      </trkpt>
      <trkpt lat="48.25578" lon="3.23327">
        <ele>91</ele>
        <time>2013-08-03T10:38:45Z</time>
      </trkpt>
      <trkpt lat="48.25572" lon="3.23328">
        <ele>91</ele>
        <time>2013-08-03T10:38:48Z</time>
      </trkpt>
      <trkpt lat="48.25567" lon="3.23329">
        <ele>91</ele>
        <time>2013-08-03T10:38:50Z</time>
      </trkpt>
      <trkpt lat="48.25561" lon="3.2333">
        <ele>90</ele>
        <time>2013-08-03T10:38:52Z</time>
      </trkpt>
      <trkpt lat="48.25562" lon="3.23337">
        <ele>90</ele>
        <time>2013-08-03T10:39:00Z</time>
      </trkpt>
      <trkpt lat="48.25555" lon="3.23339">
        <ele>89</ele>
        <time>2013-08-03T10:39:09Z</time>
      </trkpt>
      <trkpt lat="48.2555" lon="3.2334">
        <ele>89</ele>
        <time>2013-08-03T10:39:11Z</time>
      </trkpt>
      <trkpt lat="48.25545" lon="3.2334">
        <ele>89</ele>
        <time>2013-08-03T10:39:13Z</time>
      </trkpt>
      <trkpt lat="48.25543" lon="3.23343">
        <ele>89</ele>
        <time>2013-08-03T10:39:27Z</time>
      </trkpt>
      <trkpt lat="48.25539" lon="3.23348">
        <ele>89</ele>
        <time>2013-08-03T10:39:32Z</time>
      </trkpt>
      <trkpt lat="48.25535" lon="3.2335">
        <ele>88</ele>
        <time>2013-08-03T10:39:37Z</time>
      </trkpt>
      <trkpt lat="48.2553" lon="3.23352">
        <ele>88</ele>
        <time>2013-08-03T10:39:39Z</time>
      </trkpt>
      <trkpt lat="48.25525" lon="3.23353">
        <ele>88</ele>
        <time>2013-08-03T10:39:42Z</time>
      </trkpt>
      <trkpt lat="48.25523" lon="3.2336">
        <ele>88</ele>
        <time>2013-08-03T10:39:49Z</time>
      </trkpt>
      <trkpt lat="48.25519" lon="3.23361">
        <ele>88</ele>
        <time>2013-08-03T10:39:52Z</time>
      </trkpt>
      <trkpt lat="48.25514" lon="3.23361">
        <ele>88</ele>
        <time>2013-08-03T10:39:54Z</time>
      </trkpt>
      <trkpt lat="48.25509" lon="3.23362">
        <ele>87</ele>
        <time>2013-08-03T10:39:56Z</time>
      </trkpt>
      <trkpt lat="48.25503" lon="3.23367">
        <ele>87</ele>
        <time>2013-08-03T10:40:08Z</time>
      </trkpt>
      <trkpt lat="48.25498" lon="3.23367">
        <ele>85</ele>
        <time>2013-08-03T10:40:10Z</time>
      </trkpt>
      <trkpt lat="48.25492" lon="3.23368">
        <ele>85</ele>
        <time>2013-08-03T10:40:13Z</time>
      </trkpt>
      <trkpt lat="48.25492" lon="3.23371">
        <ele>85</ele>
        <time>2013-08-03T10:40:19Z</time>
      </trkpt>
      <trkpt lat="48.25487" lon="3.23373">
        <ele>85</ele>
        <time>2013-08-03T10:40:23Z</time>
      </trkpt>
      <trkpt lat="48.25482" lon="3.23373">
        <ele>85</ele>
        <time>2013-08-03T10:40:25Z</time>
      </trkpt>
      <trkpt lat="48.25476" lon="3.23373">
        <ele>85</ele>
        <time>2013-08-03T10:40:27Z</time>
      </trkpt>
      <trkpt lat="48.25472" lon="3.23377">
        <ele>84</ele>
        <time>2013-08-03T10:40:35Z</time>
      </trkpt>
      <trkpt lat="48.25466" lon="3.23378">
        <ele>84</ele>
        <time>2013-08-03T10:40:38Z</time>
      </trkpt>
      <trkpt lat="48.25461" lon="3.23379">
        <ele>84</ele>
        <time>2013-08-03T10:40:40Z</time>
      </trkpt>
      <trkpt lat="48.25459" lon="3.23378">
        <ele>84</ele>
        <time>2013-08-03T10:40:45Z</time>
      </trkpt>
      <trkpt lat="48.25454" lon="3.23381">
        <ele>84</ele>
        <time>2013-08-03T10:40:50Z</time>
      </trkpt>
      <trkpt lat="48.25449" lon="3.23381">
        <ele>84</ele>
        <time>2013-08-03T10:40:52Z</time>
      </trkpt>
      <trkpt lat="48.25444" lon="3.23383">
        <ele>84</ele>
        <time>2013-08-03T10:40:55Z</time>
      </trkpt>
      <trkpt lat="48.25438" lon="3.23389">
        <ele>84</ele>
        <time>2013-08-03T10:41:13Z</time>
      </trkpt>
      <trkpt lat="48.25432" lon="3.23389">
        <ele>84</ele>
        <time>2013-08-03T10:41:15Z</time>
      </trkpt>
      <trkpt lat="48.25427" lon="3.23389">
        <ele>84</ele>
        <time>2013-08-03T10:41:18Z</time>
      </trkpt>
      <trkpt lat="48.25425" lon="3.23397">
        <ele>83</ele>
        <time>2013-08-03T10:42:01Z</time>
      </trkpt>
      <trkpt lat="48.25421" lon="3.23399">
        <ele>83</ele>
        <time>2013-08-03T10:43:12Z</time>
      </trkpt>
      <trkpt lat="48.25415" lon="3.23401">
        <ele>82</ele>
        <time>2013-08-03T10:43:17Z</time>
      </trkpt>
      <trkpt lat="48.2541" lon="3.23403">
        <ele>82</ele>
        <time>2013-08-03T10:43:21Z</time>
      </trkpt>
      <trkpt lat="48.25405" lon="3.23405">
        <ele>82</ele>
        <time>2013-08-03T10:43:25Z</time>
      </trkpt>
      <trkpt lat="48.254" lon="3.23406">
        <ele>82</ele>
        <time>2013-08-03T10:43:29Z</time>
      </trkpt>
      <trkpt lat="48.25395" lon="3.23406">
        <ele>81</ele>
        <time>2013-08-03T10:43:35Z</time>
      </trkpt>
      <trkpt lat="48.25389" lon="3.23409">
        <ele>81</ele>
        <time>2013-08-03T10:43:40Z</time>
      </trkpt>
      <trkpt lat="48.25384" lon="3.23412">
        <ele>81</ele>
        <time>2013-08-03T10:43:44Z</time>
      </trkpt>
      <trkpt lat="48.25379" lon="3.2341">
        <ele>81</ele>
        <time>2013-08-03T10:43:50Z</time>
      </trkpt>
      <trkpt lat="48.25374" lon="3.23414">
        <ele>81</ele>
        <time>2013-08-03T10:43:55Z</time>
      </trkpt>
      <trkpt lat="48.2537" lon="3.23417">
        <ele>81</ele>
        <time>2013-08-03T10:43:58Z</time>
      </trkpt>
      <trkpt lat="48.25364" lon="3.23419">
        <ele>81</ele>
        <time>2013-08-03T10:44:02Z</time>
      </trkpt>
      <trkpt lat="48.25359" lon="3.23421">
        <ele>81</ele>
        <time>2013-08-03T10:44:06Z</time>
      </trkpt>
      <trkpt lat="48.25354" lon="3.23422">
        <ele>81</ele>
        <time>2013-08-03T10:44:11Z</time>
      </trkpt>
      <trkpt lat="48.25349" lon="3.23427">
        <ele>80</ele>
        <time>2013-08-03T10:44:52Z</time>
      </trkpt>
      <trkpt lat="48.25344" lon="3.2343">
        <ele>80</ele>
        <time>2013-08-03T10:44:56Z</time>
      </trkpt>
      <trkpt lat="48.2534" lon="3.23433">
        <ele>80</ele>
        <time>2013-08-03T10:45:01Z</time>
      </trkpt>
      <trkpt lat="48.25335" lon="3.23437">
        <ele>81</ele>
        <time>2013-08-03T10:45:25Z</time>
      </trkpt>
      <trkpt lat="48.2533" lon="3.23439">
        <ele>79</ele>
        <time>2013-08-03T10:45:29Z</time>
      </trkpt>
      <trkpt lat="48.25326" lon="3.23442">
        <ele>79</ele>
        <time>2013-08-03T10:45:33Z</time>
      </trkpt>
      <trkpt lat="48.2532" lon="3.23444">
        <ele>79</ele>
        <time>2013-08-03T10:45:38Z</time>
      </trkpt>
      <trkpt lat="48.25315" lon="3.23445">
        <ele>79</ele>
        <time>2013-08-03T10:45:42Z</time>
      </trkpt>
      <trkpt lat="48.2531" lon="3.23445">
        <ele>79</ele>
        <time>2013-08-03T10:45:47Z</time>
      </trkpt>
      <trkpt lat="48.25304" lon="3.23448">
        <ele>79</ele>
        <time>2013-08-03T10:46:32Z</time>
      </trkpt>
      <trkpt lat="48.25297" lon="3.23449">
        <ele>79</ele>
        <time>2013-08-03T10:46:37Z</time>
      </trkpt>
      <trkpt lat="48.25292" lon="3.23452">
        <ele>79</ele>
        <time>2013-08-03T10:46:39Z</time>
      </trkpt>
      <trkpt lat="48.25287" lon="3.23454">
        <ele>79</ele>
        <time>2013-08-03T10:46:41Z</time>
      </trkpt>
      <trkpt lat="48.25285" lon="3.2346">
        <ele>79</ele>
        <time>2013-08-03T10:46:48Z</time>
      </trkpt>
      <trkpt lat="48.2528" lon="3.23461">
        <ele>79</ele>
        <time>2013-08-03T10:46:54Z</time>
      </trkpt>
      <trkpt lat="48.25275" lon="3.23461">
        <ele>79</ele>
        <time>2013-08-03T10:46:56Z</time>
      </trkpt>
      <trkpt lat="48.2527" lon="3.23461">
        <ele>79</ele>
        <time>2013-08-03T10:46:58Z</time>
      </trkpt>
      <trkpt lat="48.25265" lon="3.23461">
        <ele>79</ele>
        <time>2013-08-03T10:47:00Z</time>
      </trkpt>
      <trkpt lat="48.2526" lon="3.23468">
        <ele>79</ele>
        <time>2013-08-03T10:47:28Z</time>
      </trkpt>
      <trkpt lat="48.25255" lon="3.23468">
        <ele>79</ele>
        <time>2013-08-03T10:47:31Z</time>
      </trkpt>
      <trkpt lat="48.25248" lon="3.23469">
        <ele>77</ele>
        <time>2013-08-03T10:47:34Z</time>
      </trkpt>
      <trkpt lat="48.25246" lon="3.23476">
        <ele>77</ele>
        <time>2013-08-03T10:47:40Z</time>
      </trkpt>
      <trkpt lat="48.25241" lon="3.23478">
        <ele>77</ele>
        <time>2013-08-03T10:47:44Z</time>
      </trkpt>
      <trkpt lat="48.25235" lon="3.23478">
        <ele>77</ele>
        <time>2013-08-03T10:47:47Z</time>
      </trkpt>
      <trkpt lat="48.2523" lon="3.23479">
        <ele>77</ele>
        <time>2013-08-03T10:47:49Z</time>
      </trkpt>
      <trkpt lat="48.25225" lon="3.23479">
        <ele>77</ele>
        <time>2013-08-03T10:47:51Z</time>
      </trkpt>
      <trkpt lat="48.2522" lon="3.2348">
        <ele>76</ele>
        <time>2013-08-03T10:47:53Z</time>
      </trkpt>
      <trkpt lat="48.25214" lon="3.23482">
        <ele>76</ele>
        <time>2013-08-03T10:47:55Z</time>
      </trkpt>
      <trkpt lat="48.2521" lon="3.23482">
        <ele>76</ele>
        <time>2013-08-03T10:47:57Z</time>
      </trkpt>
      <trkpt lat="48.25207" lon="3.23485">
        <ele>76</ele>
        <time>2013-08-03T10:48:07Z</time>
      </trkpt>
      <trkpt lat="48.25203" lon="3.23491">
        <ele>76</ele>
        <time>2013-08-03T10:48:20Z</time>
      </trkpt>
      <trkpt lat="48.25199" lon="3.23494">
        <ele>76</ele>
        <time>2013-08-03T10:48:25Z</time>
      </trkpt>
      <trkpt lat="48.25194" lon="3.23495">
        <ele>76</ele>
        <time>2013-08-03T10:48:28Z</time>
      </trkpt>
      <trkpt lat="48.2519" lon="3.23494">
        <ele>76</ele>
        <time>2013-08-03T10:48:32Z</time>
      </trkpt>
      <trkpt lat="48.25183" lon="3.23493">
        <ele>76</ele>
        <time>2013-08-03T10:48:35Z</time>
      </trkpt>
      <trkpt lat="48.25178" lon="3.23494">
        <ele>75</ele>
        <time>2013-08-03T10:48:37Z</time>
      </trkpt>
      <trkpt lat="48.25173" lon="3.23494">
        <ele>75</ele>
        <time>2013-08-03T10:48:39Z</time>
      </trkpt>
      <trkpt lat="48.25173" lon="3.235">
        <ele>75</ele>
        <time>2013-08-03T10:48:50Z</time>
      </trkpt>
      <trkpt lat="48.25167" lon="3.23499">
        <ele>75</ele>
        <time>2013-08-03T10:48:53Z</time>
      </trkpt>
      <trkpt lat="48.25161" lon="3.23499">
        <ele>75</ele>
        <time>2013-08-03T10:48:56Z</time>
      </trkpt>
      <trkpt lat="48.2516" lon="3.23506">
        <ele>75</ele>
        <time>2013-08-03T10:49:03Z</time>
      </trkpt>
      <trkpt lat="48.25155" lon="3.23507">
        <ele>74</ele>
        <time>2013-08-03T10:49:08Z</time>
      </trkpt>
      <trkpt lat="48.25148" lon="3.23506">
        <ele>74</ele>
        <time>2013-08-03T10:49:11Z</time>
      </trkpt>
      <trkpt lat="48.25142" lon="3.23505">
        <ele>74</ele>
        <time>2013-08-03T10:49:13Z</time>
      </trkpt>
      <trkpt lat="48.2514" lon="3.23512">
        <ele>74</ele>
        <time>2013-08-03T10:49:19Z</time>
      </trkpt>
      <trkpt lat="48.25133" lon="3.23514">
        <ele>74</ele>
        <time>2013-08-03T10:49:31Z</time>
      </trkpt>
      <trkpt lat="48.25129" lon="3.23513">
        <ele>74</ele>
        <time>2013-08-03T10:49:33Z</time>
      </trkpt>
      <trkpt lat="48.25123" lon="3.23513">
        <ele>73</ele>
        <time>2013-08-03T10:49:35Z</time>
      </trkpt>
      <trkpt lat="48.25119" lon="3.23512">
        <ele>73</ele>
        <time>2013-08-03T10:49:37Z</time>
      </trkpt>
      <trkpt lat="48.25114" lon="3.23514">
        <ele>73</ele>
        <time>2013-08-03T10:49:41Z</time>
      </trkpt>
      <trkpt lat="48.25108" lon="3.23514">
        <ele>73</ele>
        <time>2013-08-03T10:49:45Z</time>
      </trkpt>
      <trkpt lat="48.25103" lon="3.23518">
        <ele>73</ele>
        <time>2013-08-03T10:49:53Z</time>
      </trkpt>
      <trkpt lat="48.25099" lon="3.2352">
        <ele>73</ele>
        <time>2013-08-03T10:49:57Z</time>
      </trkpt>
      <trkpt lat="48.25094" lon="3.23522">
        <ele>73</ele>
        <time>2013-08-03T10:50:00Z</time>
      </trkpt>
      <trkpt lat="48.25089" lon="3.23524">
        <ele>73</ele>
        <time>2013-08-03T10:50:02Z</time>
      </trkpt>
      <trkpt lat="48.25084" lon="3.23527">
        <ele>73</ele>
        <time>2013-08-03T10:50:05Z</time>
      </trkpt>
      <trkpt lat="48.25084" lon="3.23532">
        <ele>73</ele>
        <time>2013-08-03T10:50:13Z</time>
      </trkpt>
      <trkpt lat="48.25079" lon="3.23536">
        <ele>70</ele>
        <time>2013-08-03T10:50:16Z</time>
      </trkpt>
      <trkpt lat="48.25074" lon="3.23541">
        <ele>70</ele>
        <time>2013-08-03T10:50:24Z</time>
      </trkpt>
      <trkpt lat="48.25068" lon="3.23544">
        <ele>70</ele>
        <time>2013-08-03T10:50:27Z</time>
      </trkpt>
      <trkpt lat="48.25064" lon="3.23548">
        <ele>70</ele>
        <time>2013-08-03T10:50:30Z</time>
      </trkpt>
      <trkpt lat="48.25058" lon="3.23552">
        <ele>70</ele>
        <time>2013-08-03T10:50:33Z</time>
      </trkpt>
      <trkpt lat="48.25054" lon="3.23556">
        <ele>70</ele>
        <time>2013-08-03T10:50:36Z</time>
      </trkpt>
      <trkpt lat="48.25051" lon="3.23553">
        <ele>69</ele>
        <time>2013-08-03T10:50:43Z</time>
      </trkpt>
      <trkpt lat="48.25049" lon="3.23561">
        <ele>69</ele>
        <time>2013-08-03T10:50:49Z</time>
      </trkpt>
      <trkpt lat="48.25045" lon="3.23565">
        <ele>69</ele>
        <time>2013-08-03T10:50:53Z</time>
      </trkpt>
      <trkpt lat="48.25041" lon="3.23569">
        <ele>69</ele>
        <time>2013-08-03T10:50:57Z</time>
      </trkpt>
      <trkpt lat="48.25035" lon="3.2357">
        <ele>69</ele>
        <time>2013-08-03T10:51:03Z</time>
      </trkpt>
      <trkpt lat="48.25033" lon="3.23571">
        <ele>69</ele>
        <time>2013-08-03T10:51:09Z</time>
      </trkpt>
      <trkpt lat="48.25031" lon="3.23577">
        <ele>69</ele>
        <time>2013-08-03T10:51:30Z</time>
      </trkpt>
      <trkpt lat="48.25036" lon="3.23642">
        <ele>68</ele>
        <time>2013-08-03T10:54:09Z</time>
      </trkpt>
      <trkpt lat="48.25036" lon="3.23649">
        <ele>68</ele>
        <time>2013-08-03T10:54:18Z</time>
      </trkpt>
      <trkpt lat="48.25038" lon="3.23655">
        <ele>69</ele>
        <time>2013-08-03T10:54:21Z</time>
      </trkpt>
      <trkpt lat="48.2504" lon="3.23663">
        <ele>69</ele>
        <time>2013-08-03T10:54:25Z</time>
      </trkpt>
      <trkpt lat="48.2504" lon="3.2367">
        <ele>68</ele>
        <time>2013-08-03T10:54:29Z</time>
      </trkpt>
      <trkpt lat="48.25041" lon="3.23678">
        <ele>68</ele>
        <time>2013-08-03T10:54:33Z</time>
      </trkpt>
      <trkpt lat="48.25043" lon="3.23686">
        <ele>69</ele>
        <time>2013-08-03T10:54:37Z</time>
      </trkpt>
      <trkpt lat="48.25045" lon="3.237">
        <ele>69</ele>
        <time>2013-08-03T10:54:45Z</time>
      </trkpt>
      <trkpt lat="48.25048" lon="3.23708">
        <ele>69</ele>
        <time>2013-08-03T10:54:51Z</time>
      </trkpt>
      <trkpt lat="48.25049" lon="3.23716">
        <ele>69</ele>
        <time>2013-08-03T10:54:57Z</time>
      </trkpt>
      <trkpt lat="48.2505" lon="3.23724">
        <ele>69</ele>
        <time>2013-08-03T10:55:01Z</time>
      </trkpt>
      <trkpt lat="48.25051" lon="3.23732">
        <ele>69</ele>
        <time>2013-08-03T10:55:05Z</time>
      </trkpt>
      <trkpt lat="48.25051" lon="3.23739">
        <ele>69</ele>
        <time>2013-08-03T10:55:12Z</time>
      </trkpt>
      <trkpt lat="48.25049" lon="3.23747">
        <ele>69</ele>
        <time>2013-08-03T10:55:17Z</time>
      </trkpt>
      <trkpt lat="48.2505" lon="3.23757">
        <ele>68</ele>
        <time>2013-08-03T10:55:22Z</time>
      </trkpt>
      <trkpt lat="48.25052" lon="3.23765">
        <ele>68</ele>
        <time>2013-08-03T10:55:26Z</time>
      </trkpt>
      <trkpt lat="48.25052" lon="3.23773">
        <ele>68</ele>
        <time>2013-08-03T10:55:30Z</time>
      </trkpt>
      <trkpt lat="48.25053" lon="3.2378">
        <ele>68</ele>
        <time>2013-08-03T10:55:34Z</time>
      </trkpt>
      <trkpt lat="48.25055" lon="3.23788">
        <ele>68</ele>
        <time>2013-08-03T10:55:38Z</time>
      </trkpt>
      <trkpt lat="48.25053" lon="3.23794">
        <ele>68</ele>
        <time>2013-08-03T10:55:42Z</time>
      </trkpt>
      <trkpt lat="48.25054" lon="3.23801">
        <ele>67</ele>
        <time>2013-08-03T10:55:46Z</time>
      </trkpt>
      <trkpt lat="48.25056" lon="3.23809">
        <ele>67</ele>
        <time>2013-08-03T10:55:51Z</time>
      </trkpt>
      <trkpt lat="48.25056" lon="3.23816">
        <ele>67</ele>
        <time>2013-08-03T10:55:55Z</time>
      </trkpt>
      <trkpt lat="48.25056" lon="3.23823">
        <ele>67</ele>
        <time>2013-08-03T10:56:00Z</time>
      </trkpt>
      <trkpt lat="48.25056" lon="3.23831">
        <ele>67</ele>
        <time>2013-08-03T10:56:04Z</time>
      </trkpt>
      <trkpt lat="48.25058" lon="3.23837">
        <ele>66</ele>
        <time>2013-08-03T10:56:12Z</time>
      </trkpt>
      <trkpt lat="48.25057" lon="3.23848">
        <ele>66</ele>
        <time>2013-08-03T10:56:24Z</time>
      </trkpt>
      <trkpt lat="48.25056" lon="3.23856">
        <ele>66</ele>
        <time>2013-08-03T10:56:27Z</time>
      </trkpt>
      <trkpt lat="48.25058" lon="3.23861">
        <ele>66</ele>
        <time>2013-08-03T10:56:35Z</time>
      </trkpt>
      <trkpt lat="48.25057" lon="3.2387">
        <ele>66</ele>
        <time>2013-08-03T10:56:40Z</time>
      </trkpt>
      <trkpt lat="48.25056" lon="3.23877">
        <ele>66</ele>
        <time>2013-08-03T10:56:42Z</time>
      </trkpt>
      <trkpt lat="48.25055" lon="3.23885">
        <ele>66</ele>
        <time>2013-08-03T10:56:44Z</time>
      </trkpt>
      <trkpt lat="48.25054" lon="3.23892">
        <ele>66</ele>
        <time>2013-08-03T10:56:46Z</time>
      </trkpt>
      <trkpt lat="48.25053" lon="3.23899">
        <ele>66</ele>
        <time>2013-08-03T10:56:49Z</time>
      </trkpt>
      <trkpt lat="48.25052" lon="3.23908">
        <ele>66</ele>
        <time>2013-08-03T10:56:57Z</time>
      </trkpt>
      <trkpt lat="48.25053" lon="3.23915">
        <ele>66</ele>
        <time>2013-08-03T10:57:01Z</time>
      </trkpt>
      <trkpt lat="48.25055" lon="3.23915">
        <ele>66</ele>
        <time>2013-08-03T10:57:07Z</time>
      </trkpt>
      <trkpt lat="48.25054" lon="3.23922">
        <ele>66</ele>
        <time>2013-08-03T10:57:11Z</time>
      </trkpt>
      <trkpt lat="48.25052" lon="3.23932">
        <ele>66</ele>
        <time>2013-08-03T10:57:14Z</time>
      </trkpt>
      <trkpt lat="48.2505" lon="3.23939">
        <ele>66</ele>
        <time>2013-08-03T10:57:16Z</time>
      </trkpt>
      <trkpt lat="48.25049" lon="3.23948">
        <ele>66</ele>
        <time>2013-08-03T10:57:19Z</time>
      </trkpt>
      <trkpt lat="48.25054" lon="3.23954">
        <ele>66</ele>
        <time>2013-08-03T10:57:34Z</time>
      </trkpt>
      <trkpt lat="48.25053" lon="3.23962">
        <ele>66</ele>
        <time>2013-08-03T10:57:37Z</time>
      </trkpt>
      <trkpt lat="48.25053" lon="3.2397">
        <ele>66</ele>
        <time>2013-08-03T10:57:39Z</time>
      </trkpt>
      <trkpt lat="48.25053" lon="3.23979">
        <ele>66</ele>
        <time>2013-08-03T10:57:41Z</time>
      </trkpt>
      <trkpt lat="48.25053" lon="3.23987">
        <ele>65</ele>
        <time>2013-08-03T10:57:43Z</time>
      </trkpt>
      <trkpt lat="48.25052" lon="3.23995">
        <ele>65</ele>
        <time>2013-08-03T10:57:45Z</time>
      </trkpt>
      <trkpt lat="48.25054" lon="3.24001">
        <ele>65</ele>
        <time>2013-08-03T10:57:56Z</time>
      </trkpt>
      <trkpt lat="48.25058" lon="3.24007">
        <ele>65</ele>
        <time>2013-08-03T10:58:18Z</time>
      </trkpt>
      <trkpt lat="48.25059" lon="3.24012">
        <ele>65</ele>
        <time>2013-08-03T10:58:26Z</time>
      </trkpt>
      <trkpt lat="48.2506" lon="3.24019">
        <ele>65</ele>
        <time>2013-08-03T10:58:31Z</time>
      </trkpt>
      <trkpt lat="48.2506" lon="3.24026">
        <ele>65</ele>
        <time>2013-08-03T10:58:35Z</time>
      </trkpt>
      <trkpt lat="48.25062" lon="3.24033">
        <ele>65</ele>
        <time>2013-08-03T10:58:38Z</time>
      </trkpt>
      <trkpt lat="48.25062" lon="3.24041">
        <ele>65</ele>
        <time>2013-08-03T10:58:41Z</time>
      </trkpt>
      <trkpt lat="48.25061" lon="3.2405">
        <ele>65</ele>
        <time>2013-08-03T10:58:44Z</time>
      </trkpt>
      <trkpt lat="48.2506" lon="3.24058">
        <ele>65</ele>
        <time>2013-08-03T10:58:47Z</time>
      </trkpt>
      <trkpt lat="48.25062" lon="3.24065">
        <ele>65</ele>
        <time>2013-08-03T10:58:51Z</time>
      </trkpt>
      <trkpt lat="48.25059" lon="3.24072">
        <ele>65</ele>
        <time>2013-08-03T10:58:56Z</time>
      </trkpt>
      <trkpt lat="48.25062" lon="3.24079">
        <ele>65</ele>
        <time>2013-08-03T10:59:02Z</time>
      </trkpt>
      <trkpt lat="48.25065" lon="3.24084">
        <ele>64</ele>
        <time>2013-08-03T10:59:06Z</time>
      </trkpt>
      <trkpt lat="48.25067" lon="3.24091">
        <ele>64</ele>
        <time>2013-08-03T10:59:17Z</time>
      </trkpt>
      <trkpt lat="48.25068" lon="3.24105">
        <ele>64</ele>
        <time>2013-08-03T10:59:31Z</time>
      </trkpt>
      <trkpt lat="48.25072" lon="3.24112">
        <ele>64</ele>
        <time>2013-08-03T10:59:34Z</time>
      </trkpt>
      <trkpt lat="48.25074" lon="3.24119">
        <ele>64</ele>
        <time>2013-08-03T10:59:37Z</time>
      </trkpt>
      <trkpt lat="48.25072" lon="3.24126">
        <ele>64</ele>
        <time>2013-08-03T10:59:42Z</time>
      </trkpt>
      <trkpt lat="48.25068" lon="3.24129">
        <ele>64</ele>
        <time>2013-08-03T10:59:47Z</time>
      </trkpt>
      <trkpt lat="48.25063" lon="3.24131">
        <ele>64</ele>
        <time>2013-08-03T10:59:52Z</time>
      </trkpt>
      <trkpt lat="48.25058" lon="3.24133">
        <ele>64</ele>
        <time>2013-08-03T10:59:57Z</time>
      </trkpt>
      <trkpt lat="48.25054" lon="3.24133">
        <ele>64</ele>
        <time>2013-08-03T11:00:06Z</time>
      </trkpt>
      <trkpt lat="48.25057" lon="3.2414">
        <ele>64</ele>
        <time>2013-08-03T11:01:21Z</time>
      </trkpt>
      <trkpt lat="48.25057" lon="3.24145">
        <ele>64</ele>
        <time>2013-08-03T11:01:28Z</time>
      </trkpt>
      <trkpt lat="48.25044" lon="3.24142">
        <ele>64</ele>
        <time>2013-08-03T11:26:08Z</time>
      </trkpt>
      <trkpt lat="48.2504" lon="3.24142">
        <ele>64</ele>
        <time>2013-08-03T11:26:20Z</time>
      </trkpt>
      <trkpt lat="48.25028" lon="3.24154">
        <ele>63</ele>
        <time>2013-08-03T11:26:38Z</time>
      </trkpt>
      <trkpt lat="48.25023" lon="3.24158">
        <ele>63</ele>
        <time>2013-08-03T11:26:47Z</time>
      </trkpt>
      <trkpt lat="48.25018" lon="3.24162">
        <ele>63</ele>
        <time>2013-08-03T11:26:50Z</time>
      </trkpt>
      <trkpt lat="48.25014" lon="3.24164">
        <ele>63</ele>
        <time>2013-08-03T11:26:53Z</time>
      </trkpt>
      <trkpt lat="48.25009" lon="3.24167">
        <ele>62</ele>
        <time>2013-08-03T11:26:55Z</time>
      </trkpt>
      <trkpt lat="48.25004" lon="3.24171">
        <ele>62</ele>
        <time>2013-08-03T11:26:58Z</time>
      </trkpt>
      <trkpt lat="48.24998" lon="3.24175">
        <ele>63</ele>
        <time>2013-08-03T11:27:01Z</time>
      </trkpt>
      <trkpt lat="48.24995" lon="3.2418">
        <ele>63</ele>
        <time>2013-08-03T11:27:04Z</time>
      </trkpt>
      <trkpt lat="48.2499" lon="3.24183">
        <ele>63</ele>
        <time>2013-08-03T11:27:09Z</time>
      </trkpt>
      <trkpt lat="48.24985" lon="3.24185">
        <ele>63</ele>
        <time>2013-08-03T11:27:12Z</time>
      </trkpt>
      <trkpt lat="48.24977" lon="3.24188">
        <ele>63</ele>
        <time>2013-08-03T11:27:15Z</time>
      </trkpt>
      <trkpt lat="48.24973" lon="3.2419">
        <ele>64</ele>
        <time>2013-08-03T11:27:18Z</time>
      </trkpt>
      <trkpt lat="48.24969" lon="3.24194">
        <ele>64</ele>
        <time>2013-08-03T11:27:27Z</time>
      </trkpt>
      <trkpt lat="48.24964" lon="3.24197">
        <ele>64</ele>
        <time>2013-08-03T11:27:30Z</time>
      </trkpt>
      <trkpt lat="48.24962" lon="3.242">
        <ele>64</ele>
        <time>2013-08-03T11:27:36Z</time>
      </trkpt>
      <trkpt lat="48.24957" lon="3.24201">
        <ele>64</ele>
        <time>2013-08-03T11:27:51Z</time>
      </trkpt>
      <trkpt lat="48.24952" lon="3.24204">
        <ele>64</ele>
        <time>2013-08-03T11:27:56Z</time>
      </trkpt>
      <trkpt lat="48.24946" lon="3.24206">
        <ele>64</ele>
        <time>2013-08-03T11:27:58Z</time>
      </trkpt>
      <trkpt lat="48.24941" lon="3.24208">
        <ele>64</ele>
        <time>2013-08-03T11:28:00Z</time>
      </trkpt>
      <trkpt lat="48.24937" lon="3.24213">
        <ele>64</ele>
        <time>2013-08-03T11:28:05Z</time>
      </trkpt>
      <trkpt lat="48.24933" lon="3.2422">
        <ele>64</ele>
        <time>2013-08-03T11:28:12Z</time>
      </trkpt>
      <trkpt lat="48.24929" lon="3.24221">
        <ele>64</ele>
        <time>2013-08-03T11:28:14Z</time>
      </trkpt>
      <trkpt lat="48.24923" lon="3.24223">
        <ele>64</ele>
        <time>2013-08-03T11:28:16Z</time>
      </trkpt>
      <trkpt lat="48.24921" lon="3.24229">
        <ele>64</ele>
        <time>2013-08-03T11:28:22Z</time>
      </trkpt>
      <trkpt lat="48.24918" lon="3.24235">
        <ele>64</ele>
        <time>2013-08-03T11:28:29Z</time>
      </trkpt>
      <trkpt lat="48.24915" lon="3.24237">
        <ele>66</ele>
        <time>2013-08-03T11:28:37Z</time>
      </trkpt>
      <trkpt lat="48.24909" lon="3.24237">
        <ele>67</ele>
        <time>2013-08-03T11:28:42Z</time>
      </trkpt>
      <trkpt lat="48.24903" lon="3.2424">
        <ele>67</ele>
        <time>2013-08-03T11:28:45Z</time>
      </trkpt>
      <trkpt lat="48.24899" lon="3.24245">
        <ele>67</ele>
        <time>2013-08-03T11:28:51Z</time>
      </trkpt>
      <trkpt lat="48.24894" lon="3.24249">
        <ele>67</ele>
        <time>2013-08-03T11:28:57Z</time>
      </trkpt>
      <trkpt lat="48.24889" lon="3.2425">
        <ele>68</ele>
        <time>2013-08-03T11:28:59Z</time>
      </trkpt>
      <trkpt lat="48.24884" lon="3.24251">
        <ele>65</ele>
        <time>2013-08-03T11:29:01Z</time>
      </trkpt>
      <trkpt lat="48.24878" lon="3.24254">
        <ele>65</ele>
        <time>2013-08-03T11:29:03Z</time>
      </trkpt>
      <trkpt lat="48.24877" lon="3.24261">
        <ele>65</ele>
        <time>2013-08-03T11:29:10Z</time>
      </trkpt>
      <trkpt lat="48.24872" lon="3.24263">
        <ele>65</ele>
        <time>2013-08-03T11:29:13Z</time>
      </trkpt>
      <trkpt lat="48.24867" lon="3.24265">
        <ele>65</ele>
        <time>2013-08-03T11:29:15Z</time>
      </trkpt>
      <trkpt lat="48.24862" lon="3.24268">
        <ele>65</ele>
        <time>2013-08-03T11:29:17Z</time>
      </trkpt>
      <trkpt lat="48.24857" lon="3.24271">
        <ele>65</ele>
        <time>2013-08-03T11:29:19Z</time>
      </trkpt>
      <trkpt lat="48.24851" lon="3.24274">
        <ele>65</ele>
        <time>2013-08-03T11:29:22Z</time>
      </trkpt>
      <trkpt lat="48.24851" lon="3.24278">
        <ele>65</ele>
        <time>2013-08-03T11:29:29Z</time>
      </trkpt>
      <trkpt lat="48.24845" lon="3.24284">
        <ele>65</ele>
        <time>2013-08-03T11:29:41Z</time>
      </trkpt>
      <trkpt lat="48.2484" lon="3.24287">
        <ele>65</ele>
        <time>2013-08-03T11:29:44Z</time>
      </trkpt>
      <trkpt lat="48.24836" lon="3.24291">
        <ele>65</ele>
        <time>2013-08-03T11:29:49Z</time>
      </trkpt>
      <trkpt lat="48.24832" lon="3.24295">
        <ele>67</ele>
        <time>2013-08-03T11:29:54Z</time>
      </trkpt>
      <trkpt lat="48.24828" lon="3.24301">
        <ele>67</ele>
        <time>2013-08-03T11:30:00Z</time>
      </trkpt>
      <trkpt lat="48.24824" lon="3.24303">
        <ele>67</ele>
        <time>2013-08-03T11:30:05Z</time>
      </trkpt>
      <trkpt lat="48.24823" lon="3.24307">
        <ele>67</ele>
        <time>2013-08-03T11:30:16Z</time>
      </trkpt>
      <trkpt lat="48.24818" lon="3.24305">
        <ele>67</ele>
        <time>2013-08-03T11:30:17Z</time>
      </trkpt>
      <trkpt lat="48.24813" lon="3.24306">
        <ele>67</ele>
        <time>2013-08-03T11:30:20Z</time>
      </trkpt>
      <trkpt lat="48.24809" lon="3.2431">
        <ele>67</ele>
        <time>2013-08-03T11:30:27Z</time>
      </trkpt>
      <trkpt lat="48.24803" lon="3.24312">
        <ele>67</ele>
        <time>2013-08-03T11:30:29Z</time>
      </trkpt>
      <trkpt lat="48.24798" lon="3.24315">
        <ele>67</ele>
        <time>2013-08-03T11:30:31Z</time>
      </trkpt>
      <trkpt lat="48.24794" lon="3.2432">
        <ele>67</ele>
        <time>2013-08-03T11:30:40Z</time>
      </trkpt>
      <trkpt lat="48.2479" lon="3.24322">
        <ele>67</ele>
        <time>2013-08-03T11:30:42Z</time>
      </trkpt>
      <trkpt lat="48.24786" lon="3.24325">
        <ele>67</ele>
        <time>2013-08-03T11:30:45Z</time>
      </trkpt>
      <trkpt lat="48.24783" lon="3.24331">
        <ele>67</ele>
        <time>2013-08-03T11:30:50Z</time>
      </trkpt>
      <trkpt lat="48.24779" lon="3.24336">
        <ele>64</ele>
        <time>2013-08-03T11:30:56Z</time>
      </trkpt>
      <trkpt lat="48.24776" lon="3.24339">
        <ele>64</ele>
        <time>2013-08-03T11:31:06Z</time>
      </trkpt>
      <trkpt lat="48.24766" lon="3.2434">
        <ele>65</ele>
        <time>2013-08-03T11:31:11Z</time>
      </trkpt>
      <trkpt lat="48.24759" lon="3.24344">
        <ele>65</ele>
        <time>2013-08-03T11:31:13Z</time>
      </trkpt>
      <trkpt lat="48.24754" lon="3.24347">
        <ele>65</ele>
        <time>2013-08-03T11:31:15Z</time>
      </trkpt>
      <trkpt lat="48.2475" lon="3.2435">
        <ele>66</ele>
        <time>2013-08-03T11:31:19Z</time>
      </trkpt>
      <trkpt lat="48.24745" lon="3.24353">
        <ele>66</ele>
        <time>2013-08-03T11:31:23Z</time>
      </trkpt>
      <trkpt lat="48.2474" lon="3.24355">
        <ele>66</ele>
        <time>2013-08-03T11:31:27Z</time>
      </trkpt>
      <trkpt lat="48.24734" lon="3.24357">
        <ele>66</ele>
        <time>2013-08-03T11:31:31Z</time>
      </trkpt>
      <trkpt lat="48.24728" lon="3.24359">
        <ele>66</ele>
        <time>2013-08-03T11:31:33Z</time>
      </trkpt>
      <trkpt lat="48.24722" lon="3.24361">
        <ele>66</ele>
        <time>2013-08-03T11:31:35Z</time>
      </trkpt>
      <trkpt lat="48.24716" lon="3.24364">
        <ele>66</ele>
        <time>2013-08-03T11:31:37Z</time>
      </trkpt>
      <trkpt lat="48.2472" lon="3.24369">
        <ele>66</ele>
        <time>2013-08-03T11:31:43Z</time>
      </trkpt>
      <trkpt lat="48.24714" lon="3.24375">
        <ele>66</ele>
        <time>2013-08-03T11:31:54Z</time>
      </trkpt>
      <trkpt lat="48.24709" lon="3.24377">
        <ele>66</ele>
        <time>2013-08-03T11:31:56Z</time>
      </trkpt>
      <trkpt lat="48.24704" lon="3.24379">
        <ele>66</ele>
        <time>2013-08-03T11:31:58Z</time>
      </trkpt>
      <trkpt lat="48.24699" lon="3.24381">
        <ele>66</ele>
        <time>2013-08-03T11:32:00Z</time>
      </trkpt>
      <trkpt lat="48.24695" lon="3.24386">
        <ele>66</ele>
        <time>2013-08-03T11:32:06Z</time>
      </trkpt>
      <trkpt lat="48.2469" lon="3.24394">
        <ele>65</ele>
        <time>2013-08-03T11:32:10Z</time>
      </trkpt>
      <trkpt lat="48.24684" lon="3.24397">
        <ele>65</ele>
        <time>2013-08-03T11:32:12Z</time>
      </trkpt>
      <trkpt lat="48.24678" lon="3.24399">
        <ele>65</ele>
        <time>2013-08-03T11:32:14Z</time>
      </trkpt>
      <trkpt lat="48.24674" lon="3.24401">
        <ele>65</ele>
        <time>2013-08-03T11:32:16Z</time>
      </trkpt>
      <trkpt lat="48.24668" lon="3.24404">
        <ele>64</ele>
        <time>2013-08-03T11:32:19Z</time>
      </trkpt>
      <trkpt lat="48.2467" lon="3.24411">
        <ele>64</ele>
        <time>2013-08-03T11:32:27Z</time>
      </trkpt>
      <trkpt lat="48.24667" lon="3.24417">
        <ele>63</ele>
        <time>2013-08-03T11:32:33Z</time>
      </trkpt>
      <trkpt lat="48.24661" lon="3.24419">
        <ele>63</ele>
        <time>2013-08-03T11:32:35Z</time>
      </trkpt>
      <trkpt lat="48.24656" lon="3.24421">
        <ele>64</ele>
        <time>2013-08-03T11:32:37Z</time>
      </trkpt>
      <trkpt lat="48.2465" lon="3.24422">
        <ele>64</ele>
        <time>2013-08-03T11:32:38Z</time>
      </trkpt>
      <trkpt lat="48.24645" lon="3.24424">
        <ele>64</ele>
        <time>2013-08-03T11:32:40Z</time>
      </trkpt>
      <trkpt lat="48.24643" lon="3.2443">
        <ele>64</ele>
        <time>2013-08-03T11:32:51Z</time>
      </trkpt>
      <trkpt lat="48.24638" lon="3.24432">
        <ele>64</ele>
        <time>2013-08-03T11:32:54Z</time>
      </trkpt>
      <trkpt lat="48.24632" lon="3.24436">
        <ele>65</ele>
        <time>2013-08-03T11:33:02Z</time>
      </trkpt>
      <trkpt lat="48.24628" lon="3.2444">
        <ele>65</ele>
        <time>2013-08-03T11:33:05Z</time>
      </trkpt>
      <trkpt lat="48.24624" lon="3.24443">
        <ele>65</ele>
        <time>2013-08-03T11:33:16Z</time>
      </trkpt>
      <trkpt lat="48.2462" lon="3.24446">
        <ele>65</ele>
        <time>2013-08-03T11:33:20Z</time>
      </trkpt>
      <trkpt lat="48.24618" lon="3.24451">
        <ele>65</ele>
        <time>2013-08-03T11:33:29Z</time>
      </trkpt>
      <trkpt lat="48.24614" lon="3.24454">
        <ele>65</ele>
        <time>2013-08-03T11:33:31Z</time>
      </trkpt>
      <trkpt lat="48.24609" lon="3.24458">
        <ele>65</ele>
        <time>2013-08-03T11:33:33Z</time>
      </trkpt>
      <trkpt lat="48.24605" lon="3.24461">
        <ele>65</ele>
        <time>2013-08-03T11:33:38Z</time>
      </trkpt>
      <trkpt lat="48.24598" lon="3.24465">
        <ele>64</ele>
        <time>2013-08-03T11:33:47Z</time>
      </trkpt>
      <trkpt lat="48.24594" lon="3.24468">
        <ele>64</ele>
        <time>2013-08-03T11:33:49Z</time>
      </trkpt>
      <trkpt lat="48.24591" lon="3.24471">
        <ele>64</ele>
        <time>2013-08-03T11:33:59Z</time>
      </trkpt>
      <trkpt lat="48.24586" lon="3.24474">
        <ele>64</ele>
        <time>2013-08-03T11:34:01Z</time>
      </trkpt>
      <trkpt lat="48.2458" lon="3.24481">
        <ele>66</ele>
        <time>2013-08-03T11:34:13Z</time>
      </trkpt>
      <trkpt lat="48.24574" lon="3.24485">
        <ele>66</ele>
        <time>2013-08-03T11:34:16Z</time>
      </trkpt>
      <trkpt lat="48.24569" lon="3.24489">
        <ele>66</ele>
        <time>2013-08-03T11:34:19Z</time>
      </trkpt>
      <trkpt lat="48.24564" lon="3.24493">
        <ele>66</ele>
        <time>2013-08-03T11:34:26Z</time>
      </trkpt>
      <trkpt lat="48.24557" lon="3.24497">
        <ele>67</ele>
        <time>2013-08-03T11:34:38Z</time>
      </trkpt>
      <trkpt lat="48.24552" lon="3.24499">
        <ele>67</ele>
        <time>2013-08-03T11:34:40Z</time>
      </trkpt>
      <trkpt lat="48.24545" lon="3.24503">
        <ele>65</ele>
        <time>2013-08-03T11:34:44Z</time>
      </trkpt>
      <trkpt lat="48.24539" lon="3.24507">
        <ele>65</ele>
        <time>2013-08-03T11:34:46Z</time>
      </trkpt>
      <trkpt lat="48.24534" lon="3.24511">
        <ele>65</ele>
        <time>2013-08-03T11:34:48Z</time>
      </trkpt>
      <trkpt lat="48.24534" lon="3.24516">
        <ele>65</ele>
        <time>2013-08-03T11:34:56Z</time>
      </trkpt>
      <trkpt lat="48.24529" lon="3.24519">
        <ele>65</ele>
        <time>2013-08-03T11:35:05Z</time>
      </trkpt>
      <trkpt lat="48.24523" lon="3.24523">
        <ele>65</ele>
        <time>2013-08-03T11:35:07Z</time>
      </trkpt>
      <trkpt lat="48.24518" lon="3.24526">
        <ele>65</ele>
        <time>2013-08-03T11:35:09Z</time>
      </trkpt>
      <trkpt lat="48.24513" lon="3.24529">
        <ele>65</ele>
        <time>2013-08-03T11:35:11Z</time>
      </trkpt>
      <trkpt lat="48.24511" lon="3.24535">
        <ele>65</ele>
        <time>2013-08-03T11:35:19Z</time>
      </trkpt>
      <trkpt lat="48.24507" lon="3.24539">
        <ele>65</ele>
        <time>2013-08-03T11:35:22Z</time>
      </trkpt>
      <trkpt lat="48.24501" lon="3.24542">
        <ele>65</ele>
        <time>2013-08-03T11:35:24Z</time>
      </trkpt>
      <trkpt lat="48.24494" lon="3.24546">
        <ele>67</ele>
        <time>2013-08-03T11:35:26Z</time>
      </trkpt>
      <trkpt lat="48.2449" lon="3.2455">
        <ele>67</ele>
        <time>2013-08-03T11:35:30Z</time>
      </trkpt>
      <trkpt lat="48.24486" lon="3.2455">
        <ele>67</ele>
        <time>2013-08-03T11:35:41Z</time>
      </trkpt>
      <trkpt lat="48.24481" lon="3.24551">
        <ele>67</ele>
        <time>2013-08-03T11:35:43Z</time>
      </trkpt>
      <trkpt lat="48.24474" lon="3.24555">
        <ele>67</ele>
        <time>2013-08-03T11:35:45Z</time>
      </trkpt>
      <trkpt lat="48.24469" lon="3.24558">
        <ele>67</ele>
        <time>2013-08-03T11:35:47Z</time>
      </trkpt>
      <trkpt lat="48.24465" lon="3.24565">
        <ele>67</ele>
        <time>2013-08-03T11:35:56Z</time>
      </trkpt>
      <trkpt lat="48.24459" lon="3.24568">
        <ele>67</ele>
        <time>2013-08-03T11:35:58Z</time>
      </trkpt>
      <trkpt lat="48.24453" lon="3.24572">
        <ele>66</ele>
        <time>2013-08-03T11:36:00Z</time>
      </trkpt>
      <trkpt lat="48.24457" lon="3.24578">
        <ele>66</ele>
        <time>2013-08-03T11:36:05Z</time>
      </trkpt>
      <trkpt lat="48.24457" lon="3.24581">
        <ele>66</ele>
        <time>2013-08-03T11:36:11Z</time>
      </trkpt>
      <trkpt lat="48.2445" lon="3.24584">
        <ele>64</ele>
        <time>2013-08-03T11:36:14Z</time>
      </trkpt>
      <trkpt lat="48.24445" lon="3.24587">
        <ele>64</ele>
        <time>2013-08-03T11:36:16Z</time>
      </trkpt>
      <trkpt lat="48.24443" lon="3.24588">
        <ele>64</ele>
        <time>2013-08-03T11:36:21Z</time>
      </trkpt>
      <trkpt lat="48.24438" lon="3.24591">
        <ele>64</ele>
        <time>2013-08-03T11:36:26Z</time>
      </trkpt>
      <trkpt lat="48.24435" lon="3.24597">
        <ele>64</ele>
        <time>2013-08-03T11:36:30Z</time>
      </trkpt>
      <trkpt lat="48.2443" lon="3.24601">
        <ele>64</ele>
        <time>2013-08-03T11:36:45Z</time>
      </trkpt>
      <trkpt lat="48.24425" lon="3.24604">
        <ele>64</ele>
        <time>2013-08-03T11:36:49Z</time>
      </trkpt>
      <trkpt lat="48.24421" lon="3.24607">
        <ele>64</ele>
        <time>2013-08-03T11:36:53Z</time>
      </trkpt>
      <trkpt lat="48.24414" lon="3.24613">
        <ele>65</ele>
        <time>2013-08-03T11:37:02Z</time>
      </trkpt>
      <trkpt lat="48.2441" lon="3.24616">
        <ele>65</ele>
        <time>2013-08-03T11:37:05Z</time>
      </trkpt>
      <trkpt lat="48.24405" lon="3.24613">
        <ele>65</ele>
        <time>2013-08-03T11:37:09Z</time>
      </trkpt>
      <trkpt lat="48.24402" lon="3.24606">
        <ele>65</ele>
        <time>2013-08-03T11:37:13Z</time>
      </trkpt>
      <trkpt lat="48.24395" lon="3.24585">
        <ele>65</ele>
        <time>2013-08-03T11:37:27Z</time>
      </trkpt>
      <trkpt lat="48.24392" lon="3.2458">
        <ele>69</ele>
        <time>2013-08-03T11:37:29Z</time>
      </trkpt>
      <trkpt lat="48.24387" lon="3.24577">
        <ele>70</ele>
        <time>2013-08-03T11:37:32Z</time>
      </trkpt>
      <trkpt lat="48.24382" lon="3.24578">
        <ele>70</ele>
        <time>2013-08-03T11:37:36Z</time>
      </trkpt>
      <trkpt lat="48.2438" lon="3.24581">
        <ele>70</ele>
        <time>2013-08-03T11:37:42Z</time>
      </trkpt>
      <trkpt lat="48.24375" lon="3.24585">
        <ele>66</ele>
        <time>2013-08-03T11:37:48Z</time>
      </trkpt>
      <trkpt lat="48.24369" lon="3.24585">
        <ele>67</ele>
        <time>2013-08-03T11:37:50Z</time>
      </trkpt>
      <trkpt lat="48.24364" lon="3.24586">
        <ele>67</ele>
        <time>2013-08-03T11:37:52Z</time>
      </trkpt>
      <trkpt lat="48.24362" lon="3.24593">
        <ele>67</ele>
        <time>2013-08-03T11:38:02Z</time>
      </trkpt>
      <trkpt lat="48.24358" lon="3.24597">
        <ele>67</ele>
        <time>2013-08-03T11:38:06Z</time>
      </trkpt>
      <trkpt lat="48.24353" lon="3.24599">
        <ele>68</ele>
        <time>2013-08-03T11:38:08Z</time>
      </trkpt>
      <trkpt lat="48.24347" lon="3.246">
        <ele>68</ele>
        <time>2013-08-03T11:38:10Z</time>
      </trkpt>
      <trkpt lat="48.24342" lon="3.24601">
        <ele>68</ele>
        <time>2013-08-03T11:38:12Z</time>
      </trkpt>
      <trkpt lat="48.24336" lon="3.24604">
        <ele>68</ele>
        <time>2013-08-03T11:38:15Z</time>
      </trkpt>
      <trkpt lat="48.24333" lon="3.24609">
        <ele>72</ele>
        <time>2013-08-03T11:38:21Z</time>
      </trkpt>
      <trkpt lat="48.24336" lon="3.24614">
        <ele>67</ele>
        <time>2013-08-03T11:38:31Z</time>
      </trkpt>
      <trkpt lat="48.2433" lon="3.24615">
        <ele>72</ele>
        <time>2013-08-03T11:38:37Z</time>
      </trkpt>
      <trkpt lat="48.24325" lon="3.24617">
        <ele>72</ele>
        <time>2013-08-03T11:38:38Z</time>
      </trkpt>
      <trkpt lat="48.2432" lon="3.24619">
        <ele>72</ele>
        <time>2013-08-03T11:38:40Z</time>
      </trkpt>
      <trkpt lat="48.24315" lon="3.24623">
        <ele>72</ele>
        <time>2013-08-03T11:38:43Z</time>
      </trkpt>
      <trkpt lat="48.2431" lon="3.24626">
        <ele>72</ele>
        <time>2013-08-03T11:38:51Z</time>
      </trkpt>
      <trkpt lat="48.24306" lon="3.24629">
        <ele>72</ele>
        <time>2013-08-03T11:38:54Z</time>
      </trkpt>
      <trkpt lat="48.24301" lon="3.24632">
        <ele>72</ele>
        <time>2013-08-03T11:38:58Z</time>
      </trkpt>
      <trkpt lat="48.24297" lon="3.24636">
        <ele>72</ele>
        <time>2013-08-03T11:39:02Z</time>
      </trkpt>
      <trkpt lat="48.24292" lon="3.24638">
        <ele>72</ele>
        <time>2013-08-03T11:39:06Z</time>
      </trkpt>
      <trkpt lat="48.24287" lon="3.24641">
        <ele>72</ele>
        <time>2013-08-03T11:39:10Z</time>
      </trkpt>
      <trkpt lat="48.24282" lon="3.24644">
        <ele>72</ele>
        <time>2013-08-03T11:39:17Z</time>
      </trkpt>
      <trkpt lat="48.24277" lon="3.24645">
        <ele>72</ele>
        <time>2013-08-03T11:39:21Z</time>
      </trkpt>
      <trkpt lat="48.24273" lon="3.24648">
        <ele>72</ele>
        <time>2013-08-03T11:39:25Z</time>
      </trkpt>
      <trkpt lat="48.24268" lon="3.24652">
        <ele>71</ele>
        <time>2013-08-03T11:39:29Z</time>
      </trkpt>
      <trkpt lat="48.24266" lon="3.24658">
        <ele>71</ele>
        <time>2013-08-03T11:39:35Z</time>
      </trkpt>
      <trkpt lat="48.24263" lon="3.24664">
        <ele>70</ele>
        <time>2013-08-03T11:39:39Z</time>
      </trkpt>
      <trkpt lat="48.24258" lon="3.24666">
        <ele>70</ele>
        <time>2013-08-03T11:39:42Z</time>
      </trkpt>
      <trkpt lat="48.24252" lon="3.24667">
        <ele>69</ele>
        <time>2013-08-03T11:39:46Z</time>
      </trkpt>
      <trkpt lat="48.24247" lon="3.24668">
        <ele>69</ele>
        <time>2013-08-03T11:39:50Z</time>
      </trkpt>
      <trkpt lat="48.24243" lon="3.24673">
        <ele>69</ele>
        <time>2013-08-03T11:39:54Z</time>
      </trkpt>
      <trkpt lat="48.24237" lon="3.2468">
        <ele>69</ele>
        <time>2013-08-03T11:40:03Z</time>
      </trkpt>
      <trkpt lat="48.24232" lon="3.24685">
        <ele>69</ele>
        <time>2013-08-03T11:40:16Z</time>
      </trkpt>
      <trkpt lat="48.24227" lon="3.24689">
        <ele>69</ele>
        <time>2013-08-03T11:40:20Z</time>
      </trkpt>
      <trkpt lat="48.24221" lon="3.24691">
        <ele>70</ele>
        <time>2013-08-03T11:40:23Z</time>
      </trkpt>
      <trkpt lat="48.24216" lon="3.24692">
        <ele>70</ele>
        <time>2013-08-03T11:40:25Z</time>
      </trkpt>
      <trkpt lat="48.24211" lon="3.24694">
        <ele>70</ele>
        <time>2013-08-03T11:40:27Z</time>
      </trkpt>
      <trkpt lat="48.24208" lon="3.24699">
        <ele>70</ele>
        <time>2013-08-03T11:40:35Z</time>
      </trkpt>
      <trkpt lat="48.24207" lon="3.24703">
        <ele>70</ele>
        <time>2013-08-03T11:40:41Z</time>
      </trkpt>
      <trkpt lat="48.24203" lon="3.24698">
        <ele>70</ele>
        <time>2013-08-03T11:40:47Z</time>
      </trkpt>
      <trkpt lat="48.24198" lon="3.24699">
        <ele>70</ele>
        <time>2013-08-03T11:40:49Z</time>
      </trkpt>
      <trkpt lat="48.24192" lon="3.24701">
        <ele>71</ele>
        <time>2013-08-03T11:40:51Z</time>
      </trkpt>
      <trkpt lat="48.24188" lon="3.24704">
        <ele>71</ele>
        <time>2013-08-03T11:40:53Z</time>
      </trkpt>
      <trkpt lat="48.24184" lon="3.24707">
        <ele>70</ele>
        <time>2013-08-03T11:40:56Z</time>
      </trkpt>
      <trkpt lat="48.2418" lon="3.24713">
        <ele>70</ele>
        <time>2013-08-03T11:41:00Z</time>
      </trkpt>
      <trkpt lat="48.24175" lon="3.24718">
        <ele>70</ele>
        <time>2013-08-03T11:41:04Z</time>
      </trkpt>
      <trkpt lat="48.2417" lon="3.24722">
        <ele>69</ele>
        <time>2013-08-03T11:41:07Z</time>
      </trkpt>
      <trkpt lat="48.24166" lon="3.24727">
        <ele>75</ele>
        <time>2013-08-03T11:41:26Z</time>
      </trkpt>
      <trkpt lat="48.24162" lon="3.2473">
        <ele>74</ele>
        <time>2013-08-03T11:41:30Z</time>
      </trkpt>
      <trkpt lat="48.24157" lon="3.24734">
        <ele>74</ele>
        <time>2013-08-03T11:41:33Z</time>
      </trkpt>
      <trkpt lat="48.24153" lon="3.24737">
        <ele>74</ele>
        <time>2013-08-03T11:41:36Z</time>
      </trkpt>
      <trkpt lat="48.24149" lon="3.24741">
        <ele>74</ele>
        <time>2013-08-03T11:41:41Z</time>
      </trkpt>
      <trkpt lat="48.24144" lon="3.24745">
        <ele>75</ele>
        <time>2013-08-03T11:41:44Z</time>
      </trkpt>
      <trkpt lat="48.24139" lon="3.24748">
        <ele>76</ele>
        <time>2013-08-03T11:41:46Z</time>
      </trkpt>
      <trkpt lat="48.24135" lon="3.24751">
        <ele>70</ele>
        <time>2013-08-03T11:41:49Z</time>
      </trkpt>
      <trkpt lat="48.24131" lon="3.24758">
        <ele>70</ele>
        <time>2013-08-03T11:41:53Z</time>
      </trkpt>
      <trkpt lat="48.24127" lon="3.24763">
        <ele>71</ele>
        <time>2013-08-03T11:41:56Z</time>
      </trkpt>
      <trkpt lat="48.24123" lon="3.24766">
        <ele>71</ele>
        <time>2013-08-03T11:42:00Z</time>
      </trkpt>
      <trkpt lat="48.24117" lon="3.24769">
        <ele>72</ele>
        <time>2013-08-03T11:42:06Z</time>
      </trkpt>
      <trkpt lat="48.24114" lon="3.24772">
        <ele>72</ele>
        <time>2013-08-03T11:42:11Z</time>
      </trkpt>
      <trkpt lat="48.24107" lon="3.24776">
        <ele>72</ele>
        <time>2013-08-03T11:42:15Z</time>
      </trkpt>
      <trkpt lat="48.24102" lon="3.2478">
        <ele>72</ele>
        <time>2013-08-03T11:42:18Z</time>
      </trkpt>
      <trkpt lat="48.24098" lon="3.24786">
        <ele>72</ele>
        <time>2013-08-03T11:42:22Z</time>
      </trkpt>
      <trkpt lat="48.24094" lon="3.24792">
        <ele>71</ele>
        <time>2013-08-03T11:42:26Z</time>
      </trkpt>
      <trkpt lat="48.24091" lon="3.24797">
        <ele>71</ele>
        <time>2013-08-03T11:42:30Z</time>
      </trkpt>
      <trkpt lat="48.24087" lon="3.24798">
        <ele>70</ele>
        <time>2013-08-03T11:42:34Z</time>
      </trkpt>
      <trkpt lat="48.24082" lon="3.24799">
        <ele>79</ele>
        <time>2013-08-03T11:42:38Z</time>
      </trkpt>
      <trkpt lat="48.24077" lon="3.24802">
        <ele>78</ele>
        <time>2013-08-03T11:42:42Z</time>
      </trkpt>
      <trkpt lat="48.24073" lon="3.24807">
        <ele>78</ele>
        <time>2013-08-03T11:42:46Z</time>
      </trkpt>
      <trkpt lat="48.24068" lon="3.2481">
        <ele>78</ele>
        <time>2013-08-03T11:42:50Z</time>
      </trkpt>
      <trkpt lat="48.24055" lon="3.24814">
        <ele>79</ele>
        <time>2013-08-03T11:43:07Z</time>
      </trkpt>
      <trkpt lat="48.24049" lon="3.24817">
        <ele>80</ele>
        <time>2013-08-03T11:43:11Z</time>
      </trkpt>
      <trkpt lat="48.24045" lon="3.2482">
        <ele>80</ele>
        <time>2013-08-03T11:43:17Z</time>
      </trkpt>
      <trkpt lat="48.2404" lon="3.24824">
        <ele>81</ele>
        <time>2013-08-03T11:43:22Z</time>
      </trkpt>
      <trkpt lat="48.24035" lon="3.24829">
        <ele>81</ele>
        <time>2013-08-03T11:43:25Z</time>
      </trkpt>
      <trkpt lat="48.24029" lon="3.24835">
        <ele>73</ele>
        <time>2013-08-03T11:43:32Z</time>
      </trkpt>
      <trkpt lat="48.24024" lon="3.24838">
        <ele>74</ele>
        <time>2013-08-03T11:43:36Z</time>
      </trkpt>
      <trkpt lat="48.24019" lon="3.24841">
        <ele>75</ele>
        <time>2013-08-03T11:43:39Z</time>
      </trkpt>
      <trkpt lat="48.24014" lon="3.24845">
        <ele>75</ele>
        <time>2013-08-03T11:43:42Z</time>
      </trkpt>
      <trkpt lat="48.24011" lon="3.2485">
        <ele>75</ele>
        <time>2013-08-03T11:43:46Z</time>
      </trkpt>
      <trkpt lat="48.24006" lon="3.24856">
        <ele>74</ele>
        <time>2013-08-03T11:43:50Z</time>
      </trkpt>
      <trkpt lat="48.24003" lon="3.2486">
        <ele>74</ele>
        <time>2013-08-03T11:43:53Z</time>
      </trkpt>
      <trkpt lat="48.23999" lon="3.24865">
        <ele>81</ele>
        <time>2013-08-03T11:43:57Z</time>
      </trkpt>
      <trkpt lat="48.23994" lon="3.24868">
        <ele>81</ele>
        <time>2013-08-03T11:44:03Z</time>
      </trkpt>
      <trkpt lat="48.23989" lon="3.24869">
        <ele>81</ele>
        <time>2013-08-03T11:44:06Z</time>
      </trkpt>
      <trkpt lat="48.23983" lon="3.2487">
        <ele>81</ele>
        <time>2013-08-03T11:44:10Z</time>
      </trkpt>
      <trkpt lat="48.23978" lon="3.24872">
        <ele>81</ele>
        <time>2013-08-03T11:44:14Z</time>
      </trkpt>
      <trkpt lat="48.23974" lon="3.24876">
        <ele>81</ele>
        <time>2013-08-03T11:44:17Z</time>
      </trkpt>
      <trkpt lat="48.23971" lon="3.24882">
        <ele>81</ele>
        <time>2013-08-03T11:44:19Z</time>
      </trkpt>
      <trkpt lat="48.23967" lon="3.24886">
        <ele>81</ele>
        <time>2013-08-03T11:44:23Z</time>
      </trkpt>
      <trkpt lat="48.23962" lon="3.2489">
        <ele>81</ele>
        <time>2013-08-03T11:44:26Z</time>
      </trkpt>
      <trkpt lat="48.23957" lon="3.24894">
        <ele>81</ele>
        <time>2013-08-03T11:44:30Z</time>
      </trkpt>
      <trkpt lat="48.23953" lon="3.24898">
        <ele>81</ele>
        <time>2013-08-03T11:44:35Z</time>
      </trkpt>
      <trkpt lat="48.23948" lon="3.24901">
        <ele>81</ele>
        <time>2013-08-03T11:44:39Z</time>
      </trkpt>
      <trkpt lat="48.23943" lon="3.24904">
        <ele>82</ele>
        <time>2013-08-03T11:44:43Z</time>
      </trkpt>
      <trkpt lat="48.23938" lon="3.24906">
        <ele>82</ele>
        <time>2013-08-03T11:44:48Z</time>
      </trkpt>
      <trkpt lat="48.23933" lon="3.2491">
        <ele>82</ele>
        <time>2013-08-03T11:44:52Z</time>
      </trkpt>
      <trkpt lat="48.2393" lon="3.24914">
        <ele>82</ele>
        <time>2013-08-03T11:44:56Z</time>
      </trkpt>
      <trkpt lat="48.23926" lon="3.24919">
        <ele>77</ele>
        <time>2013-08-03T11:44:59Z</time>
      </trkpt>
      <trkpt lat="48.23921" lon="3.24924">
        <ele>77</ele>
        <time>2013-08-03T11:45:03Z</time>
      </trkpt>
      <trkpt lat="48.23917" lon="3.24927">
        <ele>76</ele>
        <time>2013-08-03T11:45:09Z</time>
      </trkpt>
      <trkpt lat="48.23912" lon="3.24928">
        <ele>81</ele>
        <time>2013-08-03T11:45:13Z</time>
      </trkpt>
      <trkpt lat="48.23907" lon="3.24932">
        <ele>82</ele>
        <time>2013-08-03T11:45:18Z</time>
      </trkpt>
      <trkpt lat="48.23902" lon="3.24935">
        <ele>82</ele>
        <time>2013-08-03T11:45:23Z</time>
      </trkpt>
      <trkpt lat="48.239" lon="3.24938">
        <ele>82</ele>
        <time>2013-08-03T11:45:29Z</time>
      </trkpt>
      <trkpt lat="48.23895" lon="3.24943">
        <ele>82</ele>
        <time>2013-08-03T11:45:32Z</time>
      </trkpt>
      <trkpt lat="48.2389" lon="3.24946">
        <ele>82</ele>
        <time>2013-08-03T11:45:35Z</time>
      </trkpt>
      <trkpt lat="48.23886" lon="3.24949">
        <ele>82</ele>
        <time>2013-08-03T11:45:39Z</time>
      </trkpt>
      <trkpt lat="48.23882" lon="3.24953">
        <ele>82</ele>
        <time>2013-08-03T11:45:42Z</time>
      </trkpt>
      <trkpt lat="48.23878" lon="3.24957">
        <ele>82</ele>
        <time>2013-08-03T11:45:45Z</time>
      </trkpt>
      <trkpt lat="48.23874" lon="3.2496">
        <ele>82</ele>
        <time>2013-08-03T11:45:48Z</time>
      </trkpt>
      <trkpt lat="48.23869" lon="3.24964">
        <ele>82</ele>
        <time>2013-08-03T11:45:54Z</time>
      </trkpt>
      <trkpt lat="48.23865" lon="3.24965">
        <ele>82</ele>
        <time>2013-08-03T11:45:59Z</time>
      </trkpt>
      <trkpt lat="48.23859" lon="3.24966">
        <ele>83</ele>
        <time>2013-08-03T11:46:02Z</time>
      </trkpt>
      <trkpt lat="48.23855" lon="3.24969">
        <ele>83</ele>
        <time>2013-08-03T11:46:05Z</time>
      </trkpt>
      <trkpt lat="48.23851" lon="3.24973">
        <ele>82</ele>
        <time>2013-08-03T11:46:08Z</time>
      </trkpt>
      <trkpt lat="48.23847" lon="3.24977">
        <ele>81</ele>
        <time>2013-08-03T11:46:12Z</time>
      </trkpt>
      <trkpt lat="48.23843" lon="3.24981">
        <ele>81</ele>
        <time>2013-08-03T11:46:16Z</time>
      </trkpt>
      <trkpt lat="48.23838" lon="3.24986">
        <ele>80</ele>
        <time>2013-08-03T11:46:20Z</time>
      </trkpt>
      <trkpt lat="48.23833" lon="3.24988">
        <ele>86</ele>
        <time>2013-08-03T11:46:25Z</time>
      </trkpt>
      <trkpt lat="48.23828" lon="3.24989">
        <ele>86</ele>
        <time>2013-08-03T11:46:31Z</time>
      </trkpt>
      <trkpt lat="48.23823" lon="3.24993">
        <ele>86</ele>
        <time>2013-08-03T11:46:36Z</time>
      </trkpt>
      <trkpt lat="48.23819" lon="3.24998">
        <ele>87</ele>
        <time>2013-08-03T11:46:40Z</time>
      </trkpt>
      <trkpt lat="48.23814" lon="3.25002">
        <ele>77</ele>
        <time>2013-08-03T11:46:43Z</time>
      </trkpt>
      <trkpt lat="48.23809" lon="3.25006">
        <ele>77</ele>
        <time>2013-08-03T11:46:46Z</time>
      </trkpt>
      <trkpt lat="48.23804" lon="3.2501">
        <ele>77</ele>
        <time>2013-08-03T11:46:49Z</time>
      </trkpt>
      <trkpt lat="48.23801" lon="3.25016">
        <ele>77</ele>
        <time>2013-08-03T11:46:52Z</time>
      </trkpt>
      <trkpt lat="48.23797" lon="3.25021">
        <ele>77</ele>
        <time>2013-08-03T11:46:56Z</time>
      </trkpt>
      <trkpt lat="48.23793" lon="3.25024">
        <ele>77</ele>
        <time>2013-08-03T11:47:03Z</time>
      </trkpt>
      <trkpt lat="48.23788" lon="3.25027">
        <ele>77</ele>
        <time>2013-08-03T11:47:07Z</time>
      </trkpt>
      <trkpt lat="48.23784" lon="3.2503">
        <ele>77</ele>
        <time>2013-08-03T11:47:10Z</time>
      </trkpt>
      <trkpt lat="48.23779" lon="3.25032">
        <ele>77</ele>
        <time>2013-08-03T11:47:14Z</time>
      </trkpt>
      <trkpt lat="48.23773" lon="3.25036">
        <ele>77</ele>
        <time>2013-08-03T11:47:18Z</time>
      </trkpt>
      <trkpt lat="48.23769" lon="3.2504">
        <ele>76</ele>
        <time>2013-08-03T11:47:22Z</time>
      </trkpt>
      <trkpt lat="48.23765" lon="3.25045">
        <ele>75</ele>
        <time>2013-08-03T11:47:26Z</time>
      </trkpt>
      <trkpt lat="48.2376" lon="3.25051">
        <ele>74</ele>
        <time>2013-08-03T11:47:30Z</time>
      </trkpt>
      <trkpt lat="48.23756" lon="3.25054">
        <ele>74</ele>
        <time>2013-08-03T11:47:34Z</time>
      </trkpt>
      <trkpt lat="48.23753" lon="3.25059">
        <ele>73</ele>
        <time>2013-08-03T11:47:38Z</time>
      </trkpt>
      <trkpt lat="48.23748" lon="3.25063">
        <ele>78</ele>
        <time>2013-08-03T11:47:43Z</time>
      </trkpt>
      <trkpt lat="48.23744" lon="3.25066">
        <ele>77</ele>
        <time>2013-08-03T11:47:47Z</time>
      </trkpt>
      <trkpt lat="48.23737" lon="3.25071">
        <ele>77</ele>
        <time>2013-08-03T11:47:50Z</time>
      </trkpt>
      <trkpt lat="48.23732" lon="3.25075">
        <ele>78</ele>
        <time>2013-08-03T11:47:52Z</time>
      </trkpt>
      <trkpt lat="48.23726" lon="3.25078">
        <ele>79</ele>
        <time>2013-08-03T11:47:55Z</time>
      </trkpt>
      <trkpt lat="48.23721" lon="3.25081">
        <ele>80</ele>
        <time>2013-08-03T11:48:00Z</time>
      </trkpt>
      <trkpt lat="48.23717" lon="3.25084">
        <ele>70</ele>
        <time>2013-08-03T11:48:05Z</time>
      </trkpt>
      <trkpt lat="48.23713" lon="3.25086">
        <ele>70</ele>
        <time>2013-08-03T11:48:10Z</time>
      </trkpt>
      <trkpt lat="48.23708" lon="3.2509">
        <ele>71</ele>
        <time>2013-08-03T11:48:15Z</time>
      </trkpt>
      <trkpt lat="48.23703" lon="3.25095">
        <ele>71</ele>
        <time>2013-08-03T11:48:20Z</time>
      </trkpt>
      <trkpt lat="48.23698" lon="3.251">
        <ele>72</ele>
        <time>2013-08-03T11:48:22Z</time>
      </trkpt>
      <trkpt lat="48.23693" lon="3.25103">
        <ele>72</ele>
        <time>2013-08-03T11:48:24Z</time>
      </trkpt>
      <trkpt lat="48.23693" lon="3.25106">
        <ele>72</ele>
        <time>2013-08-03T11:48:30Z</time>
      </trkpt>
      <trkpt lat="48.23689" lon="3.2511">
        <ele>72</ele>
        <time>2013-08-03T11:48:40Z</time>
      </trkpt>
      <trkpt lat="48.23684" lon="3.25114">
        <ele>72</ele>
        <time>2013-08-03T11:48:43Z</time>
      </trkpt>
      <trkpt lat="48.23681" lon="3.25119">
        <ele>71</ele>
        <time>2013-08-03T11:48:46Z</time>
      </trkpt>
      <trkpt lat="48.23678" lon="3.25126">
        <ele>70</ele>
        <time>2013-08-03T11:48:49Z</time>
      </trkpt>
      <trkpt lat="48.23673" lon="3.25129">
        <ele>70</ele>
        <time>2013-08-03T11:48:54Z</time>
      </trkpt>
      <trkpt lat="48.23668" lon="3.2513">
        <ele>70</ele>
        <time>2013-08-03T11:48:58Z</time>
      </trkpt>
      <trkpt lat="48.23663" lon="3.25133">
        <ele>77</ele>
        <time>2013-08-03T11:49:02Z</time>
      </trkpt>
      <trkpt lat="48.23658" lon="3.25136">
        <ele>76</ele>
        <time>2013-08-03T11:49:07Z</time>
      </trkpt>
      <trkpt lat="48.23653" lon="3.25139">
        <ele>76</ele>
        <time>2013-08-03T11:49:11Z</time>
      </trkpt>
      <trkpt lat="48.23649" lon="3.25144">
        <ele>76</ele>
        <time>2013-08-03T11:49:15Z</time>
      </trkpt>
      <trkpt lat="48.23646" lon="3.25148">
        <ele>76</ele>
        <time>2013-08-03T11:49:19Z</time>
      </trkpt>
      <trkpt lat="48.23642" lon="3.25154">
        <ele>76</ele>
        <time>2013-08-03T11:49:24Z</time>
      </trkpt>
      <trkpt lat="48.23638" lon="3.2516">
        <ele>76</ele>
        <time>2013-08-03T11:49:30Z</time>
      </trkpt>
      <trkpt lat="48.23634" lon="3.25163">
        <ele>76</ele>
        <time>2013-08-03T11:49:34Z</time>
      </trkpt>
      <trkpt lat="48.23629" lon="3.25165">
        <ele>77</ele>
        <time>2013-08-03T11:49:39Z</time>
      </trkpt>
      <trkpt lat="48.23625" lon="3.25169">
        <ele>73</ele>
        <time>2013-08-03T11:49:44Z</time>
      </trkpt>
      <trkpt lat="48.23621" lon="3.25173">
        <ele>73</ele>
        <time>2013-08-03T11:49:49Z</time>
      </trkpt>
      <trkpt lat="48.23617" lon="3.25179">
        <ele>73</ele>
        <time>2013-08-03T11:49:55Z</time>
      </trkpt>
      <trkpt lat="48.23613" lon="3.25182">
        <ele>74</ele>
        <time>2013-08-03T11:50:01Z</time>
      </trkpt>
      <trkpt lat="48.23609" lon="3.25187">
        <ele>74</ele>
        <time>2013-08-03T11:50:06Z</time>
      </trkpt>
      <trkpt lat="48.23604" lon="3.25192">
        <ele>75</ele>
        <time>2013-08-03T11:50:10Z</time>
      </trkpt>
      <trkpt lat="48.23598" lon="3.25197">
        <ele>75</ele>
        <time>2013-08-03T11:50:13Z</time>
      </trkpt>
      <trkpt lat="48.23593" lon="3.25202">
        <ele>75</ele>
        <time>2013-08-03T11:50:16Z</time>
      </trkpt>
      <trkpt lat="48.23588" lon="3.25207">
        <ele>75</ele>
        <time>2013-08-03T11:50:19Z</time>
      </trkpt>
      <trkpt lat="48.23584" lon="3.25211">
        <ele>75</ele>
        <time>2013-08-03T11:50:23Z</time>
      </trkpt>
      <trkpt lat="48.2358" lon="3.25215">
        <ele>79</ele>
        <time>2013-08-03T11:50:27Z</time>
      </trkpt>
      <trkpt lat="48.23575" lon="3.25218">
        <ele>79</ele>
        <time>2013-08-03T11:50:31Z</time>
      </trkpt>
      <trkpt lat="48.2357" lon="3.25221">
        <ele>79</ele>
        <time>2013-08-03T11:50:35Z</time>
      </trkpt>
      <trkpt lat="48.23566" lon="3.25225">
        <ele>79</ele>
        <time>2013-08-03T11:50:40Z</time>
      </trkpt>
      <trkpt lat="48.23563" lon="3.25226">
        <ele>79</ele>
        <time>2013-08-03T11:50:47Z</time>
      </trkpt>
      <trkpt lat="48.23563" lon="3.25233">
        <ele>79</ele>
        <time>2013-08-03T11:51:11Z</time>
      </trkpt>
      <trkpt lat="48.23559" lon="3.25237">
        <ele>79</ele>
        <time>2013-08-03T11:51:18Z</time>
      </trkpt>
      <trkpt lat="48.23552" lon="3.25242">
        <ele>79</ele>
        <time>2013-08-03T11:51:39Z</time>
      </trkpt>
      <trkpt lat="48.23548" lon="3.25245">
        <ele>79</ele>
        <time>2013-08-03T11:51:42Z</time>
      </trkpt>
      <trkpt lat="48.23543" lon="3.25248">
        <ele>79</ele>
        <time>2013-08-03T11:51:45Z</time>
      </trkpt>
      <trkpt lat="48.23538" lon="3.25252">
        <ele>75</ele>
        <time>2013-08-03T11:51:49Z</time>
      </trkpt>
      <trkpt lat="48.23534" lon="3.25256">
        <ele>75</ele>
        <time>2013-08-03T11:51:54Z</time>
      </trkpt>
      <trkpt lat="48.23531" lon="3.2526">
        <ele>75</ele>
        <time>2013-08-03T11:51:58Z</time>
      </trkpt>
      <trkpt lat="48.23527" lon="3.25265">
        <ele>74</ele>
        <time>2013-08-03T11:52:02Z</time>
      </trkpt>
      <trkpt lat="48.23523" lon="3.2527">
        <ele>74</ele>
        <time>2013-08-03T11:52:06Z</time>
      </trkpt>
      <trkpt lat="48.23518" lon="3.25273">
        <ele>74</ele>
        <time>2013-08-03T11:52:08Z</time>
      </trkpt>
      <trkpt lat="48.23514" lon="3.25276">
        <ele>74</ele>
        <time>2013-08-03T11:52:11Z</time>
      </trkpt>
      <trkpt lat="48.23509" lon="3.25281">
        <ele>74</ele>
        <time>2013-08-03T11:52:17Z</time>
      </trkpt>
      <trkpt lat="48.23506" lon="3.25285">
        <ele>74</ele>
        <time>2013-08-03T11:52:21Z</time>
      </trkpt>
      <trkpt lat="48.23503" lon="3.25291">
        <ele>73</ele>
        <time>2013-08-03T11:52:25Z</time>
      </trkpt>
      <trkpt lat="48.23502" lon="3.25294">
        <ele>73</ele>
        <time>2013-08-03T11:52:31Z</time>
      </trkpt>
      <trkpt lat="48.23496" lon="3.25296">
        <ele>74</ele>
        <time>2013-08-03T11:54:01Z</time>
      </trkpt>
      <trkpt lat="48.23492" lon="3.25298">
        <ele>73</ele>
        <time>2013-08-03T11:54:04Z</time>
      </trkpt>
      <trkpt lat="48.23488" lon="3.25301">
        <ele>73</ele>
        <time>2013-08-03T11:54:07Z</time>
      </trkpt>
      <trkpt lat="48.23483" lon="3.25305">
        <ele>73</ele>
        <time>2013-08-03T11:54:11Z</time>
      </trkpt>
      <trkpt lat="48.23479" lon="3.25309">
        <ele>73</ele>
        <time>2013-08-03T11:54:18Z</time>
      </trkpt>
      <trkpt lat="48.2348" lon="3.25313">
        <ele>73</ele>
        <time>2013-08-03T11:54:34Z</time>
      </trkpt>
      <trkpt lat="48.23475" lon="3.25314">
        <ele>73</ele>
        <time>2013-08-03T11:54:38Z</time>
      </trkpt>
      <trkpt lat="48.2347" lon="3.25316">
        <ele>73</ele>
        <time>2013-08-03T11:54:41Z</time>
      </trkpt>
      <trkpt lat="48.23466" lon="3.2532">
        <ele>73</ele>
        <time>2013-08-03T11:54:44Z</time>
      </trkpt>
      <trkpt lat="48.23462" lon="3.25324">
        <ele>73</ele>
        <time>2013-08-03T11:54:47Z</time>
      </trkpt>
      <trkpt lat="48.23459" lon="3.25329">
        <ele>73</ele>
        <time>2013-08-03T11:54:50Z</time>
      </trkpt>
      <trkpt lat="48.23455" lon="3.25334">
        <ele>69</ele>
        <time>2013-08-03T11:54:55Z</time>
      </trkpt>
      <trkpt lat="48.23453" lon="3.25328">
        <ele>73</ele>
        <time>2013-08-03T11:55:05Z</time>
      </trkpt>
      <trkpt lat="48.23448" lon="3.25332">
        <ele>73</ele>
        <time>2013-08-03T11:55:17Z</time>
      </trkpt>
      <trkpt lat="48.23444" lon="3.25337">
        <ele>70</ele>
        <time>2013-08-03T11:55:20Z</time>
      </trkpt>
      <trkpt lat="48.23439" lon="3.25343">
        <ele>70</ele>
        <time>2013-08-03T11:55:23Z</time>
      </trkpt>
      <trkpt lat="48.23435" lon="3.2535">
        <ele>70</ele>
        <time>2013-08-03T11:55:26Z</time>
      </trkpt>
      <trkpt lat="48.23431" lon="3.25355">
        <ele>69</ele>
        <time>2013-08-03T11:55:29Z</time>
      </trkpt>
      <trkpt lat="48.23427" lon="3.2536">
        <ele>69</ele>
        <time>2013-08-03T11:55:32Z</time>
      </trkpt>
      <trkpt lat="48.23423" lon="3.25365">
        <ele>69</ele>
        <time>2013-08-03T11:55:35Z</time>
      </trkpt>
      <trkpt lat="48.23419" lon="3.2537">
        <ele>69</ele>
        <time>2013-08-03T11:55:38Z</time>
      </trkpt>
      <trkpt lat="48.23415" lon="3.25374">
        <ele>70</ele>
        <time>2013-08-03T11:55:42Z</time>
      </trkpt>
      <trkpt lat="48.2341" lon="3.25377">
        <ele>70</ele>
        <time>2013-08-03T11:55:46Z</time>
      </trkpt>
      <trkpt lat="48.23406" lon="3.25381">
        <ele>69</ele>
        <time>2013-08-03T11:55:49Z</time>
      </trkpt>
      <trkpt lat="48.23403" lon="3.25385">
        <ele>69</ele>
        <time>2013-08-03T11:55:53Z</time>
      </trkpt>
      <trkpt lat="48.23398" lon="3.25389">
        <ele>69</ele>
        <time>2013-08-03T11:55:57Z</time>
      </trkpt>
      <trkpt lat="48.23393" lon="3.25392">
        <ele>69</ele>
        <time>2013-08-03T11:56:00Z</time>
      </trkpt>
      <trkpt lat="48.23389" lon="3.25396">
        <ele>69</ele>
        <time>2013-08-03T11:56:03Z</time>
      </trkpt>
      <trkpt lat="48.23385" lon="3.25399">
        <ele>69</ele>
        <time>2013-08-03T11:56:06Z</time>
      </trkpt>
      <trkpt lat="48.2338" lon="3.25403">
        <ele>69</ele>
        <time>2013-08-03T11:56:10Z</time>
      </trkpt>
      <trkpt lat="48.23374" lon="3.25403">
        <ele>69</ele>
        <time>2013-08-03T11:56:14Z</time>
      </trkpt>
      <trkpt lat="48.23369" lon="3.25407">
        <ele>69</ele>
        <time>2013-08-03T11:56:19Z</time>
      </trkpt>
      <trkpt lat="48.23365" lon="3.2541">
        <ele>69</ele>
        <time>2013-08-03T11:56:23Z</time>
      </trkpt>
      <trkpt lat="48.23361" lon="3.25415">
        <ele>69</ele>
        <time>2013-08-03T11:56:28Z</time>
      </trkpt>
      <trkpt lat="48.23356" lon="3.2542">
        <ele>67</ele>
        <time>2013-08-03T11:56:32Z</time>
      </trkpt>
      <trkpt lat="48.23352" lon="3.25424">
        <ele>67</ele>
        <time>2013-08-03T11:56:36Z</time>
      </trkpt>
      <trkpt lat="48.23349" lon="3.25427">
        <ele>67</ele>
        <time>2013-08-03T11:56:40Z</time>
      </trkpt>
      <trkpt lat="48.23344" lon="3.25432">
        <ele>67</ele>
        <time>2013-08-03T11:56:44Z</time>
      </trkpt>
      <trkpt lat="48.2334" lon="3.25437">
        <ele>67</ele>
        <time>2013-08-03T11:56:48Z</time>
      </trkpt>
      <trkpt lat="48.23337" lon="3.25442">
        <ele>67</ele>
        <time>2013-08-03T11:56:55Z</time>
      </trkpt>
      <trkpt lat="48.23332" lon="3.25445">
        <ele>68</ele>
        <time>2013-08-03T11:56:58Z</time>
      </trkpt>
      <trkpt lat="48.23326" lon="3.25449">
        <ele>67</ele>
        <time>2013-08-03T11:57:01Z</time>
      </trkpt>
      <trkpt lat="48.23322" lon="3.25452">
        <ele>67</ele>
        <time>2013-08-03T11:57:04Z</time>
      </trkpt>
      <trkpt lat="48.23318" lon="3.25456">
        <ele>67</ele>
        <time>2013-08-03T11:57:07Z</time>
      </trkpt>
      <trkpt lat="48.23313" lon="3.25461">
        <ele>67</ele>
        <time>2013-08-03T11:57:13Z</time>
      </trkpt>
      <trkpt lat="48.23308" lon="3.25465">
        <ele>67</ele>
        <time>2013-08-03T11:57:16Z</time>
      </trkpt>
      <trkpt lat="48.23303" lon="3.25466">
        <ele>67</ele>
        <time>2013-08-03T11:57:19Z</time>
      </trkpt>
      <trkpt lat="48.23299" lon="3.2547">
        <ele>67</ele>
        <time>2013-08-03T11:57:26Z</time>
      </trkpt>
      <trkpt lat="48.23294" lon="3.25474">
        <ele>67</ele>
        <time>2013-08-03T11:57:29Z</time>
      </trkpt>
      <trkpt lat="48.2329" lon="3.25479">
        <ele>67</ele>
        <time>2013-08-03T11:57:34Z</time>
      </trkpt>
      <trkpt lat="48.23285" lon="3.25482">
        <ele>67</ele>
        <time>2013-08-03T11:57:36Z</time>
      </trkpt>
      <trkpt lat="48.23281" lon="3.25486">
        <ele>67</ele>
        <time>2013-08-03T11:57:39Z</time>
      </trkpt>
      <trkpt lat="48.23278" lon="3.2549">
        <ele>67</ele>
        <time>2013-08-03T11:57:48Z</time>
      </trkpt>
      <trkpt lat="48.23276" lon="3.25498">
        <ele>67</ele>
        <time>2013-08-03T11:57:56Z</time>
      </trkpt>
      <trkpt lat="48.23272" lon="3.25503">
        <ele>65</ele>
        <time>2013-08-03T11:58:02Z</time>
      </trkpt>
      <trkpt lat="48.23268" lon="3.25509">
        <ele>65</ele>
        <time>2013-08-03T11:58:12Z</time>
      </trkpt>
      <trkpt lat="48.23264" lon="3.25514">
        <ele>65</ele>
        <time>2013-08-03T11:58:15Z</time>
      </trkpt>
      <trkpt lat="48.2326" lon="3.25519">
        <ele>65</ele>
        <time>2013-08-03T11:58:18Z</time>
      </trkpt>
      <trkpt lat="48.23255" lon="3.25523">
        <ele>65</ele>
        <time>2013-08-03T11:58:21Z</time>
      </trkpt>
      <trkpt lat="48.23251" lon="3.25528">
        <ele>65</ele>
        <time>2013-08-03T11:58:24Z</time>
      </trkpt>
      <trkpt lat="48.23245" lon="3.25534">
        <ele>65</ele>
        <time>2013-08-03T11:59:02Z</time>
      </trkpt>
      <trkpt lat="48.23241" lon="3.25538">
        <ele>65</ele>
        <time>2013-08-03T11:59:06Z</time>
      </trkpt>
      <trkpt lat="48.23235" lon="3.25541">
        <ele>65</ele>
        <time>2013-08-03T11:59:08Z</time>
      </trkpt>
      <trkpt lat="48.23228" lon="3.25545">
        <ele>65</ele>
        <time>2013-08-03T11:59:10Z</time>
      </trkpt>
      <trkpt lat="48.23221" lon="3.2555">
        <ele>65</ele>
        <time>2013-08-03T11:59:12Z</time>
      </trkpt>
      <trkpt lat="48.23216" lon="3.25554">
        <ele>65</ele>
        <time>2013-08-03T11:59:14Z</time>
      </trkpt>
      <trkpt lat="48.2321" lon="3.25558">
        <ele>65</ele>
        <time>2013-08-03T11:59:16Z</time>
      </trkpt>
      <trkpt lat="48.23204" lon="3.25563">
        <ele>65</ele>
        <time>2013-08-03T11:59:18Z</time>
      </trkpt>
      <trkpt lat="48.232" lon="3.25568">
        <ele>65</ele>
        <time>2013-08-03T11:59:20Z</time>
      </trkpt>
      <trkpt lat="48.23195" lon="3.25572">
        <ele>65</ele>
        <time>2013-08-03T11:59:22Z</time>
      </trkpt>
      <trkpt lat="48.23192" lon="3.25576">
        <ele>66</ele>
        <time>2013-08-03T11:59:24Z</time>
      </trkpt>
      <trkpt lat="48.23187" lon="3.25581">
        <ele>66</ele>
        <time>2013-08-03T11:59:28Z</time>
      </trkpt>
      <trkpt lat="48.23183" lon="3.25584">
        <ele>65</ele>
        <time>2013-08-03T11:59:31Z</time>
      </trkpt>
      <trkpt lat="48.23178" lon="3.25587">
        <ele>65</ele>
        <time>2013-08-03T11:59:33Z</time>
      </trkpt>
      <trkpt lat="48.23174" lon="3.2559">
        <ele>65</ele>
        <time>2013-08-03T11:59:35Z</time>
      </trkpt>
      <trkpt lat="48.23172" lon="3.25595">
        <ele>65</ele>
        <time>2013-08-03T11:59:47Z</time>
      </trkpt>
      <trkpt lat="48.23166" lon="3.256">
        <ele>66</ele>
        <time>2013-08-03T11:59:51Z</time>
      </trkpt>
      <trkpt lat="48.23163" lon="3.25605">
        <ele>66</ele>
        <time>2013-08-03T11:59:54Z</time>
      </trkpt>
      <trkpt lat="48.23158" lon="3.2561">
        <ele>66</ele>
        <time>2013-08-03T11:59:57Z</time>
      </trkpt>
      <trkpt lat="48.23151" lon="3.25617">
        <ele>66</ele>
        <time>2013-08-03T12:00:02Z</time>
      </trkpt>
      <trkpt lat="48.23148" lon="3.25623">
        <ele>66</ele>
        <time>2013-08-03T12:00:08Z</time>
      </trkpt>
      <trkpt lat="48.23144" lon="3.25628">
        <ele>66</ele>
        <time>2013-08-03T12:00:15Z</time>
      </trkpt>
      <trkpt lat="48.23139" lon="3.25632">
        <ele>66</ele>
        <time>2013-08-03T12:00:23Z</time>
      </trkpt>
      <trkpt lat="48.23135" lon="3.25637">
        <ele>66</ele>
        <time>2013-08-03T12:00:28Z</time>
      </trkpt>
      <trkpt lat="48.2313" lon="3.25641">
        <ele>66</ele>
        <time>2013-08-03T12:00:32Z</time>
      </trkpt>
      <trkpt lat="48.23125" lon="3.25647">
        <ele>66</ele>
        <time>2013-08-03T12:00:36Z</time>
      </trkpt>
      <trkpt lat="48.23121" lon="3.25651">
        <ele>66</ele>
        <time>2013-08-03T12:00:38Z</time>
      </trkpt>
      <trkpt lat="48.23118" lon="3.25654">
        <ele>66</ele>
        <time>2013-08-03T12:00:40Z</time>
      </trkpt>
      <trkpt lat="48.23113" lon="3.25657">
        <ele>66</ele>
        <time>2013-08-03T12:00:43Z</time>
      </trkpt>
      <trkpt lat="48.23111" lon="3.25664">
        <ele>66</ele>
        <time>2013-08-03T12:00:49Z</time>
      </trkpt>
      <trkpt lat="48.23107" lon="3.25668">
        <ele>66</ele>
        <time>2013-08-03T12:00:56Z</time>
      </trkpt>
      <trkpt lat="48.23103" lon="3.25674">
        <ele>66</ele>
        <time>2013-08-03T12:01:02Z</time>
      </trkpt>
      <trkpt lat="48.23099" lon="3.25679">
        <ele>66</ele>
        <time>2013-08-03T12:01:07Z</time>
      </trkpt>
      <trkpt lat="48.23094" lon="3.25685">
        <ele>66</ele>
        <time>2013-08-03T12:01:11Z</time>
      </trkpt>
      <trkpt lat="48.23089" lon="3.25687">
        <ele>66</ele>
        <time>2013-08-03T12:01:23Z</time>
      </trkpt>
      <trkpt lat="48.23084" lon="3.25689">
        <ele>66</ele>
        <time>2013-08-03T12:01:27Z</time>
      </trkpt>
      <trkpt lat="48.2308" lon="3.25693">
        <ele>67</ele>
        <time>2013-08-03T12:01:33Z</time>
      </trkpt>
      <trkpt lat="48.23076" lon="3.25697">
        <ele>67</ele>
        <time>2013-08-03T12:01:37Z</time>
      </trkpt>
      <trkpt lat="48.23072" lon="3.25702">
        <ele>66</ele>
        <time>2013-08-03T12:01:41Z</time>
      </trkpt>
      <trkpt lat="48.23067" lon="3.25707">
        <ele>66</ele>
        <time>2013-08-03T12:01:45Z</time>
      </trkpt>
      <trkpt lat="48.23064" lon="3.25712">
        <ele>66</ele>
        <time>2013-08-03T12:01:52Z</time>
      </trkpt>
      <trkpt lat="48.23056" lon="3.25724">
        <ele>66</ele>
        <time>2013-08-03T12:02:04Z</time>
      </trkpt>
      <trkpt lat="48.23052" lon="3.25729">
        <ele>66</ele>
        <time>2013-08-03T12:02:08Z</time>
      </trkpt>
      <trkpt lat="48.23048" lon="3.25732">
        <ele>66</ele>
        <time>2013-08-03T12:02:12Z</time>
      </trkpt>
      <trkpt lat="48.23043" lon="3.25736">
        <ele>66</ele>
        <time>2013-08-03T12:02:17Z</time>
      </trkpt>
      <trkpt lat="48.23038" lon="3.25739">
        <ele>66</ele>
        <time>2013-08-03T12:02:21Z</time>
      </trkpt>
      <trkpt lat="48.23034" lon="3.25741">
        <ele>66</ele>
        <time>2013-08-03T12:02:24Z</time>
      </trkpt>
      <trkpt lat="48.23029" lon="3.25745">
        <ele>66</ele>
        <time>2013-08-03T12:02:29Z</time>
      </trkpt>
      <trkpt lat="48.23025" lon="3.25746">
        <ele>66</ele>
        <time>2013-08-03T12:02:36Z</time>
      </trkpt>
      <trkpt lat="48.2302" lon="3.2575">
        <ele>66</ele>
        <time>2013-08-03T12:02:40Z</time>
      </trkpt>
      <trkpt lat="48.23016" lon="3.25754">
        <ele>65</ele>
        <time>2013-08-03T12:02:44Z</time>
      </trkpt>
      <trkpt lat="48.23012" lon="3.25758">
        <ele>65</ele>
        <time>2013-08-03T12:02:48Z</time>
      </trkpt>
      <trkpt lat="48.23008" lon="3.25763">
        <ele>65</ele>
        <time>2013-08-03T12:02:52Z</time>
      </trkpt>
      <trkpt lat="48.23002" lon="3.2577">
        <ele>65</ele>
        <time>2013-08-03T12:02:58Z</time>
      </trkpt>
      <trkpt lat="48.22998" lon="3.25775">
        <ele>66</ele>
        <time>2013-08-03T12:03:02Z</time>
      </trkpt>
      <trkpt lat="48.22994" lon="3.2578">
        <ele>65</ele>
        <time>2013-08-03T12:03:07Z</time>
      </trkpt>
      <trkpt lat="48.2299" lon="3.25782">
        <ele>65</ele>
        <time>2013-08-03T12:03:10Z</time>
      </trkpt>
      <trkpt lat="48.22986" lon="3.25787">
        <ele>65</ele>
        <time>2013-08-03T12:03:13Z</time>
      </trkpt>
      <trkpt lat="48.22983" lon="3.25792">
        <ele>65</ele>
        <time>2013-08-03T12:03:16Z</time>
      </trkpt>
      <trkpt lat="48.2298" lon="3.25798">
        <ele>65</ele>
        <time>2013-08-03T12:03:20Z</time>
      </trkpt>
      <trkpt lat="48.22977" lon="3.25802">
        <ele>65</ele>
        <time>2013-08-03T12:03:25Z</time>
      </trkpt>
      <trkpt lat="48.22971" lon="3.25803">
        <ele>65</ele>
        <time>2013-08-03T12:03:37Z</time>
      </trkpt>
      <trkpt lat="48.22965" lon="3.25807">
        <ele>65</ele>
        <time>2013-08-03T12:03:40Z</time>
      </trkpt>
      <trkpt lat="48.22962" lon="3.25812">
        <ele>65</ele>
        <time>2013-08-03T12:03:44Z</time>
      </trkpt>
      <trkpt lat="48.22957" lon="3.25819">
        <ele>65</ele>
        <time>2013-08-03T12:03:54Z</time>
      </trkpt>
      <trkpt lat="48.22952" lon="3.25822">
        <ele>65</ele>
        <time>2013-08-03T12:03:57Z</time>
      </trkpt>
      <trkpt lat="48.22947" lon="3.25828">
        <ele>65</ele>
        <time>2013-08-03T12:04:04Z</time>
      </trkpt>
      <trkpt lat="48.22942" lon="3.25831">
        <ele>65</ele>
        <time>2013-08-03T12:04:09Z</time>
      </trkpt>
      <trkpt lat="48.22943" lon="3.25839">
        <ele>64</ele>
        <time>2013-08-03T12:04:22Z</time>
      </trkpt>
      <trkpt lat="48.2294" lon="3.25843">
        <ele>64</ele>
        <time>2013-08-03T12:04:30Z</time>
      </trkpt>
      <trkpt lat="48.22935" lon="3.25846">
        <ele>64</ele>
        <time>2013-08-03T12:04:31Z</time>
      </trkpt>
      <trkpt lat="48.22931" lon="3.25851">
        <ele>64</ele>
        <time>2013-08-03T12:04:37Z</time>
      </trkpt>
      <trkpt lat="48.22929" lon="3.25857">
        <ele>64</ele>
        <time>2013-08-03T12:04:43Z</time>
      </trkpt>
      <trkpt lat="48.22924" lon="3.25861">
        <ele>64</ele>
        <time>2013-08-03T12:04:51Z</time>
      </trkpt>
      <trkpt lat="48.2292" lon="3.25864">
        <ele>64</ele>
        <time>2013-08-03T12:04:54Z</time>
      </trkpt>
      <trkpt lat="48.22913" lon="3.25867">
        <ele>64</ele>
        <time>2013-08-03T12:04:56Z</time>
      </trkpt>
      <trkpt lat="48.22909" lon="3.2587">
        <ele>64</ele>
        <time>2013-08-03T12:04:58Z</time>
      </trkpt>
      <trkpt lat="48.22902" lon="3.25874">
        <ele>64</ele>
        <time>2013-08-03T12:05:00Z</time>
      </trkpt>
      <trkpt lat="48.22895" lon="3.25878">
        <ele>64</ele>
        <time>2013-08-03T12:05:02Z</time>
      </trkpt>
      <trkpt lat="48.22889" lon="3.25883">
        <ele>64</ele>
        <time>2013-08-03T12:05:04Z</time>
      </trkpt>
      <trkpt lat="48.22884" lon="3.25887">
        <ele>64</ele>
        <time>2013-08-03T12:05:06Z</time>
      </trkpt>
      <trkpt lat="48.22881" lon="3.2589">
        <ele>64</ele>
        <time>2013-08-03T12:05:14Z</time>
      </trkpt>
      <trkpt lat="48.22877" lon="3.25895">
        <ele>64</ele>
        <time>2013-08-03T12:05:23Z</time>
      </trkpt>
      <trkpt lat="48.22871" lon="3.25899">
        <ele>64</ele>
        <time>2013-08-03T12:05:26Z</time>
      </trkpt>
      <trkpt lat="48.22866" lon="3.25901">
        <ele>64</ele>
        <time>2013-08-03T12:05:29Z</time>
      </trkpt>
      <trkpt lat="48.22863" lon="3.25907">
        <ele>64</ele>
        <time>2013-08-03T12:05:36Z</time>
      </trkpt>
      <trkpt lat="48.22856" lon="3.25913">
        <ele>64</ele>
        <time>2013-08-03T12:05:41Z</time>
      </trkpt>
      <trkpt lat="48.2285" lon="3.25917">
        <ele>65</ele>
        <time>2013-08-03T12:05:43Z</time>
      </trkpt>
      <trkpt lat="48.22847" lon="3.25919">
        <ele>64</ele>
        <time>2013-08-03T12:05:51Z</time>
      </trkpt>
      <trkpt lat="48.22842" lon="3.25924">
        <ele>64</ele>
        <time>2013-08-03T12:06:09Z</time>
      </trkpt>
      <trkpt lat="48.22838" lon="3.25928">
        <ele>64</ele>
        <time>2013-08-03T12:06:14Z</time>
      </trkpt>
      <trkpt lat="48.22832" lon="3.25931">
        <ele>64</ele>
        <time>2013-08-03T12:06:18Z</time>
      </trkpt>
      <trkpt lat="48.22827" lon="3.25932">
        <ele>64</ele>
        <time>2013-08-03T12:06:21Z</time>
      </trkpt>
      <trkpt lat="48.22822" lon="3.25935">
        <ele>64</ele>
        <time>2013-08-03T12:06:25Z</time>
      </trkpt>
      <trkpt lat="48.22818" lon="3.25937">
        <ele>64</ele>
        <time>2013-08-03T12:06:27Z</time>
      </trkpt>
      <trkpt lat="48.22813" lon="3.2594">
        <ele>64</ele>
        <time>2013-08-03T12:06:30Z</time>
      </trkpt>
      <trkpt lat="48.22812" lon="3.25947">
        <ele>64</ele>
        <time>2013-08-03T12:06:40Z</time>
      </trkpt>
      <trkpt lat="48.22808" lon="3.25951">
        <ele>64</ele>
        <time>2013-08-03T12:06:47Z</time>
      </trkpt>
      <trkpt lat="48.22802" lon="3.25955">
        <ele>64</ele>
        <time>2013-08-03T12:06:50Z</time>
      </trkpt>
      <trkpt lat="48.22797" lon="3.25959">
        <ele>63</ele>
        <time>2013-08-03T12:06:52Z</time>
      </trkpt>
      <trkpt lat="48.22791" lon="3.25963">
        <ele>63</ele>
        <time>2013-08-03T12:06:55Z</time>
      </trkpt>
      <trkpt lat="48.22788" lon="3.25969">
        <ele>63</ele>
        <time>2013-08-03T12:07:03Z</time>
      </trkpt>
      <trkpt lat="48.22783" lon="3.25973">
        <ele>63</ele>
        <time>2013-08-03T12:07:06Z</time>
      </trkpt>
      <trkpt lat="48.2278" lon="3.25979">
        <ele>63</ele>
        <time>2013-08-03T12:07:09Z</time>
      </trkpt>
      <trkpt lat="48.22776" lon="3.25981">
        <ele>63</ele>
        <time>2013-08-03T12:07:13Z</time>
      </trkpt>
      <trkpt lat="48.22771" lon="3.25984">
        <ele>63</ele>
        <time>2013-08-03T12:07:19Z</time>
      </trkpt>
      <trkpt lat="48.22767" lon="3.25988">
        <ele>63</ele>
        <time>2013-08-03T12:07:24Z</time>
      </trkpt>
      <trkpt lat="48.22762" lon="3.25992">
        <ele>63</ele>
        <time>2013-08-03T12:07:27Z</time>
      </trkpt>
      <trkpt lat="48.22758" lon="3.25994">
        <ele>63</ele>
        <time>2013-08-03T12:07:29Z</time>
      </trkpt>
      <trkpt lat="48.22753" lon="3.25995">
        <ele>63</ele>
        <time>2013-08-03T12:07:32Z</time>
      </trkpt>
      <trkpt lat="48.22747" lon="3.25998">
        <ele>63</ele>
        <time>2013-08-03T12:07:36Z</time>
      </trkpt>
      <trkpt lat="48.22741" lon="3.26">
        <ele>63</ele>
        <time>2013-08-03T12:07:39Z</time>
      </trkpt>
      <trkpt lat="48.22739" lon="3.26001">
        <ele>63</ele>
        <time>2013-08-03T12:07:45Z</time>
      </trkpt>
      <trkpt lat="48.22736" lon="3.26008">
        <ele>63</ele>
        <time>2013-08-03T12:07:55Z</time>
      </trkpt>
      <trkpt lat="48.22732" lon="3.26012">
        <ele>63</ele>
        <time>2013-08-03T12:07:59Z</time>
      </trkpt>
      <trkpt lat="48.22727" lon="3.26015">
        <ele>63</ele>
        <time>2013-08-03T12:08:02Z</time>
      </trkpt>
      <trkpt lat="48.22721" lon="3.26017">
        <ele>63</ele>
        <time>2013-08-03T12:08:04Z</time>
      </trkpt>
      <trkpt lat="48.22716" lon="3.26019">
        <ele>63</ele>
        <time>2013-08-03T12:08:06Z</time>
      </trkpt>
      <trkpt lat="48.22712" lon="3.2602">
        <ele>63</ele>
        <time>2013-08-03T12:08:10Z</time>
      </trkpt>
      <trkpt lat="48.22709" lon="3.26021">
        <ele>63</ele>
        <time>2013-08-03T12:08:17Z</time>
      </trkpt>
      <trkpt lat="48.22703" lon="3.26023">
        <ele>62</ele>
        <time>2013-08-03T12:08:27Z</time>
      </trkpt>
      <trkpt lat="48.22699" lon="3.26025">
        <ele>62</ele>
        <time>2013-08-03T12:08:33Z</time>
      </trkpt>
      <trkpt lat="48.22694" lon="3.26028">
        <ele>62</ele>
        <time>2013-08-03T12:08:37Z</time>
      </trkpt>
      <trkpt lat="48.22689" lon="3.2603">
        <ele>62</ele>
        <time>2013-08-03T12:08:41Z</time>
      </trkpt>
      <trkpt lat="48.22685" lon="3.26033">
        <ele>62</ele>
        <time>2013-08-03T12:08:45Z</time>
      </trkpt>
      <trkpt lat="48.22682" lon="3.26035">
        <ele>62</ele>
        <time>2013-08-03T12:08:53Z</time>
      </trkpt>
      <trkpt lat="48.22675" lon="3.26037">
        <ele>62</ele>
        <time>2013-08-03T12:08:57Z</time>
      </trkpt>
      <trkpt lat="48.22668" lon="3.26039">
        <ele>62</ele>
        <time>2013-08-03T12:08:59Z</time>
      </trkpt>
      <trkpt lat="48.22662" lon="3.26042">
        <ele>62</ele>
        <time>2013-08-03T12:09:01Z</time>
      </trkpt>
      <trkpt lat="48.22657" lon="3.26044">
        <ele>63</ele>
        <time>2013-08-03T12:09:04Z</time>
      </trkpt>
      <trkpt lat="48.22657" lon="3.2605">
        <ele>63</ele>
        <time>2013-08-03T12:09:13Z</time>
      </trkpt>
      <trkpt lat="48.22651" lon="3.26052">
        <ele>63</ele>
        <time>2013-08-03T12:09:17Z</time>
      </trkpt>
      <trkpt lat="48.22647" lon="3.26054">
        <ele>63</ele>
        <time>2013-08-03T12:09:19Z</time>
      </trkpt>
      <trkpt lat="48.22641" lon="3.26057">
        <ele>63</ele>
        <time>2013-08-03T12:09:21Z</time>
      </trkpt>
      <trkpt lat="48.22638" lon="3.26062">
        <ele>63</ele>
        <time>2013-08-03T12:09:33Z</time>
      </trkpt>
      <trkpt lat="48.22636" lon="3.26071">
        <ele>63</ele>
        <time>2013-08-03T12:09:38Z</time>
      </trkpt>
      <trkpt lat="48.22632" lon="3.26078">
        <ele>63</ele>
        <time>2013-08-03T12:09:41Z</time>
      </trkpt>
      <trkpt lat="48.22631" lon="3.26086">
        <ele>63</ele>
        <time>2013-08-03T12:09:44Z</time>
      </trkpt>
      <trkpt lat="48.22633" lon="3.26093">
        <ele>63</ele>
        <time>2013-08-03T12:09:48Z</time>
      </trkpt>
      <trkpt lat="48.22633" lon="3.26101">
        <ele>63</ele>
        <time>2013-08-03T12:09:52Z</time>
      </trkpt>
      <trkpt lat="48.22633" lon="3.26111">
        <ele>63</ele>
        <time>2013-08-03T12:09:55Z</time>
      </trkpt>
      <trkpt lat="48.22634" lon="3.26119">
        <ele>63</ele>
        <time>2013-08-03T12:09:59Z</time>
      </trkpt>
      <trkpt lat="48.22635" lon="3.26127">
        <ele>63</ele>
        <time>2013-08-03T12:10:04Z</time>
      </trkpt>
      <trkpt lat="48.22636" lon="3.26134">
        <ele>63</ele>
        <time>2013-08-03T12:10:08Z</time>
      </trkpt>
      <trkpt lat="48.22636" lon="3.26142">
        <ele>63</ele>
        <time>2013-08-03T12:10:12Z</time>
      </trkpt>
      <trkpt lat="48.22635" lon="3.26149">
        <ele>63</ele>
        <time>2013-08-03T12:10:15Z</time>
      </trkpt>
      <trkpt lat="48.22636" lon="3.26157">
        <ele>63</ele>
        <time>2013-08-03T12:10:20Z</time>
      </trkpt>
      <trkpt lat="48.22637" lon="3.26165">
        <ele>63</ele>
        <time>2013-08-03T12:10:25Z</time>
      </trkpt>
      <trkpt lat="48.22635" lon="3.26172">
        <ele>62</ele>
        <time>2013-08-03T12:10:30Z</time>
      </trkpt>
      <trkpt lat="48.22631" lon="3.26177">
        <ele>62</ele>
        <time>2013-08-03T12:10:35Z</time>
      </trkpt>
      <trkpt lat="48.22626" lon="3.26178">
        <ele>62</ele>
        <time>2013-08-03T12:10:39Z</time>
      </trkpt>
      <trkpt lat="48.22621" lon="3.26178">
        <ele>62</ele>
        <time>2013-08-03T12:10:43Z</time>
      </trkpt>
      <trkpt lat="48.22616" lon="3.26177">
        <ele>62</ele>
        <time>2013-08-03T12:10:47Z</time>
      </trkpt>
      <trkpt lat="48.2261" lon="3.26176">
        <ele>62</ele>
        <time>2013-08-03T12:10:51Z</time>
      </trkpt>
      <trkpt lat="48.22606" lon="3.26174">
        <ele>62</ele>
        <time>2013-08-03T12:10:55Z</time>
      </trkpt>
      <trkpt lat="48.22601" lon="3.2617">
        <ele>62</ele>
        <time>2013-08-03T12:11:01Z</time>
      </trkpt>
      <trkpt lat="48.22596" lon="3.26167">
        <ele>62</ele>
        <time>2013-08-03T12:11:06Z</time>
      </trkpt>
      <trkpt lat="48.22592" lon="3.26164">
        <ele>62</ele>
        <time>2013-08-03T12:11:12Z</time>
      </trkpt>
      <trkpt lat="48.22587" lon="3.26161">
        <ele>62</ele>
        <time>2013-08-03T12:11:17Z</time>
      </trkpt>
      <trkpt lat="48.22582" lon="3.26158">
        <ele>62</ele>
        <time>2013-08-03T12:11:23Z</time>
      </trkpt>
      <trkpt lat="48.22577" lon="3.26157">
        <ele>62</ele>
        <time>2013-08-03T12:11:28Z</time>
      </trkpt>
      <trkpt lat="48.22573" lon="3.26157">
        <ele>62</ele>
        <time>2013-08-03T12:11:35Z</time>
      </trkpt>
      <trkpt lat="48.22568" lon="3.26159">
        <ele>62</ele>
        <time>2013-08-03T12:11:39Z</time>
      </trkpt>
      <trkpt lat="48.22562" lon="3.26162">
        <ele>62</ele>
        <time>2013-08-03T12:11:44Z</time>
      </trkpt>
      <trkpt lat="48.22557" lon="3.26165">
        <ele>62</ele>
        <time>2013-08-03T12:11:47Z</time>
      </trkpt>
      <trkpt lat="48.22553" lon="3.26167">
        <ele>62</ele>
        <time>2013-08-03T12:11:50Z</time>
      </trkpt>
      <trkpt lat="48.22547" lon="3.2617">
        <ele>62</ele>
        <time>2013-08-03T12:11:54Z</time>
      </trkpt>
      <trkpt lat="48.22543" lon="3.26173">
        <ele>62</ele>
        <time>2013-08-03T12:11:57Z</time>
      </trkpt>
      <trkpt lat="48.22539" lon="3.26178">
        <ele>62</ele>
        <time>2013-08-03T12:12:00Z</time>
      </trkpt>
      <trkpt lat="48.22534" lon="3.2618">
        <ele>62</ele>
        <time>2013-08-03T12:12:04Z</time>
      </trkpt>
      <trkpt lat="48.2253" lon="3.26184">
        <ele>62</ele>
        <time>2013-08-03T12:12:09Z</time>
      </trkpt>
      <trkpt lat="48.22524" lon="3.26186">
        <ele>62</ele>
        <time>2013-08-03T12:12:29Z</time>
      </trkpt>
      <trkpt lat="48.22519" lon="3.26188">
        <ele>62</ele>
        <time>2013-08-03T12:12:32Z</time>
      </trkpt>
      <trkpt lat="48.22514" lon="3.26191">
        <ele>62</ele>
        <time>2013-08-03T12:12:35Z</time>
      </trkpt>
      <trkpt lat="48.2251" lon="3.26193">
        <ele>62</ele>
        <time>2013-08-03T12:12:38Z</time>
      </trkpt>
      <trkpt lat="48.22504" lon="3.26195">
        <ele>62</ele>
        <time>2013-08-03T12:12:42Z</time>
      </trkpt>
      <trkpt lat="48.22499" lon="3.26197">
        <ele>62</ele>
        <time>2013-08-03T12:12:46Z</time>
      </trkpt>
      <trkpt lat="48.22494" lon="3.26199">
        <ele>62</ele>
        <time>2013-08-03T12:12:50Z</time>
      </trkpt>
      <trkpt lat="48.22489" lon="3.26202">
        <ele>62</ele>
        <time>2013-08-03T12:12:54Z</time>
      </trkpt>
      <trkpt lat="48.22483" lon="3.26204">
        <ele>62</ele>
        <time>2013-08-03T12:12:58Z</time>
      </trkpt>
      <trkpt lat="48.22479" lon="3.26207">
        <ele>62</ele>
        <time>2013-08-03T12:13:02Z</time>
      </trkpt>
      <trkpt lat="48.22474" lon="3.2621">
        <ele>62</ele>
        <time>2013-08-03T12:13:06Z</time>
      </trkpt>
      <trkpt lat="48.22469" lon="3.26213">
        <ele>62</ele>
        <time>2013-08-03T12:13:10Z</time>
      </trkpt>
      <trkpt lat="48.22465" lon="3.26216">
        <ele>62</ele>
        <time>2013-08-03T12:13:14Z</time>
      </trkpt>
      <trkpt lat="48.2246" lon="3.26218">
        <ele>62</ele>
        <time>2013-08-03T12:13:18Z</time>
      </trkpt>
      <trkpt lat="48.22455" lon="3.2622">
        <ele>62</ele>
        <time>2013-08-03T12:13:22Z</time>
      </trkpt>
      <trkpt lat="48.2245" lon="3.26222">
        <ele>62</ele>
        <time>2013-08-03T12:13:26Z</time>
      </trkpt>
      <trkpt lat="48.22446" lon="3.26223">
        <ele>62</ele>
        <time>2013-08-03T12:13:30Z</time>
      </trkpt>
      <trkpt lat="48.2244" lon="3.26224">
        <ele>62</ele>
        <time>2013-08-03T12:13:34Z</time>
      </trkpt>
      <trkpt lat="48.22435" lon="3.26226">
        <ele>62</ele>
        <time>2013-08-03T12:13:38Z</time>
      </trkpt>
      <trkpt lat="48.22431" lon="3.26226">
        <ele>62</ele>
        <time>2013-08-03T12:13:42Z</time>
      </trkpt>
      <trkpt lat="48.22425" lon="3.26228">
        <ele>62</ele>
        <time>2013-08-03T12:13:48Z</time>
      </trkpt>
      <trkpt lat="48.2242" lon="3.26228">
        <ele>62</ele>
        <time>2013-08-03T12:13:53Z</time>
      </trkpt>
      <trkpt lat="48.22415" lon="3.2623">
        <ele>62</ele>
        <time>2013-08-03T12:13:57Z</time>
      </trkpt>
      <trkpt lat="48.2241" lon="3.2623">
        <ele>62</ele>
        <time>2013-08-03T12:14:02Z</time>
      </trkpt>
      <trkpt lat="48.22403" lon="3.26233">
        <ele>62</ele>
        <time>2013-08-03T12:14:11Z</time>
      </trkpt>
      <trkpt lat="48.22398" lon="3.26236">
        <ele>62</ele>
        <time>2013-08-03T12:14:14Z</time>
      </trkpt>
      <trkpt lat="48.22393" lon="3.26237">
        <ele>62</ele>
        <time>2013-08-03T12:14:17Z</time>
      </trkpt>
      <trkpt lat="48.22389" lon="3.26238">
        <ele>62</ele>
        <time>2013-08-03T12:14:20Z</time>
      </trkpt>
      <trkpt lat="48.22384" lon="3.26238">
        <ele>62</ele>
        <time>2013-08-03T12:14:23Z</time>
      </trkpt>
      <trkpt lat="48.22379" lon="3.2624">
        <ele>62</ele>
        <time>2013-08-03T12:14:27Z</time>
      </trkpt>
      <trkpt lat="48.22374" lon="3.26242">
        <ele>62</ele>
        <time>2013-08-03T12:14:31Z</time>
      </trkpt>
      <trkpt lat="48.2237" lon="3.26244">
        <ele>62</ele>
        <time>2013-08-03T12:14:35Z</time>
      </trkpt>
      <trkpt lat="48.22365" lon="3.26247">
        <ele>62</ele>
        <time>2013-08-03T12:14:40Z</time>
      </trkpt>
      <trkpt lat="48.22358" lon="3.26251">
        <ele>62</ele>
        <time>2013-08-03T12:14:43Z</time>
      </trkpt>
      <trkpt lat="48.22354" lon="3.26253">
        <ele>62</ele>
        <time>2013-08-03T12:14:45Z</time>
      </trkpt>
      <trkpt lat="48.22349" lon="3.26255">
        <ele>62</ele>
        <time>2013-08-03T12:14:49Z</time>
      </trkpt>
      <trkpt lat="48.22344" lon="3.26258">
        <ele>62</ele>
        <time>2013-08-03T12:14:54Z</time>
      </trkpt>
      <trkpt lat="48.22339" lon="3.2626">
        <ele>62</ele>
        <time>2013-08-03T12:14:58Z</time>
      </trkpt>
      <trkpt lat="48.22334" lon="3.26259">
        <ele>62</ele>
        <time>2013-08-03T12:15:02Z</time>
      </trkpt>
      <trkpt lat="48.22329" lon="3.2626">
        <ele>62</ele>
        <time>2013-08-03T12:15:07Z</time>
      </trkpt>
      <trkpt lat="48.22325" lon="3.26263">
        <ele>62</ele>
        <time>2013-08-03T12:15:11Z</time>
      </trkpt>
      <trkpt lat="48.22319" lon="3.26266">
        <ele>62</ele>
        <time>2013-08-03T12:15:17Z</time>
      </trkpt>
      <trkpt lat="48.22314" lon="3.26267">
        <ele>62</ele>
        <time>2013-08-03T12:15:21Z</time>
      </trkpt>
      <trkpt lat="48.22309" lon="3.26269">
        <ele>62</ele>
        <time>2013-08-03T12:15:25Z</time>
      </trkpt>
      <trkpt lat="48.22304" lon="3.26272">
        <ele>63</ele>
        <time>2013-08-03T12:15:29Z</time>
      </trkpt>
      <trkpt lat="48.22299" lon="3.26274">
        <ele>63</ele>
        <time>2013-08-03T12:15:33Z</time>
      </trkpt>
      <trkpt lat="48.22294" lon="3.26273">
        <ele>63</ele>
        <time>2013-08-03T12:15:37Z</time>
      </trkpt>
      <trkpt lat="48.22289" lon="3.26274">
        <ele>63</ele>
        <time>2013-08-03T12:15:41Z</time>
      </trkpt>
      <trkpt lat="48.22283" lon="3.26274">
        <ele>63</ele>
        <time>2013-08-03T12:15:45Z</time>
      </trkpt>
      <trkpt lat="48.22278" lon="3.26276">
        <ele>63</ele>
        <time>2013-08-03T12:15:52Z</time>
      </trkpt>
      <trkpt lat="48.22273" lon="3.26275">
        <ele>63</ele>
        <time>2013-08-03T12:15:56Z</time>
      </trkpt>
      <trkpt lat="48.22268" lon="3.26275">
        <ele>63</ele>
        <time>2013-08-03T12:16:01Z</time>
      </trkpt>
      <trkpt lat="48.22263" lon="3.26274">
        <ele>63</ele>
        <time>2013-08-03T12:16:08Z</time>
      </trkpt>
      <trkpt lat="48.22258" lon="3.26274">
        <ele>63</ele>
        <time>2013-08-03T12:16:12Z</time>
      </trkpt>
      <trkpt lat="48.22253" lon="3.26278">
        <ele>63</ele>
        <time>2013-08-03T12:16:16Z</time>
      </trkpt>
      <trkpt lat="48.22248" lon="3.2628">
        <ele>65</ele>
        <time>2013-08-03T12:16:20Z</time>
      </trkpt>
      <trkpt lat="48.22243" lon="3.2628">
        <ele>65</ele>
        <time>2013-08-03T12:16:24Z</time>
      </trkpt>
      <trkpt lat="48.22238" lon="3.26282">
        <ele>65</ele>
        <time>2013-08-03T12:16:28Z</time>
      </trkpt>
      <trkpt lat="48.22234" lon="3.26284">
        <ele>65</ele>
        <time>2013-08-03T12:16:32Z</time>
      </trkpt>
      <trkpt lat="48.22229" lon="3.26282">
        <ele>65</ele>
        <time>2013-08-03T12:16:38Z</time>
      </trkpt>
      <trkpt lat="48.22224" lon="3.26284">
        <ele>65</ele>
        <time>2013-08-03T12:16:44Z</time>
      </trkpt>
      <trkpt lat="48.22219" lon="3.26285">
        <ele>65</ele>
        <time>2013-08-03T12:16:48Z</time>
      </trkpt>
      <trkpt lat="48.22214" lon="3.26288">
        <ele>65</ele>
        <time>2013-08-03T12:16:51Z</time>
      </trkpt>
      <trkpt lat="48.22209" lon="3.2629">
        <ele>65</ele>
        <time>2013-08-03T12:16:55Z</time>
      </trkpt>
      <trkpt lat="48.22204" lon="3.2629">
        <ele>65</ele>
        <time>2013-08-03T12:16:59Z</time>
      </trkpt>
      <trkpt lat="48.22199" lon="3.26291">
        <ele>65</ele>
        <time>2013-08-03T12:17:03Z</time>
      </trkpt>
      <trkpt lat="48.22194" lon="3.26294">
        <ele>65</ele>
        <time>2013-08-03T12:17:08Z</time>
      </trkpt>
      <trkpt lat="48.22189" lon="3.26297">
        <ele>65</ele>
        <time>2013-08-03T12:17:12Z</time>
      </trkpt>
      <trkpt lat="48.22185" lon="3.263">
        <ele>65</ele>
        <time>2013-08-03T12:17:17Z</time>
      </trkpt>
      <trkpt lat="48.2218" lon="3.26303">
        <ele>65</ele>
        <time>2013-08-03T12:17:23Z</time>
      </trkpt>
      <trkpt lat="48.22175" lon="3.26307">
        <ele>65</ele>
        <time>2013-08-03T12:17:40Z</time>
      </trkpt>
      <trkpt lat="48.22169" lon="3.26309">
        <ele>65</ele>
        <time>2013-08-03T12:17:46Z</time>
      </trkpt>
      <trkpt lat="48.22165" lon="3.26311">
        <ele>66</ele>
        <time>2013-08-03T12:17:50Z</time>
      </trkpt>
      <trkpt lat="48.2216" lon="3.26315">
        <ele>66</ele>
        <time>2013-08-03T12:17:55Z</time>
      </trkpt>
      <trkpt lat="48.22155" lon="3.2632">
        <ele>66</ele>
        <time>2013-08-03T12:18:00Z</time>
      </trkpt>
      <trkpt lat="48.22151" lon="3.26324">
        <ele>66</ele>
        <time>2013-08-03T12:18:04Z</time>
      </trkpt>
      <trkpt lat="48.22146" lon="3.26327">
        <ele>66</ele>
        <time>2013-08-03T12:18:08Z</time>
      </trkpt>
      <trkpt lat="48.22142" lon="3.26331">
        <ele>66</ele>
        <time>2013-08-03T12:18:13Z</time>
      </trkpt>
      <trkpt lat="48.22138" lon="3.26336">
        <ele>64</ele>
        <time>2013-08-03T12:18:17Z</time>
      </trkpt>
      <trkpt lat="48.22133" lon="3.2634">
        <ele>64</ele>
        <time>2013-08-03T12:18:21Z</time>
      </trkpt>
      <trkpt lat="48.2213" lon="3.26345">
        <ele>64</ele>
        <time>2013-08-03T12:18:26Z</time>
      </trkpt>
      <trkpt lat="48.22125" lon="3.26348">
        <ele>64</ele>
        <time>2013-08-03T12:18:30Z</time>
      </trkpt>
      <trkpt lat="48.22121" lon="3.26353">
        <ele>64</ele>
        <time>2013-08-03T12:18:35Z</time>
      </trkpt>
      <trkpt lat="48.22116" lon="3.26357">
        <ele>64</ele>
        <time>2013-08-03T12:18:40Z</time>
      </trkpt>
      <trkpt lat="48.22111" lon="3.26359">
        <ele>64</ele>
        <time>2013-08-03T12:18:45Z</time>
      </trkpt>
      <trkpt lat="48.22106" lon="3.2636">
        <ele>64</ele>
        <time>2013-08-03T12:18:49Z</time>
      </trkpt>
      <trkpt lat="48.22101" lon="3.26363">
        <ele>64</ele>
        <time>2013-08-03T12:18:55Z</time>
      </trkpt>
      <trkpt lat="48.22096" lon="3.26363">
        <ele>64</ele>
        <time>2013-08-03T12:18:59Z</time>
      </trkpt>
      <trkpt lat="48.2209" lon="3.26363">
        <ele>64</ele>
        <time>2013-08-03T12:19:01Z</time>
      </trkpt>
      <trkpt lat="48.22086" lon="3.26363">
        <ele>64</ele>
        <time>2013-08-03T12:19:04Z</time>
      </trkpt>
      <trkpt lat="48.22081" lon="3.26366">
        <ele>64</ele>
        <time>2013-08-03T12:19:10Z</time>
      </trkpt>
      <trkpt lat="48.22076" lon="3.26367">
        <ele>64</ele>
        <time>2013-08-03T12:19:13Z</time>
      </trkpt>
      <trkpt lat="48.22069" lon="3.26367">
        <ele>64</ele>
        <time>2013-08-03T12:19:16Z</time>
      </trkpt>
      <trkpt lat="48.22065" lon="3.26368">
        <ele>64</ele>
        <time>2013-08-03T12:19:18Z</time>
      </trkpt>
      <trkpt lat="48.22058" lon="3.26369">
        <ele>64</ele>
        <time>2013-08-03T12:19:27Z</time>
      </trkpt>
      <trkpt lat="48.22053" lon="3.26369">
        <ele>64</ele>
        <time>2013-08-03T12:19:31Z</time>
      </trkpt>
      <trkpt lat="48.22048" lon="3.2637">
        <ele>64</ele>
        <time>2013-08-03T12:19:35Z</time>
      </trkpt>
      <trkpt lat="48.22044" lon="3.26373">
        <ele>64</ele>
        <time>2013-08-03T12:19:40Z</time>
      </trkpt>
      <trkpt lat="48.22038" lon="3.26376">
        <ele>64</ele>
        <time>2013-08-03T12:19:45Z</time>
      </trkpt>
      <trkpt lat="48.22033" lon="3.26378">
        <ele>64</ele>
        <time>2013-08-03T12:19:49Z</time>
      </trkpt>
      <trkpt lat="48.22028" lon="3.26378">
        <ele>64</ele>
        <time>2013-08-03T12:19:53Z</time>
      </trkpt>
      <trkpt lat="48.22023" lon="3.26376">
        <ele>64</ele>
        <time>2013-08-03T12:19:58Z</time>
      </trkpt>
      <trkpt lat="48.22018" lon="3.26375">
        <ele>64</ele>
        <time>2013-08-03T12:20:03Z</time>
      </trkpt>
      <trkpt lat="48.22013" lon="3.26374">
        <ele>64</ele>
        <time>2013-08-03T12:20:08Z</time>
      </trkpt>
      <trkpt lat="48.22009" lon="3.26373">
        <ele>64</ele>
        <time>2013-08-03T12:20:14Z</time>
      </trkpt>
      <trkpt lat="48.22004" lon="3.26376">
        <ele>64</ele>
        <time>2013-08-03T12:20:19Z</time>
      </trkpt>
      <trkpt lat="48.22" lon="3.26376">
        <ele>64</ele>
        <time>2013-08-03T12:20:23Z</time>
      </trkpt>
      <trkpt lat="48.21995" lon="3.26376">
        <ele>64</ele>
        <time>2013-08-03T12:20:27Z</time>
      </trkpt>
      <trkpt lat="48.21988" lon="3.26374">
        <ele>64</ele>
        <time>2013-08-03T12:20:30Z</time>
      </trkpt>
      <trkpt lat="48.21982" lon="3.26374">
        <ele>64</ele>
        <time>2013-08-03T12:20:33Z</time>
      </trkpt>
      <trkpt lat="48.21976" lon="3.26375">
        <ele>64</ele>
        <time>2013-08-03T12:20:36Z</time>
      </trkpt>
      <trkpt lat="48.21971" lon="3.26377">
        <ele>64</ele>
        <time>2013-08-03T12:20:40Z</time>
      </trkpt>
      <trkpt lat="48.21966" lon="3.26379">
        <ele>64</ele>
        <time>2013-08-03T12:20:44Z</time>
      </trkpt>
      <trkpt lat="48.2196" lon="3.26379">
        <ele>64</ele>
        <time>2013-08-03T12:20:49Z</time>
      </trkpt>
      <trkpt lat="48.21955" lon="3.26378">
        <ele>64</ele>
        <time>2013-08-03T12:20:58Z</time>
      </trkpt>
      <trkpt lat="48.21951" lon="3.26376">
        <ele>64</ele>
        <time>2013-08-03T12:21:08Z</time>
      </trkpt>
      <trkpt lat="48.21948" lon="3.26376">
        <ele>64</ele>
        <time>2013-08-03T12:21:17Z</time>
      </trkpt>
      <trkpt lat="48.21945" lon="3.2637">
        <ele>64</ele>
        <time>2013-08-03T12:21:25Z</time>
      </trkpt>
      <trkpt lat="48.2194" lon="3.26366">
        <ele>64</ele>
        <time>2013-08-03T12:21:29Z</time>
      </trkpt>
      <trkpt lat="48.21932" lon="3.26367">
        <ele>64</ele>
        <time>2013-08-03T12:21:43Z</time>
      </trkpt>
      <trkpt lat="48.21927" lon="3.26369">
        <ele>64</ele>
        <time>2013-08-03T12:21:49Z</time>
      </trkpt>
      <trkpt lat="48.21922" lon="3.26367">
        <ele>64</ele>
        <time>2013-08-03T12:21:52Z</time>
      </trkpt>
      <trkpt lat="48.21917" lon="3.26366">
        <ele>64</ele>
        <time>2013-08-03T12:21:56Z</time>
      </trkpt>
      <trkpt lat="48.21912" lon="3.26366">
        <ele>64</ele>
        <time>2013-08-03T12:22:01Z</time>
      </trkpt>
      <trkpt lat="48.21906" lon="3.26365">
        <ele>64</ele>
        <time>2013-08-03T12:22:04Z</time>
      </trkpt>
      <trkpt lat="48.21901" lon="3.26365">
        <ele>64</ele>
        <time>2013-08-03T12:22:07Z</time>
      </trkpt>
      <trkpt lat="48.21895" lon="3.26364">
        <ele>64</ele>
        <time>2013-08-03T12:22:13Z</time>
      </trkpt>
      <trkpt lat="48.21891" lon="3.2636">
        <ele>64</ele>
        <time>2013-08-03T12:22:16Z</time>
      </trkpt>
      <trkpt lat="48.21885" lon="3.26359">
        <ele>64</ele>
        <time>2013-08-03T12:22:20Z</time>
      </trkpt>
      <trkpt lat="48.21879" lon="3.26359">
        <ele>64</ele>
        <time>2013-08-03T12:22:24Z</time>
      </trkpt>
      <trkpt lat="48.21874" lon="3.26358">
        <ele>64</ele>
        <time>2013-08-03T12:22:27Z</time>
      </trkpt>
      <trkpt lat="48.21869" lon="3.26357">
        <ele>64</ele>
        <time>2013-08-03T12:22:31Z</time>
      </trkpt>
      <trkpt lat="48.21863" lon="3.26359">
        <ele>64</ele>
        <time>2013-08-03T12:22:35Z</time>
      </trkpt>
      <trkpt lat="48.21858" lon="3.2636">
        <ele>64</ele>
        <time>2013-08-03T12:22:39Z</time>
      </trkpt>
      <trkpt lat="48.21853" lon="3.26361">
        <ele>64</ele>
        <time>2013-08-03T12:22:42Z</time>
      </trkpt>
      <trkpt lat="48.21848" lon="3.26361">
        <ele>65</ele>
        <time>2013-08-03T12:22:48Z</time>
      </trkpt>
      <trkpt lat="48.21842" lon="3.26361">
        <ele>65</ele>
        <time>2013-08-03T12:22:51Z</time>
      </trkpt>
      <trkpt lat="48.21837" lon="3.2636">
        <ele>65</ele>
        <time>2013-08-03T12:23:02Z</time>
      </trkpt>
      <trkpt lat="48.21832" lon="3.26361">
        <ele>65</ele>
        <time>2013-08-03T12:23:08Z</time>
      </trkpt>
      <trkpt lat="48.21827" lon="3.26361">
        <ele>65</ele>
        <time>2013-08-03T12:23:13Z</time>
      </trkpt>
      <trkpt lat="48.21822" lon="3.26362">
        <ele>65</ele>
        <time>2013-08-03T12:23:19Z</time>
      </trkpt>
      <trkpt lat="48.21817" lon="3.26362">
        <ele>65</ele>
        <time>2013-08-03T12:23:24Z</time>
      </trkpt>
      <trkpt lat="48.21812" lon="3.26366">
        <ele>65</ele>
        <time>2013-08-03T12:23:28Z</time>
      </trkpt>
      <trkpt lat="48.21807" lon="3.26371">
        <ele>65</ele>
        <time>2013-08-03T12:23:33Z</time>
      </trkpt>
      <trkpt lat="48.21802" lon="3.26372">
        <ele>65</ele>
        <time>2013-08-03T12:23:41Z</time>
      </trkpt>
      <trkpt lat="48.21797" lon="3.26375">
        <ele>65</ele>
        <time>2013-08-03T12:23:46Z</time>
      </trkpt>
      <trkpt lat="48.21791" lon="3.26374">
        <ele>65</ele>
        <time>2013-08-03T12:23:51Z</time>
      </trkpt>
      <trkpt lat="48.21786" lon="3.26377">
        <ele>65</ele>
        <time>2013-08-03T12:23:58Z</time>
      </trkpt>
      <trkpt lat="48.21782" lon="3.26373">
        <ele>65</ele>
        <time>2013-08-03T12:24:05Z</time>
      </trkpt>
      <trkpt lat="48.21776" lon="3.26375">
        <ele>65</ele>
        <time>2013-08-03T12:24:09Z</time>
      </trkpt>
      <trkpt lat="48.21772" lon="3.26379">
        <ele>65</ele>
        <time>2013-08-03T12:24:14Z</time>
      </trkpt>
      <trkpt lat="48.21767" lon="3.26377">
        <ele>65</ele>
        <time>2013-08-03T12:24:37Z</time>
      </trkpt>
      <trkpt lat="48.21762" lon="3.26378">
        <ele>65</ele>
        <time>2013-08-03T12:24:40Z</time>
      </trkpt>
      <trkpt lat="48.21756" lon="3.2638">
        <ele>65</ele>
        <time>2013-08-03T12:24:43Z</time>
      </trkpt>
      <trkpt lat="48.21752" lon="3.26382">
        <ele>65</ele>
        <time>2013-08-03T12:24:47Z</time>
      </trkpt>
      <trkpt lat="48.21747" lon="3.26378">
        <ele>66</ele>
        <time>2013-08-03T12:24:56Z</time>
      </trkpt>
      <trkpt lat="48.21742" lon="3.26377">
        <ele>66</ele>
        <time>2013-08-03T12:25:01Z</time>
      </trkpt>
      <trkpt lat="48.21737" lon="3.26377">
        <ele>66</ele>
        <time>2013-08-03T12:25:07Z</time>
      </trkpt>
      <trkpt lat="48.21733" lon="3.26379">
        <ele>66</ele>
        <time>2013-08-03T12:25:12Z</time>
      </trkpt>
      <trkpt lat="48.21728" lon="3.2638">
        <ele>66</ele>
        <time>2013-08-03T12:25:18Z</time>
      </trkpt>
      <trkpt lat="48.21722" lon="3.26379">
        <ele>66</ele>
        <time>2013-08-03T12:25:22Z</time>
      </trkpt>
      <trkpt lat="48.21718" lon="3.26382">
        <ele>66</ele>
        <time>2013-08-03T12:25:32Z</time>
      </trkpt>
      <trkpt lat="48.21714" lon="3.26382">
        <ele>66</ele>
        <time>2013-08-03T12:25:37Z</time>
      </trkpt>
      <trkpt lat="48.21708" lon="3.26383">
        <ele>66</ele>
        <time>2013-08-03T12:25:42Z</time>
      </trkpt>
      <trkpt lat="48.21704" lon="3.26384">
        <ele>66</ele>
        <time>2013-08-03T12:25:46Z</time>
      </trkpt>
      <trkpt lat="48.21699" lon="3.26385">
        <ele>66</ele>
        <time>2013-08-03T12:25:49Z</time>
      </trkpt>
      <trkpt lat="48.21696" lon="3.26387">
        <ele>66</ele>
        <time>2013-08-03T12:25:55Z</time>
      </trkpt>
      <trkpt lat="48.21691" lon="3.26387">
        <ele>66</ele>
        <time>2013-08-03T12:26:06Z</time>
      </trkpt>
      <trkpt lat="48.21686" lon="3.2639">
        <ele>66</ele>
        <time>2013-08-03T12:26:11Z</time>
      </trkpt>
      <trkpt lat="48.2168" lon="3.26392">
        <ele>66</ele>
        <time>2013-08-03T12:26:16Z</time>
      </trkpt>
      <trkpt lat="48.21676" lon="3.26394">
        <ele>66</ele>
        <time>2013-08-03T12:26:20Z</time>
      </trkpt>
      <trkpt lat="48.2167" lon="3.26398">
        <ele>66</ele>
        <time>2013-08-03T12:26:32Z</time>
      </trkpt>
      <trkpt lat="48.21665" lon="3.264">
        <ele>66</ele>
        <time>2013-08-03T12:26:36Z</time>
      </trkpt>
      <trkpt lat="48.21659" lon="3.264">
        <ele>66</ele>
        <time>2013-08-03T12:26:41Z</time>
      </trkpt>
      <trkpt lat="48.21654" lon="3.26399">
        <ele>66</ele>
        <time>2013-08-03T12:26:45Z</time>
      </trkpt>
      <trkpt lat="48.21649" lon="3.26395">
        <ele>66</ele>
        <time>2013-08-03T12:26:50Z</time>
      </trkpt>
      <trkpt lat="48.21645" lon="3.26399">
        <ele>66</ele>
        <time>2013-08-03T12:27:03Z</time>
      </trkpt>
      <trkpt lat="48.2164" lon="3.26401">
        <ele>66</ele>
        <time>2013-08-03T12:27:07Z</time>
      </trkpt>
      <trkpt lat="48.21635" lon="3.26403">
        <ele>65</ele>
        <time>2013-08-03T12:27:14Z</time>
      </trkpt>
      <trkpt lat="48.2163" lon="3.26402">
        <ele>65</ele>
        <time>2013-08-03T12:27:19Z</time>
      </trkpt>
      <trkpt lat="48.21625" lon="3.264">
        <ele>65</ele>
        <time>2013-08-03T12:27:24Z</time>
      </trkpt>
      <trkpt lat="48.2162" lon="3.26401">
        <ele>65</ele>
        <time>2013-08-03T12:27:29Z</time>
      </trkpt>
      <trkpt lat="48.21615" lon="3.26404">
        <ele>65</ele>
        <time>2013-08-03T12:27:34Z</time>
      </trkpt>
      <trkpt lat="48.21609" lon="3.26406">
        <ele>66</ele>
        <time>2013-08-03T12:27:38Z</time>
      </trkpt>
      <trkpt lat="48.21604" lon="3.26408">
        <ele>66</ele>
        <time>2013-08-03T12:27:41Z</time>
      </trkpt>
      <trkpt lat="48.216" lon="3.2641">
        <ele>66</ele>
        <time>2013-08-03T12:27:46Z</time>
      </trkpt>
      <trkpt lat="48.21595" lon="3.26413">
        <ele>66</ele>
        <time>2013-08-03T12:27:51Z</time>
      </trkpt>
      <trkpt lat="48.2159" lon="3.26414">
        <ele>66</ele>
        <time>2013-08-03T12:27:56Z</time>
      </trkpt>
      <trkpt lat="48.21584" lon="3.26415">
        <ele>66</ele>
        <time>2013-08-03T12:28:01Z</time>
      </trkpt>
      <trkpt lat="48.21579" lon="3.26414">
        <ele>66</ele>
        <time>2013-08-03T12:28:07Z</time>
      </trkpt>
      <trkpt lat="48.21574" lon="3.26415">
        <ele>66</ele>
        <time>2013-08-03T12:28:12Z</time>
      </trkpt>
      <trkpt lat="48.21568" lon="3.26413">
        <ele>66</ele>
        <time>2013-08-03T12:28:16Z</time>
      </trkpt>
      <trkpt lat="48.21564" lon="3.26416">
        <ele>66</ele>
        <time>2013-08-03T12:28:22Z</time>
      </trkpt>
      <trkpt lat="48.21559" lon="3.26418">
        <ele>66</ele>
        <time>2013-08-03T12:28:26Z</time>
      </trkpt>
      <trkpt lat="48.21554" lon="3.26418">
        <ele>66</ele>
        <time>2013-08-03T12:28:30Z</time>
      </trkpt>
      <trkpt lat="48.21549" lon="3.26419">
        <ele>66</ele>
        <time>2013-08-03T12:28:34Z</time>
      </trkpt>
      <trkpt lat="48.21544" lon="3.26421">
        <ele>66</ele>
        <time>2013-08-03T12:28:38Z</time>
      </trkpt>
      <trkpt lat="48.21539" lon="3.26422">
        <ele>66</ele>
        <time>2013-08-03T12:28:43Z</time>
      </trkpt>
      <trkpt lat="48.21534" lon="3.26423">
        <ele>66</ele>
        <time>2013-08-03T12:28:48Z</time>
      </trkpt>
      <trkpt lat="48.21529" lon="3.26424">
        <ele>66</ele>
        <time>2013-08-03T12:28:53Z</time>
      </trkpt>
      <trkpt lat="48.21524" lon="3.26424">
        <ele>66</ele>
        <time>2013-08-03T12:28:58Z</time>
      </trkpt>
      <trkpt lat="48.21521" lon="3.26422">
        <ele>66</ele>
        <time>2013-08-03T12:29:09Z</time>
      </trkpt>
      <trkpt lat="48.21515" lon="3.26424">
        <ele>66</ele>
        <time>2013-08-03T12:29:21Z</time>
      </trkpt>
      <trkpt lat="48.2151" lon="3.26426">
        <ele>66</ele>
        <time>2013-08-03T12:29:25Z</time>
      </trkpt>
      <trkpt lat="48.21501" lon="3.26429">
        <ele>66</ele>
        <time>2013-08-03T12:29:34Z</time>
      </trkpt>
      <trkpt lat="48.21497" lon="3.26433">
        <ele>66</ele>
        <time>2013-08-03T12:29:39Z</time>
      </trkpt>
      <trkpt lat="48.21495" lon="3.26441">
        <ele>66</ele>
        <time>2013-08-03T12:29:42Z</time>
      </trkpt>
      <trkpt lat="48.21489" lon="3.26441">
        <ele>66</ele>
        <time>2013-08-03T12:29:49Z</time>
      </trkpt>
      <trkpt lat="48.21484" lon="3.26435">
        <ele>66</ele>
        <time>2013-08-03T12:29:53Z</time>
      </trkpt>
      <trkpt lat="48.21479" lon="3.26432">
        <ele>66</ele>
        <time>2013-08-03T12:29:57Z</time>
      </trkpt>
      <trkpt lat="48.21474" lon="3.2643">
        <ele>66</ele>
        <time>2013-08-03T12:30:01Z</time>
      </trkpt>
      <trkpt lat="48.2147" lon="3.26433">
        <ele>66</ele>
        <time>2013-08-03T12:30:05Z</time>
      </trkpt>
      <trkpt lat="48.21465" lon="3.26435">
        <ele>66</ele>
        <time>2013-08-03T12:30:10Z</time>
      </trkpt>
      <trkpt lat="48.2146" lon="3.26436">
        <ele>66</ele>
        <time>2013-08-03T12:30:15Z</time>
      </trkpt>
      <trkpt lat="48.21455" lon="3.26438">
        <ele>67</ele>
        <time>2013-08-03T12:30:20Z</time>
      </trkpt>
      <trkpt lat="48.2145" lon="3.26441">
        <ele>67</ele>
        <time>2013-08-03T12:30:25Z</time>
      </trkpt>
      <trkpt lat="48.21445" lon="3.26439">
        <ele>67</ele>
        <time>2013-08-03T12:30:30Z</time>
      </trkpt>
      <trkpt lat="48.2144" lon="3.26437">
        <ele>67</ele>
        <time>2013-08-03T12:30:34Z</time>
      </trkpt>
      <trkpt lat="48.21435" lon="3.26438">
        <ele>67</ele>
        <time>2013-08-03T12:30:39Z</time>
      </trkpt>
      <trkpt lat="48.21431" lon="3.26442">
        <ele>67</ele>
        <time>2013-08-03T12:30:44Z</time>
      </trkpt>
      <trkpt lat="48.21426" lon="3.26443">
        <ele>67</ele>
        <time>2013-08-03T12:30:48Z</time>
      </trkpt>
      <trkpt lat="48.21421" lon="3.26444">
        <ele>67</ele>
        <time>2013-08-03T12:30:52Z</time>
      </trkpt>
      <trkpt lat="48.21416" lon="3.26443">
        <ele>68</ele>
        <time>2013-08-03T12:30:56Z</time>
      </trkpt>
      <trkpt lat="48.21411" lon="3.26443">
        <ele>68</ele>
        <time>2013-08-03T12:30:59Z</time>
      </trkpt>
      <trkpt lat="48.21406" lon="3.26445">
        <ele>68</ele>
        <time>2013-08-03T12:31:02Z</time>
      </trkpt>
      <trkpt lat="48.21401" lon="3.26449">
        <ele>67</ele>
        <time>2013-08-03T12:31:06Z</time>
      </trkpt>
      <trkpt lat="48.21396" lon="3.26448">
        <ele>67</ele>
        <time>2013-08-03T12:31:11Z</time>
      </trkpt>
      <trkpt lat="48.2139" lon="3.26449">
        <ele>68</ele>
        <time>2013-08-03T12:31:16Z</time>
      </trkpt>
      <trkpt lat="48.21385" lon="3.26451">
        <ele>67</ele>
        <time>2013-08-03T12:31:19Z</time>
      </trkpt>
      <trkpt lat="48.2138" lon="3.26451">
        <ele>67</ele>
        <time>2013-08-03T12:31:23Z</time>
      </trkpt>
      <trkpt lat="48.21375" lon="3.2645">
        <ele>68</ele>
        <time>2013-08-03T12:31:28Z</time>
      </trkpt>
      <trkpt lat="48.2137" lon="3.26452">
        <ele>68</ele>
        <time>2013-08-03T12:31:32Z</time>
      </trkpt>
      <trkpt lat="48.21365" lon="3.26453">
        <ele>68</ele>
        <time>2013-08-03T12:31:35Z</time>
      </trkpt>
      <trkpt lat="48.2136" lon="3.2646">
        <ele>67</ele>
        <time>2013-08-03T12:31:38Z</time>
      </trkpt>
      <trkpt lat="48.21356" lon="3.26462">
        <ele>67</ele>
        <time>2013-08-03T12:31:41Z</time>
      </trkpt>
      <trkpt lat="48.21351" lon="3.26464">
        <ele>67</ele>
        <time>2013-08-03T12:31:46Z</time>
      </trkpt>
      <trkpt lat="48.21347" lon="3.26465">
        <ele>67</ele>
        <time>2013-08-03T12:31:51Z</time>
      </trkpt>
      <trkpt lat="48.21341" lon="3.26467">
        <ele>67</ele>
        <time>2013-08-03T12:32:00Z</time>
      </trkpt>
      <trkpt lat="48.21335" lon="3.26467">
        <ele>67</ele>
        <time>2013-08-03T12:32:03Z</time>
      </trkpt>
      <trkpt lat="48.2133" lon="3.26466">
        <ele>69</ele>
        <time>2013-08-03T12:32:08Z</time>
      </trkpt>
      <trkpt lat="48.21325" lon="3.26467">
        <ele>69</ele>
        <time>2013-08-03T12:32:13Z</time>
      </trkpt>
      <trkpt lat="48.2132" lon="3.26468">
        <ele>69</ele>
        <time>2013-08-03T12:32:18Z</time>
      </trkpt>
      <trkpt lat="48.21315" lon="3.26471">
        <ele>69</ele>
        <time>2013-08-03T12:32:21Z</time>
      </trkpt>
      <trkpt lat="48.21309" lon="3.26472">
        <ele>69</ele>
        <time>2013-08-03T12:32:24Z</time>
      </trkpt>
      <trkpt lat="48.21303" lon="3.26475">
        <ele>69</ele>
        <time>2013-08-03T12:32:28Z</time>
      </trkpt>
      <trkpt lat="48.21299" lon="3.26478">
        <ele>69</ele>
        <time>2013-08-03T12:32:31Z</time>
      </trkpt>
      <trkpt lat="48.21294" lon="3.26481">
        <ele>69</ele>
        <time>2013-08-03T12:32:35Z</time>
      </trkpt>
      <trkpt lat="48.21289" lon="3.26483">
        <ele>69</ele>
        <time>2013-08-03T12:32:39Z</time>
      </trkpt>
      <trkpt lat="48.21285" lon="3.26485">
        <ele>69</ele>
        <time>2013-08-03T12:32:43Z</time>
      </trkpt>
      <trkpt lat="48.21279" lon="3.26487">
        <ele>69</ele>
        <time>2013-08-03T12:32:48Z</time>
      </trkpt>
      <trkpt lat="48.21275" lon="3.26488">
        <ele>69</ele>
        <time>2013-08-03T12:32:52Z</time>
      </trkpt>
      <trkpt lat="48.2127" lon="3.26489">
        <ele>69</ele>
        <time>2013-08-03T12:32:56Z</time>
      </trkpt>
      <trkpt lat="48.21265" lon="3.2649">
        <ele>69</ele>
        <time>2013-08-03T12:32:59Z</time>
      </trkpt>
      <trkpt lat="48.2126" lon="3.26492">
        <ele>69</ele>
        <time>2013-08-03T12:33:02Z</time>
      </trkpt>
      <trkpt lat="48.21256" lon="3.26493">
        <ele>68</ele>
        <time>2013-08-03T12:33:05Z</time>
      </trkpt>
      <trkpt lat="48.21252" lon="3.26495">
        <ele>68</ele>
        <time>2013-08-03T12:33:09Z</time>
      </trkpt>
      <trkpt lat="48.21247" lon="3.26499">
        <ele>68</ele>
        <time>2013-08-03T12:33:13Z</time>
      </trkpt>
      <trkpt lat="48.21242" lon="3.26502">
        <ele>67</ele>
        <time>2013-08-03T12:33:19Z</time>
      </trkpt>
      <trkpt lat="48.21239" lon="3.26508">
        <ele>67</ele>
        <time>2013-08-03T12:33:26Z</time>
      </trkpt>
      <trkpt lat="48.21234" lon="3.26513">
        <ele>67</ele>
        <time>2013-08-03T12:33:31Z</time>
      </trkpt>
      <trkpt lat="48.21232" lon="3.26519">
        <ele>67</ele>
        <time>2013-08-03T12:33:36Z</time>
      </trkpt>
      <trkpt lat="48.21229" lon="3.26525">
        <ele>66</ele>
        <time>2013-08-03T12:33:40Z</time>
      </trkpt>
      <trkpt lat="48.21224" lon="3.2653">
        <ele>66</ele>
        <time>2013-08-03T12:33:44Z</time>
      </trkpt>
      <trkpt lat="48.21219" lon="3.26537">
        <ele>66</ele>
        <time>2013-08-03T12:33:48Z</time>
      </trkpt>
      <trkpt lat="48.21215" lon="3.26541">
        <ele>66</ele>
        <time>2013-08-03T12:33:52Z</time>
      </trkpt>
      <trkpt lat="48.2121" lon="3.26547">
        <ele>66</ele>
        <time>2013-08-03T12:33:56Z</time>
      </trkpt>
      <trkpt lat="48.21208" lon="3.26552">
        <ele>66</ele>
        <time>2013-08-03T12:33:59Z</time>
      </trkpt>
      <trkpt lat="48.21204" lon="3.26557">
        <ele>66</ele>
        <time>2013-08-03T12:34:02Z</time>
      </trkpt>
      <trkpt lat="48.21201" lon="3.26562">
        <ele>66</ele>
        <time>2013-08-03T12:34:06Z</time>
      </trkpt>
      <trkpt lat="48.21197" lon="3.26565">
        <ele>66</ele>
        <time>2013-08-03T12:34:11Z</time>
      </trkpt>
      <trkpt lat="48.21192" lon="3.2657">
        <ele>66</ele>
        <time>2013-08-03T12:34:16Z</time>
      </trkpt>
      <trkpt lat="48.21188" lon="3.26573">
        <ele>66</ele>
        <time>2013-08-03T12:34:20Z</time>
      </trkpt>
      <trkpt lat="48.2118" lon="3.26581">
        <ele>65</ele>
        <time>2013-08-03T12:34:29Z</time>
      </trkpt>
      <trkpt lat="48.21175" lon="3.26583">
        <ele>65</ele>
        <time>2013-08-03T12:34:33Z</time>
      </trkpt>
      <trkpt lat="48.21171" lon="3.26587">
        <ele>65</ele>
        <time>2013-08-03T12:34:37Z</time>
      </trkpt>
      <trkpt lat="48.21166" lon="3.26591">
        <ele>65</ele>
        <time>2013-08-03T12:34:42Z</time>
      </trkpt>
      <trkpt lat="48.21162" lon="3.26592">
        <ele>65</ele>
        <time>2013-08-03T12:34:46Z</time>
      </trkpt>
      <trkpt lat="48.21157" lon="3.26593">
        <ele>65</ele>
        <time>2013-08-03T12:34:50Z</time>
      </trkpt>
      <trkpt lat="48.21151" lon="3.26592">
        <ele>65</ele>
        <time>2013-08-03T12:34:57Z</time>
      </trkpt>
      <trkpt lat="48.21149" lon="3.26593">
        <ele>65</ele>
        <time>2013-08-03T12:35:03Z</time>
      </trkpt>
      <trkpt lat="48.21144" lon="3.26595">
        <ele>65</ele>
        <time>2013-08-03T12:35:10Z</time>
      </trkpt>
      <trkpt lat="48.2114" lon="3.26596">
        <ele>65</ele>
        <time>2013-08-03T12:35:14Z</time>
      </trkpt>
      <trkpt lat="48.21135" lon="3.26599">
        <ele>65</ele>
        <time>2013-08-03T12:35:31Z</time>
      </trkpt>
      <trkpt lat="48.21131" lon="3.26598">
        <ele>65</ele>
        <time>2013-08-03T12:35:35Z</time>
      </trkpt>
      <trkpt lat="48.21125" lon="3.26599">
        <ele>65</ele>
        <time>2013-08-03T12:35:42Z</time>
      </trkpt>
      <trkpt lat="48.21121" lon="3.26598">
        <ele>65</ele>
        <time>2013-08-03T12:35:47Z</time>
      </trkpt>
      <trkpt lat="48.21115" lon="3.26599">
        <ele>65</ele>
        <time>2013-08-03T12:35:52Z</time>
      </trkpt>
      <trkpt lat="48.2111" lon="3.26599">
        <ele>65</ele>
        <time>2013-08-03T12:35:56Z</time>
      </trkpt>
      <trkpt lat="48.21105" lon="3.26598">
        <ele>65</ele>
        <time>2013-08-03T12:36:01Z</time>
      </trkpt>
      <trkpt lat="48.21099" lon="3.26599">
        <ele>65</ele>
        <time>2013-08-03T12:36:05Z</time>
      </trkpt>
      <trkpt lat="48.21094" lon="3.26598">
        <ele>65</ele>
        <time>2013-08-03T12:36:10Z</time>
      </trkpt>
      <trkpt lat="48.21089" lon="3.26599">
        <ele>65</ele>
        <time>2013-08-03T12:36:15Z</time>
      </trkpt>
      <trkpt lat="48.21084" lon="3.26598">
        <ele>65</ele>
        <time>2013-08-03T12:36:20Z</time>
      </trkpt>
      <trkpt lat="48.21079" lon="3.26598">
        <ele>65</ele>
        <time>2013-08-03T12:36:24Z</time>
      </trkpt>
      <trkpt lat="48.21074" lon="3.26597">
        <ele>65</ele>
        <time>2013-08-03T12:36:29Z</time>
      </trkpt>
      <trkpt lat="48.21069" lon="3.26598">
        <ele>65</ele>
        <time>2013-08-03T12:36:33Z</time>
      </trkpt>
      <trkpt lat="48.21064" lon="3.26598">
        <ele>65</ele>
        <time>2013-08-03T12:36:38Z</time>
      </trkpt>
      <trkpt lat="48.2106" lon="3.26595">
        <ele>65</ele>
        <time>2013-08-03T12:36:42Z</time>
      </trkpt>
      <trkpt lat="48.21055" lon="3.26594">
        <ele>65</ele>
        <time>2013-08-03T12:36:46Z</time>
      </trkpt>
      <trkpt lat="48.2105" lon="3.26594">
        <ele>65</ele>
        <time>2013-08-03T12:36:52Z</time>
      </trkpt>
      <trkpt lat="48.21043" lon="3.2659">
        <ele>65</ele>
        <time>2013-08-03T12:37:02Z</time>
      </trkpt>
      <trkpt lat="48.21039" lon="3.26587">
        <ele>65</ele>
        <time>2013-08-03T12:37:06Z</time>
      </trkpt>
      <trkpt lat="48.21034" lon="3.26586">
        <ele>65</ele>
        <time>2013-08-03T12:37:11Z</time>
      </trkpt>
      <trkpt lat="48.21029" lon="3.26585">
        <ele>65</ele>
        <time>2013-08-03T12:37:14Z</time>
      </trkpt>
      <trkpt lat="48.21023" lon="3.26585">
        <ele>65</ele>
        <time>2013-08-03T12:37:17Z</time>
      </trkpt>
      <trkpt lat="48.21019" lon="3.2658">
        <ele>66</ele>
        <time>2013-08-03T12:37:21Z</time>
      </trkpt>
      <trkpt lat="48.21014" lon="3.26579">
        <ele>66</ele>
        <time>2013-08-03T12:37:25Z</time>
      </trkpt>
      <trkpt lat="48.2101" lon="3.26578">
        <ele>65</ele>
        <time>2013-08-03T12:37:29Z</time>
      </trkpt>
      <trkpt lat="48.21005" lon="3.2658">
        <ele>65</ele>
        <time>2013-08-03T12:37:33Z</time>
      </trkpt>
      <trkpt lat="48.21" lon="3.26581">
        <ele>65</ele>
        <time>2013-08-03T12:37:37Z</time>
      </trkpt>
      <trkpt lat="48.20995" lon="3.26584">
        <ele>65</ele>
        <time>2013-08-03T12:37:40Z</time>
      </trkpt>
      <trkpt lat="48.2099" lon="3.26585">
        <ele>65</ele>
        <time>2013-08-03T12:37:44Z</time>
      </trkpt>
      <trkpt lat="48.20986" lon="3.26583">
        <ele>65</ele>
        <time>2013-08-03T12:37:48Z</time>
      </trkpt>
      <trkpt lat="48.2098" lon="3.26581">
        <ele>65</ele>
        <time>2013-08-03T12:37:53Z</time>
      </trkpt>
      <trkpt lat="48.20974" lon="3.2658">
        <ele>65</ele>
        <time>2013-08-03T12:37:57Z</time>
      </trkpt>
      <trkpt lat="48.20969" lon="3.26578">
        <ele>65</ele>
        <time>2013-08-03T12:38:01Z</time>
      </trkpt>
      <trkpt lat="48.20964" lon="3.26577">
        <ele>65</ele>
        <time>2013-08-03T12:38:05Z</time>
      </trkpt>
      <trkpt lat="48.20959" lon="3.26577">
        <ele>65</ele>
        <time>2013-08-03T12:38:12Z</time>
      </trkpt>
      <trkpt lat="48.20954" lon="3.26577">
        <ele>65</ele>
        <time>2013-08-03T12:38:16Z</time>
      </trkpt>
      <trkpt lat="48.20949" lon="3.26574">
        <ele>65</ele>
        <time>2013-08-03T12:38:19Z</time>
      </trkpt>
      <trkpt lat="48.20945" lon="3.26572">
        <ele>65</ele>
        <time>2013-08-03T12:38:26Z</time>
      </trkpt>
      <trkpt lat="48.2094" lon="3.26575">
        <ele>65</ele>
        <time>2013-08-03T12:38:29Z</time>
      </trkpt>
      <trkpt lat="48.20935" lon="3.26576">
        <ele>65</ele>
        <time>2013-08-03T12:38:33Z</time>
      </trkpt>
      <trkpt lat="48.2093" lon="3.26574">
        <ele>65</ele>
        <time>2013-08-03T12:38:38Z</time>
      </trkpt>
      <trkpt lat="48.20926" lon="3.26573">
        <ele>65</ele>
        <time>2013-08-03T12:38:42Z</time>
      </trkpt>
      <trkpt lat="48.20921" lon="3.26573">
        <ele>65</ele>
        <time>2013-08-03T12:38:46Z</time>
      </trkpt>
      <trkpt lat="48.20916" lon="3.26573">
        <ele>65</ele>
        <time>2013-08-03T12:38:54Z</time>
      </trkpt>
      <trkpt lat="48.20911" lon="3.26574">
        <ele>65</ele>
        <time>2013-08-03T12:38:59Z</time>
      </trkpt>
      <trkpt lat="48.20906" lon="3.26576">
        <ele>65</ele>
        <time>2013-08-03T12:39:03Z</time>
      </trkpt>
      <trkpt lat="48.20903" lon="3.26581">
        <ele>65</ele>
        <time>2013-08-03T12:39:06Z</time>
      </trkpt>
      <trkpt lat="48.20898" lon="3.26581">
        <ele>65</ele>
        <time>2013-08-03T12:39:10Z</time>
      </trkpt>
      <trkpt lat="48.20892" lon="3.26582">
        <ele>65</ele>
        <time>2013-08-03T12:39:15Z</time>
      </trkpt>
      <trkpt lat="48.20887" lon="3.26585">
        <ele>65</ele>
        <time>2013-08-03T12:39:18Z</time>
      </trkpt>
      <trkpt lat="48.20883" lon="3.26588">
        <ele>65</ele>
        <time>2013-08-03T12:39:21Z</time>
      </trkpt>
      <trkpt lat="48.20878" lon="3.26586">
        <ele>65</ele>
        <time>2013-08-03T12:39:29Z</time>
      </trkpt>
      <trkpt lat="48.20873" lon="3.26586">
        <ele>65</ele>
        <time>2013-08-03T12:39:33Z</time>
      </trkpt>
      <trkpt lat="48.20869" lon="3.26587">
        <ele>65</ele>
        <time>2013-08-03T12:39:37Z</time>
      </trkpt>
      <trkpt lat="48.20864" lon="3.26587">
        <ele>65</ele>
        <time>2013-08-03T12:39:42Z</time>
      </trkpt>
      <trkpt lat="48.20859" lon="3.26587">
        <ele>65</ele>
        <time>2013-08-03T12:39:46Z</time>
      </trkpt>
      <trkpt lat="48.20854" lon="3.26588">
        <ele>65</ele>
        <time>2013-08-03T12:39:50Z</time>
      </trkpt>
      <trkpt lat="48.20849" lon="3.2659">
        <ele>65</ele>
        <time>2013-08-03T12:39:55Z</time>
      </trkpt>
      <trkpt lat="48.20844" lon="3.2659">
        <ele>65</ele>
        <time>2013-08-03T12:40:00Z</time>
      </trkpt>
      <trkpt lat="48.20838" lon="3.2659">
        <ele>65</ele>
        <time>2013-08-03T12:40:04Z</time>
      </trkpt>
      <trkpt lat="48.20833" lon="3.2659">
        <ele>65</ele>
        <time>2013-08-03T12:40:08Z</time>
      </trkpt>
      <trkpt lat="48.20828" lon="3.26591">
        <ele>65</ele>
        <time>2013-08-03T12:40:14Z</time>
      </trkpt>
      <trkpt lat="48.20822" lon="3.26593">
        <ele>65</ele>
        <time>2013-08-03T12:40:19Z</time>
      </trkpt>
      <trkpt lat="48.20817" lon="3.26594">
        <ele>65</ele>
        <time>2013-08-03T12:40:23Z</time>
      </trkpt>
      <trkpt lat="48.20812" lon="3.26595">
        <ele>65</ele>
        <time>2013-08-03T12:40:27Z</time>
      </trkpt>
      <trkpt lat="48.20806" lon="3.26595">
        <ele>65</ele>
        <time>2013-08-03T12:40:32Z</time>
      </trkpt>
      <trkpt lat="48.20801" lon="3.26596">
        <ele>65</ele>
        <time>2013-08-03T12:40:37Z</time>
      </trkpt>
      <trkpt lat="48.20796" lon="3.26597">
        <ele>65</ele>
        <time>2013-08-03T12:40:41Z</time>
      </trkpt>
      <trkpt lat="48.20792" lon="3.26598">
        <ele>65</ele>
        <time>2013-08-03T12:40:45Z</time>
      </trkpt>
      <trkpt lat="48.20787" lon="3.266">
        <ele>65</ele>
        <time>2013-08-03T12:40:50Z</time>
      </trkpt>
      <trkpt lat="48.20781" lon="3.26601">
        <ele>65</ele>
        <time>2013-08-03T12:40:55Z</time>
      </trkpt>
      <trkpt lat="48.20777" lon="3.266">
        <ele>65</ele>
        <time>2013-08-03T12:40:59Z</time>
      </trkpt>
      <trkpt lat="48.20774" lon="3.26601">
        <ele>65</ele>
        <time>2013-08-03T12:41:21Z</time>
      </trkpt>
      <trkpt lat="48.2077" lon="3.266">
        <ele>65</ele>
        <time>2013-08-03T12:41:26Z</time>
      </trkpt>
      <trkpt lat="48.20765" lon="3.266">
        <ele>64</ele>
        <time>2013-08-03T12:41:30Z</time>
      </trkpt>
      <trkpt lat="48.20761" lon="3.26602">
        <ele>64</ele>
        <time>2013-08-03T12:41:35Z</time>
      </trkpt>
      <trkpt lat="48.20756" lon="3.26602">
        <ele>64</ele>
        <time>2013-08-03T12:41:39Z</time>
      </trkpt>
      <trkpt lat="48.20751" lon="3.26603">
        <ele>64</ele>
        <time>2013-08-03T12:41:43Z</time>
      </trkpt>
      <trkpt lat="48.20747" lon="3.26606">
        <ele>65</ele>
        <time>2013-08-03T12:41:47Z</time>
      </trkpt>
      <trkpt lat="48.20742" lon="3.26609">
        <ele>65</ele>
        <time>2013-08-03T12:41:53Z</time>
      </trkpt>
      <trkpt lat="48.20737" lon="3.2661">
        <ele>65</ele>
        <time>2013-08-03T12:41:58Z</time>
      </trkpt>
      <trkpt lat="48.20732" lon="3.2661">
        <ele>65</ele>
        <time>2013-08-03T12:42:02Z</time>
      </trkpt>
      <trkpt lat="48.20727" lon="3.26611">
        <ele>65</ele>
        <time>2013-08-03T12:42:05Z</time>
      </trkpt>
      <trkpt lat="48.20723" lon="3.26613">
        <ele>65</ele>
        <time>2013-08-03T12:42:09Z</time>
      </trkpt>
      <trkpt lat="48.20717" lon="3.26615">
        <ele>65</ele>
        <time>2013-08-03T12:42:13Z</time>
      </trkpt>
      <trkpt lat="48.20713" lon="3.26618">
        <ele>65</ele>
        <time>2013-08-03T12:42:17Z</time>
      </trkpt>
      <trkpt lat="48.20708" lon="3.26618">
        <ele>65</ele>
        <time>2013-08-03T12:42:22Z</time>
      </trkpt>
      <trkpt lat="48.20703" lon="3.26622">
        <ele>65</ele>
        <time>2013-08-03T12:42:28Z</time>
      </trkpt>
      <trkpt lat="48.20697" lon="3.26625">
        <ele>65</ele>
        <time>2013-08-03T12:42:32Z</time>
      </trkpt>
      <trkpt lat="48.20692" lon="3.26627">
        <ele>65</ele>
        <time>2013-08-03T12:42:36Z</time>
      </trkpt>
      <trkpt lat="48.20688" lon="3.2663">
        <ele>65</ele>
        <time>2013-08-03T12:42:40Z</time>
      </trkpt>
      <trkpt lat="48.20683" lon="3.26632">
        <ele>65</ele>
        <time>2013-08-03T12:42:45Z</time>
      </trkpt>
      <trkpt lat="48.2068" lon="3.26636">
        <ele>65</ele>
        <time>2013-08-03T12:42:50Z</time>
      </trkpt>
      <trkpt lat="48.20677" lon="3.26637">
        <ele>65</ele>
        <time>2013-08-03T12:42:57Z</time>
      </trkpt>
      <trkpt lat="48.20672" lon="3.26638">
        <ele>65</ele>
        <time>2013-08-03T12:43:07Z</time>
      </trkpt>
      <trkpt lat="48.20667" lon="3.2664">
        <ele>65</ele>
        <time>2013-08-03T12:43:11Z</time>
      </trkpt>
      <trkpt lat="48.20661" lon="3.2664">
        <ele>66</ele>
        <time>2013-08-03T12:43:16Z</time>
      </trkpt>
      <trkpt lat="48.20656" lon="3.26641">
        <ele>66</ele>
        <time>2013-08-03T12:43:20Z</time>
      </trkpt>
      <trkpt lat="48.20651" lon="3.26643">
        <ele>66</ele>
        <time>2013-08-03T12:43:25Z</time>
      </trkpt>
      <trkpt lat="48.20647" lon="3.26645">
        <ele>66</ele>
        <time>2013-08-03T12:43:29Z</time>
      </trkpt>
      <trkpt lat="48.20642" lon="3.26645">
        <ele>66</ele>
        <time>2013-08-03T12:43:34Z</time>
      </trkpt>
      <trkpt lat="48.20637" lon="3.26648">
        <ele>66</ele>
        <time>2013-08-03T12:43:39Z</time>
      </trkpt>
      <trkpt lat="48.20632" lon="3.26647">
        <ele>66</ele>
        <time>2013-08-03T12:43:44Z</time>
      </trkpt>
      <trkpt lat="48.20627" lon="3.26648">
        <ele>66</ele>
        <time>2013-08-03T12:43:47Z</time>
      </trkpt>
      <trkpt lat="48.2062" lon="3.26649">
        <ele>66</ele>
        <time>2013-08-03T12:43:55Z</time>
      </trkpt>
      <trkpt lat="48.20615" lon="3.2665">
        <ele>66</ele>
        <time>2013-08-03T12:43:58Z</time>
      </trkpt>
      <trkpt lat="48.2061" lon="3.26652">
        <ele>66</ele>
        <time>2013-08-03T12:44:01Z</time>
      </trkpt>
      <trkpt lat="48.20605" lon="3.26656">
        <ele>66</ele>
        <time>2013-08-03T12:44:04Z</time>
      </trkpt>
      <trkpt lat="48.20601" lon="3.26658">
        <ele>66</ele>
        <time>2013-08-03T12:44:08Z</time>
      </trkpt>
      <trkpt lat="48.20597" lon="3.26664">
        <ele>66</ele>
        <time>2013-08-03T12:44:13Z</time>
      </trkpt>
      <trkpt lat="48.20592" lon="3.26665">
        <ele>66</ele>
        <time>2013-08-03T12:44:18Z</time>
      </trkpt>
      <trkpt lat="48.20588" lon="3.26666">
        <ele>66</ele>
        <time>2013-08-03T12:44:21Z</time>
      </trkpt>
      <trkpt lat="48.20582" lon="3.26668">
        <ele>66</ele>
        <time>2013-08-03T12:44:25Z</time>
      </trkpt>
      <trkpt lat="48.20577" lon="3.26669">
        <ele>66</ele>
        <time>2013-08-03T12:44:29Z</time>
      </trkpt>
      <trkpt lat="48.20572" lon="3.2667">
        <ele>66</ele>
        <time>2013-08-03T12:44:35Z</time>
      </trkpt>
      <trkpt lat="48.20568" lon="3.26675">
        <ele>65</ele>
        <time>2013-08-03T12:44:38Z</time>
      </trkpt>
      <trkpt lat="48.20563" lon="3.26676">
        <ele>65</ele>
        <time>2013-08-03T12:44:44Z</time>
      </trkpt>
      <trkpt lat="48.20559" lon="3.26672">
        <ele>65</ele>
        <time>2013-08-03T12:44:49Z</time>
      </trkpt>
      <trkpt lat="48.20554" lon="3.26674">
        <ele>65</ele>
        <time>2013-08-03T12:44:53Z</time>
      </trkpt>
      <trkpt lat="48.20549" lon="3.26674">
        <ele>65</ele>
        <time>2013-08-03T12:44:56Z</time>
      </trkpt>
      <trkpt lat="48.20544" lon="3.26675">
        <ele>65</ele>
        <time>2013-08-03T12:44:59Z</time>
      </trkpt>
      <trkpt lat="48.20539" lon="3.26679">
        <ele>65</ele>
        <time>2013-08-03T12:45:03Z</time>
      </trkpt>
      <trkpt lat="48.20535" lon="3.26682">
        <ele>65</ele>
        <time>2013-08-03T12:45:07Z</time>
      </trkpt>
      <trkpt lat="48.20531" lon="3.26684">
        <ele>65</ele>
        <time>2013-08-03T12:45:12Z</time>
      </trkpt>
      <trkpt lat="48.20525" lon="3.26688">
        <ele>65</ele>
        <time>2013-08-03T12:45:17Z</time>
      </trkpt>
      <trkpt lat="48.2052" lon="3.2669">
        <ele>65</ele>
        <time>2013-08-03T12:45:21Z</time>
      </trkpt>
      <trkpt lat="48.20515" lon="3.26693">
        <ele>65</ele>
        <time>2013-08-03T12:45:25Z</time>
      </trkpt>
      <trkpt lat="48.20511" lon="3.26698">
        <ele>65</ele>
        <time>2013-08-03T12:45:29Z</time>
      </trkpt>
      <trkpt lat="48.20507" lon="3.26702">
        <ele>65</ele>
        <time>2013-08-03T12:45:33Z</time>
      </trkpt>
      <trkpt lat="48.20502" lon="3.26704">
        <ele>65</ele>
        <time>2013-08-03T12:45:41Z</time>
      </trkpt>
      <trkpt lat="48.205" lon="3.26712">
        <ele>65</ele>
        <time>2013-08-03T12:45:52Z</time>
      </trkpt>
      <trkpt lat="48.20497" lon="3.26712">
        <ele>65</ele>
        <time>2013-08-03T12:45:58Z</time>
      </trkpt>
      <trkpt lat="48.20493" lon="3.26708">
        <ele>65</ele>
        <time>2013-08-03T12:46:03Z</time>
      </trkpt>
      <trkpt lat="48.20488" lon="3.2671">
        <ele>65</ele>
        <time>2013-08-03T12:46:08Z</time>
      </trkpt>
      <trkpt lat="48.20483" lon="3.26712">
        <ele>65</ele>
        <time>2013-08-03T12:46:13Z</time>
      </trkpt>
      <trkpt lat="48.20478" lon="3.26711">
        <ele>65</ele>
        <time>2013-08-03T12:46:17Z</time>
      </trkpt>
      <trkpt lat="48.20475" lon="3.26714">
        <ele>65</ele>
        <time>2013-08-03T12:46:22Z</time>
      </trkpt>
      <trkpt lat="48.20469" lon="3.26717">
        <ele>65</ele>
        <time>2013-08-03T12:46:27Z</time>
      </trkpt>
      <trkpt lat="48.20465" lon="3.26721">
        <ele>65</ele>
        <time>2013-08-03T12:46:31Z</time>
      </trkpt>
      <trkpt lat="48.20461" lon="3.26726">
        <ele>65</ele>
        <time>2013-08-03T12:46:36Z</time>
      </trkpt>
      <trkpt lat="48.20457" lon="3.26728">
        <ele>65</ele>
        <time>2013-08-03T12:46:41Z</time>
      </trkpt>
      <trkpt lat="48.20452" lon="3.26731">
        <ele>65</ele>
        <time>2013-08-03T12:46:46Z</time>
      </trkpt>
      <trkpt lat="48.20448" lon="3.26735">
        <ele>65</ele>
        <time>2013-08-03T12:46:51Z</time>
      </trkpt>
      <trkpt lat="48.20443" lon="3.26739">
        <ele>65</ele>
        <time>2013-08-03T12:46:55Z</time>
      </trkpt>
      <trkpt lat="48.20439" lon="3.26741">
        <ele>65</ele>
        <time>2013-08-03T12:46:59Z</time>
      </trkpt>
      <trkpt lat="48.20437" lon="3.26742">
        <ele>65</ele>
        <time>2013-08-03T12:47:05Z</time>
      </trkpt>
      <trkpt lat="48.20429" lon="3.26743">
        <ele>65</ele>
        <time>2013-08-03T12:47:17Z</time>
      </trkpt>
      <trkpt lat="48.20425" lon="3.26746">
        <ele>65</ele>
        <time>2013-08-03T12:47:21Z</time>
      </trkpt>
      <trkpt lat="48.2042" lon="3.26749">
        <ele>65</ele>
        <time>2013-08-03T12:47:25Z</time>
      </trkpt>
      <trkpt lat="48.20414" lon="3.26755">
        <ele>65</ele>
        <time>2013-08-03T12:47:28Z</time>
      </trkpt>
      <trkpt lat="48.20409" lon="3.2676">
        <ele>65</ele>
        <time>2013-08-03T12:47:31Z</time>
      </trkpt>
      <trkpt lat="48.20406" lon="3.26765">
        <ele>65</ele>
        <time>2013-08-03T12:47:37Z</time>
      </trkpt>
      <trkpt lat="48.20401" lon="3.26769">
        <ele>65</ele>
        <time>2013-08-03T12:47:44Z</time>
      </trkpt>
      <trkpt lat="48.20397" lon="3.26772">
        <ele>65</ele>
        <time>2013-08-03T12:47:47Z</time>
      </trkpt>
      <trkpt lat="48.20392" lon="3.26776">
        <ele>65</ele>
        <time>2013-08-03T12:47:50Z</time>
      </trkpt>
      <trkpt lat="48.20387" lon="3.26781">
        <ele>65</ele>
        <time>2013-08-03T12:47:53Z</time>
      </trkpt>
      <trkpt lat="48.20383" lon="3.26786">
        <ele>65</ele>
        <time>2013-08-03T12:47:57Z</time>
      </trkpt>
      <trkpt lat="48.2038" lon="3.26792">
        <ele>65</ele>
        <time>2013-08-03T12:48:02Z</time>
      </trkpt>
      <trkpt lat="48.20375" lon="3.26796">
        <ele>65</ele>
        <time>2013-08-03T12:48:07Z</time>
      </trkpt>
      <trkpt lat="48.20371" lon="3.268">
        <ele>65</ele>
        <time>2013-08-03T12:48:11Z</time>
      </trkpt>
      <trkpt lat="48.20365" lon="3.26806">
        <ele>65</ele>
        <time>2013-08-03T12:48:22Z</time>
      </trkpt>
      <trkpt lat="48.20362" lon="3.26812">
        <ele>65</ele>
        <time>2013-08-03T12:48:27Z</time>
      </trkpt>
      <trkpt lat="48.20358" lon="3.2682">
        <ele>65</ele>
        <time>2013-08-03T12:48:31Z</time>
      </trkpt>
      <trkpt lat="48.20353" lon="3.26823">
        <ele>65</ele>
        <time>2013-08-03T12:48:35Z</time>
      </trkpt>
      <trkpt lat="48.20348" lon="3.26823">
        <ele>65</ele>
        <time>2013-08-03T12:48:39Z</time>
      </trkpt>
      <trkpt lat="48.20344" lon="3.26823">
        <ele>65</ele>
        <time>2013-08-03T12:48:44Z</time>
      </trkpt>
      <trkpt lat="48.20339" lon="3.26827">
        <ele>64</ele>
        <time>2013-08-03T12:48:50Z</time>
      </trkpt>
      <trkpt lat="48.20334" lon="3.26829">
        <ele>64</ele>
        <time>2013-08-03T12:48:53Z</time>
      </trkpt>
      <trkpt lat="48.2033" lon="3.26831">
        <ele>64</ele>
        <time>2013-08-03T12:48:55Z</time>
      </trkpt>
      <trkpt lat="48.20325" lon="3.26833">
        <ele>64</ele>
        <time>2013-08-03T12:48:57Z</time>
      </trkpt>
      <trkpt lat="48.20321" lon="3.26835">
        <ele>65</ele>
        <time>2013-08-03T12:48:59Z</time>
      </trkpt>
      <trkpt lat="48.20315" lon="3.2684">
        <ele>65</ele>
        <time>2013-08-03T12:49:02Z</time>
      </trkpt>
      <trkpt lat="48.20312" lon="3.26842">
        <ele>65</ele>
        <time>2013-08-03T12:49:08Z</time>
      </trkpt>
      <trkpt lat="48.20308" lon="3.26841">
        <ele>65</ele>
        <time>2013-08-03T12:49:24Z</time>
      </trkpt>
      <trkpt lat="48.20304" lon="3.26842">
        <ele>65</ele>
        <time>2013-08-03T12:50:05Z</time>
      </trkpt>
      <trkpt lat="48.20299" lon="3.26845">
        <ele>65</ele>
        <time>2013-08-03T12:50:09Z</time>
      </trkpt>
      <trkpt lat="48.20294" lon="3.26848">
        <ele>65</ele>
        <time>2013-08-03T12:50:16Z</time>
      </trkpt>
      <trkpt lat="48.20289" lon="3.26844">
        <ele>65</ele>
        <time>2013-08-03T12:50:22Z</time>
      </trkpt>
      <trkpt lat="48.20284" lon="3.26844">
        <ele>65</ele>
        <time>2013-08-03T12:50:26Z</time>
      </trkpt>
      <trkpt lat="48.20279" lon="3.26847">
        <ele>65</ele>
        <time>2013-08-03T12:50:56Z</time>
      </trkpt>
      <trkpt lat="48.20275" lon="3.26853">
        <ele>65</ele>
        <time>2013-08-03T12:51:01Z</time>
      </trkpt>
      <trkpt lat="48.20272" lon="3.26858">
        <ele>65</ele>
        <time>2013-08-03T12:51:06Z</time>
      </trkpt>
      <trkpt lat="48.20268" lon="3.26862">
        <ele>65</ele>
        <time>2013-08-03T12:51:13Z</time>
      </trkpt>
      <trkpt lat="48.20264" lon="3.26866">
        <ele>65</ele>
        <time>2013-08-03T12:51:17Z</time>
      </trkpt>
      <trkpt lat="48.2026" lon="3.2687">
        <ele>65</ele>
        <time>2013-08-03T12:51:22Z</time>
      </trkpt>
      <trkpt lat="48.20255" lon="3.26873">
        <ele>66</ele>
        <time>2013-08-03T12:51:27Z</time>
      </trkpt>
      <trkpt lat="48.2025" lon="3.26875">
        <ele>66</ele>
        <time>2013-08-03T12:51:31Z</time>
      </trkpt>
      <trkpt lat="48.20246" lon="3.26879">
        <ele>66</ele>
        <time>2013-08-03T12:51:37Z</time>
      </trkpt>
      <trkpt lat="48.20241" lon="3.26879">
        <ele>66</ele>
        <time>2013-08-03T12:51:42Z</time>
      </trkpt>
      <trkpt lat="48.20236" lon="3.26877">
        <ele>66</ele>
        <time>2013-08-03T12:51:46Z</time>
      </trkpt>
      <trkpt lat="48.20231" lon="3.26879">
        <ele>66</ele>
        <time>2013-08-03T12:51:52Z</time>
      </trkpt>
      <trkpt lat="48.20227" lon="3.26883">
        <ele>66</ele>
        <time>2013-08-03T12:51:56Z</time>
      </trkpt>
      <trkpt lat="48.20222" lon="3.26886">
        <ele>66</ele>
        <time>2013-08-03T12:51:59Z</time>
      </trkpt>
      <trkpt lat="48.20218" lon="3.2689">
        <ele>66</ele>
        <time>2013-08-03T12:52:04Z</time>
      </trkpt>
      <trkpt lat="48.20214" lon="3.26895">
        <ele>66</ele>
        <time>2013-08-03T12:52:08Z</time>
      </trkpt>
      <trkpt lat="48.2021" lon="3.26898">
        <ele>66</ele>
        <time>2013-08-03T12:52:12Z</time>
      </trkpt>
      <trkpt lat="48.20206" lon="3.26903">
        <ele>65</ele>
        <time>2013-08-03T12:52:16Z</time>
      </trkpt>
      <trkpt lat="48.20201" lon="3.26906">
        <ele>65</ele>
        <time>2013-08-03T12:52:21Z</time>
      </trkpt>
      <trkpt lat="48.20196" lon="3.26909">
        <ele>65</ele>
        <time>2013-08-03T12:52:27Z</time>
      </trkpt>
      <trkpt lat="48.20191" lon="3.26908">
        <ele>65</ele>
        <time>2013-08-03T12:52:34Z</time>
      </trkpt>
      <trkpt lat="48.20185" lon="3.2691">
        <ele>65</ele>
        <time>2013-08-03T12:52:38Z</time>
      </trkpt>
      <trkpt lat="48.20181" lon="3.26913">
        <ele>65</ele>
        <time>2013-08-03T12:52:41Z</time>
      </trkpt>
      <trkpt lat="48.20176" lon="3.26916">
        <ele>65</ele>
        <time>2013-08-03T12:52:44Z</time>
      </trkpt>
      <trkpt lat="48.20171" lon="3.26915">
        <ele>65</ele>
        <time>2013-08-03T12:52:48Z</time>
      </trkpt>
      <trkpt lat="48.20165" lon="3.26916">
        <ele>65</ele>
        <time>2013-08-03T12:52:52Z</time>
      </trkpt>
      <trkpt lat="48.20161" lon="3.26918">
        <ele>65</ele>
        <time>2013-08-03T12:52:55Z</time>
      </trkpt>
      <trkpt lat="48.20156" lon="3.26922">
        <ele>65</ele>
        <time>2013-08-03T12:52:59Z</time>
      </trkpt>
      <trkpt lat="48.20153" lon="3.26928">
        <ele>65</ele>
        <time>2013-08-03T12:53:03Z</time>
      </trkpt>
      <trkpt lat="48.20151" lon="3.26933">
        <ele>65</ele>
        <time>2013-08-03T12:53:07Z</time>
      </trkpt>
      <trkpt lat="48.20142" lon="3.26941">
        <ele>65</ele>
        <time>2013-08-03T12:53:22Z</time>
      </trkpt>
      <trkpt lat="48.20137" lon="3.26941">
        <ele>65</ele>
        <time>2013-08-03T12:53:27Z</time>
      </trkpt>
      <trkpt lat="48.20132" lon="3.26945">
        <ele>65</ele>
        <time>2013-08-03T12:53:33Z</time>
      </trkpt>
      <trkpt lat="48.20127" lon="3.2695">
        <ele>65</ele>
        <time>2013-08-03T12:53:38Z</time>
      </trkpt>
      <trkpt lat="48.20122" lon="3.26951">
        <ele>65</ele>
        <time>2013-08-03T12:53:45Z</time>
      </trkpt>
      <trkpt lat="48.20119" lon="3.26955">
        <ele>65</ele>
        <time>2013-08-03T12:53:49Z</time>
      </trkpt>
      <trkpt lat="48.20113" lon="3.26958">
        <ele>65</ele>
        <time>2013-08-03T12:53:53Z</time>
      </trkpt>
      <trkpt lat="48.20108" lon="3.2696">
        <ele>65</ele>
        <time>2013-08-03T12:53:57Z</time>
      </trkpt>
      <trkpt lat="48.20105" lon="3.26962">
        <ele>65</ele>
        <time>2013-08-03T12:54:08Z</time>
      </trkpt>
      <trkpt lat="48.201" lon="3.26963">
        <ele>65</ele>
        <time>2013-08-03T12:54:11Z</time>
      </trkpt>
      <trkpt lat="48.20092" lon="3.26965">
        <ele>65</ele>
        <time>2013-08-03T12:54:14Z</time>
      </trkpt>
      <trkpt lat="48.20087" lon="3.26968">
        <ele>65</ele>
        <time>2013-08-03T12:54:16Z</time>
      </trkpt>
      <trkpt lat="48.20083" lon="3.26971">
        <ele>66</ele>
        <time>2013-08-03T12:54:18Z</time>
      </trkpt>
      <trkpt lat="48.20081" lon="3.26978">
        <ele>66</ele>
        <time>2013-08-03T12:54:26Z</time>
      </trkpt>
      <trkpt lat="48.20076" lon="3.26979">
        <ele>66</ele>
        <time>2013-08-03T12:54:32Z</time>
      </trkpt>
      <trkpt lat="48.20071" lon="3.2698">
        <ele>66</ele>
        <time>2013-08-03T12:54:37Z</time>
      </trkpt>
      <trkpt lat="48.20067" lon="3.26984">
        <ele>66</ele>
        <time>2013-08-03T12:54:42Z</time>
      </trkpt>
      <trkpt lat="48.20062" lon="3.26986">
        <ele>66</ele>
        <time>2013-08-03T12:54:46Z</time>
      </trkpt>
      <trkpt lat="48.20056" lon="3.26988">
        <ele>66</ele>
        <time>2013-08-03T12:54:50Z</time>
      </trkpt>
      <trkpt lat="48.20052" lon="3.26992">
        <ele>66</ele>
        <time>2013-08-03T12:54:53Z</time>
      </trkpt>
      <trkpt lat="48.20049" lon="3.26998">
        <ele>66</ele>
        <time>2013-08-03T12:55:00Z</time>
      </trkpt>
      <trkpt lat="48.20045" lon="3.27004">
        <ele>65</ele>
        <time>2013-08-03T12:55:05Z</time>
      </trkpt>
      <trkpt lat="48.20041" lon="3.27008">
        <ele>65</ele>
        <time>2013-08-03T12:55:11Z</time>
      </trkpt>
      <trkpt lat="48.20037" lon="3.27012">
        <ele>65</ele>
        <time>2013-08-03T12:55:16Z</time>
      </trkpt>
      <trkpt lat="48.20032" lon="3.27013">
        <ele>65</ele>
        <time>2013-08-03T12:55:21Z</time>
      </trkpt>
      <trkpt lat="48.20027" lon="3.27017">
        <ele>66</ele>
        <time>2013-08-03T12:55:26Z</time>
      </trkpt>
      <trkpt lat="48.20023" lon="3.2702">
        <ele>66</ele>
        <time>2013-08-03T12:55:30Z</time>
      </trkpt>
      <trkpt lat="48.20018" lon="3.27022">
        <ele>66</ele>
        <time>2013-08-03T12:55:34Z</time>
      </trkpt>
      <trkpt lat="48.20013" lon="3.27023">
        <ele>66</ele>
        <time>2013-08-03T12:55:38Z</time>
      </trkpt>
      <trkpt lat="48.20007" lon="3.27025">
        <ele>66</ele>
        <time>2013-08-03T12:55:42Z</time>
      </trkpt>
      <trkpt lat="48.20003" lon="3.27028">
        <ele>66</ele>
        <time>2013-08-03T12:55:46Z</time>
      </trkpt>
      <trkpt lat="48.19999" lon="3.27031">
        <ele>66</ele>
        <time>2013-08-03T12:55:52Z</time>
      </trkpt>
      <trkpt lat="48.19995" lon="3.27035">
        <ele>66</ele>
        <time>2013-08-03T12:55:57Z</time>
      </trkpt>
      <trkpt lat="48.1999" lon="3.27039">
        <ele>66</ele>
        <time>2013-08-03T12:56:01Z</time>
      </trkpt>
      <trkpt lat="48.19986" lon="3.27043">
        <ele>66</ele>
        <time>2013-08-03T12:56:06Z</time>
      </trkpt>
      <trkpt lat="48.19981" lon="3.27045">
        <ele>66</ele>
        <time>2013-08-03T12:56:11Z</time>
      </trkpt>
      <trkpt lat="48.19976" lon="3.27044">
        <ele>66</ele>
        <time>2013-08-03T12:56:15Z</time>
      </trkpt>
      <trkpt lat="48.19971" lon="3.27045">
        <ele>66</ele>
        <time>2013-08-03T12:56:19Z</time>
      </trkpt>
      <trkpt lat="48.19967" lon="3.2705">
        <ele>66</ele>
        <time>2013-08-03T12:56:25Z</time>
      </trkpt>
      <trkpt lat="48.19964" lon="3.27057">
        <ele>66</ele>
        <time>2013-08-03T12:56:29Z</time>
      </trkpt>
      <trkpt lat="48.19964" lon="3.27061">
        <ele>66</ele>
        <time>2013-08-03T12:56:35Z</time>
      </trkpt>
      <trkpt lat="48.19959" lon="3.27059">
        <ele>66</ele>
        <time>2013-08-03T12:56:40Z</time>
      </trkpt>
      <trkpt lat="48.19954" lon="3.2706">
        <ele>66</ele>
        <time>2013-08-03T12:56:49Z</time>
      </trkpt>
      <trkpt lat="48.19949" lon="3.2706">
        <ele>66</ele>
        <time>2013-08-03T12:56:52Z</time>
      </trkpt>
      <trkpt lat="48.19944" lon="3.27062">
        <ele>66</ele>
        <time>2013-08-03T12:56:55Z</time>
      </trkpt>
      <trkpt lat="48.19938" lon="3.27063">
        <ele>66</ele>
        <time>2013-08-03T12:56:59Z</time>
      </trkpt>
      <trkpt lat="48.19933" lon="3.27063">
        <ele>66</ele>
        <time>2013-08-03T12:57:04Z</time>
      </trkpt>
      <trkpt lat="48.19928" lon="3.27064">
        <ele>66</ele>
        <time>2013-08-03T12:57:08Z</time>
      </trkpt>
      <trkpt lat="48.19923" lon="3.27067">
        <ele>66</ele>
        <time>2013-08-03T12:57:12Z</time>
      </trkpt>
      <trkpt lat="48.19918" lon="3.27069">
        <ele>66</ele>
        <time>2013-08-03T12:57:16Z</time>
      </trkpt>
      <trkpt lat="48.19913" lon="3.27069">
        <ele>66</ele>
        <time>2013-08-03T12:57:20Z</time>
      </trkpt>
      <trkpt lat="48.19908" lon="3.2707">
        <ele>66</ele>
        <time>2013-08-03T12:57:24Z</time>
      </trkpt>
      <trkpt lat="48.19903" lon="3.27074">
        <ele>66</ele>
        <time>2013-08-03T12:57:28Z</time>
      </trkpt>
      <trkpt lat="48.19897" lon="3.27077">
        <ele>66</ele>
        <time>2013-08-03T12:57:32Z</time>
      </trkpt>
      <trkpt lat="48.19892" lon="3.27078">
        <ele>66</ele>
        <time>2013-08-03T12:57:37Z</time>
      </trkpt>
      <trkpt lat="48.19887" lon="3.27082">
        <ele>67</ele>
        <time>2013-08-03T12:57:41Z</time>
      </trkpt>
      <trkpt lat="48.19883" lon="3.27084">
        <ele>67</ele>
        <time>2013-08-03T12:57:45Z</time>
      </trkpt>
      <trkpt lat="48.19877" lon="3.27083">
        <ele>67</ele>
        <time>2013-08-03T12:57:50Z</time>
      </trkpt>
      <trkpt lat="48.19873" lon="3.27084">
        <ele>67</ele>
        <time>2013-08-03T12:57:54Z</time>
      </trkpt>
      <trkpt lat="48.19868" lon="3.27083">
        <ele>67</ele>
        <time>2013-08-03T12:57:58Z</time>
      </trkpt>
      <trkpt lat="48.19863" lon="3.27083">
        <ele>67</ele>
        <time>2013-08-03T12:58:03Z</time>
      </trkpt>
      <trkpt lat="48.19859" lon="3.27086">
        <ele>67</ele>
        <time>2013-08-03T12:58:08Z</time>
      </trkpt>
      <trkpt lat="48.19858" lon="3.27089">
        <ele>67</ele>
        <time>2013-08-03T12:58:14Z</time>
      </trkpt>
      <trkpt lat="48.19852" lon="3.27089">
        <ele>67</ele>
        <time>2013-08-03T12:58:25Z</time>
      </trkpt>
      <trkpt lat="48.19848" lon="3.27089">
        <ele>67</ele>
        <time>2013-08-03T12:58:30Z</time>
      </trkpt>
      <trkpt lat="48.19843" lon="3.27089">
        <ele>67</ele>
        <time>2013-08-03T12:58:33Z</time>
      </trkpt>
      <trkpt lat="48.19838" lon="3.27091">
        <ele>67</ele>
        <time>2013-08-03T12:58:36Z</time>
      </trkpt>
      <trkpt lat="48.19834" lon="3.27094">
        <ele>67</ele>
        <time>2013-08-03T12:58:48Z</time>
      </trkpt>
      <trkpt lat="48.19829" lon="3.27095">
        <ele>67</ele>
        <time>2013-08-03T12:58:52Z</time>
      </trkpt>
      <trkpt lat="48.19824" lon="3.27094">
        <ele>67</ele>
        <time>2013-08-03T12:58:56Z</time>
      </trkpt>
      <trkpt lat="48.19819" lon="3.27097">
        <ele>67</ele>
        <time>2013-08-03T12:59:01Z</time>
      </trkpt>
      <trkpt lat="48.19815" lon="3.27103">
        <ele>67</ele>
        <time>2013-08-03T12:59:06Z</time>
      </trkpt>
      <trkpt lat="48.19813" lon="3.27112">
        <ele>67</ele>
        <time>2013-08-03T12:59:26Z</time>
      </trkpt>
      <trkpt lat="48.19811" lon="3.27121">
        <ele>67</ele>
        <time>2013-08-03T12:59:29Z</time>
      </trkpt>
      <trkpt lat="48.1981" lon="3.27128">
        <ele>67</ele>
        <time>2013-08-03T12:59:31Z</time>
      </trkpt>
      <trkpt lat="48.19807" lon="3.27137">
        <ele>67</ele>
        <time>2013-08-03T12:59:34Z</time>
      </trkpt>
      <trkpt lat="48.19804" lon="3.27143">
        <ele>67</ele>
        <time>2013-08-03T12:59:37Z</time>
      </trkpt>
      <trkpt lat="48.19802" lon="3.27149">
        <ele>67</ele>
        <time>2013-08-03T12:59:40Z</time>
      </trkpt>
      <trkpt lat="48.19798" lon="3.27157">
        <ele>67</ele>
        <time>2013-08-03T12:59:43Z</time>
      </trkpt>
      <trkpt lat="48.19797" lon="3.27164">
        <ele>67</ele>
        <time>2013-08-03T12:59:46Z</time>
      </trkpt>
      <trkpt lat="48.19797" lon="3.27171">
        <ele>67</ele>
        <time>2013-08-03T12:59:51Z</time>
      </trkpt>
      <trkpt lat="48.19799" lon="3.27178">
        <ele>67</ele>
        <time>2013-08-03T12:59:59Z</time>
      </trkpt>
      <trkpt lat="48.19798" lon="3.27186">
        <ele>67</ele>
        <time>2013-08-03T13:00:04Z</time>
      </trkpt>
      <trkpt lat="48.19795" lon="3.27193">
        <ele>67</ele>
        <time>2013-08-03T13:00:07Z</time>
      </trkpt>
      <trkpt lat="48.19793" lon="3.27201">
        <ele>67</ele>
        <time>2013-08-03T13:00:10Z</time>
      </trkpt>
      <trkpt lat="48.19793" lon="3.2721">
        <ele>67</ele>
        <time>2013-08-03T13:00:14Z</time>
      </trkpt>
      <trkpt lat="48.19793" lon="3.27217">
        <ele>67</ele>
        <time>2013-08-03T13:00:18Z</time>
      </trkpt>
      <trkpt lat="48.19794" lon="3.27224">
        <ele>67</ele>
        <time>2013-08-03T13:00:22Z</time>
      </trkpt>
      <trkpt lat="48.19795" lon="3.27232">
        <ele>67</ele>
        <time>2013-08-03T13:00:26Z</time>
      </trkpt>
      <trkpt lat="48.19795" lon="3.27238">
        <ele>67</ele>
        <time>2013-08-03T13:00:30Z</time>
      </trkpt>
      <trkpt lat="48.19793" lon="3.27244">
        <ele>67</ele>
        <time>2013-08-03T13:00:39Z</time>
      </trkpt>
      <trkpt lat="48.19794" lon="3.27251">
        <ele>67</ele>
        <time>2013-08-03T13:00:43Z</time>
      </trkpt>
      <trkpt lat="48.19791" lon="3.27258">
        <ele>66</ele>
        <time>2013-08-03T13:00:47Z</time>
      </trkpt>
      <trkpt lat="48.19791" lon="3.27265">
        <ele>66</ele>
        <time>2013-08-03T13:00:50Z</time>
      </trkpt>
      <trkpt lat="48.19793" lon="3.27272">
        <ele>67</ele>
        <time>2013-08-03T13:00:52Z</time>
      </trkpt>
      <trkpt lat="48.19794" lon="3.27281">
        <ele>67</ele>
        <time>2013-08-03T13:00:55Z</time>
      </trkpt>
      <trkpt lat="48.19794" lon="3.27289">
        <ele>67</ele>
        <time>2013-08-03T13:00:58Z</time>
      </trkpt>
      <trkpt lat="48.19792" lon="3.27295">
        <ele>67</ele>
        <time>2013-08-03T13:01:03Z</time>
      </trkpt>
      <trkpt lat="48.19791" lon="3.27303">
        <ele>66</ele>
        <time>2013-08-03T13:01:09Z</time>
      </trkpt>
      <trkpt lat="48.19789" lon="3.27312">
        <ele>66</ele>
        <time>2013-08-03T13:01:13Z</time>
      </trkpt>
      <trkpt lat="48.19786" lon="3.27318">
        <ele>66</ele>
        <time>2013-08-03T13:01:16Z</time>
      </trkpt>
      <trkpt lat="48.19785" lon="3.27339">
        <ele>67</ele>
        <time>2013-08-03T13:01:22Z</time>
      </trkpt>
      <trkpt lat="48.19773" lon="3.27354">
        <ele>67</ele>
        <time>2013-08-03T13:01:46Z</time>
      </trkpt>
      <trkpt lat="48.19772" lon="3.27363">
        <ele>67</ele>
        <time>2013-08-03T13:01:51Z</time>
      </trkpt>
      <trkpt lat="48.19771" lon="3.27372">
        <ele>67</ele>
        <time>2013-08-03T13:01:56Z</time>
      </trkpt>
      <trkpt lat="48.19771" lon="3.27378">
        <ele>67</ele>
        <time>2013-08-03T13:02:00Z</time>
      </trkpt>
      <trkpt lat="48.19769" lon="3.27385">
        <ele>67</ele>
        <time>2013-08-03T13:02:05Z</time>
      </trkpt>
      <trkpt lat="48.19769" lon="3.27393">
        <ele>67</ele>
        <time>2013-08-03T13:02:09Z</time>
      </trkpt>
      <trkpt lat="48.19769" lon="3.27401">
        <ele>68</ele>
        <time>2013-08-03T13:02:13Z</time>
      </trkpt>
      <trkpt lat="48.19768" lon="3.27409">
        <ele>68</ele>
        <time>2013-08-03T13:02:18Z</time>
      </trkpt>
      <trkpt lat="48.19769" lon="3.27415">
        <ele>68</ele>
        <time>2013-08-03T13:02:22Z</time>
      </trkpt>
      <trkpt lat="48.1977" lon="3.27422">
        <ele>68</ele>
        <time>2013-08-03T13:02:25Z</time>
      </trkpt>
      <trkpt lat="48.1977" lon="3.27429">
        <ele>68</ele>
        <time>2013-08-03T13:02:29Z</time>
      </trkpt>
      <trkpt lat="48.19769" lon="3.27437">
        <ele>68</ele>
        <time>2013-08-03T13:02:34Z</time>
      </trkpt>
      <trkpt lat="48.1977" lon="3.27445">
        <ele>68</ele>
        <time>2013-08-03T13:02:38Z</time>
      </trkpt>
      <trkpt lat="48.19771" lon="3.27452">
        <ele>68</ele>
        <time>2013-08-03T13:02:43Z</time>
      </trkpt>
      <trkpt lat="48.19769" lon="3.2746">
        <ele>68</ele>
        <time>2013-08-03T13:02:47Z</time>
      </trkpt>
      <trkpt lat="48.19767" lon="3.27466">
        <ele>68</ele>
        <time>2013-08-03T13:02:53Z</time>
      </trkpt>
      <trkpt lat="48.19765" lon="3.27472">
        <ele>68</ele>
        <time>2013-08-03T13:02:57Z</time>
      </trkpt>
      <trkpt lat="48.19764" lon="3.27479">
        <ele>68</ele>
        <time>2013-08-03T13:03:00Z</time>
      </trkpt>
      <trkpt lat="48.19764" lon="3.27486">
        <ele>68</ele>
        <time>2013-08-03T13:03:03Z</time>
      </trkpt>
      <trkpt lat="48.19761" lon="3.27493">
        <ele>68</ele>
        <time>2013-08-03T13:03:07Z</time>
      </trkpt>
      <trkpt lat="48.19758" lon="3.27499">
        <ele>68</ele>
        <time>2013-08-03T13:03:11Z</time>
      </trkpt>
      <trkpt lat="48.19755" lon="3.27506">
        <ele>68</ele>
        <time>2013-08-03T13:03:16Z</time>
      </trkpt>
      <trkpt lat="48.19754" lon="3.27513">
        <ele>67</ele>
        <time>2013-08-03T13:03:20Z</time>
      </trkpt>
      <trkpt lat="48.19753" lon="3.27523">
        <ele>67</ele>
        <time>2013-08-03T13:03:30Z</time>
      </trkpt>
      <trkpt lat="48.19758" lon="3.27531">
        <ele>67</ele>
        <time>2013-08-03T13:03:34Z</time>
      </trkpt>
      <trkpt lat="48.1976" lon="3.27538">
        <ele>67</ele>
        <time>2013-08-03T13:03:38Z</time>
      </trkpt>
      <trkpt lat="48.19759" lon="3.27545">
        <ele>66</ele>
        <time>2013-08-03T13:03:41Z</time>
      </trkpt>
      <trkpt lat="48.19758" lon="3.27553">
        <ele>66</ele>
        <time>2013-08-03T13:03:45Z</time>
      </trkpt>
      <trkpt lat="48.19758" lon="3.2756">
        <ele>66</ele>
        <time>2013-08-03T13:03:49Z</time>
      </trkpt>
      <trkpt lat="48.19757" lon="3.27569">
        <ele>66</ele>
        <time>2013-08-03T13:03:52Z</time>
      </trkpt>
      <trkpt lat="48.19756" lon="3.27576">
        <ele>66</ele>
        <time>2013-08-03T13:03:55Z</time>
      </trkpt>
      <trkpt lat="48.19755" lon="3.27584">
        <ele>66</ele>
        <time>2013-08-03T13:03:58Z</time>
      </trkpt>
      <trkpt lat="48.19754" lon="3.27592">
        <ele>66</ele>
        <time>2013-08-03T13:04:02Z</time>
      </trkpt>
      <trkpt lat="48.19753" lon="3.27598">
        <ele>66</ele>
        <time>2013-08-03T13:04:06Z</time>
      </trkpt>
      <trkpt lat="48.19752" lon="3.27605">
        <ele>66</ele>
        <time>2013-08-03T13:04:13Z</time>
      </trkpt>
      <trkpt lat="48.1975" lon="3.27612">
        <ele>66</ele>
        <time>2013-08-03T13:04:19Z</time>
      </trkpt>
      <trkpt lat="48.19749" lon="3.2762">
        <ele>67</ele>
        <time>2013-08-03T13:04:23Z</time>
      </trkpt>
      <trkpt lat="48.19749" lon="3.27628">
        <ele>67</ele>
        <time>2013-08-03T13:04:27Z</time>
      </trkpt>
      <trkpt lat="48.19747" lon="3.27635">
        <ele>67</ele>
        <time>2013-08-03T13:04:32Z</time>
      </trkpt>
      <trkpt lat="48.19745" lon="3.27642">
        <ele>67</ele>
        <time>2013-08-03T13:04:37Z</time>
      </trkpt>
      <trkpt lat="48.19743" lon="3.27647">
        <ele>67</ele>
        <time>2013-08-03T13:04:42Z</time>
      </trkpt>
      <trkpt lat="48.19741" lon="3.27655">
        <ele>67</ele>
        <time>2013-08-03T13:04:48Z</time>
      </trkpt>
      <trkpt lat="48.1974" lon="3.27664">
        <ele>67</ele>
        <time>2013-08-03T13:04:55Z</time>
      </trkpt>
      <trkpt lat="48.19741" lon="3.27672">
        <ele>68</ele>
        <time>2013-08-03T13:04:58Z</time>
      </trkpt>
      <trkpt lat="48.19741" lon="3.27679">
        <ele>68</ele>
        <time>2013-08-03T13:05:01Z</time>
      </trkpt>
      <trkpt lat="48.19744" lon="3.2768">
        <ele>68</ele>
        <time>2013-08-03T13:05:10Z</time>
      </trkpt>
      <trkpt lat="48.19741" lon="3.27686">
        <ele>68</ele>
        <time>2013-08-03T13:05:14Z</time>
      </trkpt>
      <trkpt lat="48.19739" lon="3.27685">
        <ele>68</ele>
        <time>2013-08-03T13:05:20Z</time>
      </trkpt>
      <trkpt lat="48.19739" lon="3.27692">
        <ele>69</ele>
        <time>2013-08-03T13:05:24Z</time>
      </trkpt>
      <trkpt lat="48.19734" lon="3.27696">
        <ele>69</ele>
        <time>2013-08-03T13:05:27Z</time>
      </trkpt>
      <trkpt lat="48.1973" lon="3.277">
        <ele>69</ele>
        <time>2013-08-03T13:05:30Z</time>
      </trkpt>
      <trkpt lat="48.19727" lon="3.27706">
        <ele>69</ele>
        <time>2013-08-03T13:05:34Z</time>
      </trkpt>
      <trkpt lat="48.19724" lon="3.27713">
        <ele>69</ele>
        <time>2013-08-03T13:05:38Z</time>
      </trkpt>
      <trkpt lat="48.19721" lon="3.27718">
        <ele>69</ele>
        <time>2013-08-03T13:05:42Z</time>
      </trkpt>
      <trkpt lat="48.19718" lon="3.27724">
        <ele>70</ele>
        <time>2013-08-03T13:05:48Z</time>
      </trkpt>
      <trkpt lat="48.19715" lon="3.27731">
        <ele>70</ele>
        <time>2013-08-03T13:05:53Z</time>
      </trkpt>
      <trkpt lat="48.19715" lon="3.27739">
        <ele>70</ele>
        <time>2013-08-03T13:05:57Z</time>
      </trkpt>
      <trkpt lat="48.19715" lon="3.27746">
        <ele>70</ele>
        <time>2013-08-03T13:06:01Z</time>
      </trkpt>
      <trkpt lat="48.19715" lon="3.27755">
        <ele>71</ele>
        <time>2013-08-03T13:06:06Z</time>
      </trkpt>
      <trkpt lat="48.19714" lon="3.27761">
        <ele>71</ele>
        <time>2013-08-03T13:06:10Z</time>
      </trkpt>
      <trkpt lat="48.19711" lon="3.27768">
        <ele>71</ele>
        <time>2013-08-03T13:06:15Z</time>
      </trkpt>
      <trkpt lat="48.19712" lon="3.27775">
        <ele>71</ele>
        <time>2013-08-03T13:06:19Z</time>
      </trkpt>
      <trkpt lat="48.19713" lon="3.27783">
        <ele>71</ele>
        <time>2013-08-03T13:06:24Z</time>
      </trkpt>
      <trkpt lat="48.19713" lon="3.2779">
        <ele>71</ele>
        <time>2013-08-03T13:06:28Z</time>
      </trkpt>
      <trkpt lat="48.19714" lon="3.27796">
        <ele>71</ele>
        <time>2013-08-03T13:06:31Z</time>
      </trkpt>
      <trkpt lat="48.19715" lon="3.27805">
        <ele>71</ele>
        <time>2013-08-03T13:06:35Z</time>
      </trkpt>
      <trkpt lat="48.19715" lon="3.27812">
        <ele>71</ele>
        <time>2013-08-03T13:06:39Z</time>
      </trkpt>
      <trkpt lat="48.19714" lon="3.27819">
        <ele>71</ele>
        <time>2013-08-03T13:06:44Z</time>
      </trkpt>
      <trkpt lat="48.19713" lon="3.27826">
        <ele>71</ele>
        <time>2013-08-03T13:06:48Z</time>
      </trkpt>
      <trkpt lat="48.19713" lon="3.27835">
        <ele>72</ele>
        <time>2013-08-03T13:06:52Z</time>
      </trkpt>
      <trkpt lat="48.19715" lon="3.27843">
        <ele>72</ele>
        <time>2013-08-03T13:06:56Z</time>
      </trkpt>
      <trkpt lat="48.19713" lon="3.27849">
        <ele>72</ele>
        <time>2013-08-03T13:07:00Z</time>
      </trkpt>
      <trkpt lat="48.19712" lon="3.27857">
        <ele>72</ele>
        <time>2013-08-03T13:07:05Z</time>
      </trkpt>
      <trkpt lat="48.19712" lon="3.27864">
        <ele>72</ele>
        <time>2013-08-03T13:07:09Z</time>
      </trkpt>
      <trkpt lat="48.19713" lon="3.27872">
        <ele>72</ele>
        <time>2013-08-03T13:07:13Z</time>
      </trkpt>
      <trkpt lat="48.19714" lon="3.27879">
        <ele>72</ele>
        <time>2013-08-03T13:07:16Z</time>
      </trkpt>
      <trkpt lat="48.19715" lon="3.27885">
        <ele>72</ele>
        <time>2013-08-03T13:07:19Z</time>
      </trkpt>
      <trkpt lat="48.19714" lon="3.27893">
        <ele>72</ele>
        <time>2013-08-03T13:07:25Z</time>
      </trkpt>
      <trkpt lat="48.19713" lon="3.279">
        <ele>72</ele>
        <time>2013-08-03T13:07:30Z</time>
      </trkpt>
      <trkpt lat="48.19715" lon="3.27908">
        <ele>72</ele>
        <time>2013-08-03T13:07:35Z</time>
      </trkpt>
      <trkpt lat="48.19719" lon="3.27912">
        <ele>72</ele>
        <time>2013-08-03T13:07:39Z</time>
      </trkpt>
      <trkpt lat="48.19722" lon="3.27918">
        <ele>73</ele>
        <time>2013-08-03T13:07:43Z</time>
      </trkpt>
      <trkpt lat="48.19722" lon="3.27926">
        <ele>73</ele>
        <time>2013-08-03T13:07:47Z</time>
      </trkpt>
      <trkpt lat="48.19722" lon="3.27934">
        <ele>73</ele>
        <time>2013-08-03T13:07:51Z</time>
      </trkpt>
      <trkpt lat="48.19718" lon="3.2794">
        <ele>73</ele>
        <time>2013-08-03T13:07:54Z</time>
      </trkpt>
      <trkpt lat="48.19715" lon="3.27947">
        <ele>73</ele>
        <time>2013-08-03T13:07:59Z</time>
      </trkpt>
      <trkpt lat="48.19715" lon="3.27955">
        <ele>73</ele>
        <time>2013-08-03T13:08:03Z</time>
      </trkpt>
      <trkpt lat="48.19714" lon="3.27963">
        <ele>73</ele>
        <time>2013-08-03T13:08:08Z</time>
      </trkpt>
      <trkpt lat="48.19712" lon="3.2797">
        <ele>73</ele>
        <time>2013-08-03T13:08:12Z</time>
      </trkpt>
      <trkpt lat="48.19712" lon="3.27978">
        <ele>73</ele>
        <time>2013-08-03T13:08:16Z</time>
      </trkpt>
      <trkpt lat="48.19712" lon="3.27985">
        <ele>73</ele>
        <time>2013-08-03T13:08:21Z</time>
      </trkpt>
      <trkpt lat="48.19713" lon="3.27993">
        <ele>73</ele>
        <time>2013-08-03T13:08:25Z</time>
      </trkpt>
      <trkpt lat="48.19715" lon="3.28">
        <ele>73</ele>
        <time>2013-08-03T13:08:29Z</time>
      </trkpt>
      <trkpt lat="48.19716" lon="3.28008">
        <ele>74</ele>
        <time>2013-08-03T13:08:34Z</time>
      </trkpt>
      <trkpt lat="48.19715" lon="3.28014">
        <ele>74</ele>
        <time>2013-08-03T13:08:38Z</time>
      </trkpt>
      <trkpt lat="48.19713" lon="3.28021">
        <ele>74</ele>
        <time>2013-08-03T13:08:43Z</time>
      </trkpt>
      <trkpt lat="48.19714" lon="3.28028">
        <ele>74</ele>
        <time>2013-08-03T13:08:47Z</time>
      </trkpt>
      <trkpt lat="48.19716" lon="3.28035">
        <ele>74</ele>
        <time>2013-08-03T13:08:50Z</time>
      </trkpt>
      <trkpt lat="48.19718" lon="3.28044">
        <ele>74</ele>
        <time>2013-08-03T13:08:57Z</time>
      </trkpt>
      <trkpt lat="48.19721" lon="3.2805">
        <ele>74</ele>
        <time>2013-08-03T13:09:02Z</time>
      </trkpt>
      <trkpt lat="48.19725" lon="3.28056">
        <ele>74</ele>
        <time>2013-08-03T13:09:06Z</time>
      </trkpt>
      <trkpt lat="48.19727" lon="3.28063">
        <ele>74</ele>
        <time>2013-08-03T13:09:11Z</time>
      </trkpt>
      <trkpt lat="48.19731" lon="3.28075">
        <ele>74</ele>
        <time>2013-08-03T13:09:18Z</time>
      </trkpt>
      <trkpt lat="48.19738" lon="3.28094">
        <ele>75</ele>
        <time>2013-08-03T13:09:38Z</time>
      </trkpt>
      <trkpt lat="48.19732" lon="3.28108">
        <ele>75</ele>
        <time>2013-08-03T13:09:45Z</time>
      </trkpt>
      <trkpt lat="48.19728" lon="3.28122">
        <ele>75</ele>
        <time>2013-08-03T13:09:49Z</time>
      </trkpt>
      <trkpt lat="48.19731" lon="3.28135">
        <ele>76</ele>
        <time>2013-08-03T13:09:55Z</time>
      </trkpt>
      <trkpt lat="48.19728" lon="3.28148">
        <ele>76</ele>
        <time>2013-08-03T13:10:03Z</time>
      </trkpt>
      <trkpt lat="48.19724" lon="3.28152">
        <ele>76</ele>
        <time>2013-08-03T13:10:05Z</time>
      </trkpt>
      <trkpt lat="48.1972" lon="3.28167">
        <ele>76</ele>
        <time>2013-08-03T13:10:11Z</time>
      </trkpt>
      <trkpt lat="48.1972" lon="3.28174">
        <ele>77</ele>
        <time>2013-08-03T13:10:15Z</time>
      </trkpt>
      <trkpt lat="48.19721" lon="3.28181">
        <ele>77</ele>
        <time>2013-08-03T13:10:18Z</time>
      </trkpt>
      <trkpt lat="48.19723" lon="3.28187">
        <ele>77</ele>
        <time>2013-08-03T13:10:22Z</time>
      </trkpt>
      <trkpt lat="48.19726" lon="3.282">
        <ele>77</ele>
        <time>2013-08-03T13:10:34Z</time>
      </trkpt>
      <trkpt lat="48.19726" lon="3.28216">
        <ele>77</ele>
        <time>2013-08-03T13:10:41Z</time>
      </trkpt>
      <trkpt lat="48.19727" lon="3.28231">
        <ele>77</ele>
        <time>2013-08-03T13:10:49Z</time>
      </trkpt>
      <trkpt lat="48.19733" lon="3.28242">
        <ele>77</ele>
        <time>2013-08-03T13:10:58Z</time>
      </trkpt>
      <trkpt lat="48.19742" lon="3.28247">
        <ele>78</ele>
        <time>2013-08-03T13:11:05Z</time>
      </trkpt>
      <trkpt lat="48.19746" lon="3.28263">
        <ele>78</ele>
        <time>2013-08-03T13:11:14Z</time>
      </trkpt>
      <trkpt lat="48.19747" lon="3.28279">
        <ele>78</ele>
        <time>2013-08-03T13:11:19Z</time>
      </trkpt>
      <trkpt lat="48.19741" lon="3.28292">
        <ele>77</ele>
        <time>2013-08-03T13:11:25Z</time>
      </trkpt>
      <trkpt lat="48.19737" lon="3.28297">
        <ele>77</ele>
        <time>2013-08-03T13:11:29Z</time>
      </trkpt>
      <trkpt lat="48.19734" lon="3.28303">
        <ele>77</ele>
        <time>2013-08-03T13:11:36Z</time>
      </trkpt>
      <trkpt lat="48.19735" lon="3.2831">
        <ele>78</ele>
        <time>2013-08-03T13:11:42Z</time>
      </trkpt>
      <trkpt lat="48.19736" lon="3.28317">
        <ele>78</ele>
        <time>2013-08-03T13:11:46Z</time>
      </trkpt>
      <trkpt lat="48.19737" lon="3.28325">
        <ele>78</ele>
        <time>2013-08-03T13:11:51Z</time>
      </trkpt>
      <trkpt lat="48.19739" lon="3.28331">
        <ele>78</ele>
        <time>2013-08-03T13:11:54Z</time>
      </trkpt>
      <trkpt lat="48.19738" lon="3.28336">
        <ele>78</ele>
        <time>2013-08-03T13:12:02Z</time>
      </trkpt>
      <trkpt lat="48.19743" lon="3.28337">
        <ele>78</ele>
        <time>2013-08-03T13:12:19Z</time>
      </trkpt>
      <trkpt lat="48.19747" lon="3.28334">
        <ele>78</ele>
        <time>2013-08-03T13:12:22Z</time>
      </trkpt>
      <trkpt lat="48.19753" lon="3.28334">
        <ele>78</ele>
        <time>2013-08-03T13:12:25Z</time>
      </trkpt>
      <trkpt lat="48.19758" lon="3.28335">
        <ele>78</ele>
        <time>2013-08-03T13:12:28Z</time>
      </trkpt>
      <trkpt lat="48.19763" lon="3.28333">
        <ele>78</ele>
        <time>2013-08-03T13:12:32Z</time>
      </trkpt>
      <trkpt lat="48.19779" lon="3.28365">
        <ele>77</ele>
        <time>2013-08-03T13:13:04Z</time>
      </trkpt>
      <trkpt lat="48.19778" lon="3.28372">
        <ele>77</ele>
        <time>2013-08-03T13:13:12Z</time>
      </trkpt>
      <trkpt lat="48.19776" lon="3.28373">
        <ele>77</ele>
        <time>2013-08-03T13:13:18Z</time>
      </trkpt>
      <trkpt lat="48.19773" lon="3.28378">
        <ele>77</ele>
        <time>2013-08-03T13:13:26Z</time>
      </trkpt>
      <trkpt lat="48.19768" lon="3.28372">
        <ele>77</ele>
        <time>2013-08-03T13:13:37Z</time>
      </trkpt>
      <trkpt lat="48.19763" lon="3.28371">
        <ele>77</ele>
        <time>2013-08-03T13:13:41Z</time>
      </trkpt>
      <trkpt lat="48.19764" lon="3.28376">
        <ele>77</ele>
        <time>2013-08-03T13:13:48Z</time>
      </trkpt>
      <trkpt lat="48.19764" lon="3.28386">
        <ele>78</ele>
        <time>2013-08-03T13:14:07Z</time>
      </trkpt>
      <trkpt lat="48.19776" lon="3.28411">
        <ele>78</ele>
        <time>2013-08-03T13:24:10Z</time>
      </trkpt>
      <trkpt lat="48.19767" lon="3.28413">
        <ele>78</ele>
        <time>2013-08-03T13:24:21Z</time>
      </trkpt>
      <trkpt lat="48.19758" lon="3.28411">
        <ele>78</ele>
        <time>2013-08-03T13:24:25Z</time>
      </trkpt>
      <trkpt lat="48.1974" lon="3.28443">
        <ele>77</ele>
        <time>2013-08-03T13:26:57Z</time>
      </trkpt>
      <trkpt lat="48.19745" lon="3.28462">
        <ele>77</ele>
        <time>2013-08-03T13:27:21Z</time>
      </trkpt>
      <trkpt lat="48.19748" lon="3.28475">
        <ele>77</ele>
        <time>2013-08-03T13:27:26Z</time>
      </trkpt>
      <trkpt lat="48.19749" lon="3.28489">
        <ele>78</ele>
        <time>2013-08-03T13:27:37Z</time>
      </trkpt>
      <trkpt lat="48.19755" lon="3.28502">
        <ele>78</ele>
        <time>2013-08-03T13:27:46Z</time>
      </trkpt>
      <trkpt lat="48.19755" lon="3.2851">
        <ele>77</ele>
        <time>2013-08-03T13:27:50Z</time>
      </trkpt>
      <trkpt lat="48.19752" lon="3.28516">
        <ele>77</ele>
        <time>2013-08-03T13:27:54Z</time>
      </trkpt>
      <trkpt lat="48.19752" lon="3.28526">
        <ele>77</ele>
        <time>2013-08-03T13:28:17Z</time>
      </trkpt>
      <trkpt lat="48.19756" lon="3.28531">
        <ele>77</ele>
        <time>2013-08-03T13:28:19Z</time>
      </trkpt>
      <trkpt lat="48.19759" lon="3.28538">
        <ele>77</ele>
        <time>2013-08-03T13:28:22Z</time>
      </trkpt>
      <trkpt lat="48.19757" lon="3.28547">
        <ele>76</ele>
        <time>2013-08-03T13:28:37Z</time>
      </trkpt>
      <trkpt lat="48.19754" lon="3.28548">
        <ele>76</ele>
        <time>2013-08-03T13:29:12Z</time>
      </trkpt>
      <trkpt lat="48.19753" lon="3.2854">
        <ele>77</ele>
        <time>2013-08-03T13:29:25Z</time>
      </trkpt>
      <trkpt lat="48.19757" lon="3.28534">
        <ele>77</ele>
        <time>2013-08-03T13:29:30Z</time>
      </trkpt>
      <trkpt lat="48.19761" lon="3.2853">
        <ele>77</ele>
        <time>2013-08-03T13:29:34Z</time>
      </trkpt>
      <trkpt lat="48.19756" lon="3.28523">
        <ele>77</ele>
        <time>2013-08-03T13:29:39Z</time>
      </trkpt>
      <trkpt lat="48.19753" lon="3.28516">
        <ele>77</ele>
        <time>2013-08-03T13:29:43Z</time>
      </trkpt>
    </trkseg>
  </trk>
  <trk>
    <name><![CDATA[07 Sens => VSY]]></name>
    <extensions>
      <line xmlns="http://www.topografix.com/GPX/gpx_style/0/2">
        <color>00FFFF</color>
        <width>4</width>
      </line>
    </extensions>
    <trkseg>
      <trkpt lat="48.1979" lon="3.2833">
        <ele>77</ele>
      </trkpt>
      <trkpt lat="48.19786" lon="3.28287">
        <ele>77</ele>
      </trkpt>
      <trkpt lat="48.19732" lon="3.28295">
        <ele>77</ele>
      </trkpt>
      <trkpt lat="48.1973" lon="3.28249">
        <ele>77</ele>
      </trkpt>
      <trkpt lat="48.19718" lon="3.28205">
        <ele>77</ele>
      </trkpt>
      <trkpt lat="48.19708" lon="3.28016">
        <ele>74</ele>
      </trkpt>
      <trkpt lat="48.19708" lon="3.27869">
        <ele>72</ele>
      </trkpt>
      <trkpt lat="48.19708" lon="3.27785">
        <ele>71</ele>
      </trkpt>
      <trkpt lat="48.19728" lon="3.27675">
        <ele>69</ele>
      </trkpt>
      <trkpt lat="48.19746" lon="3.27551">
        <ele>66</ele>
      </trkpt>
      <trkpt lat="48.19785" lon="3.27241">
        <ele>67</ele>
      </trkpt>
      <trkpt lat="48.19736" lon="3.27137">
        <ele>66</ele>
      </trkpt>
      <trkpt lat="48.19676" lon="3.26983">
        <ele>66</ele>
      </trkpt>
      <trkpt lat="48.19656" lon="3.26915">
        <ele>66</ele>
      </trkpt>
      <trkpt lat="48.19634" lon="3.2683">
        <ele>66</ele>
      </trkpt>
      <trkpt lat="48.19606" lon="3.26741">
        <ele>66</ele>
      </trkpt>
      <trkpt lat="48.19575" lon="3.26657">
        <ele>66</ele>
      </trkpt>
      <trkpt lat="48.19561" lon="3.26631">
        <ele>66</ele>
      </trkpt>
      <trkpt lat="48.19553" lon="3.26623">
        <ele>66</ele>
      </trkpt>
      <trkpt lat="48.19546" lon="3.26624">
        <ele>66</ele>
      </trkpt>
      <trkpt lat="48.19545" lon="3.26599">
        <ele>66</ele>
      </trkpt>
      <trkpt lat="48.19554" lon="3.26581">
        <ele>67</ele>
      </trkpt>
      <trkpt lat="48.19556" lon="3.26526">
        <ele>67</ele>
      </trkpt>
      <trkpt lat="48.19553" lon="3.26479">
        <ele>68</ele>
      </trkpt>
      <trkpt lat="48.19555" lon="3.26322">
        <ele>72</ele>
      </trkpt>
      <trkpt lat="48.19545" lon="3.26214">
        <ele>79</ele>
      </trkpt>
      <trkpt lat="48.19517" lon="3.26205">
        <ele>79</ele>
      </trkpt>
      <trkpt lat="48.19461" lon="3.26211">
        <ele>78</ele>
      </trkpt>
      <trkpt lat="48.19432" lon="3.26227">
        <ele>77</ele>
      </trkpt>
      <trkpt lat="48.19392" lon="3.26246">
        <ele>76</ele>
      </trkpt>
      <trkpt lat="48.19353" lon="3.26247">
        <ele>75</ele>
      </trkpt>
      <trkpt lat="48.19307" lon="3.26243">
        <ele>74</ele>
      </trkpt>
      <trkpt lat="48.19269" lon="3.26221">
        <ele>74</ele>
      </trkpt>
      <trkpt lat="48.19193" lon="3.26194">
        <ele>74</ele>
      </trkpt>
      <trkpt lat="48.19115" lon="3.2617">
        <ele>75</ele>
      </trkpt>
      <trkpt lat="48.19069" lon="3.26152">
        <ele>80</ele>
      </trkpt>
      <trkpt lat="48.19015" lon="3.26166">
        <ele>80</ele>
      </trkpt>
      <trkpt lat="48.18998" lon="3.26173">
        <ele>78</ele>
      </trkpt>
      <trkpt lat="48.18978" lon="3.26159">
        <ele>81</ele>
      </trkpt>
      <trkpt lat="48.18953" lon="3.26137">
        <ele>83</ele>
      </trkpt>
      <trkpt lat="48.18942" lon="3.26116">
        <ele>84</ele>
      </trkpt>
      <trkpt lat="48.189" lon="3.26112">
        <ele>87</ele>
      </trkpt>
      <trkpt lat="48.18865" lon="3.2612">
        <ele>89</ele>
      </trkpt>
      <trkpt lat="48.18829" lon="3.26102">
        <ele>97</ele>
      </trkpt>
      <trkpt lat="48.18786" lon="3.26073">
        <ele>110</ele>
      </trkpt>
      <trkpt lat="48.18772" lon="3.26051">
        <ele>112</ele>
      </trkpt>
      <trkpt lat="48.18729" lon="3.25941">
        <ele>128</ele>
      </trkpt>
      <trkpt lat="48.18706" lon="3.25907">
        <ele>132</ele>
      </trkpt>
      <trkpt lat="48.18704" lon="3.25897">
        <ele>133</ele>
      </trkpt>
      <trkpt lat="48.18674" lon="3.25876">
        <ele>135</ele>
      </trkpt>
      <trkpt lat="48.18623" lon="3.25761">
        <ele>144</ele>
      </trkpt>
      <trkpt lat="48.18593" lon="3.25699">
        <ele>151</ele>
      </trkpt>
      <trkpt lat="48.1858" lon="3.25691">
        <ele>156</ele>
      </trkpt>
      <trkpt lat="48.18526" lon="3.25684">
        <ele>159</ele>
      </trkpt>
      <trkpt lat="48.18461" lon="3.25675">
        <ele>162</ele>
      </trkpt>
      <trkpt lat="48.18449" lon="3.2568">
        <ele>163</ele>
      </trkpt>
      <trkpt lat="48.1843" lon="3.25703">
        <ele>162</ele>
      </trkpt>
      <trkpt lat="48.18412" lon="3.25699">
        <ele>160</ele>
      </trkpt>
      <trkpt lat="48.18394" lon="3.25683">
        <ele>161</ele>
      </trkpt>
      <trkpt lat="48.18385" lon="3.2567">
        <ele>161</ele>
      </trkpt>
      <trkpt lat="48.1837" lon="3.25669">
        <ele>161</ele>
      </trkpt>
      <trkpt lat="48.18354" lon="3.2568">
        <ele>160</ele>
      </trkpt>
      <trkpt lat="48.18346" lon="3.2569">
        <ele>159</ele>
      </trkpt>
      <trkpt lat="48.18323" lon="3.25697">
        <ele>152</ele>
      </trkpt>
      <trkpt lat="48.18316" lon="3.25716">
        <ele>149</ele>
      </trkpt>
      <trkpt lat="48.18299" lon="3.25717">
        <ele>148</ele>
      </trkpt>
      <trkpt lat="48.18283" lon="3.25731">
        <ele>146</ele>
      </trkpt>
      <trkpt lat="48.18262" lon="3.25753">
        <ele>134</ele>
      </trkpt>
      <trkpt lat="48.18215" lon="3.25788">
        <ele>123</ele>
      </trkpt>
      <trkpt lat="48.18198" lon="3.25814">
        <ele>120</ele>
      </trkpt>
      <trkpt lat="48.18158" lon="3.25814">
        <ele>114</ele>
      </trkpt>
      <trkpt lat="48.18129" lon="3.25819">
        <ele>111</ele>
      </trkpt>
      <trkpt lat="48.18123" lon="3.25817">
        <ele>110</ele>
      </trkpt>
      <trkpt lat="48.18101" lon="3.2574">
        <ele>112</ele>
      </trkpt>
      <trkpt lat="48.18074" lon="3.25687">
        <ele>102</ele>
      </trkpt>
      <trkpt lat="48.18027" lon="3.25611">
        <ele>100</ele>
      </trkpt>
      <trkpt lat="48.17998" lon="3.25522">
        <ele>92</ele>
      </trkpt>
      <trkpt lat="48.17981" lon="3.25455">
        <ele>92</ele>
      </trkpt>
      <trkpt lat="48.17974" lon="3.25389">
        <ele>93</ele>
      </trkpt>
      <trkpt lat="48.17975" lon="3.25256">
        <ele>95</ele>
      </trkpt>
      <trkpt lat="48.17979" lon="3.25196">
        <ele>96</ele>
      </trkpt>
      <trkpt lat="48.17986" lon="3.25165">
        <ele>98</ele>
      </trkpt>
      <trkpt lat="48.17979" lon="3.25151">
        <ele>97</ele>
      </trkpt>
      <trkpt lat="48.17958" lon="3.25145">
        <ele>95</ele>
      </trkpt>
      <trkpt lat="48.17877" lon="3.25161">
        <ele>83</ele>
      </trkpt>
      <trkpt lat="48.17863" lon="3.25023">
        <ele>83</ele>
      </trkpt>
      <trkpt lat="48.17843" lon="3.25027">
        <ele>82</ele>
      </trkpt>
      <trkpt lat="48.1782" lon="3.24982">
        <ele>79</ele>
      </trkpt>
      <trkpt lat="48.17795" lon="3.2497">
        <ele>80</ele>
      </trkpt>
      <trkpt lat="48.17744" lon="3.24983">
        <ele>82</ele>
      </trkpt>
      <trkpt lat="48.1772" lon="3.24985">
        <ele>84</ele>
      </trkpt>
      <trkpt lat="48.17739" lon="3.2515">
        <ele>84</ele>
      </trkpt>
      <trkpt lat="48.17745" lon="3.2532">
        <ele>83</ele>
      </trkpt>
      <trkpt lat="48.17755" lon="3.2561">
        <ele>78</ele>
      </trkpt>
      <trkpt lat="48.17759" lon="3.25692">
        <ele>73</ele>
      </trkpt>
      <trkpt lat="48.1779" lon="3.25755">
        <ele>69</ele>
      </trkpt>
      <trkpt lat="48.17776" lon="3.25784">
        <ele>70</ele>
      </trkpt>
      <trkpt lat="48.17761" lon="3.25814">
        <ele>70</ele>
      </trkpt>
      <trkpt lat="48.17756" lon="3.25827">
        <ele>70</ele>
      </trkpt>
      <trkpt lat="48.17749" lon="3.25829">
        <ele>71</ele>
      </trkpt>
      <trkpt lat="48.17743" lon="3.25822">
        <ele>72</ele>
      </trkpt>
      <trkpt lat="48.17746" lon="3.25811">
        <ele>72</ele>
      </trkpt>
      <trkpt lat="48.17753" lon="3.25802">
        <ele>70</ele>
      </trkpt>
      <trkpt lat="48.17754" lon="3.25795">
        <ele>70</ele>
      </trkpt>
      <trkpt lat="48.17749" lon="3.25789">
        <ele>73</ele>
      </trkpt>
      <trkpt lat="48.17655" lon="3.25757">
        <ele>79</ele>
      </trkpt>
      <trkpt lat="48.17646" lon="3.25762">
        <ele>80</ele>
      </trkpt>
      <trkpt lat="48.17648" lon="3.25775">
        <ele>80</ele>
      </trkpt>
      <trkpt lat="48.17635" lon="3.25811">
        <ele>80</ele>
      </trkpt>
      <trkpt lat="48.17623" lon="3.25826">
        <ele>81</ele>
      </trkpt>
      <trkpt lat="48.1759" lon="3.25834">
        <ele>82</ele>
      </trkpt>
      <trkpt lat="48.17555" lon="3.25838">
        <ele>84</ele>
      </trkpt>
      <trkpt lat="48.1752" lon="3.25842">
        <ele>87</ele>
      </trkpt>
      <trkpt lat="48.17475" lon="3.2583">
        <ele>99</ele>
      </trkpt>
      <trkpt lat="48.17407" lon="3.25821">
        <ele>107</ele>
      </trkpt>
      <trkpt lat="48.17369" lon="3.25814">
        <ele>111</ele>
      </trkpt>
      <trkpt lat="48.17311" lon="3.25818">
        <ele>119</ele>
      </trkpt>
      <trkpt lat="48.17248" lon="3.25819">
        <ele>127</ele>
      </trkpt>
      <trkpt lat="48.17205" lon="3.25802">
        <ele>129</ele>
      </trkpt>
      <trkpt lat="48.17111" lon="3.25753">
        <ele>140</ele>
      </trkpt>
      <trkpt lat="48.17078" lon="3.25746">
        <ele>147</ele>
      </trkpt>
      <trkpt lat="48.17044" lon="3.25743">
        <ele>150</ele>
      </trkpt>
      <trkpt lat="48.17009" lon="3.25749">
        <ele>152</ele>
      </trkpt>
      <trkpt lat="48.16983" lon="3.25764">
        <ele>149</ele>
      </trkpt>
      <trkpt lat="48.16947" lon="3.25805">
        <ele>145</ele>
      </trkpt>
      <trkpt lat="48.16884" lon="3.25898">
        <ele>131</ele>
      </trkpt>
      <trkpt lat="48.16814" lon="3.26012">
        <ele>117</ele>
      </trkpt>
      <trkpt lat="48.16793" lon="3.26016">
        <ele>116</ele>
      </trkpt>
      <trkpt lat="48.16499" lon="3.26107">
        <ele>93</ele>
      </trkpt>
      <trkpt lat="48.16516" lon="3.26188">
        <ele>91</ele>
      </trkpt>
      <trkpt lat="48.16544" lon="3.26297">
        <ele>86</ele>
      </trkpt>
      <trkpt lat="48.16554" lon="3.26356">
        <ele>82</ele>
      </trkpt>
      <trkpt lat="48.16552" lon="3.26399">
        <ele>80</ele>
      </trkpt>
      <trkpt lat="48.16548" lon="3.26435">
        <ele>76</ele>
      </trkpt>
      <trkpt lat="48.16538" lon="3.26473">
        <ele>74</ele>
      </trkpt>
      <trkpt lat="48.16519" lon="3.26463">
        <ele>75</ele>
      </trkpt>
      <trkpt lat="48.16501" lon="3.26479">
        <ele>73</ele>
      </trkpt>
      <trkpt lat="48.16494" lon="3.26507">
        <ele>71</ele>
      </trkpt>
      <trkpt lat="48.1646" lon="3.26527">
        <ele>72</ele>
      </trkpt>
      <trkpt lat="48.16431" lon="3.26543">
        <ele>72</ele>
      </trkpt>
      <trkpt lat="48.16414" lon="3.26525">
        <ele>76</ele>
      </trkpt>
      <trkpt lat="48.16405" lon="3.26498">
        <ele>78</ele>
      </trkpt>
      <trkpt lat="48.16383" lon="3.2639">
        <ele>81</ele>
      </trkpt>
      <trkpt lat="48.16365" lon="3.26358">
        <ele>81</ele>
      </trkpt>
      <trkpt lat="48.16348" lon="3.26354">
        <ele>81</ele>
      </trkpt>
      <trkpt lat="48.16311" lon="3.26371">
        <ele>80</ele>
      </trkpt>
      <trkpt lat="48.16189" lon="3.26441">
        <ele>84</ele>
      </trkpt>
      <trkpt lat="48.16183" lon="3.26417">
        <ele>85</ele>
      </trkpt>
      <trkpt lat="48.16172" lon="3.26312">
        <ele>86</ele>
      </trkpt>
      <trkpt lat="48.16149" lon="3.2629">
        <ele>87</ele>
      </trkpt>
      <trkpt lat="48.16131" lon="3.26284">
        <ele>87</ele>
      </trkpt>
      <trkpt lat="48.16092" lon="3.26279">
        <ele>87</ele>
      </trkpt>
      <trkpt lat="48.16062" lon="3.26298">
        <ele>85</ele>
      </trkpt>
      <trkpt lat="48.16048" lon="3.26341">
        <ele>85</ele>
      </trkpt>
      <trkpt lat="48.15965" lon="3.26306">
        <ele>80</ele>
      </trkpt>
      <trkpt lat="48.1591" lon="3.26267">
        <ele>81</ele>
      </trkpt>
      <trkpt lat="48.15875" lon="3.26248">
        <ele>84</ele>
      </trkpt>
      <trkpt lat="48.15824" lon="3.26231">
        <ele>87</ele>
      </trkpt>
      <trkpt lat="48.15826" lon="3.2619">
        <ele>88</ele>
      </trkpt>
      <trkpt lat="48.15781" lon="3.2619">
        <ele>88</ele>
      </trkpt>
      <trkpt lat="48.15774" lon="3.26198">
        <ele>88</ele>
      </trkpt>
      <trkpt lat="48.15769" lon="3.26226">
        <ele>88</ele>
      </trkpt>
      <trkpt lat="48.15727" lon="3.26196">
        <ele>88</ele>
      </trkpt>
      <trkpt lat="48.15723" lon="3.26188">
        <ele>88</ele>
      </trkpt>
      <trkpt lat="48.15645" lon="3.26151">
        <ele>87</ele>
      </trkpt>
      <trkpt lat="48.15634" lon="3.2613">
        <ele>87</ele>
      </trkpt>
      <trkpt lat="48.1562" lon="3.26147">
        <ele>87</ele>
      </trkpt>
      <trkpt lat="48.15604" lon="3.26162">
        <ele>87</ele>
      </trkpt>
      <trkpt lat="48.1555" lon="3.26128">
        <ele>87</ele>
      </trkpt>
      <trkpt lat="48.15537" lon="3.26121">
        <ele>87</ele>
      </trkpt>
      <trkpt lat="48.1549" lon="3.26234">
        <ele>85</ele>
      </trkpt>
      <trkpt lat="48.15452" lon="3.26322">
        <ele>83</ele>
      </trkpt>
      <trkpt lat="48.15441" lon="3.26374">
        <ele>83</ele>
      </trkpt>
      <trkpt lat="48.1544" lon="3.26404">
        <ele>83</ele>
      </trkpt>
      <trkpt lat="48.15217" lon="3.26314">
        <ele>85</ele>
      </trkpt>
      <trkpt lat="48.15168" lon="3.26288">
        <ele>86</ele>
      </trkpt>
      <trkpt lat="48.14986" lon="3.2614">
        <ele>88</ele>
      </trkpt>
      <trkpt lat="48.14895" lon="3.26065">
        <ele>87</ele>
      </trkpt>
      <trkpt lat="48.14826" lon="3.25999">
        <ele>86</ele>
      </trkpt>
      <trkpt lat="48.14751" lon="3.25964">
        <ele>87</ele>
      </trkpt>
      <trkpt lat="48.14714" lon="3.25938">
        <ele>89</ele>
      </trkpt>
      <trkpt lat="48.14638" lon="3.25864">
        <ele>90</ele>
      </trkpt>
      <trkpt lat="48.14597" lon="3.25824">
        <ele>91</ele>
      </trkpt>
      <trkpt lat="48.14578" lon="3.25811">
        <ele>93</ele>
      </trkpt>
      <trkpt lat="48.14492" lon="3.25798">
        <ele>96</ele>
      </trkpt>
      <trkpt lat="48.1436" lon="3.25787">
        <ele>97</ele>
      </trkpt>
      <trkpt lat="48.14205" lon="3.25766">
        <ele>101</ele>
      </trkpt>
      <trkpt lat="48.14021" lon="3.25742">
        <ele>109</ele>
      </trkpt>
      <trkpt lat="48.13986" lon="3.2573">
        <ele>111</ele>
      </trkpt>
      <trkpt lat="48.13946" lon="3.25692">
        <ele>112</ele>
      </trkpt>
      <trkpt lat="48.13893" lon="3.25644">
        <ele>111</ele>
      </trkpt>
      <trkpt lat="48.13875" lon="3.25615">
        <ele>110</ele>
      </trkpt>
      <trkpt lat="48.13822" lon="3.25495">
        <ele>109</ele>
      </trkpt>
      <trkpt lat="48.13774" lon="3.2551">
        <ele>106</ele>
      </trkpt>
      <trkpt lat="48.13748" lon="3.25512">
        <ele>105</ele>
      </trkpt>
      <trkpt lat="48.13739" lon="3.25526">
        <ele>106</ele>
      </trkpt>
      <trkpt lat="48.13739" lon="3.25543">
        <ele>106</ele>
      </trkpt>
      <trkpt lat="48.13711" lon="3.2554">
        <ele>107</ele>
      </trkpt>
      <trkpt lat="48.13557" lon="3.25592">
        <ele>119</ele>
      </trkpt>
      <trkpt lat="48.13514" lon="3.25602">
        <ele>119</ele>
      </trkpt>
      <trkpt lat="48.13417" lon="3.25606">
        <ele>120</ele>
      </trkpt>
      <trkpt lat="48.13271" lon="3.25606">
        <ele>137</ele>
      </trkpt>
      <trkpt lat="48.13161" lon="3.25589">
        <ele>142</ele>
      </trkpt>
      <trkpt lat="48.13105" lon="3.25573">
        <ele>146</ele>
      </trkpt>
      <trkpt lat="48.13068" lon="3.2555">
        <ele>147</ele>
      </trkpt>
      <trkpt lat="48.12959" lon="3.25511">
        <ele>149</ele>
      </trkpt>
      <trkpt lat="48.12894" lon="3.25489">
        <ele>154</ele>
      </trkpt>
      <trkpt lat="48.12819" lon="3.25478">
        <ele>160</ele>
      </trkpt>
      <trkpt lat="48.12788" lon="3.25476">
        <ele>162</ele>
      </trkpt>
      <trkpt lat="48.12731" lon="3.25455">
        <ele>166</ele>
      </trkpt>
      <trkpt lat="48.1265" lon="3.25444">
        <ele>169</ele>
      </trkpt>
      <trkpt lat="48.12606" lon="3.2544">
        <ele>169</ele>
      </trkpt>
      <trkpt lat="48.12518" lon="3.25457">
        <ele>170</ele>
      </trkpt>
      <trkpt lat="48.12434" lon="3.25458">
        <ele>172</ele>
      </trkpt>
      <trkpt lat="48.12407" lon="3.25462">
        <ele>172</ele>
      </trkpt>
      <trkpt lat="48.12366" lon="3.25473">
        <ele>172</ele>
      </trkpt>
      <trkpt lat="48.12337" lon="3.25481">
        <ele>171</ele>
      </trkpt>
      <trkpt lat="48.12306" lon="3.2548">
        <ele>170</ele>
      </trkpt>
      <trkpt lat="48.12255" lon="3.25472">
        <ele>168</ele>
      </trkpt>
      <trkpt lat="48.12225" lon="3.25477">
        <ele>164</ele>
      </trkpt>
      <trkpt lat="48.12181" lon="3.25527">
        <ele>161</ele>
      </trkpt>
      <trkpt lat="48.12135" lon="3.25602">
        <ele>158</ele>
      </trkpt>
      <trkpt lat="48.12114" lon="3.25617">
        <ele>157</ele>
      </trkpt>
      <trkpt lat="48.11985" lon="3.25698">
        <ele>138</ele>
      </trkpt>
      <trkpt lat="48.11934" lon="3.25731">
        <ele>134</ele>
      </trkpt>
      <trkpt lat="48.11918" lon="3.25728">
        <ele>134</ele>
      </trkpt>
      <trkpt lat="48.11878" lon="3.25754">
        <ele>129</ele>
      </trkpt>
      <trkpt lat="48.11825" lon="3.25763">
        <ele>120</ele>
      </trkpt>
      <trkpt lat="48.11785" lon="3.25792">
        <ele>117</ele>
      </trkpt>
      <trkpt lat="48.11695" lon="3.25928">
        <ele>108</ele>
      </trkpt>
      <trkpt lat="48.1166" lon="3.25972">
        <ele>101</ele>
      </trkpt>
      <trkpt lat="48.11586" lon="3.26021">
        <ele>98</ele>
      </trkpt>
      <trkpt lat="48.11551" lon="3.26045">
        <ele>93</ele>
      </trkpt>
      <trkpt lat="48.11498" lon="3.26091">
        <ele>88</ele>
      </trkpt>
      <trkpt lat="48.1146" lon="3.26108">
        <ele>86</ele>
      </trkpt>
      <trkpt lat="48.11557" lon="3.26764">
        <ele>76</ele>
      </trkpt>
      <trkpt lat="48.11554" lon="3.26778">
        <ele>75</ele>
      </trkpt>
      <trkpt lat="48.11527" lon="3.26761">
        <ele>75</ele>
      </trkpt>
      <trkpt lat="48.11493" lon="3.26749">
        <ele>74</ele>
      </trkpt>
      <trkpt lat="48.11473" lon="3.26744">
        <ele>74</ele>
      </trkpt>
      <trkpt lat="48.11474" lon="3.26797">
        <ele>72</ele>
      </trkpt>
      <trkpt lat="48.11455" lon="3.26934">
        <ele>71</ele>
      </trkpt>
      <trkpt lat="48.1146" lon="3.26979">
        <ele>71</ele>
      </trkpt>
      <trkpt lat="48.1146" lon="3.27015">
        <ele>70</ele>
      </trkpt>
      <trkpt lat="48.11462" lon="3.27047">
        <ele>69</ele>
      </trkpt>
      <trkpt lat="48.11456" lon="3.27072">
        <ele>69</ele>
      </trkpt>
      <trkpt lat="48.11425" lon="3.27063">
        <ele>69</ele>
      </trkpt>
      <trkpt lat="48.11357" lon="3.27032">
        <ele>69</ele>
      </trkpt>
      <trkpt lat="48.11281" lon="3.27016">
        <ele>68</ele>
      </trkpt>
      <trkpt lat="48.11109" lon="3.27001">
        <ele>71</ele>
      </trkpt>
      <trkpt lat="48.1098" lon="3.26981">
        <ele>70</ele>
      </trkpt>
      <trkpt lat="48.10919" lon="3.26989">
        <ele>70</ele>
      </trkpt>
      <trkpt lat="48.10845" lon="3.27033">
        <ele>69</ele>
      </trkpt>
      <trkpt lat="48.10706" lon="3.27137">
        <ele>69</ele>
      </trkpt>
      <trkpt lat="48.10656" lon="3.27178">
        <ele>68</ele>
      </trkpt>
      <trkpt lat="48.1051" lon="3.27318">
        <ele>68</ele>
      </trkpt>
      <trkpt lat="48.10403" lon="3.27435">
        <ele>69</ele>
      </trkpt>
      <trkpt lat="48.10301" lon="3.27574">
        <ele>69</ele>
      </trkpt>
      <trkpt lat="48.10187" lon="3.27776">
        <ele>75</ele>
      </trkpt>
      <trkpt lat="48.10062" lon="3.27992">
        <ele>67</ele>
      </trkpt>
      <trkpt lat="48.0993" lon="3.28259">
        <ele>67</ele>
      </trkpt>
      <trkpt lat="48.09854" lon="3.28375">
        <ele>68</ele>
      </trkpt>
      <trkpt lat="48.09735" lon="3.28533">
        <ele>68</ele>
      </trkpt>
      <trkpt lat="48.0963" lon="3.28639">
        <ele>68</ele>
      </trkpt>
      <trkpt lat="48.09559" lon="3.2871">
        <ele>70</ele>
      </trkpt>
      <trkpt lat="48.09482" lon="3.28745">
        <ele>71</ele>
      </trkpt>
      <trkpt lat="48.09425" lon="3.28754">
        <ele>71</ele>
      </trkpt>
      <trkpt lat="48.09363" lon="3.28753">
        <ele>71</ele>
      </trkpt>
      <trkpt lat="48.093" lon="3.28765">
        <ele>70</ele>
      </trkpt>
      <trkpt lat="48.09206" lon="3.28787">
        <ele>69</ele>
      </trkpt>
      <trkpt lat="48.09154" lon="3.28805">
        <ele>69</ele>
      </trkpt>
      <trkpt lat="48.09085" lon="3.28841">
        <ele>69</ele>
      </trkpt>
      <trkpt lat="48.09011" lon="3.28888">
        <ele>68</ele>
      </trkpt>
      <trkpt lat="48.08815" lon="3.28993">
        <ele>68</ele>
      </trkpt>
      <trkpt lat="48.08761" lon="3.29017">
        <ele>67</ele>
      </trkpt>
      <trkpt lat="48.08544" lon="3.29101">
        <ele>68</ele>
      </trkpt>
      <trkpt lat="48.08484" lon="3.29113">
        <ele>68</ele>
      </trkpt>
      <trkpt lat="48.08444" lon="3.29111">
        <ele>69</ele>
      </trkpt>
      <trkpt lat="48.08361" lon="3.29081">
        <ele>70</ele>
      </trkpt>
      <trkpt lat="48.08324" lon="3.29067">
        <ele>70</ele>
      </trkpt>
      <trkpt lat="48.08292" lon="3.29043">
        <ele>70</ele>
      </trkpt>
      <trkpt lat="48.08221" lon="3.29295">
        <ele>73</ele>
      </trkpt>
      <trkpt lat="48.08217" lon="3.29317">
        <ele>73</ele>
      </trkpt>
      <trkpt lat="48.08202" lon="3.29376">
        <ele>76</ele>
      </trkpt>
      <trkpt lat="48.08192" lon="3.2944">
        <ele>78</ele>
      </trkpt>
    </trkseg>
  </trk>
  <trk>
    <name><![CDATA[08 VSY => Joigny]]></name>
    <extensions>
      <line xmlns="http://www.topografix.com/GPX/gpx_style/0/2">
        <color>FFFF00</color>
        <width>4</width>
      </line>
    </extensions>
    <trkseg>
      <trkpt lat="48.08186" lon="3.29433">
        <ele>79</ele>
      </trkpt>
      <trkpt lat="48.08174" lon="3.29562">
        <ele>79</ele>
      </trkpt>
      <trkpt lat="48.08176" lon="3.29578">
        <ele>79</ele>
      </trkpt>
      <trkpt lat="48.08147" lon="3.29889">
        <ele>80</ele>
      </trkpt>
      <trkpt lat="48.08144" lon="3.29911">
        <ele>80</ele>
      </trkpt>
      <trkpt lat="48.08138" lon="3.29921">
        <ele>80</ele>
      </trkpt>
      <trkpt lat="48.08126" lon="3.29925">
        <ele>80</ele>
      </trkpt>
      <trkpt lat="48.08113" lon="3.29926">
        <ele>79</ele>
      </trkpt>
      <trkpt lat="48.08063" lon="3.2992">
        <ele>79</ele>
      </trkpt>
      <trkpt lat="48.08054" lon="3.29918">
        <ele>79</ele>
      </trkpt>
      <trkpt lat="48.08044" lon="3.2991">
        <ele>79</ele>
      </trkpt>
      <trkpt lat="48.08025" lon="3.29915">
        <ele>79</ele>
      </trkpt>
      <trkpt lat="48.08008" lon="3.29908">
        <ele>79</ele>
      </trkpt>
      <trkpt lat="48.07993" lon="3.29909">
        <ele>79</ele>
      </trkpt>
      <trkpt lat="48.07976" lon="3.29926">
        <ele>80</ele>
      </trkpt>
      <trkpt lat="48.07965" lon="3.29929">
        <ele>80</ele>
      </trkpt>
      <trkpt lat="48.0789" lon="3.29899">
        <ele>79</ele>
      </trkpt>
      <trkpt lat="48.07795" lon="3.29857">
        <ele>81</ele>
      </trkpt>
      <trkpt lat="48.07753" lon="3.2981">
        <ele>80</ele>
      </trkpt>
      <trkpt lat="48.07714" lon="3.29885">
        <ele>84</ele>
      </trkpt>
      <trkpt lat="48.07698" lon="3.29868">
        <ele>84</ele>
      </trkpt>
      <trkpt lat="48.07678" lon="3.29835">
        <ele>83</ele>
      </trkpt>
      <trkpt lat="48.07649" lon="3.29826">
        <ele>83</ele>
      </trkpt>
      <trkpt lat="48.07625" lon="3.29819">
        <ele>83</ele>
      </trkpt>
      <trkpt lat="48.07582" lon="3.29804">
        <ele>86</ele>
      </trkpt>
      <trkpt lat="48.07558" lon="3.29837">
        <ele>89</ele>
      </trkpt>
      <trkpt lat="48.0753" lon="3.29869">
        <ele>91</ele>
      </trkpt>
      <trkpt lat="48.07499" lon="3.29889">
        <ele>95</ele>
      </trkpt>
      <trkpt lat="48.07476" lon="3.29906">
        <ele>96</ele>
      </trkpt>
      <trkpt lat="48.07456" lon="3.29923">
        <ele>100</ele>
      </trkpt>
      <trkpt lat="48.07437" lon="3.29989">
        <ele>103</ele>
      </trkpt>
      <trkpt lat="48.07411" lon="3.30044">
        <ele>112</ele>
      </trkpt>
      <trkpt lat="48.07397" lon="3.30073">
        <ele>113</ele>
      </trkpt>
      <trkpt lat="48.07344" lon="3.30219">
        <ele>123</ele>
      </trkpt>
      <trkpt lat="48.07281" lon="3.30363">
        <ele>141</ele>
      </trkpt>
      <trkpt lat="48.07234" lon="3.30422">
        <ele>150</ele>
      </trkpt>
      <trkpt lat="48.07202" lon="3.30465">
        <ele>155</ele>
      </trkpt>
      <trkpt lat="48.07161" lon="3.30539">
        <ele>165</ele>
      </trkpt>
      <trkpt lat="48.07134" lon="3.3057">
        <ele>166</ele>
      </trkpt>
      <trkpt lat="48.07055" lon="3.30617">
        <ele>169</ele>
      </trkpt>
      <trkpt lat="48.07024" lon="3.30622">
        <ele>169</ele>
      </trkpt>
      <trkpt lat="48.06991" lon="3.30631">
        <ele>170</ele>
      </trkpt>
      <trkpt lat="48.06789" lon="3.30731">
        <ele>166</ele>
      </trkpt>
      <trkpt lat="48.06772" lon="3.30767">
        <ele>167</ele>
      </trkpt>
      <trkpt lat="48.06744" lon="3.30797">
        <ele>166</ele>
      </trkpt>
      <trkpt lat="48.06658" lon="3.30868">
        <ele>167</ele>
      </trkpt>
      <trkpt lat="48.06546" lon="3.31019">
        <ele>169</ele>
      </trkpt>
      <trkpt lat="48.06477" lon="3.31069">
        <ele>166</ele>
      </trkpt>
      <trkpt lat="48.06426" lon="3.31095">
        <ele>166</ele>
      </trkpt>
      <trkpt lat="48.06388" lon="3.31103">
        <ele>165</ele>
      </trkpt>
      <trkpt lat="48.06346" lon="3.31119">
        <ele>165</ele>
      </trkpt>
      <trkpt lat="48.06315" lon="3.31139">
        <ele>166</ele>
      </trkpt>
      <trkpt lat="48.06294" lon="3.31164">
        <ele>166</ele>
      </trkpt>
      <trkpt lat="48.0628" lon="3.31166">
        <ele>166</ele>
      </trkpt>
      <trkpt lat="48.06255" lon="3.31178">
        <ele>167</ele>
      </trkpt>
      <trkpt lat="48.06221" lon="3.31207">
        <ele>166</ele>
      </trkpt>
      <trkpt lat="48.06171" lon="3.31248">
        <ele>166</ele>
      </trkpt>
      <trkpt lat="48.06142" lon="3.31253">
        <ele>166</ele>
      </trkpt>
      <trkpt lat="48.06108" lon="3.31246">
        <ele>164</ele>
      </trkpt>
      <trkpt lat="48.06059" lon="3.31282">
        <ele>166</ele>
      </trkpt>
      <trkpt lat="48.06035" lon="3.31302">
        <ele>166</ele>
      </trkpt>
      <trkpt lat="48.05999" lon="3.3136">
        <ele>168</ele>
      </trkpt>
      <trkpt lat="48.05836" lon="3.315">
        <ele>169</ele>
      </trkpt>
      <trkpt lat="48.0578" lon="3.31535">
        <ele>167</ele>
      </trkpt>
      <trkpt lat="48.05739" lon="3.31564">
        <ele>166</ele>
      </trkpt>
      <trkpt lat="48.05723" lon="3.3158">
        <ele>166</ele>
      </trkpt>
      <trkpt lat="48.05717" lon="3.31601">
        <ele>166</ele>
      </trkpt>
      <trkpt lat="48.05685" lon="3.31667">
        <ele>166</ele>
      </trkpt>
      <trkpt lat="48.05659" lon="3.31695">
        <ele>164</ele>
      </trkpt>
      <trkpt lat="48.05641" lon="3.31707">
        <ele>163</ele>
      </trkpt>
      <trkpt lat="48.05611" lon="3.31704">
        <ele>162</ele>
      </trkpt>
      <trkpt lat="48.05579" lon="3.31714">
        <ele>157</ele>
      </trkpt>
      <trkpt lat="48.05489" lon="3.317">
        <ele>149</ele>
      </trkpt>
      <trkpt lat="48.05423" lon="3.3169">
        <ele>144</ele>
      </trkpt>
      <trkpt lat="48.05407" lon="3.31679">
        <ele>137</ele>
      </trkpt>
      <trkpt lat="48.05388" lon="3.31659">
        <ele>133</ele>
      </trkpt>
      <trkpt lat="48.0537" lon="3.31653">
        <ele>131</ele>
      </trkpt>
      <trkpt lat="48.05326" lon="3.31667">
        <ele>125</ele>
      </trkpt>
      <trkpt lat="48.05299" lon="3.31682">
        <ele>122</ele>
      </trkpt>
      <trkpt lat="48.0521" lon="3.31681">
        <ele>110</ele>
      </trkpt>
      <trkpt lat="48.05185" lon="3.31681">
        <ele>109</ele>
      </trkpt>
      <trkpt lat="48.05155" lon="3.31665">
        <ele>105</ele>
      </trkpt>
      <trkpt lat="48.05082" lon="3.31613">
        <ele>95</ele>
      </trkpt>
      <trkpt lat="48.05076" lon="3.31626">
        <ele>94</ele>
      </trkpt>
      <trkpt lat="48.0507" lon="3.31677">
        <ele>94</ele>
      </trkpt>
      <trkpt lat="48.0502" lon="3.31776">
        <ele>94</ele>
      </trkpt>
      <trkpt lat="48.04992" lon="3.31803">
        <ele>93</ele>
      </trkpt>
      <trkpt lat="48.04982" lon="3.31826">
        <ele>93</ele>
      </trkpt>
      <trkpt lat="48.04942" lon="3.31965">
        <ele>97</ele>
      </trkpt>
      <trkpt lat="48.04932" lon="3.31952">
        <ele>96</ele>
      </trkpt>
      <trkpt lat="48.04883" lon="3.31946">
        <ele>90</ele>
      </trkpt>
      <trkpt lat="48.04783" lon="3.3192">
        <ele>82</ele>
      </trkpt>
      <trkpt lat="48.04768" lon="3.31918">
        <ele>80</ele>
      </trkpt>
      <trkpt lat="48.04768" lon="3.31975">
        <ele>82</ele>
      </trkpt>
      <trkpt lat="48.04683" lon="3.31998">
        <ele>76</ele>
      </trkpt>
      <trkpt lat="48.04671" lon="3.31959">
        <ele>76</ele>
      </trkpt>
      <trkpt lat="48.04604" lon="3.31872">
        <ele>73</ele>
      </trkpt>
      <trkpt lat="48.04504" lon="3.31994">
        <ele>75</ele>
      </trkpt>
      <trkpt lat="48.04419" lon="3.32099">
        <ele>74</ele>
      </trkpt>
      <trkpt lat="48.04384" lon="3.32107">
        <ele>73</ele>
      </trkpt>
      <trkpt lat="48.04354" lon="3.32106">
        <ele>72</ele>
      </trkpt>
      <trkpt lat="48.04287" lon="3.32067">
        <ele>74</ele>
      </trkpt>
      <trkpt lat="48.04205" lon="3.32018">
        <ele>75</ele>
      </trkpt>
      <trkpt lat="48.0412" lon="3.31968">
        <ele>74</ele>
      </trkpt>
      <trkpt lat="48.04048" lon="3.31948">
        <ele>73</ele>
      </trkpt>
      <trkpt lat="48.03956" lon="3.31938">
        <ele>71</ele>
      </trkpt>
      <trkpt lat="48.03825" lon="3.31926">
        <ele>71</ele>
      </trkpt>
      <trkpt lat="48.03677" lon="3.31939">
        <ele>71</ele>
      </trkpt>
      <trkpt lat="48.03475" lon="3.31955">
        <ele>73</ele>
      </trkpt>
      <trkpt lat="48.03433" lon="3.31958">
        <ele>72</ele>
      </trkpt>
      <trkpt lat="48.03339" lon="3.31942">
        <ele>72</ele>
      </trkpt>
      <trkpt lat="48.03227" lon="3.31906">
        <ele>73</ele>
      </trkpt>
      <trkpt lat="48.03136" lon="3.31859">
        <ele>73</ele>
      </trkpt>
      <trkpt lat="48.03023" lon="3.3181">
        <ele>73</ele>
      </trkpt>
      <trkpt lat="48.02995" lon="3.318">
        <ele>73</ele>
      </trkpt>
      <trkpt lat="48.02943" lon="3.31743">
        <ele>74</ele>
      </trkpt>
      <trkpt lat="48.02863" lon="3.31634">
        <ele>74</ele>
      </trkpt>
      <trkpt lat="48.02675" lon="3.31325">
        <ele>74</ele>
      </trkpt>
      <trkpt lat="48.02586" lon="3.31196">
        <ele>74</ele>
      </trkpt>
      <trkpt lat="48.02576" lon="3.31186">
        <ele>75</ele>
      </trkpt>
      <trkpt lat="48.02556" lon="3.3116">
        <ele>73</ele>
      </trkpt>
      <trkpt lat="48.02528" lon="3.31134">
        <ele>73</ele>
      </trkpt>
      <trkpt lat="48.02505" lon="3.31121">
        <ele>73</ele>
      </trkpt>
      <trkpt lat="48.02448" lon="3.31123">
        <ele>72</ele>
      </trkpt>
      <trkpt lat="48.02383" lon="3.31122">
        <ele>74</ele>
      </trkpt>
      <trkpt lat="48.02348" lon="3.31115">
        <ele>74</ele>
      </trkpt>
      <trkpt lat="48.02269" lon="3.31091">
        <ele>76</ele>
      </trkpt>
      <trkpt lat="48.02197" lon="3.31055">
        <ele>74</ele>
      </trkpt>
      <trkpt lat="48.02078" lon="3.31">
        <ele>76</ele>
      </trkpt>
      <trkpt lat="48.01997" lon="3.30958">
        <ele>78</ele>
      </trkpt>
      <trkpt lat="48.01864" lon="3.30863">
        <ele>74</ele>
      </trkpt>
      <trkpt lat="48.01795" lon="3.30813">
        <ele>73</ele>
      </trkpt>
      <trkpt lat="48.01771" lon="3.30802">
        <ele>73</ele>
      </trkpt>
      <trkpt lat="48.01534" lon="3.30725">
        <ele>71</ele>
      </trkpt>
      <trkpt lat="48.01389" lon="3.30675">
        <ele>71</ele>
      </trkpt>
      <trkpt lat="48.01305" lon="3.30656">
        <ele>72</ele>
      </trkpt>
      <trkpt lat="48.01255" lon="3.30645">
        <ele>71</ele>
      </trkpt>
      <trkpt lat="48.01219" lon="3.30649">
        <ele>71</ele>
      </trkpt>
      <trkpt lat="48.01146" lon="3.30662">
        <ele>72</ele>
      </trkpt>
      <trkpt lat="48.01105" lon="3.30679">
        <ele>72</ele>
      </trkpt>
      <trkpt lat="48.01066" lon="3.30709">
        <ele>71</ele>
      </trkpt>
      <trkpt lat="48.00999" lon="3.30777">
        <ele>72</ele>
      </trkpt>
      <trkpt lat="48.00967" lon="3.30798">
        <ele>72</ele>
      </trkpt>
      <trkpt lat="48.00931" lon="3.30812">
        <ele>72</ele>
      </trkpt>
      <trkpt lat="48.00862" lon="3.30836">
        <ele>72</ele>
      </trkpt>
      <trkpt lat="48.00819" lon="3.30859">
        <ele>73</ele>
      </trkpt>
      <trkpt lat="48.00779" lon="3.30884">
        <ele>73</ele>
      </trkpt>
      <trkpt lat="48.00756" lon="3.30902">
        <ele>74</ele>
      </trkpt>
      <trkpt lat="48.00747" lon="3.30917">
        <ele>74</ele>
      </trkpt>
      <trkpt lat="48.0073" lon="3.3097">
        <ele>73</ele>
      </trkpt>
      <trkpt lat="48.007" lon="3.3104">
        <ele>72</ele>
      </trkpt>
      <trkpt lat="48.00618" lon="3.31182">
        <ele>73</ele>
      </trkpt>
      <trkpt lat="48.00589" lon="3.31232">
        <ele>73</ele>
      </trkpt>
      <trkpt lat="48.00577" lon="3.31266">
        <ele>74</ele>
      </trkpt>
      <trkpt lat="48.00519" lon="3.31486">
        <ele>76</ele>
      </trkpt>
      <trkpt lat="48.00503" lon="3.31655">
        <ele>73</ele>
      </trkpt>
      <trkpt lat="48.00482" lon="3.31832">
        <ele>73</ele>
      </trkpt>
      <trkpt lat="48.00416" lon="3.32178">
        <ele>72</ele>
      </trkpt>
      <trkpt lat="48.00363" lon="3.32423">
        <ele>72</ele>
      </trkpt>
      <trkpt lat="48.00359" lon="3.32445">
        <ele>72</ele>
      </trkpt>
      <trkpt lat="48.00344" lon="3.32455">
        <ele>72</ele>
      </trkpt>
      <trkpt lat="48.00328" lon="3.32472">
        <ele>72</ele>
      </trkpt>
      <trkpt lat="48.00329" lon="3.32486">
        <ele>73</ele>
      </trkpt>
      <trkpt lat="48.00377" lon="3.32674">
        <ele>73</ele>
      </trkpt>
      <trkpt lat="48.00413" lon="3.32879">
        <ele>74</ele>
      </trkpt>
      <trkpt lat="48.00424" lon="3.32941">
        <ele>75</ele>
      </trkpt>
      <trkpt lat="48.00432" lon="3.3297">
        <ele>75</ele>
      </trkpt>
      <trkpt lat="48.00439" lon="3.33083">
        <ele>77</ele>
      </trkpt>
      <trkpt lat="48.00441" lon="3.33132">
        <ele>77</ele>
      </trkpt>
      <trkpt lat="48.00428" lon="3.33245">
        <ele>78</ele>
      </trkpt>
      <trkpt lat="48.0042" lon="3.333">
        <ele>83</ele>
      </trkpt>
      <trkpt lat="48.00364" lon="3.33559">
        <ele>83</ele>
      </trkpt>
      <trkpt lat="48.00332" lon="3.3371">
        <ele>78</ele>
      </trkpt>
      <trkpt lat="48.00288" lon="3.33873">
        <ele>83</ele>
      </trkpt>
      <trkpt lat="48.00235" lon="3.33987">
        <ele>78</ele>
      </trkpt>
      <trkpt lat="48.00169" lon="3.34078">
        <ele>76</ele>
      </trkpt>
      <trkpt lat="48.00121" lon="3.34137">
        <ele>76</ele>
      </trkpt>
      <trkpt lat="47.99982" lon="3.34263">
        <ele>74</ele>
      </trkpt>
      <trkpt lat="47.99886" lon="3.34353">
        <ele>75</ele>
      </trkpt>
      <trkpt lat="47.99838" lon="3.34414">
        <ele>75</ele>
      </trkpt>
      <trkpt lat="47.9983" lon="3.34448">
        <ele>75</ele>
      </trkpt>
      <trkpt lat="47.99781" lon="3.34592">
        <ele>75</ele>
      </trkpt>
      <trkpt lat="47.99764" lon="3.34624">
        <ele>75</ele>
      </trkpt>
      <trkpt lat="47.99752" lon="3.34651">
        <ele>75</ele>
      </trkpt>
      <trkpt lat="47.99741" lon="3.34662">
        <ele>75</ele>
      </trkpt>
      <trkpt lat="47.99682" lon="3.34817">
        <ele>75</ele>
      </trkpt>
      <trkpt lat="47.99397" lon="3.3552">
        <ele>77</ele>
      </trkpt>
      <trkpt lat="47.99229" lon="3.35937">
        <ele>78</ele>
      </trkpt>
      <trkpt lat="47.99196" lon="3.36033">
        <ele>81</ele>
      </trkpt>
      <trkpt lat="47.99161" lon="3.36169">
        <ele>81</ele>
      </trkpt>
      <trkpt lat="47.9913" lon="3.36294">
        <ele>84</ele>
      </trkpt>
      <trkpt lat="47.99088" lon="3.36386">
        <ele>88</ele>
      </trkpt>
      <trkpt lat="47.99" lon="3.36586">
        <ele>87</ele>
      </trkpt>
      <trkpt lat="47.98886" lon="3.36858">
        <ele>84</ele>
      </trkpt>
      <trkpt lat="47.98827" lon="3.36952">
        <ele>80</ele>
      </trkpt>
      <trkpt lat="47.98789" lon="3.36994">
        <ele>79</ele>
      </trkpt>
      <trkpt lat="47.98755" lon="3.37025">
        <ele>80</ele>
      </trkpt>
      <trkpt lat="47.98569" lon="3.3714">
        <ele>77</ele>
      </trkpt>
      <trkpt lat="47.98406" lon="3.37237">
        <ele>76</ele>
      </trkpt>
      <trkpt lat="47.98357" lon="3.37279">
        <ele>77</ele>
      </trkpt>
      <trkpt lat="47.983" lon="3.37367">
        <ele>76</ele>
      </trkpt>
      <trkpt lat="47.98271" lon="3.37418">
        <ele>76</ele>
      </trkpt>
      <trkpt lat="47.98256" lon="3.37473">
        <ele>76</ele>
      </trkpt>
      <trkpt lat="47.98232" lon="3.37564">
        <ele>76</ele>
      </trkpt>
      <trkpt lat="47.98224" lon="3.37651">
        <ele>77</ele>
      </trkpt>
      <trkpt lat="47.98217" lon="3.37744">
        <ele>77</ele>
      </trkpt>
      <trkpt lat="47.98224" lon="3.37842">
        <ele>79</ele>
      </trkpt>
      <trkpt lat="47.98253" lon="3.37964">
        <ele>78</ele>
      </trkpt>
      <trkpt lat="47.98274" lon="3.38057">
        <ele>78</ele>
      </trkpt>
      <trkpt lat="47.98287" lon="3.38284">
        <ele>83</ele>
      </trkpt>
      <trkpt lat="47.98304" lon="3.38447">
        <ele>81</ele>
      </trkpt>
      <trkpt lat="47.9831" lon="3.38747">
        <ele>81</ele>
      </trkpt>
      <trkpt lat="47.9833" lon="3.38774">
        <ele>83</ele>
      </trkpt>
      <trkpt lat="47.9834" lon="3.38841">
        <ele>89</ele>
      </trkpt>
      <trkpt lat="47.98343" lon="3.39001">
        <ele>88</ele>
      </trkpt>
      <trkpt lat="47.98338" lon="3.39113">
        <ele>88</ele>
      </trkpt>
      <trkpt lat="47.98332" lon="3.39167">
        <ele>86</ele>
      </trkpt>
      <trkpt lat="47.9834" lon="3.39489">
        <ele>95</ele>
      </trkpt>
      <trkpt lat="47.98345" lon="3.39521">
        <ele>98</ele>
      </trkpt>
      <trkpt lat="47.98343" lon="3.39543">
        <ele>100</ele>
      </trkpt>
      <trkpt lat="47.98338" lon="3.39558">
        <ele>100</ele>
      </trkpt>
      <trkpt lat="47.98328" lon="3.39578">
        <ele>98</ele>
      </trkpt>
      <trkpt lat="47.98315" lon="3.39659">
        <ele>101</ele>
      </trkpt>
      <trkpt lat="47.98301" lon="3.39712">
        <ele>105</ele>
      </trkpt>
      <trkpt lat="47.98291" lon="3.39729">
        <ele>106</ele>
      </trkpt>
      <trkpt lat="47.98268" lon="3.39746">
        <ele>105</ele>
      </trkpt>
    </trkseg>
  </trk>
  <trk>
    <name><![CDATA[09 Joigny => Charbuy]]></name>
    <extensions>
      <line xmlns="http://www.topografix.com/GPX/gpx_style/0/2">
        <color>FF00FF</color>
        <width>4</width>
      </line>
    </extensions>
    <trkseg>
      <trkpt lat="47.98268" lon="3.39746">
        <ele>105</ele>
      </trkpt>
      <trkpt lat="47.98262" lon="3.39726">
        <ele>104</ele>
      </trkpt>
      <trkpt lat="47.98245" lon="3.397">
        <ele>95</ele>
      </trkpt>
      <trkpt lat="47.98229" lon="3.39681">
        <ele>94</ele>
      </trkpt>
      <trkpt lat="47.98221" lon="3.3968">
        <ele>93</ele>
      </trkpt>
      <trkpt lat="47.9819" lon="3.39653">
        <ele>86</ele>
      </trkpt>
      <trkpt lat="47.98178" lon="3.39646">
        <ele>86</ele>
      </trkpt>
      <trkpt lat="47.98168" lon="3.39642">
        <ele>85</ele>
      </trkpt>
      <trkpt lat="47.98169" lon="3.39627">
        <ele>85</ele>
      </trkpt>
      <trkpt lat="47.98171" lon="3.39614">
        <ele>85</ele>
      </trkpt>
      <trkpt lat="47.98151" lon="3.39603">
        <ele>80</ele>
      </trkpt>
      <trkpt lat="47.98144" lon="3.39578">
        <ele>79</ele>
      </trkpt>
      <trkpt lat="47.97739" lon="3.39423">
        <ele>79</ele>
      </trkpt>
      <trkpt lat="47.97731" lon="3.39407">
        <ele>78</ele>
      </trkpt>
      <trkpt lat="47.97694" lon="3.39407">
        <ele>78</ele>
      </trkpt>
      <trkpt lat="47.97668" lon="3.39398">
        <ele>78</ele>
      </trkpt>
      <trkpt lat="47.97423" lon="3.39315">
        <ele>78</ele>
      </trkpt>
      <trkpt lat="47.97382" lon="3.39327">
        <ele>79</ele>
      </trkpt>
      <trkpt lat="47.97379" lon="3.3932">
        <ele>79</ele>
      </trkpt>
      <trkpt lat="47.97356" lon="3.39325">
        <ele>79</ele>
      </trkpt>
      <trkpt lat="47.97358" lon="3.39348">
        <ele>78</ele>
      </trkpt>
      <trkpt lat="47.9735" lon="3.39382">
        <ele>78</ele>
      </trkpt>
      <trkpt lat="47.97345" lon="3.39437">
        <ele>77</ele>
      </trkpt>
      <trkpt lat="47.97333" lon="3.39475">
        <ele>77</ele>
      </trkpt>
      <trkpt lat="47.97314" lon="3.39489">
        <ele>77</ele>
      </trkpt>
      <trkpt lat="47.97236" lon="3.39508">
        <ele>76</ele>
      </trkpt>
      <trkpt lat="47.96915" lon="3.39703">
        <ele>78</ele>
      </trkpt>
      <trkpt lat="47.96211" lon="3.40133">
        <ele>78</ele>
      </trkpt>
      <trkpt lat="47.9617" lon="3.40154">
        <ele>78</ele>
      </trkpt>
      <trkpt lat="47.96105" lon="3.40156">
        <ele>79</ele>
      </trkpt>
      <trkpt lat="47.96048" lon="3.40151">
        <ele>80</ele>
      </trkpt>
      <trkpt lat="47.96008" lon="3.40149">
        <ele>81</ele>
      </trkpt>
      <trkpt lat="47.95966" lon="3.4014">
        <ele>81</ele>
      </trkpt>
      <trkpt lat="47.95759" lon="3.40025">
        <ele>80</ele>
      </trkpt>
      <trkpt lat="47.9565" lon="3.40274">
        <ele>80</ele>
      </trkpt>
      <trkpt lat="47.95594" lon="3.40235">
        <ele>81</ele>
      </trkpt>
      <trkpt lat="47.95576" lon="3.40249">
        <ele>82</ele>
      </trkpt>
      <trkpt lat="47.9555" lon="3.40299">
        <ele>83</ele>
      </trkpt>
      <trkpt lat="47.95511" lon="3.40481">
        <ele>80</ele>
      </trkpt>
      <trkpt lat="47.9547" lon="3.40667">
        <ele>80</ele>
      </trkpt>
      <trkpt lat="47.95453" lon="3.40751">
        <ele>80</ele>
      </trkpt>
      <trkpt lat="47.9541" lon="3.40894">
        <ele>80</ele>
      </trkpt>
      <trkpt lat="47.95315" lon="3.41269">
        <ele>81</ele>
      </trkpt>
      <trkpt lat="47.95296" lon="3.41388">
        <ele>81</ele>
      </trkpt>
      <trkpt lat="47.95265" lon="3.41623">
        <ele>80</ele>
      </trkpt>
      <trkpt lat="47.95216" lon="3.41997">
        <ele>82</ele>
      </trkpt>
      <trkpt lat="47.95201" lon="3.42101">
        <ele>82</ele>
      </trkpt>
      <trkpt lat="47.95187" lon="3.42362">
        <ele>86</ele>
      </trkpt>
      <trkpt lat="47.9517" lon="3.42648">
        <ele>90</ele>
      </trkpt>
      <trkpt lat="47.95138" lon="3.429">
        <ele>94</ele>
      </trkpt>
      <trkpt lat="47.95147" lon="3.42921">
        <ele>95</ele>
      </trkpt>
      <trkpt lat="47.95178" lon="3.42938">
        <ele>94</ele>
      </trkpt>
      <trkpt lat="47.952" lon="3.42959">
        <ele>94</ele>
      </trkpt>
      <trkpt lat="47.952" lon="3.42981">
        <ele>94</ele>
      </trkpt>
      <trkpt lat="47.95193" lon="3.43019">
        <ele>95</ele>
      </trkpt>
      <trkpt lat="47.95184" lon="3.43084">
        <ele>95</ele>
      </trkpt>
      <trkpt lat="47.95193" lon="3.43122">
        <ele>95</ele>
      </trkpt>
      <trkpt lat="47.95218" lon="3.43192">
        <ele>94</ele>
      </trkpt>
      <trkpt lat="47.95242" lon="3.43355">
        <ele>94</ele>
      </trkpt>
      <trkpt lat="47.95238" lon="3.43416">
        <ele>94</ele>
      </trkpt>
      <trkpt lat="47.95211" lon="3.43649">
        <ele>94</ele>
      </trkpt>
      <trkpt lat="47.95192" lon="3.43778">
        <ele>92</ele>
      </trkpt>
      <trkpt lat="47.95116" lon="3.44028">
        <ele>92</ele>
      </trkpt>
      <trkpt lat="47.94981" lon="3.44445">
        <ele>90</ele>
      </trkpt>
      <trkpt lat="47.94945" lon="3.445">
        <ele>90</ele>
      </trkpt>
      <trkpt lat="47.9492" lon="3.44542">
        <ele>87</ele>
      </trkpt>
      <trkpt lat="47.9482" lon="3.44494">
        <ele>92</ele>
      </trkpt>
      <trkpt lat="47.94808" lon="3.44558">
        <ele>89</ele>
      </trkpt>
      <trkpt lat="47.94782" lon="3.44666">
        <ele>87</ele>
      </trkpt>
      <trkpt lat="47.94746" lon="3.44802">
        <ele>85</ele>
      </trkpt>
      <trkpt lat="47.94705" lon="3.44881">
        <ele>88</ele>
      </trkpt>
      <trkpt lat="47.94671" lon="3.44897">
        <ele>89</ele>
      </trkpt>
      <trkpt lat="47.94631" lon="3.44892">
        <ele>89</ele>
      </trkpt>
      <trkpt lat="47.94564" lon="3.44888">
        <ele>89</ele>
      </trkpt>
      <trkpt lat="47.94512" lon="3.44884">
        <ele>89</ele>
      </trkpt>
      <trkpt lat="47.9446" lon="3.44881">
        <ele>88</ele>
      </trkpt>
      <trkpt lat="47.94426" lon="3.44885">
        <ele>88</ele>
      </trkpt>
      <trkpt lat="47.94331" lon="3.44821">
        <ele>87</ele>
      </trkpt>
      <trkpt lat="47.94161" lon="3.44708">
        <ele>88</ele>
      </trkpt>
      <trkpt lat="47.93964" lon="3.44561">
        <ele>88</ele>
      </trkpt>
      <trkpt lat="47.9387" lon="3.44492">
        <ele>87</ele>
      </trkpt>
      <trkpt lat="47.93817" lon="3.44459">
        <ele>88</ele>
      </trkpt>
      <trkpt lat="47.93804" lon="3.44444">
        <ele>88</ele>
      </trkpt>
      <trkpt lat="47.93764" lon="3.44385">
        <ele>88</ele>
      </trkpt>
      <trkpt lat="47.93725" lon="3.44334">
        <ele>89</ele>
      </trkpt>
      <trkpt lat="47.93715" lon="3.44328">
        <ele>89</ele>
      </trkpt>
      <trkpt lat="47.93564" lon="3.44335">
        <ele>92</ele>
      </trkpt>
      <trkpt lat="47.9351" lon="3.44337">
        <ele>92</ele>
      </trkpt>
      <trkpt lat="47.9333" lon="3.44396">
        <ele>95</ele>
      </trkpt>
      <trkpt lat="47.93282" lon="3.44402">
        <ele>95</ele>
      </trkpt>
      <trkpt lat="47.93225" lon="3.4439">
        <ele>97</ele>
      </trkpt>
      <trkpt lat="47.93097" lon="3.4437">
        <ele>95</ele>
      </trkpt>
      <trkpt lat="47.93054" lon="3.44355">
        <ele>92</ele>
      </trkpt>
      <trkpt lat="47.92908" lon="3.443">
        <ele>89</ele>
      </trkpt>
      <trkpt lat="47.92784" lon="3.44231">
        <ele>88</ele>
      </trkpt>
      <trkpt lat="47.9272" lon="3.44205">
        <ele>88</ele>
      </trkpt>
      <trkpt lat="47.92699" lon="3.44199">
        <ele>88</ele>
      </trkpt>
      <trkpt lat="47.92668" lon="3.442">
        <ele>88</ele>
      </trkpt>
      <trkpt lat="47.92638" lon="3.44212">
        <ele>89</ele>
      </trkpt>
      <trkpt lat="47.92586" lon="3.44277">
        <ele>89</ele>
      </trkpt>
      <trkpt lat="47.92579" lon="3.44281">
        <ele>91</ele>
      </trkpt>
      <trkpt lat="47.9252" lon="3.4425">
        <ele>93</ele>
      </trkpt>
      <trkpt lat="47.92461" lon="3.44244">
        <ele>92</ele>
      </trkpt>
      <trkpt lat="47.92431" lon="3.44243">
        <ele>91</ele>
      </trkpt>
      <trkpt lat="47.92409" lon="3.44231">
        <ele>91</ele>
      </trkpt>
      <trkpt lat="47.9232" lon="3.4416">
        <ele>93</ele>
      </trkpt>
      <trkpt lat="47.92297" lon="3.44117">
        <ele>94</ele>
      </trkpt>
      <trkpt lat="47.92284" lon="3.44077">
        <ele>97</ele>
      </trkpt>
      <trkpt lat="47.92273" lon="3.43975">
        <ele>99</ele>
      </trkpt>
      <trkpt lat="47.91839" lon="3.43933">
        <ele>109</ele>
      </trkpt>
      <trkpt lat="47.91773" lon="3.43925">
        <ele>112</ele>
      </trkpt>
      <trkpt lat="47.91748" lon="3.43917">
        <ele>113</ele>
      </trkpt>
      <trkpt lat="47.91678" lon="3.43884">
        <ele>115</ele>
      </trkpt>
      <trkpt lat="47.9163" lon="3.43859">
        <ele>115</ele>
      </trkpt>
      <trkpt lat="47.91598" lon="3.43984">
        <ele>113</ele>
      </trkpt>
      <trkpt lat="47.91551" lon="3.43971">
        <ele>111</ele>
      </trkpt>
      <trkpt lat="47.91392" lon="3.43937">
        <ele>110</ele>
      </trkpt>
      <trkpt lat="47.91358" lon="3.44168">
        <ele>103</ele>
      </trkpt>
      <trkpt lat="47.90966" lon="3.44072">
        <ele>105</ele>
      </trkpt>
      <trkpt lat="47.90873" lon="3.44144">
        <ele>101</ele>
      </trkpt>
      <trkpt lat="47.90687" lon="3.44296">
        <ele>97</ele>
      </trkpt>
      <trkpt lat="47.90657" lon="3.44299">
        <ele>97</ele>
      </trkpt>
      <trkpt lat="47.90581" lon="3.44256">
        <ele>96</ele>
      </trkpt>
      <trkpt lat="47.90451" lon="3.44183">
        <ele>97</ele>
      </trkpt>
      <trkpt lat="47.90392" lon="3.44161">
        <ele>98</ele>
      </trkpt>
      <trkpt lat="47.90362" lon="3.44154">
        <ele>99</ele>
      </trkpt>
      <trkpt lat="47.90291" lon="3.44124">
        <ele>99</ele>
      </trkpt>
      <trkpt lat="47.90202" lon="3.44065">
        <ele>98</ele>
      </trkpt>
      <trkpt lat="47.90108" lon="3.44036">
        <ele>98</ele>
      </trkpt>
      <trkpt lat="47.90008" lon="3.43968">
        <ele>99</ele>
      </trkpt>
      <trkpt lat="47.89903" lon="3.43861">
        <ele>99</ele>
      </trkpt>
      <trkpt lat="47.89838" lon="3.43784">
        <ele>100</ele>
      </trkpt>
      <trkpt lat="47.89788" lon="3.4371">
        <ele>101</ele>
      </trkpt>
      <trkpt lat="47.89577" lon="3.43426">
        <ele>102</ele>
      </trkpt>
      <trkpt lat="47.8946" lon="3.43272">
        <ele>102</ele>
      </trkpt>
      <trkpt lat="47.89429" lon="3.43239">
        <ele>102</ele>
      </trkpt>
      <trkpt lat="47.89344" lon="3.43105">
        <ele>103</ele>
      </trkpt>
      <trkpt lat="47.89303" lon="3.43072">
        <ele>105</ele>
      </trkpt>
      <trkpt lat="47.89249" lon="3.43004">
        <ele>106</ele>
      </trkpt>
      <trkpt lat="47.89163" lon="3.42919">
        <ele>105</ele>
      </trkpt>
      <trkpt lat="47.89097" lon="3.42874">
        <ele>104</ele>
      </trkpt>
      <trkpt lat="47.89029" lon="3.42841">
        <ele>104</ele>
      </trkpt>
      <trkpt lat="47.88983" lon="3.42835">
        <ele>105</ele>
      </trkpt>
      <trkpt lat="47.88951" lon="3.42836">
        <ele>106</ele>
      </trkpt>
      <trkpt lat="47.88911" lon="3.42859">
        <ele>108</ele>
      </trkpt>
      <trkpt lat="47.8887" lon="3.42897">
        <ele>109</ele>
      </trkpt>
      <trkpt lat="47.88784" lon="3.43005">
        <ele>111</ele>
      </trkpt>
      <trkpt lat="47.88573" lon="3.43287">
        <ele>108</ele>
      </trkpt>
      <trkpt lat="47.88447" lon="3.43451">
        <ele>113</ele>
      </trkpt>
      <trkpt lat="47.88409" lon="3.43452">
        <ele>112</ele>
      </trkpt>
      <trkpt lat="47.88336" lon="3.435">
        <ele>113</ele>
      </trkpt>
      <trkpt lat="47.88293" lon="3.43543">
        <ele>113</ele>
      </trkpt>
      <trkpt lat="47.88253" lon="3.43592">
        <ele>114</ele>
      </trkpt>
      <trkpt lat="47.88234" lon="3.43601">
        <ele>113</ele>
      </trkpt>
      <trkpt lat="47.88192" lon="3.43825">
        <ele>115</ele>
      </trkpt>
      <trkpt lat="47.88171" lon="3.43926">
        <ele>117</ele>
      </trkpt>
      <trkpt lat="47.88157" lon="3.43952">
        <ele>115</ele>
      </trkpt>
      <trkpt lat="47.88144" lon="3.43973">
        <ele>115</ele>
      </trkpt>
      <trkpt lat="47.8812" lon="3.43997">
        <ele>114</ele>
      </trkpt>
      <trkpt lat="47.88112" lon="3.44011">
        <ele>113</ele>
      </trkpt>
      <trkpt lat="47.88163" lon="3.44166">
        <ele>109</ele>
      </trkpt>
      <trkpt lat="47.88164" lon="3.44196">
        <ele>108</ele>
      </trkpt>
      <trkpt lat="47.88187" lon="3.44259">
        <ele>109</ele>
      </trkpt>
      <trkpt lat="47.88203" lon="3.44318">
        <ele>111</ele>
      </trkpt>
      <trkpt lat="47.88155" lon="3.44382">
        <ele>113</ele>
      </trkpt>
      <trkpt lat="47.88122" lon="3.44416">
        <ele>114</ele>
      </trkpt>
      <trkpt lat="47.88028" lon="3.44458">
        <ele>118</ele>
      </trkpt>
      <trkpt lat="47.87877" lon="3.44519">
        <ele>119</ele>
      </trkpt>
      <trkpt lat="47.87823" lon="3.44541">
        <ele>115</ele>
      </trkpt>
      <trkpt lat="47.87776" lon="3.44577">
        <ele>114</ele>
      </trkpt>
      <trkpt lat="47.87782" lon="3.44246">
        <ele>115</ele>
      </trkpt>
      <trkpt lat="47.87644" lon="3.4433">
        <ele>115</ele>
      </trkpt>
      <trkpt lat="47.87513" lon="3.44409">
        <ele>112</ele>
      </trkpt>
      <trkpt lat="47.87214" lon="3.4459">
        <ele>116</ele>
      </trkpt>
      <trkpt lat="47.87194" lon="3.44609">
        <ele>117</ele>
      </trkpt>
      <trkpt lat="47.87134" lon="3.44646">
        <ele>120</ele>
      </trkpt>
      <trkpt lat="47.87104" lon="3.4466">
        <ele>120</ele>
      </trkpt>
      <trkpt lat="47.87063" lon="3.44669">
        <ele>120</ele>
      </trkpt>
      <trkpt lat="47.87036" lon="3.44659">
        <ele>120</ele>
      </trkpt>
      <trkpt lat="47.87012" lon="3.44631">
        <ele>120</ele>
      </trkpt>
      <trkpt lat="47.87004" lon="3.44622">
        <ele>120</ele>
      </trkpt>
      <trkpt lat="47.8701" lon="3.44602">
        <ele>120</ele>
      </trkpt>
      <trkpt lat="47.87016" lon="3.44585">
        <ele>120</ele>
      </trkpt>
      <trkpt lat="47.87032" lon="3.44563">
        <ele>121</ele>
      </trkpt>
      <trkpt lat="47.87037" lon="3.44548">
        <ele>121</ele>
      </trkpt>
      <trkpt lat="47.87041" lon="3.44534">
        <ele>121</ele>
      </trkpt>
      <trkpt lat="47.87042" lon="3.44519">
        <ele>121</ele>
      </trkpt>
      <trkpt lat="47.87036" lon="3.44512">
        <ele>121</ele>
      </trkpt>
      <trkpt lat="47.87027" lon="3.44501">
        <ele>121</ele>
      </trkpt>
      <trkpt lat="47.87008" lon="3.44498">
        <ele>122</ele>
      </trkpt>
      <trkpt lat="47.87002" lon="3.44489">
        <ele>122</ele>
      </trkpt>
      <trkpt lat="47.86997" lon="3.44459">
        <ele>123</ele>
      </trkpt>
      <trkpt lat="47.86998" lon="3.4445">
        <ele>123</ele>
      </trkpt>
      <trkpt lat="47.86991" lon="3.44436">
        <ele>124</ele>
      </trkpt>
      <trkpt lat="47.86979" lon="3.44427">
        <ele>124</ele>
      </trkpt>
      <trkpt lat="47.86942" lon="3.44407">
        <ele>124</ele>
      </trkpt>
      <trkpt lat="47.86914" lon="3.44395">
        <ele>124</ele>
      </trkpt>
      <trkpt lat="47.86895" lon="3.44388">
        <ele>124</ele>
      </trkpt>
      <trkpt lat="47.86874" lon="3.44382">
        <ele>124</ele>
      </trkpt>
      <trkpt lat="47.86863" lon="3.44371">
        <ele>124</ele>
      </trkpt>
      <trkpt lat="47.86857" lon="3.44356">
        <ele>124</ele>
      </trkpt>
      <trkpt lat="47.86853" lon="3.44332">
        <ele>124</ele>
      </trkpt>
      <trkpt lat="47.86835" lon="3.44312">
        <ele>124</ele>
      </trkpt>
      <trkpt lat="47.86808" lon="3.44292">
        <ele>123</ele>
      </trkpt>
      <trkpt lat="47.86768" lon="3.44262">
        <ele>123</ele>
      </trkpt>
      <trkpt lat="47.86707" lon="3.44213">
        <ele>121</ele>
      </trkpt>
      <trkpt lat="47.86702" lon="3.44207">
        <ele>121</ele>
      </trkpt>
      <trkpt lat="47.86694" lon="3.44188">
        <ele>121</ele>
      </trkpt>
      <trkpt lat="47.86669" lon="3.44184">
        <ele>120</ele>
      </trkpt>
      <trkpt lat="47.86645" lon="3.44186">
        <ele>121</ele>
      </trkpt>
      <trkpt lat="47.86628" lon="3.44195">
        <ele>121</ele>
      </trkpt>
      <trkpt lat="47.86584" lon="3.44149">
        <ele>120</ele>
      </trkpt>
      <trkpt lat="47.86531" lon="3.441">
        <ele>124</ele>
      </trkpt>
      <trkpt lat="47.86393" lon="3.44017">
        <ele>125</ele>
      </trkpt>
      <trkpt lat="47.86356" lon="3.44006">
        <ele>124</ele>
      </trkpt>
      <trkpt lat="47.86196" lon="3.4397">
        <ele>124</ele>
      </trkpt>
      <trkpt lat="47.86148" lon="3.43955">
        <ele>125</ele>
      </trkpt>
      <trkpt lat="47.86111" lon="3.43948">
        <ele>125</ele>
      </trkpt>
      <trkpt lat="47.86024" lon="3.4394">
        <ele>122</ele>
      </trkpt>
      <trkpt lat="47.85968" lon="3.43966">
        <ele>121</ele>
      </trkpt>
      <trkpt lat="47.85651" lon="3.44132">
        <ele>129</ele>
      </trkpt>
      <trkpt lat="47.85615" lon="3.44158">
        <ele>129</ele>
      </trkpt>
      <trkpt lat="47.85538" lon="3.4427">
        <ele>131</ele>
      </trkpt>
      <trkpt lat="47.85402" lon="3.44505">
        <ele>132</ele>
      </trkpt>
      <trkpt lat="47.85339" lon="3.44612">
        <ele>134</ele>
      </trkpt>
      <trkpt lat="47.85309" lon="3.4464">
        <ele>134</ele>
      </trkpt>
      <trkpt lat="47.85267" lon="3.44679">
        <ele>135</ele>
      </trkpt>
      <trkpt lat="47.85238" lon="3.44698">
        <ele>133</ele>
      </trkpt>
      <trkpt lat="47.8518" lon="3.44732">
        <ele>132</ele>
      </trkpt>
      <trkpt lat="47.85055" lon="3.44785">
        <ele>134</ele>
      </trkpt>
      <trkpt lat="47.84983" lon="3.44825">
        <ele>135</ele>
      </trkpt>
      <trkpt lat="47.84872" lon="3.44945">
        <ele>137</ele>
      </trkpt>
      <trkpt lat="47.84799" lon="3.45021">
        <ele>136</ele>
      </trkpt>
      <trkpt lat="47.8465" lon="3.45196">
        <ele>142</ele>
      </trkpt>
      <trkpt lat="47.84472" lon="3.45378">
        <ele>143</ele>
      </trkpt>
      <trkpt lat="47.84371" lon="3.45446">
        <ele>143</ele>
      </trkpt>
      <trkpt lat="47.84198" lon="3.45545">
        <ele>145</ele>
      </trkpt>
      <trkpt lat="47.84149" lon="3.45594">
        <ele>148</ele>
      </trkpt>
      <trkpt lat="47.84106" lon="3.45697">
        <ele>155</ele>
      </trkpt>
      <trkpt lat="47.84072" lon="3.45772">
        <ele>157</ele>
      </trkpt>
      <trkpt lat="47.84046" lon="3.45812">
        <ele>157</ele>
      </trkpt>
      <trkpt lat="47.83927" lon="3.4588">
        <ele>159</ele>
      </trkpt>
      <trkpt lat="47.83894" lon="3.45911">
        <ele>160</ele>
      </trkpt>
      <trkpt lat="47.83835" lon="3.45974">
        <ele>165</ele>
      </trkpt>
      <trkpt lat="47.83739" lon="3.4605">
        <ele>169</ele>
      </trkpt>
      <trkpt lat="47.83667" lon="3.46094">
        <ele>170</ele>
      </trkpt>
      <trkpt lat="47.8361" lon="3.46117">
        <ele>170</ele>
      </trkpt>
      <trkpt lat="47.83546" lon="3.46128">
        <ele>169</ele>
      </trkpt>
      <trkpt lat="47.83489" lon="3.46128">
        <ele>171</ele>
      </trkpt>
      <trkpt lat="47.83401" lon="3.46107">
        <ele>173</ele>
      </trkpt>
      <trkpt lat="47.83217" lon="3.4606">
        <ele>177</ele>
      </trkpt>
      <trkpt lat="47.83193" lon="3.46028">
        <ele>177</ele>
      </trkpt>
      <trkpt lat="47.83179" lon="3.4602">
        <ele>177</ele>
      </trkpt>
      <trkpt lat="47.83171" lon="3.46001">
        <ele>177</ele>
      </trkpt>
      <trkpt lat="47.83143" lon="3.45983">
        <ele>177</ele>
      </trkpt>
      <trkpt lat="47.83043" lon="3.45936">
        <ele>177</ele>
      </trkpt>
      <trkpt lat="47.82965" lon="3.45904">
        <ele>178</ele>
      </trkpt>
      <trkpt lat="47.82921" lon="3.45876">
        <ele>178</ele>
      </trkpt>
      <trkpt lat="47.82794" lon="3.4578">
        <ele>177</ele>
      </trkpt>
      <trkpt lat="47.82599" lon="3.45615">
        <ele>180</ele>
      </trkpt>
      <trkpt lat="47.82566" lon="3.45655">
        <ele>179</ele>
      </trkpt>
      <trkpt lat="47.82553" lon="3.45703">
        <ele>178</ele>
      </trkpt>
      <trkpt lat="47.8253" lon="3.45842">
        <ele>176</ele>
      </trkpt>
      <trkpt lat="47.82533" lon="3.45927">
        <ele>175</ele>
      </trkpt>
      <trkpt lat="47.82507" lon="3.46111">
        <ele>170</ele>
      </trkpt>
      <trkpt lat="47.82492" lon="3.46202">
        <ele>169</ele>
      </trkpt>
      <trkpt lat="47.82469" lon="3.46314">
        <ele>166</ele>
      </trkpt>
      <trkpt lat="47.82459" lon="3.46384">
        <ele>164</ele>
      </trkpt>
      <trkpt lat="47.82439" lon="3.46599">
        <ele>158</ele>
      </trkpt>
      <trkpt lat="47.82379" lon="3.46608">
        <ele>158</ele>
      </trkpt>
      <trkpt lat="47.82376" lon="3.46645">
        <ele>157</ele>
      </trkpt>
      <trkpt lat="47.8237" lon="3.46684">
        <ele>155</ele>
      </trkpt>
      <trkpt lat="47.82365" lon="3.46714">
        <ele>155</ele>
      </trkpt>
    </trkseg>
  </trk>
  <trk>
    <name><![CDATA[10 Charbuy => Vincelles]]></name>
    <extensions>
      <line xmlns="http://www.topografix.com/GPX/gpx_style/0/2">
        <color>000088</color>
        <width>4</width>
      </line>
    </extensions>
    <trkseg>
      <trkpt lat="47.82367" lon="3.46713">
        <ele>155</ele>
      </trkpt>
      <trkpt lat="47.82381" lon="3.46612">
        <ele>158</ele>
      </trkpt>
      <trkpt lat="47.82441" lon="3.46595">
        <ele>158</ele>
      </trkpt>
      <trkpt lat="47.82611" lon="3.46717">
        <ele>155</ele>
      </trkpt>
      <trkpt lat="47.82591" lon="3.46823">
        <ele>153</ele>
      </trkpt>
      <trkpt lat="47.82572" lon="3.46898">
        <ele>154</ele>
      </trkpt>
      <trkpt lat="47.82539" lon="3.47002">
        <ele>150</ele>
      </trkpt>
      <trkpt lat="47.82462" lon="3.47214">
        <ele>144</ele>
      </trkpt>
      <trkpt lat="47.82435" lon="3.47295">
        <ele>145</ele>
      </trkpt>
      <trkpt lat="47.82417" lon="3.47396">
        <ele>149</ele>
      </trkpt>
      <trkpt lat="47.82415" lon="3.47446">
        <ele>151</ele>
      </trkpt>
      <trkpt lat="47.82416" lon="3.47717">
        <ele>148</ele>
      </trkpt>
      <trkpt lat="47.82427" lon="3.47925">
        <ele>142</ele>
      </trkpt>
      <trkpt lat="47.82493" lon="3.48031">
        <ele>138</ele>
      </trkpt>
      <trkpt lat="47.82595" lon="3.48188">
        <ele>134</ele>
      </trkpt>
      <trkpt lat="47.82675" lon="3.48294">
        <ele>132</ele>
      </trkpt>
      <trkpt lat="47.82692" lon="3.48318">
        <ele>131</ele>
      </trkpt>
      <trkpt lat="47.82698" lon="3.4835">
        <ele>131</ele>
      </trkpt>
      <trkpt lat="47.82711" lon="3.48424">
        <ele>131</ele>
      </trkpt>
      <trkpt lat="47.82715" lon="3.4846">
        <ele>131</ele>
      </trkpt>
      <trkpt lat="47.82716" lon="3.48485">
        <ele>130</ele>
      </trkpt>
      <trkpt lat="47.82714" lon="3.48506">
        <ele>129</ele>
      </trkpt>
      <trkpt lat="47.82716" lon="3.48557">
        <ele>129</ele>
      </trkpt>
      <trkpt lat="47.82723" lon="3.48637">
        <ele>130</ele>
      </trkpt>
      <trkpt lat="47.82728" lon="3.48689">
        <ele>130</ele>
      </trkpt>
      <trkpt lat="47.82734" lon="3.48744">
        <ele>130</ele>
      </trkpt>
      <trkpt lat="47.82732" lon="3.4879">
        <ele>129</ele>
      </trkpt>
      <trkpt lat="47.82728" lon="3.48835">
        <ele>128</ele>
      </trkpt>
      <trkpt lat="47.82724" lon="3.48874">
        <ele>127</ele>
      </trkpt>
      <trkpt lat="47.82718" lon="3.48897">
        <ele>127</ele>
      </trkpt>
      <trkpt lat="47.82706" lon="3.48924">
        <ele>126</ele>
      </trkpt>
      <trkpt lat="47.82695" lon="3.48942">
        <ele>126</ele>
      </trkpt>
      <trkpt lat="47.8269" lon="3.48948">
        <ele>126</ele>
      </trkpt>
      <trkpt lat="47.82683" lon="3.48952">
        <ele>126</ele>
      </trkpt>
      <trkpt lat="47.82667" lon="3.48955">
        <ele>126</ele>
      </trkpt>
      <trkpt lat="47.82656" lon="3.4896">
        <ele>127</ele>
      </trkpt>
      <trkpt lat="47.82649" lon="3.48961">
        <ele>127</ele>
      </trkpt>
      <trkpt lat="47.82645" lon="3.48966">
        <ele>127</ele>
      </trkpt>
      <trkpt lat="47.82642" lon="3.48973">
        <ele>127</ele>
      </trkpt>
      <trkpt lat="47.82641" lon="3.48982">
        <ele>127</ele>
      </trkpt>
      <trkpt lat="47.82642" lon="3.48993">
        <ele>127</ele>
      </trkpt>
      <trkpt lat="47.82643" lon="3.49003">
        <ele>128</ele>
      </trkpt>
      <trkpt lat="47.82645" lon="3.49011">
        <ele>128</ele>
      </trkpt>
      <trkpt lat="47.82644" lon="3.49016">
        <ele>128</ele>
      </trkpt>
      <trkpt lat="47.8264" lon="3.49019">
        <ele>128</ele>
      </trkpt>
      <trkpt lat="47.82616" lon="3.49044">
        <ele>128</ele>
      </trkpt>
      <trkpt lat="47.82594" lon="3.49072">
        <ele>129</ele>
      </trkpt>
      <trkpt lat="47.82574" lon="3.49098">
        <ele>129</ele>
      </trkpt>
      <trkpt lat="47.82564" lon="3.49111">
        <ele>128</ele>
      </trkpt>
      <trkpt lat="47.82551" lon="3.49122">
        <ele>128</ele>
      </trkpt>
      <trkpt lat="47.82528" lon="3.49137">
        <ele>127</ele>
      </trkpt>
      <trkpt lat="47.8251" lon="3.49146">
        <ele>127</ele>
      </trkpt>
      <trkpt lat="47.82505" lon="3.49148">
        <ele>127</ele>
      </trkpt>
      <trkpt lat="47.82494" lon="3.49154">
        <ele>126</ele>
      </trkpt>
      <trkpt lat="47.82483" lon="3.49154">
        <ele>126</ele>
      </trkpt>
      <trkpt lat="47.82471" lon="3.49158">
        <ele>126</ele>
      </trkpt>
      <trkpt lat="47.82465" lon="3.49162">
        <ele>126</ele>
      </trkpt>
      <trkpt lat="47.8246" lon="3.4917">
        <ele>126</ele>
      </trkpt>
      <trkpt lat="47.82461" lon="3.49179">
        <ele>125</ele>
      </trkpt>
      <trkpt lat="47.82465" lon="3.49189">
        <ele>125</ele>
      </trkpt>
      <trkpt lat="47.82508" lon="3.49276">
        <ele>126</ele>
      </trkpt>
      <trkpt lat="47.82512" lon="3.49285">
        <ele>126</ele>
      </trkpt>
      <trkpt lat="47.82511" lon="3.49293">
        <ele>126</ele>
      </trkpt>
      <trkpt lat="47.82508" lon="3.493">
        <ele>126</ele>
      </trkpt>
      <trkpt lat="47.82497" lon="3.49311">
        <ele>125</ele>
      </trkpt>
      <trkpt lat="47.82481" lon="3.49322">
        <ele>125</ele>
      </trkpt>
      <trkpt lat="47.82466" lon="3.49333">
        <ele>125</ele>
      </trkpt>
      <trkpt lat="47.82451" lon="3.4935">
        <ele>125</ele>
      </trkpt>
      <trkpt lat="47.82428" lon="3.49387">
        <ele>125</ele>
      </trkpt>
      <trkpt lat="47.82409" lon="3.49423">
        <ele>123</ele>
      </trkpt>
      <trkpt lat="47.82399" lon="3.49439">
        <ele>123</ele>
      </trkpt>
      <trkpt lat="47.82383" lon="3.49458">
        <ele>123</ele>
      </trkpt>
      <trkpt lat="47.82349" lon="3.49492">
        <ele>123</ele>
      </trkpt>
      <trkpt lat="47.82329" lon="3.49519">
        <ele>123</ele>
      </trkpt>
      <trkpt lat="47.8231" lon="3.49539">
        <ele>124</ele>
      </trkpt>
      <trkpt lat="47.82298" lon="3.4955">
        <ele>124</ele>
      </trkpt>
      <trkpt lat="47.82289" lon="3.49554">
        <ele>124</ele>
      </trkpt>
      <trkpt lat="47.82277" lon="3.49557">
        <ele>124</ele>
      </trkpt>
      <trkpt lat="47.8225" lon="3.49563">
        <ele>124</ele>
      </trkpt>
      <trkpt lat="47.82193" lon="3.49574">
        <ele>124</ele>
      </trkpt>
      <trkpt lat="47.82191" lon="3.49585">
        <ele>124</ele>
      </trkpt>
      <trkpt lat="47.82174" lon="3.49606">
        <ele>123</ele>
      </trkpt>
      <trkpt lat="47.82106" lon="3.49672">
        <ele>121</ele>
      </trkpt>
      <trkpt lat="47.82087" lon="3.49686">
        <ele>121</ele>
      </trkpt>
      <trkpt lat="47.82077" lon="3.49697">
        <ele>120</ele>
      </trkpt>
      <trkpt lat="47.82075" lon="3.49711">
        <ele>120</ele>
      </trkpt>
      <trkpt lat="47.82081" lon="3.49736">
        <ele>119</ele>
      </trkpt>
      <trkpt lat="47.82097" lon="3.49772">
        <ele>122</ele>
      </trkpt>
      <trkpt lat="47.8211" lon="3.4982">
        <ele>124</ele>
      </trkpt>
      <trkpt lat="47.82114" lon="3.49831">
        <ele>124</ele>
      </trkpt>
      <trkpt lat="47.82105" lon="3.49838">
        <ele>126</ele>
      </trkpt>
      <trkpt lat="47.82072" lon="3.49871">
        <ele>126</ele>
      </trkpt>
      <trkpt lat="47.81988" lon="3.50028">
        <ele>127</ele>
      </trkpt>
      <trkpt lat="47.81948" lon="3.50147">
        <ele>127</ele>
      </trkpt>
      <trkpt lat="47.8194" lon="3.50196">
        <ele>128</ele>
      </trkpt>
      <trkpt lat="47.81876" lon="3.50265">
        <ele>122</ele>
      </trkpt>
      <trkpt lat="47.81817" lon="3.50335">
        <ele>121</ele>
      </trkpt>
      <trkpt lat="47.81789" lon="3.5035">
        <ele>121</ele>
      </trkpt>
      <trkpt lat="47.81687" lon="3.50395">
        <ele>126</ele>
      </trkpt>
      <trkpt lat="47.81665" lon="3.50411">
        <ele>129</ele>
      </trkpt>
      <trkpt lat="47.81643" lon="3.50438">
        <ele>132</ele>
      </trkpt>
      <trkpt lat="47.81616" lon="3.50476">
        <ele>134</ele>
      </trkpt>
      <trkpt lat="47.8157" lon="3.50542">
        <ele>143</ele>
      </trkpt>
      <trkpt lat="47.81549" lon="3.50567">
        <ele>145</ele>
      </trkpt>
      <trkpt lat="47.81541" lon="3.50579">
        <ele>146</ele>
      </trkpt>
      <trkpt lat="47.81532" lon="3.50624">
        <ele>149</ele>
      </trkpt>
      <trkpt lat="47.81507" lon="3.50751">
        <ele>156</ele>
      </trkpt>
      <trkpt lat="47.81487" lon="3.50832">
        <ele>159</ele>
      </trkpt>
      <trkpt lat="47.81473" lon="3.50871">
        <ele>160</ele>
      </trkpt>
      <trkpt lat="47.81429" lon="3.51006">
        <ele>158</ele>
      </trkpt>
      <trkpt lat="47.81352" lon="3.51238">
        <ele>152</ele>
      </trkpt>
      <trkpt lat="47.81283" lon="3.51443">
        <ele>143</ele>
      </trkpt>
      <trkpt lat="47.81259" lon="3.51499">
        <ele>140</ele>
      </trkpt>
      <trkpt lat="47.8124" lon="3.51527">
        <ele>135</ele>
      </trkpt>
      <trkpt lat="47.81206" lon="3.51549">
        <ele>133</ele>
      </trkpt>
      <trkpt lat="47.81184" lon="3.51596">
        <ele>130</ele>
      </trkpt>
      <trkpt lat="47.81028" lon="3.51907">
        <ele>112</ele>
      </trkpt>
      <trkpt lat="47.80997" lon="3.51979">
        <ele>112</ele>
      </trkpt>
      <trkpt lat="47.80926" lon="3.52184">
        <ele>112</ele>
      </trkpt>
      <trkpt lat="47.80819" lon="3.52524">
        <ele>126</ele>
      </trkpt>
      <trkpt lat="47.80796" lon="3.5259">
        <ele>130</ele>
      </trkpt>
      <trkpt lat="47.80777" lon="3.52621">
        <ele>131</ele>
      </trkpt>
      <trkpt lat="47.80759" lon="3.52649">
        <ele>132</ele>
      </trkpt>
      <trkpt lat="47.80749" lon="3.5267">
        <ele>134</ele>
      </trkpt>
      <trkpt lat="47.80738" lon="3.52704">
        <ele>136</ele>
      </trkpt>
      <trkpt lat="47.80736" lon="3.52734">
        <ele>137</ele>
      </trkpt>
      <trkpt lat="47.80741" lon="3.528">
        <ele>140</ele>
      </trkpt>
      <trkpt lat="47.80741" lon="3.52824">
        <ele>139</ele>
      </trkpt>
      <trkpt lat="47.80733" lon="3.52871">
        <ele>141</ele>
      </trkpt>
      <trkpt lat="47.80719" lon="3.52962">
        <ele>145</ele>
      </trkpt>
      <trkpt lat="47.807" lon="3.5301">
        <ele>148</ele>
      </trkpt>
      <trkpt lat="47.80682" lon="3.53046">
        <ele>149</ele>
      </trkpt>
      <trkpt lat="47.80669" lon="3.53061">
        <ele>150</ele>
      </trkpt>
      <trkpt lat="47.80665" lon="3.53073">
        <ele>152</ele>
      </trkpt>
      <trkpt lat="47.80665" lon="3.53082">
        <ele>152</ele>
      </trkpt>
      <trkpt lat="47.80668" lon="3.53093">
        <ele>152</ele>
      </trkpt>
      <trkpt lat="47.80674" lon="3.53102">
        <ele>152</ele>
      </trkpt>
      <trkpt lat="47.80679" lon="3.53116">
        <ele>153</ele>
      </trkpt>
      <trkpt lat="47.80683" lon="3.53126">
        <ele>153</ele>
      </trkpt>
      <trkpt lat="47.80683" lon="3.53137">
        <ele>153</ele>
      </trkpt>
      <trkpt lat="47.8068" lon="3.53153">
        <ele>154</ele>
      </trkpt>
      <trkpt lat="47.80675" lon="3.53166">
        <ele>154</ele>
      </trkpt>
      <trkpt lat="47.8064" lon="3.53225">
        <ele>157</ele>
      </trkpt>
      <trkpt lat="47.80638" lon="3.53237">
        <ele>157</ele>
      </trkpt>
      <trkpt lat="47.80639" lon="3.53252">
        <ele>158</ele>
      </trkpt>
      <trkpt lat="47.80644" lon="3.5327">
        <ele>158</ele>
      </trkpt>
      <trkpt lat="47.80654" lon="3.53296">
        <ele>158</ele>
      </trkpt>
      <trkpt lat="47.80652" lon="3.5331">
        <ele>158</ele>
      </trkpt>
      <trkpt lat="47.80646" lon="3.53327">
        <ele>159</ele>
      </trkpt>
      <trkpt lat="47.80639" lon="3.53338">
        <ele>160</ele>
      </trkpt>
      <trkpt lat="47.80622" lon="3.53357">
        <ele>161</ele>
      </trkpt>
      <trkpt lat="47.80612" lon="3.53368">
        <ele>161</ele>
      </trkpt>
      <trkpt lat="47.80567" lon="3.53517">
        <ele>167</ele>
      </trkpt>
      <trkpt lat="47.80543" lon="3.53557">
        <ele>168</ele>
      </trkpt>
      <trkpt lat="47.80457" lon="3.53664">
        <ele>172</ele>
      </trkpt>
      <trkpt lat="47.80429" lon="3.53698">
        <ele>174</ele>
      </trkpt>
      <trkpt lat="47.80398" lon="3.53768">
        <ele>178</ele>
      </trkpt>
      <trkpt lat="47.80356" lon="3.53874">
        <ele>182</ele>
      </trkpt>
      <trkpt lat="47.8033" lon="3.53927">
        <ele>186</ele>
      </trkpt>
      <trkpt lat="47.80289" lon="3.54004">
        <ele>189</ele>
      </trkpt>
      <trkpt lat="47.80257" lon="3.54062">
        <ele>190</ele>
      </trkpt>
      <trkpt lat="47.80242" lon="3.54098">
        <ele>192</ele>
      </trkpt>
      <trkpt lat="47.80228" lon="3.54136">
        <ele>193</ele>
      </trkpt>
      <trkpt lat="47.8019" lon="3.5426">
        <ele>197</ele>
      </trkpt>
      <trkpt lat="47.80169" lon="3.54324">
        <ele>201</ele>
      </trkpt>
      <trkpt lat="47.80156" lon="3.54361">
        <ele>203</ele>
      </trkpt>
      <trkpt lat="47.80146" lon="3.54387">
        <ele>203</ele>
      </trkpt>
      <trkpt lat="47.8013" lon="3.54489">
        <ele>205</ele>
      </trkpt>
      <trkpt lat="47.80117" lon="3.54634">
        <ele>203</ele>
      </trkpt>
      <trkpt lat="47.80086" lon="3.54791">
        <ele>198</ele>
      </trkpt>
      <trkpt lat="47.80078" lon="3.54826">
        <ele>198</ele>
      </trkpt>
      <trkpt lat="47.80074" lon="3.54869">
        <ele>197</ele>
      </trkpt>
      <trkpt lat="47.80037" lon="3.5502">
        <ele>189</ele>
      </trkpt>
      <trkpt lat="47.79959" lon="3.55294">
        <ele>175</ele>
      </trkpt>
      <trkpt lat="47.79899" lon="3.55492">
        <ele>164</ele>
      </trkpt>
      <trkpt lat="47.7976" lon="3.55846">
        <ele>136</ele>
      </trkpt>
      <trkpt lat="47.79632" lon="3.56165">
        <ele>135</ele>
      </trkpt>
      <trkpt lat="47.796" lon="3.5627">
        <ele>134</ele>
      </trkpt>
      <trkpt lat="47.79576" lon="3.56376">
        <ele>133</ele>
      </trkpt>
      <trkpt lat="47.79567" lon="3.56418">
        <ele>132</ele>
      </trkpt>
      <trkpt lat="47.79554" lon="3.56457">
        <ele>132</ele>
      </trkpt>
      <trkpt lat="47.79543" lon="3.56529">
        <ele>130</ele>
      </trkpt>
      <trkpt lat="47.79544" lon="3.5664">
        <ele>129</ele>
      </trkpt>
      <trkpt lat="47.79559" lon="3.5676">
        <ele>129</ele>
      </trkpt>
      <trkpt lat="47.7957" lon="3.5686">
        <ele>129</ele>
      </trkpt>
      <trkpt lat="47.79581" lon="3.56881">
        <ele>130</ele>
      </trkpt>
      <trkpt lat="47.79596" lon="3.56895">
        <ele>127</ele>
      </trkpt>
      <trkpt lat="47.79612" lon="3.56907">
        <ele>126</ele>
      </trkpt>
      <trkpt lat="47.79626" lon="3.56937">
        <ele>127</ele>
      </trkpt>
      <trkpt lat="47.79637" lon="3.56991">
        <ele>127</ele>
      </trkpt>
      <trkpt lat="47.79648" lon="3.57033">
        <ele>129</ele>
      </trkpt>
      <trkpt lat="47.79668" lon="3.57082">
        <ele>130</ele>
      </trkpt>
      <trkpt lat="47.79709" lon="3.57152">
        <ele>125</ele>
      </trkpt>
      <trkpt lat="47.79736" lon="3.57186">
        <ele>124</ele>
      </trkpt>
      <trkpt lat="47.79755" lon="3.57209">
        <ele>122</ele>
      </trkpt>
      <trkpt lat="47.79767" lon="3.5721">
        <ele>122</ele>
      </trkpt>
      <trkpt lat="47.79775" lon="3.57227">
        <ele>122</ele>
      </trkpt>
      <trkpt lat="47.79764" lon="3.57221">
        <ele>122</ele>
      </trkpt>
      <trkpt lat="47.79754" lon="3.5722">
        <ele>122</ele>
      </trkpt>
      <trkpt lat="47.79719" lon="3.57256">
        <ele>121</ele>
      </trkpt>
      <trkpt lat="47.79692" lon="3.57226">
        <ele>123</ele>
      </trkpt>
      <trkpt lat="47.79652" lon="3.5715">
        <ele>127</ele>
      </trkpt>
      <trkpt lat="47.79619" lon="3.57079">
        <ele>130</ele>
      </trkpt>
      <trkpt lat="47.7961" lon="3.57028">
        <ele>129</ele>
      </trkpt>
      <trkpt lat="47.79588" lon="3.56974">
        <ele>128</ele>
      </trkpt>
      <trkpt lat="47.79562" lon="3.56921">
        <ele>130</ele>
      </trkpt>
      <trkpt lat="47.79503" lon="3.56952">
        <ele>132</ele>
      </trkpt>
      <trkpt lat="47.79495" lon="3.56969">
        <ele>133</ele>
      </trkpt>
      <trkpt lat="47.79473" lon="3.57064">
        <ele>129</ele>
      </trkpt>
      <trkpt lat="47.79468" lon="3.57086">
        <ele>125</ele>
      </trkpt>
      <trkpt lat="47.79456" lon="3.57093">
        <ele>124</ele>
      </trkpt>
      <trkpt lat="47.79442" lon="3.57103">
        <ele>124</ele>
      </trkpt>
      <trkpt lat="47.79423" lon="3.57128">
        <ele>122</ele>
      </trkpt>
      <trkpt lat="47.79407" lon="3.57145">
        <ele>121</ele>
      </trkpt>
      <trkpt lat="47.79394" lon="3.57154">
        <ele>120</ele>
      </trkpt>
      <trkpt lat="47.79385" lon="3.57165">
        <ele>120</ele>
      </trkpt>
      <trkpt lat="47.79377" lon="3.57189">
        <ele>116</ele>
      </trkpt>
      <trkpt lat="47.79346" lon="3.57175">
        <ele>117</ele>
      </trkpt>
      <trkpt lat="47.79332" lon="3.57168">
        <ele>118</ele>
      </trkpt>
      <trkpt lat="47.79264" lon="3.57209">
        <ele>115</ele>
      </trkpt>
      <trkpt lat="47.79201" lon="3.57241">
        <ele>112</ele>
      </trkpt>
      <trkpt lat="47.7907" lon="3.57316">
        <ele>106</ele>
      </trkpt>
      <trkpt lat="47.78921" lon="3.57406">
        <ele>107</ele>
      </trkpt>
      <trkpt lat="47.78816" lon="3.57454">
        <ele>107</ele>
      </trkpt>
      <trkpt lat="47.78707" lon="3.5751">
        <ele>110</ele>
      </trkpt>
      <trkpt lat="47.78557" lon="3.57561">
        <ele>124</ele>
      </trkpt>
      <trkpt lat="47.78509" lon="3.57579">
        <ele>127</ele>
      </trkpt>
      <trkpt lat="47.78367" lon="3.5756">
        <ele>135</ele>
      </trkpt>
      <trkpt lat="47.7827" lon="3.57537">
        <ele>140</ele>
      </trkpt>
      <trkpt lat="47.78274" lon="3.57554">
        <ele>140</ele>
      </trkpt>
      <trkpt lat="47.7826" lon="3.57548">
        <ele>140</ele>
      </trkpt>
      <trkpt lat="47.78242" lon="3.57545">
        <ele>142</ele>
      </trkpt>
      <trkpt lat="47.78227" lon="3.57543">
        <ele>142</ele>
      </trkpt>
      <trkpt lat="47.78221" lon="3.57541">
        <ele>143</ele>
      </trkpt>
      <trkpt lat="47.78213" lon="3.57543">
        <ele>143</ele>
      </trkpt>
      <trkpt lat="47.78201" lon="3.5754">
        <ele>143</ele>
      </trkpt>
      <trkpt lat="47.78151" lon="3.57531">
        <ele>146</ele>
      </trkpt>
      <trkpt lat="47.78141" lon="3.57526">
        <ele>146</ele>
      </trkpt>
      <trkpt lat="47.78125" lon="3.57524">
        <ele>147</ele>
      </trkpt>
      <trkpt lat="47.78114" lon="3.57521">
        <ele>147</ele>
      </trkpt>
      <trkpt lat="47.78104" lon="3.57523">
        <ele>147</ele>
      </trkpt>
      <trkpt lat="47.78082" lon="3.57521">
        <ele>150</ele>
      </trkpt>
      <trkpt lat="47.78031" lon="3.57511">
        <ele>149</ele>
      </trkpt>
      <trkpt lat="47.78011" lon="3.57507">
        <ele>149</ele>
      </trkpt>
      <trkpt lat="47.77972" lon="3.57499">
        <ele>148</ele>
      </trkpt>
      <trkpt lat="47.77945" lon="3.57495">
        <ele>148</ele>
      </trkpt>
      <trkpt lat="47.7793" lon="3.57493">
        <ele>148</ele>
      </trkpt>
      <trkpt lat="47.77921" lon="3.57494">
        <ele>148</ele>
      </trkpt>
      <trkpt lat="47.77913" lon="3.57506">
        <ele>149</ele>
      </trkpt>
      <trkpt lat="47.77907" lon="3.57522">
        <ele>150</ele>
      </trkpt>
      <trkpt lat="47.77904" lon="3.57545">
        <ele>150</ele>
      </trkpt>
      <trkpt lat="47.77902" lon="3.57561">
        <ele>150</ele>
      </trkpt>
      <trkpt lat="47.77901" lon="3.57578">
        <ele>149</ele>
      </trkpt>
      <trkpt lat="47.77899" lon="3.57597">
        <ele>150</ele>
      </trkpt>
      <trkpt lat="47.77896" lon="3.57612">
        <ele>151</ele>
      </trkpt>
      <trkpt lat="47.77893" lon="3.57627">
        <ele>152</ele>
      </trkpt>
      <trkpt lat="47.77887" lon="3.57637">
        <ele>152</ele>
      </trkpt>
      <trkpt lat="47.77882" lon="3.57642">
        <ele>152</ele>
      </trkpt>
      <trkpt lat="47.77866" lon="3.5765">
        <ele>152</ele>
      </trkpt>
      <trkpt lat="47.77684" lon="3.57745">
        <ele>163</ele>
      </trkpt>
      <trkpt lat="47.7765" lon="3.57761">
        <ele>167</ele>
      </trkpt>
      <trkpt lat="47.77558" lon="3.57815">
        <ele>172</ele>
      </trkpt>
      <trkpt lat="47.77499" lon="3.57858">
        <ele>176</ele>
      </trkpt>
      <trkpt lat="47.77401" lon="3.5793">
        <ele>177</ele>
      </trkpt>
      <trkpt lat="47.77346" lon="3.57964">
        <ele>177</ele>
      </trkpt>
      <trkpt lat="47.77302" lon="3.5799">
        <ele>178</ele>
      </trkpt>
      <trkpt lat="47.77272" lon="3.58003">
        <ele>179</ele>
      </trkpt>
      <trkpt lat="47.77201" lon="3.58027">
        <ele>180</ele>
      </trkpt>
      <trkpt lat="47.77182" lon="3.58027">
        <ele>181</ele>
      </trkpt>
      <trkpt lat="47.77065" lon="3.58079">
        <ele>181</ele>
      </trkpt>
      <trkpt lat="47.76991" lon="3.58118">
        <ele>179</ele>
      </trkpt>
      <trkpt lat="47.76886" lon="3.58187">
        <ele>175</ele>
      </trkpt>
      <trkpt lat="47.76836" lon="3.58225">
        <ele>174</ele>
      </trkpt>
      <trkpt lat="47.76798" lon="3.58251">
        <ele>172</ele>
      </trkpt>
      <trkpt lat="47.76767" lon="3.58261">
        <ele>174</ele>
      </trkpt>
      <trkpt lat="47.76721" lon="3.58284">
        <ele>179</ele>
      </trkpt>
      <trkpt lat="47.76669" lon="3.58316">
        <ele>181</ele>
      </trkpt>
      <trkpt lat="47.76631" lon="3.58345">
        <ele>184</ele>
      </trkpt>
      <trkpt lat="47.76558" lon="3.58394">
        <ele>187</ele>
      </trkpt>
      <trkpt lat="47.76511" lon="3.58421">
        <ele>189</ele>
      </trkpt>
      <trkpt lat="47.76482" lon="3.5843">
        <ele>190</ele>
      </trkpt>
      <trkpt lat="47.76423" lon="3.58455">
        <ele>191</ele>
      </trkpt>
      <trkpt lat="47.76352" lon="3.58486">
        <ele>193</ele>
      </trkpt>
      <trkpt lat="47.76287" lon="3.58514">
        <ele>192</ele>
      </trkpt>
      <trkpt lat="47.76196" lon="3.58551">
        <ele>189</ele>
      </trkpt>
      <trkpt lat="47.7616" lon="3.58571">
        <ele>187</ele>
      </trkpt>
      <trkpt lat="47.76106" lon="3.58595">
        <ele>187</ele>
      </trkpt>
      <trkpt lat="47.76077" lon="3.58611">
        <ele>186</ele>
      </trkpt>
      <trkpt lat="47.76054" lon="3.58635">
        <ele>186</ele>
      </trkpt>
      <trkpt lat="47.75991" lon="3.58689">
        <ele>182</ele>
      </trkpt>
      <trkpt lat="47.75951" lon="3.58722">
        <ele>180</ele>
      </trkpt>
      <trkpt lat="47.75937" lon="3.58737">
        <ele>179</ele>
      </trkpt>
      <trkpt lat="47.75915" lon="3.58745">
        <ele>174</ele>
      </trkpt>
      <trkpt lat="47.75896" lon="3.58754">
        <ele>172</ele>
      </trkpt>
      <trkpt lat="47.75869" lon="3.58757">
        <ele>168</ele>
      </trkpt>
      <trkpt lat="47.75851" lon="3.58759">
        <ele>165</ele>
      </trkpt>
      <trkpt lat="47.7583" lon="3.58754">
        <ele>157</ele>
      </trkpt>
      <trkpt lat="47.75814" lon="3.5875">
        <ele>154</ele>
      </trkpt>
      <trkpt lat="47.75801" lon="3.5875">
        <ele>151</ele>
      </trkpt>
      <trkpt lat="47.75782" lon="3.58757">
        <ele>147</ele>
      </trkpt>
      <trkpt lat="47.75765" lon="3.58763">
        <ele>143</ele>
      </trkpt>
      <trkpt lat="47.75748" lon="3.58769">
        <ele>131</ele>
      </trkpt>
      <trkpt lat="47.75729" lon="3.58775">
        <ele>129</ele>
      </trkpt>
      <trkpt lat="47.75719" lon="3.58779">
        <ele>128</ele>
      </trkpt>
      <trkpt lat="47.75705" lon="3.5878">
        <ele>126</ele>
      </trkpt>
      <trkpt lat="47.75688" lon="3.58785">
        <ele>124</ele>
      </trkpt>
      <trkpt lat="47.75675" lon="3.58795">
        <ele>123</ele>
      </trkpt>
      <trkpt lat="47.75662" lon="3.58809">
        <ele>115</ele>
      </trkpt>
      <trkpt lat="47.75653" lon="3.58821">
        <ele>115</ele>
      </trkpt>
      <trkpt lat="47.75643" lon="3.58827">
        <ele>115</ele>
      </trkpt>
      <trkpt lat="47.75629" lon="3.58833">
        <ele>114</ele>
      </trkpt>
      <trkpt lat="47.75618" lon="3.58834">
        <ele>113</ele>
      </trkpt>
      <trkpt lat="47.75614" lon="3.58833">
        <ele>114</ele>
      </trkpt>
      <trkpt lat="47.75585" lon="3.58964">
        <ele>107</ele>
      </trkpt>
      <trkpt lat="47.75584" lon="3.58996">
        <ele>105</ele>
      </trkpt>
      <trkpt lat="47.75557" lon="3.58991">
        <ele>104</ele>
      </trkpt>
      <trkpt lat="47.75513" lon="3.58988">
        <ele>103</ele>
      </trkpt>
      <trkpt lat="47.75486" lon="3.58985">
        <ele>103</ele>
      </trkpt>
      <trkpt lat="47.75479" lon="3.58986">
        <ele>103</ele>
      </trkpt>
      <trkpt lat="47.75445" lon="3.59079">
        <ele>101</ele>
      </trkpt>
      <trkpt lat="47.75414" lon="3.59162">
        <ele>101</ele>
      </trkpt>
      <trkpt lat="47.75409" lon="3.59174">
        <ele>101</ele>
      </trkpt>
      <trkpt lat="47.75406" lon="3.59171">
        <ele>101</ele>
      </trkpt>
      <trkpt lat="47.75405" lon="3.59167">
        <ele>101</ele>
      </trkpt>
      <trkpt lat="47.75405" lon="3.59153">
        <ele>101</ele>
      </trkpt>
      <trkpt lat="47.75387" lon="3.59126">
        <ele>100</ele>
      </trkpt>
      <trkpt lat="47.75369" lon="3.59124">
        <ele>100</ele>
      </trkpt>
      <trkpt lat="47.75304" lon="3.59063">
        <ele>100</ele>
      </trkpt>
      <trkpt lat="47.75247" lon="3.59015">
        <ele>100</ele>
      </trkpt>
      <trkpt lat="47.75185" lon="3.58975">
        <ele>100</ele>
      </trkpt>
      <trkpt lat="47.75141" lon="3.58949">
        <ele>102</ele>
      </trkpt>
      <trkpt lat="47.7506" lon="3.5892">
        <ele>103</ele>
      </trkpt>
      <trkpt lat="47.74973" lon="3.58886">
        <ele>104</ele>
      </trkpt>
      <trkpt lat="47.74926" lon="3.58869">
        <ele>103</ele>
      </trkpt>
      <trkpt lat="47.74853" lon="3.58838">
        <ele>103</ele>
      </trkpt>
      <trkpt lat="47.74815" lon="3.5881">
        <ele>104</ele>
      </trkpt>
      <trkpt lat="47.74766" lon="3.58773">
        <ele>104</ele>
      </trkpt>
      <trkpt lat="47.74732" lon="3.58748">
        <ele>105</ele>
      </trkpt>
      <trkpt lat="47.74699" lon="3.58733">
        <ele>105</ele>
      </trkpt>
      <trkpt lat="47.74664" lon="3.58723">
        <ele>104</ele>
      </trkpt>
      <trkpt lat="47.74607" lon="3.58717">
        <ele>104</ele>
      </trkpt>
      <trkpt lat="47.74572" lon="3.5872">
        <ele>105</ele>
      </trkpt>
      <trkpt lat="47.74538" lon="3.58735">
        <ele>105</ele>
      </trkpt>
      <trkpt lat="47.74489" lon="3.58762">
        <ele>105</ele>
      </trkpt>
      <trkpt lat="47.74409" lon="3.58806">
        <ele>104</ele>
      </trkpt>
      <trkpt lat="47.74357" lon="3.58831">
        <ele>104</ele>
      </trkpt>
      <trkpt lat="47.7429" lon="3.58874">
        <ele>103</ele>
      </trkpt>
      <trkpt lat="47.74226" lon="3.58917">
        <ele>102</ele>
      </trkpt>
      <trkpt lat="47.74238" lon="3.59019">
        <ele>102</ele>
      </trkpt>
      <trkpt lat="47.7427" lon="3.5924">
        <ele>101</ele>
      </trkpt>
      <trkpt lat="47.74186" lon="3.59271">
        <ele>100</ele>
      </trkpt>
      <trkpt lat="47.74129" lon="3.59281">
        <ele>101</ele>
      </trkpt>
      <trkpt lat="47.7408" lon="3.59291">
        <ele>101</ele>
      </trkpt>
      <trkpt lat="47.74044" lon="3.59299">
        <ele>102</ele>
      </trkpt>
      <trkpt lat="47.74028" lon="3.59323">
        <ele>101</ele>
      </trkpt>
      <trkpt lat="47.74005" lon="3.59361">
        <ele>101</ele>
      </trkpt>
      <trkpt lat="47.73922" lon="3.59465">
        <ele>100</ele>
      </trkpt>
      <trkpt lat="47.73801" lon="3.5961">
        <ele>100</ele>
      </trkpt>
      <trkpt lat="47.73798" lon="3.59629">
        <ele>100</ele>
      </trkpt>
      <trkpt lat="47.7381" lon="3.59669">
        <ele>101</ele>
      </trkpt>
      <trkpt lat="47.73814" lon="3.59695">
        <ele>101</ele>
      </trkpt>
      <trkpt lat="47.73811" lon="3.59724">
        <ele>102</ele>
      </trkpt>
      <trkpt lat="47.73791" lon="3.59766">
        <ele>102</ele>
      </trkpt>
      <trkpt lat="47.73771" lon="3.59811">
        <ele>102</ele>
      </trkpt>
      <trkpt lat="47.73757" lon="3.59829">
        <ele>103</ele>
      </trkpt>
      <trkpt lat="47.73735" lon="3.59848">
        <ele>103</ele>
      </trkpt>
      <trkpt lat="47.73702" lon="3.59877">
        <ele>103</ele>
      </trkpt>
      <trkpt lat="47.73644" lon="3.59918">
        <ele>103</ele>
      </trkpt>
      <trkpt lat="47.73592" lon="3.5996">
        <ele>103</ele>
      </trkpt>
      <trkpt lat="47.73546" lon="3.60004">
        <ele>102</ele>
      </trkpt>
      <trkpt lat="47.73515" lon="3.60027">
        <ele>102</ele>
      </trkpt>
      <trkpt lat="47.73476" lon="3.60052">
        <ele>101</ele>
      </trkpt>
      <trkpt lat="47.73457" lon="3.60062">
        <ele>101</ele>
      </trkpt>
      <trkpt lat="47.73437" lon="3.60069">
        <ele>101</ele>
      </trkpt>
      <trkpt lat="47.73422" lon="3.60064">
        <ele>101</ele>
      </trkpt>
      <trkpt lat="47.73406" lon="3.60063">
        <ele>100</ele>
      </trkpt>
      <trkpt lat="47.73394" lon="3.60063">
        <ele>100</ele>
      </trkpt>
      <trkpt lat="47.73375" lon="3.60071">
        <ele>100</ele>
      </trkpt>
      <trkpt lat="47.73262" lon="3.60151">
        <ele>102</ele>
      </trkpt>
      <trkpt lat="47.73226" lon="3.60033">
        <ele>101</ele>
      </trkpt>
      <trkpt lat="47.73177" lon="3.60074">
        <ele>101</ele>
      </trkpt>
      <trkpt lat="47.73124" lon="3.6011">
        <ele>102</ele>
      </trkpt>
      <trkpt lat="47.73098" lon="3.60152">
        <ele>102</ele>
      </trkpt>
      <trkpt lat="47.73087" lon="3.6018">
        <ele>103</ele>
      </trkpt>
      <trkpt lat="47.73079" lon="3.60237">
        <ele>102</ele>
      </trkpt>
      <trkpt lat="47.73074" lon="3.60267">
        <ele>102</ele>
      </trkpt>
      <trkpt lat="47.73056" lon="3.60294">
        <ele>102</ele>
      </trkpt>
      <trkpt lat="47.72978" lon="3.60408">
        <ele>103</ele>
      </trkpt>
      <trkpt lat="47.72896" lon="3.60535">
        <ele>101</ele>
      </trkpt>
      <trkpt lat="47.72792" lon="3.60695">
        <ele>100</ele>
      </trkpt>
      <trkpt lat="47.72767" lon="3.60729">
        <ele>100</ele>
      </trkpt>
      <trkpt lat="47.7275" lon="3.60735">
        <ele>100</ele>
      </trkpt>
      <trkpt lat="47.72711" lon="3.60756">
        <ele>105</ele>
      </trkpt>
      <trkpt lat="47.72677" lon="3.60781">
        <ele>107</ele>
      </trkpt>
      <trkpt lat="47.72644" lon="3.60812">
        <ele>107</ele>
      </trkpt>
      <trkpt lat="47.72613" lon="3.60838">
        <ele>105</ele>
      </trkpt>
      <trkpt lat="47.72581" lon="3.60885">
        <ele>104</ele>
      </trkpt>
      <trkpt lat="47.72561" lon="3.60922">
        <ele>103</ele>
      </trkpt>
      <trkpt lat="47.72525" lon="3.61024">
        <ele>102</ele>
      </trkpt>
      <trkpt lat="47.72495" lon="3.61126">
        <ele>103</ele>
      </trkpt>
      <trkpt lat="47.7246" lon="3.61246">
        <ele>103</ele>
      </trkpt>
      <trkpt lat="47.72439" lon="3.61334">
        <ele>103</ele>
      </trkpt>
      <trkpt lat="47.7243" lon="3.61378">
        <ele>103</ele>
      </trkpt>
      <trkpt lat="47.72418" lon="3.61476">
        <ele>102</ele>
      </trkpt>
      <trkpt lat="47.72414" lon="3.61516">
        <ele>102</ele>
      </trkpt>
      <trkpt lat="47.72412" lon="3.6154">
        <ele>102</ele>
      </trkpt>
      <trkpt lat="47.72406" lon="3.61558">
        <ele>102</ele>
      </trkpt>
      <trkpt lat="47.72407" lon="3.61568">
        <ele>102</ele>
      </trkpt>
      <trkpt lat="47.72412" lon="3.61585">
        <ele>101</ele>
      </trkpt>
      <trkpt lat="47.72413" lon="3.61595">
        <ele>101</ele>
      </trkpt>
      <trkpt lat="47.72364" lon="3.61917">
        <ele>108</ele>
      </trkpt>
      <trkpt lat="47.72332" lon="3.62125">
        <ele>108</ele>
      </trkpt>
      <trkpt lat="47.7233" lon="3.62145">
        <ele>107</ele>
      </trkpt>
      <trkpt lat="47.7232" lon="3.62147">
        <ele>107</ele>
      </trkpt>
      <trkpt lat="47.72311" lon="3.62152">
        <ele>107</ele>
      </trkpt>
      <trkpt lat="47.72308" lon="3.62159">
        <ele>107</ele>
      </trkpt>
      <trkpt lat="47.7231" lon="3.62177">
        <ele>104</ele>
      </trkpt>
      <trkpt lat="47.72313" lon="3.62211">
        <ele>103</ele>
      </trkpt>
      <trkpt lat="47.72301" lon="3.62297">
        <ele>102</ele>
      </trkpt>
      <trkpt lat="47.72277" lon="3.62383">
        <ele>103</ele>
      </trkpt>
      <trkpt lat="47.72257" lon="3.62457">
        <ele>103</ele>
      </trkpt>
      <trkpt lat="47.72224" lon="3.62525">
        <ele>102</ele>
      </trkpt>
      <trkpt lat="47.7214" lon="3.62703">
        <ele>105</ele>
      </trkpt>
      <trkpt lat="47.7208" lon="3.62838">
        <ele>104</ele>
      </trkpt>
      <trkpt lat="47.72051" lon="3.62898">
        <ele>103</ele>
      </trkpt>
      <trkpt lat="47.72031" lon="3.62943">
        <ele>103</ele>
      </trkpt>
      <trkpt lat="47.72015" lon="3.62967">
        <ele>104</ele>
      </trkpt>
      <trkpt lat="47.71936" lon="3.63056">
        <ele>108</ele>
      </trkpt>
      <trkpt lat="47.71863" lon="3.63138">
        <ele>107</ele>
      </trkpt>
      <trkpt lat="47.71806" lon="3.63198">
        <ele>106</ele>
      </trkpt>
      <trkpt lat="47.71667" lon="3.63319">
        <ele>105</ele>
      </trkpt>
      <trkpt lat="47.7148" lon="3.63487">
        <ele>104</ele>
      </trkpt>
      <trkpt lat="47.71404" lon="3.63555">
        <ele>102</ele>
      </trkpt>
      <trkpt lat="47.71344" lon="3.63599">
        <ele>103</ele>
      </trkpt>
      <trkpt lat="47.71317" lon="3.63612">
        <ele>103</ele>
      </trkpt>
      <trkpt lat="47.71276" lon="3.6363">
        <ele>104</ele>
      </trkpt>
      <trkpt lat="47.71242" lon="3.63641">
        <ele>104</ele>
      </trkpt>
      <trkpt lat="47.7121" lon="3.63642">
        <ele>104</ele>
      </trkpt>
      <trkpt lat="47.71028" lon="3.63631">
        <ele>105</ele>
      </trkpt>
      <trkpt lat="47.70933" lon="3.63626">
        <ele>104</ele>
      </trkpt>
      <trkpt lat="47.70807" lon="3.63622">
        <ele>104</ele>
      </trkpt>
      <trkpt lat="47.70634" lon="3.63611">
        <ele>105</ele>
      </trkpt>
      <trkpt lat="47.70614" lon="3.63609">
        <ele>105</ele>
      </trkpt>
    </trkseg>
  </trk>
  <trk>
    <name><![CDATA[11 Vincelles => Lac Sauvin]]></name>
    <extensions>
      <line xmlns="http://www.topografix.com/GPX/gpx_style/0/2">
        <color>008800</color>
        <width>4</width>
      </line>
    </extensions>
    <trkseg>
      <trkpt lat="47.70615" lon="3.63613">
        <ele>105</ele>
      </trkpt>
      <trkpt lat="47.70266" lon="3.63629">
        <ele>104</ele>
      </trkpt>
      <trkpt lat="47.70139" lon="3.63644">
        <ele>106</ele>
      </trkpt>
      <trkpt lat="47.69839" lon="3.64096">
        <ele>109</ele>
      </trkpt>
      <trkpt lat="47.69785" lon="3.64159">
        <ele>107</ele>
      </trkpt>
      <trkpt lat="47.69759" lon="3.64207">
        <ele>106</ele>
      </trkpt>
      <trkpt lat="47.6973" lon="3.64236">
        <ele>106</ele>
      </trkpt>
      <trkpt lat="47.69692" lon="3.64306">
        <ele>107</ele>
      </trkpt>
      <trkpt lat="47.69659" lon="3.64391">
        <ele>107</ele>
      </trkpt>
      <trkpt lat="47.69639" lon="3.64465">
        <ele>107</ele>
      </trkpt>
      <trkpt lat="47.69628" lon="3.64548">
        <ele>107</ele>
      </trkpt>
      <trkpt lat="47.6962" lon="3.64807">
        <ele>107</ele>
      </trkpt>
      <trkpt lat="47.69592" lon="3.65366">
        <ele>107</ele>
      </trkpt>
      <trkpt lat="47.69579" lon="3.65464">
        <ele>107</ele>
      </trkpt>
      <trkpt lat="47.69559" lon="3.65564">
        <ele>107</ele>
      </trkpt>
      <trkpt lat="47.69528" lon="3.65648">
        <ele>108</ele>
      </trkpt>
      <trkpt lat="47.69474" lon="3.6577">
        <ele>107</ele>
      </trkpt>
      <trkpt lat="47.69468" lon="3.65789">
        <ele>107</ele>
      </trkpt>
      <trkpt lat="47.69452" lon="3.65835">
        <ele>107</ele>
      </trkpt>
      <trkpt lat="47.69393" lon="3.65978">
        <ele>106</ele>
      </trkpt>
      <trkpt lat="47.69276" lon="3.66227">
        <ele>106</ele>
      </trkpt>
      <trkpt lat="47.68982" lon="3.66898">
        <ele>106</ele>
      </trkpt>
      <trkpt lat="47.68886" lon="3.67128">
        <ele>107</ele>
      </trkpt>
      <trkpt lat="47.68826" lon="3.67311">
        <ele>107</ele>
      </trkpt>
      <trkpt lat="47.68743" lon="3.67581">
        <ele>109</ele>
      </trkpt>
      <trkpt lat="47.68713" lon="3.67684">
        <ele>108</ele>
      </trkpt>
      <trkpt lat="47.68629" lon="3.67955">
        <ele>106</ele>
      </trkpt>
      <trkpt lat="47.68616" lon="3.67978">
        <ele>107</ele>
      </trkpt>
      <trkpt lat="47.68417" lon="3.68142">
        <ele>107</ele>
      </trkpt>
      <trkpt lat="47.68373" lon="3.68181">
        <ele>109</ele>
      </trkpt>
      <trkpt lat="47.68301" lon="3.68223">
        <ele>110</ele>
      </trkpt>
      <trkpt lat="47.68234" lon="3.68262">
        <ele>109</ele>
      </trkpt>
      <trkpt lat="47.68188" lon="3.68283">
        <ele>109</ele>
      </trkpt>
      <trkpt lat="47.68021" lon="3.68371">
        <ele>110</ele>
      </trkpt>
      <trkpt lat="47.67945" lon="3.68403">
        <ele>111</ele>
      </trkpt>
      <trkpt lat="47.67783" lon="3.6844">
        <ele>111</ele>
      </trkpt>
      <trkpt lat="47.67609" lon="3.68474">
        <ele>110</ele>
      </trkpt>
      <trkpt lat="47.67579" lon="3.68477">
        <ele>110</ele>
      </trkpt>
      <trkpt lat="47.67547" lon="3.68463">
        <ele>110</ele>
      </trkpt>
      <trkpt lat="47.67472" lon="3.68393">
        <ele>111</ele>
      </trkpt>
      <trkpt lat="47.67282" lon="3.68204">
        <ele>111</ele>
      </trkpt>
      <trkpt lat="47.67229" lon="3.68152">
        <ele>110</ele>
      </trkpt>
      <trkpt lat="47.6718" lon="3.68078">
        <ele>110</ele>
      </trkpt>
      <trkpt lat="47.67102" lon="3.67968">
        <ele>111</ele>
      </trkpt>
      <trkpt lat="47.67063" lon="3.67946">
        <ele>110</ele>
      </trkpt>
      <trkpt lat="47.66999" lon="3.67907">
        <ele>111</ele>
      </trkpt>
      <trkpt lat="47.66901" lon="3.67815">
        <ele>110</ele>
      </trkpt>
      <trkpt lat="47.66834" lon="3.67745">
        <ele>111</ele>
      </trkpt>
      <trkpt lat="47.66801" lon="3.67706">
        <ele>111</ele>
      </trkpt>
      <trkpt lat="47.66781" lon="3.67678">
        <ele>110</ele>
      </trkpt>
      <trkpt lat="47.66766" lon="3.67669">
        <ele>110</ele>
      </trkpt>
      <trkpt lat="47.66706" lon="3.67696">
        <ele>110</ele>
      </trkpt>
      <trkpt lat="47.66704" lon="3.67708">
        <ele>110</ele>
      </trkpt>
      <trkpt lat="47.66705" lon="3.67723">
        <ele>110</ele>
      </trkpt>
      <trkpt lat="47.66727" lon="3.67741">
        <ele>110</ele>
      </trkpt>
      <trkpt lat="47.66718" lon="3.67711">
        <ele>110</ele>
      </trkpt>
      <trkpt lat="47.66693" lon="3.67672">
        <ele>111</ele>
      </trkpt>
      <trkpt lat="47.66627" lon="3.6759">
        <ele>111</ele>
      </trkpt>
      <trkpt lat="47.66594" lon="3.67553">
        <ele>111</ele>
      </trkpt>
      <trkpt lat="47.66579" lon="3.67546">
        <ele>113</ele>
      </trkpt>
      <trkpt lat="47.66534" lon="3.67554">
        <ele>113</ele>
      </trkpt>
      <trkpt lat="47.66504" lon="3.67563">
        <ele>113</ele>
      </trkpt>
      <trkpt lat="47.66487" lon="3.67573">
        <ele>114</ele>
      </trkpt>
      <trkpt lat="47.66174" lon="3.67673">
        <ele>112</ele>
      </trkpt>
      <trkpt lat="47.66107" lon="3.67689">
        <ele>111</ele>
      </trkpt>
      <trkpt lat="47.66075" lon="3.67689">
        <ele>111</ele>
      </trkpt>
      <trkpt lat="47.66031" lon="3.67684">
        <ele>111</ele>
      </trkpt>
      <trkpt lat="47.65963" lon="3.67648">
        <ele>112</ele>
      </trkpt>
      <trkpt lat="47.65904" lon="3.676">
        <ele>112</ele>
      </trkpt>
      <trkpt lat="47.65847" lon="3.67547">
        <ele>112</ele>
      </trkpt>
      <trkpt lat="47.65675" lon="3.67399">
        <ele>112</ele>
      </trkpt>
      <trkpt lat="47.65527" lon="3.67269">
        <ele>115</ele>
      </trkpt>
      <trkpt lat="47.6542" lon="3.67176">
        <ele>113</ele>
      </trkpt>
      <trkpt lat="47.65382" lon="3.67144">
        <ele>113</ele>
      </trkpt>
      <trkpt lat="47.65358" lon="3.67128">
        <ele>113</ele>
      </trkpt>
      <trkpt lat="47.6513" lon="3.66933">
        <ele>113</ele>
      </trkpt>
      <trkpt lat="47.65025" lon="3.66844">
        <ele>113</ele>
      </trkpt>
      <trkpt lat="47.6501" lon="3.66837">
        <ele>114</ele>
      </trkpt>
      <trkpt lat="47.6499" lon="3.66828">
        <ele>113</ele>
      </trkpt>
      <trkpt lat="47.64977" lon="3.66843">
        <ele>114</ele>
      </trkpt>
      <trkpt lat="47.64955" lon="3.66873">
        <ele>113</ele>
      </trkpt>
      <trkpt lat="47.64925" lon="3.66891">
        <ele>114</ele>
      </trkpt>
      <trkpt lat="47.64854" lon="3.66927">
        <ele>118</ele>
      </trkpt>
      <trkpt lat="47.64816" lon="3.66951">
        <ele>121</ele>
      </trkpt>
      <trkpt lat="47.64757" lon="3.66996">
        <ele>122</ele>
      </trkpt>
      <trkpt lat="47.64629" lon="3.67026">
        <ele>123</ele>
      </trkpt>
      <trkpt lat="47.64591" lon="3.67035">
        <ele>123</ele>
      </trkpt>
      <trkpt lat="47.64447" lon="3.67093">
        <ele>125</ele>
      </trkpt>
      <trkpt lat="47.64196" lon="3.67204">
        <ele>130</ele>
      </trkpt>
      <trkpt lat="47.63938" lon="3.67319">
        <ele>133</ele>
      </trkpt>
      <trkpt lat="47.63745" lon="3.67407">
        <ele>138</ele>
      </trkpt>
      <trkpt lat="47.63682" lon="3.67427">
        <ele>140</ele>
      </trkpt>
      <trkpt lat="47.63643" lon="3.67433">
        <ele>143</ele>
      </trkpt>
      <trkpt lat="47.63604" lon="3.67434">
        <ele>144</ele>
      </trkpt>
      <trkpt lat="47.63593" lon="3.67435">
        <ele>145</ele>
      </trkpt>
      <trkpt lat="47.63579" lon="3.67437">
        <ele>148</ele>
      </trkpt>
      <trkpt lat="47.63567" lon="3.67443">
        <ele>149</ele>
      </trkpt>
      <trkpt lat="47.63557" lon="3.67452">
        <ele>150</ele>
      </trkpt>
      <trkpt lat="47.63534" lon="3.67477">
        <ele>151</ele>
      </trkpt>
      <trkpt lat="47.6352" lon="3.67485">
        <ele>152</ele>
      </trkpt>
      <trkpt lat="47.6351" lon="3.67494">
        <ele>154</ele>
      </trkpt>
      <trkpt lat="47.63478" lon="3.67508">
        <ele>159</ele>
      </trkpt>
      <trkpt lat="47.63438" lon="3.67522">
        <ele>161</ele>
      </trkpt>
      <trkpt lat="47.63412" lon="3.67541">
        <ele>167</ele>
      </trkpt>
      <trkpt lat="47.63394" lon="3.6755">
        <ele>168</ele>
      </trkpt>
      <trkpt lat="47.63379" lon="3.67552">
        <ele>168</ele>
      </trkpt>
      <trkpt lat="47.63365" lon="3.67556">
        <ele>169</ele>
      </trkpt>
      <trkpt lat="47.63308" lon="3.67583">
        <ele>174</ele>
      </trkpt>
      <trkpt lat="47.63254" lon="3.67612">
        <ele>176</ele>
      </trkpt>
      <trkpt lat="47.63251" lon="3.67618">
        <ele>176</ele>
      </trkpt>
      <trkpt lat="47.63119" lon="3.67671">
        <ele>185</ele>
      </trkpt>
      <trkpt lat="47.62981" lon="3.67733">
        <ele>193</ele>
      </trkpt>
      <trkpt lat="47.62964" lon="3.67747">
        <ele>194</ele>
      </trkpt>
      <trkpt lat="47.62932" lon="3.67777">
        <ele>196</ele>
      </trkpt>
      <trkpt lat="47.62903" lon="3.67809">
        <ele>197</ele>
      </trkpt>
      <trkpt lat="47.62867" lon="3.67859">
        <ele>197</ele>
      </trkpt>
      <trkpt lat="47.62688" lon="3.68144">
        <ele>194</ele>
      </trkpt>
      <trkpt lat="47.62612" lon="3.68256">
        <ele>192</ele>
      </trkpt>
      <trkpt lat="47.62521" lon="3.68387">
        <ele>190</ele>
      </trkpt>
      <trkpt lat="47.62472" lon="3.6844">
        <ele>188</ele>
      </trkpt>
      <trkpt lat="47.62424" lon="3.68473">
        <ele>187</ele>
      </trkpt>
      <trkpt lat="47.62389" lon="3.68493">
        <ele>183</ele>
      </trkpt>
      <trkpt lat="47.62383" lon="3.68503">
        <ele>183</ele>
      </trkpt>
      <trkpt lat="47.62356" lon="3.68503">
        <ele>182</ele>
      </trkpt>
      <trkpt lat="47.62303" lon="3.68494">
        <ele>177</ele>
      </trkpt>
      <trkpt lat="47.6229" lon="3.68493">
        <ele>176</ele>
      </trkpt>
      <trkpt lat="47.6227" lon="3.68483">
        <ele>175</ele>
      </trkpt>
      <trkpt lat="47.62249" lon="3.68458">
        <ele>170</ele>
      </trkpt>
      <trkpt lat="47.62228" lon="3.68442">
        <ele>170</ele>
      </trkpt>
      <trkpt lat="47.62171" lon="3.68416">
        <ele>163</ele>
      </trkpt>
      <trkpt lat="47.62122" lon="3.68396">
        <ele>156</ele>
      </trkpt>
      <trkpt lat="47.62097" lon="3.68383">
        <ele>155</ele>
      </trkpt>
      <trkpt lat="47.62062" lon="3.68357">
        <ele>149</ele>
      </trkpt>
      <trkpt lat="47.61996" lon="3.68348">
        <ele>142</ele>
      </trkpt>
      <trkpt lat="47.6193" lon="3.68331">
        <ele>133</ele>
      </trkpt>
      <trkpt lat="47.61904" lon="3.68338">
        <ele>133</ele>
      </trkpt>
      <trkpt lat="47.61884" lon="3.6835">
        <ele>132</ele>
      </trkpt>
      <trkpt lat="47.61832" lon="3.6838">
        <ele>126</ele>
      </trkpt>
      <trkpt lat="47.61794" lon="3.68383">
        <ele>125</ele>
      </trkpt>
      <trkpt lat="47.61791" lon="3.68389">
        <ele>125</ele>
      </trkpt>
      <trkpt lat="47.61758" lon="3.68418">
        <ele>125</ele>
      </trkpt>
      <trkpt lat="47.61658" lon="3.68491">
        <ele>125</ele>
      </trkpt>
      <trkpt lat="47.61593" lon="3.68532">
        <ele>130</ele>
      </trkpt>
      <trkpt lat="47.61568" lon="3.68569">
        <ele>128</ele>
      </trkpt>
      <trkpt lat="47.61549" lon="3.6861">
        <ele>133</ele>
      </trkpt>
      <trkpt lat="47.61519" lon="3.6869">
        <ele>138</ele>
      </trkpt>
      <trkpt lat="47.61498" lon="3.68772">
        <ele>139</ele>
      </trkpt>
      <trkpt lat="47.61464" lon="3.68847">
        <ele>141</ele>
      </trkpt>
      <trkpt lat="47.61359" lon="3.69218">
        <ele>163</ele>
      </trkpt>
      <trkpt lat="47.6134" lon="3.6931">
        <ele>168</ele>
      </trkpt>
      <trkpt lat="47.61322" lon="3.69443">
        <ele>173</ele>
      </trkpt>
      <trkpt lat="47.61326" lon="3.69517">
        <ele>176</ele>
      </trkpt>
      <trkpt lat="47.61327" lon="3.69644">
        <ele>180</ele>
      </trkpt>
      <trkpt lat="47.61313" lon="3.6976">
        <ele>185</ele>
      </trkpt>
      <trkpt lat="47.61302" lon="3.69804">
        <ele>186</ele>
      </trkpt>
      <trkpt lat="47.61277" lon="3.69868">
        <ele>188</ele>
      </trkpt>
      <trkpt lat="47.61192" lon="3.70074">
        <ele>199</ele>
      </trkpt>
      <trkpt lat="47.61174" lon="3.70122">
        <ele>201</ele>
      </trkpt>
      <trkpt lat="47.61067" lon="3.70296">
        <ele>203</ele>
      </trkpt>
      <trkpt lat="47.61035" lon="3.70356">
        <ele>206</ele>
      </trkpt>
      <trkpt lat="47.60978" lon="3.70462">
        <ele>209</ele>
      </trkpt>
      <trkpt lat="47.60912" lon="3.70579">
        <ele>210</ele>
      </trkpt>
      <trkpt lat="47.6086" lon="3.70676">
        <ele>215</ele>
      </trkpt>
      <trkpt lat="47.60654" lon="3.71042">
        <ele>210</ele>
      </trkpt>
      <trkpt lat="47.60593" lon="3.71132">
        <ele>211</ele>
      </trkpt>
      <trkpt lat="47.60497" lon="3.7129">
        <ele>217</ele>
      </trkpt>
      <trkpt lat="47.60443" lon="3.71381">
        <ele>221</ele>
      </trkpt>
      <trkpt lat="47.60384" lon="3.71489">
        <ele>220</ele>
      </trkpt>
      <trkpt lat="47.60306" lon="3.71642">
        <ele>208</ele>
      </trkpt>
      <trkpt lat="47.60292" lon="3.71661">
        <ele>208</ele>
      </trkpt>
      <trkpt lat="47.60255" lon="3.71728">
        <ele>211</ele>
      </trkpt>
      <trkpt lat="47.60149" lon="3.71912">
        <ele>214</ele>
      </trkpt>
      <trkpt lat="47.6007" lon="3.72066">
        <ele>215</ele>
      </trkpt>
      <trkpt lat="47.60028" lon="3.72143">
        <ele>217</ele>
      </trkpt>
      <trkpt lat="47.59979" lon="3.72234">
        <ele>218</ele>
      </trkpt>
      <trkpt lat="47.59923" lon="3.7231">
        <ele>222</ele>
      </trkpt>
      <trkpt lat="47.59838" lon="3.72464">
        <ele>224</ele>
      </trkpt>
      <trkpt lat="47.59831" lon="3.72471">
        <ele>221</ele>
      </trkpt>
      <trkpt lat="47.59798" lon="3.72538">
        <ele>221</ele>
      </trkpt>
      <trkpt lat="47.59709" lon="3.72698">
        <ele>221</ele>
      </trkpt>
      <trkpt lat="47.59637" lon="3.72833">
        <ele>220</ele>
      </trkpt>
      <trkpt lat="47.59636" lon="3.72848">
        <ele>221</ele>
      </trkpt>
      <trkpt lat="47.59633" lon="3.72865">
        <ele>221</ele>
      </trkpt>
      <trkpt lat="47.59627" lon="3.72878">
        <ele>221</ele>
      </trkpt>
      <trkpt lat="47.59565" lon="3.72981">
        <ele>215</ele>
      </trkpt>
      <trkpt lat="47.59408" lon="3.73257">
        <ele>214</ele>
      </trkpt>
      <trkpt lat="47.59368" lon="3.73331">
        <ele>214</ele>
      </trkpt>
      <trkpt lat="47.59321" lon="3.73416">
        <ele>214</ele>
      </trkpt>
      <trkpt lat="47.5916" lon="3.73705">
        <ele>212</ele>
      </trkpt>
      <trkpt lat="47.58945" lon="3.74097">
        <ele>220</ele>
      </trkpt>
      <trkpt lat="47.58788" lon="3.74362">
        <ele>221</ele>
      </trkpt>
      <trkpt lat="47.5876" lon="3.74391">
        <ele>222</ele>
      </trkpt>
      <trkpt lat="47.58739" lon="3.7441">
        <ele>225</ele>
      </trkpt>
      <trkpt lat="47.58723" lon="3.74418">
        <ele>228</ele>
      </trkpt>
      <trkpt lat="47.58704" lon="3.74436">
        <ele>230</ele>
      </trkpt>
      <trkpt lat="47.58691" lon="3.74445">
        <ele>231</ele>
      </trkpt>
      <trkpt lat="47.58567" lon="3.74549">
        <ele>248</ele>
      </trkpt>
      <trkpt lat="47.58554" lon="3.74569">
        <ele>248</ele>
      </trkpt>
      <trkpt lat="47.5854" lon="3.74575">
        <ele>249</ele>
      </trkpt>
      <trkpt lat="47.58526" lon="3.74564">
        <ele>249</ele>
      </trkpt>
      <trkpt lat="47.58448" lon="3.74514">
        <ele>251</ele>
      </trkpt>
      <trkpt lat="47.58421" lon="3.74495">
        <ele>251</ele>
      </trkpt>
      <trkpt lat="47.58366" lon="3.74446">
        <ele>251</ele>
      </trkpt>
      <trkpt lat="47.58323" lon="3.74409">
        <ele>250</ele>
      </trkpt>
      <trkpt lat="47.5827" lon="3.74372">
        <ele>249</ele>
      </trkpt>
      <trkpt lat="47.58241" lon="3.7435">
        <ele>247</ele>
      </trkpt>
      <trkpt lat="47.582" lon="3.74335">
        <ele>245</ele>
      </trkpt>
      <trkpt lat="47.58159" lon="3.74319">
        <ele>242</ele>
      </trkpt>
      <trkpt lat="47.58129" lon="3.7429">
        <ele>240</ele>
      </trkpt>
      <trkpt lat="47.58095" lon="3.7426">
        <ele>238</ele>
      </trkpt>
      <trkpt lat="47.58052" lon="3.74231">
        <ele>234</ele>
      </trkpt>
      <trkpt lat="47.58027" lon="3.74208">
        <ele>233</ele>
      </trkpt>
      <trkpt lat="47.57982" lon="3.74196">
        <ele>230</ele>
      </trkpt>
      <trkpt lat="47.57938" lon="3.74176">
        <ele>229</ele>
      </trkpt>
      <trkpt lat="47.57926" lon="3.74162">
        <ele>227</ele>
      </trkpt>
      <trkpt lat="47.57914" lon="3.74133">
        <ele>224</ele>
      </trkpt>
      <trkpt lat="47.57903" lon="3.74113">
        <ele>223</ele>
      </trkpt>
      <trkpt lat="47.57882" lon="3.74098">
        <ele>223</ele>
      </trkpt>
      <trkpt lat="47.5786" lon="3.74085">
        <ele>222</ele>
      </trkpt>
      <trkpt lat="47.57828" lon="3.7407">
        <ele>220</ele>
      </trkpt>
      <trkpt lat="47.57794" lon="3.74068">
        <ele>220</ele>
      </trkpt>
      <trkpt lat="47.57761" lon="3.74064">
        <ele>221</ele>
      </trkpt>
      <trkpt lat="47.57726" lon="3.74052">
        <ele>221</ele>
      </trkpt>
      <trkpt lat="47.5766" lon="3.7401">
        <ele>220</ele>
      </trkpt>
      <trkpt lat="47.5763" lon="3.73987">
        <ele>221</ele>
      </trkpt>
      <trkpt lat="47.57596" lon="3.73954">
        <ele>221</ele>
      </trkpt>
      <trkpt lat="47.5754" lon="3.73891">
        <ele>223</ele>
      </trkpt>
      <trkpt lat="47.57501" lon="3.73842">
        <ele>224</ele>
      </trkpt>
      <trkpt lat="47.57454" lon="3.73767">
        <ele>227</ele>
      </trkpt>
      <trkpt lat="47.57411" lon="3.73693">
        <ele>235</ele>
      </trkpt>
      <trkpt lat="47.57385" lon="3.73654">
        <ele>240</ele>
      </trkpt>
      <trkpt lat="47.57335" lon="3.7358">
        <ele>250</ele>
      </trkpt>
      <trkpt lat="47.57286" lon="3.73497">
        <ele>258</ele>
      </trkpt>
      <trkpt lat="47.57248" lon="3.7342">
        <ele>264</ele>
      </trkpt>
      <trkpt lat="47.57225" lon="3.73364">
        <ele>270</ele>
      </trkpt>
      <trkpt lat="47.57187" lon="3.73279">
        <ele>278</ele>
      </trkpt>
      <trkpt lat="47.57178" lon="3.73256">
        <ele>280</ele>
      </trkpt>
      <trkpt lat="47.57164" lon="3.73236">
        <ele>285</ele>
      </trkpt>
      <trkpt lat="47.57144" lon="3.73212">
        <ele>286</ele>
      </trkpt>
      <trkpt lat="47.57072" lon="3.73149">
        <ele>292</ele>
      </trkpt>
      <trkpt lat="47.57031" lon="3.73101">
        <ele>295</ele>
      </trkpt>
      <trkpt lat="47.57017" lon="3.73077">
        <ele>296</ele>
      </trkpt>
      <trkpt lat="47.57002" lon="3.73045">
        <ele>296</ele>
      </trkpt>
      <trkpt lat="47.56995" lon="3.7303">
        <ele>296</ele>
      </trkpt>
      <trkpt lat="47.56986" lon="3.73028">
        <ele>296</ele>
      </trkpt>
      <trkpt lat="47.56981" lon="3.73032">
        <ele>296</ele>
      </trkpt>
      <trkpt lat="47.56975" lon="3.73038">
        <ele>296</ele>
      </trkpt>
      <trkpt lat="47.56943" lon="3.73062">
        <ele>297</ele>
      </trkpt>
      <trkpt lat="47.569" lon="3.73098">
        <ele>299</ele>
      </trkpt>
      <trkpt lat="47.56887" lon="3.7311">
        <ele>300</ele>
      </trkpt>
      <trkpt lat="47.56864" lon="3.73117">
        <ele>300</ele>
      </trkpt>
      <trkpt lat="47.56826" lon="3.73122">
        <ele>302</ele>
      </trkpt>
      <trkpt lat="47.56794" lon="3.73134">
        <ele>302</ele>
      </trkpt>
      <trkpt lat="47.56775" lon="3.73148">
        <ele>301</ele>
      </trkpt>
      <trkpt lat="47.5675" lon="3.73167">
        <ele>300</ele>
      </trkpt>
      <trkpt lat="47.5672" lon="3.73197">
        <ele>296</ele>
      </trkpt>
      <trkpt lat="47.56711" lon="3.73203">
        <ele>295</ele>
      </trkpt>
      <trkpt lat="47.56696" lon="3.73204">
        <ele>295</ele>
      </trkpt>
      <trkpt lat="47.56662" lon="3.73207">
        <ele>289</ele>
      </trkpt>
      <trkpt lat="47.56637" lon="3.73213">
        <ele>288</ele>
      </trkpt>
      <trkpt lat="47.56619" lon="3.73222">
        <ele>286</ele>
      </trkpt>
      <trkpt lat="47.56565" lon="3.73258">
        <ele>278</ele>
      </trkpt>
      <trkpt lat="47.56545" lon="3.7328">
        <ele>276</ele>
      </trkpt>
      <trkpt lat="47.56527" lon="3.73302">
        <ele>275</ele>
      </trkpt>
      <trkpt lat="47.56503" lon="3.73352">
        <ele>271</ele>
      </trkpt>
      <trkpt lat="47.56468" lon="3.73408">
        <ele>261</ele>
      </trkpt>
      <trkpt lat="47.56408" lon="3.73479">
        <ele>249</ele>
      </trkpt>
      <trkpt lat="47.56366" lon="3.73536">
        <ele>246</ele>
      </trkpt>
      <trkpt lat="47.5636" lon="3.73549">
        <ele>245</ele>
      </trkpt>
      <trkpt lat="47.56316" lon="3.73611">
        <ele>237</ele>
      </trkpt>
      <trkpt lat="47.56293" lon="3.7364">
        <ele>235</ele>
      </trkpt>
      <trkpt lat="47.56255" lon="3.73675">
        <ele>230</ele>
      </trkpt>
      <trkpt lat="47.56243" lon="3.73687">
        <ele>226</ele>
      </trkpt>
      <trkpt lat="47.56232" lon="3.73693">
        <ele>225</ele>
      </trkpt>
      <trkpt lat="47.56224" lon="3.73704">
        <ele>224</ele>
      </trkpt>
      <trkpt lat="47.5622" lon="3.73726">
        <ele>224</ele>
      </trkpt>
      <trkpt lat="47.56215" lon="3.73805">
        <ele>224</ele>
      </trkpt>
      <trkpt lat="47.56214" lon="3.73821">
        <ele>224</ele>
      </trkpt>
      <trkpt lat="47.5621" lon="3.73827">
        <ele>223</ele>
      </trkpt>
      <trkpt lat="47.56197" lon="3.73818">
        <ele>222</ele>
      </trkpt>
      <trkpt lat="47.56178" lon="3.7381">
        <ele>221</ele>
      </trkpt>
      <trkpt lat="47.56139" lon="3.73806">
        <ele>218</ele>
      </trkpt>
      <trkpt lat="47.56121" lon="3.73803">
        <ele>218</ele>
      </trkpt>
      <trkpt lat="47.56091" lon="3.73785">
        <ele>219</ele>
      </trkpt>
      <trkpt lat="47.56044" lon="3.73746">
        <ele>224</ele>
      </trkpt>
      <trkpt lat="47.5601" lon="3.73723">
        <ele>224</ele>
      </trkpt>
      <trkpt lat="47.55976" lon="3.73709">
        <ele>227</ele>
      </trkpt>
      <trkpt lat="47.55942" lon="3.73696">
        <ele>227</ele>
      </trkpt>
      <trkpt lat="47.55916" lon="3.73697">
        <ele>225</ele>
      </trkpt>
      <trkpt lat="47.55889" lon="3.73695">
        <ele>224</ele>
      </trkpt>
      <trkpt lat="47.55869" lon="3.73691">
        <ele>223</ele>
      </trkpt>
      <trkpt lat="47.55857" lon="3.73682">
        <ele>223</ele>
      </trkpt>
      <trkpt lat="47.55837" lon="3.73679">
        <ele>223</ele>
      </trkpt>
      <trkpt lat="47.55823" lon="3.73693">
        <ele>219</ele>
      </trkpt>
      <trkpt lat="47.55758" lon="3.73772">
        <ele>212</ele>
      </trkpt>
      <trkpt lat="47.55699" lon="3.73852">
        <ele>208</ele>
      </trkpt>
      <trkpt lat="47.55662" lon="3.7391">
        <ele>208</ele>
      </trkpt>
      <trkpt lat="47.55615" lon="3.74013">
        <ele>212</ele>
      </trkpt>
      <trkpt lat="47.55608" lon="3.74045">
        <ele>212</ele>
      </trkpt>
      <trkpt lat="47.55603" lon="3.74062">
        <ele>212</ele>
      </trkpt>
      <trkpt lat="47.55595" lon="3.74102">
        <ele>213</ele>
      </trkpt>
      <trkpt lat="47.55582" lon="3.74121">
        <ele>214</ele>
      </trkpt>
      <trkpt lat="47.55561" lon="3.74137">
        <ele>214</ele>
      </trkpt>
    </trkseg>
  </trk>
  <trk>
    <name><![CDATA[12 Lac Sauvin => Vézelay]]></name>
    <extensions>
      <line xmlns="http://www.topografix.com/GPX/gpx_style/0/2">
        <color>880000</color>
        <width>4</width>
      </line>
    </extensions>
    <trkseg>
      <trkpt lat="47.55521" lon="3.74194">
        <ele>213</ele>
      </trkpt>
      <trkpt lat="47.55481" lon="3.74169">
        <ele>213</ele>
      </trkpt>
      <trkpt lat="47.55441" lon="3.7415">
        <ele>210</ele>
      </trkpt>
      <trkpt lat="47.55415" lon="3.74149">
        <ele>210</ele>
      </trkpt>
      <trkpt lat="47.55332" lon="3.74151">
        <ele>212</ele>
      </trkpt>
      <trkpt lat="47.55239" lon="3.74137">
        <ele>210</ele>
      </trkpt>
      <trkpt lat="47.55181" lon="3.74125">
        <ele>212</ele>
      </trkpt>
      <trkpt lat="47.55138" lon="3.74131">
        <ele>212</ele>
      </trkpt>
      <trkpt lat="47.55104" lon="3.74152">
        <ele>216</ele>
      </trkpt>
      <trkpt lat="47.55086" lon="3.74176">
        <ele>216</ele>
      </trkpt>
      <trkpt lat="47.55066" lon="3.74213">
        <ele>220</ele>
      </trkpt>
      <trkpt lat="47.5503" lon="3.74261">
        <ele>221</ele>
      </trkpt>
      <trkpt lat="47.54959" lon="3.74352">
        <ele>226</ele>
      </trkpt>
      <trkpt lat="47.54874" lon="3.74471">
        <ele>217</ele>
      </trkpt>
      <trkpt lat="47.54874" lon="3.74484">
        <ele>217</ele>
      </trkpt>
      <trkpt lat="47.54878" lon="3.7452">
        <ele>227</ele>
      </trkpt>
      <trkpt lat="47.54873" lon="3.74537">
        <ele>217</ele>
      </trkpt>
      <trkpt lat="47.54666" lon="3.74726">
        <ele>207</ele>
      </trkpt>
      <trkpt lat="47.54596" lon="3.74786">
        <ele>207</ele>
      </trkpt>
      <trkpt lat="47.54504" lon="3.74846">
        <ele>210</ele>
      </trkpt>
      <trkpt lat="47.54431" lon="3.7489">
        <ele>210</ele>
      </trkpt>
      <trkpt lat="47.54344" lon="3.74914">
        <ele>214</ele>
      </trkpt>
      <trkpt lat="47.54224" lon="3.74942">
        <ele>216</ele>
      </trkpt>
      <trkpt lat="47.54163" lon="3.74956">
        <ele>224</ele>
      </trkpt>
      <trkpt lat="47.5412" lon="3.74968">
        <ele>229</ele>
      </trkpt>
      <trkpt lat="47.54056" lon="3.75001">
        <ele>229</ele>
      </trkpt>
      <trkpt lat="47.53999" lon="3.75038">
        <ele>241</ele>
      </trkpt>
      <trkpt lat="47.53908" lon="3.7512">
        <ele>241</ele>
      </trkpt>
      <trkpt lat="47.53835" lon="3.75185">
        <ele>249</ele>
      </trkpt>
      <trkpt lat="47.53773" lon="3.75222">
        <ele>254</ele>
      </trkpt>
      <trkpt lat="47.53679" lon="3.75257">
        <ele>254</ele>
      </trkpt>
      <trkpt lat="47.53569" lon="3.75278">
        <ele>255</ele>
      </trkpt>
      <trkpt lat="47.53555" lon="3.75457">
        <ele>249</ele>
      </trkpt>
      <trkpt lat="47.53546" lon="3.75536">
        <ele>244</ele>
      </trkpt>
      <trkpt lat="47.5354" lon="3.75619">
        <ele>232</ele>
      </trkpt>
      <trkpt lat="47.5353" lon="3.7564">
        <ele>233</ele>
      </trkpt>
      <trkpt lat="47.53462" lon="3.75751">
        <ele>234</ele>
      </trkpt>
      <trkpt lat="47.53453" lon="3.75752">
        <ele>230</ele>
      </trkpt>
      <trkpt lat="47.53394" lon="3.75823">
        <ele>225</ele>
      </trkpt>
      <trkpt lat="47.53385" lon="3.75843">
        <ele>225</ele>
      </trkpt>
      <trkpt lat="47.53378" lon="3.75832">
        <ele>225</ele>
      </trkpt>
      <trkpt lat="47.53346" lon="3.75786">
        <ele>235</ele>
      </trkpt>
      <trkpt lat="47.53321" lon="3.75751">
        <ele>235</ele>
      </trkpt>
      <trkpt lat="47.53312" lon="3.75746">
        <ele>235</ele>
      </trkpt>
      <trkpt lat="47.53304" lon="3.7575">
        <ele>235</ele>
      </trkpt>
      <trkpt lat="47.53164" lon="3.75897">
        <ele>252</ele>
      </trkpt>
      <trkpt lat="47.5303" lon="3.7604">
        <ele>259</ele>
      </trkpt>
      <trkpt lat="47.5294" lon="3.76136">
        <ele>254</ele>
      </trkpt>
      <trkpt lat="47.52856" lon="3.76017">
        <ele>264</ele>
      </trkpt>
      <trkpt lat="47.52818" lon="3.75958">
        <ele>264</ele>
      </trkpt>
      <trkpt lat="47.52791" lon="3.759">
        <ele>268</ele>
      </trkpt>
      <trkpt lat="47.52773" lon="3.75818">
        <ele>260</ele>
      </trkpt>
      <trkpt lat="47.52695" lon="3.7571">
        <ele>264</ele>
      </trkpt>
      <trkpt lat="47.52659" lon="3.75684">
        <ele>254</ele>
      </trkpt>
      <trkpt lat="47.52595" lon="3.75593">
        <ele>259</ele>
      </trkpt>
      <trkpt lat="47.52569" lon="3.7555">
        <ele>259</ele>
      </trkpt>
      <trkpt lat="47.52544" lon="3.75523">
        <ele>259</ele>
      </trkpt>
      <trkpt lat="47.52489" lon="3.75501">
        <ele>261</ele>
      </trkpt>
      <trkpt lat="47.52453" lon="3.75488">
        <ele>262</ele>
      </trkpt>
      <trkpt lat="47.52445" lon="3.75481">
        <ele>262</ele>
      </trkpt>
      <trkpt lat="47.52428" lon="3.75485">
        <ele>262</ele>
      </trkpt>
      <trkpt lat="47.52398" lon="3.75474">
        <ele>262</ele>
      </trkpt>
      <trkpt lat="47.52364" lon="3.75467">
        <ele>259</ele>
      </trkpt>
      <trkpt lat="47.5234" lon="3.7546">
        <ele>259</ele>
      </trkpt>
      <trkpt lat="47.52318" lon="3.75469">
        <ele>259</ele>
      </trkpt>
      <trkpt lat="47.523" lon="3.75479">
        <ele>259</ele>
      </trkpt>
      <trkpt lat="47.52289" lon="3.75479">
        <ele>249</ele>
      </trkpt>
      <trkpt lat="47.5227" lon="3.75471">
        <ele>249</ele>
      </trkpt>
      <trkpt lat="47.52252" lon="3.75452">
        <ele>235</ele>
      </trkpt>
      <trkpt lat="47.522" lon="3.75419">
        <ele>227</ele>
      </trkpt>
      <trkpt lat="47.52173" lon="3.75404">
        <ele>227</ele>
      </trkpt>
      <trkpt lat="47.52139" lon="3.75394">
        <ele>227</ele>
      </trkpt>
      <trkpt lat="47.521" lon="3.754">
        <ele>207</ele>
      </trkpt>
      <trkpt lat="47.52079" lon="3.75397">
        <ele>207</ele>
      </trkpt>
      <trkpt lat="47.52066" lon="3.75391">
        <ele>207</ele>
      </trkpt>
      <trkpt lat="47.52025" lon="3.754">
        <ele>192</ele>
      </trkpt>
      <trkpt lat="47.51985" lon="3.75402">
        <ele>192</ele>
      </trkpt>
      <trkpt lat="47.51933" lon="3.75398">
        <ele>193</ele>
      </trkpt>
      <trkpt lat="47.51882" lon="3.75347">
        <ele>186</ele>
      </trkpt>
      <trkpt lat="47.51836" lon="3.753">
        <ele>188</ele>
      </trkpt>
      <trkpt lat="47.51798" lon="3.75273">
        <ele>182</ele>
      </trkpt>
      <trkpt lat="47.51753" lon="3.75242">
        <ele>181</ele>
      </trkpt>
      <trkpt lat="47.51698" lon="3.75198">
        <ele>176</ele>
      </trkpt>
      <trkpt lat="47.51656" lon="3.7516">
        <ele>176</ele>
      </trkpt>
      <trkpt lat="47.51574" lon="3.75083">
        <ele>173</ele>
      </trkpt>
      <trkpt lat="47.51524" lon="3.75045">
        <ele>177</ele>
      </trkpt>
      <trkpt lat="47.5145" lon="3.74999">
        <ele>169</ele>
      </trkpt>
      <trkpt lat="47.51418" lon="3.74997">
        <ele>169</ele>
      </trkpt>
      <trkpt lat="47.5139" lon="3.75025">
        <ele>169</ele>
      </trkpt>
      <trkpt lat="47.51359" lon="3.75065">
        <ele>173</ele>
      </trkpt>
      <trkpt lat="47.5133" lon="3.75088">
        <ele>173</ele>
      </trkpt>
      <trkpt lat="47.51277" lon="3.7511">
        <ele>163</ele>
      </trkpt>
      <trkpt lat="47.51209" lon="3.75128">
        <ele>175</ele>
      </trkpt>
      <trkpt lat="47.51147" lon="3.75163">
        <ele>167</ele>
      </trkpt>
      <trkpt lat="47.51115" lon="3.75179">
        <ele>159</ele>
      </trkpt>
      <trkpt lat="47.51012" lon="3.75215">
        <ele>156</ele>
      </trkpt>
      <trkpt lat="47.51002" lon="3.75205">
        <ele>153</ele>
      </trkpt>
      <trkpt lat="47.50993" lon="3.75203">
        <ele>153</ele>
      </trkpt>
      <trkpt lat="47.50986" lon="3.75193">
        <ele>153</ele>
      </trkpt>
      <trkpt lat="47.5097" lon="3.75183">
        <ele>153</ele>
      </trkpt>
      <trkpt lat="47.50902" lon="3.75169">
        <ele>153</ele>
      </trkpt>
      <trkpt lat="47.50803" lon="3.75304">
        <ele>148</ele>
      </trkpt>
      <trkpt lat="47.50775" lon="3.75301">
        <ele>158</ele>
      </trkpt>
      <trkpt lat="47.50756" lon="3.75312">
        <ele>158</ele>
      </trkpt>
      <trkpt lat="47.50702" lon="3.75304">
        <ele>164</ele>
      </trkpt>
      <trkpt lat="47.50665" lon="3.7529">
        <ele>177</ele>
      </trkpt>
      <trkpt lat="47.50623" lon="3.7526">
        <ele>167</ele>
      </trkpt>
      <trkpt lat="47.50577" lon="3.75234">
        <ele>167</ele>
      </trkpt>
      <trkpt lat="47.50527" lon="3.75223">
        <ele>170</ele>
      </trkpt>
      <trkpt lat="47.50464" lon="3.75223">
        <ele>170</ele>
      </trkpt>
      <trkpt lat="47.5041" lon="3.752">
        <ele>180</ele>
      </trkpt>
      <trkpt lat="47.50328" lon="3.75153">
        <ele>190</ele>
      </trkpt>
      <trkpt lat="47.50273" lon="3.75125">
        <ele>204</ele>
      </trkpt>
      <trkpt lat="47.50247" lon="3.75105">
        <ele>204</ele>
      </trkpt>
      <trkpt lat="47.5024" lon="3.75106">
        <ele>204</ele>
      </trkpt>
      <trkpt lat="47.50202" lon="3.75149">
        <ele>204</ele>
      </trkpt>
      <trkpt lat="47.50153" lon="3.75181">
        <ele>204</ele>
      </trkpt>
      <trkpt lat="47.50071" lon="3.75222">
        <ele>210</ele>
      </trkpt>
      <trkpt lat="47.5003" lon="3.75242">
        <ele>204</ele>
      </trkpt>
      <trkpt lat="47.4996" lon="3.75249">
        <ele>204</ele>
      </trkpt>
      <trkpt lat="47.49881" lon="3.75253">
        <ele>206</ele>
      </trkpt>
      <trkpt lat="47.4984" lon="3.75246">
        <ele>211</ele>
      </trkpt>
      <trkpt lat="47.49762" lon="3.75229">
        <ele>214</ele>
      </trkpt>
      <trkpt lat="47.49729" lon="3.75228">
        <ele>214</ele>
      </trkpt>
      <trkpt lat="47.49644" lon="3.75236">
        <ele>214</ele>
      </trkpt>
      <trkpt lat="47.49577" lon="3.75219">
        <ele>214</ele>
      </trkpt>
      <trkpt lat="47.49522" lon="3.7521">
        <ele>212</ele>
      </trkpt>
      <trkpt lat="47.49438" lon="3.75161">
        <ele>210</ele>
      </trkpt>
      <trkpt lat="47.49404" lon="3.75144">
        <ele>210</ele>
      </trkpt>
      <trkpt lat="47.49363" lon="3.75133">
        <ele>207</ele>
      </trkpt>
      <trkpt lat="47.49285" lon="3.75125">
        <ele>198</ele>
      </trkpt>
      <trkpt lat="47.49247" lon="3.75109">
        <ele>198</ele>
      </trkpt>
      <trkpt lat="47.4918" lon="3.75086">
        <ele>183</ele>
      </trkpt>
      <trkpt lat="47.49118" lon="3.75077">
        <ele>179</ele>
      </trkpt>
      <trkpt lat="47.49052" lon="3.75059">
        <ele>179</ele>
      </trkpt>
      <trkpt lat="47.48972" lon="3.75043">
        <ele>179</ele>
      </trkpt>
      <trkpt lat="47.48854" lon="3.74994">
        <ele>168</ele>
      </trkpt>
      <trkpt lat="47.48792" lon="3.74977">
        <ele>168</ele>
      </trkpt>
      <trkpt lat="47.48742" lon="3.74968">
        <ele>165</ele>
      </trkpt>
      <trkpt lat="47.48707" lon="3.74967">
        <ele>155</ele>
      </trkpt>
      <trkpt lat="47.4873" lon="3.74901">
        <ele>157</ele>
      </trkpt>
      <trkpt lat="47.48729" lon="3.74883">
        <ele>157</ele>
      </trkpt>
      <trkpt lat="47.48722" lon="3.74875">
        <ele>157</ele>
      </trkpt>
      <trkpt lat="47.48711" lon="3.74872">
        <ele>157</ele>
      </trkpt>
      <trkpt lat="47.48644" lon="3.74901">
        <ele>152</ele>
      </trkpt>
      <trkpt lat="47.4861" lon="3.74915">
        <ele>160</ele>
      </trkpt>
      <trkpt lat="47.4859" lon="3.7494">
        <ele>160</ele>
      </trkpt>
      <trkpt lat="47.48563" lon="3.74985">
        <ele>152</ele>
      </trkpt>
      <trkpt lat="47.48548" lon="3.74998">
        <ele>152</ele>
      </trkpt>
      <trkpt lat="47.48523" lon="3.75014">
        <ele>158</ele>
      </trkpt>
      <trkpt lat="47.485" lon="3.75019">
        <ele>158</ele>
      </trkpt>
      <trkpt lat="47.48452" lon="3.75028">
        <ele>160</ele>
      </trkpt>
      <trkpt lat="47.484" lon="3.75058">
        <ele>156</ele>
      </trkpt>
      <trkpt lat="47.48331" lon="3.75082">
        <ele>163</ele>
      </trkpt>
      <trkpt lat="47.48317" lon="3.75092">
        <ele>163</ele>
      </trkpt>
      <trkpt lat="47.48311" lon="3.7511">
        <ele>163</ele>
      </trkpt>
      <trkpt lat="47.48306" lon="3.75149">
        <ele>159</ele>
      </trkpt>
      <trkpt lat="47.48298" lon="3.75182">
        <ele>159</ele>
      </trkpt>
      <trkpt lat="47.48285" lon="3.75222">
        <ele>155</ele>
      </trkpt>
      <trkpt lat="47.48258" lon="3.75277">
        <ele>155</ele>
      </trkpt>
      <trkpt lat="47.48276" lon="3.75292">
        <ele>155</ele>
      </trkpt>
      <trkpt lat="47.48284" lon="3.75302">
        <ele>155</ele>
      </trkpt>
      <trkpt lat="47.48285" lon="3.75327">
        <ele>155</ele>
      </trkpt>
      <trkpt lat="47.48282" lon="3.75346">
        <ele>155</ele>
      </trkpt>
      <trkpt lat="47.48272" lon="3.75361">
        <ele>155</ele>
      </trkpt>
      <trkpt lat="47.48243" lon="3.7541">
        <ele>155</ele>
      </trkpt>
      <trkpt lat="47.48219" lon="3.75462">
        <ele>148</ele>
      </trkpt>
      <trkpt lat="47.48204" lon="3.75484">
        <ele>147</ele>
      </trkpt>
      <trkpt lat="47.48169" lon="3.75478">
        <ele>147</ele>
      </trkpt>
      <trkpt lat="47.48152" lon="3.75496">
        <ele>147</ele>
      </trkpt>
      <trkpt lat="47.48142" lon="3.75524">
        <ele>147</ele>
      </trkpt>
      <trkpt lat="47.48141" lon="3.75528">
        <ele>147</ele>
      </trkpt>
      <trkpt lat="47.48059" lon="3.75509">
        <ele>145</ele>
      </trkpt>
      <trkpt lat="47.47984" lon="3.75497">
        <ele>148</ele>
      </trkpt>
      <trkpt lat="47.47877" lon="3.75474">
        <ele>153</ele>
      </trkpt>
      <trkpt lat="47.47793" lon="3.75451">
        <ele>164</ele>
      </trkpt>
      <trkpt lat="47.47692" lon="3.75412">
        <ele>174</ele>
      </trkpt>
      <trkpt lat="47.47634" lon="3.75393">
        <ele>174</ele>
      </trkpt>
      <trkpt lat="47.47549" lon="3.75384">
        <ele>175</ele>
      </trkpt>
      <trkpt lat="47.47486" lon="3.75372">
        <ele>178</ele>
      </trkpt>
      <trkpt lat="47.47423" lon="3.75364">
        <ele>181</ele>
      </trkpt>
      <trkpt lat="47.4732" lon="3.75376">
        <ele>184</ele>
      </trkpt>
      <trkpt lat="47.47226" lon="3.75318">
        <ele>189</ele>
      </trkpt>
      <trkpt lat="47.47115" lon="3.7524">
        <ele>201</ele>
      </trkpt>
      <trkpt lat="47.47087" lon="3.75216">
        <ele>201</ele>
      </trkpt>
      <trkpt lat="47.47045" lon="3.75189">
        <ele>203</ele>
      </trkpt>
      <trkpt lat="47.47012" lon="3.75175">
        <ele>213</ele>
      </trkpt>
      <trkpt lat="47.46946" lon="3.751">
        <ele>230</ele>
      </trkpt>
      <trkpt lat="47.46913" lon="3.75051">
        <ele>230</ele>
      </trkpt>
      <trkpt lat="47.46872" lon="3.74952">
        <ele>259</ele>
      </trkpt>
      <trkpt lat="47.46844" lon="3.74892">
        <ele>259</ele>
      </trkpt>
      <trkpt lat="47.46821" lon="3.7486">
        <ele>255</ele>
      </trkpt>
      <trkpt lat="47.46761" lon="3.74801">
        <ele>280</ele>
      </trkpt>
      <trkpt lat="47.46712" lon="3.74756">
        <ele>274</ele>
      </trkpt>
      <trkpt lat="47.4669" lon="3.7475">
        <ele>294</ele>
      </trkpt>
      <trkpt lat="47.46675" lon="3.74759">
        <ele>294</ele>
      </trkpt>
      <trkpt lat="47.46672" lon="3.74767">
        <ele>294</ele>
      </trkpt>
      <trkpt lat="47.46647" lon="3.74786">
        <ele>294</ele>
      </trkpt>
      <trkpt lat="47.46657" lon="3.74837">
        <ele>297</ele>
      </trkpt>
      <trkpt lat="47.4666" lon="3.74873">
        <ele>297</ele>
      </trkpt>
      <trkpt lat="47.46663" lon="3.74909">
        <ele>299</ele>
      </trkpt>
      <trkpt lat="47.4666" lon="3.74938">
        <ele>299</ele>
      </trkpt>
      <trkpt lat="47.46651" lon="3.74951">
        <ele>299</ele>
      </trkpt>
      <trkpt lat="47.46642" lon="3.74953">
        <ele>299</ele>
      </trkpt>
      <trkpt lat="47.46624" lon="3.74952">
        <ele>298</ele>
      </trkpt>
      <trkpt lat="47.46602" lon="3.74946">
        <ele>298</ele>
      </trkpt>
      <trkpt lat="47.46587" lon="3.74948">
        <ele>298</ele>
      </trkpt>
      <trkpt lat="47.46582" lon="3.74916">
        <ele>298</ele>
      </trkpt>
      <trkpt lat="47.46575" lon="3.74869">
        <ele>295</ele>
      </trkpt>
      <trkpt lat="47.46574" lon="3.74844">
        <ele>295</ele>
      </trkpt>
      <trkpt lat="47.46579" lon="3.7483">
        <ele>295</ele>
      </trkpt>
      <trkpt lat="47.466" lon="3.74813">
        <ele>295</ele>
      </trkpt>
      <trkpt lat="47.46609" lon="3.74808">
        <ele>295</ele>
      </trkpt>
      <trkpt lat="47.46614" lon="3.74797">
        <ele>295</ele>
      </trkpt>
      <trkpt lat="47.46616" lon="3.74774">
        <ele>295</ele>
      </trkpt>
      <trkpt lat="47.46628" lon="3.74768">
        <ele>294</ele>
      </trkpt>
    </trkseg>
  </trk>
  <trk>
    <name><![CDATA[Paris VEZELAY_10]]></name>
    <extensions>
      <line xmlns="http://www.topografix.com/GPX/gpx_style/0/2">
        <color>008888</color>
        <width>4</width>
      </line>
    </extensions>
    <trkseg>
      <trkpt lat="47.60284" lon="3.75895">
        <ele>123</ele>
      </trkpt>
      <trkpt lat="47.60206" lon="3.75655">
        <ele>125</ele>
      </trkpt>
      <trkpt lat="47.60096" lon="3.757">
        <ele>130</ele>
      </trkpt>
      <trkpt lat="47.59936" lon="3.75841">
        <ele>124</ele>
      </trkpt>
      <trkpt lat="47.59831" lon="3.75953">
        <ele>127</ele>
      </trkpt>
      <trkpt lat="47.5965" lon="3.76146">
        <ele>145</ele>
      </trkpt>
      <trkpt lat="47.59405" lon="3.75963">
        <ele>182</ele>
      </trkpt>
      <trkpt lat="47.59143" lon="3.75798">
        <ele>184</ele>
      </trkpt>
      <trkpt lat="47.59039" lon="3.75479">
        <ele>191</ele>
      </trkpt>
      <trkpt lat="47.59025" lon="3.7543">
        <ele>192</ele>
      </trkpt>
      <trkpt lat="47.58984" lon="3.75266">
        <ele>198</ele>
      </trkpt>
      <trkpt lat="47.58788" lon="3.75006">
        <ele>222</ele>
      </trkpt>
      <trkpt lat="47.58576" lon="3.74842">
        <ele>248</ele>
      </trkpt>
      <trkpt lat="47.58363" lon="3.7477">
        <ele>251</ele>
      </trkpt>
      <trkpt lat="47.58043" lon="3.74859">
        <ele>250</ele>
      </trkpt>
      <trkpt lat="47.57799" lon="3.74861">
        <ele>249</ele>
      </trkpt>
      <trkpt lat="47.57725" lon="3.74876">
        <ele>246</ele>
      </trkpt>
      <trkpt lat="47.57144" lon="3.7512">
        <ele>229</ele>
      </trkpt>
      <trkpt lat="47.5677" lon="3.75185">
        <ele>211</ele>
      </trkpt>
      <trkpt lat="47.56561" lon="3.75232">
        <ele>206</ele>
      </trkpt>
      <trkpt lat="47.56353" lon="3.75249">
        <ele>206</ele>
      </trkpt>
      <trkpt lat="47.56236" lon="3.75272">
        <ele>208</ele>
      </trkpt>
      <trkpt lat="47.55926" lon="3.75207">
        <ele>195</ele>
      </trkpt>
      <trkpt lat="47.55855" lon="3.75222">
        <ele>195</ele>
      </trkpt>
      <trkpt lat="47.55756" lon="3.75273">
        <ele>206</ele>
      </trkpt>
      <trkpt lat="47.5544" lon="3.75348">
        <ele>214</ele>
      </trkpt>
      <trkpt lat="47.55225" lon="3.75403">
        <ele>212</ele>
      </trkpt>
      <trkpt lat="47.54916" lon="3.75237">
        <ele>206</ele>
      </trkpt>
      <trkpt lat="47.54898" lon="3.75285">
        <ele>209</ele>
      </trkpt>
      <trkpt lat="47.548" lon="3.7526">
        <ele>212</ele>
      </trkpt>
      <trkpt lat="47.54686" lon="3.75323">
        <ele>215</ele>
      </trkpt>
      <trkpt lat="47.54556" lon="3.75289">
        <ele>216</ele>
      </trkpt>
      <trkpt lat="47.54193" lon="3.75382">
        <ele>215</ele>
      </trkpt>
      <trkpt lat="47.54137" lon="3.74884">
        <ele>225</ele>
      </trkpt>
      <trkpt lat="47.53508" lon="3.75219">
        <ele>249</ele>
      </trkpt>
      <trkpt lat="47.53474" lon="3.756">
        <ele>231</ele>
      </trkpt>
      <trkpt lat="47.53298" lon="3.75859">
        <ele>235</ele>
      </trkpt>
      <trkpt lat="47.52898" lon="3.76235">
        <ele>238</ele>
      </trkpt>
      <trkpt lat="47.5265" lon="3.75802">
        <ele>267</ele>
      </trkpt>
      <trkpt lat="47.52444" lon="3.75577">
        <ele>268</ele>
      </trkpt>
      <trkpt lat="47.52053" lon="3.7551">
        <ele>202</ele>
      </trkpt>
      <trkpt lat="47.51864" lon="3.75491">
        <ele>201</ele>
      </trkpt>
      <trkpt lat="47.51458" lon="3.75116">
        <ele>183</ele>
      </trkpt>
      <trkpt lat="47.51287" lon="3.75235">
        <ele>192</ele>
      </trkpt>
      <trkpt lat="47.5092" lon="3.75295">
        <ele>155</ele>
      </trkpt>
      <trkpt lat="47.50811" lon="3.75406">
        <ele>150</ele>
      </trkpt>
      <trkpt lat="47.50686" lon="3.75399">
        <ele>161</ele>
      </trkpt>
      <trkpt lat="47.50538" lon="3.75338">
        <ele>163</ele>
      </trkpt>
      <trkpt lat="47.50407" lon="3.75325">
        <ele>193</ele>
      </trkpt>
      <trkpt lat="47.5023" lon="3.75211">
        <ele>204</ele>
      </trkpt>
      <trkpt lat="47.50119" lon="3.75283">
        <ele>207</ele>
      </trkpt>
      <trkpt lat="47.49948" lon="3.75335">
        <ele>207</ele>
      </trkpt>
      <trkpt lat="47.49567" lon="3.75294">
        <ele>217</ele>
      </trkpt>
      <trkpt lat="47.49022" lon="3.75135">
        <ele>190</ele>
      </trkpt>
      <trkpt lat="47.48746" lon="3.75062">
        <ele>178</ele>
      </trkpt>
      <trkpt lat="47.4864" lon="3.75038">
        <ele>156</ele>
      </trkpt>
      <trkpt lat="47.4868" lon="3.74942">
        <ele>156</ele>
      </trkpt>
      <trkpt lat="47.48598" lon="3.75002">
        <ele>154</ele>
      </trkpt>
      <trkpt lat="47.48547" lon="3.75075">
        <ele>154</ele>
      </trkpt>
      <trkpt lat="47.48467" lon="3.75077">
        <ele>157</ele>
      </trkpt>
      <trkpt lat="47.48347" lon="3.75118">
        <ele>163</ele>
      </trkpt>
      <trkpt lat="47.48316" lon="3.75244">
        <ele>158</ele>
      </trkpt>
      <trkpt lat="47.48315" lon="3.75345">
        <ele>156</ele>
      </trkpt>
      <trkpt lat="47.48287" lon="3.75432">
        <ele>155</ele>
      </trkpt>
      <trkpt lat="47.48229" lon="3.75514">
        <ele>149</ele>
      </trkpt>
      <trkpt lat="47.48145" lon="3.75556">
        <ele>145</ele>
      </trkpt>
      <trkpt lat="47.47623" lon="3.75423">
        <ele>176</ele>
      </trkpt>
      <trkpt lat="47.47579" lon="3.75379">
        <ele>177</ele>
      </trkpt>
      <trkpt lat="47.47238" lon="3.75045">
        <ele>188</ele>
      </trkpt>
      <trkpt lat="47.46886" lon="3.75119">
        <ele>235</ele>
      </trkpt>
      <trkpt lat="47.46729" lon="3.74842">
        <ele>283</ele>
      </trkpt>
      <trkpt lat="47.46693" lon="3.74736">
        <ele>288</ele>
      </trkpt>
      <trkpt lat="47.46715" lon="3.74947">
        <ele>287</ele>
      </trkpt>
      <trkpt lat="47.46613" lon="3.74988">
        <ele>297</ele>
      </trkpt>
      <trkpt lat="47.46589" lon="3.7472">
        <ele>293</ele>
      </trkpt>
      <trkpt lat="47.46631" lon="3.74726">
        <ele>294</ele>
      </trkpt>
    </trkseg>
  </trk>
  <trk>
    <name><![CDATA[2014-08-07T20:37:19Z]]></name>
    <extensions>
      <line xmlns="http://www.topografix.com/GPX/gpx_style/0/2">
        <color>888800</color>
        <width>4</width>
      </line>
    </extensions>
    <trkseg>
      <trkpt lat="48.85325" lon="2.3491">
        <ele>41</ele>
      </trkpt>
      <trkpt lat="48.85379" lon="2.34805">
        <ele>41</ele>
      </trkpt>
      <trkpt lat="48.85395" lon="2.34791">
        <ele>42</ele>
      </trkpt>
      <trkpt lat="48.85411" lon="2.3474">
        <ele>43</ele>
      </trkpt>
      <trkpt lat="48.85465" lon="2.34772">
        <ele>40</ele>
      </trkpt>
      <trkpt lat="48.85532" lon="2.34593">
        <ele>47</ele>
      </trkpt>
      <trkpt lat="48.85705" lon="2.34704">
        <ele>40</ele>
      </trkpt>
      <trkpt lat="48.85702" lon="2.34716">
        <ele>40</ele>
      </trkpt>
      <trkpt lat="48.85727" lon="2.34754">
        <ele>41</ele>
      </trkpt>
      <trkpt lat="48.85774" lon="2.34781">
        <ele>42</ele>
      </trkpt>
      <trkpt lat="48.85784" lon="2.34827">
        <ele>43</ele>
      </trkpt>
      <trkpt lat="48.85794" lon="2.34933">
        <ele>46</ele>
      </trkpt>
      <trkpt lat="48.85803" lon="2.34962">
        <ele>46</ele>
      </trkpt>
      <trkpt lat="48.85751" lon="2.35141">
        <ele>44</ele>
      </trkpt>
      <trkpt lat="48.85719" lon="2.35261">
        <ele>48</ele>
      </trkpt>
      <trkpt lat="48.85692" lon="2.35381">
        <ele>48</ele>
      </trkpt>
      <trkpt lat="48.85602" lon="2.35335">
        <ele>45</ele>
      </trkpt>
      <trkpt lat="48.85555" lon="2.35411">
        <ele>42</ele>
      </trkpt>
      <trkpt lat="48.8552" lon="2.3538">
        <ele>41</ele>
      </trkpt>
      <trkpt lat="48.85462" lon="2.3552">
        <ele>38</ele>
      </trkpt>
      <trkpt lat="48.85429" lon="2.35596">
        <ele>39</ele>
      </trkpt>
      <trkpt lat="48.85359" lon="2.35798">
        <ele>39</ele>
      </trkpt>
      <trkpt lat="48.85338" lon="2.35852">
        <ele>38</ele>
      </trkpt>
      <trkpt lat="48.85332" lon="2.35874">
        <ele>37</ele>
      </trkpt>
      <trkpt lat="48.85334" lon="2.35944">
        <ele>39</ele>
      </trkpt>
      <trkpt lat="48.8526" lon="2.36064">
        <ele>40</ele>
      </trkpt>
      <trkpt lat="48.85238" lon="2.36077">
        <ele>40</ele>
      </trkpt>
      <trkpt lat="48.85129" lon="2.36256">
        <ele>40</ele>
      </trkpt>
      <trkpt lat="48.8498" lon="2.36447">
        <ele>41</ele>
      </trkpt>
      <trkpt lat="48.84905" lon="2.36796">
        <ele>39</ele>
      </trkpt>
      <trkpt lat="48.84884" lon="2.36828">
        <ele>40</ele>
      </trkpt>
      <trkpt lat="48.84902" lon="2.37062">
        <ele>42</ele>
      </trkpt>
      <trkpt lat="48.84917" lon="2.37068">
        <ele>43</ele>
      </trkpt>
      <trkpt lat="48.84944" lon="2.37103">
        <ele>41</ele>
      </trkpt>
      <trkpt lat="48.84958" lon="2.37118">
        <ele>40</ele>
      </trkpt>
      <trkpt lat="48.84967" lon="2.3711">
        <ele>40</ele>
      </trkpt>
      <trkpt lat="48.84968" lon="2.37116">
        <ele>40</ele>
      </trkpt>
      <trkpt lat="48.84916" lon="2.37197">
        <ele>39</ele>
      </trkpt>
      <trkpt lat="48.84878" lon="2.37278">
        <ele>39</ele>
      </trkpt>
      <trkpt lat="48.84772" lon="2.37493">
        <ele>39</ele>
      </trkpt>
      <trkpt lat="48.8462" lon="2.37812">
        <ele>41</ele>
      </trkpt>
      <trkpt lat="48.84455" lon="2.38153">
        <ele>40</ele>
      </trkpt>
      <trkpt lat="48.84408" lon="2.38258">
        <ele>41</ele>
      </trkpt>
      <trkpt lat="48.84401" lon="2.38262">
        <ele>41</ele>
      </trkpt>
      <trkpt lat="48.84382" lon="2.38303">
        <ele>41</ele>
      </trkpt>
      <trkpt lat="48.84383" lon="2.38314">
        <ele>41</ele>
      </trkpt>
      <trkpt lat="48.84283" lon="2.3852">
        <ele>40</ele>
      </trkpt>
      <trkpt lat="48.84245" lon="2.38676">
        <ele>46</ele>
      </trkpt>
      <trkpt lat="48.84245" lon="2.38692">
        <ele>45</ele>
      </trkpt>
      <trkpt lat="48.84187" lon="2.3894">
        <ele>49</ele>
      </trkpt>
      <trkpt lat="48.84112" lon="2.389">
        <ele>47</ele>
      </trkpt>
      <trkpt lat="48.84075" lon="2.38862">
        <ele>48</ele>
      </trkpt>
      <trkpt lat="48.84038" lon="2.38816">
        <ele>45</ele>
      </trkpt>
      <trkpt lat="48.839" lon="2.38938">
        <ele>49</ele>
      </trkpt>
      <trkpt lat="48.83869" lon="2.38965">
        <ele>48</ele>
      </trkpt>
      <trkpt lat="48.83735" lon="2.39126">
        <ele>43</ele>
      </trkpt>
      <trkpt lat="48.83649" lon="2.39196">
        <ele>44</ele>
      </trkpt>
      <trkpt lat="48.83533" lon="2.39284">
        <ele>48</ele>
      </trkpt>
      <trkpt lat="48.8348" lon="2.39344">
        <ele>51</ele>
      </trkpt>
      <trkpt lat="48.83397" lon="2.3943">
        <ele>45</ele>
      </trkpt>
      <trkpt lat="48.83288" lon="2.39594">
        <ele>47</ele>
      </trkpt>
      <trkpt lat="48.83205" lon="2.39722">
        <ele>44</ele>
      </trkpt>
      <trkpt lat="48.83155" lon="2.39793">
        <ele>44</ele>
      </trkpt>
      <trkpt lat="48.83072" lon="2.39933">
        <ele>47</ele>
      </trkpt>
      <trkpt lat="48.82173" lon="2.41329">
        <ele>52</ele>
      </trkpt>
      <trkpt lat="48.81922" lon="2.41122">
        <ele>43</ele>
      </trkpt>
      <trkpt lat="48.81859" lon="2.41061">
        <ele>38</ele>
      </trkpt>
      <trkpt lat="48.81852" lon="2.41057">
        <ele>37</ele>
      </trkpt>
      <trkpt lat="48.81844" lon="2.41063">
        <ele>37</ele>
      </trkpt>
      <trkpt lat="48.81833" lon="2.41103">
        <ele>35</ele>
      </trkpt>
      <trkpt lat="48.81809" lon="2.4123">
        <ele>35</ele>
      </trkpt>
      <trkpt lat="48.818" lon="2.41241">
        <ele>34</ele>
      </trkpt>
      <trkpt lat="48.81776" lon="2.41232">
        <ele>34</ele>
      </trkpt>
      <trkpt lat="48.81767" lon="2.41226">
        <ele>34</ele>
      </trkpt>
      <trkpt lat="48.81766" lon="2.41214">
        <ele>34</ele>
      </trkpt>
      <trkpt lat="48.81768" lon="2.41204">
        <ele>35</ele>
      </trkpt>
      <trkpt lat="48.81767" lon="2.41199">
        <ele>35</ele>
      </trkpt>
      <trkpt lat="48.81761" lon="2.41231">
        <ele>34</ele>
      </trkpt>
      <trkpt lat="48.81735" lon="2.41372">
        <ele>34</ele>
      </trkpt>
      <trkpt lat="48.81676" lon="2.41368">
        <ele>34</ele>
      </trkpt>
      <trkpt lat="48.81676" lon="2.41336">
        <ele>34</ele>
      </trkpt>
      <trkpt lat="48.81595" lon="2.41325">
        <ele>34</ele>
      </trkpt>
      <trkpt lat="48.81595" lon="2.41317">
        <ele>34</ele>
      </trkpt>
      <trkpt lat="48.8159" lon="2.41317">
        <ele>34</ele>
      </trkpt>
      <trkpt lat="48.81591" lon="2.41245">
        <ele>34</ele>
      </trkpt>
      <trkpt lat="48.81599" lon="2.41211">
        <ele>35</ele>
      </trkpt>
      <trkpt lat="48.81602" lon="2.41152">
        <ele>35</ele>
      </trkpt>
      <trkpt lat="48.81611" lon="2.411">
        <ele>32</ele>
      </trkpt>
      <trkpt lat="48.81615" lon="2.41084">
        <ele>32</ele>
      </trkpt>
      <trkpt lat="48.81612" lon="2.41074">
        <ele>31</ele>
      </trkpt>
      <trkpt lat="48.81603" lon="2.41066">
        <ele>31</ele>
      </trkpt>
      <trkpt lat="48.81595" lon="2.41072">
        <ele>31</ele>
      </trkpt>
      <trkpt lat="48.81539" lon="2.411">
        <ele>32</ele>
      </trkpt>
      <trkpt lat="48.81479" lon="2.41119">
        <ele>31</ele>
      </trkpt>
      <trkpt lat="48.81446" lon="2.41121">
        <ele>31</ele>
      </trkpt>
      <trkpt lat="48.81399" lon="2.41129">
        <ele>33</ele>
      </trkpt>
      <trkpt lat="48.81272" lon="2.41097">
        <ele>33</ele>
      </trkpt>
      <trkpt lat="48.81012" lon="2.41025">
        <ele>30</ele>
      </trkpt>
      <trkpt lat="48.80947" lon="2.41004">
        <ele>32</ele>
      </trkpt>
      <trkpt lat="48.80894" lon="2.40987">
        <ele>33</ele>
      </trkpt>
      <trkpt lat="48.80788" lon="2.40982">
        <ele>33</ele>
      </trkpt>
      <trkpt lat="48.80724" lon="2.40996">
        <ele>33</ele>
      </trkpt>
      <trkpt lat="48.80632" lon="2.41036">
        <ele>32</ele>
      </trkpt>
      <trkpt lat="48.80502" lon="2.41104">
        <ele>32</ele>
      </trkpt>
      <trkpt lat="48.80448" lon="2.41162">
        <ele>34</ele>
      </trkpt>
      <trkpt lat="48.80258" lon="2.41409">
        <ele>36</ele>
      </trkpt>
      <trkpt lat="48.798" lon="2.41996">
        <ele>31</ele>
      </trkpt>
      <trkpt lat="48.79726" lon="2.42088">
        <ele>32</ele>
      </trkpt>
      <trkpt lat="48.79697" lon="2.42136">
        <ele>32</ele>
      </trkpt>
      <trkpt lat="48.7969" lon="2.42133">
        <ele>32</ele>
      </trkpt>
      <trkpt lat="48.79655" lon="2.42168">
        <ele>33</ele>
      </trkpt>
      <trkpt lat="48.79485" lon="2.42262">
        <ele>33</ele>
      </trkpt>
      <trkpt lat="48.79317" lon="2.42329">
        <ele>33</ele>
      </trkpt>
      <trkpt lat="48.79203" lon="2.42371">
        <ele>34</ele>
      </trkpt>
      <trkpt lat="48.7912" lon="2.42385">
        <ele>34</ele>
      </trkpt>
      <trkpt lat="48.79009" lon="2.42388">
        <ele>33</ele>
      </trkpt>
      <trkpt lat="48.78811" lon="2.42326">
        <ele>32</ele>
      </trkpt>
      <trkpt lat="48.78742" lon="2.42299">
        <ele>31</ele>
      </trkpt>
      <trkpt lat="48.78594" lon="2.42212">
        <ele>30</ele>
      </trkpt>
      <trkpt lat="48.78467" lon="2.42127">
        <ele>33</ele>
      </trkpt>
      <trkpt lat="48.78455" lon="2.42126">
        <ele>33</ele>
      </trkpt>
      <trkpt lat="48.77968" lon="2.41796">
        <ele>35</ele>
      </trkpt>
      <trkpt lat="48.77756" lon="2.41643">
        <ele>32</ele>
      </trkpt>
      <trkpt lat="48.7772" lon="2.41619">
        <ele>33</ele>
      </trkpt>
      <trkpt lat="48.77668" lon="2.4159">
        <ele>35</ele>
      </trkpt>
      <trkpt lat="48.77632" lon="2.41573">
        <ele>34</ele>
      </trkpt>
      <trkpt lat="48.77596" lon="2.41573">
        <ele>35</ele>
      </trkpt>
      <trkpt lat="48.77541" lon="2.41589">
        <ele>34</ele>
      </trkpt>
      <trkpt lat="48.77492" lon="2.41583">
        <ele>33</ele>
      </trkpt>
      <trkpt lat="48.77425" lon="2.41543">
        <ele>32</ele>
      </trkpt>
      <trkpt lat="48.77474" lon="2.41354">
        <ele>34</ele>
      </trkpt>
      <trkpt lat="48.77399" lon="2.41307">
        <ele>34</ele>
      </trkpt>
      <trkpt lat="48.77306" lon="2.41276">
        <ele>33</ele>
      </trkpt>
      <trkpt lat="48.77258" lon="2.41261">
        <ele>32</ele>
      </trkpt>
      <trkpt lat="48.77118" lon="2.41244">
        <ele>36</ele>
      </trkpt>
      <trkpt lat="48.77007" lon="2.41237">
        <ele>34</ele>
      </trkpt>
      <trkpt lat="48.76916" lon="2.41236">
        <ele>32</ele>
      </trkpt>
      <trkpt lat="48.76798" lon="2.41258">
        <ele>36</ele>
      </trkpt>
      <trkpt lat="48.76675" lon="2.41298">
        <ele>36</ele>
      </trkpt>
      <trkpt lat="48.7664" lon="2.41322">
        <ele>34</ele>
      </trkpt>
      <trkpt lat="48.76519" lon="2.41431">
        <ele>32</ele>
      </trkpt>
      <trkpt lat="48.76435" lon="2.41577">
        <ele>33</ele>
      </trkpt>
      <trkpt lat="48.76373" lon="2.417">
        <ele>34</ele>
      </trkpt>
      <trkpt lat="48.76318" lon="2.41784">
        <ele>34</ele>
      </trkpt>
      <trkpt lat="48.76232" lon="2.41895">
        <ele>33</ele>
      </trkpt>
      <trkpt lat="48.76065" lon="2.42076">
        <ele>36</ele>
      </trkpt>
      <trkpt lat="48.76046" lon="2.42088">
        <ele>35</ele>
      </trkpt>
      <trkpt lat="48.75993" lon="2.42071">
        <ele>33</ele>
      </trkpt>
      <trkpt lat="48.75949" lon="2.42096">
        <ele>33</ele>
      </trkpt>
      <trkpt lat="48.75903" lon="2.42116">
        <ele>33</ele>
      </trkpt>
      <trkpt lat="48.75886" lon="2.42116">
        <ele>33</ele>
      </trkpt>
      <trkpt lat="48.75836" lon="2.42137">
        <ele>32</ele>
      </trkpt>
      <trkpt lat="48.75821" lon="2.42135">
        <ele>32</ele>
      </trkpt>
      <trkpt lat="48.75681" lon="2.42185">
        <ele>32</ele>
      </trkpt>
      <trkpt lat="48.75586" lon="2.42225">
        <ele>32</ele>
      </trkpt>
      <trkpt lat="48.7551" lon="2.42275">
        <ele>32</ele>
      </trkpt>
      <trkpt lat="48.75411" lon="2.4237">
        <ele>31</ele>
      </trkpt>
      <trkpt lat="48.75325" lon="2.42495">
        <ele>32</ele>
      </trkpt>
      <trkpt lat="48.75304" lon="2.42533">
        <ele>32</ele>
      </trkpt>
      <trkpt lat="48.75294" lon="2.42572">
        <ele>32</ele>
      </trkpt>
      <trkpt lat="48.75161" lon="2.42807">
        <ele>31</ele>
      </trkpt>
      <trkpt lat="48.75075" lon="2.43">
        <ele>33</ele>
      </trkpt>
      <trkpt lat="48.75002" lon="2.43152">
        <ele>34</ele>
      </trkpt>
      <trkpt lat="48.74937" lon="2.43272">
        <ele>32</ele>
      </trkpt>
      <trkpt lat="48.74839" lon="2.43424">
        <ele>31</ele>
      </trkpt>
      <trkpt lat="48.7477" lon="2.4352">
        <ele>31</ele>
      </trkpt>
      <trkpt lat="48.7476" lon="2.43537">
        <ele>31</ele>
      </trkpt>
      <trkpt lat="48.74682" lon="2.43644">
        <ele>32</ele>
      </trkpt>
      <trkpt lat="48.74679" lon="2.43681">
        <ele>34</ele>
      </trkpt>
      <trkpt lat="48.74603" lon="2.43742">
        <ele>31</ele>
      </trkpt>
      <trkpt lat="48.74503" lon="2.4381">
        <ele>32</ele>
      </trkpt>
      <trkpt lat="48.74394" lon="2.43883">
        <ele>33</ele>
      </trkpt>
      <trkpt lat="48.74238" lon="2.44011">
        <ele>33</ele>
      </trkpt>
      <trkpt lat="48.74166" lon="2.44078">
        <ele>31</ele>
      </trkpt>
      <trkpt lat="48.74093" lon="2.44172">
        <ele>32</ele>
      </trkpt>
      <trkpt lat="48.73955" lon="2.44367">
        <ele>32</ele>
      </trkpt>
      <trkpt lat="48.7389" lon="2.44442">
        <ele>34</ele>
      </trkpt>
      <trkpt lat="48.73873" lon="2.44453">
        <ele>34</ele>
      </trkpt>
      <trkpt lat="48.73868" lon="2.44446">
        <ele>34</ele>
      </trkpt>
      <trkpt lat="48.73832" lon="2.4447">
        <ele>34</ele>
      </trkpt>
      <trkpt lat="48.73762" lon="2.44489">
        <ele>35</ele>
      </trkpt>
      <trkpt lat="48.73678" lon="2.44549">
        <ele>36</ele>
      </trkpt>
      <trkpt lat="48.73625" lon="2.44578">
        <ele>35</ele>
      </trkpt>
      <trkpt lat="48.73467" lon="2.44599">
        <ele>33</ele>
      </trkpt>
      <trkpt lat="48.73312" lon="2.44608">
        <ele>32</ele>
      </trkpt>
      <trkpt lat="48.73139" lon="2.44616">
        <ele>33</ele>
      </trkpt>
      <trkpt lat="48.73076" lon="2.44606">
        <ele>33</ele>
      </trkpt>
      <trkpt lat="48.72982" lon="2.44588">
        <ele>35</ele>
      </trkpt>
      <trkpt lat="48.72916" lon="2.44556">
        <ele>34</ele>
      </trkpt>
      <trkpt lat="48.7281" lon="2.44504">
        <ele>34</ele>
      </trkpt>
      <trkpt lat="48.7273" lon="2.44456">
        <ele>33</ele>
      </trkpt>
      <trkpt lat="48.72706" lon="2.44432">
        <ele>33</ele>
      </trkpt>
      <trkpt lat="48.7265" lon="2.44402">
        <ele>32</ele>
      </trkpt>
      <trkpt lat="48.72637" lon="2.44398">
        <ele>32</ele>
      </trkpt>
      <trkpt lat="48.72584" lon="2.44454">
        <ele>33</ele>
      </trkpt>
      <trkpt lat="48.72578" lon="2.44464">
        <ele>34</ele>
      </trkpt>
      <trkpt lat="48.72541" lon="2.44475">
        <ele>34</ele>
      </trkpt>
      <trkpt lat="48.72476" lon="2.44508">
        <ele>34</ele>
      </trkpt>
      <trkpt lat="48.72457" lon="2.44501">
        <ele>34</ele>
      </trkpt>
      <trkpt lat="48.7245" lon="2.44516">
        <ele>34</ele>
      </trkpt>
      <trkpt lat="48.72472" lon="2.44531">
        <ele>34</ele>
      </trkpt>
      <trkpt lat="48.7253" lon="2.44584">
        <ele>37</ele>
      </trkpt>
      <trkpt lat="48.72537" lon="2.44602">
        <ele>38</ele>
      </trkpt>
      <trkpt lat="48.725" lon="2.44635">
        <ele>35</ele>
      </trkpt>
      <trkpt lat="48.72476" lon="2.44672">
        <ele>38</ele>
      </trkpt>
      <trkpt lat="48.72444" lon="2.44713">
        <ele>39</ele>
      </trkpt>
      <trkpt lat="48.72396" lon="2.44763">
        <ele>38</ele>
      </trkpt>
      <trkpt lat="48.72346" lon="2.44812">
        <ele>38</ele>
      </trkpt>
      <trkpt lat="48.72265" lon="2.44905">
        <ele>38</ele>
      </trkpt>
      <trkpt lat="48.7218" lon="2.45001">
        <ele>40</ele>
      </trkpt>
      <trkpt lat="48.72" lon="2.452">
        <ele>35</ele>
      </trkpt>
      <trkpt lat="48.71982" lon="2.45229">
        <ele>35</ele>
      </trkpt>
      <trkpt lat="48.71924" lon="2.45518">
        <ele>37</ele>
      </trkpt>
      <trkpt lat="48.71914" lon="2.4555">
        <ele>36</ele>
      </trkpt>
      <trkpt lat="48.719" lon="2.45575">
        <ele>36</ele>
      </trkpt>
      <trkpt lat="48.71886" lon="2.45591">
        <ele>36</ele>
      </trkpt>
      <trkpt lat="48.71833" lon="2.45642">
        <ele>36</ele>
      </trkpt>
      <trkpt lat="48.71714" lon="2.4575">
        <ele>36</ele>
      </trkpt>
      <trkpt lat="48.71664" lon="2.45804">
        <ele>37</ele>
      </trkpt>
      <trkpt lat="48.7165" lon="2.45772">
        <ele>37</ele>
      </trkpt>
      <trkpt lat="48.71633" lon="2.45745">
        <ele>37</ele>
      </trkpt>
      <trkpt lat="48.71615" lon="2.45736">
        <ele>37</ele>
      </trkpt>
      <trkpt lat="48.71611" lon="2.45713">
        <ele>37</ele>
      </trkpt>
      <trkpt lat="48.71589" lon="2.45691">
        <ele>36</ele>
      </trkpt>
      <trkpt lat="48.71579" lon="2.45686">
        <ele>36</ele>
      </trkpt>
      <trkpt lat="48.7157" lon="2.45685">
        <ele>36</ele>
      </trkpt>
      <trkpt lat="48.7156" lon="2.45695">
        <ele>37</ele>
      </trkpt>
      <trkpt lat="48.71543" lon="2.45711">
        <ele>37</ele>
      </trkpt>
      <trkpt lat="48.7154" lon="2.45738">
        <ele>37</ele>
      </trkpt>
      <trkpt lat="48.71522" lon="2.45754">
        <ele>38</ele>
      </trkpt>
      <trkpt lat="48.71504" lon="2.45783">
        <ele>38</ele>
      </trkpt>
      <trkpt lat="48.71483" lon="2.45756">
        <ele>37</ele>
      </trkpt>
      <trkpt lat="48.71461" lon="2.45781">
        <ele>36</ele>
      </trkpt>
      <trkpt lat="48.71418" lon="2.4575">
        <ele>34</ele>
      </trkpt>
      <trkpt lat="48.71352" lon="2.45692">
        <ele>34</ele>
      </trkpt>
      <trkpt lat="48.71338" lon="2.45681">
        <ele>34</ele>
      </trkpt>
      <trkpt lat="48.71324" lon="2.45642">
        <ele>36</ele>
      </trkpt>
      <trkpt lat="48.71315" lon="2.45638">
        <ele>36</ele>
      </trkpt>
      <trkpt lat="48.71301" lon="2.45656">
        <ele>36</ele>
      </trkpt>
      <trkpt lat="48.71287" lon="2.4567">
        <ele>35</ele>
      </trkpt>
      <trkpt lat="48.71281" lon="2.45697">
        <ele>35</ele>
      </trkpt>
      <trkpt lat="48.71267" lon="2.4573">
        <ele>35</ele>
      </trkpt>
      <trkpt lat="48.71235" lon="2.45755">
        <ele>35</ele>
      </trkpt>
      <trkpt lat="48.71216" lon="2.45766">
        <ele>36</ele>
      </trkpt>
      <trkpt lat="48.71179" lon="2.45762">
        <ele>36</ele>
      </trkpt>
      <trkpt lat="48.71146" lon="2.45752">
        <ele>37</ele>
      </trkpt>
      <trkpt lat="48.71123" lon="2.45753">
        <ele>38</ele>
      </trkpt>
      <trkpt lat="48.7111" lon="2.45759">
        <ele>39</ele>
      </trkpt>
      <trkpt lat="48.71099" lon="2.45781">
        <ele>38</ele>
      </trkpt>
      <trkpt lat="48.71093" lon="2.45774">
        <ele>39</ele>
      </trkpt>
      <trkpt lat="48.7105" lon="2.45842">
        <ele>38</ele>
      </trkpt>
      <trkpt lat="48.71032" lon="2.4581">
        <ele>44</ele>
      </trkpt>
      <trkpt lat="48.71027" lon="2.45811">
        <ele>44</ele>
      </trkpt>
      <trkpt lat="48.7101" lon="2.45832">
        <ele>45</ele>
      </trkpt>
      <trkpt lat="48.70994" lon="2.45813">
        <ele>51</ele>
      </trkpt>
      <trkpt lat="48.70944" lon="2.45759">
        <ele>56</ele>
      </trkpt>
      <trkpt lat="48.70932" lon="2.45742">
        <ele>60</ele>
      </trkpt>
      <trkpt lat="48.70935" lon="2.45719">
        <ele>60</ele>
      </trkpt>
      <trkpt lat="48.7093" lon="2.45688">
        <ele>61</ele>
      </trkpt>
      <trkpt lat="48.70898" lon="2.45652">
        <ele>65</ele>
      </trkpt>
      <trkpt lat="48.70826" lon="2.45581">
        <ele>68</ele>
      </trkpt>
      <trkpt lat="48.70792" lon="2.45533">
        <ele>70</ele>
      </trkpt>
      <trkpt lat="48.70728" lon="2.45499">
        <ele>73</ele>
      </trkpt>
      <trkpt lat="48.70668" lon="2.45598">
        <ele>73</ele>
      </trkpt>
      <trkpt lat="48.70714" lon="2.45641">
        <ele>72</ele>
      </trkpt>
    </trkseg>
  </trk>
  <trk>
    <name><![CDATA[02 Montgeron => Ponthierry]]></name>
    <extensions>
      <line xmlns="http://www.topografix.com/GPX/gpx_style/0/2">
        <color>880088</color>
        <width>4</width>
      </line>
    </extensions>
    <trkseg>
      <trkpt lat="48.70716" lon="2.4564">
        <ele>72</ele>
      </trkpt>
      <trkpt lat="48.7067" lon="2.45598">
        <ele>73</ele>
      </trkpt>
      <trkpt lat="48.70724" lon="2.45494">
        <ele>73</ele>
      </trkpt>
      <trkpt lat="48.70664" lon="2.45429">
        <ele>76</ele>
      </trkpt>
      <trkpt lat="48.70597" lon="2.45398">
        <ele>77</ele>
      </trkpt>
      <trkpt lat="48.70505" lon="2.4538">
        <ele>78</ele>
      </trkpt>
      <trkpt lat="48.69487" lon="2.46413">
        <ele>85</ele>
      </trkpt>
      <trkpt lat="48.69444" lon="2.46424">
        <ele>85</ele>
      </trkpt>
      <trkpt lat="48.69408" lon="2.46458">
        <ele>87</ele>
      </trkpt>
      <trkpt lat="48.69078" lon="2.46794">
        <ele>92</ele>
      </trkpt>
      <trkpt lat="48.68665" lon="2.46647">
        <ele>89</ele>
      </trkpt>
      <trkpt lat="48.66593" lon="2.49333">
        <ele>90</ele>
      </trkpt>
      <trkpt lat="48.66565" lon="2.4931">
        <ele>91</ele>
      </trkpt>
      <trkpt lat="48.66537" lon="2.493">
        <ele>91</ele>
      </trkpt>
      <trkpt lat="48.66503" lon="2.49294">
        <ele>91</ele>
      </trkpt>
      <trkpt lat="48.66466" lon="2.49285">
        <ele>90</ele>
      </trkpt>
      <trkpt lat="48.66406" lon="2.49266">
        <ele>89</ele>
      </trkpt>
      <trkpt lat="48.66367" lon="2.49261">
        <ele>89</ele>
      </trkpt>
      <trkpt lat="48.66317" lon="2.49264">
        <ele>89</ele>
      </trkpt>
      <trkpt lat="48.6625" lon="2.49277">
        <ele>89</ele>
      </trkpt>
      <trkpt lat="48.6619" lon="2.4928">
        <ele>90</ele>
      </trkpt>
      <trkpt lat="48.66146" lon="2.49278">
        <ele>89</ele>
      </trkpt>
      <trkpt lat="48.66113" lon="2.49271">
        <ele>89</ele>
      </trkpt>
      <trkpt lat="48.66089" lon="2.49278">
        <ele>89</ele>
      </trkpt>
      <trkpt lat="48.66041" lon="2.49299">
        <ele>87</ele>
      </trkpt>
      <trkpt lat="48.66012" lon="2.49302">
        <ele>87</ele>
      </trkpt>
      <trkpt lat="48.65948" lon="2.49369">
        <ele>86</ele>
      </trkpt>
      <trkpt lat="48.65928" lon="2.49286">
        <ele>87</ele>
      </trkpt>
      <trkpt lat="48.65905" lon="2.49275">
        <ele>86</ele>
      </trkpt>
      <trkpt lat="48.6588" lon="2.4925">
        <ele>87</ele>
      </trkpt>
      <trkpt lat="48.65852" lon="2.49233">
        <ele>87</ele>
      </trkpt>
      <trkpt lat="48.65662" lon="2.49275">
        <ele>85</ele>
      </trkpt>
      <trkpt lat="48.65616" lon="2.49242">
        <ele>86</ele>
      </trkpt>
      <trkpt lat="48.65443" lon="2.49091">
        <ele>86</ele>
      </trkpt>
      <trkpt lat="48.65435" lon="2.49084">
        <ele>86</ele>
      </trkpt>
      <trkpt lat="48.65381" lon="2.4908">
        <ele>87</ele>
      </trkpt>
      <trkpt lat="48.65283" lon="2.49058">
        <ele>86</ele>
      </trkpt>
      <trkpt lat="48.65207" lon="2.49039">
        <ele>86</ele>
      </trkpt>
      <trkpt lat="48.65148" lon="2.49036">
        <ele>86</ele>
      </trkpt>
      <trkpt lat="48.65109" lon="2.49041">
        <ele>85</ele>
      </trkpt>
      <trkpt lat="48.65026" lon="2.49065">
        <ele>86</ele>
      </trkpt>
      <trkpt lat="48.64905" lon="2.4928">
        <ele>89</ele>
      </trkpt>
      <trkpt lat="48.64878" lon="2.4933">
        <ele>89</ele>
      </trkpt>
      <trkpt lat="48.64812" lon="2.49481">
        <ele>89</ele>
      </trkpt>
      <trkpt lat="48.64746" lon="2.49538">
        <ele>89</ele>
      </trkpt>
      <trkpt lat="48.64637" lon="2.49674">
        <ele>79</ele>
      </trkpt>
      <trkpt lat="48.64549" lon="2.49776">
        <ele>71</ele>
      </trkpt>
      <trkpt lat="48.64521" lon="2.49831">
        <ele>69</ele>
      </trkpt>
      <trkpt lat="48.64497" lon="2.49881">
        <ele>66</ele>
      </trkpt>
      <trkpt lat="48.64462" lon="2.4993">
        <ele>65</ele>
      </trkpt>
      <trkpt lat="48.64382" lon="2.50006">
        <ele>63</ele>
      </trkpt>
      <trkpt lat="48.64332" lon="2.5005">
        <ele>64</ele>
      </trkpt>
      <trkpt lat="48.64296" lon="2.5006">
        <ele>65</ele>
      </trkpt>
      <trkpt lat="48.64248" lon="2.50066">
        <ele>68</ele>
      </trkpt>
      <trkpt lat="48.64223" lon="2.50074">
        <ele>70</ele>
      </trkpt>
      <trkpt lat="48.64203" lon="2.5009">
        <ele>72</ele>
      </trkpt>
      <trkpt lat="48.64182" lon="2.50116">
        <ele>72</ele>
      </trkpt>
      <trkpt lat="48.6417" lon="2.50147">
        <ele>73</ele>
      </trkpt>
      <trkpt lat="48.64163" lon="2.5019">
        <ele>75</ele>
      </trkpt>
      <trkpt lat="48.64139" lon="2.50285">
        <ele>76</ele>
      </trkpt>
      <trkpt lat="48.64118" lon="2.50339">
        <ele>78</ele>
      </trkpt>
      <trkpt lat="48.64096" lon="2.50381">
        <ele>78</ele>
      </trkpt>
      <trkpt lat="48.64035" lon="2.50467">
        <ele>81</ele>
      </trkpt>
      <trkpt lat="48.63913" lon="2.50612">
        <ele>83</ele>
      </trkpt>
      <trkpt lat="48.63925" lon="2.50653">
        <ele>83</ele>
      </trkpt>
      <trkpt lat="48.63924" lon="2.50761">
        <ele>83</ele>
      </trkpt>
      <trkpt lat="48.63926" lon="2.50847">
        <ele>84</ele>
      </trkpt>
      <trkpt lat="48.63917" lon="2.50911">
        <ele>83</ele>
      </trkpt>
      <trkpt lat="48.63925" lon="2.50942">
        <ele>82</ele>
      </trkpt>
      <trkpt lat="48.63894" lon="2.50983">
        <ele>81</ele>
      </trkpt>
      <trkpt lat="48.6388" lon="2.51014">
        <ele>81</ele>
      </trkpt>
      <trkpt lat="48.63867" lon="2.51015">
        <ele>81</ele>
      </trkpt>
      <trkpt lat="48.63824" lon="2.51164">
        <ele>82</ele>
      </trkpt>
      <trkpt lat="48.63674" lon="2.51687">
        <ele>81</ele>
      </trkpt>
      <trkpt lat="48.63487" lon="2.52347">
        <ele>84</ele>
      </trkpt>
      <trkpt lat="48.63468" lon="2.52415">
        <ele>84</ele>
      </trkpt>
      <trkpt lat="48.63402" lon="2.52568">
        <ele>84</ele>
      </trkpt>
      <trkpt lat="48.63362" lon="2.52667">
        <ele>84</ele>
      </trkpt>
      <trkpt lat="48.63356" lon="2.52702">
        <ele>84</ele>
      </trkpt>
      <trkpt lat="48.63359" lon="2.52736">
        <ele>84</ele>
      </trkpt>
      <trkpt lat="48.63368" lon="2.52759">
        <ele>84</ele>
      </trkpt>
      <trkpt lat="48.62988" lon="2.52793">
        <ele>85</ele>
      </trkpt>
      <trkpt lat="48.62976" lon="2.52778">
        <ele>85</ele>
      </trkpt>
      <trkpt lat="48.59652" lon="2.53052">
        <ele>91</ele>
      </trkpt>
      <trkpt lat="48.59638" lon="2.53053">
        <ele>91</ele>
      </trkpt>
      <trkpt lat="48.59628" lon="2.53065">
        <ele>91</ele>
      </trkpt>
      <trkpt lat="48.5938" lon="2.53087">
        <ele>90</ele>
      </trkpt>
      <trkpt lat="48.59092" lon="2.53331">
        <ele>92</ele>
      </trkpt>
      <trkpt lat="48.58828" lon="2.53561">
        <ele>90</ele>
      </trkpt>
      <trkpt lat="48.58544" lon="2.5381">
        <ele>92</ele>
      </trkpt>
      <trkpt lat="48.58534" lon="2.53799">
        <ele>92</ele>
      </trkpt>
      <trkpt lat="48.58522" lon="2.53807">
        <ele>92</ele>
      </trkpt>
      <trkpt lat="48.5852" lon="2.53831">
        <ele>92</ele>
      </trkpt>
      <trkpt lat="48.57525" lon="2.54699">
        <ele>89</ele>
      </trkpt>
      <trkpt lat="48.5744" lon="2.54477">
        <ele>88</ele>
      </trkpt>
      <trkpt lat="48.57385" lon="2.5452">
        <ele>82</ele>
      </trkpt>
      <trkpt lat="48.5724" lon="2.54641">
        <ele>61</ele>
      </trkpt>
      <trkpt lat="48.57148" lon="2.54719">
        <ele>56</ele>
      </trkpt>
      <trkpt lat="48.57064" lon="2.54773">
        <ele>53</ele>
      </trkpt>
      <trkpt lat="48.56981" lon="2.54825">
        <ele>47</ele>
      </trkpt>
      <trkpt lat="48.56957" lon="2.54844">
        <ele>52</ele>
      </trkpt>
      <trkpt lat="48.56943" lon="2.54845">
        <ele>51</ele>
      </trkpt>
      <trkpt lat="48.56929" lon="2.54856">
        <ele>50</ele>
      </trkpt>
      <trkpt lat="48.56746" lon="2.54974">
        <ele>45</ele>
      </trkpt>
      <trkpt lat="48.56724" lon="2.54972">
        <ele>45</ele>
      </trkpt>
      <trkpt lat="48.56413" lon="2.5491">
        <ele>42</ele>
      </trkpt>
      <trkpt lat="48.56166" lon="2.5486">
        <ele>45</ele>
      </trkpt>
      <trkpt lat="48.55801" lon="2.5479">
        <ele>48</ele>
      </trkpt>
      <trkpt lat="48.55784" lon="2.54842">
        <ele>48</ele>
      </trkpt>
      <trkpt lat="48.55771" lon="2.54876">
        <ele>48</ele>
      </trkpt>
      <trkpt lat="48.55737" lon="2.54908">
        <ele>49</ele>
      </trkpt>
      <trkpt lat="48.5573" lon="2.54936">
        <ele>50</ele>
      </trkpt>
      <trkpt lat="48.5573" lon="2.55004">
        <ele>51</ele>
      </trkpt>
      <trkpt lat="48.55745" lon="2.55052">
        <ele>52</ele>
      </trkpt>
      <trkpt lat="48.55742" lon="2.55123">
        <ele>54</ele>
      </trkpt>
      <trkpt lat="48.5572" lon="2.55122">
        <ele>55</ele>
      </trkpt>
      <trkpt lat="48.55703" lon="2.55134">
        <ele>55</ele>
      </trkpt>
      <trkpt lat="48.55681" lon="2.55127">
        <ele>56</ele>
      </trkpt>
      <trkpt lat="48.55654" lon="2.55119">
        <ele>58</ele>
      </trkpt>
      <trkpt lat="48.55623" lon="2.55115">
        <ele>59</ele>
      </trkpt>
      <trkpt lat="48.55559" lon="2.55067">
        <ele>59</ele>
      </trkpt>
      <trkpt lat="48.55522" lon="2.55039">
        <ele>59</ele>
      </trkpt>
      <trkpt lat="48.55488" lon="2.54999">
        <ele>59</ele>
      </trkpt>
      <trkpt lat="48.55423" lon="2.54974">
        <ele>59</ele>
      </trkpt>
      <trkpt lat="48.55367" lon="2.54958">
        <ele>59</ele>
      </trkpt>
      <trkpt lat="48.55312" lon="2.54946">
        <ele>60</ele>
      </trkpt>
      <trkpt lat="48.55286" lon="2.54911">
        <ele>58</ele>
      </trkpt>
      <trkpt lat="48.55268" lon="2.54887">
        <ele>58</ele>
      </trkpt>
      <trkpt lat="48.55268" lon="2.54845">
        <ele>57</ele>
      </trkpt>
      <trkpt lat="48.55269" lon="2.54826">
        <ele>55</ele>
      </trkpt>
      <trkpt lat="48.55261" lon="2.54819">
        <ele>55</ele>
      </trkpt>
      <trkpt lat="48.55247" lon="2.54819">
        <ele>56</ele>
      </trkpt>
      <trkpt lat="48.55239" lon="2.54814">
        <ele>56</ele>
      </trkpt>
      <trkpt lat="48.5522" lon="2.54797">
        <ele>56</ele>
      </trkpt>
      <trkpt lat="48.55198" lon="2.54798">
        <ele>56</ele>
      </trkpt>
      <trkpt lat="48.55181" lon="2.54802">
        <ele>57</ele>
      </trkpt>
      <trkpt lat="48.54327" lon="2.55128">
        <ele>73</ele>
      </trkpt>
      <trkpt lat="48.54304" lon="2.55125">
        <ele>73</ele>
      </trkpt>
      <trkpt lat="48.54288" lon="2.5513">
        <ele>73</ele>
      </trkpt>
      <trkpt lat="48.54275" lon="2.55127">
        <ele>72</ele>
      </trkpt>
      <trkpt lat="48.54223" lon="2.55078">
        <ele>71</ele>
      </trkpt>
      <trkpt lat="48.5413" lon="2.54996">
        <ele>68</ele>
      </trkpt>
      <trkpt lat="48.54117" lon="2.5499">
        <ele>67</ele>
      </trkpt>
      <trkpt lat="48.54109" lon="2.54987">
        <ele>67</ele>
      </trkpt>
      <trkpt lat="48.54108" lon="2.54965">
        <ele>67</ele>
      </trkpt>
      <trkpt lat="48.541" lon="2.54954">
        <ele>67</ele>
      </trkpt>
      <trkpt lat="48.54085" lon="2.54945">
        <ele>66</ele>
      </trkpt>
      <trkpt lat="48.5407" lon="2.54924">
        <ele>65</ele>
      </trkpt>
      <trkpt lat="48.54055" lon="2.54911">
        <ele>64</ele>
      </trkpt>
      <trkpt lat="48.54035" lon="2.54892">
        <ele>64</ele>
      </trkpt>
      <trkpt lat="48.54009" lon="2.54886">
        <ele>64</ele>
      </trkpt>
      <trkpt lat="48.54" lon="2.54881">
        <ele>64</ele>
      </trkpt>
      <trkpt lat="48.53975" lon="2.54858">
        <ele>60</ele>
      </trkpt>
      <trkpt lat="48.53953" lon="2.54852">
        <ele>58</ele>
      </trkpt>
      <trkpt lat="48.53936" lon="2.5486">
        <ele>57</ele>
      </trkpt>
      <trkpt lat="48.53916" lon="2.54863">
        <ele>51</ele>
      </trkpt>
      <trkpt lat="48.53907" lon="2.54869">
        <ele>50</ele>
      </trkpt>
      <trkpt lat="48.53704" lon="2.54766">
        <ele>41</ele>
      </trkpt>
      <trkpt lat="48.53687" lon="2.54751">
        <ele>41</ele>
      </trkpt>
      <trkpt lat="48.53677" lon="2.54725">
        <ele>41</ele>
      </trkpt>
      <trkpt lat="48.53663" lon="2.54716">
        <ele>42</ele>
      </trkpt>
      <trkpt lat="48.53639" lon="2.54725">
        <ele>42</ele>
      </trkpt>
      <trkpt lat="48.53592" lon="2.54706">
        <ele>43</ele>
      </trkpt>
      <trkpt lat="48.53493" lon="2.54655">
        <ele>44</ele>
      </trkpt>
      <trkpt lat="48.53475" lon="2.5465">
        <ele>44</ele>
      </trkpt>
      <trkpt lat="48.53454" lon="2.54635">
        <ele>44</ele>
      </trkpt>
      <trkpt lat="48.53437" lon="2.54624">
        <ele>44</ele>
      </trkpt>
      <trkpt lat="48.5343" lon="2.54626">
        <ele>44</ele>
      </trkpt>
      <trkpt lat="48.53011" lon="2.5442">
        <ele>54</ele>
      </trkpt>
      <trkpt lat="48.52916" lon="2.54667">
        <ele>47</ele>
      </trkpt>
      <trkpt lat="48.52832" lon="2.54571">
        <ele>49</ele>
      </trkpt>
    </trkseg>
  </trk>
  <trk>
    <name><![CDATA[Etape 3 2014-02-02 08:43:01]]></name>
    <desc><![CDATA[7h:30m:29s | 25.7 km]]></desc>
    <extensions>
      <line xmlns="http://www.topografix.com/GPX/gpx_style/0/2">
        <color>0000FF</color>
        <width>4</width>
      </line>
    </extensions>
    <trkseg>
      <trkpt lat="48.52831" lon="2.54581">
        <ele>108.94</ele>
        <time>2014-02-02T07:43:02Z</time>
      </trkpt>
      <trkpt lat="48.52847" lon="2.54556">
        <ele>108.21</ele>
        <time>2014-02-02T07:43:37Z</time>
      </trkpt>
      <trkpt lat="48.52824" lon="2.54558">
        <ele>104.32</ele>
        <time>2014-02-02T07:45:06Z</time>
      </trkpt>
      <trkpt lat="48.52805" lon="2.54539">
        <ele>104.62</ele>
        <time>2014-02-02T07:45:28Z</time>
      </trkpt>
      <trkpt lat="48.52786" lon="2.54518">
        <ele>104.58</ele>
        <time>2014-02-02T07:45:50Z</time>
      </trkpt>
      <trkpt lat="48.52766" lon="2.54503">
        <ele>106.73</ele>
        <time>2014-02-02T07:46:09Z</time>
      </trkpt>
      <trkpt lat="48.52748" lon="2.54479">
        <ele>106.79</ele>
        <time>2014-02-02T07:46:33Z</time>
      </trkpt>
      <trkpt lat="48.52734" lon="2.54453">
        <ele>106.17</ele>
        <time>2014-02-02T07:47:02Z</time>
      </trkpt>
      <trkpt lat="48.52723" lon="2.54422">
        <ele>106.7</ele>
        <time>2014-02-02T07:47:26Z</time>
      </trkpt>
      <trkpt lat="48.52708" lon="2.54395">
        <ele>106.78</ele>
        <time>2014-02-02T07:47:43Z</time>
      </trkpt>
      <trkpt lat="48.52696" lon="2.54365">
        <ele>106.1</ele>
        <time>2014-02-02T07:48:02Z</time>
      </trkpt>
      <trkpt lat="48.5268" lon="2.54342">
        <ele>106.33</ele>
        <time>2014-02-02T07:48:21Z</time>
      </trkpt>
      <trkpt lat="48.52665" lon="2.54316">
        <ele>106.45</ele>
        <time>2014-02-02T07:48:50Z</time>
      </trkpt>
      <trkpt lat="48.52649" lon="2.54292">
        <ele>106.77</ele>
        <time>2014-02-02T07:49:08Z</time>
      </trkpt>
      <trkpt lat="48.52631" lon="2.54271">
        <ele>107.69</ele>
        <time>2014-02-02T07:49:34Z</time>
      </trkpt>
      <trkpt lat="48.52614" lon="2.54247">
        <ele>108.69</ele>
        <time>2014-02-02T07:49:50Z</time>
      </trkpt>
      <trkpt lat="48.52597" lon="2.54226">
        <ele>108.64</ele>
        <time>2014-02-02T07:50:09Z</time>
      </trkpt>
      <trkpt lat="48.52574" lon="2.54218">
        <ele>108.07</ele>
        <time>2014-02-02T07:50:29Z</time>
      </trkpt>
      <trkpt lat="48.52551" lon="2.54218">
        <ele>109.43</ele>
        <time>2014-02-02T07:50:52Z</time>
      </trkpt>
      <trkpt lat="48.52529" lon="2.54227">
        <ele>109.69</ele>
        <time>2014-02-02T07:51:13Z</time>
      </trkpt>
      <trkpt lat="48.52509" lon="2.54208">
        <ele>111.13</ele>
        <time>2014-02-02T07:51:33Z</time>
      </trkpt>
      <trkpt lat="48.5249" lon="2.5419">
        <ele>111.59</ele>
        <time>2014-02-02T07:51:52Z</time>
      </trkpt>
      <trkpt lat="48.52472" lon="2.54167">
        <ele>110.51</ele>
        <time>2014-02-02T07:52:12Z</time>
      </trkpt>
      <trkpt lat="48.52455" lon="2.54144">
        <ele>111.74</ele>
        <time>2014-02-02T07:52:32Z</time>
      </trkpt>
      <trkpt lat="48.52435" lon="2.54127">
        <ele>111.23</ele>
        <time>2014-02-02T07:52:54Z</time>
      </trkpt>
      <trkpt lat="48.52416" lon="2.54108">
        <ele>111.89</ele>
        <time>2014-02-02T07:53:12Z</time>
      </trkpt>
      <trkpt lat="48.52395" lon="2.54092">
        <ele>113.09</ele>
        <time>2014-02-02T07:53:32Z</time>
      </trkpt>
      <trkpt lat="48.52375" lon="2.54077">
        <ele>113.37</ele>
        <time>2014-02-02T07:53:51Z</time>
      </trkpt>
      <trkpt lat="48.52357" lon="2.54055">
        <ele>113.03</ele>
        <time>2014-02-02T07:54:09Z</time>
      </trkpt>
      <trkpt lat="48.52337" lon="2.54036">
        <ele>113.28</ele>
        <time>2014-02-02T07:54:30Z</time>
      </trkpt>
      <trkpt lat="48.52317" lon="2.54016">
        <ele>113.1</ele>
        <time>2014-02-02T07:54:49Z</time>
      </trkpt>
      <trkpt lat="48.52297" lon="2.53998">
        <ele>115.18</ele>
        <time>2014-02-02T07:55:09Z</time>
      </trkpt>
      <trkpt lat="48.52277" lon="2.53981">
        <ele>116.83</ele>
        <time>2014-02-02T07:55:29Z</time>
      </trkpt>
      <trkpt lat="48.52257" lon="2.53963">
        <ele>117.82</ele>
        <time>2014-02-02T07:55:48Z</time>
      </trkpt>
      <trkpt lat="48.52238" lon="2.53944">
        <ele>117.57</ele>
        <time>2014-02-02T07:56:36Z</time>
      </trkpt>
      <trkpt lat="48.52216" lon="2.53933">
        <ele>117.42</ele>
        <time>2014-02-02T07:57:12Z</time>
      </trkpt>
      <trkpt lat="48.52204" lon="2.53962">
        <ele>117.08</ele>
        <time>2014-02-02T07:57:34Z</time>
      </trkpt>
      <trkpt lat="48.52191" lon="2.53991">
        <ele>117.47</ele>
        <time>2014-02-02T07:57:57Z</time>
      </trkpt>
      <trkpt lat="48.52178" lon="2.54021">
        <ele>117.92</ele>
        <time>2014-02-02T07:58:18Z</time>
      </trkpt>
      <trkpt lat="48.52159" lon="2.54043">
        <ele>119.21</ele>
        <time>2014-02-02T07:58:39Z</time>
      </trkpt>
      <trkpt lat="48.52141" lon="2.54063">
        <ele>121.17</ele>
        <time>2014-02-02T07:58:57Z</time>
      </trkpt>
      <trkpt lat="48.52126" lon="2.54088">
        <ele>123.34</ele>
        <time>2014-02-02T07:59:24Z</time>
      </trkpt>
      <trkpt lat="48.52108" lon="2.54111">
        <ele>123.79</ele>
        <time>2014-02-02T07:59:44Z</time>
      </trkpt>
      <trkpt lat="48.52088" lon="2.54128">
        <ele>124.76</ele>
        <time>2014-02-02T08:00:03Z</time>
      </trkpt>
      <trkpt lat="48.52066" lon="2.54135">
        <ele>126.83</ele>
        <time>2014-02-02T08:00:22Z</time>
      </trkpt>
      <trkpt lat="48.52044" lon="2.54122">
        <ele>126.54</ele>
        <time>2014-02-02T08:00:44Z</time>
      </trkpt>
      <trkpt lat="48.52021" lon="2.54117">
        <ele>127.3</ele>
        <time>2014-02-02T08:01:04Z</time>
      </trkpt>
      <trkpt lat="48.51998" lon="2.54113">
        <ele>127.39</ele>
        <time>2014-02-02T08:01:23Z</time>
      </trkpt>
      <trkpt lat="48.51975" lon="2.54106">
        <ele>126.58</ele>
        <time>2014-02-02T08:01:42Z</time>
      </trkpt>
      <trkpt lat="48.51952" lon="2.54098">
        <ele>125.3</ele>
        <time>2014-02-02T08:02:00Z</time>
      </trkpt>
      <trkpt lat="48.5193" lon="2.54095">
        <ele>125.26</ele>
        <time>2014-02-02T08:02:17Z</time>
      </trkpt>
      <trkpt lat="48.51908" lon="2.54085">
        <ele>124.53</ele>
        <time>2014-02-02T08:02:33Z</time>
      </trkpt>
      <trkpt lat="48.51884" lon="2.54082">
        <ele>124.57</ele>
        <time>2014-02-02T08:02:52Z</time>
      </trkpt>
      <trkpt lat="48.51861" lon="2.54079">
        <ele>125.45</ele>
        <time>2014-02-02T08:03:11Z</time>
      </trkpt>
      <trkpt lat="48.51837" lon="2.54074">
        <ele>125.58</ele>
        <time>2014-02-02T08:03:30Z</time>
      </trkpt>
      <trkpt lat="48.51815" lon="2.54069">
        <ele>125.92</ele>
        <time>2014-02-02T08:03:47Z</time>
      </trkpt>
      <trkpt lat="48.51792" lon="2.54064">
        <ele>124.81</ele>
        <time>2014-02-02T08:04:03Z</time>
      </trkpt>
      <trkpt lat="48.51769" lon="2.54057">
        <ele>125.1</ele>
        <time>2014-02-02T08:04:19Z</time>
      </trkpt>
      <trkpt lat="48.51747" lon="2.54046">
        <ele>123.56</ele>
        <time>2014-02-02T08:04:36Z</time>
      </trkpt>
      <trkpt lat="48.51725" lon="2.54038">
        <ele>122.37</ele>
        <time>2014-02-02T08:04:52Z</time>
      </trkpt>
      <trkpt lat="48.51703" lon="2.54028">
        <ele>121.69</ele>
        <time>2014-02-02T08:05:09Z</time>
      </trkpt>
      <trkpt lat="48.5168" lon="2.54028">
        <ele>122</ele>
        <time>2014-02-02T08:05:25Z</time>
      </trkpt>
      <trkpt lat="48.51657" lon="2.54022">
        <ele>121.83</ele>
        <time>2014-02-02T08:05:42Z</time>
      </trkpt>
      <trkpt lat="48.51634" lon="2.54019">
        <ele>119.88</ele>
        <time>2014-02-02T08:06:00Z</time>
      </trkpt>
      <trkpt lat="48.51612" lon="2.54007">
        <ele>119.88</ele>
        <time>2014-02-02T08:06:18Z</time>
      </trkpt>
      <trkpt lat="48.51589" lon="2.54">
        <ele>120.99</ele>
        <time>2014-02-02T08:06:36Z</time>
      </trkpt>
      <trkpt lat="48.51569" lon="2.53983">
        <ele>120.9</ele>
        <time>2014-02-02T08:06:57Z</time>
      </trkpt>
      <trkpt lat="48.51548" lon="2.53966">
        <ele>120.49</ele>
        <time>2014-02-02T08:07:15Z</time>
      </trkpt>
      <trkpt lat="48.51529" lon="2.53951">
        <ele>119.76</ele>
        <time>2014-02-02T08:07:32Z</time>
      </trkpt>
      <trkpt lat="48.51508" lon="2.53935">
        <ele>120.58</ele>
        <time>2014-02-02T08:07:50Z</time>
      </trkpt>
      <trkpt lat="48.51488" lon="2.53919">
        <ele>120.08</ele>
        <time>2014-02-02T08:08:07Z</time>
      </trkpt>
      <trkpt lat="48.51467" lon="2.53902">
        <ele>120.4</ele>
        <time>2014-02-02T08:08:26Z</time>
      </trkpt>
      <trkpt lat="48.51447" lon="2.53886">
        <ele>121.07</ele>
        <time>2014-02-02T08:08:45Z</time>
      </trkpt>
      <trkpt lat="48.51426" lon="2.53872">
        <ele>121.13</ele>
        <time>2014-02-02T08:09:04Z</time>
      </trkpt>
      <trkpt lat="48.51405" lon="2.53857">
        <ele>121.66</ele>
        <time>2014-02-02T08:09:24Z</time>
      </trkpt>
      <trkpt lat="48.51389" lon="2.53882">
        <ele>122.39</ele>
        <time>2014-02-02T08:10:14Z</time>
      </trkpt>
      <trkpt lat="48.51381" lon="2.53914">
        <ele>124.36</ele>
        <time>2014-02-02T08:10:33Z</time>
      </trkpt>
      <trkpt lat="48.51371" lon="2.53945">
        <ele>123.4</ele>
        <time>2014-02-02T08:10:58Z</time>
      </trkpt>
      <trkpt lat="48.51371" lon="2.5398">
        <ele>122.48</ele>
        <time>2014-02-02T08:11:20Z</time>
      </trkpt>
      <trkpt lat="48.51365" lon="2.54014">
        <ele>120.57</ele>
        <time>2014-02-02T08:11:34Z</time>
      </trkpt>
      <trkpt lat="48.51361" lon="2.54047">
        <ele>119.79</ele>
        <time>2014-02-02T08:11:50Z</time>
      </trkpt>
      <trkpt lat="48.51352" lon="2.54078">
        <ele>120.69</ele>
        <time>2014-02-02T08:12:10Z</time>
      </trkpt>
      <trkpt lat="48.51348" lon="2.54114">
        <ele>120.95</ele>
        <time>2014-02-02T08:12:30Z</time>
      </trkpt>
      <trkpt lat="48.5133" lon="2.54135">
        <ele>118.9</ele>
        <time>2014-02-02T08:12:58Z</time>
      </trkpt>
      <trkpt lat="48.51312" lon="2.54156">
        <ele>120.42</ele>
        <time>2014-02-02T08:13:30Z</time>
      </trkpt>
      <trkpt lat="48.51317" lon="2.5419">
        <ele>118.88</ele>
        <time>2014-02-02T08:14:28Z</time>
      </trkpt>
      <trkpt lat="48.51314" lon="2.54224">
        <ele>117.81</ele>
        <time>2014-02-02T08:14:42Z</time>
      </trkpt>
      <trkpt lat="48.51303" lon="2.54255">
        <ele>116.91</ele>
        <time>2014-02-02T08:15:02Z</time>
      </trkpt>
      <trkpt lat="48.51291" lon="2.54285">
        <ele>115.83</ele>
        <time>2014-02-02T08:15:20Z</time>
      </trkpt>
      <trkpt lat="48.51278" lon="2.54314">
        <ele>115.47</ele>
        <time>2014-02-02T08:15:33Z</time>
      </trkpt>
      <trkpt lat="48.51264" lon="2.54344">
        <ele>116.74</ele>
        <time>2014-02-02T08:15:47Z</time>
      </trkpt>
      <trkpt lat="48.51256" lon="2.54376">
        <ele>116.62</ele>
        <time>2014-02-02T08:16:18Z</time>
      </trkpt>
      <trkpt lat="48.51242" lon="2.54403">
        <ele>115</ele>
        <time>2014-02-02T08:16:42Z</time>
      </trkpt>
      <trkpt lat="48.51227" lon="2.54429">
        <ele>111.2</ele>
        <time>2014-02-02T08:17:02Z</time>
      </trkpt>
      <trkpt lat="48.51211" lon="2.54456">
        <ele>108.54</ele>
        <time>2014-02-02T08:17:19Z</time>
      </trkpt>
      <trkpt lat="48.51197" lon="2.54484">
        <ele>106.45</ele>
        <time>2014-02-02T08:17:37Z</time>
      </trkpt>
      <trkpt lat="48.51185" lon="2.54515">
        <ele>103.82</ele>
        <time>2014-02-02T08:17:55Z</time>
      </trkpt>
      <trkpt lat="48.51177" lon="2.54548">
        <ele>104.2</ele>
        <time>2014-02-02T08:18:16Z</time>
      </trkpt>
      <trkpt lat="48.51169" lon="2.54581">
        <ele>101.35</ele>
        <time>2014-02-02T08:18:37Z</time>
      </trkpt>
      <trkpt lat="48.51152" lon="2.54607">
        <ele>100</ele>
        <time>2014-02-02T08:18:51Z</time>
      </trkpt>
      <trkpt lat="48.51129" lon="2.54609">
        <ele>99.03</ele>
        <time>2014-02-02T08:19:07Z</time>
      </trkpt>
      <trkpt lat="48.51108" lon="2.54624">
        <ele>97.18</ele>
        <time>2014-02-02T08:19:30Z</time>
      </trkpt>
      <trkpt lat="48.511" lon="2.54655">
        <ele>98.21</ele>
        <time>2014-02-02T08:20:09Z</time>
      </trkpt>
      <trkpt lat="48.51077" lon="2.5466">
        <ele>97.45</ele>
        <time>2014-02-02T08:20:33Z</time>
      </trkpt>
      <trkpt lat="48.51055" lon="2.54648">
        <ele>98.46</ele>
        <time>2014-02-02T08:21:04Z</time>
      </trkpt>
      <trkpt lat="48.51033" lon="2.54638">
        <ele>99.12</ele>
        <time>2014-02-02T08:21:33Z</time>
      </trkpt>
      <trkpt lat="48.51012" lon="2.54623">
        <ele>100.12</ele>
        <time>2014-02-02T08:22:13Z</time>
      </trkpt>
      <trkpt lat="48.50991" lon="2.54605">
        <ele>103.05</ele>
        <time>2014-02-02T08:23:12Z</time>
      </trkpt>
      <trkpt lat="48.50972" lon="2.54588">
        <ele>102.57</ele>
        <time>2014-02-02T08:23:48Z</time>
      </trkpt>
      <trkpt lat="48.50951" lon="2.54576">
        <ele>103.18</ele>
        <time>2014-02-02T08:24:14Z</time>
      </trkpt>
      <trkpt lat="48.50931" lon="2.5456">
        <ele>102.06</ele>
        <time>2014-02-02T08:25:16Z</time>
      </trkpt>
      <trkpt lat="48.50912" lon="2.5454">
        <ele>101.27</ele>
        <time>2014-02-02T08:25:55Z</time>
      </trkpt>
      <trkpt lat="48.50891" lon="2.54527">
        <ele>102.06</ele>
        <time>2014-02-02T08:26:19Z</time>
      </trkpt>
      <trkpt lat="48.50869" lon="2.54518">
        <ele>99.91</ele>
        <time>2014-02-02T08:26:41Z</time>
      </trkpt>
      <trkpt lat="48.50847" lon="2.54506">
        <ele>98.96</ele>
        <time>2014-02-02T08:27:01Z</time>
      </trkpt>
      <trkpt lat="48.50832" lon="2.54481">
        <ele>98.37</ele>
        <time>2014-02-02T08:27:30Z</time>
      </trkpt>
      <trkpt lat="48.50813" lon="2.5446">
        <ele>98.68</ele>
        <time>2014-02-02T08:27:53Z</time>
      </trkpt>
      <trkpt lat="48.50792" lon="2.54444">
        <ele>98.67</ele>
        <time>2014-02-02T08:28:18Z</time>
      </trkpt>
      <trkpt lat="48.50771" lon="2.54433">
        <ele>98.6</ele>
        <time>2014-02-02T08:28:38Z</time>
      </trkpt>
      <trkpt lat="48.50751" lon="2.54414">
        <ele>98.47</ele>
        <time>2014-02-02T08:28:58Z</time>
      </trkpt>
      <trkpt lat="48.50728" lon="2.54408">
        <ele>99.76</ele>
        <time>2014-02-02T08:29:18Z</time>
      </trkpt>
      <trkpt lat="48.50708" lon="2.54391">
        <ele>98.2</ele>
        <time>2014-02-02T08:29:39Z</time>
      </trkpt>
      <trkpt lat="48.50687" lon="2.54379">
        <ele>98.03</ele>
        <time>2014-02-02T08:30:10Z</time>
      </trkpt>
      <trkpt lat="48.50665" lon="2.54367">
        <ele>98.97</ele>
        <time>2014-02-02T08:30:29Z</time>
      </trkpt>
      <trkpt lat="48.50645" lon="2.54352">
        <ele>98.29</ele>
        <time>2014-02-02T08:30:47Z</time>
      </trkpt>
      <trkpt lat="48.50625" lon="2.54336">
        <ele>98.8</ele>
        <time>2014-02-02T08:31:14Z</time>
      </trkpt>
      <trkpt lat="48.50607" lon="2.54313">
        <ele>99.77</ele>
        <time>2014-02-02T08:31:41Z</time>
      </trkpt>
      <trkpt lat="48.50586" lon="2.54299">
        <ele>99.37</ele>
        <time>2014-02-02T08:32:14Z</time>
      </trkpt>
      <trkpt lat="48.50564" lon="2.54292">
        <ele>100.08</ele>
        <time>2014-02-02T08:32:40Z</time>
      </trkpt>
      <trkpt lat="48.50545" lon="2.54272">
        <ele>97.4</ele>
        <time>2014-02-02T08:33:03Z</time>
      </trkpt>
      <trkpt lat="48.50528" lon="2.5425">
        <ele>96.7</ele>
        <time>2014-02-02T08:33:33Z</time>
      </trkpt>
      <trkpt lat="48.50509" lon="2.5423">
        <ele>95.06</ele>
        <time>2014-02-02T08:33:57Z</time>
      </trkpt>
      <trkpt lat="48.50488" lon="2.54219">
        <ele>94.56</ele>
        <time>2014-02-02T08:34:23Z</time>
      </trkpt>
      <trkpt lat="48.50465" lon="2.54204">
        <ele>95.1</ele>
        <time>2014-02-02T08:34:49Z</time>
      </trkpt>
      <trkpt lat="48.50443" lon="2.54193">
        <ele>94.88</ele>
        <time>2014-02-02T08:35:10Z</time>
      </trkpt>
      <trkpt lat="48.50421" lon="2.54178">
        <ele>92.34</ele>
        <time>2014-02-02T08:35:28Z</time>
      </trkpt>
      <trkpt lat="48.50399" lon="2.54162">
        <ele>86.41</ele>
        <time>2014-02-02T08:35:40Z</time>
      </trkpt>
      <trkpt lat="48.50379" lon="2.54149">
        <ele>82.84</ele>
        <time>2014-02-02T08:35:57Z</time>
      </trkpt>
      <trkpt lat="48.50356" lon="2.54142">
        <ele>86.17</ele>
        <time>2014-02-02T08:40:43Z</time>
      </trkpt>
      <trkpt lat="48.50334" lon="2.54137">
        <ele>87.87</ele>
        <time>2014-02-02T08:41:11Z</time>
      </trkpt>
      <trkpt lat="48.50311" lon="2.54138">
        <ele>89.54</ele>
        <time>2014-02-02T08:41:30Z</time>
      </trkpt>
      <trkpt lat="48.50294" lon="2.54116">
        <ele>88.23</ele>
        <time>2014-02-02T08:42:16Z</time>
      </trkpt>
      <trkpt lat="48.50277" lon="2.54092">
        <ele>87.13</ele>
        <time>2014-02-02T08:42:41Z</time>
      </trkpt>
      <trkpt lat="48.50255" lon="2.54082">
        <ele>84.39</ele>
        <time>2014-02-02T08:43:08Z</time>
      </trkpt>
      <trkpt lat="48.50233" lon="2.54084">
        <ele>82.33</ele>
        <time>2014-02-02T08:43:31Z</time>
      </trkpt>
      <trkpt lat="48.50211" lon="2.54096">
        <ele>82.91</ele>
        <time>2014-02-02T08:43:52Z</time>
      </trkpt>
      <trkpt lat="48.50189" lon="2.54094">
        <ele>83.31</ele>
        <time>2014-02-02T08:44:18Z</time>
      </trkpt>
      <trkpt lat="48.50167" lon="2.54084">
        <ele>83.2</ele>
        <time>2014-02-02T08:44:40Z</time>
      </trkpt>
      <trkpt lat="48.50144" lon="2.54076">
        <ele>81.91</ele>
        <time>2014-02-02T08:45:03Z</time>
      </trkpt>
      <trkpt lat="48.50123" lon="2.54066">
        <ele>83.14</ele>
        <time>2014-02-02T08:45:33Z</time>
      </trkpt>
      <trkpt lat="48.501" lon="2.5407">
        <ele>84.89</ele>
        <time>2014-02-02T08:45:54Z</time>
      </trkpt>
      <trkpt lat="48.50078" lon="2.54083">
        <ele>85.3</ele>
        <time>2014-02-02T08:46:15Z</time>
      </trkpt>
      <trkpt lat="48.50057" lon="2.54096">
        <ele>84.29</ele>
        <time>2014-02-02T08:46:43Z</time>
      </trkpt>
      <trkpt lat="48.50042" lon="2.54123">
        <ele>84.31</ele>
        <time>2014-02-02T08:47:02Z</time>
      </trkpt>
      <trkpt lat="48.50024" lon="2.54145">
        <ele>83.34</ele>
        <time>2014-02-02T08:47:22Z</time>
      </trkpt>
      <trkpt lat="48.50015" lon="2.54176">
        <ele>82.74</ele>
        <time>2014-02-02T08:47:42Z</time>
      </trkpt>
      <trkpt lat="48.50007" lon="2.54208">
        <ele>84.17</ele>
        <time>2014-02-02T08:48:03Z</time>
      </trkpt>
      <trkpt lat="48.49998" lon="2.5424">
        <ele>84</ele>
        <time>2014-02-02T08:48:18Z</time>
      </trkpt>
      <trkpt lat="48.49981" lon="2.54265">
        <ele>83.93</ele>
        <time>2014-02-02T08:48:38Z</time>
      </trkpt>
      <trkpt lat="48.49969" lon="2.54293">
        <ele>83.34</ele>
        <time>2014-02-02T08:49:03Z</time>
      </trkpt>
      <trkpt lat="48.49956" lon="2.54322">
        <ele>83.79</ele>
        <time>2014-02-02T08:49:44Z</time>
      </trkpt>
      <trkpt lat="48.49945" lon="2.54351">
        <ele>83.08</ele>
        <time>2014-02-02T08:50:04Z</time>
      </trkpt>
      <trkpt lat="48.49926" lon="2.5437">
        <ele>83.59</ele>
        <time>2014-02-02T08:51:25Z</time>
      </trkpt>
      <trkpt lat="48.49911" lon="2.54396">
        <ele>83.87</ele>
        <time>2014-02-02T08:51:46Z</time>
      </trkpt>
      <trkpt lat="48.4989" lon="2.54413">
        <ele>84.34</ele>
        <time>2014-02-02T08:52:02Z</time>
      </trkpt>
      <trkpt lat="48.4987" lon="2.54429">
        <ele>83.4</ele>
        <time>2014-02-02T08:52:24Z</time>
      </trkpt>
      <trkpt lat="48.49862" lon="2.54461">
        <ele>81.88</ele>
        <time>2014-02-02T08:52:49Z</time>
      </trkpt>
      <trkpt lat="48.49841" lon="2.54473">
        <ele>81.26</ele>
        <time>2014-02-02T08:53:12Z</time>
      </trkpt>
      <trkpt lat="48.49819" lon="2.54485">
        <ele>87.47</ele>
        <time>2014-02-02T08:53:43Z</time>
      </trkpt>
      <trkpt lat="48.49807" lon="2.54513">
        <ele>86.81</ele>
        <time>2014-02-02T08:54:17Z</time>
      </trkpt>
      <trkpt lat="48.49802" lon="2.54546">
        <ele>85.2</ele>
        <time>2014-02-02T08:54:48Z</time>
      </trkpt>
      <trkpt lat="48.49795" lon="2.54578">
        <ele>85.96</ele>
        <time>2014-02-02T08:55:17Z</time>
      </trkpt>
      <trkpt lat="48.49785" lon="2.5461">
        <ele>87.44</ele>
        <time>2014-02-02T08:55:44Z</time>
      </trkpt>
      <trkpt lat="48.49775" lon="2.5464">
        <ele>88.69</ele>
        <time>2014-02-02T08:56:10Z</time>
      </trkpt>
      <trkpt lat="48.49772" lon="2.54674">
        <ele>90.48</ele>
        <time>2014-02-02T08:56:33Z</time>
      </trkpt>
      <trkpt lat="48.49771" lon="2.54708">
        <ele>90.61</ele>
        <time>2014-02-02T08:56:57Z</time>
      </trkpt>
      <trkpt lat="48.49768" lon="2.54742">
        <ele>94.67</ele>
        <time>2014-02-02T08:57:21Z</time>
      </trkpt>
      <trkpt lat="48.49745" lon="2.54742">
        <ele>89.43</ele>
        <time>2014-02-02T08:58:17Z</time>
      </trkpt>
      <trkpt lat="48.49723" lon="2.54731">
        <ele>88.13</ele>
        <time>2014-02-02T08:58:36Z</time>
      </trkpt>
      <trkpt lat="48.49701" lon="2.54725">
        <ele>85.62</ele>
        <time>2014-02-02T08:58:55Z</time>
      </trkpt>
      <trkpt lat="48.49698" lon="2.54758">
        <ele>89.29</ele>
        <time>2014-02-02T08:59:24Z</time>
      </trkpt>
      <trkpt lat="48.49691" lon="2.54791">
        <ele>90.19</ele>
        <time>2014-02-02T08:59:53Z</time>
      </trkpt>
      <trkpt lat="48.49672" lon="2.5481">
        <ele>91.29</ele>
        <time>2014-02-02T09:00:13Z</time>
      </trkpt>
      <trkpt lat="48.49659" lon="2.54839">
        <ele>93.36</ele>
        <time>2014-02-02T09:01:59Z</time>
      </trkpt>
      <trkpt lat="48.49637" lon="2.54834">
        <ele>96.05</ele>
        <time>2014-02-02T09:02:19Z</time>
      </trkpt>
      <trkpt lat="48.49616" lon="2.54819">
        <ele>97.69</ele>
        <time>2014-02-02T09:02:39Z</time>
      </trkpt>
      <trkpt lat="48.49593" lon="2.54824">
        <ele>99.85</ele>
        <time>2014-02-02T09:03:00Z</time>
      </trkpt>
      <trkpt lat="48.4957" lon="2.54827">
        <ele>101.67</ele>
        <time>2014-02-02T09:03:17Z</time>
      </trkpt>
      <trkpt lat="48.49547" lon="2.5483">
        <ele>102.7</ele>
        <time>2014-02-02T09:03:35Z</time>
      </trkpt>
      <trkpt lat="48.49524" lon="2.5483">
        <ele>104.95</ele>
        <time>2014-02-02T09:04:02Z</time>
      </trkpt>
      <trkpt lat="48.49501" lon="2.5484">
        <ele>106.04</ele>
        <time>2014-02-02T09:04:21Z</time>
      </trkpt>
      <trkpt lat="48.49479" lon="2.54842">
        <ele>106.8</ele>
        <time>2014-02-02T09:04:43Z</time>
      </trkpt>
      <trkpt lat="48.49459" lon="2.54858">
        <ele>107.07</ele>
        <time>2014-02-02T09:05:02Z</time>
      </trkpt>
      <trkpt lat="48.49436" lon="2.54864">
        <ele>107.41</ele>
        <time>2014-02-02T09:05:23Z</time>
      </trkpt>
      <trkpt lat="48.49413" lon="2.54868">
        <ele>106.86</ele>
        <time>2014-02-02T09:05:42Z</time>
      </trkpt>
      <trkpt lat="48.49391" lon="2.54858">
        <ele>107.68</ele>
        <time>2014-02-02T09:06:02Z</time>
      </trkpt>
      <trkpt lat="48.49369" lon="2.54848">
        <ele>106.7</ele>
        <time>2014-02-02T09:06:33Z</time>
      </trkpt>
      <trkpt lat="48.49347" lon="2.54837">
        <ele>107.29</ele>
        <time>2014-02-02T09:06:52Z</time>
      </trkpt>
      <trkpt lat="48.49325" lon="2.54828">
        <ele>107.4</ele>
        <time>2014-02-02T09:07:39Z</time>
      </trkpt>
      <trkpt lat="48.49303" lon="2.5483">
        <ele>107.43</ele>
        <time>2014-02-02T09:08:08Z</time>
      </trkpt>
      <trkpt lat="48.49281" lon="2.54819">
        <ele>107.46</ele>
        <time>2014-02-02T09:09:31Z</time>
      </trkpt>
      <trkpt lat="48.49257" lon="2.54813">
        <ele>107.39</ele>
        <time>2014-02-02T09:09:55Z</time>
      </trkpt>
      <trkpt lat="48.49235" lon="2.54805">
        <ele>107.69</ele>
        <time>2014-02-02T09:10:14Z</time>
      </trkpt>
      <trkpt lat="48.49213" lon="2.54796">
        <ele>107.7</ele>
        <time>2014-02-02T09:10:37Z</time>
      </trkpt>
      <trkpt lat="48.49191" lon="2.54786">
        <ele>106.99</ele>
        <time>2014-02-02T09:10:56Z</time>
      </trkpt>
      <trkpt lat="48.49169" lon="2.5478">
        <ele>105.76</ele>
        <time>2014-02-02T09:11:41Z</time>
      </trkpt>
      <trkpt lat="48.49146" lon="2.5477">
        <ele>104.93</ele>
        <time>2014-02-02T09:12:02Z</time>
      </trkpt>
      <trkpt lat="48.49125" lon="2.54756">
        <ele>106.2</ele>
        <time>2014-02-02T09:12:24Z</time>
      </trkpt>
      <trkpt lat="48.49104" lon="2.54742">
        <ele>106.3</ele>
        <time>2014-02-02T09:12:44Z</time>
      </trkpt>
      <trkpt lat="48.49082" lon="2.54731">
        <ele>105.95</ele>
        <time>2014-02-02T09:13:05Z</time>
      </trkpt>
      <trkpt lat="48.49061" lon="2.54716">
        <ele>107.34</ele>
        <time>2014-02-02T09:13:23Z</time>
      </trkpt>
      <trkpt lat="48.49039" lon="2.54704">
        <ele>107.73</ele>
        <time>2014-02-02T09:13:44Z</time>
      </trkpt>
      <trkpt lat="48.49018" lon="2.54719">
        <ele>107.29</ele>
        <time>2014-02-02T09:14:13Z</time>
      </trkpt>
      <trkpt lat="48.49002" lon="2.54743">
        <ele>108.37</ele>
        <time>2014-02-02T09:14:32Z</time>
      </trkpt>
      <trkpt lat="48.48983" lon="2.54763">
        <ele>110.09</ele>
        <time>2014-02-02T09:14:52Z</time>
      </trkpt>
      <trkpt lat="48.48964" lon="2.5478">
        <ele>110.5</ele>
        <time>2014-02-02T09:15:26Z</time>
      </trkpt>
      <trkpt lat="48.48942" lon="2.54792">
        <ele>110.9</ele>
        <time>2014-02-02T09:15:47Z</time>
      </trkpt>
      <trkpt lat="48.48922" lon="2.54806">
        <ele>110.54</ele>
        <time>2014-02-02T09:16:13Z</time>
      </trkpt>
      <trkpt lat="48.48899" lon="2.54813">
        <ele>111.87</ele>
        <time>2014-02-02T09:16:52Z</time>
      </trkpt>
      <trkpt lat="48.48877" lon="2.54824">
        <ele>111.9</ele>
        <time>2014-02-02T09:17:11Z</time>
      </trkpt>
      <trkpt lat="48.48855" lon="2.54833">
        <ele>111.87</ele>
        <time>2014-02-02T09:17:30Z</time>
      </trkpt>
      <trkpt lat="48.48831" lon="2.54839">
        <ele>112.62</ele>
        <time>2014-02-02T09:18:23Z</time>
      </trkpt>
      <trkpt lat="48.48809" lon="2.54846">
        <ele>113.11</ele>
        <time>2014-02-02T09:18:41Z</time>
      </trkpt>
      <trkpt lat="48.48786" lon="2.54854">
        <ele>113.38</ele>
        <time>2014-02-02T09:19:00Z</time>
      </trkpt>
      <trkpt lat="48.48763" lon="2.54861">
        <ele>114.37</ele>
        <time>2014-02-02T09:19:19Z</time>
      </trkpt>
      <trkpt lat="48.48741" lon="2.54868">
        <ele>115.88</ele>
        <time>2014-02-02T09:19:38Z</time>
      </trkpt>
      <trkpt lat="48.48719" lon="2.54872">
        <ele>116.51</ele>
        <time>2014-02-02T09:19:57Z</time>
      </trkpt>
      <trkpt lat="48.48695" lon="2.54875">
        <ele>117.37</ele>
        <time>2014-02-02T09:20:16Z</time>
      </trkpt>
      <trkpt lat="48.48672" lon="2.54876">
        <ele>118.57</ele>
        <time>2014-02-02T09:20:36Z</time>
      </trkpt>
      <trkpt lat="48.48649" lon="2.54876">
        <ele>119.09</ele>
        <time>2014-02-02T09:20:55Z</time>
      </trkpt>
      <trkpt lat="48.48625" lon="2.54875">
        <ele>119.92</ele>
        <time>2014-02-02T09:21:14Z</time>
      </trkpt>
      <trkpt lat="48.48602" lon="2.54872">
        <ele>120.17</ele>
        <time>2014-02-02T09:21:32Z</time>
      </trkpt>
      <trkpt lat="48.48579" lon="2.54869">
        <ele>121.1</ele>
        <time>2014-02-02T09:21:50Z</time>
      </trkpt>
      <trkpt lat="48.48557" lon="2.54865">
        <ele>121.96</ele>
        <time>2014-02-02T09:22:08Z</time>
      </trkpt>
      <trkpt lat="48.48534" lon="2.5486">
        <ele>122.84</ele>
        <time>2014-02-02T09:22:26Z</time>
      </trkpt>
      <trkpt lat="48.48512" lon="2.54856">
        <ele>122.41</ele>
        <time>2014-02-02T09:22:44Z</time>
      </trkpt>
      <trkpt lat="48.48488" lon="2.54859">
        <ele>121.83</ele>
        <time>2014-02-02T09:23:03Z</time>
      </trkpt>
      <trkpt lat="48.48466" lon="2.54868">
        <ele>122.87</ele>
        <time>2014-02-02T09:23:22Z</time>
      </trkpt>
      <trkpt lat="48.48444" lon="2.54878">
        <ele>121.81</ele>
        <time>2014-02-02T09:23:41Z</time>
      </trkpt>
      <trkpt lat="48.48422" lon="2.54885">
        <ele>121.48</ele>
        <time>2014-02-02T09:24:00Z</time>
      </trkpt>
      <trkpt lat="48.484" lon="2.54893">
        <ele>122.49</ele>
        <time>2014-02-02T09:24:17Z</time>
      </trkpt>
      <trkpt lat="48.48378" lon="2.54899">
        <ele>122.48</ele>
        <time>2014-02-02T09:24:34Z</time>
      </trkpt>
      <trkpt lat="48.48355" lon="2.54907">
        <ele>122.88</ele>
        <time>2014-02-02T09:24:52Z</time>
      </trkpt>
      <trkpt lat="48.48333" lon="2.54912">
        <ele>122.69</ele>
        <time>2014-02-02T09:25:10Z</time>
      </trkpt>
      <trkpt lat="48.48309" lon="2.54912">
        <ele>123.97</ele>
        <time>2014-02-02T09:25:29Z</time>
      </trkpt>
      <trkpt lat="48.48286" lon="2.54917">
        <ele>124.47</ele>
        <time>2014-02-02T09:25:47Z</time>
      </trkpt>
      <trkpt lat="48.48264" lon="2.54926">
        <ele>124.43</ele>
        <time>2014-02-02T09:26:06Z</time>
      </trkpt>
      <trkpt lat="48.48242" lon="2.54936">
        <ele>124.08</ele>
        <time>2014-02-02T09:26:25Z</time>
      </trkpt>
      <trkpt lat="48.48219" lon="2.54948">
        <ele>124.77</ele>
        <time>2014-02-02T09:26:43Z</time>
      </trkpt>
      <trkpt lat="48.48197" lon="2.54957">
        <ele>124.78</ele>
        <time>2014-02-02T09:27:02Z</time>
      </trkpt>
      <trkpt lat="48.48174" lon="2.54962">
        <ele>124.54</ele>
        <time>2014-02-02T09:27:21Z</time>
      </trkpt>
      <trkpt lat="48.48151" lon="2.5496">
        <ele>124.5</ele>
        <time>2014-02-02T09:27:40Z</time>
      </trkpt>
      <trkpt lat="48.4813" lon="2.54948">
        <ele>124.48</ele>
        <time>2014-02-02T09:28:00Z</time>
      </trkpt>
      <trkpt lat="48.4811" lon="2.54933">
        <ele>125.29</ele>
        <time>2014-02-02T09:28:16Z</time>
      </trkpt>
      <trkpt lat="48.48089" lon="2.5492">
        <ele>125.73</ele>
        <time>2014-02-02T09:28:37Z</time>
      </trkpt>
      <trkpt lat="48.48067" lon="2.54932">
        <ele>125.9</ele>
        <time>2014-02-02T09:28:56Z</time>
      </trkpt>
      <trkpt lat="48.48047" lon="2.54948">
        <ele>126.08</ele>
        <time>2014-02-02T09:29:16Z</time>
      </trkpt>
      <trkpt lat="48.48027" lon="2.54964">
        <ele>127.33</ele>
        <time>2014-02-02T09:29:35Z</time>
      </trkpt>
      <trkpt lat="48.48006" lon="2.54979">
        <ele>127.37</ele>
        <time>2014-02-02T09:29:53Z</time>
      </trkpt>
      <trkpt lat="48.47984" lon="2.5499">
        <ele>126.21</ele>
        <time>2014-02-02T09:30:13Z</time>
      </trkpt>
      <trkpt lat="48.47965" lon="2.55008">
        <ele>126.32</ele>
        <time>2014-02-02T09:30:31Z</time>
      </trkpt>
      <trkpt lat="48.47947" lon="2.55031">
        <ele>126.47</ele>
        <time>2014-02-02T09:30:46Z</time>
      </trkpt>
      <trkpt lat="48.47929" lon="2.55052">
        <ele>126.99</ele>
        <time>2014-02-02T09:31:07Z</time>
      </trkpt>
      <trkpt lat="48.47911" lon="2.55073">
        <ele>127.73</ele>
        <time>2014-02-02T09:31:27Z</time>
      </trkpt>
      <trkpt lat="48.47892" lon="2.55093">
        <ele>127.57</ele>
        <time>2014-02-02T09:31:45Z</time>
      </trkpt>
      <trkpt lat="48.47872" lon="2.5511">
        <ele>127.13</ele>
        <time>2014-02-02T09:32:06Z</time>
      </trkpt>
      <trkpt lat="48.47853" lon="2.5513">
        <ele>126.75</ele>
        <time>2014-02-02T09:32:27Z</time>
      </trkpt>
      <trkpt lat="48.47835" lon="2.55151">
        <ele>127.09</ele>
        <time>2014-02-02T09:32:44Z</time>
      </trkpt>
      <trkpt lat="48.47817" lon="2.55172">
        <ele>127.68</ele>
        <time>2014-02-02T09:33:16Z</time>
      </trkpt>
      <trkpt lat="48.47797" lon="2.55187">
        <ele>128.3</ele>
        <time>2014-02-02T09:33:39Z</time>
      </trkpt>
      <trkpt lat="48.47779" lon="2.55207">
        <ele>127.99</ele>
        <time>2014-02-02T09:33:56Z</time>
      </trkpt>
      <trkpt lat="48.4776" lon="2.55227">
        <ele>128.53</ele>
        <time>2014-02-02T09:34:15Z</time>
      </trkpt>
      <trkpt lat="48.47743" lon="2.55248">
        <ele>129.37</ele>
        <time>2014-02-02T09:34:39Z</time>
      </trkpt>
      <trkpt lat="48.47724" lon="2.55268">
        <ele>129.89</ele>
        <time>2014-02-02T09:34:57Z</time>
      </trkpt>
      <trkpt lat="48.47705" lon="2.5529">
        <ele>130.63</ele>
        <time>2014-02-02T09:35:20Z</time>
      </trkpt>
      <trkpt lat="48.47686" lon="2.55311">
        <ele>131.57</ele>
        <time>2014-02-02T09:35:38Z</time>
      </trkpt>
      <trkpt lat="48.47671" lon="2.55339">
        <ele>131.68</ele>
        <time>2014-02-02T09:36:02Z</time>
      </trkpt>
      <trkpt lat="48.47651" lon="2.55354">
        <ele>131.97</ele>
        <time>2014-02-02T09:36:20Z</time>
      </trkpt>
      <trkpt lat="48.47631" lon="2.55372">
        <ele>131.87</ele>
        <time>2014-02-02T09:36:44Z</time>
      </trkpt>
      <trkpt lat="48.47609" lon="2.55378">
        <ele>129.69</ele>
        <time>2014-02-02T09:37:08Z</time>
      </trkpt>
      <trkpt lat="48.47586" lon="2.55384">
        <ele>130.34</ele>
        <time>2014-02-02T09:37:23Z</time>
      </trkpt>
      <trkpt lat="48.47566" lon="2.55401">
        <ele>129.87</ele>
        <time>2014-02-02T09:38:17Z</time>
      </trkpt>
      <trkpt lat="48.47571" lon="2.55436">
        <ele>124.29</ele>
        <time>2014-02-02T09:39:35Z</time>
      </trkpt>
      <trkpt lat="48.47584" lon="2.55465">
        <ele>123.06</ele>
        <time>2014-02-02T09:40:03Z</time>
      </trkpt>
      <trkpt lat="48.47594" lon="2.55496">
        <ele>119.77</ele>
        <time>2014-02-02T09:40:20Z</time>
      </trkpt>
      <trkpt lat="48.4761" lon="2.55521">
        <ele>119.23</ele>
        <time>2014-02-02T09:40:35Z</time>
      </trkpt>
      <trkpt lat="48.4763" lon="2.5554">
        <ele>119.77</ele>
        <time>2014-02-02T09:40:56Z</time>
      </trkpt>
      <trkpt lat="48.47632" lon="2.55578">
        <ele>119.82</ele>
        <time>2014-02-02T09:41:50Z</time>
      </trkpt>
      <trkpt lat="48.47621" lon="2.55547">
        <ele>120.07</ele>
        <time>2014-02-02T09:43:16Z</time>
      </trkpt>
      <trkpt lat="48.47604" lon="2.55524">
        <ele>119.36</ele>
        <time>2014-02-02T09:43:36Z</time>
      </trkpt>
      <trkpt lat="48.47591" lon="2.55495">
        <ele>117.82</ele>
        <time>2014-02-02T09:43:56Z</time>
      </trkpt>
      <trkpt lat="48.47575" lon="2.55471">
        <ele>116.64</ele>
        <time>2014-02-02T09:44:15Z</time>
      </trkpt>
      <trkpt lat="48.47564" lon="2.5544">
        <ele>117.32</ele>
        <time>2014-02-02T09:44:34Z</time>
      </trkpt>
      <trkpt lat="48.47557" lon="2.55407">
        <ele>120.2</ele>
        <time>2014-02-02T09:46:26Z</time>
      </trkpt>
      <trkpt lat="48.47541" lon="2.55434">
        <ele>118.22</ele>
        <time>2014-02-02T09:47:11Z</time>
      </trkpt>
      <trkpt lat="48.47527" lon="2.55463">
        <ele>117.88</ele>
        <time>2014-02-02T09:47:37Z</time>
      </trkpt>
      <trkpt lat="48.47515" lon="2.55493">
        <ele>118.87</ele>
        <time>2014-02-02T09:47:51Z</time>
      </trkpt>
      <trkpt lat="48.47495" lon="2.55509">
        <ele>121.3</ele>
        <time>2014-02-02T09:48:11Z</time>
      </trkpt>
      <trkpt lat="48.47473" lon="2.55519">
        <ele>121.9</ele>
        <time>2014-02-02T09:48:32Z</time>
      </trkpt>
      <trkpt lat="48.4745" lon="2.55524">
        <ele>122</ele>
        <time>2014-02-02T09:48:52Z</time>
      </trkpt>
      <trkpt lat="48.47428" lon="2.55531">
        <ele>122.19</ele>
        <time>2014-02-02T09:49:12Z</time>
      </trkpt>
      <trkpt lat="48.47405" lon="2.55536">
        <ele>123.26</ele>
        <time>2014-02-02T09:49:31Z</time>
      </trkpt>
      <trkpt lat="48.47381" lon="2.55541">
        <ele>123.48</ele>
        <time>2014-02-02T09:49:48Z</time>
      </trkpt>
      <trkpt lat="48.47359" lon="2.55547">
        <ele>123.87</ele>
        <time>2014-02-02T09:50:06Z</time>
      </trkpt>
      <trkpt lat="48.47335" lon="2.55548">
        <ele>124.8</ele>
        <time>2014-02-02T09:50:29Z</time>
      </trkpt>
      <trkpt lat="48.47312" lon="2.55547">
        <ele>124.88</ele>
        <time>2014-02-02T09:50:49Z</time>
      </trkpt>
      <trkpt lat="48.47289" lon="2.55552">
        <ele>125.1</ele>
        <time>2014-02-02T09:51:07Z</time>
      </trkpt>
      <trkpt lat="48.47266" lon="2.55551">
        <ele>124.29</ele>
        <time>2014-02-02T09:51:26Z</time>
      </trkpt>
      <trkpt lat="48.47243" lon="2.55553">
        <ele>124.53</ele>
        <time>2014-02-02T09:51:48Z</time>
      </trkpt>
      <trkpt lat="48.4722" lon="2.55559">
        <ele>125.14</ele>
        <time>2014-02-02T09:52:04Z</time>
      </trkpt>
      <trkpt lat="48.47197" lon="2.55565">
        <ele>125.9</ele>
        <time>2014-02-02T09:52:22Z</time>
      </trkpt>
      <trkpt lat="48.47174" lon="2.55567">
        <ele>125.91</ele>
        <time>2014-02-02T09:52:41Z</time>
      </trkpt>
      <trkpt lat="48.47152" lon="2.55568">
        <ele>125.94</ele>
        <time>2014-02-02T09:52:59Z</time>
      </trkpt>
      <trkpt lat="48.47129" lon="2.5557">
        <ele>125.03</ele>
        <time>2014-02-02T09:53:17Z</time>
      </trkpt>
      <trkpt lat="48.47106" lon="2.55575">
        <ele>125.38</ele>
        <time>2014-02-02T09:53:34Z</time>
      </trkpt>
      <trkpt lat="48.47082" lon="2.55574">
        <ele>124.72</ele>
        <time>2014-02-02T09:53:52Z</time>
      </trkpt>
      <trkpt lat="48.47059" lon="2.55572">
        <ele>124.83</ele>
        <time>2014-02-02T09:54:10Z</time>
      </trkpt>
      <trkpt lat="48.47036" lon="2.55565">
        <ele>124.3</ele>
        <time>2014-02-02T09:54:29Z</time>
      </trkpt>
      <trkpt lat="48.47014" lon="2.55558">
        <ele>123.43</ele>
        <time>2014-02-02T09:54:48Z</time>
      </trkpt>
      <trkpt lat="48.46991" lon="2.55551">
        <ele>122.39</ele>
        <time>2014-02-02T09:55:08Z</time>
      </trkpt>
      <trkpt lat="48.46969" lon="2.55548">
        <ele>122.57</ele>
        <time>2014-02-02T09:55:26Z</time>
      </trkpt>
      <trkpt lat="48.46946" lon="2.55542">
        <ele>123.42</ele>
        <time>2014-02-02T09:55:45Z</time>
      </trkpt>
      <trkpt lat="48.46922" lon="2.55537">
        <ele>123.14</ele>
        <time>2014-02-02T09:56:04Z</time>
      </trkpt>
      <trkpt lat="48.469" lon="2.55531">
        <ele>122.7</ele>
        <time>2014-02-02T09:56:22Z</time>
      </trkpt>
      <trkpt lat="48.46877" lon="2.55526">
        <ele>123</ele>
        <time>2014-02-02T09:56:40Z</time>
      </trkpt>
      <trkpt lat="48.46854" lon="2.55522">
        <ele>123.1</ele>
        <time>2014-02-02T09:56:58Z</time>
      </trkpt>
      <trkpt lat="48.46832" lon="2.55514">
        <ele>122.21</ele>
        <time>2014-02-02T09:57:16Z</time>
      </trkpt>
      <trkpt lat="48.4681" lon="2.55503">
        <ele>122.31</ele>
        <time>2014-02-02T09:57:36Z</time>
      </trkpt>
      <trkpt lat="48.46788" lon="2.55495">
        <ele>121.71</ele>
        <time>2014-02-02T09:57:54Z</time>
      </trkpt>
      <trkpt lat="48.46765" lon="2.55487">
        <ele>121.25</ele>
        <time>2014-02-02T09:58:12Z</time>
      </trkpt>
      <trkpt lat="48.46742" lon="2.55483">
        <ele>120.6</ele>
        <time>2014-02-02T09:58:31Z</time>
      </trkpt>
      <trkpt lat="48.46718" lon="2.5548">
        <ele>120.98</ele>
        <time>2014-02-02T09:58:49Z</time>
      </trkpt>
      <trkpt lat="48.46695" lon="2.55479">
        <ele>121.05</ele>
        <time>2014-02-02T09:59:08Z</time>
      </trkpt>
      <trkpt lat="48.46672" lon="2.55481">
        <ele>120.9</ele>
        <time>2014-02-02T09:59:26Z</time>
      </trkpt>
      <trkpt lat="48.4665" lon="2.55483">
        <ele>122.42</ele>
        <time>2014-02-02T09:59:44Z</time>
      </trkpt>
      <trkpt lat="48.46626" lon="2.55484">
        <ele>122.99</ele>
        <time>2014-02-02T10:00:04Z</time>
      </trkpt>
      <trkpt lat="48.46604" lon="2.55476">
        <ele>123</ele>
        <time>2014-02-02T10:00:28Z</time>
      </trkpt>
      <trkpt lat="48.46581" lon="2.55471">
        <ele>122.3</ele>
        <time>2014-02-02T10:00:52Z</time>
      </trkpt>
      <trkpt lat="48.46557" lon="2.55479">
        <ele>121.55</ele>
        <time>2014-02-02T10:01:09Z</time>
      </trkpt>
      <trkpt lat="48.46535" lon="2.55486">
        <ele>122.31</ele>
        <time>2014-02-02T10:01:23Z</time>
      </trkpt>
      <trkpt lat="48.46514" lon="2.55502">
        <ele>123.2</ele>
        <time>2014-02-02T10:01:37Z</time>
      </trkpt>
      <trkpt lat="48.46492" lon="2.55509">
        <ele>123.24</ele>
        <time>2014-02-02T10:01:55Z</time>
      </trkpt>
      <trkpt lat="48.46469" lon="2.55516">
        <ele>122.36</ele>
        <time>2014-02-02T10:02:14Z</time>
      </trkpt>
      <trkpt lat="48.46447" lon="2.55514">
        <ele>121.5</ele>
        <time>2014-02-02T10:02:34Z</time>
      </trkpt>
      <trkpt lat="48.46424" lon="2.55514">
        <ele>122.5</ele>
        <time>2014-02-02T10:02:53Z</time>
      </trkpt>
      <trkpt lat="48.46411" lon="2.55486">
        <ele>121.12</ele>
        <time>2014-02-02T10:03:14Z</time>
      </trkpt>
      <trkpt lat="48.46415" lon="2.55451">
        <ele>118.74</ele>
        <time>2014-02-02T10:03:41Z</time>
      </trkpt>
      <trkpt lat="48.46402" lon="2.55423">
        <ele>118.89</ele>
        <time>2014-02-02T10:04:31Z</time>
      </trkpt>
      <trkpt lat="48.46379" lon="2.55418">
        <ele>116.56</ele>
        <time>2014-02-02T10:05:41Z</time>
      </trkpt>
      <trkpt lat="48.46362" lon="2.55442">
        <ele>117.64</ele>
        <time>2014-02-02T10:07:09Z</time>
      </trkpt>
      <trkpt lat="48.46343" lon="2.55463">
        <ele>116.88</ele>
        <time>2014-02-02T10:07:37Z</time>
      </trkpt>
      <trkpt lat="48.46326" lon="2.55486">
        <ele>117.77</ele>
        <time>2014-02-02T10:07:58Z</time>
      </trkpt>
      <trkpt lat="48.46305" lon="2.55498">
        <ele>117.8</ele>
        <time>2014-02-02T10:08:20Z</time>
      </trkpt>
      <trkpt lat="48.46282" lon="2.55498">
        <ele>117.61</ele>
        <time>2014-02-02T10:08:43Z</time>
      </trkpt>
      <trkpt lat="48.46258" lon="2.55501">
        <ele>117.2</ele>
        <time>2014-02-02T10:09:04Z</time>
      </trkpt>
      <trkpt lat="48.46236" lon="2.55498">
        <ele>117.57</ele>
        <time>2014-02-02T10:09:24Z</time>
      </trkpt>
      <trkpt lat="48.46212" lon="2.55498">
        <ele>118.37</ele>
        <time>2014-02-02T10:09:44Z</time>
      </trkpt>
      <trkpt lat="48.46189" lon="2.55495">
        <ele>118.8</ele>
        <time>2014-02-02T10:10:04Z</time>
      </trkpt>
      <trkpt lat="48.46166" lon="2.55496">
        <ele>119.37</ele>
        <time>2014-02-02T10:10:24Z</time>
      </trkpt>
      <trkpt lat="48.46142" lon="2.55492">
        <ele>116.61</ele>
        <time>2014-02-02T10:11:02Z</time>
      </trkpt>
      <trkpt lat="48.46119" lon="2.55491">
        <ele>118.11</ele>
        <time>2014-02-02T10:11:18Z</time>
      </trkpt>
      <trkpt lat="48.46096" lon="2.55492">
        <ele>119.4</ele>
        <time>2014-02-02T10:11:36Z</time>
      </trkpt>
      <trkpt lat="48.46074" lon="2.55496">
        <ele>119.26</ele>
        <time>2014-02-02T10:11:56Z</time>
      </trkpt>
      <trkpt lat="48.46051" lon="2.55496">
        <ele>118.66</ele>
        <time>2014-02-02T10:12:14Z</time>
      </trkpt>
      <trkpt lat="48.46027" lon="2.55495">
        <ele>118.29</ele>
        <time>2014-02-02T10:12:34Z</time>
      </trkpt>
      <trkpt lat="48.46004" lon="2.55494">
        <ele>119.6</ele>
        <time>2014-02-02T10:12:53Z</time>
      </trkpt>
      <trkpt lat="48.45981" lon="2.5549">
        <ele>119.66</ele>
        <time>2014-02-02T10:13:13Z</time>
      </trkpt>
      <trkpt lat="48.45958" lon="2.55486">
        <ele>119.78</ele>
        <time>2014-02-02T10:13:35Z</time>
      </trkpt>
      <trkpt lat="48.45935" lon="2.55485">
        <ele>121.69</ele>
        <time>2014-02-02T10:13:55Z</time>
      </trkpt>
      <trkpt lat="48.45912" lon="2.55481">
        <ele>122.55</ele>
        <time>2014-02-02T10:14:14Z</time>
      </trkpt>
      <trkpt lat="48.45889" lon="2.55479">
        <ele>122.81</ele>
        <time>2014-02-02T10:14:32Z</time>
      </trkpt>
      <trkpt lat="48.45866" lon="2.55475">
        <ele>122.87</ele>
        <time>2014-02-02T10:14:50Z</time>
      </trkpt>
      <trkpt lat="48.45843" lon="2.5547">
        <ele>122.2</ele>
        <time>2014-02-02T10:15:09Z</time>
      </trkpt>
      <trkpt lat="48.45821" lon="2.55466">
        <ele>123.1</ele>
        <time>2014-02-02T10:15:28Z</time>
      </trkpt>
      <trkpt lat="48.45798" lon="2.55463">
        <ele>123.38</ele>
        <time>2014-02-02T10:15:46Z</time>
      </trkpt>
      <trkpt lat="48.45775" lon="2.5546">
        <ele>124.2</ele>
        <time>2014-02-02T10:16:05Z</time>
      </trkpt>
      <trkpt lat="48.45753" lon="2.55457">
        <ele>124.57</ele>
        <time>2014-02-02T10:16:24Z</time>
      </trkpt>
      <trkpt lat="48.4573" lon="2.55455">
        <ele>124.61</ele>
        <time>2014-02-02T10:16:41Z</time>
      </trkpt>
      <trkpt lat="48.45706" lon="2.55449">
        <ele>124.37</ele>
        <time>2014-02-02T10:17:00Z</time>
      </trkpt>
      <trkpt lat="48.45687" lon="2.55431">
        <ele>124.11</ele>
        <time>2014-02-02T10:17:20Z</time>
      </trkpt>
      <trkpt lat="48.45667" lon="2.55413">
        <ele>124.3</ele>
        <time>2014-02-02T10:17:38Z</time>
      </trkpt>
      <trkpt lat="48.45648" lon="2.55392">
        <ele>123.61</ele>
        <time>2014-02-02T10:17:56Z</time>
      </trkpt>
      <trkpt lat="48.45628" lon="2.55374">
        <ele>121.98</ele>
        <time>2014-02-02T10:18:14Z</time>
      </trkpt>
      <trkpt lat="48.45607" lon="2.55358">
        <ele>120.43</ele>
        <time>2014-02-02T10:18:32Z</time>
      </trkpt>
      <trkpt lat="48.45585" lon="2.55346">
        <ele>119.93</ele>
        <time>2014-02-02T10:18:51Z</time>
      </trkpt>
      <trkpt lat="48.45563" lon="2.55338">
        <ele>119.52</ele>
        <time>2014-02-02T10:19:10Z</time>
      </trkpt>
      <trkpt lat="48.4554" lon="2.55333">
        <ele>118.75</ele>
        <time>2014-02-02T10:19:28Z</time>
      </trkpt>
      <trkpt lat="48.45517" lon="2.55332">
        <ele>119.39</ele>
        <time>2014-02-02T10:19:47Z</time>
      </trkpt>
      <trkpt lat="48.45511" lon="2.55366">
        <ele>118.64</ele>
        <time>2014-02-02T10:21:36Z</time>
      </trkpt>
      <trkpt lat="48.45504" lon="2.55399">
        <ele>118</ele>
        <time>2014-02-02T10:21:58Z</time>
      </trkpt>
      <trkpt lat="48.45495" lon="2.55432">
        <ele>118.08</ele>
        <time>2014-02-02T10:22:18Z</time>
      </trkpt>
      <trkpt lat="48.45479" lon="2.55458">
        <ele>118.6</ele>
        <time>2014-02-02T10:22:57Z</time>
      </trkpt>
      <trkpt lat="48.45464" lon="2.55484">
        <ele>119.27</ele>
        <time>2014-02-02T10:23:16Z</time>
      </trkpt>
      <trkpt lat="48.45449" lon="2.55511">
        <ele>120.44</ele>
        <time>2014-02-02T10:23:34Z</time>
      </trkpt>
      <trkpt lat="48.45432" lon="2.55535">
        <ele>120.5</ele>
        <time>2014-02-02T10:23:52Z</time>
      </trkpt>
      <trkpt lat="48.45412" lon="2.55551">
        <ele>119.49</ele>
        <time>2014-02-02T10:24:10Z</time>
      </trkpt>
      <trkpt lat="48.45394" lon="2.55572">
        <ele>120.17</ele>
        <time>2014-02-02T10:24:26Z</time>
      </trkpt>
      <trkpt lat="48.45378" lon="2.55597">
        <ele>120.7</ele>
        <time>2014-02-02T10:24:44Z</time>
      </trkpt>
      <trkpt lat="48.45362" lon="2.55623">
        <ele>120.99</ele>
        <time>2014-02-02T10:25:03Z</time>
      </trkpt>
      <trkpt lat="48.4535" lon="2.55652">
        <ele>120.86</ele>
        <time>2014-02-02T10:25:21Z</time>
      </trkpt>
      <trkpt lat="48.4534" lon="2.55682">
        <ele>121.37</ele>
        <time>2014-02-02T10:25:39Z</time>
      </trkpt>
      <trkpt lat="48.45329" lon="2.55712">
        <ele>122.17</ele>
        <time>2014-02-02T10:25:57Z</time>
      </trkpt>
      <trkpt lat="48.4532" lon="2.55743">
        <ele>122.73</ele>
        <time>2014-02-02T10:26:15Z</time>
      </trkpt>
      <trkpt lat="48.45308" lon="2.55773">
        <ele>123.47</ele>
        <time>2014-02-02T10:26:35Z</time>
      </trkpt>
      <trkpt lat="48.45299" lon="2.55805">
        <ele>124.39</ele>
        <time>2014-02-02T10:26:53Z</time>
      </trkpt>
      <trkpt lat="48.4529" lon="2.55836">
        <ele>124.73</ele>
        <time>2014-02-02T10:27:12Z</time>
      </trkpt>
      <trkpt lat="48.45284" lon="2.55868">
        <ele>124.5</ele>
        <time>2014-02-02T10:27:34Z</time>
      </trkpt>
      <trkpt lat="48.45274" lon="2.55899">
        <ele>123.72</ele>
        <time>2014-02-02T10:29:23Z</time>
      </trkpt>
      <trkpt lat="48.45256" lon="2.55921">
        <ele>123.7</ele>
        <time>2014-02-02T10:29:46Z</time>
      </trkpt>
      <trkpt lat="48.45238" lon="2.55943">
        <ele>124.61</ele>
        <time>2014-02-02T10:30:09Z</time>
      </trkpt>
      <trkpt lat="48.45219" lon="2.55963">
        <ele>125.07</ele>
        <time>2014-02-02T10:30:29Z</time>
      </trkpt>
      <trkpt lat="48.45203" lon="2.55987">
        <ele>125.98</ele>
        <time>2014-02-02T10:30:48Z</time>
      </trkpt>
      <trkpt lat="48.45183" lon="2.56005">
        <ele>127.47</ele>
        <time>2014-02-02T10:31:07Z</time>
      </trkpt>
      <trkpt lat="48.45169" lon="2.56032">
        <ele>128.49</ele>
        <time>2014-02-02T10:31:20Z</time>
      </trkpt>
      <trkpt lat="48.45156" lon="2.56059">
        <ele>130.39</ele>
        <time>2014-02-02T10:31:42Z</time>
      </trkpt>
      <trkpt lat="48.45144" lon="2.56089">
        <ele>130.61</ele>
        <time>2014-02-02T10:32:07Z</time>
      </trkpt>
      <trkpt lat="48.45134" lon="2.56121">
        <ele>129.46</ele>
        <time>2014-02-02T10:32:24Z</time>
      </trkpt>
      <trkpt lat="48.45127" lon="2.56153">
        <ele>128.53</ele>
        <time>2014-02-02T10:32:39Z</time>
      </trkpt>
      <trkpt lat="48.45121" lon="2.56186">
        <ele>127.02</ele>
        <time>2014-02-02T10:32:57Z</time>
      </trkpt>
      <trkpt lat="48.45115" lon="2.56218">
        <ele>125.3</ele>
        <time>2014-02-02T10:33:16Z</time>
      </trkpt>
      <trkpt lat="48.45106" lon="2.56251">
        <ele>124.19</ele>
        <time>2014-02-02T10:33:34Z</time>
      </trkpt>
      <trkpt lat="48.451" lon="2.56285">
        <ele>125.79</ele>
        <time>2014-02-02T10:33:54Z</time>
      </trkpt>
      <trkpt lat="48.45091" lon="2.56317">
        <ele>125.72</ele>
        <time>2014-02-02T10:34:12Z</time>
      </trkpt>
      <trkpt lat="48.45087" lon="2.56351">
        <ele>126.27</ele>
        <time>2014-02-02T10:34:31Z</time>
      </trkpt>
      <trkpt lat="48.45082" lon="2.56386">
        <ele>126.6</ele>
        <time>2014-02-02T10:34:49Z</time>
      </trkpt>
      <trkpt lat="48.45078" lon="2.56421">
        <ele>126.45</ele>
        <time>2014-02-02T10:35:10Z</time>
      </trkpt>
      <trkpt lat="48.45071" lon="2.56454">
        <ele>126.51</ele>
        <time>2014-02-02T10:35:29Z</time>
      </trkpt>
      <trkpt lat="48.45063" lon="2.56486">
        <ele>126.96</ele>
        <time>2014-02-02T10:35:47Z</time>
      </trkpt>
      <trkpt lat="48.45054" lon="2.56518">
        <ele>126.93</ele>
        <time>2014-02-02T10:36:09Z</time>
      </trkpt>
      <trkpt lat="48.45044" lon="2.56549">
        <ele>123.58</ele>
        <time>2014-02-02T10:36:41Z</time>
      </trkpt>
      <trkpt lat="48.45036" lon="2.56583">
        <ele>123.44</ele>
        <time>2014-02-02T10:37:03Z</time>
      </trkpt>
      <trkpt lat="48.45034" lon="2.56616">
        <ele>123.73</ele>
        <time>2014-02-02T10:37:22Z</time>
      </trkpt>
      <trkpt lat="48.45028" lon="2.5665">
        <ele>123.5</ele>
        <time>2014-02-02T10:37:44Z</time>
      </trkpt>
      <trkpt lat="48.45024" lon="2.56684">
        <ele>124.9</ele>
        <time>2014-02-02T10:38:02Z</time>
      </trkpt>
      <trkpt lat="48.45018" lon="2.56717">
        <ele>125.91</ele>
        <time>2014-02-02T10:38:22Z</time>
      </trkpt>
      <trkpt lat="48.45014" lon="2.56752">
        <ele>125.53</ele>
        <time>2014-02-02T10:38:41Z</time>
      </trkpt>
      <trkpt lat="48.45007" lon="2.56786">
        <ele>126.08</ele>
        <time>2014-02-02T10:39:00Z</time>
      </trkpt>
      <trkpt lat="48.44998" lon="2.56817">
        <ele>126.1</ele>
        <time>2014-02-02T10:39:22Z</time>
      </trkpt>
      <trkpt lat="48.44984" lon="2.56844">
        <ele>125.22</ele>
        <time>2014-02-02T10:39:52Z</time>
      </trkpt>
      <trkpt lat="48.44971" lon="2.56872">
        <ele>123.81</ele>
        <time>2014-02-02T10:41:33Z</time>
      </trkpt>
      <trkpt lat="48.44965" lon="2.56905">
        <ele>124.3</ele>
        <time>2014-02-02T10:41:59Z</time>
      </trkpt>
      <trkpt lat="48.44959" lon="2.56939">
        <ele>125.3</ele>
        <time>2014-02-02T10:42:20Z</time>
      </trkpt>
      <trkpt lat="48.44953" lon="2.56973">
        <ele>125.79</ele>
        <time>2014-02-02T10:42:40Z</time>
      </trkpt>
      <trkpt lat="48.44948" lon="2.57007">
        <ele>124.79</ele>
        <time>2014-02-02T10:42:59Z</time>
      </trkpt>
      <trkpt lat="48.44943" lon="2.57041">
        <ele>123.11</ele>
        <time>2014-02-02T10:43:18Z</time>
      </trkpt>
      <trkpt lat="48.44935" lon="2.57073">
        <ele>122.63</ele>
        <time>2014-02-02T10:43:38Z</time>
      </trkpt>
      <trkpt lat="48.44929" lon="2.57107">
        <ele>122.2</ele>
        <time>2014-02-02T10:43:57Z</time>
      </trkpt>
      <trkpt lat="48.44924" lon="2.57139">
        <ele>121.9</ele>
        <time>2014-02-02T10:44:17Z</time>
      </trkpt>
      <trkpt lat="48.44918" lon="2.57174">
        <ele>121.68</ele>
        <time>2014-02-02T10:44:36Z</time>
      </trkpt>
      <trkpt lat="48.44911" lon="2.57207">
        <ele>122.46</ele>
        <time>2014-02-02T10:44:54Z</time>
      </trkpt>
      <trkpt lat="48.44903" lon="2.57239">
        <ele>121.7</ele>
        <time>2014-02-02T10:45:13Z</time>
      </trkpt>
      <trkpt lat="48.44881" lon="2.5723">
        <ele>118.56</ele>
        <time>2014-02-02T10:46:15Z</time>
      </trkpt>
      <trkpt lat="48.44874" lon="2.57263">
        <ele>118</ele>
        <time>2014-02-02T10:47:09Z</time>
      </trkpt>
      <trkpt lat="48.44886" lon="2.57294">
        <ele>118.4</ele>
        <time>2014-02-02T10:47:27Z</time>
      </trkpt>
      <trkpt lat="48.44893" lon="2.57327">
        <ele>117.83</ele>
        <time>2014-02-02T10:47:45Z</time>
      </trkpt>
      <trkpt lat="48.449" lon="2.5736">
        <ele>118.59</ele>
        <time>2014-02-02T10:48:04Z</time>
      </trkpt>
      <trkpt lat="48.44904" lon="2.57393">
        <ele>119.39</ele>
        <time>2014-02-02T10:48:23Z</time>
      </trkpt>
      <trkpt lat="48.44909" lon="2.57428">
        <ele>120</ele>
        <time>2014-02-02T10:48:41Z</time>
      </trkpt>
      <trkpt lat="48.44913" lon="2.57462">
        <ele>121.07</ele>
        <time>2014-02-02T10:49:01Z</time>
      </trkpt>
      <trkpt lat="48.44916" lon="2.57497">
        <ele>120.37</ele>
        <time>2014-02-02T10:49:21Z</time>
      </trkpt>
      <trkpt lat="48.44921" lon="2.57531">
        <ele>120.93</ele>
        <time>2014-02-02T10:49:40Z</time>
      </trkpt>
      <trkpt lat="48.44928" lon="2.57565">
        <ele>121.02</ele>
        <time>2014-02-02T10:49:59Z</time>
      </trkpt>
      <trkpt lat="48.44934" lon="2.57599">
        <ele>120.9</ele>
        <time>2014-02-02T10:50:20Z</time>
      </trkpt>
      <trkpt lat="48.44943" lon="2.5763">
        <ele>120.9</ele>
        <time>2014-02-02T10:50:39Z</time>
      </trkpt>
      <trkpt lat="48.44951" lon="2.57663">
        <ele>121.68</ele>
        <time>2014-02-02T10:50:58Z</time>
      </trkpt>
      <trkpt lat="48.44959" lon="2.57696">
        <ele>121.84</ele>
        <time>2014-02-02T10:51:18Z</time>
      </trkpt>
      <trkpt lat="48.44966" lon="2.5773">
        <ele>121.03</ele>
        <time>2014-02-02T10:51:39Z</time>
      </trkpt>
      <trkpt lat="48.44969" lon="2.57765">
        <ele>121.61</ele>
        <time>2014-02-02T10:51:59Z</time>
      </trkpt>
      <trkpt lat="48.44971" lon="2.57799">
        <ele>120.87</ele>
        <time>2014-02-02T10:52:18Z</time>
      </trkpt>
      <trkpt lat="48.44971" lon="2.57834">
        <ele>121.97</ele>
        <time>2014-02-02T10:52:38Z</time>
      </trkpt>
      <trkpt lat="48.44971" lon="2.57869">
        <ele>122.17</ele>
        <time>2014-02-02T10:52:57Z</time>
      </trkpt>
      <trkpt lat="48.44972" lon="2.57902">
        <ele>122.52</ele>
        <time>2014-02-02T10:53:16Z</time>
      </trkpt>
      <trkpt lat="48.44972" lon="2.57937">
        <ele>122.5</ele>
        <time>2014-02-02T10:53:36Z</time>
      </trkpt>
      <trkpt lat="48.44974" lon="2.57972">
        <ele>123.66</ele>
        <time>2014-02-02T10:53:56Z</time>
      </trkpt>
      <trkpt lat="48.44972" lon="2.58006">
        <ele>123.82</ele>
        <time>2014-02-02T10:54:14Z</time>
      </trkpt>
      <trkpt lat="48.44969" lon="2.5804">
        <ele>123.67</ele>
        <time>2014-02-02T10:54:33Z</time>
      </trkpt>
      <trkpt lat="48.44968" lon="2.58075">
        <ele>124.57</ele>
        <time>2014-02-02T10:54:52Z</time>
      </trkpt>
      <trkpt lat="48.44967" lon="2.58109">
        <ele>123.35</ele>
        <time>2014-02-02T10:55:11Z</time>
      </trkpt>
      <trkpt lat="48.44969" lon="2.58144">
        <ele>123.46</ele>
        <time>2014-02-02T10:55:30Z</time>
      </trkpt>
      <trkpt lat="48.4497" lon="2.58179">
        <ele>122.5</ele>
        <time>2014-02-02T10:55:50Z</time>
      </trkpt>
      <trkpt lat="48.44972" lon="2.58213">
        <ele>121.99</ele>
        <time>2014-02-02T10:56:09Z</time>
      </trkpt>
      <trkpt lat="48.44975" lon="2.58247">
        <ele>122.62</ele>
        <time>2014-02-02T10:56:29Z</time>
      </trkpt>
      <trkpt lat="48.44976" lon="2.58282">
        <ele>122.33</ele>
        <time>2014-02-02T10:56:49Z</time>
      </trkpt>
      <trkpt lat="48.44978" lon="2.58317">
        <ele>122.92</ele>
        <time>2014-02-02T10:57:09Z</time>
      </trkpt>
      <trkpt lat="48.44979" lon="2.58352">
        <ele>123.21</ele>
        <time>2014-02-02T10:57:29Z</time>
      </trkpt>
      <trkpt lat="48.44978" lon="2.58386">
        <ele>124.03</ele>
        <time>2014-02-02T10:57:48Z</time>
      </trkpt>
      <trkpt lat="48.44975" lon="2.58421">
        <ele>124.13</ele>
        <time>2014-02-02T10:58:08Z</time>
      </trkpt>
      <trkpt lat="48.44972" lon="2.58455">
        <ele>123.93</ele>
        <time>2014-02-02T10:58:27Z</time>
      </trkpt>
      <trkpt lat="48.4497" lon="2.58489">
        <ele>124.03</ele>
        <time>2014-02-02T10:58:46Z</time>
      </trkpt>
      <trkpt lat="48.44968" lon="2.58523">
        <ele>122.43</ele>
        <time>2014-02-02T10:59:08Z</time>
      </trkpt>
      <trkpt lat="48.44965" lon="2.58557">
        <ele>120.73</ele>
        <time>2014-02-02T10:59:28Z</time>
      </trkpt>
      <trkpt lat="48.44963" lon="2.58592">
        <ele>120.91</ele>
        <time>2014-02-02T10:59:46Z</time>
      </trkpt>
      <trkpt lat="48.44958" lon="2.58626">
        <ele>121.43</ele>
        <time>2014-02-02T11:00:05Z</time>
      </trkpt>
      <trkpt lat="48.44955" lon="2.5866">
        <ele>121.67</ele>
        <time>2014-02-02T11:00:23Z</time>
      </trkpt>
      <trkpt lat="48.44947" lon="2.58693">
        <ele>122.52</ele>
        <time>2014-02-02T11:00:41Z</time>
      </trkpt>
      <trkpt lat="48.44939" lon="2.58726">
        <ele>121.84</ele>
        <time>2014-02-02T11:01:03Z</time>
      </trkpt>
      <trkpt lat="48.44932" lon="2.58758">
        <ele>121.81</ele>
        <time>2014-02-02T11:01:23Z</time>
      </trkpt>
      <trkpt lat="48.44927" lon="2.58792">
        <ele>122.04</ele>
        <time>2014-02-02T11:01:43Z</time>
      </trkpt>
      <trkpt lat="48.44919" lon="2.58823">
        <ele>121.82</ele>
        <time>2014-02-02T11:02:01Z</time>
      </trkpt>
      <trkpt lat="48.44912" lon="2.58857">
        <ele>121.59</ele>
        <time>2014-02-02T11:02:19Z</time>
      </trkpt>
      <trkpt lat="48.44903" lon="2.58887">
        <ele>121.41</ele>
        <time>2014-02-02T11:02:39Z</time>
      </trkpt>
      <trkpt lat="48.44891" lon="2.58917">
        <ele>123.17</ele>
        <time>2014-02-02T11:02:59Z</time>
      </trkpt>
      <trkpt lat="48.44881" lon="2.58948">
        <ele>123.76</ele>
        <time>2014-02-02T11:03:20Z</time>
      </trkpt>
      <trkpt lat="48.44866" lon="2.58976">
        <ele>124.11</ele>
        <time>2014-02-02T11:03:38Z</time>
      </trkpt>
      <trkpt lat="48.44852" lon="2.59004">
        <ele>125.11</ele>
        <time>2014-02-02T11:03:57Z</time>
      </trkpt>
      <trkpt lat="48.44838" lon="2.5903">
        <ele>125.41</ele>
        <time>2014-02-02T11:04:17Z</time>
      </trkpt>
      <trkpt lat="48.44822" lon="2.59055">
        <ele>124.7</ele>
        <time>2014-02-02T11:04:36Z</time>
      </trkpt>
      <trkpt lat="48.44808" lon="2.59082">
        <ele>125.17</ele>
        <time>2014-02-02T11:04:56Z</time>
      </trkpt>
      <trkpt lat="48.44794" lon="2.59111">
        <ele>125.11</ele>
        <time>2014-02-02T11:05:16Z</time>
      </trkpt>
      <trkpt lat="48.4478" lon="2.59137">
        <ele>125.52</ele>
        <time>2014-02-02T11:05:34Z</time>
      </trkpt>
      <trkpt lat="48.44764" lon="2.59162">
        <ele>125.08</ele>
        <time>2014-02-02T11:05:52Z</time>
      </trkpt>
      <trkpt lat="48.4475" lon="2.5919">
        <ele>124.79</ele>
        <time>2014-02-02T11:06:13Z</time>
      </trkpt>
      <trkpt lat="48.44742" lon="2.59224">
        <ele>124.46</ele>
        <time>2014-02-02T11:06:32Z</time>
      </trkpt>
      <trkpt lat="48.44737" lon="2.59258">
        <ele>124.1</ele>
        <time>2014-02-02T11:06:52Z</time>
      </trkpt>
      <trkpt lat="48.44734" lon="2.59292">
        <ele>124.42</ele>
        <time>2014-02-02T11:07:12Z</time>
      </trkpt>
      <trkpt lat="48.44729" lon="2.59326">
        <ele>124.27</ele>
        <time>2014-02-02T11:07:32Z</time>
      </trkpt>
      <trkpt lat="48.44724" lon="2.5936">
        <ele>124.7</ele>
        <time>2014-02-02T11:07:51Z</time>
      </trkpt>
      <trkpt lat="48.4472" lon="2.59393">
        <ele>123.8</ele>
        <time>2014-02-02T11:08:11Z</time>
      </trkpt>
      <trkpt lat="48.44715" lon="2.59427">
        <ele>124.78</ele>
        <time>2014-02-02T11:08:30Z</time>
      </trkpt>
      <trkpt lat="48.44711" lon="2.59461">
        <ele>124.11</ele>
        <time>2014-02-02T11:08:50Z</time>
      </trkpt>
      <trkpt lat="48.44708" lon="2.59495">
        <ele>125.02</ele>
        <time>2014-02-02T11:09:09Z</time>
      </trkpt>
      <trkpt lat="48.44705" lon="2.59529">
        <ele>125.6</ele>
        <time>2014-02-02T11:09:30Z</time>
      </trkpt>
      <trkpt lat="48.44702" lon="2.59564">
        <ele>124.6</ele>
        <time>2014-02-02T11:09:51Z</time>
      </trkpt>
      <trkpt lat="48.44698" lon="2.59598">
        <ele>124.31</ele>
        <time>2014-02-02T11:10:09Z</time>
      </trkpt>
      <trkpt lat="48.44696" lon="2.59632">
        <ele>123.65</ele>
        <time>2014-02-02T11:10:29Z</time>
      </trkpt>
      <trkpt lat="48.44696" lon="2.59667">
        <ele>123.97</ele>
        <time>2014-02-02T11:10:48Z</time>
      </trkpt>
      <trkpt lat="48.44697" lon="2.59702">
        <ele>124.3</ele>
        <time>2014-02-02T11:11:08Z</time>
      </trkpt>
      <trkpt lat="48.44691" lon="2.59736">
        <ele>124.74</ele>
        <time>2014-02-02T11:11:28Z</time>
      </trkpt>
      <trkpt lat="48.44695" lon="2.5977">
        <ele>125.94</ele>
        <time>2014-02-02T11:11:47Z</time>
      </trkpt>
      <trkpt lat="48.44695" lon="2.59805">
        <ele>127.67</ele>
        <time>2014-02-02T11:12:06Z</time>
      </trkpt>
      <trkpt lat="48.44693" lon="2.59839">
        <ele>128</ele>
        <time>2014-02-02T11:12:27Z</time>
      </trkpt>
      <trkpt lat="48.4468" lon="2.59867">
        <ele>128.41</ele>
        <time>2014-02-02T11:13:03Z</time>
      </trkpt>
      <trkpt lat="48.44673" lon="2.59835">
        <ele>126.59</ele>
        <time>2014-02-02T11:14:12Z</time>
      </trkpt>
      <trkpt lat="48.4465" lon="2.59837">
        <ele>124.8</ele>
        <time>2014-02-02T11:15:13Z</time>
      </trkpt>
      <trkpt lat="48.44675" lon="2.59824">
        <ele>123.18</ele>
        <time>2014-02-02T11:18:25Z</time>
      </trkpt>
      <trkpt lat="48.44652" lon="2.59832">
        <ele>122.85</ele>
        <time>2014-02-02T11:19:17Z</time>
      </trkpt>
      <trkpt lat="48.44652" lon="2.59798">
        <ele>120.6</ele>
        <time>2014-02-02T11:25:42Z</time>
      </trkpt>
      <trkpt lat="48.44647" lon="2.59831">
        <ele>121.91</ele>
        <time>2014-02-02T11:27:52Z</time>
      </trkpt>
      <trkpt lat="48.44626" lon="2.59845">
        <ele>122.28</ele>
        <time>2014-02-02T11:28:48Z</time>
      </trkpt>
      <trkpt lat="48.44653" lon="2.5983">
        <ele>120.42</ele>
        <time>2014-02-02T11:29:43Z</time>
      </trkpt>
      <trkpt lat="48.44631" lon="2.59827">
        <ele>126.51</ele>
        <time>2014-02-02T11:52:09Z</time>
      </trkpt>
      <trkpt lat="48.44654" lon="2.59827">
        <ele>126.71</ele>
        <time>2014-02-02T11:53:08Z</time>
      </trkpt>
      <trkpt lat="48.44679" lon="2.59828">
        <ele>126.7</ele>
        <time>2014-02-02T11:53:27Z</time>
      </trkpt>
      <trkpt lat="48.44657" lon="2.59834">
        <ele>122.9</ele>
        <time>2014-02-02T11:54:34Z</time>
      </trkpt>
      <trkpt lat="48.44633" lon="2.59838">
        <ele>125.2</ele>
        <time>2014-02-02T12:00:01Z</time>
      </trkpt>
      <trkpt lat="48.44657" lon="2.59829">
        <ele>124.7</ele>
        <time>2014-02-02T12:03:04Z</time>
      </trkpt>
      <trkpt lat="48.44634" lon="2.59827">
        <ele>124.3</ele>
        <time>2014-02-02T12:03:42Z</time>
      </trkpt>
      <trkpt lat="48.44656" lon="2.59822">
        <ele>124.54</ele>
        <time>2014-02-02T12:06:15Z</time>
      </trkpt>
      <trkpt lat="48.44634" lon="2.59828">
        <ele>125.4</ele>
        <time>2014-02-02T12:07:43Z</time>
      </trkpt>
      <trkpt lat="48.44641" lon="2.59796">
        <ele>124.89</ele>
        <time>2014-02-02T12:08:49Z</time>
      </trkpt>
      <trkpt lat="48.44622" lon="2.59816">
        <ele>126.43</ele>
        <time>2014-02-02T12:10:36Z</time>
      </trkpt>
      <trkpt lat="48.44643" lon="2.59834">
        <ele>127.87</ele>
        <time>2014-02-02T12:11:36Z</time>
      </trkpt>
      <trkpt lat="48.44664" lon="2.59844">
        <ele>123.44</ele>
        <time>2014-02-02T12:14:27Z</time>
      </trkpt>
      <trkpt lat="48.44668" lon="2.59878">
        <ele>122.72</ele>
        <time>2014-02-02T12:15:55Z</time>
      </trkpt>
      <trkpt lat="48.44664" lon="2.59912">
        <ele>122.37</ele>
        <time>2014-02-02T12:16:51Z</time>
      </trkpt>
      <trkpt lat="48.44662" lon="2.59947">
        <ele>122.6</ele>
        <time>2014-02-02T12:17:15Z</time>
      </trkpt>
      <trkpt lat="48.44658" lon="2.5998">
        <ele>122.89</ele>
        <time>2014-02-02T12:17:36Z</time>
      </trkpt>
      <trkpt lat="48.44658" lon="2.60014">
        <ele>122.53</ele>
        <time>2014-02-02T12:17:57Z</time>
      </trkpt>
      <trkpt lat="48.44654" lon="2.60048">
        <ele>123.7</ele>
        <time>2014-02-02T12:18:15Z</time>
      </trkpt>
      <trkpt lat="48.44652" lon="2.60084">
        <ele>123.39</ele>
        <time>2014-02-02T12:18:35Z</time>
      </trkpt>
      <trkpt lat="48.44648" lon="2.60118">
        <ele>123.72</ele>
        <time>2014-02-02T12:18:54Z</time>
      </trkpt>
      <trkpt lat="48.44643" lon="2.60152">
        <ele>124.39</ele>
        <time>2014-02-02T12:19:13Z</time>
      </trkpt>
      <trkpt lat="48.4463" lon="2.60181">
        <ele>123.59</ele>
        <time>2014-02-02T12:20:06Z</time>
      </trkpt>
      <trkpt lat="48.4462" lon="2.60211">
        <ele>123.38</ele>
        <time>2014-02-02T12:20:31Z</time>
      </trkpt>
      <trkpt lat="48.4461" lon="2.60242">
        <ele>123.5</ele>
        <time>2014-02-02T12:20:52Z</time>
      </trkpt>
      <trkpt lat="48.44601" lon="2.60274">
        <ele>124.22</ele>
        <time>2014-02-02T12:21:13Z</time>
      </trkpt>
      <trkpt lat="48.44588" lon="2.60304">
        <ele>123.74</ele>
        <time>2014-02-02T12:21:34Z</time>
      </trkpt>
      <trkpt lat="48.4458" lon="2.60337">
        <ele>123.76</ele>
        <time>2014-02-02T12:21:54Z</time>
      </trkpt>
      <trkpt lat="48.44575" lon="2.60371">
        <ele>123.31</ele>
        <time>2014-02-02T12:22:16Z</time>
      </trkpt>
      <trkpt lat="48.44568" lon="2.60403">
        <ele>122.8</ele>
        <time>2014-02-02T12:22:40Z</time>
      </trkpt>
      <trkpt lat="48.44562" lon="2.60436">
        <ele>122.2</ele>
        <time>2014-02-02T12:23:06Z</time>
      </trkpt>
      <trkpt lat="48.44559" lon="2.6047">
        <ele>121.7</ele>
        <time>2014-02-02T12:23:32Z</time>
      </trkpt>
      <trkpt lat="48.44549" lon="2.60502">
        <ele>121.48</ele>
        <time>2014-02-02T12:23:52Z</time>
      </trkpt>
      <trkpt lat="48.44547" lon="2.60536">
        <ele>122.08</ele>
        <time>2014-02-02T12:24:19Z</time>
      </trkpt>
      <trkpt lat="48.44539" lon="2.60569">
        <ele>122.62</ele>
        <time>2014-02-02T12:24:39Z</time>
      </trkpt>
      <trkpt lat="48.44531" lon="2.60601">
        <ele>122.31</ele>
        <time>2014-02-02T12:24:59Z</time>
      </trkpt>
      <trkpt lat="48.44518" lon="2.60631">
        <ele>121.83</ele>
        <time>2014-02-02T12:25:19Z</time>
      </trkpt>
      <trkpt lat="48.44503" lon="2.60659">
        <ele>122.94</ele>
        <time>2014-02-02T12:25:39Z</time>
      </trkpt>
      <trkpt lat="48.44491" lon="2.60689">
        <ele>124.57</ele>
        <time>2014-02-02T12:26:01Z</time>
      </trkpt>
      <trkpt lat="48.44479" lon="2.60718">
        <ele>125.2</ele>
        <time>2014-02-02T12:26:23Z</time>
      </trkpt>
      <trkpt lat="48.44465" lon="2.60745">
        <ele>125.4</ele>
        <time>2014-02-02T12:26:45Z</time>
      </trkpt>
      <trkpt lat="48.4445" lon="2.60772">
        <ele>126.35</ele>
        <time>2014-02-02T12:27:06Z</time>
      </trkpt>
      <trkpt lat="48.44438" lon="2.60801">
        <ele>127.17</ele>
        <time>2014-02-02T12:27:25Z</time>
      </trkpt>
      <trkpt lat="48.44426" lon="2.6083">
        <ele>126.58</ele>
        <time>2014-02-02T12:27:45Z</time>
      </trkpt>
      <trkpt lat="48.44415" lon="2.60861">
        <ele>126.73</ele>
        <time>2014-02-02T12:28:05Z</time>
      </trkpt>
      <trkpt lat="48.44404" lon="2.60891">
        <ele>127.74</ele>
        <time>2014-02-02T12:28:26Z</time>
      </trkpt>
      <trkpt lat="48.4439" lon="2.6092">
        <ele>126.54</ele>
        <time>2014-02-02T12:28:49Z</time>
      </trkpt>
      <trkpt lat="48.44381" lon="2.60953">
        <ele>125.14</ele>
        <time>2014-02-02T12:29:07Z</time>
      </trkpt>
      <trkpt lat="48.4437" lon="2.60983">
        <ele>125.11</ele>
        <time>2014-02-02T12:29:26Z</time>
      </trkpt>
      <trkpt lat="48.44359" lon="2.61013">
        <ele>126.7</ele>
        <time>2014-02-02T12:29:45Z</time>
      </trkpt>
      <trkpt lat="48.44345" lon="2.61041">
        <ele>127.7</ele>
        <time>2014-02-02T12:30:05Z</time>
      </trkpt>
      <trkpt lat="48.44332" lon="2.6107">
        <ele>127.31</ele>
        <time>2014-02-02T12:30:26Z</time>
      </trkpt>
      <trkpt lat="48.44322" lon="2.61101">
        <ele>127.42</ele>
        <time>2014-02-02T12:30:45Z</time>
      </trkpt>
      <trkpt lat="48.4431" lon="2.61131">
        <ele>127.51</ele>
        <time>2014-02-02T12:31:04Z</time>
      </trkpt>
      <trkpt lat="48.44301" lon="2.61162">
        <ele>127.7</ele>
        <time>2014-02-02T12:31:23Z</time>
      </trkpt>
      <trkpt lat="48.44295" lon="2.61195">
        <ele>126.7</ele>
        <time>2014-02-02T12:31:43Z</time>
      </trkpt>
      <trkpt lat="48.4428" lon="2.61222">
        <ele>126.27</ele>
        <time>2014-02-02T12:32:39Z</time>
      </trkpt>
      <trkpt lat="48.44272" lon="2.61255">
        <ele>123.65</ele>
        <time>2014-02-02T12:33:03Z</time>
      </trkpt>
      <trkpt lat="48.44269" lon="2.61289">
        <ele>124.73</ele>
        <time>2014-02-02T12:33:26Z</time>
      </trkpt>
      <trkpt lat="48.44266" lon="2.61325">
        <ele>124.28</ele>
        <time>2014-02-02T12:33:45Z</time>
      </trkpt>
      <trkpt lat="48.44257" lon="2.61357">
        <ele>126.99</ele>
        <time>2014-02-02T12:34:07Z</time>
      </trkpt>
      <trkpt lat="48.44248" lon="2.61389">
        <ele>129.15</ele>
        <time>2014-02-02T12:34:28Z</time>
      </trkpt>
      <trkpt lat="48.44246" lon="2.61422">
        <ele>132.81</ele>
        <time>2014-02-02T12:34:48Z</time>
      </trkpt>
      <trkpt lat="48.44241" lon="2.61457">
        <ele>133.06</ele>
        <time>2014-02-02T12:35:12Z</time>
      </trkpt>
      <trkpt lat="48.44237" lon="2.6149">
        <ele>132.57</ele>
        <time>2014-02-02T12:35:33Z</time>
      </trkpt>
      <trkpt lat="48.44232" lon="2.61524">
        <ele>133.15</ele>
        <time>2014-02-02T12:35:51Z</time>
      </trkpt>
      <trkpt lat="48.44226" lon="2.61558">
        <ele>134.4</ele>
        <time>2014-02-02T12:36:10Z</time>
      </trkpt>
      <trkpt lat="48.44222" lon="2.61591">
        <ele>133.23</ele>
        <time>2014-02-02T12:36:34Z</time>
      </trkpt>
      <trkpt lat="48.44215" lon="2.61624">
        <ele>132.38</ele>
        <time>2014-02-02T12:36:55Z</time>
      </trkpt>
      <trkpt lat="48.44209" lon="2.61657">
        <ele>131.69</ele>
        <time>2014-02-02T12:37:11Z</time>
      </trkpt>
      <trkpt lat="48.44202" lon="2.61689">
        <ele>132.26</ele>
        <time>2014-02-02T12:37:30Z</time>
      </trkpt>
      <trkpt lat="48.44197" lon="2.61722">
        <ele>131.98</ele>
        <time>2014-02-02T12:37:49Z</time>
      </trkpt>
      <trkpt lat="48.44193" lon="2.61756">
        <ele>131.8</ele>
        <time>2014-02-02T12:38:09Z</time>
      </trkpt>
      <trkpt lat="48.44187" lon="2.61789">
        <ele>133.01</ele>
        <time>2014-02-02T12:38:28Z</time>
      </trkpt>
      <trkpt lat="48.44181" lon="2.61822">
        <ele>134.62</ele>
        <time>2014-02-02T12:38:48Z</time>
      </trkpt>
      <trkpt lat="48.44178" lon="2.61857">
        <ele>134.59</ele>
        <time>2014-02-02T12:39:08Z</time>
      </trkpt>
      <trkpt lat="48.44173" lon="2.61891">
        <ele>135.16</ele>
        <time>2014-02-02T12:39:28Z</time>
      </trkpt>
      <trkpt lat="48.44166" lon="2.61924">
        <ele>134.99</ele>
        <time>2014-02-02T12:39:48Z</time>
      </trkpt>
      <trkpt lat="48.44164" lon="2.61959">
        <ele>135.88</ele>
        <time>2014-02-02T12:40:10Z</time>
      </trkpt>
      <trkpt lat="48.44159" lon="2.61993">
        <ele>136.82</ele>
        <time>2014-02-02T12:40:31Z</time>
      </trkpt>
      <trkpt lat="48.44155" lon="2.62028">
        <ele>135.88</ele>
        <time>2014-02-02T12:40:50Z</time>
      </trkpt>
      <trkpt lat="48.4415" lon="2.62061">
        <ele>135.7</ele>
        <time>2014-02-02T12:41:11Z</time>
      </trkpt>
      <trkpt lat="48.44142" lon="2.62093">
        <ele>135.14</ele>
        <time>2014-02-02T12:43:15Z</time>
      </trkpt>
      <trkpt lat="48.44138" lon="2.62127">
        <ele>135.2</ele>
        <time>2014-02-02T12:43:41Z</time>
      </trkpt>
      <trkpt lat="48.44133" lon="2.62161">
        <ele>137.96</ele>
        <time>2014-02-02T12:44:09Z</time>
      </trkpt>
      <trkpt lat="48.44129" lon="2.62196">
        <ele>137.48</ele>
        <time>2014-02-02T12:44:30Z</time>
      </trkpt>
      <trkpt lat="48.44123" lon="2.62229">
        <ele>139.31</ele>
        <time>2014-02-02T12:44:49Z</time>
      </trkpt>
      <trkpt lat="48.44117" lon="2.62264">
        <ele>138.22</ele>
        <time>2014-02-02T12:45:12Z</time>
      </trkpt>
      <trkpt lat="48.4411" lon="2.62296">
        <ele>137.48</ele>
        <time>2014-02-02T12:45:31Z</time>
      </trkpt>
      <trkpt lat="48.441" lon="2.62327">
        <ele>137.25</ele>
        <time>2014-02-02T12:45:48Z</time>
      </trkpt>
      <trkpt lat="48.44094" lon="2.6236">
        <ele>134.07</ele>
        <time>2014-02-02T12:46:06Z</time>
      </trkpt>
      <trkpt lat="48.44084" lon="2.62391">
        <ele>135.26</ele>
        <time>2014-02-02T12:46:28Z</time>
      </trkpt>
      <trkpt lat="48.44072" lon="2.62419">
        <ele>134.82</ele>
        <time>2014-02-02T12:46:56Z</time>
      </trkpt>
      <trkpt lat="48.44049" lon="2.62429">
        <ele>136.3</ele>
        <time>2014-02-02T12:47:22Z</time>
      </trkpt>
      <trkpt lat="48.44032" lon="2.62452">
        <ele>137.33</ele>
        <time>2014-02-02T12:47:44Z</time>
      </trkpt>
      <trkpt lat="48.44009" lon="2.62448">
        <ele>137.97</ele>
        <time>2014-02-02T12:48:07Z</time>
      </trkpt>
      <trkpt lat="48.43987" lon="2.6244">
        <ele>139.63</ele>
        <time>2014-02-02T12:48:29Z</time>
      </trkpt>
      <trkpt lat="48.43964" lon="2.62441">
        <ele>141.59</ele>
        <time>2014-02-02T12:48:50Z</time>
      </trkpt>
      <trkpt lat="48.43942" lon="2.6245">
        <ele>144.15</ele>
        <time>2014-02-02T12:49:37Z</time>
      </trkpt>
      <trkpt lat="48.43921" lon="2.6244">
        <ele>144.99</ele>
        <time>2014-02-02T12:50:03Z</time>
      </trkpt>
      <trkpt lat="48.43898" lon="2.6244">
        <ele>144.44</ele>
        <time>2014-02-02T12:51:16Z</time>
      </trkpt>
      <trkpt lat="48.43875" lon="2.6244">
        <ele>143.88</ele>
        <time>2014-02-02T12:51:34Z</time>
      </trkpt>
      <trkpt lat="48.43852" lon="2.6243">
        <ele>143.39</ele>
        <time>2014-02-02T12:51:53Z</time>
      </trkpt>
      <trkpt lat="48.4383" lon="2.62426">
        <ele>143.51</ele>
        <time>2014-02-02T12:52:11Z</time>
      </trkpt>
      <trkpt lat="48.43807" lon="2.62421">
        <ele>144.23</ele>
        <time>2014-02-02T12:52:30Z</time>
      </trkpt>
      <trkpt lat="48.43783" lon="2.62422">
        <ele>146.09</ele>
        <time>2014-02-02T12:52:48Z</time>
      </trkpt>
      <trkpt lat="48.43761" lon="2.62431">
        <ele>145.33</ele>
        <time>2014-02-02T12:53:05Z</time>
      </trkpt>
      <trkpt lat="48.43741" lon="2.62446">
        <ele>145.24</ele>
        <time>2014-02-02T12:53:21Z</time>
      </trkpt>
      <trkpt lat="48.43721" lon="2.62461">
        <ele>146.47</ele>
        <time>2014-02-02T12:53:38Z</time>
      </trkpt>
      <trkpt lat="48.43703" lon="2.62484">
        <ele>145.9</ele>
        <time>2014-02-02T12:53:58Z</time>
      </trkpt>
      <trkpt lat="48.43687" lon="2.62509">
        <ele>146.19</ele>
        <time>2014-02-02T12:54:16Z</time>
      </trkpt>
      <trkpt lat="48.4368" lon="2.62543">
        <ele>145.63</ele>
        <time>2014-02-02T12:54:36Z</time>
      </trkpt>
      <trkpt lat="48.4367" lon="2.62574">
        <ele>143.46</ele>
        <time>2014-02-02T12:54:54Z</time>
      </trkpt>
      <trkpt lat="48.43659" lon="2.62605">
        <ele>143.01</ele>
        <time>2014-02-02T12:55:13Z</time>
      </trkpt>
      <trkpt lat="48.43647" lon="2.62636">
        <ele>144.49</ele>
        <time>2014-02-02T12:55:28Z</time>
      </trkpt>
      <trkpt lat="48.43631" lon="2.6266">
        <ele>145.38</ele>
        <time>2014-02-02T12:55:44Z</time>
      </trkpt>
      <trkpt lat="48.43611" lon="2.62681">
        <ele>147.28</ele>
        <time>2014-02-02T12:56:01Z</time>
      </trkpt>
      <trkpt lat="48.43591" lon="2.62695">
        <ele>148.87</ele>
        <time>2014-02-02T12:56:17Z</time>
      </trkpt>
      <trkpt lat="48.43582" lon="2.62727">
        <ele>148.63</ele>
        <time>2014-02-02T12:56:38Z</time>
      </trkpt>
      <trkpt lat="48.43571" lon="2.62757">
        <ele>150.45</ele>
        <time>2014-02-02T12:57:02Z</time>
      </trkpt>
      <trkpt lat="48.43556" lon="2.62784">
        <ele>147.19</ele>
        <time>2014-02-02T12:57:22Z</time>
      </trkpt>
      <trkpt lat="48.43534" lon="2.62796">
        <ele>148.01</ele>
        <time>2014-02-02T12:57:44Z</time>
      </trkpt>
      <trkpt lat="48.43511" lon="2.62804">
        <ele>148.7</ele>
        <time>2014-02-02T12:58:04Z</time>
      </trkpt>
      <trkpt lat="48.4349" lon="2.62789">
        <ele>151.36</ele>
        <time>2014-02-02T12:58:25Z</time>
      </trkpt>
      <trkpt lat="48.43478" lon="2.62761">
        <ele>151.2</ele>
        <time>2014-02-02T12:58:43Z</time>
      </trkpt>
      <trkpt lat="48.43458" lon="2.62743">
        <ele>146.74</ele>
        <time>2014-02-02T13:00:37Z</time>
      </trkpt>
      <trkpt lat="48.43435" lon="2.62748">
        <ele>144.87</ele>
        <time>2014-02-02T13:00:56Z</time>
      </trkpt>
      <trkpt lat="48.43412" lon="2.62747">
        <ele>145.06</ele>
        <time>2014-02-02T13:01:20Z</time>
      </trkpt>
      <trkpt lat="48.43389" lon="2.62746">
        <ele>147.18</ele>
        <time>2014-02-02T13:01:48Z</time>
      </trkpt>
      <trkpt lat="48.43366" lon="2.62747">
        <ele>148.76</ele>
        <time>2014-02-02T13:02:09Z</time>
      </trkpt>
      <trkpt lat="48.43344" lon="2.62754">
        <ele>148.85</ele>
        <time>2014-02-02T13:02:35Z</time>
      </trkpt>
      <trkpt lat="48.43324" lon="2.62768">
        <ele>150.26</ele>
        <time>2014-02-02T13:02:56Z</time>
      </trkpt>
      <trkpt lat="48.43302" lon="2.6278">
        <ele>151.55</ele>
        <time>2014-02-02T13:03:17Z</time>
      </trkpt>
      <trkpt lat="48.43282" lon="2.62798">
        <ele>153.08</ele>
        <time>2014-02-02T13:03:37Z</time>
      </trkpt>
      <trkpt lat="48.43269" lon="2.62827">
        <ele>155.08</ele>
        <time>2014-02-02T13:04:01Z</time>
      </trkpt>
      <trkpt lat="48.43254" lon="2.62854">
        <ele>157.77</ele>
        <time>2014-02-02T13:04:22Z</time>
      </trkpt>
      <trkpt lat="48.43237" lon="2.62877">
        <ele>158.6</ele>
        <time>2014-02-02T13:04:44Z</time>
      </trkpt>
      <trkpt lat="48.43216" lon="2.62892">
        <ele>160.37</ele>
        <time>2014-02-02T13:05:06Z</time>
      </trkpt>
      <trkpt lat="48.43201" lon="2.62918">
        <ele>161.55</ele>
        <time>2014-02-02T13:05:28Z</time>
      </trkpt>
      <trkpt lat="48.43194" lon="2.62951">
        <ele>162.63</ele>
        <time>2014-02-02T13:05:49Z</time>
      </trkpt>
      <trkpt lat="48.43181" lon="2.6298">
        <ele>163.79</ele>
        <time>2014-02-02T13:06:10Z</time>
      </trkpt>
      <trkpt lat="48.43168" lon="2.63009">
        <ele>166.15</ele>
        <time>2014-02-02T13:06:29Z</time>
      </trkpt>
      <trkpt lat="48.43157" lon="2.63041">
        <ele>169.44</ele>
        <time>2014-02-02T13:06:52Z</time>
      </trkpt>
      <trkpt lat="48.43146" lon="2.63072">
        <ele>172.31</ele>
        <time>2014-02-02T13:07:20Z</time>
      </trkpt>
      <trkpt lat="48.43136" lon="2.63103">
        <ele>173.85</ele>
        <time>2014-02-02T13:07:39Z</time>
      </trkpt>
      <trkpt lat="48.43126" lon="2.63135">
        <ele>174.9</ele>
        <time>2014-02-02T13:08:01Z</time>
      </trkpt>
      <trkpt lat="48.43123" lon="2.63169">
        <ele>175.42</ele>
        <time>2014-02-02T13:08:32Z</time>
      </trkpt>
      <trkpt lat="48.43115" lon="2.63202">
        <ele>177.52</ele>
        <time>2014-02-02T13:08:54Z</time>
      </trkpt>
      <trkpt lat="48.43111" lon="2.63236">
        <ele>178.02</ele>
        <time>2014-02-02T13:09:17Z</time>
      </trkpt>
      <trkpt lat="48.43099" lon="2.63265">
        <ele>178.82</ele>
        <time>2014-02-02T13:09:38Z</time>
      </trkpt>
      <trkpt lat="48.43089" lon="2.63297">
        <ele>179.68</ele>
        <time>2014-02-02T13:09:59Z</time>
      </trkpt>
      <trkpt lat="48.43081" lon="2.6333">
        <ele>181.97</ele>
        <time>2014-02-02T13:10:21Z</time>
      </trkpt>
      <trkpt lat="48.43071" lon="2.63361">
        <ele>183.47</ele>
        <time>2014-02-02T13:10:44Z</time>
      </trkpt>
      <trkpt lat="48.43059" lon="2.63389">
        <ele>185.14</ele>
        <time>2014-02-02T13:11:04Z</time>
      </trkpt>
      <trkpt lat="48.43048" lon="2.63421">
        <ele>186.49</ele>
        <time>2014-02-02T13:11:23Z</time>
      </trkpt>
      <trkpt lat="48.4304" lon="2.63453">
        <ele>184.24</ele>
        <time>2014-02-02T13:11:43Z</time>
      </trkpt>
      <trkpt lat="48.43035" lon="2.63487">
        <ele>185.63</ele>
        <time>2014-02-02T13:12:06Z</time>
      </trkpt>
      <trkpt lat="48.43028" lon="2.6352">
        <ele>187.76</ele>
        <time>2014-02-02T13:12:30Z</time>
      </trkpt>
      <trkpt lat="48.43022" lon="2.63554">
        <ele>187.92</ele>
        <time>2014-02-02T13:12:49Z</time>
      </trkpt>
      <trkpt lat="48.43013" lon="2.63586">
        <ele>188.76</ele>
        <time>2014-02-02T13:13:08Z</time>
      </trkpt>
      <trkpt lat="48.43008" lon="2.63619">
        <ele>187.4</ele>
        <time>2014-02-02T13:13:27Z</time>
      </trkpt>
      <trkpt lat="48.43008" lon="2.63654">
        <ele>187.94</ele>
        <time>2014-02-02T13:13:47Z</time>
      </trkpt>
      <trkpt lat="48.43004" lon="2.63688">
        <ele>188.44</ele>
        <time>2014-02-02T13:14:08Z</time>
      </trkpt>
      <trkpt lat="48.42998" lon="2.63721">
        <ele>189.61</ele>
        <time>2014-02-02T13:14:28Z</time>
      </trkpt>
      <trkpt lat="48.42986" lon="2.6375">
        <ele>189.37</ele>
        <time>2014-02-02T13:14:50Z</time>
      </trkpt>
      <trkpt lat="48.4298" lon="2.63782">
        <ele>184.37</ele>
        <time>2014-02-02T13:15:19Z</time>
      </trkpt>
      <trkpt lat="48.4298" lon="2.63817">
        <ele>184.13</ele>
        <time>2014-02-02T13:15:40Z</time>
      </trkpt>
      <trkpt lat="48.42972" lon="2.63851">
        <ele>181.87</ele>
        <time>2014-02-02T13:15:57Z</time>
      </trkpt>
      <trkpt lat="48.42962" lon="2.63881">
        <ele>180.34</ele>
        <time>2014-02-02T13:16:20Z</time>
      </trkpt>
      <trkpt lat="48.42947" lon="2.63908">
        <ele>180.57</ele>
        <time>2014-02-02T13:16:41Z</time>
      </trkpt>
      <trkpt lat="48.42935" lon="2.63937">
        <ele>181.08</ele>
        <time>2014-02-02T13:17:06Z</time>
      </trkpt>
      <trkpt lat="48.42925" lon="2.63968">
        <ele>183.39</ele>
        <time>2014-02-02T13:17:30Z</time>
      </trkpt>
      <trkpt lat="48.42916" lon="2.63999">
        <ele>186.77</ele>
        <time>2014-02-02T13:17:54Z</time>
      </trkpt>
      <trkpt lat="48.4291" lon="2.64033">
        <ele>187.52</ele>
        <time>2014-02-02T13:18:18Z</time>
      </trkpt>
      <trkpt lat="48.42905" lon="2.64067">
        <ele>187.22</ele>
        <time>2014-02-02T13:18:38Z</time>
      </trkpt>
      <trkpt lat="48.42892" lon="2.64096">
        <ele>186.89</ele>
        <time>2014-02-02T13:18:57Z</time>
      </trkpt>
      <trkpt lat="48.42881" lon="2.64127">
        <ele>188.48</ele>
        <time>2014-02-02T13:19:17Z</time>
      </trkpt>
      <trkpt lat="48.42872" lon="2.64158">
        <ele>188.79</ele>
        <time>2014-02-02T13:19:34Z</time>
      </trkpt>
      <trkpt lat="48.42862" lon="2.64188">
        <ele>190.76</ele>
        <time>2014-02-02T13:19:52Z</time>
      </trkpt>
      <trkpt lat="48.4285" lon="2.64218">
        <ele>191.36</ele>
        <time>2014-02-02T13:20:11Z</time>
      </trkpt>
      <trkpt lat="48.42838" lon="2.64248">
        <ele>191.91</ele>
        <time>2014-02-02T13:20:28Z</time>
      </trkpt>
      <trkpt lat="48.42826" lon="2.64278">
        <ele>193.17</ele>
        <time>2014-02-02T13:20:47Z</time>
      </trkpt>
      <trkpt lat="48.42818" lon="2.6431">
        <ele>193.8</ele>
        <time>2014-02-02T13:21:13Z</time>
      </trkpt>
      <trkpt lat="48.42808" lon="2.64342">
        <ele>192.26</ele>
        <time>2014-02-02T13:21:37Z</time>
      </trkpt>
      <trkpt lat="48.42794" lon="2.64369">
        <ele>192.5</ele>
        <time>2014-02-02T13:21:52Z</time>
      </trkpt>
      <trkpt lat="48.42783" lon="2.64399">
        <ele>190.78</ele>
        <time>2014-02-02T13:22:09Z</time>
      </trkpt>
      <trkpt lat="48.42768" lon="2.64425">
        <ele>191</ele>
        <time>2014-02-02T13:22:25Z</time>
      </trkpt>
      <trkpt lat="48.42752" lon="2.6445">
        <ele>192.14</ele>
        <time>2014-02-02T13:22:43Z</time>
      </trkpt>
      <trkpt lat="48.42736" lon="2.64477">
        <ele>192.71</ele>
        <time>2014-02-02T13:23:01Z</time>
      </trkpt>
      <trkpt lat="48.42722" lon="2.64503">
        <ele>193.77</ele>
        <time>2014-02-02T13:23:18Z</time>
      </trkpt>
      <trkpt lat="48.42707" lon="2.64529">
        <ele>193.27</ele>
        <time>2014-02-02T13:23:34Z</time>
      </trkpt>
      <trkpt lat="48.42692" lon="2.64554">
        <ele>192.94</ele>
        <time>2014-02-02T13:23:51Z</time>
      </trkpt>
      <trkpt lat="48.42676" lon="2.6458">
        <ele>192.87</ele>
        <time>2014-02-02T13:24:09Z</time>
      </trkpt>
      <trkpt lat="48.42661" lon="2.64605">
        <ele>192.42</ele>
        <time>2014-02-02T13:24:26Z</time>
      </trkpt>
      <trkpt lat="48.42645" lon="2.64631">
        <ele>192.07</ele>
        <time>2014-02-02T13:24:45Z</time>
      </trkpt>
      <trkpt lat="48.42631" lon="2.64658">
        <ele>189.77</ele>
        <time>2014-02-02T13:25:07Z</time>
      </trkpt>
      <trkpt lat="48.42616" lon="2.64686">
        <ele>187.52</ele>
        <time>2014-02-02T13:25:26Z</time>
      </trkpt>
      <trkpt lat="48.42601" lon="2.64713">
        <ele>187.14</ele>
        <time>2014-02-02T13:25:42Z</time>
      </trkpt>
      <trkpt lat="48.42588" lon="2.64743">
        <ele>185.48</ele>
        <time>2014-02-02T13:25:58Z</time>
      </trkpt>
      <trkpt lat="48.42572" lon="2.64768">
        <ele>184.73</ele>
        <time>2014-02-02T13:26:11Z</time>
      </trkpt>
      <trkpt lat="48.42553" lon="2.64787">
        <ele>185.37</ele>
        <time>2014-02-02T13:26:32Z</time>
      </trkpt>
      <trkpt lat="48.42535" lon="2.64808">
        <ele>187.42</ele>
        <time>2014-02-02T13:26:54Z</time>
      </trkpt>
      <trkpt lat="48.42518" lon="2.6483">
        <ele>189.29</ele>
        <time>2014-02-02T13:27:14Z</time>
      </trkpt>
      <trkpt lat="48.42497" lon="2.64847">
        <ele>189.92</ele>
        <time>2014-02-02T13:27:34Z</time>
      </trkpt>
      <trkpt lat="48.42481" lon="2.64872">
        <ele>190.5</ele>
        <time>2014-02-02T13:27:51Z</time>
      </trkpt>
      <trkpt lat="48.42461" lon="2.6489">
        <ele>190.83</ele>
        <time>2014-02-02T13:28:11Z</time>
      </trkpt>
      <trkpt lat="48.42445" lon="2.64915">
        <ele>190.35</ele>
        <time>2014-02-02T13:28:27Z</time>
      </trkpt>
      <trkpt lat="48.42431" lon="2.64942">
        <ele>193.06</ele>
        <time>2014-02-02T13:28:45Z</time>
      </trkpt>
      <trkpt lat="48.42412" lon="2.64963">
        <ele>194.68</ele>
        <time>2014-02-02T13:29:03Z</time>
      </trkpt>
      <trkpt lat="48.42394" lon="2.64984">
        <ele>195.25</ele>
        <time>2014-02-02T13:29:21Z</time>
      </trkpt>
      <trkpt lat="48.42376" lon="2.65006">
        <ele>194.27</ele>
        <time>2014-02-02T13:29:42Z</time>
      </trkpt>
      <trkpt lat="48.42359" lon="2.65031">
        <ele>194.35</ele>
        <time>2014-02-02T13:29:59Z</time>
      </trkpt>
      <trkpt lat="48.42341" lon="2.65053">
        <ele>193.94</ele>
        <time>2014-02-02T13:30:20Z</time>
      </trkpt>
      <trkpt lat="48.42325" lon="2.65078">
        <ele>194.21</ele>
        <time>2014-02-02T13:30:34Z</time>
      </trkpt>
      <trkpt lat="48.42306" lon="2.65098">
        <ele>194.79</ele>
        <time>2014-02-02T13:30:56Z</time>
      </trkpt>
      <trkpt lat="48.42289" lon="2.65122">
        <ele>195.41</ele>
        <time>2014-02-02T13:31:14Z</time>
      </trkpt>
      <trkpt lat="48.4227" lon="2.65143">
        <ele>196.61</ele>
        <time>2014-02-02T13:31:33Z</time>
      </trkpt>
      <trkpt lat="48.42252" lon="2.65164">
        <ele>197.07</ele>
        <time>2014-02-02T13:31:53Z</time>
      </trkpt>
      <trkpt lat="48.42234" lon="2.65186">
        <ele>196.64</ele>
        <time>2014-02-02T13:32:13Z</time>
      </trkpt>
      <trkpt lat="48.42216" lon="2.65211">
        <ele>197.2</ele>
        <time>2014-02-02T13:32:32Z</time>
      </trkpt>
      <trkpt lat="48.422" lon="2.65234">
        <ele>198.55</ele>
        <time>2014-02-02T13:32:50Z</time>
      </trkpt>
      <trkpt lat="48.42178" lon="2.65246">
        <ele>192.91</ele>
        <time>2014-02-02T13:37:53Z</time>
      </trkpt>
      <trkpt lat="48.42163" lon="2.65272">
        <ele>184.86</ele>
        <time>2014-02-02T13:41:34Z</time>
      </trkpt>
      <trkpt lat="48.42152" lon="2.65302">
        <ele>185.52</ele>
        <time>2014-02-02T13:41:56Z</time>
      </trkpt>
      <trkpt lat="48.42148" lon="2.65336">
        <ele>184.69</ele>
        <time>2014-02-02T13:42:23Z</time>
      </trkpt>
      <trkpt lat="48.42142" lon="2.65369">
        <ele>182.53</ele>
        <time>2014-02-02T13:42:41Z</time>
      </trkpt>
      <trkpt lat="48.42134" lon="2.65402">
        <ele>181.7</ele>
        <time>2014-02-02T13:43:01Z</time>
      </trkpt>
      <trkpt lat="48.42129" lon="2.65435">
        <ele>179.43</ele>
        <time>2014-02-02T13:43:23Z</time>
      </trkpt>
      <trkpt lat="48.42125" lon="2.6547">
        <ele>179.28</ele>
        <time>2014-02-02T13:43:42Z</time>
      </trkpt>
      <trkpt lat="48.42119" lon="2.65505">
        <ele>180.31</ele>
        <time>2014-02-02T13:43:59Z</time>
      </trkpt>
      <trkpt lat="48.42111" lon="2.65538">
        <ele>181.44</ele>
        <time>2014-02-02T13:44:31Z</time>
      </trkpt>
      <trkpt lat="48.42105" lon="2.65572">
        <ele>182.79</ele>
        <time>2014-02-02T13:44:50Z</time>
      </trkpt>
      <trkpt lat="48.42099" lon="2.65606">
        <ele>182.7</ele>
        <time>2014-02-02T13:45:09Z</time>
      </trkpt>
      <trkpt lat="48.42093" lon="2.65639">
        <ele>181.9</ele>
        <time>2014-02-02T13:45:30Z</time>
      </trkpt>
      <trkpt lat="48.4209" lon="2.65673">
        <ele>183.6</ele>
        <time>2014-02-02T13:45:47Z</time>
      </trkpt>
      <trkpt lat="48.42084" lon="2.65708">
        <ele>184.9</ele>
        <time>2014-02-02T13:46:09Z</time>
      </trkpt>
      <trkpt lat="48.42079" lon="2.65742">
        <ele>184.05</ele>
        <time>2014-02-02T13:46:29Z</time>
      </trkpt>
      <trkpt lat="48.42074" lon="2.65775">
        <ele>184.32</ele>
        <time>2014-02-02T13:46:45Z</time>
      </trkpt>
      <trkpt lat="48.42068" lon="2.65809">
        <ele>185.51</ele>
        <time>2014-02-02T13:47:03Z</time>
      </trkpt>
      <trkpt lat="48.42061" lon="2.65842">
        <ele>185.4</ele>
        <time>2014-02-02T13:47:21Z</time>
      </trkpt>
      <trkpt lat="48.42054" lon="2.65876">
        <ele>186.99</ele>
        <time>2014-02-02T13:47:40Z</time>
      </trkpt>
      <trkpt lat="48.42048" lon="2.6591">
        <ele>185.84</ele>
        <time>2014-02-02T13:47:59Z</time>
      </trkpt>
      <trkpt lat="48.42042" lon="2.65943">
        <ele>186.19</ele>
        <time>2014-02-02T13:48:19Z</time>
      </trkpt>
      <trkpt lat="48.42038" lon="2.65977">
        <ele>187.04</ele>
        <time>2014-02-02T13:48:36Z</time>
      </trkpt>
      <trkpt lat="48.42032" lon="2.66012">
        <ele>188.01</ele>
        <time>2014-02-02T13:48:59Z</time>
      </trkpt>
      <trkpt lat="48.4203" lon="2.66046">
        <ele>186.27</ele>
        <time>2014-02-02T13:49:14Z</time>
      </trkpt>
      <trkpt lat="48.42023" lon="2.66079">
        <ele>186.05</ele>
        <time>2014-02-02T13:49:30Z</time>
      </trkpt>
      <trkpt lat="48.42019" lon="2.66113">
        <ele>185.16</ele>
        <time>2014-02-02T13:49:51Z</time>
      </trkpt>
      <trkpt lat="48.42015" lon="2.66146">
        <ele>184.59</ele>
        <time>2014-02-02T13:50:12Z</time>
      </trkpt>
      <trkpt lat="48.42009" lon="2.66179">
        <ele>184.03</ele>
        <time>2014-02-02T13:50:30Z</time>
      </trkpt>
      <trkpt lat="48.42003" lon="2.66213">
        <ele>182.4</ele>
        <time>2014-02-02T13:50:49Z</time>
      </trkpt>
      <trkpt lat="48.42" lon="2.66248">
        <ele>181.8</ele>
        <time>2014-02-02T13:51:10Z</time>
      </trkpt>
      <trkpt lat="48.41996" lon="2.66283">
        <ele>180.66</ele>
        <time>2014-02-02T13:51:29Z</time>
      </trkpt>
      <trkpt lat="48.41989" lon="2.66316">
        <ele>180.46</ele>
        <time>2014-02-02T13:51:49Z</time>
      </trkpt>
      <trkpt lat="48.41984" lon="2.6635">
        <ele>179.69</ele>
        <time>2014-02-02T13:52:09Z</time>
      </trkpt>
      <trkpt lat="48.41976" lon="2.66384">
        <ele>179.02</ele>
        <time>2014-02-02T13:52:23Z</time>
      </trkpt>
      <trkpt lat="48.41973" lon="2.66418">
        <ele>176.23</ele>
        <time>2014-02-02T13:52:40Z</time>
      </trkpt>
      <trkpt lat="48.41963" lon="2.66448">
        <ele>175.37</ele>
        <time>2014-02-02T13:53:00Z</time>
      </trkpt>
      <trkpt lat="48.41959" lon="2.66482">
        <ele>174.7</ele>
        <time>2014-02-02T13:53:18Z</time>
      </trkpt>
      <trkpt lat="48.41953" lon="2.66515">
        <ele>175.87</ele>
        <time>2014-02-02T13:53:37Z</time>
      </trkpt>
      <trkpt lat="48.41946" lon="2.66548">
        <ele>176.17</ele>
        <time>2014-02-02T13:53:51Z</time>
      </trkpt>
      <trkpt lat="48.41939" lon="2.66582">
        <ele>175.08</ele>
        <time>2014-02-02T13:54:07Z</time>
      </trkpt>
      <trkpt lat="48.41936" lon="2.66615">
        <ele>174.18</ele>
        <time>2014-02-02T13:54:26Z</time>
      </trkpt>
      <trkpt lat="48.4193" lon="2.66649">
        <ele>172.67</ele>
        <time>2014-02-02T13:54:44Z</time>
      </trkpt>
      <trkpt lat="48.41925" lon="2.66684">
        <ele>172.92</ele>
        <time>2014-02-02T13:55:02Z</time>
      </trkpt>
      <trkpt lat="48.41918" lon="2.66717">
        <ele>174.07</ele>
        <time>2014-02-02T13:55:20Z</time>
      </trkpt>
      <trkpt lat="48.41913" lon="2.66751">
        <ele>174.5</ele>
        <time>2014-02-02T13:55:36Z</time>
      </trkpt>
      <trkpt lat="48.41907" lon="2.66784">
        <ele>175.72</ele>
        <time>2014-02-02T13:55:55Z</time>
      </trkpt>
      <trkpt lat="48.41903" lon="2.66819">
        <ele>176.83</ele>
        <time>2014-02-02T13:56:15Z</time>
      </trkpt>
      <trkpt lat="48.41898" lon="2.66853">
        <ele>175.13</ele>
        <time>2014-02-02T13:56:34Z</time>
      </trkpt>
      <trkpt lat="48.41895" lon="2.66889">
        <ele>175.17</ele>
        <time>2014-02-02T13:56:53Z</time>
      </trkpt>
      <trkpt lat="48.41887" lon="2.6692">
        <ele>173.53</ele>
        <time>2014-02-02T13:57:10Z</time>
      </trkpt>
      <trkpt lat="48.41878" lon="2.66952">
        <ele>172.2</ele>
        <time>2014-02-02T13:57:37Z</time>
      </trkpt>
      <trkpt lat="48.41875" lon="2.66986">
        <ele>170.94</ele>
        <time>2014-02-02T13:58:36Z</time>
      </trkpt>
      <trkpt lat="48.4187" lon="2.67019">
        <ele>168.54</ele>
        <time>2014-02-02T13:58:57Z</time>
      </trkpt>
      <trkpt lat="48.41864" lon="2.67053">
        <ele>169.26</ele>
        <time>2014-02-02T13:59:16Z</time>
      </trkpt>
      <trkpt lat="48.41858" lon="2.67087">
        <ele>170.49</ele>
        <time>2014-02-02T13:59:37Z</time>
      </trkpt>
      <trkpt lat="48.41851" lon="2.67119">
        <ele>170.6</ele>
        <time>2014-02-02T13:59:55Z</time>
      </trkpt>
      <trkpt lat="48.41844" lon="2.67152">
        <ele>171.17</ele>
        <time>2014-02-02T14:00:15Z</time>
      </trkpt>
      <trkpt lat="48.4184" lon="2.67186">
        <ele>172.99</ele>
        <time>2014-02-02T14:00:38Z</time>
      </trkpt>
      <trkpt lat="48.41836" lon="2.6722">
        <ele>173.8</ele>
        <time>2014-02-02T14:00:57Z</time>
      </trkpt>
      <trkpt lat="48.41831" lon="2.67254">
        <ele>173.59</ele>
        <time>2014-02-02T14:01:13Z</time>
      </trkpt>
      <trkpt lat="48.41823" lon="2.67286">
        <ele>173.78</ele>
        <time>2014-02-02T14:01:28Z</time>
      </trkpt>
      <trkpt lat="48.4181" lon="2.67315">
        <ele>170.49</ele>
        <time>2014-02-02T14:01:49Z</time>
      </trkpt>
      <trkpt lat="48.41816" lon="2.67348">
        <ele>168.73</ele>
        <time>2014-02-02T14:02:22Z</time>
      </trkpt>
      <trkpt lat="48.41807" lon="2.67379">
        <ele>170.05</ele>
        <time>2014-02-02T14:02:39Z</time>
      </trkpt>
      <trkpt lat="48.41798" lon="2.67412">
        <ele>172.06</ele>
        <time>2014-02-02T14:03:00Z</time>
      </trkpt>
      <trkpt lat="48.41788" lon="2.67444">
        <ele>173.63</ele>
        <time>2014-02-02T14:03:23Z</time>
      </trkpt>
      <trkpt lat="48.41778" lon="2.67476">
        <ele>173.15</ele>
        <time>2014-02-02T14:03:44Z</time>
      </trkpt>
      <trkpt lat="48.41771" lon="2.67509">
        <ele>174.82</ele>
        <time>2014-02-02T14:04:10Z</time>
      </trkpt>
      <trkpt lat="48.41766" lon="2.67542">
        <ele>175.47</ele>
        <time>2014-02-02T14:04:33Z</time>
      </trkpt>
      <trkpt lat="48.41754" lon="2.67572">
        <ele>175.21</ele>
        <time>2014-02-02T14:04:47Z</time>
      </trkpt>
      <trkpt lat="48.41743" lon="2.67604">
        <ele>175</ele>
        <time>2014-02-02T14:04:57Z</time>
      </trkpt>
      <trkpt lat="48.41733" lon="2.67634">
        <ele>174.61</ele>
        <time>2014-02-02T14:05:16Z</time>
      </trkpt>
      <trkpt lat="48.41729" lon="2.67669">
        <ele>174.66</ele>
        <time>2014-02-02T14:05:41Z</time>
      </trkpt>
      <trkpt lat="48.41719" lon="2.67699">
        <ele>174.6</ele>
        <time>2014-02-02T14:06:04Z</time>
      </trkpt>
      <trkpt lat="48.41708" lon="2.6773">
        <ele>174.87</ele>
        <time>2014-02-02T14:06:22Z</time>
      </trkpt>
      <trkpt lat="48.41703" lon="2.67763">
        <ele>175.79</ele>
        <time>2014-02-02T14:06:36Z</time>
      </trkpt>
      <trkpt lat="48.417" lon="2.67797">
        <ele>175.78</ele>
        <time>2014-02-02T14:06:52Z</time>
      </trkpt>
      <trkpt lat="48.41691" lon="2.6783">
        <ele>175.76</ele>
        <time>2014-02-02T14:07:08Z</time>
      </trkpt>
      <trkpt lat="48.41685" lon="2.67864">
        <ele>175.58</ele>
        <time>2014-02-02T14:07:26Z</time>
      </trkpt>
      <trkpt lat="48.41677" lon="2.67896">
        <ele>176.02</ele>
        <time>2014-02-02T14:07:42Z</time>
      </trkpt>
      <trkpt lat="48.41671" lon="2.67929">
        <ele>176.49</ele>
        <time>2014-02-02T14:07:59Z</time>
      </trkpt>
      <trkpt lat="48.41662" lon="2.67961">
        <ele>177.17</ele>
        <time>2014-02-02T14:08:16Z</time>
      </trkpt>
      <trkpt lat="48.41647" lon="2.67987">
        <ele>172.46</ele>
        <time>2014-02-02T14:09:26Z</time>
      </trkpt>
      <trkpt lat="48.41646" lon="2.68021">
        <ele>181.8</ele>
        <time>2014-02-02T14:11:01Z</time>
      </trkpt>
      <trkpt lat="48.41631" lon="2.68049">
        <ele>183.35</ele>
        <time>2014-02-02T14:11:25Z</time>
      </trkpt>
      <trkpt lat="48.41614" lon="2.68077">
        <ele>184.28</ele>
        <time>2014-02-02T14:11:49Z</time>
      </trkpt>
      <trkpt lat="48.41594" lon="2.68095">
        <ele>181.97</ele>
        <time>2014-02-02T14:12:06Z</time>
      </trkpt>
      <trkpt lat="48.41574" lon="2.6811">
        <ele>179.55</ele>
        <time>2014-02-02T14:12:24Z</time>
      </trkpt>
      <trkpt lat="48.41552" lon="2.68117">
        <ele>177.11</ele>
        <time>2014-02-02T14:12:45Z</time>
      </trkpt>
      <trkpt lat="48.4153" lon="2.68125">
        <ele>176.46</ele>
        <time>2014-02-02T14:12:58Z</time>
      </trkpt>
      <trkpt lat="48.41508" lon="2.68138">
        <ele>174.43</ele>
        <time>2014-02-02T14:13:14Z</time>
      </trkpt>
      <trkpt lat="48.41487" lon="2.68149">
        <ele>174.73</ele>
        <time>2014-02-02T14:13:34Z</time>
      </trkpt>
      <trkpt lat="48.41465" lon="2.68157">
        <ele>173.1</ele>
        <time>2014-02-02T14:14:00Z</time>
      </trkpt>
      <trkpt lat="48.41442" lon="2.68166">
        <ele>173.97</ele>
        <time>2014-02-02T14:14:18Z</time>
      </trkpt>
      <trkpt lat="48.4142" lon="2.68175">
        <ele>175.28</ele>
        <time>2014-02-02T14:14:33Z</time>
      </trkpt>
      <trkpt lat="48.41396" lon="2.68172">
        <ele>175.08</ele>
        <time>2014-02-02T14:14:57Z</time>
      </trkpt>
      <trkpt lat="48.41373" lon="2.68176">
        <ele>175.44</ele>
        <time>2014-02-02T14:15:14Z</time>
      </trkpt>
      <trkpt lat="48.41352" lon="2.6819">
        <ele>174.93</ele>
        <time>2014-02-02T14:15:36Z</time>
      </trkpt>
      <trkpt lat="48.41333" lon="2.68208">
        <ele>173.97</ele>
        <time>2014-02-02T14:15:54Z</time>
      </trkpt>
      <trkpt lat="48.41315" lon="2.68231">
        <ele>174.5</ele>
        <time>2014-02-02T14:16:14Z</time>
      </trkpt>
      <trkpt lat="48.41297" lon="2.68254">
        <ele>173</ele>
        <time>2014-02-02T14:16:35Z</time>
      </trkpt>
      <trkpt lat="48.41282" lon="2.6828">
        <ele>171.2</ele>
        <time>2014-02-02T14:16:50Z</time>
      </trkpt>
      <trkpt lat="48.41265" lon="2.68304">
        <ele>171.99</ele>
        <time>2014-02-02T14:17:09Z</time>
      </trkpt>
      <trkpt lat="48.41254" lon="2.68336">
        <ele>173.2</ele>
        <time>2014-02-02T14:17:26Z</time>
      </trkpt>
      <trkpt lat="48.41246" lon="2.68368">
        <ele>174.79</ele>
        <time>2014-02-02T14:17:48Z</time>
      </trkpt>
      <trkpt lat="48.41242" lon="2.68402">
        <ele>175.34</ele>
        <time>2014-02-02T14:18:06Z</time>
      </trkpt>
      <trkpt lat="48.41242" lon="2.68437">
        <ele>171.92</ele>
        <time>2014-02-02T14:18:21Z</time>
      </trkpt>
      <trkpt lat="48.41243" lon="2.68472">
        <ele>172.6</ele>
        <time>2014-02-02T14:18:43Z</time>
      </trkpt>
      <trkpt lat="48.41243" lon="2.68506">
        <ele>173.51</ele>
        <time>2014-02-02T14:19:05Z</time>
      </trkpt>
      <trkpt lat="48.41243" lon="2.6854">
        <ele>172.59</ele>
        <time>2014-02-02T14:19:25Z</time>
      </trkpt>
      <trkpt lat="48.4124" lon="2.68574">
        <ele>169.23</ele>
        <time>2014-02-02T14:19:45Z</time>
      </trkpt>
      <trkpt lat="48.41239" lon="2.68609">
        <ele>169.69</ele>
        <time>2014-02-02T14:20:09Z</time>
      </trkpt>
      <trkpt lat="48.41237" lon="2.68643">
        <ele>168.06</ele>
        <time>2014-02-02T14:20:35Z</time>
      </trkpt>
      <trkpt lat="48.41238" lon="2.68677">
        <ele>166.24</ele>
        <time>2014-02-02T14:20:51Z</time>
      </trkpt>
      <trkpt lat="48.41235" lon="2.68713">
        <ele>164.08</ele>
        <time>2014-02-02T14:21:05Z</time>
      </trkpt>
      <trkpt lat="48.41235" lon="2.68748">
        <ele>162.54</ele>
        <time>2014-02-02T14:21:24Z</time>
      </trkpt>
      <trkpt lat="48.41234" lon="2.68782">
        <ele>160.43</ele>
        <time>2014-02-02T14:21:43Z</time>
      </trkpt>
      <trkpt lat="48.41235" lon="2.68817">
        <ele>159.31</ele>
        <time>2014-02-02T14:22:02Z</time>
      </trkpt>
      <trkpt lat="48.41236" lon="2.68851">
        <ele>159.01</ele>
        <time>2014-02-02T14:22:21Z</time>
      </trkpt>
      <trkpt lat="48.41236" lon="2.68886">
        <ele>158.39</ele>
        <time>2014-02-02T14:22:42Z</time>
      </trkpt>
      <trkpt lat="48.41241" lon="2.6892">
        <ele>156.16</ele>
        <time>2014-02-02T14:23:00Z</time>
      </trkpt>
      <trkpt lat="48.41242" lon="2.68954">
        <ele>154.09</ele>
        <time>2014-02-02T14:23:19Z</time>
      </trkpt>
      <trkpt lat="48.41239" lon="2.68988">
        <ele>155.4</ele>
        <time>2014-02-02T14:23:40Z</time>
      </trkpt>
      <trkpt lat="48.41242" lon="2.69022">
        <ele>154.03</ele>
        <time>2014-02-02T14:23:57Z</time>
      </trkpt>
      <trkpt lat="48.41243" lon="2.69057">
        <ele>151.88</ele>
        <time>2014-02-02T14:24:13Z</time>
      </trkpt>
      <trkpt lat="48.4125" lon="2.69089">
        <ele>150.91</ele>
        <time>2014-02-02T14:24:32Z</time>
      </trkpt>
      <trkpt lat="48.41251" lon="2.69124">
        <ele>150.67</ele>
        <time>2014-02-02T14:24:55Z</time>
      </trkpt>
      <trkpt lat="48.4125" lon="2.69159">
        <ele>149.68</ele>
        <time>2014-02-02T14:25:15Z</time>
      </trkpt>
      <trkpt lat="48.41253" lon="2.69193">
        <ele>141.93</ele>
        <time>2014-02-02T14:25:57Z</time>
      </trkpt>
      <trkpt lat="48.41254" lon="2.69228">
        <ele>135.57</ele>
        <time>2014-02-02T14:28:46Z</time>
      </trkpt>
      <trkpt lat="48.4124" lon="2.69255">
        <ele>139.27</ele>
        <time>2014-02-02T14:29:06Z</time>
      </trkpt>
      <trkpt lat="48.41223" lon="2.69278">
        <ele>139.14</ele>
        <time>2014-02-02T14:29:25Z</time>
      </trkpt>
      <trkpt lat="48.41208" lon="2.69307">
        <ele>138.95</ele>
        <time>2014-02-02T14:29:44Z</time>
      </trkpt>
      <trkpt lat="48.41192" lon="2.69332">
        <ele>136.97</ele>
        <time>2014-02-02T14:30:07Z</time>
      </trkpt>
      <trkpt lat="48.41177" lon="2.6936">
        <ele>137.57</ele>
        <time>2014-02-02T14:30:23Z</time>
      </trkpt>
      <trkpt lat="48.41165" lon="2.69389">
        <ele>137.4</ele>
        <time>2014-02-02T14:30:44Z</time>
      </trkpt>
      <trkpt lat="48.41151" lon="2.69416">
        <ele>137.3</ele>
        <time>2014-02-02T14:31:01Z</time>
      </trkpt>
      <trkpt lat="48.41142" lon="2.69447">
        <ele>136.5</ele>
        <time>2014-02-02T14:31:18Z</time>
      </trkpt>
      <trkpt lat="48.41125" lon="2.69473">
        <ele>134.63</ele>
        <time>2014-02-02T14:31:56Z</time>
      </trkpt>
      <trkpt lat="48.41104" lon="2.69488">
        <ele>134.92</ele>
        <time>2014-02-02T14:32:15Z</time>
      </trkpt>
      <trkpt lat="48.41083" lon="2.69504">
        <ele>134.17</ele>
        <time>2014-02-02T14:32:34Z</time>
      </trkpt>
      <trkpt lat="48.41066" lon="2.69527">
        <ele>135.03</ele>
        <time>2014-02-02T14:32:58Z</time>
      </trkpt>
      <trkpt lat="48.41046" lon="2.69546">
        <ele>135.99</ele>
        <time>2014-02-02T14:33:16Z</time>
      </trkpt>
      <trkpt lat="48.41025" lon="2.69562">
        <ele>136.33</ele>
        <time>2014-02-02T14:33:35Z</time>
      </trkpt>
      <trkpt lat="48.41006" lon="2.69579">
        <ele>135.3</ele>
        <time>2014-02-02T14:33:52Z</time>
      </trkpt>
      <trkpt lat="48.40985" lon="2.69594">
        <ele>131.87</ele>
        <time>2014-02-02T14:34:07Z</time>
      </trkpt>
      <trkpt lat="48.40965" lon="2.69613">
        <ele>129.8</ele>
        <time>2014-02-02T14:34:29Z</time>
      </trkpt>
      <trkpt lat="48.40948" lon="2.69636">
        <ele>128.37</ele>
        <time>2014-02-02T14:34:48Z</time>
      </trkpt>
      <trkpt lat="48.4093" lon="2.69658">
        <ele>127.6</ele>
        <time>2014-02-02T14:35:06Z</time>
      </trkpt>
      <trkpt lat="48.40911" lon="2.69677">
        <ele>126.14</ele>
        <time>2014-02-02T14:35:26Z</time>
      </trkpt>
      <trkpt lat="48.40892" lon="2.69698">
        <ele>126.01</ele>
        <time>2014-02-02T14:35:46Z</time>
      </trkpt>
      <trkpt lat="48.40876" lon="2.69722">
        <ele>126.59</ele>
        <time>2014-02-02T14:36:05Z</time>
      </trkpt>
      <trkpt lat="48.40857" lon="2.69742">
        <ele>128.98</ele>
        <time>2014-02-02T14:36:22Z</time>
      </trkpt>
      <trkpt lat="48.40839" lon="2.69761">
        <ele>128.67</ele>
        <time>2014-02-02T14:36:40Z</time>
      </trkpt>
      <trkpt lat="48.40819" lon="2.6978">
        <ele>127.59</ele>
        <time>2014-02-02T14:36:59Z</time>
      </trkpt>
      <trkpt lat="48.408" lon="2.69801">
        <ele>128.97</ele>
        <time>2014-02-02T14:37:25Z</time>
      </trkpt>
      <trkpt lat="48.4078" lon="2.69819">
        <ele>129.73</ele>
        <time>2014-02-02T14:37:43Z</time>
      </trkpt>
      <trkpt lat="48.40761" lon="2.69839">
        <ele>129.42</ele>
        <time>2014-02-02T14:38:02Z</time>
      </trkpt>
      <trkpt lat="48.40746" lon="2.69864">
        <ele>129.44</ele>
        <time>2014-02-02T14:38:22Z</time>
      </trkpt>
      <trkpt lat="48.40729" lon="2.69886">
        <ele>130.2</ele>
        <time>2014-02-02T14:38:44Z</time>
      </trkpt>
      <trkpt lat="48.40709" lon="2.69903">
        <ele>128.36</ele>
        <time>2014-02-02T14:39:09Z</time>
      </trkpt>
      <trkpt lat="48.40688" lon="2.69917">
        <ele>127.85</ele>
        <time>2014-02-02T14:39:33Z</time>
      </trkpt>
      <trkpt lat="48.40666" lon="2.6993">
        <ele>125.96</ele>
        <time>2014-02-02T14:39:52Z</time>
      </trkpt>
      <trkpt lat="48.40649" lon="2.69952">
        <ele>125.17</ele>
        <time>2014-02-02T14:40:11Z</time>
      </trkpt>
      <trkpt lat="48.40631" lon="2.69974">
        <ele>125.21</ele>
        <time>2014-02-02T14:40:27Z</time>
      </trkpt>
      <trkpt lat="48.40611" lon="2.6999">
        <ele>126.27</ele>
        <time>2014-02-02T14:40:45Z</time>
      </trkpt>
      <trkpt lat="48.40597" lon="2.70019">
        <ele>124.24</ele>
        <time>2014-02-02T14:41:11Z</time>
      </trkpt>
      <trkpt lat="48.40579" lon="2.70039">
        <ele>126.03</ele>
        <time>2014-02-02T14:41:25Z</time>
      </trkpt>
      <trkpt lat="48.40564" lon="2.70066">
        <ele>129.06</ele>
        <time>2014-02-02T14:41:42Z</time>
      </trkpt>
      <trkpt lat="48.40549" lon="2.70094">
        <ele>130.59</ele>
        <time>2014-02-02T14:42:03Z</time>
      </trkpt>
      <trkpt lat="48.40534" lon="2.70121">
        <ele>130.05</ele>
        <time>2014-02-02T14:42:23Z</time>
      </trkpt>
      <trkpt lat="48.40518" lon="2.70146">
        <ele>127.87</ele>
        <time>2014-02-02T14:43:41Z</time>
      </trkpt>
      <trkpt lat="48.40505" lon="2.70174">
        <ele>125.35</ele>
        <time>2014-02-02T14:44:10Z</time>
      </trkpt>
      <trkpt lat="48.40492" lon="2.70203">
        <ele>123.81</ele>
        <time>2014-02-02T14:44:35Z</time>
      </trkpt>
      <trkpt lat="48.40476" lon="2.70227">
        <ele>123.92</ele>
        <time>2014-02-02T14:44:52Z</time>
      </trkpt>
      <trkpt lat="48.40459" lon="2.70249">
        <ele>123.49</ele>
        <time>2014-02-02T14:45:12Z</time>
      </trkpt>
      <trkpt lat="48.40453" lon="2.70283">
        <ele>123.4</ele>
        <time>2014-02-02T14:45:28Z</time>
      </trkpt>
      <trkpt lat="48.40438" lon="2.70308">
        <ele>120.05</ele>
        <time>2014-02-02T14:45:54Z</time>
      </trkpt>
      <trkpt lat="48.4042" lon="2.7033">
        <ele>120.37</ele>
        <time>2014-02-02T14:46:13Z</time>
      </trkpt>
      <trkpt lat="48.40402" lon="2.70352">
        <ele>119.63</ele>
        <time>2014-02-02T14:46:37Z</time>
      </trkpt>
      <trkpt lat="48.40385" lon="2.70374">
        <ele>120.17</ele>
        <time>2014-02-02T14:46:58Z</time>
      </trkpt>
      <trkpt lat="48.4037" lon="2.70401">
        <ele>116.24</ele>
        <time>2014-02-02T14:47:45Z</time>
      </trkpt>
      <trkpt lat="48.40362" lon="2.70432">
        <ele>114.64</ele>
        <time>2014-02-02T14:48:06Z</time>
      </trkpt>
      <trkpt lat="48.40362" lon="2.70467">
        <ele>110.36</ele>
        <time>2014-02-02T14:48:26Z</time>
      </trkpt>
      <trkpt lat="48.4036" lon="2.70502">
        <ele>107.86</ele>
        <time>2014-02-02T14:48:44Z</time>
      </trkpt>
      <trkpt lat="48.4035" lon="2.70532">
        <ele>106</ele>
        <time>2014-02-02T14:49:06Z</time>
      </trkpt>
      <trkpt lat="48.40328" lon="2.70545">
        <ele>104.04</ele>
        <time>2014-02-02T14:49:24Z</time>
      </trkpt>
      <trkpt lat="48.40308" lon="2.70562">
        <ele>102.34</ele>
        <time>2014-02-02T14:49:40Z</time>
      </trkpt>
      <trkpt lat="48.40287" lon="2.70579">
        <ele>101.56</ele>
        <time>2014-02-02T14:50:00Z</time>
      </trkpt>
      <trkpt lat="48.40265" lon="2.70591">
        <ele>100.24</ele>
        <time>2014-02-02T14:50:19Z</time>
      </trkpt>
      <trkpt lat="48.40245" lon="2.70607">
        <ele>100.52</ele>
        <time>2014-02-02T14:50:41Z</time>
      </trkpt>
      <trkpt lat="48.40225" lon="2.70624">
        <ele>100.71</ele>
        <time>2014-02-02T14:52:13Z</time>
      </trkpt>
      <trkpt lat="48.40207" lon="2.70646">
        <ele>100.57</ele>
        <time>2014-02-02T14:52:38Z</time>
      </trkpt>
      <trkpt lat="48.40208" lon="2.7068">
        <ele>102.67</ele>
        <time>2014-02-02T14:53:12Z</time>
      </trkpt>
      <trkpt lat="48.40219" lon="2.70712">
        <ele>102.26</ele>
        <time>2014-02-02T14:53:36Z</time>
      </trkpt>
      <trkpt lat="48.40226" lon="2.70744">
        <ele>103.17</ele>
        <time>2014-02-02T14:53:59Z</time>
      </trkpt>
      <trkpt lat="48.40238" lon="2.70775">
        <ele>104.06</ele>
        <time>2014-02-02T14:54:19Z</time>
      </trkpt>
      <trkpt lat="48.40252" lon="2.70803">
        <ele>105.59</ele>
        <time>2014-02-02T14:54:38Z</time>
      </trkpt>
      <trkpt lat="48.40262" lon="2.70834">
        <ele>105.55</ele>
        <time>2014-02-02T14:54:57Z</time>
      </trkpt>
      <trkpt lat="48.40271" lon="2.70864">
        <ele>106.61</ele>
        <time>2014-02-02T14:55:16Z</time>
      </trkpt>
      <trkpt lat="48.40284" lon="2.70892">
        <ele>106.91</ele>
        <time>2014-02-02T14:55:36Z</time>
      </trkpt>
      <trkpt lat="48.40296" lon="2.70921">
        <ele>104.81</ele>
        <time>2014-02-02T14:55:54Z</time>
      </trkpt>
      <trkpt lat="48.40307" lon="2.70951">
        <ele>104.58</ele>
        <time>2014-02-02T14:56:16Z</time>
      </trkpt>
      <trkpt lat="48.40313" lon="2.70986">
        <ele>104.02</ele>
        <time>2014-02-02T14:56:35Z</time>
      </trkpt>
      <trkpt lat="48.40324" lon="2.71016">
        <ele>106.23</ele>
        <time>2014-02-02T14:57:10Z</time>
      </trkpt>
      <trkpt lat="48.40327" lon="2.7105">
        <ele>106.79</ele>
        <time>2014-02-02T14:57:33Z</time>
      </trkpt>
      <trkpt lat="48.40334" lon="2.71084">
        <ele>108.67</ele>
        <time>2014-02-02T14:57:54Z</time>
      </trkpt>
      <trkpt lat="48.40342" lon="2.71116">
        <ele>109.66</ele>
        <time>2014-02-02T14:58:15Z</time>
      </trkpt>
      <trkpt lat="48.40351" lon="2.7115">
        <ele>110.8</ele>
        <time>2014-02-02T14:58:37Z</time>
      </trkpt>
      <trkpt lat="48.40361" lon="2.71181">
        <ele>109.53</ele>
        <time>2014-02-02T14:58:55Z</time>
      </trkpt>
      <trkpt lat="48.40375" lon="2.7121">
        <ele>106.6</ele>
        <time>2014-02-02T14:59:11Z</time>
      </trkpt>
      <trkpt lat="48.40387" lon="2.7124">
        <ele>108.22</ele>
        <time>2014-02-02T14:59:31Z</time>
      </trkpt>
      <trkpt lat="48.40401" lon="2.71266">
        <ele>108.4</ele>
        <time>2014-02-02T14:59:51Z</time>
      </trkpt>
      <trkpt lat="48.40404" lon="2.71301">
        <ele>108.36</ele>
        <time>2014-02-02T15:00:11Z</time>
      </trkpt>
      <trkpt lat="48.4041" lon="2.71335">
        <ele>106.85</ele>
        <time>2014-02-02T15:00:30Z</time>
      </trkpt>
      <trkpt lat="48.40417" lon="2.71368">
        <ele>103.13</ele>
        <time>2014-02-02T15:00:46Z</time>
      </trkpt>
      <trkpt lat="48.4042" lon="2.71401">
        <ele>102.15</ele>
        <time>2014-02-02T15:01:04Z</time>
      </trkpt>
      <trkpt lat="48.40424" lon="2.71436">
        <ele>102.46</ele>
        <time>2014-02-02T15:01:25Z</time>
      </trkpt>
      <trkpt lat="48.40431" lon="2.71469">
        <ele>102.05</ele>
        <time>2014-02-02T15:01:45Z</time>
      </trkpt>
      <trkpt lat="48.40433" lon="2.71504">
        <ele>103.25</ele>
        <time>2014-02-02T15:02:06Z</time>
      </trkpt>
      <trkpt lat="48.40432" lon="2.71539">
        <ele>104.09</ele>
        <time>2014-02-02T15:02:27Z</time>
      </trkpt>
      <trkpt lat="48.40432" lon="2.71573">
        <ele>105.3</ele>
        <time>2014-02-02T15:02:46Z</time>
      </trkpt>
      <trkpt lat="48.40439" lon="2.71606">
        <ele>106.4</ele>
        <time>2014-02-02T15:03:05Z</time>
      </trkpt>
      <trkpt lat="48.40442" lon="2.71641">
        <ele>108.47</ele>
        <time>2014-02-02T15:03:26Z</time>
      </trkpt>
      <trkpt lat="48.40444" lon="2.71675">
        <ele>109.57</ele>
        <time>2014-02-02T15:03:45Z</time>
      </trkpt>
      <trkpt lat="48.40448" lon="2.7171">
        <ele>112.37</ele>
        <time>2014-02-02T15:04:06Z</time>
      </trkpt>
      <trkpt lat="48.40449" lon="2.71743">
        <ele>112.2</ele>
        <time>2014-02-02T15:04:28Z</time>
      </trkpt>
      <trkpt lat="48.40438" lon="2.71773">
        <ele>118.84</ele>
        <time>2014-02-02T15:05:47Z</time>
      </trkpt>
      <trkpt lat="48.4046" lon="2.71784">
        <ele>121.3</ele>
        <time>2014-02-02T15:07:39Z</time>
      </trkpt>
      <trkpt lat="48.40483" lon="2.71779">
        <ele>121.49</ele>
        <time>2014-02-02T15:08:03Z</time>
      </trkpt>
      <trkpt lat="48.40505" lon="2.71789">
        <ele>120.39</ele>
        <time>2014-02-02T15:08:33Z</time>
      </trkpt>
      <trkpt lat="48.40518" lon="2.71818">
        <ele>117.69</ele>
        <time>2014-02-02T15:08:58Z</time>
      </trkpt>
      <trkpt lat="48.40523" lon="2.71852">
        <ele>115.15</ele>
        <time>2014-02-02T15:09:18Z</time>
      </trkpt>
      <trkpt lat="48.40525" lon="2.71888">
        <ele>111.44</ele>
        <time>2014-02-02T15:09:39Z</time>
      </trkpt>
      <trkpt lat="48.40525" lon="2.71922">
        <ele>111.46</ele>
        <time>2014-02-02T15:10:01Z</time>
      </trkpt>
      <trkpt lat="48.40522" lon="2.71956">
        <ele>111.71</ele>
        <time>2014-02-02T15:10:24Z</time>
      </trkpt>
      <trkpt lat="48.40523" lon="2.71991">
        <ele>110.02</ele>
        <time>2014-02-02T15:10:46Z</time>
      </trkpt>
      <trkpt lat="48.40527" lon="2.72026">
        <ele>109.77</ele>
        <time>2014-02-02T15:11:06Z</time>
      </trkpt>
      <trkpt lat="48.40527" lon="2.7206">
        <ele>109.67</ele>
        <time>2014-02-02T15:11:30Z</time>
      </trkpt>
      <trkpt lat="48.40515" lon="2.72092">
        <ele>112.6</ele>
        <time>2014-02-02T15:13:30Z</time>
      </trkpt>
      <trkpt lat="48.40515" lon="2.72093">
        <ele>112.6</ele>
        <time>2014-02-02T15:13:31Z</time>
      </trkpt>
    </trkseg>
  </trk>
  <trk>
    <name><![CDATA[Paris VEZELAY_14]]></name>
    <extensions>
      <line xmlns="http://www.topografix.com/GPX/gpx_style/0/2">
        <color>00FF00</color>
        <width>4</width>
      </line>
    </extensions>
    <trkseg>
      <trkpt lat="48.44287" lon="2.61246">
        <ele>92.3</ele>
      </trkpt>
      <trkpt lat="48.44282" lon="2.61249">
        <ele>92.7</ele>
      </trkpt>
      <trkpt lat="48.44273" lon="2.61261">
        <ele>93.4</ele>
      </trkpt>
      <trkpt lat="48.44094" lon="2.62372">
        <ele>93.2</ele>
      </trkpt>
      <trkpt lat="48.44083" lon="2.62383">
        <ele>94.3</ele>
      </trkpt>
      <trkpt lat="48.44065" lon="2.624">
        <ele>94.1</ele>
      </trkpt>
      <trkpt lat="48.44045" lon="2.62411">
        <ele>94.8</ele>
      </trkpt>
      <trkpt lat="48.44036" lon="2.6241">
        <ele>95.2</ele>
      </trkpt>
      <trkpt lat="48.44027" lon="2.62404">
        <ele>95.5</ele>
      </trkpt>
      <trkpt lat="48.4402" lon="2.624">
        <ele>95.8</ele>
      </trkpt>
      <trkpt lat="48.44002" lon="2.62405">
        <ele>96.3</ele>
      </trkpt>
      <trkpt lat="48.4399" lon="2.62407">
        <ele>96.8</ele>
      </trkpt>
      <trkpt lat="48.4397" lon="2.62404">
        <ele>96.5</ele>
      </trkpt>
      <trkpt lat="48.43925" lon="2.62386">
        <ele>96.1</ele>
      </trkpt>
      <trkpt lat="48.43913" lon="2.62379">
        <ele>95.8</ele>
      </trkpt>
      <trkpt lat="48.43904" lon="2.62372">
        <ele>95.9</ele>
      </trkpt>
      <trkpt lat="48.43892" lon="2.62371">
        <ele>95.9</ele>
      </trkpt>
      <trkpt lat="48.43889" lon="2.6237">
        <ele>95.8</ele>
      </trkpt>
      <trkpt lat="48.43874" lon="2.62358">
        <ele>95.9</ele>
      </trkpt>
      <trkpt lat="48.43858" lon="2.6235">
        <ele>95.9</ele>
      </trkpt>
      <trkpt lat="48.43849" lon="2.62343">
        <ele>95.9</ele>
      </trkpt>
      <trkpt lat="48.43841" lon="2.62335">
        <ele>96</ele>
      </trkpt>
      <trkpt lat="48.43819" lon="2.62334">
        <ele>95.9</ele>
      </trkpt>
      <trkpt lat="48.43805" lon="2.62334">
        <ele>95.8</ele>
      </trkpt>
      <trkpt lat="48.43783" lon="2.62343">
        <ele>95.8</ele>
      </trkpt>
      <trkpt lat="48.43772" lon="2.62346">
        <ele>95.9</ele>
      </trkpt>
      <trkpt lat="48.43759" lon="2.62349">
        <ele>95.9</ele>
      </trkpt>
      <trkpt lat="48.43749" lon="2.62358">
        <ele>96.7</ele>
      </trkpt>
      <trkpt lat="48.43742" lon="2.62364">
        <ele>96.8</ele>
      </trkpt>
      <trkpt lat="48.43733" lon="2.62376">
        <ele>96.9</ele>
      </trkpt>
      <trkpt lat="48.43729" lon="2.62381">
        <ele>96.9</ele>
      </trkpt>
      <trkpt lat="48.4372" lon="2.62382">
        <ele>97.1</ele>
      </trkpt>
      <trkpt lat="48.43713" lon="2.62379">
        <ele>97.2</ele>
      </trkpt>
      <trkpt lat="48.43701" lon="2.62369">
        <ele>97.4</ele>
      </trkpt>
      <trkpt lat="48.43688" lon="2.62368">
        <ele>97.6</ele>
      </trkpt>
      <trkpt lat="48.43681" lon="2.62371">
        <ele>97.6</ele>
      </trkpt>
      <trkpt lat="48.43671" lon="2.62382">
        <ele>97.7</ele>
      </trkpt>
      <trkpt lat="48.43646" lon="2.62411">
        <ele>98.1</ele>
      </trkpt>
      <trkpt lat="48.43635" lon="2.62411">
        <ele>98.1</ele>
      </trkpt>
      <trkpt lat="48.43615" lon="2.62492">
        <ele>98.6</ele>
      </trkpt>
      <trkpt lat="48.43606" lon="2.62494">
        <ele>98.7</ele>
      </trkpt>
      <trkpt lat="48.43594" lon="2.62509">
        <ele>98.8</ele>
      </trkpt>
      <trkpt lat="48.4359" lon="2.62527">
        <ele>98.7</ele>
      </trkpt>
      <trkpt lat="48.43589" lon="2.62551">
        <ele>98.7</ele>
      </trkpt>
      <trkpt lat="48.43586" lon="2.62564">
        <ele>98.8</ele>
      </trkpt>
      <trkpt lat="48.4358" lon="2.62571">
        <ele>98.8</ele>
      </trkpt>
      <trkpt lat="48.43575" lon="2.62574">
        <ele>98.8</ele>
      </trkpt>
      <trkpt lat="48.43568" lon="2.62577">
        <ele>98.8</ele>
      </trkpt>
      <trkpt lat="48.43564" lon="2.62586">
        <ele>98.5</ele>
      </trkpt>
      <trkpt lat="48.43557" lon="2.62588">
        <ele>98.4</ele>
      </trkpt>
      <trkpt lat="48.43548" lon="2.626">
        <ele>98.2</ele>
      </trkpt>
      <trkpt lat="48.43538" lon="2.62611">
        <ele>98.1</ele>
      </trkpt>
      <trkpt lat="48.43527" lon="2.62615">
        <ele>98</ele>
      </trkpt>
      <trkpt lat="48.43513" lon="2.6262">
        <ele>97.9</ele>
      </trkpt>
      <trkpt lat="48.43511" lon="2.62631">
        <ele>97.8</ele>
      </trkpt>
      <trkpt lat="48.43505" lon="2.62644">
        <ele>97.6</ele>
      </trkpt>
      <trkpt lat="48.43491" lon="2.62655">
        <ele>97.8</ele>
      </trkpt>
      <trkpt lat="48.43479" lon="2.62675">
        <ele>97.3</ele>
      </trkpt>
      <trkpt lat="48.43468" lon="2.62682">
        <ele>97.4</ele>
      </trkpt>
      <trkpt lat="48.43455" lon="2.62685">
        <ele>97.5</ele>
      </trkpt>
      <trkpt lat="48.43438" lon="2.62684">
        <ele>97.8</ele>
      </trkpt>
      <trkpt lat="48.43425" lon="2.6268">
        <ele>98.1</ele>
      </trkpt>
      <trkpt lat="48.43408" lon="2.62685">
        <ele>100.1</ele>
      </trkpt>
      <trkpt lat="48.43396" lon="2.62681">
        <ele>100.5</ele>
      </trkpt>
      <trkpt lat="48.43381" lon="2.62707">
        <ele>101</ele>
      </trkpt>
      <trkpt lat="48.43382" lon="2.6274">
        <ele>100.4</ele>
      </trkpt>
      <trkpt lat="48.43384" lon="2.62768">
        <ele>99.8</ele>
      </trkpt>
      <trkpt lat="48.43387" lon="2.62777">
        <ele>99.8</ele>
      </trkpt>
      <trkpt lat="48.43391" lon="2.62798">
        <ele>99.9</ele>
      </trkpt>
      <trkpt lat="48.43369" lon="2.62797">
        <ele>100.8</ele>
      </trkpt>
      <trkpt lat="48.43356" lon="2.62793">
        <ele>101.3</ele>
      </trkpt>
      <trkpt lat="48.43344" lon="2.62779">
        <ele>101.7</ele>
      </trkpt>
      <trkpt lat="48.43335" lon="2.62788">
        <ele>101.8</ele>
      </trkpt>
      <trkpt lat="48.43314" lon="2.62797">
        <ele>108.5</ele>
      </trkpt>
      <trkpt lat="48.433" lon="2.62797">
        <ele>109.4</ele>
      </trkpt>
      <trkpt lat="48.43292" lon="2.62808">
        <ele>109.9</ele>
      </trkpt>
      <trkpt lat="48.43287" lon="2.62822">
        <ele>110.3</ele>
      </trkpt>
      <trkpt lat="48.43286" lon="2.62828">
        <ele>110.3</ele>
      </trkpt>
      <trkpt lat="48.43279" lon="2.62837">
        <ele>110.6</ele>
      </trkpt>
      <trkpt lat="48.43271" lon="2.62847">
        <ele>111</ele>
      </trkpt>
      <trkpt lat="48.4326" lon="2.62861">
        <ele>111.1</ele>
      </trkpt>
      <trkpt lat="48.43251" lon="2.62881">
        <ele>110.5</ele>
      </trkpt>
      <trkpt lat="48.4324" lon="2.62887">
        <ele>117.9</ele>
      </trkpt>
      <trkpt lat="48.43231" lon="2.62891">
        <ele>118.3</ele>
      </trkpt>
      <trkpt lat="48.4322" lon="2.62899">
        <ele>119.1</ele>
      </trkpt>
      <trkpt lat="48.43212" lon="2.62901">
        <ele>120.2</ele>
      </trkpt>
      <trkpt lat="48.43205" lon="2.62908">
        <ele>121</ele>
      </trkpt>
      <trkpt lat="48.43199" lon="2.62934">
        <ele>119.4</ele>
      </trkpt>
      <trkpt lat="48.43193" lon="2.62954">
        <ele>119.3</ele>
      </trkpt>
      <trkpt lat="48.43189" lon="2.62972">
        <ele>119.4</ele>
      </trkpt>
      <trkpt lat="48.43168" lon="2.6302">
        <ele>120.1</ele>
      </trkpt>
      <trkpt lat="48.43152" lon="2.63073">
        <ele>127</ele>
      </trkpt>
      <trkpt lat="48.43148" lon="2.6309">
        <ele>128.1</ele>
      </trkpt>
      <trkpt lat="48.43137" lon="2.6313">
        <ele>131.2</ele>
      </trkpt>
      <trkpt lat="48.43121" lon="2.63161">
        <ele>133.3</ele>
      </trkpt>
      <trkpt lat="48.43111" lon="2.63226">
        <ele>135.3</ele>
      </trkpt>
      <trkpt lat="48.43106" lon="2.63252">
        <ele>137.4</ele>
      </trkpt>
      <trkpt lat="48.4309" lon="2.63315">
        <ele>137.7</ele>
      </trkpt>
      <trkpt lat="48.43072" lon="2.63389">
        <ele>141.5</ele>
      </trkpt>
      <trkpt lat="48.43052" lon="2.63439">
        <ele>141.4</ele>
      </trkpt>
      <trkpt lat="48.43042" lon="2.63483">
        <ele>141.5</ele>
      </trkpt>
      <trkpt lat="48.43027" lon="2.6356">
        <ele>140.4</ele>
      </trkpt>
      <trkpt lat="48.43023" lon="2.63588">
        <ele>139.6</ele>
      </trkpt>
      <trkpt lat="48.43017" lon="2.63619">
        <ele>139.4</ele>
      </trkpt>
      <trkpt lat="48.43008" lon="2.63641">
        <ele>139.6</ele>
      </trkpt>
      <trkpt lat="48.43004" lon="2.63667">
        <ele>140.7</ele>
      </trkpt>
      <trkpt lat="48.43" lon="2.637">
        <ele>141.9</ele>
      </trkpt>
      <trkpt lat="48.43" lon="2.63753">
        <ele>138.6</ele>
      </trkpt>
      <trkpt lat="48.43" lon="2.63779">
        <ele>140.4</ele>
      </trkpt>
      <trkpt lat="48.43006" lon="2.63801">
        <ele>135.4</ele>
      </trkpt>
      <trkpt lat="48.42999" lon="2.63829">
        <ele>137.2</ele>
      </trkpt>
      <trkpt lat="48.42998" lon="2.63862">
        <ele>139</ele>
      </trkpt>
      <trkpt lat="48.42992" lon="2.63883">
        <ele>139.1</ele>
      </trkpt>
      <trkpt lat="48.42972" lon="2.63923">
        <ele>139.1</ele>
      </trkpt>
      <trkpt lat="48.42966" lon="2.63927">
        <ele>139.6</ele>
      </trkpt>
      <trkpt lat="48.42966" lon="2.63975">
        <ele>139.7</ele>
      </trkpt>
      <trkpt lat="48.42964" lon="2.64006">
        <ele>139.4</ele>
      </trkpt>
      <trkpt lat="48.42954" lon="2.64057">
        <ele>139.9</ele>
      </trkpt>
      <trkpt lat="48.42947" lon="2.64087">
        <ele>138.8</ele>
      </trkpt>
      <trkpt lat="48.42932" lon="2.64123">
        <ele>138</ele>
      </trkpt>
      <trkpt lat="48.42917" lon="2.64166">
        <ele>136</ele>
      </trkpt>
      <trkpt lat="48.429" lon="2.64276">
        <ele>137.6</ele>
      </trkpt>
      <trkpt lat="48.42893" lon="2.64342">
        <ele>135.4</ele>
      </trkpt>
      <trkpt lat="48.42884" lon="2.64345">
        <ele>136</ele>
      </trkpt>
      <trkpt lat="48.42858" lon="2.64381">
        <ele>137.3</ele>
      </trkpt>
      <trkpt lat="48.42839" lon="2.64427">
        <ele>138</ele>
      </trkpt>
      <trkpt lat="48.42788" lon="2.64539">
        <ele>141.2</ele>
      </trkpt>
      <trkpt lat="48.42762" lon="2.64598">
        <ele>140.7</ele>
      </trkpt>
      <trkpt lat="48.42749" lon="2.64613">
        <ele>140.2</ele>
      </trkpt>
      <trkpt lat="48.4273" lon="2.64626">
        <ele>139.4</ele>
      </trkpt>
      <trkpt lat="48.42691" lon="2.64657">
        <ele>137.5</ele>
      </trkpt>
      <trkpt lat="48.42663" lon="2.64678">
        <ele>133.1</ele>
      </trkpt>
      <trkpt lat="48.42645" lon="2.64694">
        <ele>131.1</ele>
      </trkpt>
      <trkpt lat="48.42625" lon="2.64711">
        <ele>130</ele>
      </trkpt>
      <trkpt lat="48.42586" lon="2.64748">
        <ele>127.3</ele>
      </trkpt>
      <trkpt lat="48.42581" lon="2.64745">
        <ele>127.1</ele>
      </trkpt>
      <trkpt lat="48.42563" lon="2.64747">
        <ele>127.5</ele>
      </trkpt>
      <trkpt lat="48.42548" lon="2.6476">
        <ele>130.1</ele>
      </trkpt>
      <trkpt lat="48.42537" lon="2.64751">
        <ele>130.4</ele>
      </trkpt>
      <trkpt lat="48.4253" lon="2.64747">
        <ele>128.5</ele>
      </trkpt>
      <trkpt lat="48.42516" lon="2.64752">
        <ele>130.9</ele>
      </trkpt>
      <trkpt lat="48.42508" lon="2.6476">
        <ele>131</ele>
      </trkpt>
      <trkpt lat="48.42494" lon="2.64758">
        <ele>132.9</ele>
      </trkpt>
      <trkpt lat="48.42486" lon="2.64761">
        <ele>134</ele>
      </trkpt>
      <trkpt lat="48.42479" lon="2.64769">
        <ele>135</ele>
      </trkpt>
      <trkpt lat="48.42478" lon="2.6479">
        <ele>135.9</ele>
      </trkpt>
      <trkpt lat="48.42471" lon="2.64811">
        <ele>136.5</ele>
      </trkpt>
      <trkpt lat="48.42462" lon="2.64834">
        <ele>137.3</ele>
      </trkpt>
      <trkpt lat="48.42458" lon="2.64847">
        <ele>137.5</ele>
      </trkpt>
      <trkpt lat="48.42441" lon="2.64853">
        <ele>138.2</ele>
      </trkpt>
      <trkpt lat="48.42431" lon="2.64853">
        <ele>138.7</ele>
      </trkpt>
      <trkpt lat="48.42424" lon="2.64846">
        <ele>139.3</ele>
      </trkpt>
      <trkpt lat="48.42411" lon="2.64849">
        <ele>140.7</ele>
      </trkpt>
      <trkpt lat="48.424" lon="2.64853">
        <ele>140.7</ele>
      </trkpt>
      <trkpt lat="48.4239" lon="2.64847">
        <ele>140.7</ele>
      </trkpt>
      <trkpt lat="48.4238" lon="2.64842">
        <ele>140.8</ele>
      </trkpt>
      <trkpt lat="48.42375" lon="2.64845">
        <ele>140.8</ele>
      </trkpt>
      <trkpt lat="48.42365" lon="2.64852">
        <ele>140.9</ele>
      </trkpt>
      <trkpt lat="48.42354" lon="2.64861">
        <ele>140.8</ele>
      </trkpt>
      <trkpt lat="48.42342" lon="2.64868">
        <ele>140.8</ele>
      </trkpt>
      <trkpt lat="48.4234" lon="2.64874">
        <ele>140.7</ele>
      </trkpt>
      <trkpt lat="48.42326" lon="2.64876">
        <ele>140.7</ele>
      </trkpt>
      <trkpt lat="48.42312" lon="2.64879">
        <ele>140.6</ele>
      </trkpt>
      <trkpt lat="48.42284" lon="2.64888">
        <ele>140.4</ele>
      </trkpt>
      <trkpt lat="48.42271" lon="2.64898">
        <ele>140.3</ele>
      </trkpt>
      <trkpt lat="48.42256" lon="2.64913">
        <ele>140.1</ele>
      </trkpt>
      <trkpt lat="48.4224" lon="2.64935">
        <ele>140</ele>
      </trkpt>
      <trkpt lat="48.42215" lon="2.64973">
        <ele>140</ele>
      </trkpt>
      <trkpt lat="48.42207" lon="2.64992">
        <ele>140</ele>
      </trkpt>
      <trkpt lat="48.42201" lon="2.65026">
        <ele>139.8</ele>
      </trkpt>
      <trkpt lat="48.42195" lon="2.65041">
        <ele>139.8</ele>
      </trkpt>
      <trkpt lat="48.42188" lon="2.65057">
        <ele>139.8</ele>
      </trkpt>
      <trkpt lat="48.42177" lon="2.65076">
        <ele>139.9</ele>
      </trkpt>
      <trkpt lat="48.42167" lon="2.65084">
        <ele>139.9</ele>
      </trkpt>
      <trkpt lat="48.42159" lon="2.65097">
        <ele>139.6</ele>
      </trkpt>
      <trkpt lat="48.42152" lon="2.651">
        <ele>139.5</ele>
      </trkpt>
      <trkpt lat="48.42143" lon="2.65125">
        <ele>139.3</ele>
      </trkpt>
      <trkpt lat="48.42141" lon="2.65129">
        <ele>139.3</ele>
      </trkpt>
      <trkpt lat="48.42135" lon="2.6513">
        <ele>139.3</ele>
      </trkpt>
      <trkpt lat="48.42144" lon="2.65186">
        <ele>138.4</ele>
      </trkpt>
      <trkpt lat="48.42153" lon="2.65225">
        <ele>138</ele>
      </trkpt>
      <trkpt lat="48.42158" lon="2.65246">
        <ele>138</ele>
      </trkpt>
      <trkpt lat="48.42159" lon="2.65251">
        <ele>137.9</ele>
      </trkpt>
      <trkpt lat="48.4216" lon="2.6527">
        <ele>137.8</ele>
      </trkpt>
    </trkseg>
  </trk>
</gpx>